<?xml version="1.0" encoding="UTF-8" standalone="no" ?>
<gpx xmlns="http://www.topografix.com/GPX/1/1" xmlns:xsi="http://www.w3.org/2001/XMLSchema-instance" xsi:schemaLocation="http://www.topografix.com/GPX/1/1 http://www.topografix.com/GPX/1/1/gpx.xsd" version="1.1" creator="VisuGPX - https://www.visugpx.com">
  <metadata>
    <name>Entre Revermont et Bresse</name>
  </metadata>
  <trk>
    <name><![CDATA[Entre Revermont et Bresse]]></name>
    <trkseg>
      <trkpt lat="46.90649" lon="5.77142">
        <ele>281.2</ele>
        <time>2020-03-04T07:45:39Z</time>
      </trkpt>
      <trkpt lat="46.90648" lon="5.77137">
        <ele>281.4</ele>
        <time>2020-03-04T07:45:43Z</time>
      </trkpt>
      <trkpt lat="46.90647" lon="5.77134">
        <ele>281.6</ele>
        <time>2020-03-04T07:45:44Z</time>
      </trkpt>
      <trkpt lat="46.90646" lon="5.77132">
        <ele>281.6</ele>
        <time>2020-03-04T07:45:45Z</time>
      </trkpt>
      <trkpt lat="46.90645" lon="5.77128">
        <ele>282</ele>
        <time>2020-03-04T07:45:46Z</time>
      </trkpt>
      <trkpt lat="46.90644" lon="5.77124">
        <ele>282</ele>
        <time>2020-03-04T07:45:47Z</time>
      </trkpt>
      <trkpt lat="46.90642" lon="5.7712">
        <ele>282</ele>
        <time>2020-03-04T07:45:48Z</time>
      </trkpt>
      <trkpt lat="46.9064" lon="5.77117">
        <ele>282</ele>
        <time>2020-03-04T07:45:49Z</time>
      </trkpt>
      <trkpt lat="46.90639" lon="5.77113">
        <ele>282</ele>
        <time>2020-03-04T07:45:50Z</time>
      </trkpt>
      <trkpt lat="46.90638" lon="5.77109">
        <ele>282</ele>
        <time>2020-03-04T07:45:51Z</time>
      </trkpt>
      <trkpt lat="46.90637" lon="5.77106">
        <ele>282</ele>
        <time>2020-03-04T07:45:52Z</time>
      </trkpt>
      <trkpt lat="46.90635" lon="5.77104">
        <ele>282</ele>
        <time>2020-03-04T07:45:53Z</time>
      </trkpt>
      <trkpt lat="46.90633" lon="5.77103">
        <ele>282</ele>
        <time>2020-03-04T07:45:54Z</time>
      </trkpt>
      <trkpt lat="46.90631" lon="5.77101">
        <ele>282</ele>
        <time>2020-03-04T07:45:55Z</time>
      </trkpt>
      <trkpt lat="46.90629" lon="5.77101">
        <ele>282</ele>
        <time>2020-03-04T07:45:56Z</time>
      </trkpt>
      <trkpt lat="46.90626" lon="5.77101">
        <ele>282.2</ele>
        <time>2020-03-04T07:45:57Z</time>
      </trkpt>
      <trkpt lat="46.90624" lon="5.77102">
        <ele>282.2</ele>
        <time>2020-03-04T07:45:58Z</time>
      </trkpt>
      <trkpt lat="46.90622" lon="5.77103">
        <ele>282.6</ele>
        <time>2020-03-04T07:45:59Z</time>
      </trkpt>
      <trkpt lat="46.9062" lon="5.77104">
        <ele>283</ele>
        <time>2020-03-04T07:46:00Z</time>
      </trkpt>
      <trkpt lat="46.90618" lon="5.77106">
        <ele>283.2</ele>
        <time>2020-03-04T07:46:01Z</time>
      </trkpt>
      <trkpt lat="46.90616" lon="5.77107">
        <ele>283.2</ele>
        <time>2020-03-04T07:46:02Z</time>
      </trkpt>
      <trkpt lat="46.90614" lon="5.77108">
        <ele>283.6</ele>
        <time>2020-03-04T07:46:03Z</time>
      </trkpt>
      <trkpt lat="46.90612" lon="5.77109">
        <ele>283.6</ele>
        <time>2020-03-04T07:46:04Z</time>
      </trkpt>
      <trkpt lat="46.9061" lon="5.77111">
        <ele>283.8</ele>
        <time>2020-03-04T07:46:05Z</time>
      </trkpt>
      <trkpt lat="46.90608" lon="5.77113">
        <ele>283.8</ele>
        <time>2020-03-04T07:46:06Z</time>
      </trkpt>
      <trkpt lat="46.90606" lon="5.77115">
        <ele>284.2</ele>
        <time>2020-03-04T07:46:07Z</time>
      </trkpt>
      <trkpt lat="46.90604" lon="5.77118">
        <ele>284.2</ele>
        <time>2020-03-04T07:46:08Z</time>
      </trkpt>
      <trkpt lat="46.90603" lon="5.77121">
        <ele>284.2</ele>
        <time>2020-03-04T07:46:09Z</time>
      </trkpt>
      <trkpt lat="46.90601" lon="5.77125">
        <ele>284.4</ele>
        <time>2020-03-04T07:46:10Z</time>
      </trkpt>
      <trkpt lat="46.906" lon="5.77129">
        <ele>284.4</ele>
        <time>2020-03-04T07:46:11Z</time>
      </trkpt>
      <trkpt lat="46.90599" lon="5.77134">
        <ele>284.8</ele>
        <time>2020-03-04T07:46:12Z</time>
      </trkpt>
      <trkpt lat="46.90597" lon="5.77139">
        <ele>284.8</ele>
        <time>2020-03-04T07:46:13Z</time>
      </trkpt>
      <trkpt lat="46.90596" lon="5.77144">
        <ele>285.2</ele>
        <time>2020-03-04T07:46:14Z</time>
      </trkpt>
      <trkpt lat="46.90595" lon="5.7715">
        <ele>285.2</ele>
        <time>2020-03-04T07:46:15Z</time>
      </trkpt>
      <trkpt lat="46.90594" lon="5.77154">
        <ele>285.6</ele>
        <time>2020-03-04T07:46:16Z</time>
      </trkpt>
      <trkpt lat="46.90593" lon="5.77159">
        <ele>285.8</ele>
        <time>2020-03-04T07:46:17Z</time>
      </trkpt>
      <trkpt lat="46.90591" lon="5.77164">
        <ele>286.2</ele>
        <time>2020-03-04T07:46:18Z</time>
      </trkpt>
      <trkpt lat="46.9059" lon="5.77168">
        <ele>286.4</ele>
        <time>2020-03-04T07:46:19Z</time>
      </trkpt>
      <trkpt lat="46.9059" lon="5.77173">
        <ele>286.8</ele>
        <time>2020-03-04T07:46:20Z</time>
      </trkpt>
      <trkpt lat="46.90589" lon="5.77177">
        <ele>287.2</ele>
        <time>2020-03-04T07:46:21Z</time>
      </trkpt>
      <trkpt lat="46.90588" lon="5.77181">
        <ele>287.4</ele>
        <time>2020-03-04T07:46:22Z</time>
      </trkpt>
      <trkpt lat="46.90587" lon="5.77184">
        <ele>287.8</ele>
        <time>2020-03-04T07:46:23Z</time>
      </trkpt>
      <trkpt lat="46.90586" lon="5.77187">
        <ele>288.2</ele>
        <time>2020-03-04T07:46:24Z</time>
      </trkpt>
      <trkpt lat="46.90586" lon="5.7719">
        <ele>288.6</ele>
        <time>2020-03-04T07:46:25Z</time>
      </trkpt>
      <trkpt lat="46.90584" lon="5.77193">
        <ele>289</ele>
        <time>2020-03-04T07:46:26Z</time>
      </trkpt>
      <trkpt lat="46.90583" lon="5.77197">
        <ele>289.2</ele>
        <time>2020-03-04T07:46:27Z</time>
      </trkpt>
      <trkpt lat="46.90582" lon="5.77201">
        <ele>289.4</ele>
        <time>2020-03-04T07:46:28Z</time>
      </trkpt>
      <trkpt lat="46.90581" lon="5.77205">
        <ele>289.8</ele>
        <time>2020-03-04T07:46:29Z</time>
      </trkpt>
      <trkpt lat="46.9058" lon="5.77208">
        <ele>290</ele>
        <time>2020-03-04T07:46:30Z</time>
      </trkpt>
      <trkpt lat="46.90579" lon="5.77211">
        <ele>290.2</ele>
        <time>2020-03-04T07:46:31Z</time>
      </trkpt>
      <trkpt lat="46.90577" lon="5.77214">
        <ele>290.4</ele>
        <time>2020-03-04T07:46:32Z</time>
      </trkpt>
      <trkpt lat="46.90576" lon="5.77217">
        <ele>290.8</ele>
        <time>2020-03-04T07:46:33Z</time>
      </trkpt>
      <trkpt lat="46.90575" lon="5.77219">
        <ele>291</ele>
        <time>2020-03-04T07:46:34Z</time>
      </trkpt>
      <trkpt lat="46.90574" lon="5.77222">
        <ele>291.2</ele>
        <time>2020-03-04T07:46:35Z</time>
      </trkpt>
      <trkpt lat="46.90572" lon="5.77225">
        <ele>291.6</ele>
        <time>2020-03-04T07:46:36Z</time>
      </trkpt>
      <trkpt lat="46.90571" lon="5.77229">
        <ele>291.8</ele>
        <time>2020-03-04T07:46:37Z</time>
      </trkpt>
      <trkpt lat="46.9057" lon="5.77232">
        <ele>292.2</ele>
        <time>2020-03-04T07:46:38Z</time>
      </trkpt>
      <trkpt lat="46.90568" lon="5.77235">
        <ele>292.6</ele>
        <time>2020-03-04T07:46:39Z</time>
      </trkpt>
      <trkpt lat="46.90566" lon="5.77237">
        <ele>292.8</ele>
        <time>2020-03-04T07:46:40Z</time>
      </trkpt>
      <trkpt lat="46.90565" lon="5.7724">
        <ele>293.2</ele>
        <time>2020-03-04T07:46:41Z</time>
      </trkpt>
      <trkpt lat="46.90564" lon="5.77243">
        <ele>293.4</ele>
        <time>2020-03-04T07:46:42Z</time>
      </trkpt>
      <trkpt lat="46.90563" lon="5.77245">
        <ele>293.6</ele>
        <time>2020-03-04T07:46:43Z</time>
      </trkpt>
      <trkpt lat="46.90561" lon="5.77248">
        <ele>293.8</ele>
        <time>2020-03-04T07:46:44Z</time>
      </trkpt>
      <trkpt lat="46.9056" lon="5.77251">
        <ele>294</ele>
        <time>2020-03-04T07:46:45Z</time>
      </trkpt>
      <trkpt lat="46.90559" lon="5.77254">
        <ele>294.4</ele>
        <time>2020-03-04T07:46:46Z</time>
      </trkpt>
      <trkpt lat="46.90557" lon="5.77256">
        <ele>294.4</ele>
        <time>2020-03-04T07:46:47Z</time>
      </trkpt>
      <trkpt lat="46.90556" lon="5.77259">
        <ele>295</ele>
        <time>2020-03-04T07:46:48Z</time>
      </trkpt>
      <trkpt lat="46.90555" lon="5.77262">
        <ele>295.2</ele>
        <time>2020-03-04T07:46:49Z</time>
      </trkpt>
      <trkpt lat="46.90553" lon="5.77265">
        <ele>295.6</ele>
        <time>2020-03-04T07:46:50Z</time>
      </trkpt>
      <trkpt lat="46.90552" lon="5.77268">
        <ele>295.8</ele>
        <time>2020-03-04T07:46:51Z</time>
      </trkpt>
      <trkpt lat="46.90551" lon="5.77271">
        <ele>295.8</ele>
        <time>2020-03-04T07:46:52Z</time>
      </trkpt>
      <trkpt lat="46.90549" lon="5.77274">
        <ele>296.2</ele>
        <time>2020-03-04T07:46:53Z</time>
      </trkpt>
      <trkpt lat="46.90548" lon="5.77277">
        <ele>296.4</ele>
        <time>2020-03-04T07:46:54Z</time>
      </trkpt>
      <trkpt lat="46.90547" lon="5.77279">
        <ele>296.8</ele>
        <time>2020-03-04T07:46:55Z</time>
      </trkpt>
      <trkpt lat="46.90546" lon="5.77282">
        <ele>296.8</ele>
        <time>2020-03-04T07:46:56Z</time>
      </trkpt>
      <trkpt lat="46.90545" lon="5.77285">
        <ele>297</ele>
        <time>2020-03-04T07:46:57Z</time>
      </trkpt>
      <trkpt lat="46.90545" lon="5.77287">
        <ele>297</ele>
        <time>2020-03-04T07:46:58Z</time>
      </trkpt>
      <trkpt lat="46.90544" lon="5.77289">
        <ele>297.4</ele>
        <time>2020-03-04T07:46:59Z</time>
      </trkpt>
      <trkpt lat="46.90543" lon="5.77291">
        <ele>297.4</ele>
        <time>2020-03-04T07:47:00Z</time>
      </trkpt>
      <trkpt lat="46.90542" lon="5.77293">
        <ele>297.6</ele>
        <time>2020-03-04T07:47:01Z</time>
      </trkpt>
      <trkpt lat="46.90541" lon="5.77295">
        <ele>297.6</ele>
        <time>2020-03-04T07:47:02Z</time>
      </trkpt>
      <trkpt lat="46.9054" lon="5.77298">
        <ele>297.6</ele>
        <time>2020-03-04T07:47:03Z</time>
      </trkpt>
      <trkpt lat="46.90539" lon="5.773">
        <ele>297.8</ele>
        <time>2020-03-04T07:47:04Z</time>
      </trkpt>
      <trkpt lat="46.90538" lon="5.77302">
        <ele>297.8</ele>
        <time>2020-03-04T07:47:05Z</time>
      </trkpt>
      <trkpt lat="46.90538" lon="5.77305">
        <ele>297.8</ele>
        <time>2020-03-04T07:47:06Z</time>
      </trkpt>
      <trkpt lat="46.90537" lon="5.77308">
        <ele>297.8</ele>
        <time>2020-03-04T07:47:07Z</time>
      </trkpt>
      <trkpt lat="46.90536" lon="5.77311">
        <ele>298</ele>
        <time>2020-03-04T07:47:08Z</time>
      </trkpt>
      <trkpt lat="46.90535" lon="5.77313">
        <ele>298</ele>
        <time>2020-03-04T07:47:09Z</time>
      </trkpt>
      <trkpt lat="46.90534" lon="5.77315">
        <ele>298</ele>
        <time>2020-03-04T07:47:10Z</time>
      </trkpt>
      <trkpt lat="46.90533" lon="5.77317">
        <ele>298</ele>
        <time>2020-03-04T07:47:11Z</time>
      </trkpt>
      <trkpt lat="46.90532" lon="5.77319">
        <ele>298</ele>
        <time>2020-03-04T07:47:12Z</time>
      </trkpt>
      <trkpt lat="46.90531" lon="5.77321">
        <ele>298.4</ele>
        <time>2020-03-04T07:47:13Z</time>
      </trkpt>
      <trkpt lat="46.90531" lon="5.77323">
        <ele>298.4</ele>
        <time>2020-03-04T07:47:14Z</time>
      </trkpt>
      <trkpt lat="46.9053" lon="5.77324">
        <ele>298.4</ele>
        <time>2020-03-04T07:47:15Z</time>
      </trkpt>
      <trkpt lat="46.90528" lon="5.77324">
        <ele>298.4</ele>
        <time>2020-03-04T07:47:16Z</time>
      </trkpt>
      <trkpt lat="46.90526" lon="5.77323">
        <ele>298.4</ele>
        <time>2020-03-04T07:47:17Z</time>
      </trkpt>
      <trkpt lat="46.90523" lon="5.77321">
        <ele>298.4</ele>
        <time>2020-03-04T07:47:18Z</time>
      </trkpt>
      <trkpt lat="46.90521" lon="5.77317">
        <ele>298</ele>
        <time>2020-03-04T07:47:19Z</time>
      </trkpt>
      <trkpt lat="46.90518" lon="5.77313">
        <ele>297.8</ele>
        <time>2020-03-04T07:47:20Z</time>
      </trkpt>
      <trkpt lat="46.90514" lon="5.77308">
        <ele>297.4</ele>
        <time>2020-03-04T07:47:21Z</time>
      </trkpt>
      <trkpt lat="46.90511" lon="5.77303">
        <ele>297.2</ele>
        <time>2020-03-04T07:47:22Z</time>
      </trkpt>
      <trkpt lat="46.90507" lon="5.77298">
        <ele>296.8</ele>
        <time>2020-03-04T07:47:23Z</time>
      </trkpt>
      <trkpt lat="46.90503" lon="5.77293">
        <ele>296.4</ele>
        <time>2020-03-04T07:47:24Z</time>
      </trkpt>
      <trkpt lat="46.905" lon="5.77287">
        <ele>295.8</ele>
        <time>2020-03-04T07:47:25Z</time>
      </trkpt>
      <trkpt lat="46.90496" lon="5.77282">
        <ele>295.2</ele>
        <time>2020-03-04T07:47:26Z</time>
      </trkpt>
      <trkpt lat="46.90493" lon="5.77276">
        <ele>294.8</ele>
        <time>2020-03-04T07:47:27Z</time>
      </trkpt>
      <trkpt lat="46.9049" lon="5.77271">
        <ele>294.4</ele>
        <time>2020-03-04T07:47:28Z</time>
      </trkpt>
      <trkpt lat="46.90488" lon="5.77267">
        <ele>294</ele>
        <time>2020-03-04T07:47:29Z</time>
      </trkpt>
      <trkpt lat="46.90486" lon="5.77263">
        <ele>293.6</ele>
        <time>2020-03-04T07:47:30Z</time>
      </trkpt>
      <trkpt lat="46.90484" lon="5.77261">
        <ele>293.2</ele>
        <time>2020-03-04T07:47:31Z</time>
      </trkpt>
      <trkpt lat="46.90483" lon="5.77259">
        <ele>293</ele>
        <time>2020-03-04T07:47:32Z</time>
      </trkpt>
      <trkpt lat="46.90482" lon="5.77257">
        <ele>292.8</ele>
        <time>2020-03-04T07:47:33Z</time>
      </trkpt>
      <trkpt lat="46.90483" lon="5.77254">
        <ele>292.6</ele>
        <time>2020-03-04T07:47:34Z</time>
      </trkpt>
      <trkpt lat="46.90484" lon="5.77251">
        <ele>292.6</ele>
        <time>2020-03-04T07:47:35Z</time>
      </trkpt>
      <trkpt lat="46.90484" lon="5.77246">
        <ele>292.4</ele>
        <time>2020-03-04T07:47:36Z</time>
      </trkpt>
      <trkpt lat="46.90483" lon="5.77241">
        <ele>292.4</ele>
        <time>2020-03-04T07:47:37Z</time>
      </trkpt>
      <trkpt lat="46.90482" lon="5.77236">
        <ele>292</ele>
        <time>2020-03-04T07:47:38Z</time>
      </trkpt>
      <trkpt lat="46.90481" lon="5.77231">
        <ele>292</ele>
        <time>2020-03-04T07:47:39Z</time>
      </trkpt>
      <trkpt lat="46.90481" lon="5.77227">
        <ele>291.6</ele>
        <time>2020-03-04T07:47:40Z</time>
      </trkpt>
      <trkpt lat="46.9048" lon="5.77222">
        <ele>291.6</ele>
        <time>2020-03-04T07:47:41Z</time>
      </trkpt>
      <trkpt lat="46.90478" lon="5.77217">
        <ele>291.2</ele>
        <time>2020-03-04T07:47:42Z</time>
      </trkpt>
      <trkpt lat="46.90478" lon="5.77212">
        <ele>291.2</ele>
        <time>2020-03-04T07:47:43Z</time>
      </trkpt>
      <trkpt lat="46.90477" lon="5.77207">
        <ele>290.8</ele>
        <time>2020-03-04T07:47:44Z</time>
      </trkpt>
      <trkpt lat="46.90475" lon="5.77202">
        <ele>290.8</ele>
        <time>2020-03-04T07:47:45Z</time>
      </trkpt>
      <trkpt lat="46.90474" lon="5.77198">
        <ele>290.6</ele>
        <time>2020-03-04T07:47:46Z</time>
      </trkpt>
      <trkpt lat="46.90472" lon="5.77193">
        <ele>290.6</ele>
        <time>2020-03-04T07:47:47Z</time>
      </trkpt>
      <trkpt lat="46.9047" lon="5.7719">
        <ele>290.2</ele>
        <time>2020-03-04T07:47:48Z</time>
      </trkpt>
      <trkpt lat="46.90468" lon="5.77187">
        <ele>290.2</ele>
        <time>2020-03-04T07:47:49Z</time>
      </trkpt>
      <trkpt lat="46.90466" lon="5.77186">
        <ele>290</ele>
        <time>2020-03-04T07:47:50Z</time>
      </trkpt>
      <trkpt lat="46.90464" lon="5.77186">
        <ele>290</ele>
        <time>2020-03-04T07:47:51Z</time>
      </trkpt>
      <trkpt lat="46.90462" lon="5.77185">
        <ele>290</ele>
        <time>2020-03-04T07:47:52Z</time>
      </trkpt>
      <trkpt lat="46.90459" lon="5.77185">
        <ele>289.8</ele>
        <time>2020-03-04T07:47:53Z</time>
      </trkpt>
      <trkpt lat="46.90456" lon="5.77184">
        <ele>289.8</ele>
        <time>2020-03-04T07:47:54Z</time>
      </trkpt>
      <trkpt lat="46.90454" lon="5.77182">
        <ele>289.8</ele>
        <time>2020-03-04T07:47:55Z</time>
      </trkpt>
      <trkpt lat="46.90452" lon="5.77179">
        <ele>289.8</ele>
        <time>2020-03-04T07:47:56Z</time>
      </trkpt>
      <trkpt lat="46.90449" lon="5.77175">
        <ele>289.8</ele>
        <time>2020-03-04T07:47:57Z</time>
      </trkpt>
      <trkpt lat="46.90447" lon="5.77171">
        <ele>289.8</ele>
        <time>2020-03-04T07:47:58Z</time>
      </trkpt>
      <trkpt lat="46.90445" lon="5.77167">
        <ele>289.4</ele>
        <time>2020-03-04T07:47:59Z</time>
      </trkpt>
      <trkpt lat="46.90443" lon="5.77164">
        <ele>289.4</ele>
        <time>2020-03-04T07:48:00Z</time>
      </trkpt>
      <trkpt lat="46.90441" lon="5.7716">
        <ele>289.4</ele>
        <time>2020-03-04T07:48:01Z</time>
      </trkpt>
      <trkpt lat="46.90439" lon="5.77157">
        <ele>289.2</ele>
        <time>2020-03-04T07:48:02Z</time>
      </trkpt>
      <trkpt lat="46.90438" lon="5.77154">
        <ele>289.2</ele>
        <time>2020-03-04T07:48:03Z</time>
      </trkpt>
      <trkpt lat="46.90436" lon="5.77151">
        <ele>289.2</ele>
        <time>2020-03-04T07:48:04Z</time>
      </trkpt>
      <trkpt lat="46.90435" lon="5.77148">
        <ele>289</ele>
        <time>2020-03-04T07:48:05Z</time>
      </trkpt>
      <trkpt lat="46.90434" lon="5.77146">
        <ele>289</ele>
        <time>2020-03-04T07:48:06Z</time>
      </trkpt>
      <trkpt lat="46.90432" lon="5.77145">
        <ele>289</ele>
        <time>2020-03-04T07:48:07Z</time>
      </trkpt>
      <trkpt lat="46.90429" lon="5.77144">
        <ele>289</ele>
        <time>2020-03-04T07:48:08Z</time>
      </trkpt>
      <trkpt lat="46.90426" lon="5.77145">
        <ele>289</ele>
        <time>2020-03-04T07:48:09Z</time>
      </trkpt>
      <trkpt lat="46.90424" lon="5.77146">
        <ele>289</ele>
        <time>2020-03-04T07:48:10Z</time>
      </trkpt>
      <trkpt lat="46.90422" lon="5.77149">
        <ele>289</ele>
        <time>2020-03-04T07:48:11Z</time>
      </trkpt>
      <trkpt lat="46.9042" lon="5.77152">
        <ele>289</ele>
        <time>2020-03-04T07:48:12Z</time>
      </trkpt>
      <trkpt lat="46.90419" lon="5.77156">
        <ele>289</ele>
        <time>2020-03-04T07:48:13Z</time>
      </trkpt>
      <trkpt lat="46.90416" lon="5.7716">
        <ele>289</ele>
        <time>2020-03-04T07:48:14Z</time>
      </trkpt>
      <trkpt lat="46.90414" lon="5.77165">
        <ele>289.2</ele>
        <time>2020-03-04T07:48:15Z</time>
      </trkpt>
      <trkpt lat="46.90412" lon="5.77169">
        <ele>289.2</ele>
        <time>2020-03-04T07:48:16Z</time>
      </trkpt>
      <trkpt lat="46.90409" lon="5.77174">
        <ele>289.4</ele>
        <time>2020-03-04T07:48:17Z</time>
      </trkpt>
      <trkpt lat="46.90406" lon="5.77178">
        <ele>289.4</ele>
        <time>2020-03-04T07:48:18Z</time>
      </trkpt>
      <trkpt lat="46.90404" lon="5.77184">
        <ele>289.8</ele>
        <time>2020-03-04T07:48:19Z</time>
      </trkpt>
      <trkpt lat="46.90401" lon="5.7719">
        <ele>289.8</ele>
        <time>2020-03-04T07:48:20Z</time>
      </trkpt>
      <trkpt lat="46.90398" lon="5.77196">
        <ele>290</ele>
        <time>2020-03-04T07:48:21Z</time>
      </trkpt>
      <trkpt lat="46.90395" lon="5.77202">
        <ele>290.4</ele>
        <time>2020-03-04T07:48:22Z</time>
      </trkpt>
      <trkpt lat="46.90392" lon="5.77208">
        <ele>290.4</ele>
        <time>2020-03-04T07:48:23Z</time>
      </trkpt>
      <trkpt lat="46.90388" lon="5.77215">
        <ele>290.8</ele>
        <time>2020-03-04T07:48:24Z</time>
      </trkpt>
      <trkpt lat="46.90386" lon="5.77222">
        <ele>290.8</ele>
        <time>2020-03-04T07:48:25Z</time>
      </trkpt>
      <trkpt lat="46.90382" lon="5.77229">
        <ele>291</ele>
        <time>2020-03-04T07:48:26Z</time>
      </trkpt>
      <trkpt lat="46.90378" lon="5.77235">
        <ele>291.4</ele>
        <time>2020-03-04T07:48:27Z</time>
      </trkpt>
      <trkpt lat="46.90375" lon="5.77241">
        <ele>291.4</ele>
        <time>2020-03-04T07:48:28Z</time>
      </trkpt>
      <trkpt lat="46.90371" lon="5.77247">
        <ele>291.8</ele>
        <time>2020-03-04T07:48:29Z</time>
      </trkpt>
      <trkpt lat="46.90367" lon="5.77253">
        <ele>292</ele>
        <time>2020-03-04T07:48:30Z</time>
      </trkpt>
      <trkpt lat="46.90363" lon="5.77258">
        <ele>292</ele>
        <time>2020-03-04T07:48:31Z</time>
      </trkpt>
      <trkpt lat="46.90359" lon="5.77262">
        <ele>292.4</ele>
        <time>2020-03-04T07:48:32Z</time>
      </trkpt>
      <trkpt lat="46.90356" lon="5.77265">
        <ele>292.4</ele>
        <time>2020-03-04T07:48:33Z</time>
      </trkpt>
      <trkpt lat="46.90352" lon="5.77268">
        <ele>292.8</ele>
        <time>2020-03-04T07:48:34Z</time>
      </trkpt>
      <trkpt lat="46.90348" lon="5.77271">
        <ele>293</ele>
        <time>2020-03-04T07:48:35Z</time>
      </trkpt>
      <trkpt lat="46.90345" lon="5.77273">
        <ele>293</ele>
        <time>2020-03-04T07:48:36Z</time>
      </trkpt>
      <trkpt lat="46.90342" lon="5.77275">
        <ele>293.4</ele>
        <time>2020-03-04T07:48:37Z</time>
      </trkpt>
      <trkpt lat="46.90339" lon="5.77277">
        <ele>293.6</ele>
        <time>2020-03-04T07:48:38Z</time>
      </trkpt>
      <trkpt lat="46.90336" lon="5.77278">
        <ele>293.6</ele>
        <time>2020-03-04T07:48:39Z</time>
      </trkpt>
      <trkpt lat="46.90333" lon="5.7728">
        <ele>294</ele>
        <time>2020-03-04T07:48:40Z</time>
      </trkpt>
      <trkpt lat="46.9033" lon="5.77281">
        <ele>294</ele>
        <time>2020-03-04T07:48:41Z</time>
      </trkpt>
      <trkpt lat="46.90326" lon="5.77282">
        <ele>294.4</ele>
        <time>2020-03-04T07:48:42Z</time>
      </trkpt>
      <trkpt lat="46.90323" lon="5.77282">
        <ele>294.4</ele>
        <time>2020-03-04T07:48:43Z</time>
      </trkpt>
      <trkpt lat="46.9032" lon="5.77284">
        <ele>294.4</ele>
        <time>2020-03-04T07:48:44Z</time>
      </trkpt>
      <trkpt lat="46.90317" lon="5.77286">
        <ele>294.6</ele>
        <time>2020-03-04T07:48:45Z</time>
      </trkpt>
      <trkpt lat="46.90316" lon="5.77289">
        <ele>294.6</ele>
        <time>2020-03-04T07:48:46Z</time>
      </trkpt>
      <trkpt lat="46.90314" lon="5.77293">
        <ele>294.6</ele>
        <time>2020-03-04T07:48:47Z</time>
      </trkpt>
      <trkpt lat="46.90314" lon="5.77299">
        <ele>294.8</ele>
        <time>2020-03-04T07:48:48Z</time>
      </trkpt>
      <trkpt lat="46.90315" lon="5.77304">
        <ele>294.8</ele>
        <time>2020-03-04T07:48:49Z</time>
      </trkpt>
      <trkpt lat="46.90317" lon="5.77309">
        <ele>294.8</ele>
        <time>2020-03-04T07:48:50Z</time>
      </trkpt>
      <trkpt lat="46.90318" lon="5.77314">
        <ele>295</ele>
        <time>2020-03-04T07:48:51Z</time>
      </trkpt>
      <trkpt lat="46.90317" lon="5.77319">
        <ele>295</ele>
        <time>2020-03-04T07:48:52Z</time>
      </trkpt>
      <trkpt lat="46.90316" lon="5.77322">
        <ele>295.2</ele>
        <time>2020-03-04T07:48:53Z</time>
      </trkpt>
      <trkpt lat="46.90314" lon="5.77326">
        <ele>295.2</ele>
        <time>2020-03-04T07:48:54Z</time>
      </trkpt>
      <trkpt lat="46.90313" lon="5.77329">
        <ele>295.6</ele>
        <time>2020-03-04T07:48:55Z</time>
      </trkpt>
      <trkpt lat="46.90311" lon="5.77333">
        <ele>295.6</ele>
        <time>2020-03-04T07:48:56Z</time>
      </trkpt>
      <trkpt lat="46.90309" lon="5.77337">
        <ele>295.8</ele>
        <time>2020-03-04T07:48:57Z</time>
      </trkpt>
      <trkpt lat="46.90308" lon="5.77341">
        <ele>295.8</ele>
        <time>2020-03-04T07:48:58Z</time>
      </trkpt>
      <trkpt lat="46.90306" lon="5.77345">
        <ele>296</ele>
        <time>2020-03-04T07:48:59Z</time>
      </trkpt>
      <trkpt lat="46.90304" lon="5.77348">
        <ele>296</ele>
        <time>2020-03-04T07:49:00Z</time>
      </trkpt>
      <trkpt lat="46.90302" lon="5.77352">
        <ele>296.2</ele>
        <time>2020-03-04T07:49:01Z</time>
      </trkpt>
      <trkpt lat="46.903" lon="5.77357">
        <ele>296.2</ele>
        <time>2020-03-04T07:49:02Z</time>
      </trkpt>
      <trkpt lat="46.90298" lon="5.77361">
        <ele>296.6</ele>
        <time>2020-03-04T07:49:03Z</time>
      </trkpt>
      <trkpt lat="46.90296" lon="5.77366">
        <ele>296.6</ele>
        <time>2020-03-04T07:49:04Z</time>
      </trkpt>
      <trkpt lat="46.90295" lon="5.7737">
        <ele>296.8</ele>
        <time>2020-03-04T07:49:05Z</time>
      </trkpt>
      <trkpt lat="46.90293" lon="5.77374">
        <ele>296.8</ele>
        <time>2020-03-04T07:49:06Z</time>
      </trkpt>
      <trkpt lat="46.90292" lon="5.7738">
        <ele>296.8</ele>
        <time>2020-03-04T07:49:07Z</time>
      </trkpt>
      <trkpt lat="46.9029" lon="5.77385">
        <ele>297</ele>
        <time>2020-03-04T07:49:08Z</time>
      </trkpt>
      <trkpt lat="46.90289" lon="5.77391">
        <ele>297</ele>
        <time>2020-03-04T07:49:09Z</time>
      </trkpt>
      <trkpt lat="46.90287" lon="5.77395">
        <ele>297.4</ele>
        <time>2020-03-04T07:49:10Z</time>
      </trkpt>
      <trkpt lat="46.90285" lon="5.774">
        <ele>297.4</ele>
        <time>2020-03-04T07:49:11Z</time>
      </trkpt>
      <trkpt lat="46.90283" lon="5.77404">
        <ele>297.4</ele>
        <time>2020-03-04T07:49:12Z</time>
      </trkpt>
      <trkpt lat="46.90281" lon="5.77407">
        <ele>297.6</ele>
        <time>2020-03-04T07:49:13Z</time>
      </trkpt>
      <trkpt lat="46.9028" lon="5.7741">
        <ele>297.6</ele>
        <time>2020-03-04T07:49:14Z</time>
      </trkpt>
      <trkpt lat="46.90279" lon="5.77411">
        <ele>297.6</ele>
        <time>2020-03-04T07:49:15Z</time>
      </trkpt>
      <trkpt lat="46.90279" lon="5.77412">
        <ele>297.6</ele>
        <time>2020-03-04T07:49:16Z</time>
      </trkpt>
      <trkpt lat="46.90278" lon="5.77424">
        <ele>298</ele>
        <time>2020-03-04T07:49:24Z</time>
      </trkpt>
      <trkpt lat="46.90277" lon="5.77427">
        <ele>298</ele>
        <time>2020-03-04T07:49:25Z</time>
      </trkpt>
      <trkpt lat="46.90276" lon="5.7743">
        <ele>298</ele>
        <time>2020-03-04T07:49:26Z</time>
      </trkpt>
      <trkpt lat="46.90276" lon="5.77433">
        <ele>298</ele>
        <time>2020-03-04T07:49:27Z</time>
      </trkpt>
      <trkpt lat="46.90275" lon="5.77437">
        <ele>298</ele>
        <time>2020-03-04T07:49:28Z</time>
      </trkpt>
      <trkpt lat="46.90274" lon="5.77441">
        <ele>298.2</ele>
        <time>2020-03-04T07:49:29Z</time>
      </trkpt>
      <trkpt lat="46.90272" lon="5.77445">
        <ele>298.2</ele>
        <time>2020-03-04T07:49:30Z</time>
      </trkpt>
      <trkpt lat="46.90271" lon="5.77449">
        <ele>298.4</ele>
        <time>2020-03-04T07:49:31Z</time>
      </trkpt>
      <trkpt lat="46.9027" lon="5.77453">
        <ele>298.4</ele>
        <time>2020-03-04T07:49:32Z</time>
      </trkpt>
      <trkpt lat="46.90269" lon="5.77456">
        <ele>298.4</ele>
        <time>2020-03-04T07:49:33Z</time>
      </trkpt>
      <trkpt lat="46.90268" lon="5.7746">
        <ele>298.4</ele>
        <time>2020-03-04T07:49:34Z</time>
      </trkpt>
      <trkpt lat="46.90267" lon="5.77463">
        <ele>298.4</ele>
        <time>2020-03-04T07:49:35Z</time>
      </trkpt>
      <trkpt lat="46.90266" lon="5.77466">
        <ele>298.4</ele>
        <time>2020-03-04T07:49:36Z</time>
      </trkpt>
      <trkpt lat="46.90265" lon="5.7747">
        <ele>298.4</ele>
        <time>2020-03-04T07:49:37Z</time>
      </trkpt>
      <trkpt lat="46.90264" lon="5.77475">
        <ele>298.4</ele>
        <time>2020-03-04T07:49:38Z</time>
      </trkpt>
      <trkpt lat="46.90263" lon="5.77477">
        <ele>298.4</ele>
        <time>2020-03-04T07:49:39Z</time>
      </trkpt>
      <trkpt lat="46.90262" lon="5.77477">
        <ele>298.4</ele>
        <time>2020-03-04T07:49:40Z</time>
      </trkpt>
      <trkpt lat="46.90259" lon="5.77475">
        <ele>298.4</ele>
        <time>2020-03-04T07:49:41Z</time>
      </trkpt>
      <trkpt lat="46.90257" lon="5.77472">
        <ele>298.6</ele>
        <time>2020-03-04T07:49:42Z</time>
      </trkpt>
      <trkpt lat="46.90254" lon="5.7747">
        <ele>298.6</ele>
        <time>2020-03-04T07:49:43Z</time>
      </trkpt>
      <trkpt lat="46.90251" lon="5.77467">
        <ele>298.6</ele>
        <time>2020-03-04T07:49:44Z</time>
      </trkpt>
      <trkpt lat="46.90249" lon="5.77465">
        <ele>298.6</ele>
        <time>2020-03-04T07:49:45Z</time>
      </trkpt>
      <trkpt lat="46.90246" lon="5.77463">
        <ele>298.6</ele>
        <time>2020-03-04T07:49:46Z</time>
      </trkpt>
      <trkpt lat="46.90243" lon="5.77461">
        <ele>298.4</ele>
        <time>2020-03-04T07:49:47Z</time>
      </trkpt>
      <trkpt lat="46.9024" lon="5.77459">
        <ele>298.4</ele>
        <time>2020-03-04T07:49:48Z</time>
      </trkpt>
      <trkpt lat="46.90237" lon="5.77455">
        <ele>298.2</ele>
        <time>2020-03-04T07:49:49Z</time>
      </trkpt>
      <trkpt lat="46.90234" lon="5.77453">
        <ele>298.2</ele>
        <time>2020-03-04T07:49:50Z</time>
      </trkpt>
      <trkpt lat="46.90232" lon="5.77451">
        <ele>298.2</ele>
        <time>2020-03-04T07:49:51Z</time>
      </trkpt>
      <trkpt lat="46.90229" lon="5.77448">
        <ele>298</ele>
        <time>2020-03-04T07:49:52Z</time>
      </trkpt>
      <trkpt lat="46.90226" lon="5.77446">
        <ele>298</ele>
        <time>2020-03-04T07:49:53Z</time>
      </trkpt>
      <trkpt lat="46.90223" lon="5.77443">
        <ele>298</ele>
        <time>2020-03-04T07:49:54Z</time>
      </trkpt>
      <trkpt lat="46.90219" lon="5.77442">
        <ele>297.6</ele>
        <time>2020-03-04T07:49:55Z</time>
      </trkpt>
      <trkpt lat="46.90217" lon="5.77439">
        <ele>297.6</ele>
        <time>2020-03-04T07:49:56Z</time>
      </trkpt>
      <trkpt lat="46.90213" lon="5.77435">
        <ele>297.6</ele>
        <time>2020-03-04T07:49:57Z</time>
      </trkpt>
      <trkpt lat="46.90211" lon="5.77433">
        <ele>297.6</ele>
        <time>2020-03-04T07:49:58Z</time>
      </trkpt>
      <trkpt lat="46.90209" lon="5.77431">
        <ele>297.6</ele>
        <time>2020-03-04T07:49:59Z</time>
      </trkpt>
      <trkpt lat="46.90207" lon="5.77429">
        <ele>297.6</ele>
        <time>2020-03-04T07:50:00Z</time>
      </trkpt>
      <trkpt lat="46.90206" lon="5.77427">
        <ele>297.6</ele>
        <time>2020-03-04T07:50:01Z</time>
      </trkpt>
      <trkpt lat="46.90205" lon="5.77426">
        <ele>297.6</ele>
        <time>2020-03-04T07:50:02Z</time>
      </trkpt>
      <trkpt lat="46.90204" lon="5.77423">
        <ele>297.6</ele>
        <time>2020-03-04T07:50:03Z</time>
      </trkpt>
      <trkpt lat="46.90204" lon="5.77421">
        <ele>297.4</ele>
        <time>2020-03-04T07:50:04Z</time>
      </trkpt>
      <trkpt lat="46.90204" lon="5.77418">
        <ele>297.4</ele>
        <time>2020-03-04T07:50:05Z</time>
      </trkpt>
      <trkpt lat="46.90205" lon="5.77414">
        <ele>297.4</ele>
        <time>2020-03-04T07:50:06Z</time>
      </trkpt>
      <trkpt lat="46.90205" lon="5.7741">
        <ele>297.4</ele>
        <time>2020-03-04T07:50:07Z</time>
      </trkpt>
      <trkpt lat="46.90206" lon="5.77405">
        <ele>297.2</ele>
        <time>2020-03-04T07:50:08Z</time>
      </trkpt>
      <trkpt lat="46.90207" lon="5.77401">
        <ele>297.2</ele>
        <time>2020-03-04T07:50:09Z</time>
      </trkpt>
      <trkpt lat="46.90207" lon="5.77396">
        <ele>297.2</ele>
        <time>2020-03-04T07:50:10Z</time>
      </trkpt>
      <trkpt lat="46.90207" lon="5.77391">
        <ele>297</ele>
        <time>2020-03-04T07:50:11Z</time>
      </trkpt>
      <trkpt lat="46.90208" lon="5.77387">
        <ele>297</ele>
        <time>2020-03-04T07:50:12Z</time>
      </trkpt>
      <trkpt lat="46.90208" lon="5.77382">
        <ele>297</ele>
        <time>2020-03-04T07:50:13Z</time>
      </trkpt>
      <trkpt lat="46.90208" lon="5.77377">
        <ele>296.6</ele>
        <time>2020-03-04T07:50:14Z</time>
      </trkpt>
      <trkpt lat="46.90209" lon="5.77372">
        <ele>296.6</ele>
        <time>2020-03-04T07:50:15Z</time>
      </trkpt>
      <trkpt lat="46.9021" lon="5.77367">
        <ele>296.6</ele>
        <time>2020-03-04T07:50:16Z</time>
      </trkpt>
      <trkpt lat="46.90211" lon="5.77363">
        <ele>296.6</ele>
        <time>2020-03-04T07:50:17Z</time>
      </trkpt>
      <trkpt lat="46.90211" lon="5.77358">
        <ele>296.4</ele>
        <time>2020-03-04T07:50:18Z</time>
      </trkpt>
      <trkpt lat="46.90211" lon="5.77353">
        <ele>296.4</ele>
        <time>2020-03-04T07:50:19Z</time>
      </trkpt>
      <trkpt lat="46.90212" lon="5.77348">
        <ele>295.8</ele>
        <time>2020-03-04T07:50:20Z</time>
      </trkpt>
      <trkpt lat="46.90212" lon="5.77342">
        <ele>295.6</ele>
        <time>2020-03-04T07:50:21Z</time>
      </trkpt>
      <trkpt lat="46.90212" lon="5.77336">
        <ele>295.4</ele>
        <time>2020-03-04T07:50:22Z</time>
      </trkpt>
      <trkpt lat="46.90212" lon="5.7733">
        <ele>295.2</ele>
        <time>2020-03-04T07:50:23Z</time>
      </trkpt>
      <trkpt lat="46.90212" lon="5.77324">
        <ele>294.8</ele>
        <time>2020-03-04T07:50:24Z</time>
      </trkpt>
      <trkpt lat="46.90213" lon="5.77319">
        <ele>294.8</ele>
        <time>2020-03-04T07:50:25Z</time>
      </trkpt>
      <trkpt lat="46.90212" lon="5.77313">
        <ele>294.6</ele>
        <time>2020-03-04T07:50:26Z</time>
      </trkpt>
      <trkpt lat="46.90212" lon="5.77308">
        <ele>294.4</ele>
        <time>2020-03-04T07:50:27Z</time>
      </trkpt>
      <trkpt lat="46.90212" lon="5.77304">
        <ele>294.2</ele>
        <time>2020-03-04T07:50:28Z</time>
      </trkpt>
      <trkpt lat="46.90212" lon="5.773">
        <ele>294.2</ele>
        <time>2020-03-04T07:50:29Z</time>
      </trkpt>
      <trkpt lat="46.90211" lon="5.77297">
        <ele>293.8</ele>
        <time>2020-03-04T07:50:30Z</time>
      </trkpt>
      <trkpt lat="46.90211" lon="5.77293">
        <ele>293.6</ele>
        <time>2020-03-04T07:50:31Z</time>
      </trkpt>
      <trkpt lat="46.90212" lon="5.77288">
        <ele>293.4</ele>
        <time>2020-03-04T07:50:32Z</time>
      </trkpt>
      <trkpt lat="46.90212" lon="5.77285">
        <ele>293.4</ele>
        <time>2020-03-04T07:50:33Z</time>
      </trkpt>
      <trkpt lat="46.90213" lon="5.77282">
        <ele>293</ele>
        <time>2020-03-04T07:50:34Z</time>
      </trkpt>
      <trkpt lat="46.90216" lon="5.77279">
        <ele>293</ele>
        <time>2020-03-04T07:50:35Z</time>
      </trkpt>
      <trkpt lat="46.90219" lon="5.77276">
        <ele>292.8</ele>
        <time>2020-03-04T07:50:36Z</time>
      </trkpt>
      <trkpt lat="46.90222" lon="5.77273">
        <ele>292.8</ele>
        <time>2020-03-04T07:50:37Z</time>
      </trkpt>
      <trkpt lat="46.90226" lon="5.77269">
        <ele>292.8</ele>
        <time>2020-03-04T07:50:38Z</time>
      </trkpt>
      <trkpt lat="46.90229" lon="5.77267">
        <ele>292.8</ele>
        <time>2020-03-04T07:50:39Z</time>
      </trkpt>
      <trkpt lat="46.90231" lon="5.77264">
        <ele>292.8</ele>
        <time>2020-03-04T07:50:40Z</time>
      </trkpt>
      <trkpt lat="46.90234" lon="5.77262">
        <ele>292.8</ele>
        <time>2020-03-04T07:50:41Z</time>
      </trkpt>
      <trkpt lat="46.90235" lon="5.7726">
        <ele>292.8</ele>
        <time>2020-03-04T07:50:42Z</time>
      </trkpt>
      <trkpt lat="46.90237" lon="5.77258">
        <ele>292.8</ele>
        <time>2020-03-04T07:50:43Z</time>
      </trkpt>
      <trkpt lat="46.90238" lon="5.77254">
        <ele>292.8</ele>
        <time>2020-03-04T07:50:44Z</time>
      </trkpt>
      <trkpt lat="46.90239" lon="5.77251">
        <ele>293</ele>
        <time>2020-03-04T07:50:45Z</time>
      </trkpt>
      <trkpt lat="46.9024" lon="5.77249">
        <ele>293</ele>
        <time>2020-03-04T07:50:46Z</time>
      </trkpt>
      <trkpt lat="46.90242" lon="5.77248">
        <ele>293</ele>
        <time>2020-03-04T07:50:47Z</time>
      </trkpt>
      <trkpt lat="46.90243" lon="5.77247">
        <ele>293</ele>
        <time>2020-03-04T07:50:48Z</time>
      </trkpt>
      <trkpt lat="46.90243" lon="5.77244">
        <ele>293.2</ele>
        <time>2020-03-04T07:50:49Z</time>
      </trkpt>
      <trkpt lat="46.90244" lon="5.77243">
        <ele>293.2</ele>
        <time>2020-03-04T07:50:50Z</time>
      </trkpt>
      <trkpt lat="46.90244" lon="5.77242">
        <ele>293.2</ele>
        <time>2020-03-04T07:50:51Z</time>
      </trkpt>
      <trkpt lat="46.90244" lon="5.77242">
        <ele>293.4</ele>
        <time>2020-03-04T07:50:52Z</time>
      </trkpt>
      <trkpt lat="46.90244" lon="5.77239">
        <ele>293.4</ele>
        <time>2020-03-04T07:50:58Z</time>
      </trkpt>
      <trkpt lat="46.90243" lon="5.77238">
        <ele>293.4</ele>
        <time>2020-03-04T07:50:59Z</time>
      </trkpt>
      <trkpt lat="46.90242" lon="5.77238">
        <ele>293.4</ele>
        <time>2020-03-04T07:51:00Z</time>
      </trkpt>
      <trkpt lat="46.9024" lon="5.77236">
        <ele>293.4</ele>
        <time>2020-03-04T07:51:01Z</time>
      </trkpt>
      <trkpt lat="46.90239" lon="5.77233">
        <ele>293.4</ele>
        <time>2020-03-04T07:51:02Z</time>
      </trkpt>
      <trkpt lat="46.90237" lon="5.77229">
        <ele>293.4</ele>
        <time>2020-03-04T07:51:03Z</time>
      </trkpt>
      <trkpt lat="46.90235" lon="5.77225">
        <ele>293.4</ele>
        <time>2020-03-04T07:51:04Z</time>
      </trkpt>
      <trkpt lat="46.90232" lon="5.77222">
        <ele>293.4</ele>
        <time>2020-03-04T07:51:05Z</time>
      </trkpt>
      <trkpt lat="46.9023" lon="5.77219">
        <ele>293.4</ele>
        <time>2020-03-04T07:51:06Z</time>
      </trkpt>
      <trkpt lat="46.90227" lon="5.77215">
        <ele>293.4</ele>
        <time>2020-03-04T07:51:07Z</time>
      </trkpt>
      <trkpt lat="46.90225" lon="5.77212">
        <ele>293.4</ele>
        <time>2020-03-04T07:51:08Z</time>
      </trkpt>
      <trkpt lat="46.90222" lon="5.77208">
        <ele>293.4</ele>
        <time>2020-03-04T07:51:09Z</time>
      </trkpt>
      <trkpt lat="46.90218" lon="5.77205">
        <ele>293.4</ele>
        <time>2020-03-04T07:51:10Z</time>
      </trkpt>
      <trkpt lat="46.90215" lon="5.772">
        <ele>293.4</ele>
        <time>2020-03-04T07:51:11Z</time>
      </trkpt>
      <trkpt lat="46.90211" lon="5.77196">
        <ele>293.4</ele>
        <time>2020-03-04T07:51:12Z</time>
      </trkpt>
      <trkpt lat="46.90208" lon="5.77191">
        <ele>293.4</ele>
        <time>2020-03-04T07:51:13Z</time>
      </trkpt>
      <trkpt lat="46.90204" lon="5.77187">
        <ele>293.4</ele>
        <time>2020-03-04T07:51:14Z</time>
      </trkpt>
      <trkpt lat="46.902" lon="5.77182">
        <ele>293.8</ele>
        <time>2020-03-04T07:51:15Z</time>
      </trkpt>
      <trkpt lat="46.90195" lon="5.77177">
        <ele>293.8</ele>
        <time>2020-03-04T07:51:16Z</time>
      </trkpt>
      <trkpt lat="46.9019" lon="5.77172">
        <ele>293.8</ele>
        <time>2020-03-04T07:51:17Z</time>
      </trkpt>
      <trkpt lat="46.90185" lon="5.77167">
        <ele>293.8</ele>
        <time>2020-03-04T07:51:18Z</time>
      </trkpt>
      <trkpt lat="46.9018" lon="5.77162">
        <ele>294</ele>
        <time>2020-03-04T07:51:19Z</time>
      </trkpt>
      <trkpt lat="46.90176" lon="5.77157">
        <ele>294</ele>
        <time>2020-03-04T07:51:20Z</time>
      </trkpt>
      <trkpt lat="46.90172" lon="5.77151">
        <ele>294</ele>
        <time>2020-03-04T07:51:21Z</time>
      </trkpt>
      <trkpt lat="46.90169" lon="5.77144">
        <ele>294.2</ele>
        <time>2020-03-04T07:51:22Z</time>
      </trkpt>
      <trkpt lat="46.90166" lon="5.77136">
        <ele>294.2</ele>
        <time>2020-03-04T07:51:23Z</time>
      </trkpt>
      <trkpt lat="46.90163" lon="5.77128">
        <ele>294.2</ele>
        <time>2020-03-04T07:51:24Z</time>
      </trkpt>
      <trkpt lat="46.90162" lon="5.7712">
        <ele>294.4</ele>
        <time>2020-03-04T07:51:25Z</time>
      </trkpt>
      <trkpt lat="46.90162" lon="5.77112">
        <ele>294.4</ele>
        <time>2020-03-04T07:51:26Z</time>
      </trkpt>
      <trkpt lat="46.90162" lon="5.77105">
        <ele>294.4</ele>
        <time>2020-03-04T07:51:27Z</time>
      </trkpt>
      <trkpt lat="46.90161" lon="5.77098">
        <ele>294.6</ele>
        <time>2020-03-04T07:51:28Z</time>
      </trkpt>
      <trkpt lat="46.90161" lon="5.77093">
        <ele>294.6</ele>
        <time>2020-03-04T07:51:29Z</time>
      </trkpt>
      <trkpt lat="46.90161" lon="5.7709">
        <ele>294.6</ele>
        <time>2020-03-04T07:51:30Z</time>
      </trkpt>
      <trkpt lat="46.9016" lon="5.77088">
        <ele>295</ele>
        <time>2020-03-04T07:51:31Z</time>
      </trkpt>
      <trkpt lat="46.90158" lon="5.77088">
        <ele>295</ele>
        <time>2020-03-04T07:51:32Z</time>
      </trkpt>
      <trkpt lat="46.90158" lon="5.77089">
        <ele>295</ele>
        <time>2020-03-04T07:51:33Z</time>
      </trkpt>
      <trkpt lat="46.90158" lon="5.77091">
        <ele>295</ele>
        <time>2020-03-04T07:51:34Z</time>
      </trkpt>
      <trkpt lat="46.90158" lon="5.77094">
        <ele>295</ele>
        <time>2020-03-04T07:51:35Z</time>
      </trkpt>
      <trkpt lat="46.90158" lon="5.77098">
        <ele>295</ele>
        <time>2020-03-04T07:51:36Z</time>
      </trkpt>
      <trkpt lat="46.90159" lon="5.77102">
        <ele>295</ele>
        <time>2020-03-04T07:51:37Z</time>
      </trkpt>
      <trkpt lat="46.90159" lon="5.77106">
        <ele>295</ele>
        <time>2020-03-04T07:51:38Z</time>
      </trkpt>
      <trkpt lat="46.90159" lon="5.77111">
        <ele>295</ele>
        <time>2020-03-04T07:51:39Z</time>
      </trkpt>
      <trkpt lat="46.9016" lon="5.77115">
        <ele>295</ele>
        <time>2020-03-04T07:51:40Z</time>
      </trkpt>
      <trkpt lat="46.90163" lon="5.77118">
        <ele>295</ele>
        <time>2020-03-04T07:51:41Z</time>
      </trkpt>
      <trkpt lat="46.90166" lon="5.7712">
        <ele>294.6</ele>
        <time>2020-03-04T07:51:42Z</time>
      </trkpt>
      <trkpt lat="46.9017" lon="5.77119">
        <ele>294.6</ele>
        <time>2020-03-04T07:51:43Z</time>
      </trkpt>
      <trkpt lat="46.90173" lon="5.77116">
        <ele>294.4</ele>
        <time>2020-03-04T07:51:44Z</time>
      </trkpt>
      <trkpt lat="46.90176" lon="5.77111">
        <ele>294.4</ele>
        <time>2020-03-04T07:51:45Z</time>
      </trkpt>
      <trkpt lat="46.90179" lon="5.77105">
        <ele>294</ele>
        <time>2020-03-04T07:51:46Z</time>
      </trkpt>
      <trkpt lat="46.90183" lon="5.77099">
        <ele>293.8</ele>
        <time>2020-03-04T07:51:47Z</time>
      </trkpt>
      <trkpt lat="46.90187" lon="5.77093">
        <ele>293.6</ele>
        <time>2020-03-04T07:51:48Z</time>
      </trkpt>
      <trkpt lat="46.90191" lon="5.77087">
        <ele>293.2</ele>
        <time>2020-03-04T07:51:49Z</time>
      </trkpt>
      <trkpt lat="46.90196" lon="5.77082">
        <ele>293</ele>
        <time>2020-03-04T07:51:50Z</time>
      </trkpt>
      <trkpt lat="46.90201" lon="5.77077">
        <ele>292.8</ele>
        <time>2020-03-04T07:51:51Z</time>
      </trkpt>
      <trkpt lat="46.90207" lon="5.77073">
        <ele>292.4</ele>
        <time>2020-03-04T07:51:52Z</time>
      </trkpt>
      <trkpt lat="46.90213" lon="5.77069">
        <ele>292.2</ele>
        <time>2020-03-04T07:51:53Z</time>
      </trkpt>
      <trkpt lat="46.90219" lon="5.77065">
        <ele>292</ele>
        <time>2020-03-04T07:51:54Z</time>
      </trkpt>
      <trkpt lat="46.90224" lon="5.77062">
        <ele>292</ele>
        <time>2020-03-04T07:51:55Z</time>
      </trkpt>
      <trkpt lat="46.9023" lon="5.77058">
        <ele>291.6</ele>
        <time>2020-03-04T07:51:56Z</time>
      </trkpt>
      <trkpt lat="46.90235" lon="5.77053">
        <ele>291.4</ele>
        <time>2020-03-04T07:51:57Z</time>
      </trkpt>
      <trkpt lat="46.90239" lon="5.77047">
        <ele>291.4</ele>
        <time>2020-03-04T07:51:58Z</time>
      </trkpt>
      <trkpt lat="46.90242" lon="5.7704">
        <ele>291</ele>
        <time>2020-03-04T07:51:59Z</time>
      </trkpt>
      <trkpt lat="46.90245" lon="5.77031">
        <ele>291</ele>
        <time>2020-03-04T07:52:00Z</time>
      </trkpt>
      <trkpt lat="46.90246" lon="5.77023">
        <ele>290.6</ele>
        <time>2020-03-04T07:52:01Z</time>
      </trkpt>
      <trkpt lat="46.90247" lon="5.77014">
        <ele>290.4</ele>
        <time>2020-03-04T07:52:02Z</time>
      </trkpt>
      <trkpt lat="46.90249" lon="5.77006">
        <ele>290.4</ele>
        <time>2020-03-04T07:52:03Z</time>
      </trkpt>
      <trkpt lat="46.9025" lon="5.76997">
        <ele>290</ele>
        <time>2020-03-04T07:52:04Z</time>
      </trkpt>
      <trkpt lat="46.9025" lon="5.76989">
        <ele>289.6</ele>
        <time>2020-03-04T07:52:05Z</time>
      </trkpt>
      <trkpt lat="46.90249" lon="5.7698">
        <ele>289.4</ele>
        <time>2020-03-04T07:52:06Z</time>
      </trkpt>
      <trkpt lat="46.90248" lon="5.76972">
        <ele>289.2</ele>
        <time>2020-03-04T07:52:07Z</time>
      </trkpt>
      <trkpt lat="46.90247" lon="5.76963">
        <ele>288.8</ele>
        <time>2020-03-04T07:52:08Z</time>
      </trkpt>
      <trkpt lat="46.90246" lon="5.76954">
        <ele>288.8</ele>
        <time>2020-03-04T07:52:09Z</time>
      </trkpt>
      <trkpt lat="46.90245" lon="5.76945">
        <ele>288.6</ele>
        <time>2020-03-04T07:52:10Z</time>
      </trkpt>
      <trkpt lat="46.90244" lon="5.76936">
        <ele>288.4</ele>
        <time>2020-03-04T07:52:11Z</time>
      </trkpt>
      <trkpt lat="46.90243" lon="5.76927">
        <ele>288.4</ele>
        <time>2020-03-04T07:52:12Z</time>
      </trkpt>
      <trkpt lat="46.90243" lon="5.76918">
        <ele>288.4</ele>
        <time>2020-03-04T07:52:13Z</time>
      </trkpt>
      <trkpt lat="46.90243" lon="5.7691">
        <ele>288</ele>
        <time>2020-03-04T07:52:14Z</time>
      </trkpt>
      <trkpt lat="46.90243" lon="5.76901">
        <ele>288</ele>
        <time>2020-03-04T07:52:15Z</time>
      </trkpt>
      <trkpt lat="46.90244" lon="5.76893">
        <ele>287.8</ele>
        <time>2020-03-04T07:52:16Z</time>
      </trkpt>
      <trkpt lat="46.90244" lon="5.76884">
        <ele>287.8</ele>
        <time>2020-03-04T07:52:17Z</time>
      </trkpt>
      <trkpt lat="46.90245" lon="5.76876">
        <ele>287.8</ele>
        <time>2020-03-04T07:52:18Z</time>
      </trkpt>
      <trkpt lat="46.90245" lon="5.76867">
        <ele>287.8</ele>
        <time>2020-03-04T07:52:19Z</time>
      </trkpt>
      <trkpt lat="46.90245" lon="5.76858">
        <ele>287.8</ele>
        <time>2020-03-04T07:52:20Z</time>
      </trkpt>
      <trkpt lat="46.90245" lon="5.76849">
        <ele>287.8</ele>
        <time>2020-03-04T07:52:21Z</time>
      </trkpt>
      <trkpt lat="46.90245" lon="5.76839">
        <ele>287.8</ele>
        <time>2020-03-04T07:52:22Z</time>
      </trkpt>
      <trkpt lat="46.90245" lon="5.76828">
        <ele>287.8</ele>
        <time>2020-03-04T07:52:23Z</time>
      </trkpt>
      <trkpt lat="46.90246" lon="5.76818">
        <ele>287.8</ele>
        <time>2020-03-04T07:52:24Z</time>
      </trkpt>
      <trkpt lat="46.90246" lon="5.76808">
        <ele>287.8</ele>
        <time>2020-03-04T07:52:25Z</time>
      </trkpt>
      <trkpt lat="46.90246" lon="5.76798">
        <ele>287.8</ele>
        <time>2020-03-04T07:52:26Z</time>
      </trkpt>
      <trkpt lat="46.90246" lon="5.76788">
        <ele>287.8</ele>
        <time>2020-03-04T07:52:27Z</time>
      </trkpt>
      <trkpt lat="46.90247" lon="5.76778">
        <ele>287.8</ele>
        <time>2020-03-04T07:52:28Z</time>
      </trkpt>
      <trkpt lat="46.90247" lon="5.76768">
        <ele>287.8</ele>
        <time>2020-03-04T07:52:29Z</time>
      </trkpt>
      <trkpt lat="46.90248" lon="5.76758">
        <ele>287.8</ele>
        <time>2020-03-04T07:52:30Z</time>
      </trkpt>
      <trkpt lat="46.90248" lon="5.76748">
        <ele>287.8</ele>
        <time>2020-03-04T07:52:31Z</time>
      </trkpt>
      <trkpt lat="46.90248" lon="5.76738">
        <ele>287.8</ele>
        <time>2020-03-04T07:52:32Z</time>
      </trkpt>
      <trkpt lat="46.90248" lon="5.76729">
        <ele>287.8</ele>
        <time>2020-03-04T07:52:33Z</time>
      </trkpt>
      <trkpt lat="46.90249" lon="5.76719">
        <ele>287.8</ele>
        <time>2020-03-04T07:52:34Z</time>
      </trkpt>
      <trkpt lat="46.90251" lon="5.7671">
        <ele>287.8</ele>
        <time>2020-03-04T07:52:35Z</time>
      </trkpt>
      <trkpt lat="46.90252" lon="5.767">
        <ele>288</ele>
        <time>2020-03-04T07:52:36Z</time>
      </trkpt>
      <trkpt lat="46.90254" lon="5.76691">
        <ele>288</ele>
        <time>2020-03-04T07:52:37Z</time>
      </trkpt>
      <trkpt lat="46.90255" lon="5.76681">
        <ele>288.4</ele>
        <time>2020-03-04T07:52:38Z</time>
      </trkpt>
      <trkpt lat="46.90257" lon="5.76672">
        <ele>288.6</ele>
        <time>2020-03-04T07:52:39Z</time>
      </trkpt>
      <trkpt lat="46.90258" lon="5.76664">
        <ele>288.8</ele>
        <time>2020-03-04T07:52:40Z</time>
      </trkpt>
      <trkpt lat="46.9026" lon="5.76655">
        <ele>289</ele>
        <time>2020-03-04T07:52:41Z</time>
      </trkpt>
      <trkpt lat="46.90261" lon="5.76647">
        <ele>289</ele>
        <time>2020-03-04T07:52:42Z</time>
      </trkpt>
      <trkpt lat="46.90262" lon="5.76639">
        <ele>289.6</ele>
        <time>2020-03-04T07:52:43Z</time>
      </trkpt>
      <trkpt lat="46.90262" lon="5.76631">
        <ele>290</ele>
        <time>2020-03-04T07:52:44Z</time>
      </trkpt>
      <trkpt lat="46.90263" lon="5.76624">
        <ele>290.4</ele>
        <time>2020-03-04T07:52:45Z</time>
      </trkpt>
      <trkpt lat="46.90264" lon="5.76618">
        <ele>290.8</ele>
        <time>2020-03-04T07:52:46Z</time>
      </trkpt>
      <trkpt lat="46.90264" lon="5.76612">
        <ele>291.4</ele>
        <time>2020-03-04T07:52:47Z</time>
      </trkpt>
      <trkpt lat="46.90265" lon="5.76606">
        <ele>291.8</ele>
        <time>2020-03-04T07:52:48Z</time>
      </trkpt>
      <trkpt lat="46.90265" lon="5.76601">
        <ele>292.2</ele>
        <time>2020-03-04T07:52:49Z</time>
      </trkpt>
      <trkpt lat="46.90266" lon="5.76595">
        <ele>292.8</ele>
        <time>2020-03-04T07:52:50Z</time>
      </trkpt>
      <trkpt lat="46.90267" lon="5.7659">
        <ele>293.2</ele>
        <time>2020-03-04T07:52:51Z</time>
      </trkpt>
      <trkpt lat="46.90268" lon="5.76586">
        <ele>293.8</ele>
        <time>2020-03-04T07:52:52Z</time>
      </trkpt>
      <trkpt lat="46.90269" lon="5.76581">
        <ele>294.2</ele>
        <time>2020-03-04T07:52:53Z</time>
      </trkpt>
      <trkpt lat="46.9027" lon="5.76578">
        <ele>294.4</ele>
        <time>2020-03-04T07:52:54Z</time>
      </trkpt>
      <trkpt lat="46.90271" lon="5.76576">
        <ele>294.8</ele>
        <time>2020-03-04T07:52:55Z</time>
      </trkpt>
      <trkpt lat="46.90273" lon="5.76575">
        <ele>295.2</ele>
        <time>2020-03-04T07:52:56Z</time>
      </trkpt>
      <trkpt lat="46.90275" lon="5.76574">
        <ele>295.6</ele>
        <time>2020-03-04T07:52:57Z</time>
      </trkpt>
      <trkpt lat="46.90277" lon="5.76573">
        <ele>295.8</ele>
        <time>2020-03-04T07:52:58Z</time>
      </trkpt>
      <trkpt lat="46.9028" lon="5.76571">
        <ele>296.2</ele>
        <time>2020-03-04T07:52:59Z</time>
      </trkpt>
      <trkpt lat="46.90282" lon="5.7657">
        <ele>296.2</ele>
        <time>2020-03-04T07:53:00Z</time>
      </trkpt>
      <trkpt lat="46.90285" lon="5.76569">
        <ele>296.6</ele>
        <time>2020-03-04T07:53:01Z</time>
      </trkpt>
      <trkpt lat="46.90287" lon="5.76569">
        <ele>296.8</ele>
        <time>2020-03-04T07:53:02Z</time>
      </trkpt>
      <trkpt lat="46.9029" lon="5.76568">
        <ele>297.2</ele>
        <time>2020-03-04T07:53:03Z</time>
      </trkpt>
      <trkpt lat="46.90293" lon="5.76567">
        <ele>297.4</ele>
        <time>2020-03-04T07:53:04Z</time>
      </trkpt>
      <trkpt lat="46.90296" lon="5.76566">
        <ele>297.4</ele>
        <time>2020-03-04T07:53:05Z</time>
      </trkpt>
      <trkpt lat="46.90299" lon="5.76565">
        <ele>297.8</ele>
        <time>2020-03-04T07:53:06Z</time>
      </trkpt>
      <trkpt lat="46.90303" lon="5.76565">
        <ele>298.2</ele>
        <time>2020-03-04T07:53:07Z</time>
      </trkpt>
      <trkpt lat="46.90305" lon="5.76565">
        <ele>298.4</ele>
        <time>2020-03-04T07:53:08Z</time>
      </trkpt>
      <trkpt lat="46.90308" lon="5.76564">
        <ele>298.6</ele>
        <time>2020-03-04T07:53:09Z</time>
      </trkpt>
      <trkpt lat="46.90311" lon="5.76563">
        <ele>298.8</ele>
        <time>2020-03-04T07:53:10Z</time>
      </trkpt>
      <trkpt lat="46.90314" lon="5.76562">
        <ele>298.8</ele>
        <time>2020-03-04T07:53:11Z</time>
      </trkpt>
      <trkpt lat="46.90316" lon="5.76561">
        <ele>299.2</ele>
        <time>2020-03-04T07:53:12Z</time>
      </trkpt>
      <trkpt lat="46.90319" lon="5.76559">
        <ele>299.2</ele>
        <time>2020-03-04T07:53:13Z</time>
      </trkpt>
      <trkpt lat="46.90322" lon="5.76558">
        <ele>299.6</ele>
        <time>2020-03-04T07:53:14Z</time>
      </trkpt>
      <trkpt lat="46.90325" lon="5.76557">
        <ele>299.6</ele>
        <time>2020-03-04T07:53:15Z</time>
      </trkpt>
      <trkpt lat="46.90328" lon="5.76556">
        <ele>299.8</ele>
        <time>2020-03-04T07:53:16Z</time>
      </trkpt>
      <trkpt lat="46.90331" lon="5.76554">
        <ele>299.8</ele>
        <time>2020-03-04T07:53:17Z</time>
      </trkpt>
      <trkpt lat="46.90333" lon="5.76552">
        <ele>300.2</ele>
        <time>2020-03-04T07:53:18Z</time>
      </trkpt>
      <trkpt lat="46.90336" lon="5.7655">
        <ele>300.2</ele>
        <time>2020-03-04T07:53:19Z</time>
      </trkpt>
      <trkpt lat="46.90339" lon="5.76549">
        <ele>300.4</ele>
        <time>2020-03-04T07:53:20Z</time>
      </trkpt>
      <trkpt lat="46.90342" lon="5.76547">
        <ele>300.4</ele>
        <time>2020-03-04T07:53:21Z</time>
      </trkpt>
      <trkpt lat="46.90344" lon="5.76546">
        <ele>300.4</ele>
        <time>2020-03-04T07:53:22Z</time>
      </trkpt>
      <trkpt lat="46.90347" lon="5.76544">
        <ele>300.6</ele>
        <time>2020-03-04T07:53:23Z</time>
      </trkpt>
      <trkpt lat="46.9035" lon="5.76543">
        <ele>300.6</ele>
        <time>2020-03-04T07:53:24Z</time>
      </trkpt>
      <trkpt lat="46.90353" lon="5.76541">
        <ele>300.6</ele>
        <time>2020-03-04T07:53:25Z</time>
      </trkpt>
      <trkpt lat="46.90355" lon="5.7654">
        <ele>300.8</ele>
        <time>2020-03-04T07:53:26Z</time>
      </trkpt>
      <trkpt lat="46.90357" lon="5.76539">
        <ele>300.8</ele>
        <time>2020-03-04T07:53:27Z</time>
      </trkpt>
      <trkpt lat="46.90359" lon="5.76536">
        <ele>300.8</ele>
        <time>2020-03-04T07:53:28Z</time>
      </trkpt>
      <trkpt lat="46.9036" lon="5.76533">
        <ele>300.8</ele>
        <time>2020-03-04T07:53:29Z</time>
      </trkpt>
      <trkpt lat="46.9036" lon="5.7653">
        <ele>300.8</ele>
        <time>2020-03-04T07:53:30Z</time>
      </trkpt>
      <trkpt lat="46.90361" lon="5.76527">
        <ele>300.8</ele>
        <time>2020-03-04T07:53:31Z</time>
      </trkpt>
      <trkpt lat="46.90363" lon="5.76524">
        <ele>300.8</ele>
        <time>2020-03-04T07:53:32Z</time>
      </trkpt>
      <trkpt lat="46.90364" lon="5.76521">
        <ele>300.8</ele>
        <time>2020-03-04T07:53:33Z</time>
      </trkpt>
      <trkpt lat="46.90365" lon="5.76518">
        <ele>300.8</ele>
        <time>2020-03-04T07:53:34Z</time>
      </trkpt>
      <trkpt lat="46.90367" lon="5.76515">
        <ele>300.8</ele>
        <time>2020-03-04T07:53:35Z</time>
      </trkpt>
      <trkpt lat="46.90368" lon="5.76512">
        <ele>301.2</ele>
        <time>2020-03-04T07:53:36Z</time>
      </trkpt>
      <trkpt lat="46.90369" lon="5.76508">
        <ele>301.2</ele>
        <time>2020-03-04T07:53:37Z</time>
      </trkpt>
      <trkpt lat="46.90371" lon="5.76504">
        <ele>301.2</ele>
        <time>2020-03-04T07:53:38Z</time>
      </trkpt>
      <trkpt lat="46.90373" lon="5.765">
        <ele>301.4</ele>
        <time>2020-03-04T07:53:39Z</time>
      </trkpt>
      <trkpt lat="46.90375" lon="5.76496">
        <ele>301.4</ele>
        <time>2020-03-04T07:53:40Z</time>
      </trkpt>
      <trkpt lat="46.90377" lon="5.76491">
        <ele>301.4</ele>
        <time>2020-03-04T07:53:41Z</time>
      </trkpt>
      <trkpt lat="46.90379" lon="5.76486">
        <ele>301.6</ele>
        <time>2020-03-04T07:53:42Z</time>
      </trkpt>
      <trkpt lat="46.90381" lon="5.76481">
        <ele>301.6</ele>
        <time>2020-03-04T07:53:43Z</time>
      </trkpt>
      <trkpt lat="46.90382" lon="5.76476">
        <ele>301.6</ele>
        <time>2020-03-04T07:53:44Z</time>
      </trkpt>
      <trkpt lat="46.90384" lon="5.76471">
        <ele>301.6</ele>
        <time>2020-03-04T07:53:45Z</time>
      </trkpt>
      <trkpt lat="46.90385" lon="5.76466">
        <ele>302</ele>
        <time>2020-03-04T07:53:46Z</time>
      </trkpt>
      <trkpt lat="46.90387" lon="5.76461">
        <ele>302</ele>
        <time>2020-03-04T07:53:47Z</time>
      </trkpt>
      <trkpt lat="46.90389" lon="5.76457">
        <ele>302.4</ele>
        <time>2020-03-04T07:53:48Z</time>
      </trkpt>
      <trkpt lat="46.90391" lon="5.76452">
        <ele>302.4</ele>
        <time>2020-03-04T07:53:49Z</time>
      </trkpt>
      <trkpt lat="46.90393" lon="5.76448">
        <ele>302.4</ele>
        <time>2020-03-04T07:53:50Z</time>
      </trkpt>
      <trkpt lat="46.90395" lon="5.76444">
        <ele>302.8</ele>
        <time>2020-03-04T07:53:51Z</time>
      </trkpt>
      <trkpt lat="46.90396" lon="5.7644">
        <ele>302.8</ele>
        <time>2020-03-04T07:53:52Z</time>
      </trkpt>
      <trkpt lat="46.90398" lon="5.76436">
        <ele>303</ele>
        <time>2020-03-04T07:53:53Z</time>
      </trkpt>
      <trkpt lat="46.904" lon="5.76434">
        <ele>303</ele>
        <time>2020-03-04T07:53:54Z</time>
      </trkpt>
      <trkpt lat="46.904" lon="5.76431">
        <ele>303</ele>
        <time>2020-03-04T07:53:55Z</time>
      </trkpt>
      <trkpt lat="46.904" lon="5.76428">
        <ele>303.2</ele>
        <time>2020-03-04T07:53:56Z</time>
      </trkpt>
      <trkpt lat="46.904" lon="5.76424">
        <ele>303.2</ele>
        <time>2020-03-04T07:53:57Z</time>
      </trkpt>
      <trkpt lat="46.904" lon="5.76421">
        <ele>303.2</ele>
        <time>2020-03-04T07:53:58Z</time>
      </trkpt>
      <trkpt lat="46.904" lon="5.76417">
        <ele>303.2</ele>
        <time>2020-03-04T07:53:59Z</time>
      </trkpt>
      <trkpt lat="46.90399" lon="5.76414">
        <ele>303.4</ele>
        <time>2020-03-04T07:54:00Z</time>
      </trkpt>
      <trkpt lat="46.90398" lon="5.76412">
        <ele>303.4</ele>
        <time>2020-03-04T07:54:01Z</time>
      </trkpt>
      <trkpt lat="46.90396" lon="5.76409">
        <ele>303.4</ele>
        <time>2020-03-04T07:54:02Z</time>
      </trkpt>
      <trkpt lat="46.90395" lon="5.76407">
        <ele>303.8</ele>
        <time>2020-03-04T07:54:03Z</time>
      </trkpt>
      <trkpt lat="46.90393" lon="5.76405">
        <ele>303.8</ele>
        <time>2020-03-04T07:54:04Z</time>
      </trkpt>
      <trkpt lat="46.90391" lon="5.76404">
        <ele>304</ele>
        <time>2020-03-04T07:54:05Z</time>
      </trkpt>
      <trkpt lat="46.90389" lon="5.76402">
        <ele>304</ele>
        <time>2020-03-04T07:54:06Z</time>
      </trkpt>
      <trkpt lat="46.90387" lon="5.76401">
        <ele>304.2</ele>
        <time>2020-03-04T07:54:07Z</time>
      </trkpt>
      <trkpt lat="46.90385" lon="5.764">
        <ele>304.2</ele>
        <time>2020-03-04T07:54:08Z</time>
      </trkpt>
      <trkpt lat="46.90383" lon="5.76398">
        <ele>304.6</ele>
        <time>2020-03-04T07:54:09Z</time>
      </trkpt>
      <trkpt lat="46.90382" lon="5.76397">
        <ele>304.6</ele>
        <time>2020-03-04T07:54:10Z</time>
      </trkpt>
      <trkpt lat="46.9038" lon="5.76395">
        <ele>304.8</ele>
        <time>2020-03-04T07:54:11Z</time>
      </trkpt>
      <trkpt lat="46.90378" lon="5.76394">
        <ele>304.8</ele>
        <time>2020-03-04T07:54:12Z</time>
      </trkpt>
      <trkpt lat="46.90377" lon="5.76392">
        <ele>305.2</ele>
        <time>2020-03-04T07:54:13Z</time>
      </trkpt>
      <trkpt lat="46.90375" lon="5.76391">
        <ele>305.2</ele>
        <time>2020-03-04T07:54:14Z</time>
      </trkpt>
      <trkpt lat="46.90374" lon="5.76389">
        <ele>305.4</ele>
        <time>2020-03-04T07:54:15Z</time>
      </trkpt>
      <trkpt lat="46.90372" lon="5.76386">
        <ele>305.4</ele>
        <time>2020-03-04T07:54:16Z</time>
      </trkpt>
      <trkpt lat="46.90371" lon="5.76384">
        <ele>305.4</ele>
        <time>2020-03-04T07:54:17Z</time>
      </trkpt>
      <trkpt lat="46.90369" lon="5.76382">
        <ele>305.8</ele>
        <time>2020-03-04T07:54:18Z</time>
      </trkpt>
      <trkpt lat="46.90368" lon="5.76381">
        <ele>306</ele>
        <time>2020-03-04T07:54:19Z</time>
      </trkpt>
      <trkpt lat="46.90367" lon="5.76379">
        <ele>306.2</ele>
        <time>2020-03-04T07:54:20Z</time>
      </trkpt>
      <trkpt lat="46.90365" lon="5.76377">
        <ele>306.2</ele>
        <time>2020-03-04T07:54:21Z</time>
      </trkpt>
      <trkpt lat="46.90364" lon="5.76375">
        <ele>306.4</ele>
        <time>2020-03-04T07:54:22Z</time>
      </trkpt>
      <trkpt lat="46.90364" lon="5.76372">
        <ele>306.4</ele>
        <time>2020-03-04T07:54:23Z</time>
      </trkpt>
      <trkpt lat="46.90363" lon="5.76369">
        <ele>306.6</ele>
        <time>2020-03-04T07:54:24Z</time>
      </trkpt>
      <trkpt lat="46.90362" lon="5.76366">
        <ele>306.6</ele>
        <time>2020-03-04T07:54:25Z</time>
      </trkpt>
      <trkpt lat="46.90362" lon="5.76362">
        <ele>307</ele>
        <time>2020-03-04T07:54:26Z</time>
      </trkpt>
      <trkpt lat="46.90361" lon="5.76359">
        <ele>307</ele>
        <time>2020-03-04T07:54:27Z</time>
      </trkpt>
      <trkpt lat="46.9036" lon="5.76355">
        <ele>307.2</ele>
        <time>2020-03-04T07:54:28Z</time>
      </trkpt>
      <trkpt lat="46.9036" lon="5.76352">
        <ele>307.2</ele>
        <time>2020-03-04T07:54:29Z</time>
      </trkpt>
      <trkpt lat="46.9036" lon="5.76348">
        <ele>307.6</ele>
        <time>2020-03-04T07:54:30Z</time>
      </trkpt>
      <trkpt lat="46.9036" lon="5.76345">
        <ele>307.8</ele>
        <time>2020-03-04T07:54:31Z</time>
      </trkpt>
      <trkpt lat="46.9036" lon="5.76341">
        <ele>307.8</ele>
        <time>2020-03-04T07:54:32Z</time>
      </trkpt>
      <trkpt lat="46.90359" lon="5.76337">
        <ele>308.2</ele>
        <time>2020-03-04T07:54:33Z</time>
      </trkpt>
      <trkpt lat="46.90359" lon="5.76333">
        <ele>308.2</ele>
        <time>2020-03-04T07:54:34Z</time>
      </trkpt>
      <trkpt lat="46.9036" lon="5.76329">
        <ele>308.6</ele>
        <time>2020-03-04T07:54:35Z</time>
      </trkpt>
      <trkpt lat="46.9036" lon="5.76325">
        <ele>308.6</ele>
        <time>2020-03-04T07:54:36Z</time>
      </trkpt>
      <trkpt lat="46.9036" lon="5.76321">
        <ele>308.8</ele>
        <time>2020-03-04T07:54:37Z</time>
      </trkpt>
      <trkpt lat="46.90359" lon="5.76316">
        <ele>309</ele>
        <time>2020-03-04T07:54:38Z</time>
      </trkpt>
      <trkpt lat="46.90359" lon="5.76312">
        <ele>309</ele>
        <time>2020-03-04T07:54:39Z</time>
      </trkpt>
      <trkpt lat="46.90358" lon="5.76307">
        <ele>309.4</ele>
        <time>2020-03-04T07:54:40Z</time>
      </trkpt>
      <trkpt lat="46.90358" lon="5.76302">
        <ele>309.4</ele>
        <time>2020-03-04T07:54:41Z</time>
      </trkpt>
      <trkpt lat="46.90358" lon="5.76296">
        <ele>309.6</ele>
        <time>2020-03-04T07:54:42Z</time>
      </trkpt>
      <trkpt lat="46.90358" lon="5.76291">
        <ele>309.6</ele>
        <time>2020-03-04T07:54:43Z</time>
      </trkpt>
      <trkpt lat="46.90357" lon="5.76286">
        <ele>309.6</ele>
        <time>2020-03-04T07:54:44Z</time>
      </trkpt>
      <trkpt lat="46.90356" lon="5.76281">
        <ele>309.8</ele>
        <time>2020-03-04T07:54:45Z</time>
      </trkpt>
      <trkpt lat="46.90355" lon="5.76275">
        <ele>309.8</ele>
        <time>2020-03-04T07:54:46Z</time>
      </trkpt>
      <trkpt lat="46.90353" lon="5.76269">
        <ele>310</ele>
        <time>2020-03-04T07:54:47Z</time>
      </trkpt>
      <trkpt lat="46.90352" lon="5.76263">
        <ele>310</ele>
        <time>2020-03-04T07:54:48Z</time>
      </trkpt>
      <trkpt lat="46.90351" lon="5.76258">
        <ele>310.2</ele>
        <time>2020-03-04T07:54:49Z</time>
      </trkpt>
      <trkpt lat="46.90349" lon="5.76252">
        <ele>310.2</ele>
        <time>2020-03-04T07:54:50Z</time>
      </trkpt>
      <trkpt lat="46.90348" lon="5.76246">
        <ele>310.6</ele>
        <time>2020-03-04T07:54:51Z</time>
      </trkpt>
      <trkpt lat="46.90346" lon="5.7624">
        <ele>310.6</ele>
        <time>2020-03-04T07:54:52Z</time>
      </trkpt>
      <trkpt lat="46.90345" lon="5.76234">
        <ele>310.8</ele>
        <time>2020-03-04T07:54:53Z</time>
      </trkpt>
      <trkpt lat="46.90343" lon="5.76228">
        <ele>310.8</ele>
        <time>2020-03-04T07:54:54Z</time>
      </trkpt>
      <trkpt lat="46.90342" lon="5.76222">
        <ele>311.2</ele>
        <time>2020-03-04T07:54:55Z</time>
      </trkpt>
      <trkpt lat="46.9034" lon="5.76217">
        <ele>311.2</ele>
        <time>2020-03-04T07:54:56Z</time>
      </trkpt>
      <trkpt lat="46.90338" lon="5.76211">
        <ele>311.4</ele>
        <time>2020-03-04T07:54:57Z</time>
      </trkpt>
      <trkpt lat="46.90337" lon="5.76206">
        <ele>311.4</ele>
        <time>2020-03-04T07:54:58Z</time>
      </trkpt>
      <trkpt lat="46.90335" lon="5.76201">
        <ele>311.6</ele>
        <time>2020-03-04T07:54:59Z</time>
      </trkpt>
      <trkpt lat="46.90334" lon="5.76195">
        <ele>311.6</ele>
        <time>2020-03-04T07:55:00Z</time>
      </trkpt>
      <trkpt lat="46.90333" lon="5.76189">
        <ele>312</ele>
        <time>2020-03-04T07:55:01Z</time>
      </trkpt>
      <trkpt lat="46.90332" lon="5.76183">
        <ele>312.2</ele>
        <time>2020-03-04T07:55:02Z</time>
      </trkpt>
      <trkpt lat="46.90332" lon="5.76177">
        <ele>312.4</ele>
        <time>2020-03-04T07:55:03Z</time>
      </trkpt>
      <trkpt lat="46.90331" lon="5.76171">
        <ele>312.8</ele>
        <time>2020-03-04T07:55:04Z</time>
      </trkpt>
      <trkpt lat="46.90329" lon="5.76165">
        <ele>313</ele>
        <time>2020-03-04T07:55:05Z</time>
      </trkpt>
      <trkpt lat="46.90328" lon="5.76159">
        <ele>313.4</ele>
        <time>2020-03-04T07:55:06Z</time>
      </trkpt>
      <trkpt lat="46.90327" lon="5.76153">
        <ele>313.6</ele>
        <time>2020-03-04T07:55:07Z</time>
      </trkpt>
      <trkpt lat="46.90327" lon="5.76147">
        <ele>314</ele>
        <time>2020-03-04T07:55:08Z</time>
      </trkpt>
      <trkpt lat="46.90326" lon="5.76142">
        <ele>314.4</ele>
        <time>2020-03-04T07:55:09Z</time>
      </trkpt>
      <trkpt lat="46.90325" lon="5.76136">
        <ele>314.6</ele>
        <time>2020-03-04T07:55:10Z</time>
      </trkpt>
      <trkpt lat="46.90324" lon="5.76131">
        <ele>315</ele>
        <time>2020-03-04T07:55:11Z</time>
      </trkpt>
      <trkpt lat="46.90324" lon="5.76126">
        <ele>315.4</ele>
        <time>2020-03-04T07:55:12Z</time>
      </trkpt>
      <trkpt lat="46.90323" lon="5.76121">
        <ele>315.8</ele>
        <time>2020-03-04T07:55:13Z</time>
      </trkpt>
      <trkpt lat="46.90323" lon="5.76117">
        <ele>316</ele>
        <time>2020-03-04T07:55:14Z</time>
      </trkpt>
      <trkpt lat="46.90323" lon="5.76113">
        <ele>316.4</ele>
        <time>2020-03-04T07:55:15Z</time>
      </trkpt>
      <trkpt lat="46.90322" lon="5.76108">
        <ele>316.6</ele>
        <time>2020-03-04T07:55:16Z</time>
      </trkpt>
      <trkpt lat="46.90321" lon="5.76103">
        <ele>316.8</ele>
        <time>2020-03-04T07:55:17Z</time>
      </trkpt>
      <trkpt lat="46.90321" lon="5.76098">
        <ele>317</ele>
        <time>2020-03-04T07:55:18Z</time>
      </trkpt>
      <trkpt lat="46.9032" lon="5.76092">
        <ele>317</ele>
        <time>2020-03-04T07:55:19Z</time>
      </trkpt>
      <trkpt lat="46.90319" lon="5.76087">
        <ele>317.4</ele>
        <time>2020-03-04T07:55:20Z</time>
      </trkpt>
      <trkpt lat="46.90318" lon="5.76081">
        <ele>317.6</ele>
        <time>2020-03-04T07:55:21Z</time>
      </trkpt>
      <trkpt lat="46.90317" lon="5.76076">
        <ele>318</ele>
        <time>2020-03-04T07:55:22Z</time>
      </trkpt>
      <trkpt lat="46.90316" lon="5.76071">
        <ele>318.2</ele>
        <time>2020-03-04T07:55:23Z</time>
      </trkpt>
      <trkpt lat="46.90315" lon="5.76066">
        <ele>318.4</ele>
        <time>2020-03-04T07:55:24Z</time>
      </trkpt>
      <trkpt lat="46.90315" lon="5.76061">
        <ele>318.4</ele>
        <time>2020-03-04T07:55:25Z</time>
      </trkpt>
      <trkpt lat="46.90313" lon="5.76056">
        <ele>318.8</ele>
        <time>2020-03-04T07:55:26Z</time>
      </trkpt>
      <trkpt lat="46.90312" lon="5.76052">
        <ele>319</ele>
        <time>2020-03-04T07:55:27Z</time>
      </trkpt>
      <trkpt lat="46.90312" lon="5.76048">
        <ele>319.4</ele>
        <time>2020-03-04T07:55:28Z</time>
      </trkpt>
      <trkpt lat="46.90311" lon="5.76045">
        <ele>319.6</ele>
        <time>2020-03-04T07:55:29Z</time>
      </trkpt>
      <trkpt lat="46.9031" lon="5.76041">
        <ele>319.8</ele>
        <time>2020-03-04T07:55:30Z</time>
      </trkpt>
      <trkpt lat="46.90309" lon="5.76038">
        <ele>320</ele>
        <time>2020-03-04T07:55:31Z</time>
      </trkpt>
      <trkpt lat="46.90309" lon="5.76035">
        <ele>320.4</ele>
        <time>2020-03-04T07:55:32Z</time>
      </trkpt>
      <trkpt lat="46.90308" lon="5.76032">
        <ele>320.4</ele>
        <time>2020-03-04T07:55:33Z</time>
      </trkpt>
      <trkpt lat="46.90307" lon="5.76029">
        <ele>320.8</ele>
        <time>2020-03-04T07:55:34Z</time>
      </trkpt>
      <trkpt lat="46.90306" lon="5.76026">
        <ele>320.8</ele>
        <time>2020-03-04T07:55:35Z</time>
      </trkpt>
      <trkpt lat="46.90306" lon="5.76023">
        <ele>321</ele>
        <time>2020-03-04T07:55:36Z</time>
      </trkpt>
      <trkpt lat="46.90305" lon="5.7602">
        <ele>321</ele>
        <time>2020-03-04T07:55:37Z</time>
      </trkpt>
      <trkpt lat="46.90304" lon="5.76017">
        <ele>321.4</ele>
        <time>2020-03-04T07:55:38Z</time>
      </trkpt>
      <trkpt lat="46.90304" lon="5.76014">
        <ele>321.4</ele>
        <time>2020-03-04T07:55:39Z</time>
      </trkpt>
      <trkpt lat="46.90303" lon="5.76011">
        <ele>321.6</ele>
        <time>2020-03-04T07:55:40Z</time>
      </trkpt>
      <trkpt lat="46.90302" lon="5.76008">
        <ele>321.6</ele>
        <time>2020-03-04T07:55:41Z</time>
      </trkpt>
      <trkpt lat="46.90302" lon="5.76005">
        <ele>321.6</ele>
        <time>2020-03-04T07:55:42Z</time>
      </trkpt>
      <trkpt lat="46.90301" lon="5.76001">
        <ele>322</ele>
        <time>2020-03-04T07:55:43Z</time>
      </trkpt>
      <trkpt lat="46.903" lon="5.75998">
        <ele>322</ele>
        <time>2020-03-04T07:55:44Z</time>
      </trkpt>
      <trkpt lat="46.90299" lon="5.75995">
        <ele>322</ele>
        <time>2020-03-04T07:55:45Z</time>
      </trkpt>
      <trkpt lat="46.90298" lon="5.75991">
        <ele>322.2</ele>
        <time>2020-03-04T07:55:46Z</time>
      </trkpt>
      <trkpt lat="46.90297" lon="5.75988">
        <ele>322.2</ele>
        <time>2020-03-04T07:55:47Z</time>
      </trkpt>
      <trkpt lat="46.90296" lon="5.75984">
        <ele>322.4</ele>
        <time>2020-03-04T07:55:48Z</time>
      </trkpt>
      <trkpt lat="46.90295" lon="5.7598">
        <ele>322.4</ele>
        <time>2020-03-04T07:55:49Z</time>
      </trkpt>
      <trkpt lat="46.90294" lon="5.75975">
        <ele>322.4</ele>
        <time>2020-03-04T07:55:50Z</time>
      </trkpt>
      <trkpt lat="46.90294" lon="5.7597">
        <ele>322.4</ele>
        <time>2020-03-04T07:55:51Z</time>
      </trkpt>
      <trkpt lat="46.90294" lon="5.75964">
        <ele>322.4</ele>
        <time>2020-03-04T07:55:52Z</time>
      </trkpt>
      <trkpt lat="46.90294" lon="5.75957">
        <ele>322.4</ele>
        <time>2020-03-04T07:55:53Z</time>
      </trkpt>
      <trkpt lat="46.90293" lon="5.75951">
        <ele>322.4</ele>
        <time>2020-03-04T07:55:54Z</time>
      </trkpt>
      <trkpt lat="46.90293" lon="5.75944">
        <ele>322.4</ele>
        <time>2020-03-04T07:55:55Z</time>
      </trkpt>
      <trkpt lat="46.90293" lon="5.75937">
        <ele>322.4</ele>
        <time>2020-03-04T07:55:56Z</time>
      </trkpt>
      <trkpt lat="46.90292" lon="5.7593">
        <ele>322.4</ele>
        <time>2020-03-04T07:55:57Z</time>
      </trkpt>
      <trkpt lat="46.90292" lon="5.75923">
        <ele>322.4</ele>
        <time>2020-03-04T07:55:58Z</time>
      </trkpt>
      <trkpt lat="46.90291" lon="5.75916">
        <ele>322.4</ele>
        <time>2020-03-04T07:55:59Z</time>
      </trkpt>
      <trkpt lat="46.90291" lon="5.75909">
        <ele>322.4</ele>
        <time>2020-03-04T07:56:00Z</time>
      </trkpt>
      <trkpt lat="46.9029" lon="5.75901">
        <ele>322.4</ele>
        <time>2020-03-04T07:56:01Z</time>
      </trkpt>
      <trkpt lat="46.9029" lon="5.75893">
        <ele>322.4</ele>
        <time>2020-03-04T07:56:02Z</time>
      </trkpt>
      <trkpt lat="46.9029" lon="5.75886">
        <ele>322.6</ele>
        <time>2020-03-04T07:56:03Z</time>
      </trkpt>
      <trkpt lat="46.90289" lon="5.75879">
        <ele>322.6</ele>
        <time>2020-03-04T07:56:04Z</time>
      </trkpt>
      <trkpt lat="46.90289" lon="5.75873">
        <ele>322.6</ele>
        <time>2020-03-04T07:56:05Z</time>
      </trkpt>
      <trkpt lat="46.90288" lon="5.75866">
        <ele>322.6</ele>
        <time>2020-03-04T07:56:06Z</time>
      </trkpt>
      <trkpt lat="46.90288" lon="5.7586">
        <ele>322.6</ele>
        <time>2020-03-04T07:56:07Z</time>
      </trkpt>
      <trkpt lat="46.90287" lon="5.75853">
        <ele>322.8</ele>
        <time>2020-03-04T07:56:08Z</time>
      </trkpt>
      <trkpt lat="46.90286" lon="5.75846">
        <ele>322.8</ele>
        <time>2020-03-04T07:56:09Z</time>
      </trkpt>
      <trkpt lat="46.90286" lon="5.75839">
        <ele>322.8</ele>
        <time>2020-03-04T07:56:10Z</time>
      </trkpt>
      <trkpt lat="46.90285" lon="5.75832">
        <ele>322.8</ele>
        <time>2020-03-04T07:56:11Z</time>
      </trkpt>
      <trkpt lat="46.90285" lon="5.75825">
        <ele>322.8</ele>
        <time>2020-03-04T07:56:12Z</time>
      </trkpt>
      <trkpt lat="46.90283" lon="5.7582">
        <ele>323</ele>
        <time>2020-03-04T07:56:13Z</time>
      </trkpt>
      <trkpt lat="46.90281" lon="5.75814">
        <ele>323</ele>
        <time>2020-03-04T07:56:14Z</time>
      </trkpt>
      <trkpt lat="46.90278" lon="5.7581">
        <ele>323.2</ele>
        <time>2020-03-04T07:56:15Z</time>
      </trkpt>
      <trkpt lat="46.90275" lon="5.75806">
        <ele>323.2</ele>
        <time>2020-03-04T07:56:16Z</time>
      </trkpt>
      <trkpt lat="46.90271" lon="5.75802">
        <ele>323.2</ele>
        <time>2020-03-04T07:56:17Z</time>
      </trkpt>
      <trkpt lat="46.90268" lon="5.75799">
        <ele>323.6</ele>
        <time>2020-03-04T07:56:18Z</time>
      </trkpt>
      <trkpt lat="46.90264" lon="5.75795">
        <ele>323.6</ele>
        <time>2020-03-04T07:56:19Z</time>
      </trkpt>
      <trkpt lat="46.9026" lon="5.75792">
        <ele>323.8</ele>
        <time>2020-03-04T07:56:20Z</time>
      </trkpt>
      <trkpt lat="46.90257" lon="5.75789">
        <ele>323.8</ele>
        <time>2020-03-04T07:56:21Z</time>
      </trkpt>
      <trkpt lat="46.90254" lon="5.75787">
        <ele>324.2</ele>
        <time>2020-03-04T07:56:22Z</time>
      </trkpt>
      <trkpt lat="46.90251" lon="5.75784">
        <ele>324.6</ele>
        <time>2020-03-04T07:56:23Z</time>
      </trkpt>
      <trkpt lat="46.90247" lon="5.75782">
        <ele>324.6</ele>
        <time>2020-03-04T07:56:24Z</time>
      </trkpt>
      <trkpt lat="46.90244" lon="5.75779">
        <ele>325</ele>
        <time>2020-03-04T07:56:25Z</time>
      </trkpt>
      <trkpt lat="46.90241" lon="5.75777">
        <ele>325.2</ele>
        <time>2020-03-04T07:56:26Z</time>
      </trkpt>
      <trkpt lat="46.90237" lon="5.75774">
        <ele>325.6</ele>
        <time>2020-03-04T07:56:27Z</time>
      </trkpt>
      <trkpt lat="46.90234" lon="5.75772">
        <ele>326</ele>
        <time>2020-03-04T07:56:28Z</time>
      </trkpt>
      <trkpt lat="46.9023" lon="5.7577">
        <ele>326.4</ele>
        <time>2020-03-04T07:56:29Z</time>
      </trkpt>
      <trkpt lat="46.90227" lon="5.75768">
        <ele>326.8</ele>
        <time>2020-03-04T07:56:30Z</time>
      </trkpt>
      <trkpt lat="46.90223" lon="5.75767">
        <ele>327.2</ele>
        <time>2020-03-04T07:56:31Z</time>
      </trkpt>
      <trkpt lat="46.9022" lon="5.75765">
        <ele>327.6</ele>
        <time>2020-03-04T07:56:32Z</time>
      </trkpt>
      <trkpt lat="46.90217" lon="5.75763">
        <ele>328</ele>
        <time>2020-03-04T07:56:33Z</time>
      </trkpt>
      <trkpt lat="46.90214" lon="5.75762">
        <ele>328.4</ele>
        <time>2020-03-04T07:56:34Z</time>
      </trkpt>
      <trkpt lat="46.90211" lon="5.7576">
        <ele>328.8</ele>
        <time>2020-03-04T07:56:35Z</time>
      </trkpt>
      <trkpt lat="46.90208" lon="5.75758">
        <ele>329.2</ele>
        <time>2020-03-04T07:56:36Z</time>
      </trkpt>
      <trkpt lat="46.90206" lon="5.75756">
        <ele>329.6</ele>
        <time>2020-03-04T07:56:37Z</time>
      </trkpt>
      <trkpt lat="46.90204" lon="5.75754">
        <ele>330</ele>
        <time>2020-03-04T07:56:38Z</time>
      </trkpt>
      <trkpt lat="46.90202" lon="5.75751">
        <ele>330.4</ele>
        <time>2020-03-04T07:56:39Z</time>
      </trkpt>
      <trkpt lat="46.902" lon="5.75748">
        <ele>330.8</ele>
        <time>2020-03-04T07:56:40Z</time>
      </trkpt>
      <trkpt lat="46.90199" lon="5.75745">
        <ele>331.2</ele>
        <time>2020-03-04T07:56:41Z</time>
      </trkpt>
      <trkpt lat="46.90198" lon="5.75742">
        <ele>331.6</ele>
        <time>2020-03-04T07:56:42Z</time>
      </trkpt>
      <trkpt lat="46.90197" lon="5.75739">
        <ele>332</ele>
        <time>2020-03-04T07:56:43Z</time>
      </trkpt>
      <trkpt lat="46.90197" lon="5.75735">
        <ele>332.2</ele>
        <time>2020-03-04T07:56:44Z</time>
      </trkpt>
      <trkpt lat="46.90196" lon="5.75732">
        <ele>332.6</ele>
        <time>2020-03-04T07:56:45Z</time>
      </trkpt>
      <trkpt lat="46.90196" lon="5.75728">
        <ele>332.8</ele>
        <time>2020-03-04T07:56:46Z</time>
      </trkpt>
      <trkpt lat="46.90196" lon="5.75725">
        <ele>333.2</ele>
        <time>2020-03-04T07:56:47Z</time>
      </trkpt>
      <trkpt lat="46.90196" lon="5.7572">
        <ele>333.4</ele>
        <time>2020-03-04T07:56:48Z</time>
      </trkpt>
      <trkpt lat="46.90196" lon="5.75716">
        <ele>333.8</ele>
        <time>2020-03-04T07:56:49Z</time>
      </trkpt>
      <trkpt lat="46.90195" lon="5.75712">
        <ele>334</ele>
        <time>2020-03-04T07:56:50Z</time>
      </trkpt>
      <trkpt lat="46.90195" lon="5.75707">
        <ele>334.4</ele>
        <time>2020-03-04T07:56:51Z</time>
      </trkpt>
      <trkpt lat="46.90195" lon="5.75703">
        <ele>334.6</ele>
        <time>2020-03-04T07:56:52Z</time>
      </trkpt>
      <trkpt lat="46.90195" lon="5.75699">
        <ele>335</ele>
        <time>2020-03-04T07:56:53Z</time>
      </trkpt>
      <trkpt lat="46.90195" lon="5.75694">
        <ele>335</ele>
        <time>2020-03-04T07:56:54Z</time>
      </trkpt>
      <trkpt lat="46.90195" lon="5.7569">
        <ele>335.4</ele>
        <time>2020-03-04T07:56:55Z</time>
      </trkpt>
      <trkpt lat="46.90196" lon="5.75686">
        <ele>335.6</ele>
        <time>2020-03-04T07:56:56Z</time>
      </trkpt>
      <trkpt lat="46.90196" lon="5.75682">
        <ele>335.6</ele>
        <time>2020-03-04T07:56:57Z</time>
      </trkpt>
      <trkpt lat="46.90197" lon="5.75678">
        <ele>335.8</ele>
        <time>2020-03-04T07:56:58Z</time>
      </trkpt>
      <trkpt lat="46.90197" lon="5.75674">
        <ele>336</ele>
        <time>2020-03-04T07:56:59Z</time>
      </trkpt>
      <trkpt lat="46.90198" lon="5.7567">
        <ele>336</ele>
        <time>2020-03-04T07:57:00Z</time>
      </trkpt>
      <trkpt lat="46.90199" lon="5.75667">
        <ele>336.4</ele>
        <time>2020-03-04T07:57:01Z</time>
      </trkpt>
      <trkpt lat="46.90201" lon="5.75664">
        <ele>336.4</ele>
        <time>2020-03-04T07:57:02Z</time>
      </trkpt>
      <trkpt lat="46.90202" lon="5.7566">
        <ele>336.4</ele>
        <time>2020-03-04T07:57:03Z</time>
      </trkpt>
      <trkpt lat="46.90204" lon="5.75656">
        <ele>336.4</ele>
        <time>2020-03-04T07:57:04Z</time>
      </trkpt>
      <trkpt lat="46.90205" lon="5.75652">
        <ele>336.4</ele>
        <time>2020-03-04T07:57:05Z</time>
      </trkpt>
      <trkpt lat="46.90207" lon="5.75647">
        <ele>336</ele>
        <time>2020-03-04T07:57:06Z</time>
      </trkpt>
      <trkpt lat="46.90208" lon="5.75642">
        <ele>336</ele>
        <time>2020-03-04T07:57:07Z</time>
      </trkpt>
      <trkpt lat="46.9021" lon="5.75637">
        <ele>335.8</ele>
        <time>2020-03-04T07:57:08Z</time>
      </trkpt>
      <trkpt lat="46.90211" lon="5.75631">
        <ele>335.8</ele>
        <time>2020-03-04T07:57:09Z</time>
      </trkpt>
      <trkpt lat="46.90213" lon="5.75624">
        <ele>335.4</ele>
        <time>2020-03-04T07:57:10Z</time>
      </trkpt>
      <trkpt lat="46.90215" lon="5.75617">
        <ele>335.2</ele>
        <time>2020-03-04T07:57:11Z</time>
      </trkpt>
      <trkpt lat="46.90216" lon="5.7561">
        <ele>334.8</ele>
        <time>2020-03-04T07:57:12Z</time>
      </trkpt>
      <trkpt lat="46.90218" lon="5.75603">
        <ele>334.6</ele>
        <time>2020-03-04T07:57:13Z</time>
      </trkpt>
      <trkpt lat="46.90219" lon="5.75595">
        <ele>334.6</ele>
        <time>2020-03-04T07:57:14Z</time>
      </trkpt>
      <trkpt lat="46.90221" lon="5.75588">
        <ele>334.2</ele>
        <time>2020-03-04T07:57:15Z</time>
      </trkpt>
      <trkpt lat="46.90222" lon="5.75581">
        <ele>334.2</ele>
        <time>2020-03-04T07:57:16Z</time>
      </trkpt>
      <trkpt lat="46.90224" lon="5.75574">
        <ele>334</ele>
        <time>2020-03-04T07:57:17Z</time>
      </trkpt>
      <trkpt lat="46.90225" lon="5.75567">
        <ele>334</ele>
        <time>2020-03-04T07:57:18Z</time>
      </trkpt>
      <trkpt lat="46.90227" lon="5.75561">
        <ele>333.8</ele>
        <time>2020-03-04T07:57:19Z</time>
      </trkpt>
      <trkpt lat="46.90229" lon="5.75554">
        <ele>333.8</ele>
        <time>2020-03-04T07:57:20Z</time>
      </trkpt>
      <trkpt lat="46.90231" lon="5.75548">
        <ele>333.6</ele>
        <time>2020-03-04T07:57:21Z</time>
      </trkpt>
      <trkpt lat="46.90233" lon="5.75542">
        <ele>333.6</ele>
        <time>2020-03-04T07:57:22Z</time>
      </trkpt>
      <trkpt lat="46.90236" lon="5.75536">
        <ele>333.6</ele>
        <time>2020-03-04T07:57:23Z</time>
      </trkpt>
      <trkpt lat="46.90239" lon="5.7553">
        <ele>333.4</ele>
        <time>2020-03-04T07:57:24Z</time>
      </trkpt>
      <trkpt lat="46.90241" lon="5.75524">
        <ele>333.4</ele>
        <time>2020-03-04T07:57:25Z</time>
      </trkpt>
      <trkpt lat="46.90243" lon="5.75518">
        <ele>333.4</ele>
        <time>2020-03-04T07:57:26Z</time>
      </trkpt>
      <trkpt lat="46.90245" lon="5.75511">
        <ele>333.4</ele>
        <time>2020-03-04T07:57:27Z</time>
      </trkpt>
      <trkpt lat="46.90247" lon="5.75503">
        <ele>333.4</ele>
        <time>2020-03-04T07:57:28Z</time>
      </trkpt>
      <trkpt lat="46.90249" lon="5.75497">
        <ele>333.4</ele>
        <time>2020-03-04T07:57:29Z</time>
      </trkpt>
      <trkpt lat="46.9025" lon="5.75489">
        <ele>333.4</ele>
        <time>2020-03-04T07:57:30Z</time>
      </trkpt>
      <trkpt lat="46.90251" lon="5.75482">
        <ele>333.2</ele>
        <time>2020-03-04T07:57:31Z</time>
      </trkpt>
      <trkpt lat="46.90253" lon="5.75475">
        <ele>333.2</ele>
        <time>2020-03-04T07:57:32Z</time>
      </trkpt>
      <trkpt lat="46.90254" lon="5.75468">
        <ele>333.2</ele>
        <time>2020-03-04T07:57:33Z</time>
      </trkpt>
      <trkpt lat="46.90255" lon="5.75462">
        <ele>333.2</ele>
        <time>2020-03-04T07:57:34Z</time>
      </trkpt>
      <trkpt lat="46.90256" lon="5.75455">
        <ele>333.2</ele>
        <time>2020-03-04T07:57:35Z</time>
      </trkpt>
      <trkpt lat="46.90258" lon="5.75448">
        <ele>333.2</ele>
        <time>2020-03-04T07:57:36Z</time>
      </trkpt>
      <trkpt lat="46.90259" lon="5.75442">
        <ele>333.2</ele>
        <time>2020-03-04T07:57:37Z</time>
      </trkpt>
      <trkpt lat="46.9026" lon="5.75435">
        <ele>333.2</ele>
        <time>2020-03-04T07:57:38Z</time>
      </trkpt>
      <trkpt lat="46.90261" lon="5.75429">
        <ele>333.2</ele>
        <time>2020-03-04T07:57:39Z</time>
      </trkpt>
      <trkpt lat="46.90262" lon="5.75422">
        <ele>333.2</ele>
        <time>2020-03-04T07:57:40Z</time>
      </trkpt>
      <trkpt lat="46.90263" lon="5.75415">
        <ele>333.2</ele>
        <time>2020-03-04T07:57:41Z</time>
      </trkpt>
      <trkpt lat="46.90264" lon="5.75408">
        <ele>333.2</ele>
        <time>2020-03-04T07:57:42Z</time>
      </trkpt>
      <trkpt lat="46.90265" lon="5.75401">
        <ele>333.2</ele>
        <time>2020-03-04T07:57:43Z</time>
      </trkpt>
      <trkpt lat="46.90266" lon="5.75395">
        <ele>332.8</ele>
        <time>2020-03-04T07:57:44Z</time>
      </trkpt>
      <trkpt lat="46.90266" lon="5.75388">
        <ele>332.8</ele>
        <time>2020-03-04T07:57:45Z</time>
      </trkpt>
      <trkpt lat="46.90267" lon="5.75382">
        <ele>332.8</ele>
        <time>2020-03-04T07:57:46Z</time>
      </trkpt>
      <trkpt lat="46.90267" lon="5.75375">
        <ele>332.8</ele>
        <time>2020-03-04T07:57:47Z</time>
      </trkpt>
      <trkpt lat="46.90268" lon="5.75369">
        <ele>332.6</ele>
        <time>2020-03-04T07:57:48Z</time>
      </trkpt>
      <trkpt lat="46.90268" lon="5.75362">
        <ele>332.6</ele>
        <time>2020-03-04T07:57:49Z</time>
      </trkpt>
      <trkpt lat="46.90269" lon="5.75356">
        <ele>332.4</ele>
        <time>2020-03-04T07:57:50Z</time>
      </trkpt>
      <trkpt lat="46.90269" lon="5.75349">
        <ele>332.4</ele>
        <time>2020-03-04T07:57:51Z</time>
      </trkpt>
      <trkpt lat="46.9027" lon="5.75343">
        <ele>332</ele>
        <time>2020-03-04T07:57:52Z</time>
      </trkpt>
      <trkpt lat="46.9027" lon="5.75336">
        <ele>332</ele>
        <time>2020-03-04T07:57:53Z</time>
      </trkpt>
      <trkpt lat="46.90271" lon="5.75329">
        <ele>332</ele>
        <time>2020-03-04T07:57:54Z</time>
      </trkpt>
      <trkpt lat="46.90272" lon="5.75322">
        <ele>331.6</ele>
        <time>2020-03-04T07:57:55Z</time>
      </trkpt>
      <trkpt lat="46.90273" lon="5.75315">
        <ele>331.6</ele>
        <time>2020-03-04T07:57:56Z</time>
      </trkpt>
      <trkpt lat="46.90274" lon="5.75308">
        <ele>331.2</ele>
        <time>2020-03-04T07:57:57Z</time>
      </trkpt>
      <trkpt lat="46.90275" lon="5.75301">
        <ele>331</ele>
        <time>2020-03-04T07:57:58Z</time>
      </trkpt>
      <trkpt lat="46.90276" lon="5.75293">
        <ele>330.8</ele>
        <time>2020-03-04T07:57:59Z</time>
      </trkpt>
      <trkpt lat="46.90277" lon="5.75286">
        <ele>330.6</ele>
        <time>2020-03-04T07:58:00Z</time>
      </trkpt>
      <trkpt lat="46.90279" lon="5.75278">
        <ele>330.6</ele>
        <time>2020-03-04T07:58:01Z</time>
      </trkpt>
      <trkpt lat="46.9028" lon="5.7527">
        <ele>330.2</ele>
        <time>2020-03-04T07:58:02Z</time>
      </trkpt>
      <trkpt lat="46.90282" lon="5.75263">
        <ele>330</ele>
        <time>2020-03-04T07:58:03Z</time>
      </trkpt>
      <trkpt lat="46.90284" lon="5.75255">
        <ele>329.8</ele>
        <time>2020-03-04T07:58:04Z</time>
      </trkpt>
      <trkpt lat="46.90285" lon="5.75247">
        <ele>329.8</ele>
        <time>2020-03-04T07:58:05Z</time>
      </trkpt>
      <trkpt lat="46.90287" lon="5.75239">
        <ele>329.4</ele>
        <time>2020-03-04T07:58:06Z</time>
      </trkpt>
      <trkpt lat="46.90289" lon="5.7523">
        <ele>329.4</ele>
        <time>2020-03-04T07:58:07Z</time>
      </trkpt>
      <trkpt lat="46.90291" lon="5.75222">
        <ele>329</ele>
        <time>2020-03-04T07:58:08Z</time>
      </trkpt>
      <trkpt lat="46.90293" lon="5.75214">
        <ele>328.8</ele>
        <time>2020-03-04T07:58:09Z</time>
      </trkpt>
      <trkpt lat="46.90294" lon="5.75205">
        <ele>328.4</ele>
        <time>2020-03-04T07:58:10Z</time>
      </trkpt>
      <trkpt lat="46.90296" lon="5.75197">
        <ele>328.2</ele>
        <time>2020-03-04T07:58:11Z</time>
      </trkpt>
      <trkpt lat="46.90298" lon="5.75189">
        <ele>328</ele>
        <time>2020-03-04T07:58:12Z</time>
      </trkpt>
      <trkpt lat="46.903" lon="5.75181">
        <ele>327.8</ele>
        <time>2020-03-04T07:58:13Z</time>
      </trkpt>
      <trkpt lat="46.90302" lon="5.75172">
        <ele>327.6</ele>
        <time>2020-03-04T07:58:14Z</time>
      </trkpt>
      <trkpt lat="46.90304" lon="5.75163">
        <ele>327.2</ele>
        <time>2020-03-04T07:58:15Z</time>
      </trkpt>
      <trkpt lat="46.90307" lon="5.75155">
        <ele>327</ele>
        <time>2020-03-04T07:58:16Z</time>
      </trkpt>
      <trkpt lat="46.90309" lon="5.75146">
        <ele>326.8</ele>
        <time>2020-03-04T07:58:17Z</time>
      </trkpt>
      <trkpt lat="46.90311" lon="5.75137">
        <ele>326.4</ele>
        <time>2020-03-04T07:58:18Z</time>
      </trkpt>
      <trkpt lat="46.90313" lon="5.75129">
        <ele>326.4</ele>
        <time>2020-03-04T07:58:19Z</time>
      </trkpt>
      <trkpt lat="46.90316" lon="5.75121">
        <ele>326.2</ele>
        <time>2020-03-04T07:58:20Z</time>
      </trkpt>
      <trkpt lat="46.90318" lon="5.75113">
        <ele>325.8</ele>
        <time>2020-03-04T07:58:21Z</time>
      </trkpt>
      <trkpt lat="46.90321" lon="5.75105">
        <ele>325.8</ele>
        <time>2020-03-04T07:58:22Z</time>
      </trkpt>
      <trkpt lat="46.90324" lon="5.75098">
        <ele>325.6</ele>
        <time>2020-03-04T07:58:23Z</time>
      </trkpt>
      <trkpt lat="46.90327" lon="5.7509">
        <ele>325.6</ele>
        <time>2020-03-04T07:58:24Z</time>
      </trkpt>
      <trkpt lat="46.9033" lon="5.75084">
        <ele>325.4</ele>
        <time>2020-03-04T07:58:25Z</time>
      </trkpt>
      <trkpt lat="46.90333" lon="5.75077">
        <ele>325.4</ele>
        <time>2020-03-04T07:58:26Z</time>
      </trkpt>
      <trkpt lat="46.90337" lon="5.75071">
        <ele>325.2</ele>
        <time>2020-03-04T07:58:27Z</time>
      </trkpt>
      <trkpt lat="46.9034" lon="5.75065">
        <ele>325</ele>
        <time>2020-03-04T07:58:28Z</time>
      </trkpt>
      <trkpt lat="46.90343" lon="5.75059">
        <ele>325</ele>
        <time>2020-03-04T07:58:29Z</time>
      </trkpt>
      <trkpt lat="46.90346" lon="5.75053">
        <ele>325</ele>
        <time>2020-03-04T07:58:30Z</time>
      </trkpt>
      <trkpt lat="46.90349" lon="5.75047">
        <ele>325</ele>
        <time>2020-03-04T07:58:31Z</time>
      </trkpt>
      <trkpt lat="46.90351" lon="5.7504">
        <ele>325</ele>
        <time>2020-03-04T07:58:32Z</time>
      </trkpt>
      <trkpt lat="46.90354" lon="5.75034">
        <ele>324.8</ele>
        <time>2020-03-04T07:58:33Z</time>
      </trkpt>
      <trkpt lat="46.90356" lon="5.75027">
        <ele>324.8</ele>
        <time>2020-03-04T07:58:34Z</time>
      </trkpt>
      <trkpt lat="46.90358" lon="5.7502">
        <ele>324.8</ele>
        <time>2020-03-04T07:58:35Z</time>
      </trkpt>
      <trkpt lat="46.9036" lon="5.75012">
        <ele>324.8</ele>
        <time>2020-03-04T07:58:36Z</time>
      </trkpt>
      <trkpt lat="46.90362" lon="5.75004">
        <ele>324.6</ele>
        <time>2020-03-04T07:58:37Z</time>
      </trkpt>
      <trkpt lat="46.90363" lon="5.74997">
        <ele>324.6</ele>
        <time>2020-03-04T07:58:38Z</time>
      </trkpt>
      <trkpt lat="46.90365" lon="5.74989">
        <ele>324.6</ele>
        <time>2020-03-04T07:58:39Z</time>
      </trkpt>
      <trkpt lat="46.90366" lon="5.74981">
        <ele>324.6</ele>
        <time>2020-03-04T07:58:40Z</time>
      </trkpt>
      <trkpt lat="46.90367" lon="5.74973">
        <ele>324.6</ele>
        <time>2020-03-04T07:58:41Z</time>
      </trkpt>
      <trkpt lat="46.90368" lon="5.74966">
        <ele>324.6</ele>
        <time>2020-03-04T07:58:42Z</time>
      </trkpt>
      <trkpt lat="46.90369" lon="5.74958">
        <ele>324.6</ele>
        <time>2020-03-04T07:58:43Z</time>
      </trkpt>
      <trkpt lat="46.90369" lon="5.74951">
        <ele>324.6</ele>
        <time>2020-03-04T07:58:44Z</time>
      </trkpt>
      <trkpt lat="46.90369" lon="5.74944">
        <ele>324.8</ele>
        <time>2020-03-04T07:58:45Z</time>
      </trkpt>
      <trkpt lat="46.9037" lon="5.74937">
        <ele>324.8</ele>
        <time>2020-03-04T07:58:46Z</time>
      </trkpt>
      <trkpt lat="46.9037" lon="5.74929">
        <ele>324.8</ele>
        <time>2020-03-04T07:58:47Z</time>
      </trkpt>
      <trkpt lat="46.9037" lon="5.74921">
        <ele>324.8</ele>
        <time>2020-03-04T07:58:48Z</time>
      </trkpt>
      <trkpt lat="46.9037" lon="5.74914">
        <ele>324.8</ele>
        <time>2020-03-04T07:58:49Z</time>
      </trkpt>
      <trkpt lat="46.90371" lon="5.74906">
        <ele>325</ele>
        <time>2020-03-04T07:58:50Z</time>
      </trkpt>
      <trkpt lat="46.90371" lon="5.74899">
        <ele>325</ele>
        <time>2020-03-04T07:58:51Z</time>
      </trkpt>
      <trkpt lat="46.90371" lon="5.74891">
        <ele>325</ele>
        <time>2020-03-04T07:58:52Z</time>
      </trkpt>
      <trkpt lat="46.9037" lon="5.74884">
        <ele>325</ele>
        <time>2020-03-04T07:58:53Z</time>
      </trkpt>
      <trkpt lat="46.9037" lon="5.74876">
        <ele>325</ele>
        <time>2020-03-04T07:58:54Z</time>
      </trkpt>
      <trkpt lat="46.90369" lon="5.74869">
        <ele>325</ele>
        <time>2020-03-04T07:58:55Z</time>
      </trkpt>
      <trkpt lat="46.90368" lon="5.74863">
        <ele>325</ele>
        <time>2020-03-04T07:58:56Z</time>
      </trkpt>
      <trkpt lat="46.90367" lon="5.74856">
        <ele>325</ele>
        <time>2020-03-04T07:58:57Z</time>
      </trkpt>
      <trkpt lat="46.90365" lon="5.7485">
        <ele>325</ele>
        <time>2020-03-04T07:58:58Z</time>
      </trkpt>
      <trkpt lat="46.90364" lon="5.74843">
        <ele>325</ele>
        <time>2020-03-04T07:58:59Z</time>
      </trkpt>
      <trkpt lat="46.90363" lon="5.74836">
        <ele>325</ele>
        <time>2020-03-04T07:59:00Z</time>
      </trkpt>
      <trkpt lat="46.90362" lon="5.74829">
        <ele>325</ele>
        <time>2020-03-04T07:59:01Z</time>
      </trkpt>
      <trkpt lat="46.90362" lon="5.74821">
        <ele>325</ele>
        <time>2020-03-04T07:59:02Z</time>
      </trkpt>
      <trkpt lat="46.90361" lon="5.74813">
        <ele>324.8</ele>
        <time>2020-03-04T07:59:03Z</time>
      </trkpt>
      <trkpt lat="46.9036" lon="5.74805">
        <ele>324.8</ele>
        <time>2020-03-04T07:59:04Z</time>
      </trkpt>
      <trkpt lat="46.90359" lon="5.74797">
        <ele>324.8</ele>
        <time>2020-03-04T07:59:05Z</time>
      </trkpt>
      <trkpt lat="46.90358" lon="5.74788">
        <ele>324.4</ele>
        <time>2020-03-04T07:59:06Z</time>
      </trkpt>
      <trkpt lat="46.90356" lon="5.7478">
        <ele>324.4</ele>
        <time>2020-03-04T07:59:07Z</time>
      </trkpt>
      <trkpt lat="46.90355" lon="5.74772">
        <ele>324.4</ele>
        <time>2020-03-04T07:59:08Z</time>
      </trkpt>
      <trkpt lat="46.90353" lon="5.74764">
        <ele>324.4</ele>
        <time>2020-03-04T07:59:09Z</time>
      </trkpt>
      <trkpt lat="46.90352" lon="5.74756">
        <ele>324.4</ele>
        <time>2020-03-04T07:59:10Z</time>
      </trkpt>
      <trkpt lat="46.9035" lon="5.74748">
        <ele>324.4</ele>
        <time>2020-03-04T07:59:11Z</time>
      </trkpt>
      <trkpt lat="46.90348" lon="5.7474">
        <ele>324.2</ele>
        <time>2020-03-04T07:59:12Z</time>
      </trkpt>
      <trkpt lat="46.90347" lon="5.74733">
        <ele>324.2</ele>
        <time>2020-03-04T07:59:13Z</time>
      </trkpt>
      <trkpt lat="46.90345" lon="5.74725">
        <ele>324.2</ele>
        <time>2020-03-04T07:59:14Z</time>
      </trkpt>
      <trkpt lat="46.90344" lon="5.74717">
        <ele>324.2</ele>
        <time>2020-03-04T07:59:15Z</time>
      </trkpt>
      <trkpt lat="46.90343" lon="5.74709">
        <ele>324.2</ele>
        <time>2020-03-04T07:59:16Z</time>
      </trkpt>
      <trkpt lat="46.90343" lon="5.74701">
        <ele>324.2</ele>
        <time>2020-03-04T07:59:17Z</time>
      </trkpt>
      <trkpt lat="46.90342" lon="5.74693">
        <ele>324.2</ele>
        <time>2020-03-04T07:59:18Z</time>
      </trkpt>
      <trkpt lat="46.90342" lon="5.74685">
        <ele>324.2</ele>
        <time>2020-03-04T07:59:19Z</time>
      </trkpt>
      <trkpt lat="46.90342" lon="5.74678">
        <ele>324</ele>
        <time>2020-03-04T07:59:20Z</time>
      </trkpt>
      <trkpt lat="46.90341" lon="5.7467">
        <ele>324</ele>
        <time>2020-03-04T07:59:21Z</time>
      </trkpt>
      <trkpt lat="46.90341" lon="5.74662">
        <ele>324</ele>
        <time>2020-03-04T07:59:22Z</time>
      </trkpt>
      <trkpt lat="46.9034" lon="5.74654">
        <ele>324</ele>
        <time>2020-03-04T07:59:23Z</time>
      </trkpt>
      <trkpt lat="46.90338" lon="5.74647">
        <ele>324</ele>
        <time>2020-03-04T07:59:24Z</time>
      </trkpt>
      <trkpt lat="46.90337" lon="5.7464">
        <ele>324</ele>
        <time>2020-03-04T07:59:25Z</time>
      </trkpt>
      <trkpt lat="46.90335" lon="5.74632">
        <ele>324</ele>
        <time>2020-03-04T07:59:26Z</time>
      </trkpt>
      <trkpt lat="46.90334" lon="5.74625">
        <ele>324</ele>
        <time>2020-03-04T07:59:27Z</time>
      </trkpt>
      <trkpt lat="46.90332" lon="5.74618">
        <ele>324</ele>
        <time>2020-03-04T07:59:28Z</time>
      </trkpt>
      <trkpt lat="46.90331" lon="5.74612">
        <ele>324</ele>
        <time>2020-03-04T07:59:29Z</time>
      </trkpt>
      <trkpt lat="46.90329" lon="5.74605">
        <ele>324</ele>
        <time>2020-03-04T07:59:30Z</time>
      </trkpt>
      <trkpt lat="46.90328" lon="5.74598">
        <ele>324</ele>
        <time>2020-03-04T07:59:31Z</time>
      </trkpt>
      <trkpt lat="46.90326" lon="5.74592">
        <ele>324</ele>
        <time>2020-03-04T07:59:32Z</time>
      </trkpt>
      <trkpt lat="46.90325" lon="5.74586">
        <ele>324</ele>
        <time>2020-03-04T07:59:33Z</time>
      </trkpt>
      <trkpt lat="46.90324" lon="5.7458">
        <ele>324</ele>
        <time>2020-03-04T07:59:34Z</time>
      </trkpt>
      <trkpt lat="46.90322" lon="5.74573">
        <ele>324</ele>
        <time>2020-03-04T07:59:35Z</time>
      </trkpt>
      <trkpt lat="46.90321" lon="5.74566">
        <ele>324</ele>
        <time>2020-03-04T07:59:36Z</time>
      </trkpt>
      <trkpt lat="46.9032" lon="5.7456">
        <ele>324</ele>
        <time>2020-03-04T07:59:37Z</time>
      </trkpt>
      <trkpt lat="46.90318" lon="5.74554">
        <ele>324</ele>
        <time>2020-03-04T07:59:38Z</time>
      </trkpt>
      <trkpt lat="46.90317" lon="5.74547">
        <ele>324</ele>
        <time>2020-03-04T07:59:39Z</time>
      </trkpt>
      <trkpt lat="46.90316" lon="5.7454">
        <ele>324.2</ele>
        <time>2020-03-04T07:59:40Z</time>
      </trkpt>
      <trkpt lat="46.90315" lon="5.74534">
        <ele>324.2</ele>
        <time>2020-03-04T07:59:41Z</time>
      </trkpt>
      <trkpt lat="46.90313" lon="5.74527">
        <ele>324.2</ele>
        <time>2020-03-04T07:59:42Z</time>
      </trkpt>
      <trkpt lat="46.90312" lon="5.74521">
        <ele>324.2</ele>
        <time>2020-03-04T07:59:43Z</time>
      </trkpt>
      <trkpt lat="46.90311" lon="5.74514">
        <ele>324.2</ele>
        <time>2020-03-04T07:59:44Z</time>
      </trkpt>
      <trkpt lat="46.9031" lon="5.74508">
        <ele>324.2</ele>
        <time>2020-03-04T07:59:45Z</time>
      </trkpt>
      <trkpt lat="46.90308" lon="5.74501">
        <ele>324.2</ele>
        <time>2020-03-04T07:59:46Z</time>
      </trkpt>
      <trkpt lat="46.90307" lon="5.74495">
        <ele>324</ele>
        <time>2020-03-04T07:59:47Z</time>
      </trkpt>
      <trkpt lat="46.90306" lon="5.74488">
        <ele>324</ele>
        <time>2020-03-04T07:59:48Z</time>
      </trkpt>
      <trkpt lat="46.90304" lon="5.74482">
        <ele>324</ele>
        <time>2020-03-04T07:59:49Z</time>
      </trkpt>
      <trkpt lat="46.90303" lon="5.74476">
        <ele>324</ele>
        <time>2020-03-04T07:59:50Z</time>
      </trkpt>
      <trkpt lat="46.90301" lon="5.74469">
        <ele>324</ele>
        <time>2020-03-04T07:59:51Z</time>
      </trkpt>
      <trkpt lat="46.903" lon="5.74463">
        <ele>324</ele>
        <time>2020-03-04T07:59:52Z</time>
      </trkpt>
      <trkpt lat="46.90299" lon="5.74457">
        <ele>324</ele>
        <time>2020-03-04T07:59:53Z</time>
      </trkpt>
      <trkpt lat="46.90297" lon="5.74451">
        <ele>324</ele>
        <time>2020-03-04T07:59:54Z</time>
      </trkpt>
      <trkpt lat="46.90296" lon="5.74445">
        <ele>324</ele>
        <time>2020-03-04T07:59:55Z</time>
      </trkpt>
      <trkpt lat="46.90294" lon="5.74439">
        <ele>324</ele>
        <time>2020-03-04T07:59:56Z</time>
      </trkpt>
      <trkpt lat="46.90292" lon="5.74434">
        <ele>324</ele>
        <time>2020-03-04T07:59:57Z</time>
      </trkpt>
      <trkpt lat="46.90291" lon="5.74428">
        <ele>324</ele>
        <time>2020-03-04T07:59:58Z</time>
      </trkpt>
      <trkpt lat="46.90289" lon="5.74423">
        <ele>324</ele>
        <time>2020-03-04T07:59:59Z</time>
      </trkpt>
      <trkpt lat="46.90287" lon="5.74417">
        <ele>324</ele>
        <time>2020-03-04T08:00:00Z</time>
      </trkpt>
      <trkpt lat="46.90285" lon="5.74411">
        <ele>324</ele>
        <time>2020-03-04T08:00:01Z</time>
      </trkpt>
      <trkpt lat="46.90283" lon="5.74405">
        <ele>324</ele>
        <time>2020-03-04T08:00:02Z</time>
      </trkpt>
      <trkpt lat="46.90281" lon="5.744">
        <ele>324</ele>
        <time>2020-03-04T08:00:03Z</time>
      </trkpt>
      <trkpt lat="46.90278" lon="5.74394">
        <ele>324</ele>
        <time>2020-03-04T08:00:04Z</time>
      </trkpt>
      <trkpt lat="46.90276" lon="5.74389">
        <ele>324</ele>
        <time>2020-03-04T08:00:05Z</time>
      </trkpt>
      <trkpt lat="46.90274" lon="5.74383">
        <ele>324</ele>
        <time>2020-03-04T08:00:06Z</time>
      </trkpt>
      <trkpt lat="46.90272" lon="5.74377">
        <ele>324</ele>
        <time>2020-03-04T08:00:07Z</time>
      </trkpt>
      <trkpt lat="46.90271" lon="5.74372">
        <ele>324</ele>
        <time>2020-03-04T08:00:08Z</time>
      </trkpt>
      <trkpt lat="46.9027" lon="5.74366">
        <ele>324.2</ele>
        <time>2020-03-04T08:00:09Z</time>
      </trkpt>
      <trkpt lat="46.90269" lon="5.74361">
        <ele>324.2</ele>
        <time>2020-03-04T08:00:10Z</time>
      </trkpt>
      <trkpt lat="46.90268" lon="5.74355">
        <ele>324.2</ele>
        <time>2020-03-04T08:00:11Z</time>
      </trkpt>
      <trkpt lat="46.90266" lon="5.74349">
        <ele>324.4</ele>
        <time>2020-03-04T08:00:12Z</time>
      </trkpt>
      <trkpt lat="46.90265" lon="5.74344">
        <ele>324.4</ele>
        <time>2020-03-04T08:00:13Z</time>
      </trkpt>
      <trkpt lat="46.90264" lon="5.74339">
        <ele>324.6</ele>
        <time>2020-03-04T08:00:14Z</time>
      </trkpt>
      <trkpt lat="46.90263" lon="5.74335">
        <ele>324.6</ele>
        <time>2020-03-04T08:00:15Z</time>
      </trkpt>
      <trkpt lat="46.90261" lon="5.7433">
        <ele>325</ele>
        <time>2020-03-04T08:00:16Z</time>
      </trkpt>
      <trkpt lat="46.9026" lon="5.74326">
        <ele>325</ele>
        <time>2020-03-04T08:00:17Z</time>
      </trkpt>
      <trkpt lat="46.90259" lon="5.74321">
        <ele>325</ele>
        <time>2020-03-04T08:00:18Z</time>
      </trkpt>
      <trkpt lat="46.90258" lon="5.74316">
        <ele>325.2</ele>
        <time>2020-03-04T08:00:19Z</time>
      </trkpt>
      <trkpt lat="46.90257" lon="5.74312">
        <ele>325.2</ele>
        <time>2020-03-04T08:00:20Z</time>
      </trkpt>
      <trkpt lat="46.90257" lon="5.74307">
        <ele>325.4</ele>
        <time>2020-03-04T08:00:21Z</time>
      </trkpt>
      <trkpt lat="46.90256" lon="5.74302">
        <ele>325.4</ele>
        <time>2020-03-04T08:00:22Z</time>
      </trkpt>
      <trkpt lat="46.90256" lon="5.74297">
        <ele>325.4</ele>
        <time>2020-03-04T08:00:23Z</time>
      </trkpt>
      <trkpt lat="46.90256" lon="5.74293">
        <ele>325.6</ele>
        <time>2020-03-04T08:00:24Z</time>
      </trkpt>
      <trkpt lat="46.90255" lon="5.74288">
        <ele>325.6</ele>
        <time>2020-03-04T08:00:25Z</time>
      </trkpt>
      <trkpt lat="46.90254" lon="5.74283">
        <ele>325.6</ele>
        <time>2020-03-04T08:00:26Z</time>
      </trkpt>
      <trkpt lat="46.90253" lon="5.74278">
        <ele>326</ele>
        <time>2020-03-04T08:00:27Z</time>
      </trkpt>
      <trkpt lat="46.90253" lon="5.74272">
        <ele>326</ele>
        <time>2020-03-04T08:00:28Z</time>
      </trkpt>
      <trkpt lat="46.90252" lon="5.74266">
        <ele>326</ele>
        <time>2020-03-04T08:00:29Z</time>
      </trkpt>
      <trkpt lat="46.90251" lon="5.74261">
        <ele>326</ele>
        <time>2020-03-04T08:00:30Z</time>
      </trkpt>
      <trkpt lat="46.9025" lon="5.74255">
        <ele>326</ele>
        <time>2020-03-04T08:00:31Z</time>
      </trkpt>
      <trkpt lat="46.9025" lon="5.7425">
        <ele>326</ele>
        <time>2020-03-04T08:00:32Z</time>
      </trkpt>
      <trkpt lat="46.90249" lon="5.74244">
        <ele>326.2</ele>
        <time>2020-03-04T08:00:33Z</time>
      </trkpt>
      <trkpt lat="46.90248" lon="5.74239">
        <ele>326.2</ele>
        <time>2020-03-04T08:00:34Z</time>
      </trkpt>
      <trkpt lat="46.90247" lon="5.74233">
        <ele>326.2</ele>
        <time>2020-03-04T08:00:35Z</time>
      </trkpt>
      <trkpt lat="46.90247" lon="5.74227">
        <ele>326.2</ele>
        <time>2020-03-04T08:00:36Z</time>
      </trkpt>
      <trkpt lat="46.90246" lon="5.74221">
        <ele>326.2</ele>
        <time>2020-03-04T08:00:37Z</time>
      </trkpt>
      <trkpt lat="46.90244" lon="5.74215">
        <ele>326.2</ele>
        <time>2020-03-04T08:00:38Z</time>
      </trkpt>
      <trkpt lat="46.90243" lon="5.74209">
        <ele>326.2</ele>
        <time>2020-03-04T08:00:39Z</time>
      </trkpt>
      <trkpt lat="46.90242" lon="5.74203">
        <ele>326.4</ele>
        <time>2020-03-04T08:00:40Z</time>
      </trkpt>
      <trkpt lat="46.90241" lon="5.74198">
        <ele>326.4</ele>
        <time>2020-03-04T08:00:41Z</time>
      </trkpt>
      <trkpt lat="46.90239" lon="5.74192">
        <ele>326.4</ele>
        <time>2020-03-04T08:00:42Z</time>
      </trkpt>
      <trkpt lat="46.90238" lon="5.74186">
        <ele>326.4</ele>
        <time>2020-03-04T08:00:43Z</time>
      </trkpt>
      <trkpt lat="46.90237" lon="5.7418">
        <ele>326.4</ele>
        <time>2020-03-04T08:00:44Z</time>
      </trkpt>
      <trkpt lat="46.90235" lon="5.74175">
        <ele>326.4</ele>
        <time>2020-03-04T08:00:45Z</time>
      </trkpt>
      <trkpt lat="46.90234" lon="5.74169">
        <ele>326.4</ele>
        <time>2020-03-04T08:00:46Z</time>
      </trkpt>
      <trkpt lat="46.90232" lon="5.74164">
        <ele>326.4</ele>
        <time>2020-03-04T08:00:47Z</time>
      </trkpt>
      <trkpt lat="46.9023" lon="5.74159">
        <ele>326.2</ele>
        <time>2020-03-04T08:00:48Z</time>
      </trkpt>
      <trkpt lat="46.90229" lon="5.74154">
        <ele>326.2</ele>
        <time>2020-03-04T08:00:49Z</time>
      </trkpt>
      <trkpt lat="46.90227" lon="5.74148">
        <ele>326.2</ele>
        <time>2020-03-04T08:00:50Z</time>
      </trkpt>
      <trkpt lat="46.90225" lon="5.74143">
        <ele>326.2</ele>
        <time>2020-03-04T08:00:51Z</time>
      </trkpt>
      <trkpt lat="46.90223" lon="5.74138">
        <ele>325.8</ele>
        <time>2020-03-04T08:00:52Z</time>
      </trkpt>
      <trkpt lat="46.90221" lon="5.74133">
        <ele>325.8</ele>
        <time>2020-03-04T08:00:53Z</time>
      </trkpt>
      <trkpt lat="46.90219" lon="5.74127">
        <ele>325.6</ele>
        <time>2020-03-04T08:00:54Z</time>
      </trkpt>
      <trkpt lat="46.90217" lon="5.74122">
        <ele>325.6</ele>
        <time>2020-03-04T08:00:55Z</time>
      </trkpt>
      <trkpt lat="46.90215" lon="5.74117">
        <ele>325.2</ele>
        <time>2020-03-04T08:00:56Z</time>
      </trkpt>
      <trkpt lat="46.90214" lon="5.74112">
        <ele>325.2</ele>
        <time>2020-03-04T08:00:57Z</time>
      </trkpt>
      <trkpt lat="46.90212" lon="5.74107">
        <ele>325</ele>
        <time>2020-03-04T08:00:58Z</time>
      </trkpt>
      <trkpt lat="46.9021" lon="5.74101">
        <ele>325</ele>
        <time>2020-03-04T08:00:59Z</time>
      </trkpt>
      <trkpt lat="46.9021" lon="5.74096">
        <ele>324.6</ele>
        <time>2020-03-04T08:01:00Z</time>
      </trkpt>
      <trkpt lat="46.9021" lon="5.74091">
        <ele>324.6</ele>
        <time>2020-03-04T08:01:01Z</time>
      </trkpt>
      <trkpt lat="46.90212" lon="5.74086">
        <ele>324.6</ele>
        <time>2020-03-04T08:01:02Z</time>
      </trkpt>
      <trkpt lat="46.90213" lon="5.74082">
        <ele>324.6</ele>
        <time>2020-03-04T08:01:03Z</time>
      </trkpt>
      <trkpt lat="46.90215" lon="5.74078">
        <ele>324.6</ele>
        <time>2020-03-04T08:01:04Z</time>
      </trkpt>
      <trkpt lat="46.90216" lon="5.74073">
        <ele>324.6</ele>
        <time>2020-03-04T08:01:05Z</time>
      </trkpt>
      <trkpt lat="46.90218" lon="5.74069">
        <ele>324.6</ele>
        <time>2020-03-04T08:01:06Z</time>
      </trkpt>
      <trkpt lat="46.90219" lon="5.74065">
        <ele>324.8</ele>
        <time>2020-03-04T08:01:07Z</time>
      </trkpt>
      <trkpt lat="46.9022" lon="5.74061">
        <ele>324.8</ele>
        <time>2020-03-04T08:01:08Z</time>
      </trkpt>
      <trkpt lat="46.90222" lon="5.74057">
        <ele>324.8</ele>
        <time>2020-03-04T08:01:09Z</time>
      </trkpt>
      <trkpt lat="46.90223" lon="5.74053">
        <ele>325.2</ele>
        <time>2020-03-04T08:01:10Z</time>
      </trkpt>
      <trkpt lat="46.90224" lon="5.74049">
        <ele>325.2</ele>
        <time>2020-03-04T08:01:11Z</time>
      </trkpt>
      <trkpt lat="46.90225" lon="5.74045">
        <ele>325.2</ele>
        <time>2020-03-04T08:01:12Z</time>
      </trkpt>
      <trkpt lat="46.90227" lon="5.7404">
        <ele>325.2</ele>
        <time>2020-03-04T08:01:13Z</time>
      </trkpt>
      <trkpt lat="46.90228" lon="5.74036">
        <ele>325.2</ele>
        <time>2020-03-04T08:01:14Z</time>
      </trkpt>
      <trkpt lat="46.90229" lon="5.74031">
        <ele>325</ele>
        <time>2020-03-04T08:01:15Z</time>
      </trkpt>
      <trkpt lat="46.90231" lon="5.74026">
        <ele>325</ele>
        <time>2020-03-04T08:01:16Z</time>
      </trkpt>
      <trkpt lat="46.90232" lon="5.74022">
        <ele>324.8</ele>
        <time>2020-03-04T08:01:17Z</time>
      </trkpt>
      <trkpt lat="46.90233" lon="5.74019">
        <ele>324.8</ele>
        <time>2020-03-04T08:01:18Z</time>
      </trkpt>
      <trkpt lat="46.90234" lon="5.74017">
        <ele>324.6</ele>
        <time>2020-03-04T08:01:19Z</time>
      </trkpt>
      <trkpt lat="46.90234" lon="5.74016">
        <ele>324.6</ele>
        <time>2020-03-04T08:01:20Z</time>
      </trkpt>
      <trkpt lat="46.90234" lon="5.74016">
        <ele>324.2</ele>
        <time>2020-03-04T08:01:21Z</time>
      </trkpt>
      <trkpt lat="46.90236" lon="5.74012">
        <ele>324</ele>
        <time>2020-03-04T08:01:59Z</time>
      </trkpt>
      <trkpt lat="46.90236" lon="5.74009">
        <ele>324</ele>
        <time>2020-03-04T08:02:00Z</time>
      </trkpt>
      <trkpt lat="46.90237" lon="5.74006">
        <ele>324</ele>
        <time>2020-03-04T08:02:01Z</time>
      </trkpt>
      <trkpt lat="46.90238" lon="5.74003">
        <ele>324</ele>
        <time>2020-03-04T08:02:02Z</time>
      </trkpt>
      <trkpt lat="46.90239" lon="5.73999">
        <ele>323.6</ele>
        <time>2020-03-04T08:02:03Z</time>
      </trkpt>
      <trkpt lat="46.9024" lon="5.73995">
        <ele>323.6</ele>
        <time>2020-03-04T08:02:04Z</time>
      </trkpt>
      <trkpt lat="46.90242" lon="5.7399">
        <ele>323.2</ele>
        <time>2020-03-04T08:02:05Z</time>
      </trkpt>
      <trkpt lat="46.90243" lon="5.73985">
        <ele>323.2</ele>
        <time>2020-03-04T08:02:06Z</time>
      </trkpt>
      <trkpt lat="46.90245" lon="5.7398">
        <ele>322.8</ele>
        <time>2020-03-04T08:02:07Z</time>
      </trkpt>
      <trkpt lat="46.90246" lon="5.73976">
        <ele>322.8</ele>
        <time>2020-03-04T08:02:08Z</time>
      </trkpt>
      <trkpt lat="46.90247" lon="5.73972">
        <ele>322.4</ele>
        <time>2020-03-04T08:02:09Z</time>
      </trkpt>
      <trkpt lat="46.90248" lon="5.73968">
        <ele>322.2</ele>
        <time>2020-03-04T08:02:10Z</time>
      </trkpt>
      <trkpt lat="46.90249" lon="5.73964">
        <ele>322</ele>
        <time>2020-03-04T08:02:11Z</time>
      </trkpt>
      <trkpt lat="46.9025" lon="5.73961">
        <ele>321.8</ele>
        <time>2020-03-04T08:02:12Z</time>
      </trkpt>
      <trkpt lat="46.90251" lon="5.73958">
        <ele>321.8</ele>
        <time>2020-03-04T08:02:13Z</time>
      </trkpt>
      <trkpt lat="46.90252" lon="5.73956">
        <ele>321.4</ele>
        <time>2020-03-04T08:02:14Z</time>
      </trkpt>
      <trkpt lat="46.90254" lon="5.73953">
        <ele>321</ele>
        <time>2020-03-04T08:02:15Z</time>
      </trkpt>
      <trkpt lat="46.90255" lon="5.73949">
        <ele>320.8</ele>
        <time>2020-03-04T08:02:16Z</time>
      </trkpt>
      <trkpt lat="46.90256" lon="5.73945">
        <ele>320.6</ele>
        <time>2020-03-04T08:02:17Z</time>
      </trkpt>
      <trkpt lat="46.90257" lon="5.73941">
        <ele>320.2</ele>
        <time>2020-03-04T08:02:18Z</time>
      </trkpt>
      <trkpt lat="46.90258" lon="5.73937">
        <ele>319.8</ele>
        <time>2020-03-04T08:02:19Z</time>
      </trkpt>
      <trkpt lat="46.90259" lon="5.73933">
        <ele>319.4</ele>
        <time>2020-03-04T08:02:20Z</time>
      </trkpt>
      <trkpt lat="46.90261" lon="5.73928">
        <ele>319</ele>
        <time>2020-03-04T08:02:21Z</time>
      </trkpt>
      <trkpt lat="46.90262" lon="5.73922">
        <ele>318.6</ele>
        <time>2020-03-04T08:02:22Z</time>
      </trkpt>
      <trkpt lat="46.90264" lon="5.73917">
        <ele>318.2</ele>
        <time>2020-03-04T08:02:23Z</time>
      </trkpt>
      <trkpt lat="46.90266" lon="5.73911">
        <ele>317.8</ele>
        <time>2020-03-04T08:02:24Z</time>
      </trkpt>
      <trkpt lat="46.90267" lon="5.73905">
        <ele>317.4</ele>
        <time>2020-03-04T08:02:25Z</time>
      </trkpt>
      <trkpt lat="46.90269" lon="5.73899">
        <ele>316.8</ele>
        <time>2020-03-04T08:02:26Z</time>
      </trkpt>
      <trkpt lat="46.90271" lon="5.73892">
        <ele>316.2</ele>
        <time>2020-03-04T08:02:27Z</time>
      </trkpt>
      <trkpt lat="46.90273" lon="5.73886">
        <ele>315.6</ele>
        <time>2020-03-04T08:02:28Z</time>
      </trkpt>
      <trkpt lat="46.90275" lon="5.7388">
        <ele>315</ele>
        <time>2020-03-04T08:02:29Z</time>
      </trkpt>
      <trkpt lat="46.90277" lon="5.73874">
        <ele>314.6</ele>
        <time>2020-03-04T08:02:30Z</time>
      </trkpt>
      <trkpt lat="46.90278" lon="5.73868">
        <ele>314</ele>
        <time>2020-03-04T08:02:31Z</time>
      </trkpt>
      <trkpt lat="46.9028" lon="5.73862">
        <ele>313.4</ele>
        <time>2020-03-04T08:02:32Z</time>
      </trkpt>
      <trkpt lat="46.90282" lon="5.73856">
        <ele>312.8</ele>
        <time>2020-03-04T08:02:33Z</time>
      </trkpt>
      <trkpt lat="46.90284" lon="5.7385">
        <ele>312.4</ele>
        <time>2020-03-04T08:02:34Z</time>
      </trkpt>
      <trkpt lat="46.90285" lon="5.73844">
        <ele>312</ele>
        <time>2020-03-04T08:02:35Z</time>
      </trkpt>
      <trkpt lat="46.90287" lon="5.73837">
        <ele>311.6</ele>
        <time>2020-03-04T08:02:36Z</time>
      </trkpt>
      <trkpt lat="46.90289" lon="5.7383">
        <ele>311</ele>
        <time>2020-03-04T08:02:37Z</time>
      </trkpt>
      <trkpt lat="46.90292" lon="5.73823">
        <ele>310.6</ele>
        <time>2020-03-04T08:02:38Z</time>
      </trkpt>
      <trkpt lat="46.90294" lon="5.73815">
        <ele>310.2</ele>
        <time>2020-03-04T08:02:39Z</time>
      </trkpt>
      <trkpt lat="46.90296" lon="5.73808">
        <ele>310</ele>
        <time>2020-03-04T08:02:40Z</time>
      </trkpt>
      <trkpt lat="46.90298" lon="5.73801">
        <ele>309.4</ele>
        <time>2020-03-04T08:02:41Z</time>
      </trkpt>
      <trkpt lat="46.903" lon="5.73793">
        <ele>309</ele>
        <time>2020-03-04T08:02:42Z</time>
      </trkpt>
      <trkpt lat="46.90303" lon="5.73786">
        <ele>308.6</ele>
        <time>2020-03-04T08:02:43Z</time>
      </trkpt>
      <trkpt lat="46.90305" lon="5.7378">
        <ele>308.4</ele>
        <time>2020-03-04T08:02:44Z</time>
      </trkpt>
      <trkpt lat="46.90306" lon="5.73773">
        <ele>308</ele>
        <time>2020-03-04T08:02:45Z</time>
      </trkpt>
      <trkpt lat="46.90308" lon="5.73767">
        <ele>307.6</ele>
        <time>2020-03-04T08:02:46Z</time>
      </trkpt>
      <trkpt lat="46.9031" lon="5.7376">
        <ele>307.4</ele>
        <time>2020-03-04T08:02:47Z</time>
      </trkpt>
      <trkpt lat="46.90312" lon="5.73754">
        <ele>307</ele>
        <time>2020-03-04T08:02:48Z</time>
      </trkpt>
      <trkpt lat="46.90314" lon="5.73748">
        <ele>306.8</ele>
        <time>2020-03-04T08:02:49Z</time>
      </trkpt>
      <trkpt lat="46.90315" lon="5.73742">
        <ele>306.4</ele>
        <time>2020-03-04T08:02:50Z</time>
      </trkpt>
      <trkpt lat="46.90317" lon="5.73737">
        <ele>306</ele>
        <time>2020-03-04T08:02:51Z</time>
      </trkpt>
      <trkpt lat="46.90319" lon="5.73731">
        <ele>305.8</ele>
        <time>2020-03-04T08:02:52Z</time>
      </trkpt>
      <trkpt lat="46.9032" lon="5.73725">
        <ele>305.6</ele>
        <time>2020-03-04T08:02:53Z</time>
      </trkpt>
      <trkpt lat="46.90322" lon="5.7372">
        <ele>305.4</ele>
        <time>2020-03-04T08:02:54Z</time>
      </trkpt>
      <trkpt lat="46.90323" lon="5.73715">
        <ele>305.2</ele>
        <time>2020-03-04T08:02:55Z</time>
      </trkpt>
      <trkpt lat="46.90325" lon="5.7371">
        <ele>304.8</ele>
        <time>2020-03-04T08:02:56Z</time>
      </trkpt>
      <trkpt lat="46.90327" lon="5.73705">
        <ele>304.6</ele>
        <time>2020-03-04T08:02:57Z</time>
      </trkpt>
      <trkpt lat="46.90328" lon="5.73699">
        <ele>304.2</ele>
        <time>2020-03-04T08:02:58Z</time>
      </trkpt>
      <trkpt lat="46.9033" lon="5.73695">
        <ele>304</ele>
        <time>2020-03-04T08:02:59Z</time>
      </trkpt>
      <trkpt lat="46.90331" lon="5.73689">
        <ele>303.8</ele>
        <time>2020-03-04T08:03:00Z</time>
      </trkpt>
      <trkpt lat="46.90332" lon="5.73684">
        <ele>303.4</ele>
        <time>2020-03-04T08:03:01Z</time>
      </trkpt>
      <trkpt lat="46.90334" lon="5.73679">
        <ele>303</ele>
        <time>2020-03-04T08:03:02Z</time>
      </trkpt>
      <trkpt lat="46.90336" lon="5.73674">
        <ele>302.8</ele>
        <time>2020-03-04T08:03:03Z</time>
      </trkpt>
      <trkpt lat="46.90337" lon="5.73668">
        <ele>302.4</ele>
        <time>2020-03-04T08:03:04Z</time>
      </trkpt>
      <trkpt lat="46.90339" lon="5.73663">
        <ele>302.2</ele>
        <time>2020-03-04T08:03:05Z</time>
      </trkpt>
      <trkpt lat="46.90341" lon="5.73657">
        <ele>301.8</ele>
        <time>2020-03-04T08:03:06Z</time>
      </trkpt>
      <trkpt lat="46.90342" lon="5.73651">
        <ele>301.4</ele>
        <time>2020-03-04T08:03:07Z</time>
      </trkpt>
      <trkpt lat="46.90345" lon="5.73645">
        <ele>301</ele>
        <time>2020-03-04T08:03:08Z</time>
      </trkpt>
      <trkpt lat="46.90347" lon="5.73639">
        <ele>300.8</ele>
        <time>2020-03-04T08:03:09Z</time>
      </trkpt>
      <trkpt lat="46.90349" lon="5.73633">
        <ele>300.4</ele>
        <time>2020-03-04T08:03:10Z</time>
      </trkpt>
      <trkpt lat="46.90351" lon="5.73626">
        <ele>300</ele>
        <time>2020-03-04T08:03:11Z</time>
      </trkpt>
      <trkpt lat="46.90353" lon="5.7362">
        <ele>299.6</ele>
        <time>2020-03-04T08:03:12Z</time>
      </trkpt>
      <trkpt lat="46.90355" lon="5.73613">
        <ele>299.2</ele>
        <time>2020-03-04T08:03:13Z</time>
      </trkpt>
      <trkpt lat="46.90357" lon="5.73605">
        <ele>298.8</ele>
        <time>2020-03-04T08:03:14Z</time>
      </trkpt>
      <trkpt lat="46.90359" lon="5.73598">
        <ele>298.4</ele>
        <time>2020-03-04T08:03:15Z</time>
      </trkpt>
      <trkpt lat="46.90361" lon="5.73591">
        <ele>298.2</ele>
        <time>2020-03-04T08:03:16Z</time>
      </trkpt>
      <trkpt lat="46.90363" lon="5.73584">
        <ele>297.6</ele>
        <time>2020-03-04T08:03:17Z</time>
      </trkpt>
      <trkpt lat="46.90366" lon="5.73576">
        <ele>297.2</ele>
        <time>2020-03-04T08:03:18Z</time>
      </trkpt>
      <trkpt lat="46.90368" lon="5.73569">
        <ele>296.8</ele>
        <time>2020-03-04T08:03:19Z</time>
      </trkpt>
      <trkpt lat="46.9037" lon="5.73562">
        <ele>296.6</ele>
        <time>2020-03-04T08:03:20Z</time>
      </trkpt>
      <trkpt lat="46.90372" lon="5.73554">
        <ele>296.4</ele>
        <time>2020-03-04T08:03:21Z</time>
      </trkpt>
      <trkpt lat="46.90374" lon="5.73547">
        <ele>296</ele>
        <time>2020-03-04T08:03:22Z</time>
      </trkpt>
      <trkpt lat="46.90376" lon="5.7354">
        <ele>295.8</ele>
        <time>2020-03-04T08:03:23Z</time>
      </trkpt>
      <trkpt lat="46.90378" lon="5.73533">
        <ele>295.6</ele>
        <time>2020-03-04T08:03:24Z</time>
      </trkpt>
      <trkpt lat="46.9038" lon="5.73526">
        <ele>295.2</ele>
        <time>2020-03-04T08:03:25Z</time>
      </trkpt>
      <trkpt lat="46.90382" lon="5.7352">
        <ele>295.2</ele>
        <time>2020-03-04T08:03:26Z</time>
      </trkpt>
      <trkpt lat="46.90384" lon="5.73513">
        <ele>295</ele>
        <time>2020-03-04T08:03:27Z</time>
      </trkpt>
      <trkpt lat="46.90386" lon="5.73507">
        <ele>295</ele>
        <time>2020-03-04T08:03:28Z</time>
      </trkpt>
      <trkpt lat="46.90388" lon="5.735">
        <ele>294.8</ele>
        <time>2020-03-04T08:03:29Z</time>
      </trkpt>
      <trkpt lat="46.9039" lon="5.73494">
        <ele>294.8</ele>
        <time>2020-03-04T08:03:30Z</time>
      </trkpt>
      <trkpt lat="46.90392" lon="5.73487">
        <ele>294.4</ele>
        <time>2020-03-04T08:03:31Z</time>
      </trkpt>
      <trkpt lat="46.90393" lon="5.73481">
        <ele>294.4</ele>
        <time>2020-03-04T08:03:32Z</time>
      </trkpt>
      <trkpt lat="46.90395" lon="5.73474">
        <ele>294</ele>
        <time>2020-03-04T08:03:33Z</time>
      </trkpt>
      <trkpt lat="46.90397" lon="5.73467">
        <ele>293.8</ele>
        <time>2020-03-04T08:03:34Z</time>
      </trkpt>
      <trkpt lat="46.90399" lon="5.7346">
        <ele>293.4</ele>
        <time>2020-03-04T08:03:35Z</time>
      </trkpt>
      <trkpt lat="46.90401" lon="5.73453">
        <ele>293.2</ele>
        <time>2020-03-04T08:03:36Z</time>
      </trkpt>
      <trkpt lat="46.90403" lon="5.73447">
        <ele>292.8</ele>
        <time>2020-03-04T08:03:37Z</time>
      </trkpt>
      <trkpt lat="46.90405" lon="5.73441">
        <ele>292.6</ele>
        <time>2020-03-04T08:03:38Z</time>
      </trkpt>
      <trkpt lat="46.90407" lon="5.73434">
        <ele>292.2</ele>
        <time>2020-03-04T08:03:39Z</time>
      </trkpt>
      <trkpt lat="46.90408" lon="5.73428">
        <ele>291.8</ele>
        <time>2020-03-04T08:03:40Z</time>
      </trkpt>
      <trkpt lat="46.90409" lon="5.73421">
        <ele>291.6</ele>
        <time>2020-03-04T08:03:41Z</time>
      </trkpt>
      <trkpt lat="46.90409" lon="5.73414">
        <ele>291.4</ele>
        <time>2020-03-04T08:03:42Z</time>
      </trkpt>
      <trkpt lat="46.90409" lon="5.73407">
        <ele>291</ele>
        <time>2020-03-04T08:03:43Z</time>
      </trkpt>
      <trkpt lat="46.90409" lon="5.734">
        <ele>290.8</ele>
        <time>2020-03-04T08:03:44Z</time>
      </trkpt>
      <trkpt lat="46.90409" lon="5.73393">
        <ele>290.6</ele>
        <time>2020-03-04T08:03:45Z</time>
      </trkpt>
      <trkpt lat="46.9041" lon="5.73386">
        <ele>290.4</ele>
        <time>2020-03-04T08:03:46Z</time>
      </trkpt>
      <trkpt lat="46.9041" lon="5.73379">
        <ele>290.4</ele>
        <time>2020-03-04T08:03:47Z</time>
      </trkpt>
      <trkpt lat="46.9041" lon="5.73372">
        <ele>290.2</ele>
        <time>2020-03-04T08:03:48Z</time>
      </trkpt>
      <trkpt lat="46.9041" lon="5.73365">
        <ele>290.2</ele>
        <time>2020-03-04T08:03:49Z</time>
      </trkpt>
      <trkpt lat="46.90409" lon="5.73359">
        <ele>290</ele>
        <time>2020-03-04T08:03:50Z</time>
      </trkpt>
      <trkpt lat="46.90409" lon="5.73352">
        <ele>290</ele>
        <time>2020-03-04T08:03:51Z</time>
      </trkpt>
      <trkpt lat="46.90408" lon="5.73345">
        <ele>289.6</ele>
        <time>2020-03-04T08:03:52Z</time>
      </trkpt>
      <trkpt lat="46.90408" lon="5.73338">
        <ele>289.6</ele>
        <time>2020-03-04T08:03:53Z</time>
      </trkpt>
      <trkpt lat="46.90407" lon="5.73331">
        <ele>289.2</ele>
        <time>2020-03-04T08:03:54Z</time>
      </trkpt>
      <trkpt lat="46.90407" lon="5.73324">
        <ele>289</ele>
        <time>2020-03-04T08:03:55Z</time>
      </trkpt>
      <trkpt lat="46.90406" lon="5.73316">
        <ele>288.8</ele>
        <time>2020-03-04T08:03:56Z</time>
      </trkpt>
      <trkpt lat="46.90405" lon="5.73309">
        <ele>288.4</ele>
        <time>2020-03-04T08:03:57Z</time>
      </trkpt>
      <trkpt lat="46.90404" lon="5.73301">
        <ele>288.2</ele>
        <time>2020-03-04T08:03:58Z</time>
      </trkpt>
      <trkpt lat="46.90403" lon="5.73293">
        <ele>288</ele>
        <time>2020-03-04T08:03:59Z</time>
      </trkpt>
      <trkpt lat="46.90402" lon="5.73285">
        <ele>288</ele>
        <time>2020-03-04T08:04:00Z</time>
      </trkpt>
      <trkpt lat="46.904" lon="5.73277">
        <ele>287.6</ele>
        <time>2020-03-04T08:04:01Z</time>
      </trkpt>
      <trkpt lat="46.90399" lon="5.73269">
        <ele>287.4</ele>
        <time>2020-03-04T08:04:02Z</time>
      </trkpt>
      <trkpt lat="46.90398" lon="5.73261">
        <ele>287.2</ele>
        <time>2020-03-04T08:04:03Z</time>
      </trkpt>
      <trkpt lat="46.90397" lon="5.73253">
        <ele>286.8</ele>
        <time>2020-03-04T08:04:04Z</time>
      </trkpt>
      <trkpt lat="46.90396" lon="5.73244">
        <ele>286.6</ele>
        <time>2020-03-04T08:04:05Z</time>
      </trkpt>
      <trkpt lat="46.90395" lon="5.73236">
        <ele>286.4</ele>
        <time>2020-03-04T08:04:06Z</time>
      </trkpt>
      <trkpt lat="46.90394" lon="5.73228">
        <ele>286</ele>
        <time>2020-03-04T08:04:07Z</time>
      </trkpt>
      <trkpt lat="46.90393" lon="5.73219">
        <ele>285.8</ele>
        <time>2020-03-04T08:04:08Z</time>
      </trkpt>
      <trkpt lat="46.90392" lon="5.73211">
        <ele>285.4</ele>
        <time>2020-03-04T08:04:09Z</time>
      </trkpt>
      <trkpt lat="46.90391" lon="5.73202">
        <ele>285.2</ele>
        <time>2020-03-04T08:04:10Z</time>
      </trkpt>
      <trkpt lat="46.90391" lon="5.73194">
        <ele>285</ele>
        <time>2020-03-04T08:04:11Z</time>
      </trkpt>
      <trkpt lat="46.90391" lon="5.73185">
        <ele>285</ele>
        <time>2020-03-04T08:04:12Z</time>
      </trkpt>
      <trkpt lat="46.90391" lon="5.73177">
        <ele>284.6</ele>
        <time>2020-03-04T08:04:13Z</time>
      </trkpt>
      <trkpt lat="46.90391" lon="5.73168">
        <ele>284.6</ele>
        <time>2020-03-04T08:04:14Z</time>
      </trkpt>
      <trkpt lat="46.90391" lon="5.73159">
        <ele>284.2</ele>
        <time>2020-03-04T08:04:15Z</time>
      </trkpt>
      <trkpt lat="46.90391" lon="5.7315">
        <ele>284</ele>
        <time>2020-03-04T08:04:16Z</time>
      </trkpt>
      <trkpt lat="46.90391" lon="5.73141">
        <ele>283.8</ele>
        <time>2020-03-04T08:04:17Z</time>
      </trkpt>
      <trkpt lat="46.90392" lon="5.73132">
        <ele>283.4</ele>
        <time>2020-03-04T08:04:18Z</time>
      </trkpt>
      <trkpt lat="46.90392" lon="5.73123">
        <ele>283.2</ele>
        <time>2020-03-04T08:04:19Z</time>
      </trkpt>
      <trkpt lat="46.90393" lon="5.73114">
        <ele>282.8</ele>
        <time>2020-03-04T08:04:20Z</time>
      </trkpt>
      <trkpt lat="46.90393" lon="5.73105">
        <ele>282.6</ele>
        <time>2020-03-04T08:04:21Z</time>
      </trkpt>
      <trkpt lat="46.90394" lon="5.73096">
        <ele>282.4</ele>
        <time>2020-03-04T08:04:22Z</time>
      </trkpt>
      <trkpt lat="46.90395" lon="5.73087">
        <ele>282</ele>
        <time>2020-03-04T08:04:23Z</time>
      </trkpt>
      <trkpt lat="46.90395" lon="5.73078">
        <ele>282</ele>
        <time>2020-03-04T08:04:24Z</time>
      </trkpt>
      <trkpt lat="46.90396" lon="5.73069">
        <ele>281.6</ele>
        <time>2020-03-04T08:04:25Z</time>
      </trkpt>
      <trkpt lat="46.90397" lon="5.7306">
        <ele>281.4</ele>
        <time>2020-03-04T08:04:26Z</time>
      </trkpt>
      <trkpt lat="46.90397" lon="5.7305">
        <ele>281.4</ele>
        <time>2020-03-04T08:04:27Z</time>
      </trkpt>
      <trkpt lat="46.90398" lon="5.73042">
        <ele>281.2</ele>
        <time>2020-03-04T08:04:28Z</time>
      </trkpt>
      <trkpt lat="46.90399" lon="5.73033">
        <ele>281.2</ele>
        <time>2020-03-04T08:04:29Z</time>
      </trkpt>
      <trkpt lat="46.904" lon="5.73024">
        <ele>280.8</ele>
        <time>2020-03-04T08:04:30Z</time>
      </trkpt>
      <trkpt lat="46.904" lon="5.73015">
        <ele>280.4</ele>
        <time>2020-03-04T08:04:31Z</time>
      </trkpt>
      <trkpt lat="46.90401" lon="5.73006">
        <ele>280.2</ele>
        <time>2020-03-04T08:04:32Z</time>
      </trkpt>
      <trkpt lat="46.90402" lon="5.72997">
        <ele>280</ele>
        <time>2020-03-04T08:04:33Z</time>
      </trkpt>
      <trkpt lat="46.90403" lon="5.72988">
        <ele>279.8</ele>
        <time>2020-03-04T08:04:34Z</time>
      </trkpt>
      <trkpt lat="46.90404" lon="5.72979">
        <ele>279.6</ele>
        <time>2020-03-04T08:04:35Z</time>
      </trkpt>
      <trkpt lat="46.90404" lon="5.7297">
        <ele>279.2</ele>
        <time>2020-03-04T08:04:36Z</time>
      </trkpt>
      <trkpt lat="46.90405" lon="5.72961">
        <ele>279.2</ele>
        <time>2020-03-04T08:04:37Z</time>
      </trkpt>
      <trkpt lat="46.90406" lon="5.72951">
        <ele>278.8</ele>
        <time>2020-03-04T08:04:38Z</time>
      </trkpt>
      <trkpt lat="46.90407" lon="5.72942">
        <ele>278.8</ele>
        <time>2020-03-04T08:04:39Z</time>
      </trkpt>
      <trkpt lat="46.90407" lon="5.72933">
        <ele>278.4</ele>
        <time>2020-03-04T08:04:40Z</time>
      </trkpt>
      <trkpt lat="46.90408" lon="5.72923">
        <ele>278.2</ele>
        <time>2020-03-04T08:04:41Z</time>
      </trkpt>
      <trkpt lat="46.90409" lon="5.72914">
        <ele>278</ele>
        <time>2020-03-04T08:04:42Z</time>
      </trkpt>
      <trkpt lat="46.9041" lon="5.72905">
        <ele>277.8</ele>
        <time>2020-03-04T08:04:43Z</time>
      </trkpt>
      <trkpt lat="46.90411" lon="5.72896">
        <ele>277.4</ele>
        <time>2020-03-04T08:04:44Z</time>
      </trkpt>
      <trkpt lat="46.90411" lon="5.72887">
        <ele>277.2</ele>
        <time>2020-03-04T08:04:45Z</time>
      </trkpt>
      <trkpt lat="46.90412" lon="5.72878">
        <ele>277</ele>
        <time>2020-03-04T08:04:46Z</time>
      </trkpt>
      <trkpt lat="46.90413" lon="5.72868">
        <ele>276.8</ele>
        <time>2020-03-04T08:04:47Z</time>
      </trkpt>
      <trkpt lat="46.90414" lon="5.72859">
        <ele>276.4</ele>
        <time>2020-03-04T08:04:48Z</time>
      </trkpt>
      <trkpt lat="46.90415" lon="5.7285">
        <ele>276.2</ele>
        <time>2020-03-04T08:04:49Z</time>
      </trkpt>
      <trkpt lat="46.90416" lon="5.7284">
        <ele>275.8</ele>
        <time>2020-03-04T08:04:50Z</time>
      </trkpt>
      <trkpt lat="46.90417" lon="5.72831">
        <ele>275.6</ele>
        <time>2020-03-04T08:04:51Z</time>
      </trkpt>
      <trkpt lat="46.90418" lon="5.72822">
        <ele>275.2</ele>
        <time>2020-03-04T08:04:52Z</time>
      </trkpt>
      <trkpt lat="46.90419" lon="5.72813">
        <ele>275</ele>
        <time>2020-03-04T08:04:53Z</time>
      </trkpt>
      <trkpt lat="46.90419" lon="5.72804">
        <ele>274.6</ele>
        <time>2020-03-04T08:04:54Z</time>
      </trkpt>
      <trkpt lat="46.9042" lon="5.72795">
        <ele>274.4</ele>
        <time>2020-03-04T08:04:55Z</time>
      </trkpt>
      <trkpt lat="46.90421" lon="5.72786">
        <ele>274.2</ele>
        <time>2020-03-04T08:04:56Z</time>
      </trkpt>
      <trkpt lat="46.90422" lon="5.72777">
        <ele>274</ele>
        <time>2020-03-04T08:04:57Z</time>
      </trkpt>
      <trkpt lat="46.90423" lon="5.72769">
        <ele>273.6</ele>
        <time>2020-03-04T08:04:58Z</time>
      </trkpt>
      <trkpt lat="46.90424" lon="5.7276">
        <ele>273.6</ele>
        <time>2020-03-04T08:04:59Z</time>
      </trkpt>
      <trkpt lat="46.90425" lon="5.72752">
        <ele>273.2</ele>
        <time>2020-03-04T08:05:00Z</time>
      </trkpt>
      <trkpt lat="46.90426" lon="5.72743">
        <ele>273.2</ele>
        <time>2020-03-04T08:05:01Z</time>
      </trkpt>
      <trkpt lat="46.90427" lon="5.72734">
        <ele>272.8</ele>
        <time>2020-03-04T08:05:02Z</time>
      </trkpt>
      <trkpt lat="46.90428" lon="5.72726">
        <ele>272.6</ele>
        <time>2020-03-04T08:05:03Z</time>
      </trkpt>
      <trkpt lat="46.90429" lon="5.72717">
        <ele>272.6</ele>
        <time>2020-03-04T08:05:04Z</time>
      </trkpt>
      <trkpt lat="46.9043" lon="5.72708">
        <ele>272.4</ele>
        <time>2020-03-04T08:05:05Z</time>
      </trkpt>
      <trkpt lat="46.90431" lon="5.72699">
        <ele>272</ele>
        <time>2020-03-04T08:05:06Z</time>
      </trkpt>
      <trkpt lat="46.90431" lon="5.72691">
        <ele>272</ele>
        <time>2020-03-04T08:05:07Z</time>
      </trkpt>
      <trkpt lat="46.90432" lon="5.72683">
        <ele>271.8</ele>
        <time>2020-03-04T08:05:08Z</time>
      </trkpt>
      <trkpt lat="46.90433" lon="5.72675">
        <ele>271.8</ele>
        <time>2020-03-04T08:05:09Z</time>
      </trkpt>
      <trkpt lat="46.90434" lon="5.72667">
        <ele>271.4</ele>
        <time>2020-03-04T08:05:10Z</time>
      </trkpt>
      <trkpt lat="46.90435" lon="5.72659">
        <ele>271.4</ele>
        <time>2020-03-04T08:05:11Z</time>
      </trkpt>
      <trkpt lat="46.90436" lon="5.72651">
        <ele>271.2</ele>
        <time>2020-03-04T08:05:12Z</time>
      </trkpt>
      <trkpt lat="46.90437" lon="5.72643">
        <ele>271.2</ele>
        <time>2020-03-04T08:05:13Z</time>
      </trkpt>
      <trkpt lat="46.90438" lon="5.72635">
        <ele>270.6</ele>
        <time>2020-03-04T08:05:14Z</time>
      </trkpt>
      <trkpt lat="46.90439" lon="5.72626">
        <ele>270.4</ele>
        <time>2020-03-04T08:05:15Z</time>
      </trkpt>
      <trkpt lat="46.9044" lon="5.72617">
        <ele>270</ele>
        <time>2020-03-04T08:05:16Z</time>
      </trkpt>
      <trkpt lat="46.90441" lon="5.72608">
        <ele>269.8</ele>
        <time>2020-03-04T08:05:17Z</time>
      </trkpt>
      <trkpt lat="46.90442" lon="5.72599">
        <ele>269.6</ele>
        <time>2020-03-04T08:05:18Z</time>
      </trkpt>
      <trkpt lat="46.90443" lon="5.72589">
        <ele>269.2</ele>
        <time>2020-03-04T08:05:19Z</time>
      </trkpt>
      <trkpt lat="46.90445" lon="5.72578">
        <ele>269</ele>
        <time>2020-03-04T08:05:20Z</time>
      </trkpt>
      <trkpt lat="46.90446" lon="5.72568">
        <ele>268.8</ele>
        <time>2020-03-04T08:05:21Z</time>
      </trkpt>
      <trkpt lat="46.90449" lon="5.72558">
        <ele>268.4</ele>
        <time>2020-03-04T08:05:22Z</time>
      </trkpt>
      <trkpt lat="46.90451" lon="5.72548">
        <ele>268.2</ele>
        <time>2020-03-04T08:05:23Z</time>
      </trkpt>
      <trkpt lat="46.90454" lon="5.72538">
        <ele>268</ele>
        <time>2020-03-04T08:05:24Z</time>
      </trkpt>
      <trkpt lat="46.90457" lon="5.72529">
        <ele>267.6</ele>
        <time>2020-03-04T08:05:25Z</time>
      </trkpt>
      <trkpt lat="46.9046" lon="5.72519">
        <ele>267.4</ele>
        <time>2020-03-04T08:05:26Z</time>
      </trkpt>
      <trkpt lat="46.90463" lon="5.7251">
        <ele>267.2</ele>
        <time>2020-03-04T08:05:27Z</time>
      </trkpt>
      <trkpt lat="46.90466" lon="5.725">
        <ele>266.8</ele>
        <time>2020-03-04T08:05:28Z</time>
      </trkpt>
      <trkpt lat="46.90469" lon="5.7249">
        <ele>266.6</ele>
        <time>2020-03-04T08:05:29Z</time>
      </trkpt>
      <trkpt lat="46.90472" lon="5.7248">
        <ele>266.4</ele>
        <time>2020-03-04T08:05:30Z</time>
      </trkpt>
      <trkpt lat="46.90475" lon="5.7247">
        <ele>266.4</ele>
        <time>2020-03-04T08:05:31Z</time>
      </trkpt>
      <trkpt lat="46.90478" lon="5.72461">
        <ele>266</ele>
        <time>2020-03-04T08:05:32Z</time>
      </trkpt>
      <trkpt lat="46.90481" lon="5.72452">
        <ele>266</ele>
        <time>2020-03-04T08:05:33Z</time>
      </trkpt>
      <trkpt lat="46.90484" lon="5.72443">
        <ele>265.8</ele>
        <time>2020-03-04T08:05:34Z</time>
      </trkpt>
      <trkpt lat="46.90487" lon="5.72435">
        <ele>265.8</ele>
        <time>2020-03-04T08:05:35Z</time>
      </trkpt>
      <trkpt lat="46.9049" lon="5.72427">
        <ele>265.4</ele>
        <time>2020-03-04T08:05:36Z</time>
      </trkpt>
      <trkpt lat="46.90493" lon="5.72419">
        <ele>265.4</ele>
        <time>2020-03-04T08:05:37Z</time>
      </trkpt>
      <trkpt lat="46.90496" lon="5.72411">
        <ele>265.4</ele>
        <time>2020-03-04T08:05:38Z</time>
      </trkpt>
      <trkpt lat="46.90498" lon="5.72402">
        <ele>265.4</ele>
        <time>2020-03-04T08:05:39Z</time>
      </trkpt>
      <trkpt lat="46.90499" lon="5.72394">
        <ele>265.2</ele>
        <time>2020-03-04T08:05:40Z</time>
      </trkpt>
      <trkpt lat="46.90501" lon="5.72387">
        <ele>265.2</ele>
        <time>2020-03-04T08:05:41Z</time>
      </trkpt>
      <trkpt lat="46.90503" lon="5.72379">
        <ele>265.2</ele>
        <time>2020-03-04T08:05:42Z</time>
      </trkpt>
      <trkpt lat="46.90505" lon="5.72372">
        <ele>265.2</ele>
        <time>2020-03-04T08:05:43Z</time>
      </trkpt>
      <trkpt lat="46.90507" lon="5.72366">
        <ele>265.2</ele>
        <time>2020-03-04T08:05:44Z</time>
      </trkpt>
      <trkpt lat="46.90509" lon="5.72359">
        <ele>265</ele>
        <time>2020-03-04T08:05:45Z</time>
      </trkpt>
      <trkpt lat="46.9051" lon="5.72354">
        <ele>265</ele>
        <time>2020-03-04T08:05:46Z</time>
      </trkpt>
      <trkpt lat="46.90512" lon="5.72349">
        <ele>265</ele>
        <time>2020-03-04T08:05:47Z</time>
      </trkpt>
      <trkpt lat="46.90513" lon="5.72343">
        <ele>265</ele>
        <time>2020-03-04T08:05:48Z</time>
      </trkpt>
      <trkpt lat="46.90514" lon="5.72337">
        <ele>264.6</ele>
        <time>2020-03-04T08:05:49Z</time>
      </trkpt>
      <trkpt lat="46.90513" lon="5.72332">
        <ele>264.6</ele>
        <time>2020-03-04T08:05:50Z</time>
      </trkpt>
      <trkpt lat="46.9051" lon="5.72326">
        <ele>264.4</ele>
        <time>2020-03-04T08:05:51Z</time>
      </trkpt>
      <trkpt lat="46.90507" lon="5.72322">
        <ele>264.4</ele>
        <time>2020-03-04T08:05:52Z</time>
      </trkpt>
      <trkpt lat="46.90504" lon="5.72318">
        <ele>264.4</ele>
        <time>2020-03-04T08:05:53Z</time>
      </trkpt>
      <trkpt lat="46.905" lon="5.72314">
        <ele>264.8</ele>
        <time>2020-03-04T08:05:54Z</time>
      </trkpt>
      <trkpt lat="46.90496" lon="5.7231">
        <ele>264.8</ele>
        <time>2020-03-04T08:05:55Z</time>
      </trkpt>
      <trkpt lat="46.90492" lon="5.72305">
        <ele>264.8</ele>
        <time>2020-03-04T08:05:56Z</time>
      </trkpt>
      <trkpt lat="46.90488" lon="5.72299">
        <ele>264.8</ele>
        <time>2020-03-04T08:05:57Z</time>
      </trkpt>
      <trkpt lat="46.90484" lon="5.72293">
        <ele>264.8</ele>
        <time>2020-03-04T08:05:58Z</time>
      </trkpt>
      <trkpt lat="46.9048" lon="5.72288">
        <ele>264.8</ele>
        <time>2020-03-04T08:05:59Z</time>
      </trkpt>
      <trkpt lat="46.90476" lon="5.72282">
        <ele>264.8</ele>
        <time>2020-03-04T08:06:00Z</time>
      </trkpt>
      <trkpt lat="46.90471" lon="5.72276">
        <ele>264.8</ele>
        <time>2020-03-04T08:06:01Z</time>
      </trkpt>
      <trkpt lat="46.90467" lon="5.7227">
        <ele>264.8</ele>
        <time>2020-03-04T08:06:02Z</time>
      </trkpt>
      <trkpt lat="46.90462" lon="5.72265">
        <ele>264.8</ele>
        <time>2020-03-04T08:06:03Z</time>
      </trkpt>
      <trkpt lat="46.90458" lon="5.7226">
        <ele>265.2</ele>
        <time>2020-03-04T08:06:04Z</time>
      </trkpt>
      <trkpt lat="46.90453" lon="5.72255">
        <ele>265.4</ele>
        <time>2020-03-04T08:06:05Z</time>
      </trkpt>
      <trkpt lat="46.90449" lon="5.7225">
        <ele>265.4</ele>
        <time>2020-03-04T08:06:06Z</time>
      </trkpt>
      <trkpt lat="46.90445" lon="5.72246">
        <ele>265.6</ele>
        <time>2020-03-04T08:06:07Z</time>
      </trkpt>
      <trkpt lat="46.90441" lon="5.72241">
        <ele>265.6</ele>
        <time>2020-03-04T08:06:08Z</time>
      </trkpt>
      <trkpt lat="46.90437" lon="5.72236">
        <ele>266</ele>
        <time>2020-03-04T08:06:09Z</time>
      </trkpt>
      <trkpt lat="46.90432" lon="5.72231">
        <ele>266</ele>
        <time>2020-03-04T08:06:10Z</time>
      </trkpt>
      <trkpt lat="46.90428" lon="5.72226">
        <ele>266</ele>
        <time>2020-03-04T08:06:11Z</time>
      </trkpt>
      <trkpt lat="46.90423" lon="5.72222">
        <ele>266.2</ele>
        <time>2020-03-04T08:06:12Z</time>
      </trkpt>
      <trkpt lat="46.90419" lon="5.72217">
        <ele>266.2</ele>
        <time>2020-03-04T08:06:13Z</time>
      </trkpt>
      <trkpt lat="46.90414" lon="5.72213">
        <ele>266.6</ele>
        <time>2020-03-04T08:06:14Z</time>
      </trkpt>
      <trkpt lat="46.9041" lon="5.72209">
        <ele>266.6</ele>
        <time>2020-03-04T08:06:15Z</time>
      </trkpt>
      <trkpt lat="46.90405" lon="5.72204">
        <ele>266.8</ele>
        <time>2020-03-04T08:06:16Z</time>
      </trkpt>
      <trkpt lat="46.90401" lon="5.72199">
        <ele>267.2</ele>
        <time>2020-03-04T08:06:17Z</time>
      </trkpt>
      <trkpt lat="46.90397" lon="5.72195">
        <ele>267.2</ele>
        <time>2020-03-04T08:06:18Z</time>
      </trkpt>
      <trkpt lat="46.90392" lon="5.7219">
        <ele>267.4</ele>
        <time>2020-03-04T08:06:19Z</time>
      </trkpt>
      <trkpt lat="46.90388" lon="5.72186">
        <ele>267.4</ele>
        <time>2020-03-04T08:06:20Z</time>
      </trkpt>
      <trkpt lat="46.90384" lon="5.72182">
        <ele>267.8</ele>
        <time>2020-03-04T08:06:21Z</time>
      </trkpt>
      <trkpt lat="46.90379" lon="5.72177">
        <ele>267.8</ele>
        <time>2020-03-04T08:06:22Z</time>
      </trkpt>
      <trkpt lat="46.90375" lon="5.72173">
        <ele>268</ele>
        <time>2020-03-04T08:06:23Z</time>
      </trkpt>
      <trkpt lat="46.90371" lon="5.72169">
        <ele>268.4</ele>
        <time>2020-03-04T08:06:24Z</time>
      </trkpt>
      <trkpt lat="46.90368" lon="5.72165">
        <ele>268.6</ele>
        <time>2020-03-04T08:06:25Z</time>
      </trkpt>
      <trkpt lat="46.90364" lon="5.72161">
        <ele>268.6</ele>
        <time>2020-03-04T08:06:26Z</time>
      </trkpt>
      <trkpt lat="46.9036" lon="5.72157">
        <ele>269</ele>
        <time>2020-03-04T08:06:27Z</time>
      </trkpt>
      <trkpt lat="46.90356" lon="5.72154">
        <ele>269.4</ele>
        <time>2020-03-04T08:06:28Z</time>
      </trkpt>
      <trkpt lat="46.90352" lon="5.7215">
        <ele>269.6</ele>
        <time>2020-03-04T08:06:29Z</time>
      </trkpt>
      <trkpt lat="46.90349" lon="5.72146">
        <ele>269.8</ele>
        <time>2020-03-04T08:06:30Z</time>
      </trkpt>
      <trkpt lat="46.90345" lon="5.72143">
        <ele>269.8</ele>
        <time>2020-03-04T08:06:31Z</time>
      </trkpt>
      <trkpt lat="46.90342" lon="5.72139">
        <ele>270.2</ele>
        <time>2020-03-04T08:06:32Z</time>
      </trkpt>
      <trkpt lat="46.90339" lon="5.72135">
        <ele>270.2</ele>
        <time>2020-03-04T08:06:33Z</time>
      </trkpt>
      <trkpt lat="46.90335" lon="5.72132">
        <ele>270.2</ele>
        <time>2020-03-04T08:06:34Z</time>
      </trkpt>
      <trkpt lat="46.90332" lon="5.72128">
        <ele>270.4</ele>
        <time>2020-03-04T08:06:35Z</time>
      </trkpt>
      <trkpt lat="46.90328" lon="5.72123">
        <ele>270.4</ele>
        <time>2020-03-04T08:06:36Z</time>
      </trkpt>
      <trkpt lat="46.90325" lon="5.72118">
        <ele>270.4</ele>
        <time>2020-03-04T08:06:37Z</time>
      </trkpt>
      <trkpt lat="46.90322" lon="5.72113">
        <ele>270.4</ele>
        <time>2020-03-04T08:06:38Z</time>
      </trkpt>
      <trkpt lat="46.90319" lon="5.72108">
        <ele>270.4</ele>
        <time>2020-03-04T08:06:39Z</time>
      </trkpt>
      <trkpt lat="46.90316" lon="5.72103">
        <ele>270.4</ele>
        <time>2020-03-04T08:06:40Z</time>
      </trkpt>
      <trkpt lat="46.90312" lon="5.72098">
        <ele>270.8</ele>
        <time>2020-03-04T08:06:41Z</time>
      </trkpt>
      <trkpt lat="46.90309" lon="5.72092">
        <ele>270.8</ele>
        <time>2020-03-04T08:06:42Z</time>
      </trkpt>
      <trkpt lat="46.90306" lon="5.72087">
        <ele>271</ele>
        <time>2020-03-04T08:06:43Z</time>
      </trkpt>
      <trkpt lat="46.90302" lon="5.72081">
        <ele>271</ele>
        <time>2020-03-04T08:06:44Z</time>
      </trkpt>
      <trkpt lat="46.90299" lon="5.72076">
        <ele>271.2</ele>
        <time>2020-03-04T08:06:45Z</time>
      </trkpt>
      <trkpt lat="46.90295" lon="5.7207">
        <ele>271.2</ele>
        <time>2020-03-04T08:06:46Z</time>
      </trkpt>
      <trkpt lat="46.90291" lon="5.72065">
        <ele>271.2</ele>
        <time>2020-03-04T08:06:47Z</time>
      </trkpt>
      <trkpt lat="46.90287" lon="5.72059">
        <ele>271.2</ele>
        <time>2020-03-04T08:06:48Z</time>
      </trkpt>
      <trkpt lat="46.90282" lon="5.72053">
        <ele>271.2</ele>
        <time>2020-03-04T08:06:49Z</time>
      </trkpt>
      <trkpt lat="46.90278" lon="5.72048">
        <ele>271.2</ele>
        <time>2020-03-04T08:06:50Z</time>
      </trkpt>
      <trkpt lat="46.90274" lon="5.72042">
        <ele>271.2</ele>
        <time>2020-03-04T08:06:51Z</time>
      </trkpt>
      <trkpt lat="46.9027" lon="5.72036">
        <ele>271.2</ele>
        <time>2020-03-04T08:06:52Z</time>
      </trkpt>
      <trkpt lat="46.90265" lon="5.7203">
        <ele>271.2</ele>
        <time>2020-03-04T08:06:53Z</time>
      </trkpt>
      <trkpt lat="46.90261" lon="5.72024">
        <ele>271.2</ele>
        <time>2020-03-04T08:06:54Z</time>
      </trkpt>
      <trkpt lat="46.90257" lon="5.72018">
        <ele>271.2</ele>
        <time>2020-03-04T08:06:55Z</time>
      </trkpt>
      <trkpt lat="46.90254" lon="5.72011">
        <ele>271.2</ele>
        <time>2020-03-04T08:06:56Z</time>
      </trkpt>
      <trkpt lat="46.9025" lon="5.72005">
        <ele>271.2</ele>
        <time>2020-03-04T08:06:57Z</time>
      </trkpt>
      <trkpt lat="46.90246" lon="5.71998">
        <ele>271.2</ele>
        <time>2020-03-04T08:06:58Z</time>
      </trkpt>
      <trkpt lat="46.90243" lon="5.71991">
        <ele>271.2</ele>
        <time>2020-03-04T08:06:59Z</time>
      </trkpt>
      <trkpt lat="46.90239" lon="5.71984">
        <ele>271.2</ele>
        <time>2020-03-04T08:07:00Z</time>
      </trkpt>
      <trkpt lat="46.90236" lon="5.71977">
        <ele>271.2</ele>
        <time>2020-03-04T08:07:01Z</time>
      </trkpt>
      <trkpt lat="46.90233" lon="5.71971">
        <ele>271.2</ele>
        <time>2020-03-04T08:07:02Z</time>
      </trkpt>
      <trkpt lat="46.90231" lon="5.71964">
        <ele>271.2</ele>
        <time>2020-03-04T08:07:03Z</time>
      </trkpt>
      <trkpt lat="46.90228" lon="5.71957">
        <ele>271.4</ele>
        <time>2020-03-04T08:07:04Z</time>
      </trkpt>
      <trkpt lat="46.90226" lon="5.7195">
        <ele>271.4</ele>
        <time>2020-03-04T08:07:05Z</time>
      </trkpt>
      <trkpt lat="46.90225" lon="5.71942">
        <ele>271.4</ele>
        <time>2020-03-04T08:07:06Z</time>
      </trkpt>
      <trkpt lat="46.90223" lon="5.71936">
        <ele>271.6</ele>
        <time>2020-03-04T08:07:07Z</time>
      </trkpt>
      <trkpt lat="46.90221" lon="5.71929">
        <ele>271.6</ele>
        <time>2020-03-04T08:07:08Z</time>
      </trkpt>
      <trkpt lat="46.90219" lon="5.71922">
        <ele>272</ele>
        <time>2020-03-04T08:07:09Z</time>
      </trkpt>
      <trkpt lat="46.90216" lon="5.71916">
        <ele>272</ele>
        <time>2020-03-04T08:07:10Z</time>
      </trkpt>
      <trkpt lat="46.90213" lon="5.7191">
        <ele>272</ele>
        <time>2020-03-04T08:07:11Z</time>
      </trkpt>
      <trkpt lat="46.9021" lon="5.71904">
        <ele>272</ele>
        <time>2020-03-04T08:07:12Z</time>
      </trkpt>
      <trkpt lat="46.90207" lon="5.71899">
        <ele>272</ele>
        <time>2020-03-04T08:07:13Z</time>
      </trkpt>
      <trkpt lat="46.90203" lon="5.71894">
        <ele>272.2</ele>
        <time>2020-03-04T08:07:14Z</time>
      </trkpt>
      <trkpt lat="46.90199" lon="5.71889">
        <ele>272.2</ele>
        <time>2020-03-04T08:07:15Z</time>
      </trkpt>
      <trkpt lat="46.90195" lon="5.71883">
        <ele>272.2</ele>
        <time>2020-03-04T08:07:16Z</time>
      </trkpt>
      <trkpt lat="46.90191" lon="5.71878">
        <ele>272.6</ele>
        <time>2020-03-04T08:07:17Z</time>
      </trkpt>
      <trkpt lat="46.90187" lon="5.71873">
        <ele>272.6</ele>
        <time>2020-03-04T08:07:18Z</time>
      </trkpt>
      <trkpt lat="46.90183" lon="5.71868">
        <ele>272.2</ele>
        <time>2020-03-04T08:07:19Z</time>
      </trkpt>
      <trkpt lat="46.90179" lon="5.71861">
        <ele>272</ele>
        <time>2020-03-04T08:07:20Z</time>
      </trkpt>
      <trkpt lat="46.90175" lon="5.71854">
        <ele>271.6</ele>
        <time>2020-03-04T08:07:21Z</time>
      </trkpt>
      <trkpt lat="46.90172" lon="5.71845">
        <ele>271.4</ele>
        <time>2020-03-04T08:07:22Z</time>
      </trkpt>
      <trkpt lat="46.9017" lon="5.71836">
        <ele>271</ele>
        <time>2020-03-04T08:07:23Z</time>
      </trkpt>
      <trkpt lat="46.90168" lon="5.71826">
        <ele>270.8</ele>
        <time>2020-03-04T08:07:24Z</time>
      </trkpt>
      <trkpt lat="46.90167" lon="5.71815">
        <ele>270.4</ele>
        <time>2020-03-04T08:07:25Z</time>
      </trkpt>
      <trkpt lat="46.90167" lon="5.71805">
        <ele>270</ele>
        <time>2020-03-04T08:07:26Z</time>
      </trkpt>
      <trkpt lat="46.90168" lon="5.71794">
        <ele>269.8</ele>
        <time>2020-03-04T08:07:27Z</time>
      </trkpt>
      <trkpt lat="46.90169" lon="5.71783">
        <ele>269.6</ele>
        <time>2020-03-04T08:07:28Z</time>
      </trkpt>
      <trkpt lat="46.90171" lon="5.71771">
        <ele>269.2</ele>
        <time>2020-03-04T08:07:29Z</time>
      </trkpt>
      <trkpt lat="46.90172" lon="5.7176">
        <ele>268.6</ele>
        <time>2020-03-04T08:07:30Z</time>
      </trkpt>
      <trkpt lat="46.90174" lon="5.71748">
        <ele>268.2</ele>
        <time>2020-03-04T08:07:31Z</time>
      </trkpt>
      <trkpt lat="46.90175" lon="5.71736">
        <ele>267.8</ele>
        <time>2020-03-04T08:07:32Z</time>
      </trkpt>
      <trkpt lat="46.90175" lon="5.71723">
        <ele>267.4</ele>
        <time>2020-03-04T08:07:33Z</time>
      </trkpt>
      <trkpt lat="46.90175" lon="5.71711">
        <ele>267</ele>
        <time>2020-03-04T08:07:34Z</time>
      </trkpt>
      <trkpt lat="46.90174" lon="5.71699">
        <ele>266.8</ele>
        <time>2020-03-04T08:07:35Z</time>
      </trkpt>
      <trkpt lat="46.90172" lon="5.71687">
        <ele>266.8</ele>
        <time>2020-03-04T08:07:36Z</time>
      </trkpt>
      <trkpt lat="46.90169" lon="5.71676">
        <ele>266.6</ele>
        <time>2020-03-04T08:07:37Z</time>
      </trkpt>
      <trkpt lat="46.90165" lon="5.71666">
        <ele>266.6</ele>
        <time>2020-03-04T08:07:38Z</time>
      </trkpt>
      <trkpt lat="46.90161" lon="5.71656">
        <ele>266.6</ele>
        <time>2020-03-04T08:07:39Z</time>
      </trkpt>
      <trkpt lat="46.90157" lon="5.71647">
        <ele>266.6</ele>
        <time>2020-03-04T08:07:40Z</time>
      </trkpt>
      <trkpt lat="46.90152" lon="5.71637">
        <ele>266.6</ele>
        <time>2020-03-04T08:07:41Z</time>
      </trkpt>
      <trkpt lat="46.90148" lon="5.71629">
        <ele>266.6</ele>
        <time>2020-03-04T08:07:42Z</time>
      </trkpt>
      <trkpt lat="46.90144" lon="5.7162">
        <ele>266.6</ele>
        <time>2020-03-04T08:07:43Z</time>
      </trkpt>
      <trkpt lat="46.9014" lon="5.71611">
        <ele>266.8</ele>
        <time>2020-03-04T08:07:44Z</time>
      </trkpt>
      <trkpt lat="46.90137" lon="5.71603">
        <ele>266.8</ele>
        <time>2020-03-04T08:07:45Z</time>
      </trkpt>
      <trkpt lat="46.90133" lon="5.71595">
        <ele>267.2</ele>
        <time>2020-03-04T08:07:46Z</time>
      </trkpt>
      <trkpt lat="46.9013" lon="5.71587">
        <ele>267.4</ele>
        <time>2020-03-04T08:07:47Z</time>
      </trkpt>
      <trkpt lat="46.90127" lon="5.7158">
        <ele>267.8</ele>
        <time>2020-03-04T08:07:48Z</time>
      </trkpt>
      <trkpt lat="46.90124" lon="5.71573">
        <ele>268.2</ele>
        <time>2020-03-04T08:07:49Z</time>
      </trkpt>
      <trkpt lat="46.90121" lon="5.71566">
        <ele>268.4</ele>
        <time>2020-03-04T08:07:50Z</time>
      </trkpt>
      <trkpt lat="46.90118" lon="5.7156">
        <ele>268.8</ele>
        <time>2020-03-04T08:07:51Z</time>
      </trkpt>
      <trkpt lat="46.90115" lon="5.71554">
        <ele>269.2</ele>
        <time>2020-03-04T08:07:52Z</time>
      </trkpt>
      <trkpt lat="46.90113" lon="5.71548">
        <ele>269.6</ele>
        <time>2020-03-04T08:07:53Z</time>
      </trkpt>
      <trkpt lat="46.9011" lon="5.71542">
        <ele>269.6</ele>
        <time>2020-03-04T08:07:54Z</time>
      </trkpt>
      <trkpt lat="46.90107" lon="5.71536">
        <ele>270</ele>
        <time>2020-03-04T08:07:55Z</time>
      </trkpt>
      <trkpt lat="46.90104" lon="5.7153">
        <ele>270.2</ele>
        <time>2020-03-04T08:07:56Z</time>
      </trkpt>
      <trkpt lat="46.90102" lon="5.71524">
        <ele>270.4</ele>
        <time>2020-03-04T08:07:57Z</time>
      </trkpt>
      <trkpt lat="46.90099" lon="5.71518">
        <ele>270.6</ele>
        <time>2020-03-04T08:07:58Z</time>
      </trkpt>
      <trkpt lat="46.90096" lon="5.71512">
        <ele>270.6</ele>
        <time>2020-03-04T08:07:59Z</time>
      </trkpt>
      <trkpt lat="46.90094" lon="5.71505">
        <ele>271</ele>
        <time>2020-03-04T08:08:00Z</time>
      </trkpt>
      <trkpt lat="46.90091" lon="5.71499">
        <ele>271</ele>
        <time>2020-03-04T08:08:01Z</time>
      </trkpt>
      <trkpt lat="46.90089" lon="5.71492">
        <ele>271.2</ele>
        <time>2020-03-04T08:08:02Z</time>
      </trkpt>
      <trkpt lat="46.90086" lon="5.71486">
        <ele>271.2</ele>
        <time>2020-03-04T08:08:03Z</time>
      </trkpt>
      <trkpt lat="46.90084" lon="5.71479">
        <ele>271.2</ele>
        <time>2020-03-04T08:08:04Z</time>
      </trkpt>
      <trkpt lat="46.90081" lon="5.71473">
        <ele>271.6</ele>
        <time>2020-03-04T08:08:05Z</time>
      </trkpt>
      <trkpt lat="46.90078" lon="5.71466">
        <ele>271.6</ele>
        <time>2020-03-04T08:08:06Z</time>
      </trkpt>
      <trkpt lat="46.90075" lon="5.7146">
        <ele>271.8</ele>
        <time>2020-03-04T08:08:07Z</time>
      </trkpt>
      <trkpt lat="46.90072" lon="5.71453">
        <ele>271.8</ele>
        <time>2020-03-04T08:08:08Z</time>
      </trkpt>
      <trkpt lat="46.90069" lon="5.71447">
        <ele>271.8</ele>
        <time>2020-03-04T08:08:09Z</time>
      </trkpt>
      <trkpt lat="46.90066" lon="5.71441">
        <ele>271.8</ele>
        <time>2020-03-04T08:08:10Z</time>
      </trkpt>
      <trkpt lat="46.90062" lon="5.71435">
        <ele>271.8</ele>
        <time>2020-03-04T08:08:11Z</time>
      </trkpt>
      <trkpt lat="46.90058" lon="5.71428">
        <ele>271.8</ele>
        <time>2020-03-04T08:08:12Z</time>
      </trkpt>
      <trkpt lat="46.90055" lon="5.71422">
        <ele>271.8</ele>
        <time>2020-03-04T08:08:13Z</time>
      </trkpt>
      <trkpt lat="46.90051" lon="5.71416">
        <ele>271.8</ele>
        <time>2020-03-04T08:08:14Z</time>
      </trkpt>
      <trkpt lat="46.90048" lon="5.7141">
        <ele>272</ele>
        <time>2020-03-04T08:08:15Z</time>
      </trkpt>
      <trkpt lat="46.90045" lon="5.71403">
        <ele>272</ele>
        <time>2020-03-04T08:08:16Z</time>
      </trkpt>
      <trkpt lat="46.90041" lon="5.71397">
        <ele>272</ele>
        <time>2020-03-04T08:08:17Z</time>
      </trkpt>
      <trkpt lat="46.90038" lon="5.71391">
        <ele>272</ele>
        <time>2020-03-04T08:08:18Z</time>
      </trkpt>
      <trkpt lat="46.90035" lon="5.71384">
        <ele>272.4</ele>
        <time>2020-03-04T08:08:19Z</time>
      </trkpt>
      <trkpt lat="46.90033" lon="5.71378">
        <ele>272.4</ele>
        <time>2020-03-04T08:08:20Z</time>
      </trkpt>
      <trkpt lat="46.9003" lon="5.71372">
        <ele>272.4</ele>
        <time>2020-03-04T08:08:21Z</time>
      </trkpt>
      <trkpt lat="46.90027" lon="5.71365">
        <ele>272.6</ele>
        <time>2020-03-04T08:08:22Z</time>
      </trkpt>
      <trkpt lat="46.90024" lon="5.71358">
        <ele>272.6</ele>
        <time>2020-03-04T08:08:23Z</time>
      </trkpt>
      <trkpt lat="46.90022" lon="5.71352">
        <ele>273</ele>
        <time>2020-03-04T08:08:24Z</time>
      </trkpt>
      <trkpt lat="46.90019" lon="5.71346">
        <ele>273</ele>
        <time>2020-03-04T08:08:25Z</time>
      </trkpt>
      <trkpt lat="46.90016" lon="5.7134">
        <ele>273.4</ele>
        <time>2020-03-04T08:08:26Z</time>
      </trkpt>
      <trkpt lat="46.90014" lon="5.71334">
        <ele>273.4</ele>
        <time>2020-03-04T08:08:27Z</time>
      </trkpt>
      <trkpt lat="46.90012" lon="5.71327">
        <ele>273.4</ele>
        <time>2020-03-04T08:08:28Z</time>
      </trkpt>
      <trkpt lat="46.9001" lon="5.71321">
        <ele>273.8</ele>
        <time>2020-03-04T08:08:29Z</time>
      </trkpt>
      <trkpt lat="46.90008" lon="5.71315">
        <ele>273.8</ele>
        <time>2020-03-04T08:08:30Z</time>
      </trkpt>
      <trkpt lat="46.90005" lon="5.71309">
        <ele>274</ele>
        <time>2020-03-04T08:08:31Z</time>
      </trkpt>
      <trkpt lat="46.90003" lon="5.71303">
        <ele>274</ele>
        <time>2020-03-04T08:08:32Z</time>
      </trkpt>
      <trkpt lat="46.9" lon="5.71297">
        <ele>274</ele>
        <time>2020-03-04T08:08:33Z</time>
      </trkpt>
      <trkpt lat="46.89998" lon="5.71291">
        <ele>274.2</ele>
        <time>2020-03-04T08:08:34Z</time>
      </trkpt>
      <trkpt lat="46.89996" lon="5.71285">
        <ele>274.2</ele>
        <time>2020-03-04T08:08:35Z</time>
      </trkpt>
      <trkpt lat="46.89993" lon="5.71279">
        <ele>274.2</ele>
        <time>2020-03-04T08:08:36Z</time>
      </trkpt>
      <trkpt lat="46.89991" lon="5.71273">
        <ele>274.2</ele>
        <time>2020-03-04T08:08:37Z</time>
      </trkpt>
      <trkpt lat="46.89989" lon="5.71267">
        <ele>274.2</ele>
        <time>2020-03-04T08:08:38Z</time>
      </trkpt>
      <trkpt lat="46.89986" lon="5.71261">
        <ele>274.6</ele>
        <time>2020-03-04T08:08:39Z</time>
      </trkpt>
      <trkpt lat="46.89984" lon="5.71255">
        <ele>274.6</ele>
        <time>2020-03-04T08:08:40Z</time>
      </trkpt>
      <trkpt lat="46.89981" lon="5.71249">
        <ele>274.8</ele>
        <time>2020-03-04T08:08:41Z</time>
      </trkpt>
      <trkpt lat="46.89979" lon="5.71243">
        <ele>274.8</ele>
        <time>2020-03-04T08:08:42Z</time>
      </trkpt>
      <trkpt lat="46.89977" lon="5.71237">
        <ele>274.8</ele>
        <time>2020-03-04T08:08:43Z</time>
      </trkpt>
      <trkpt lat="46.89974" lon="5.71231">
        <ele>275</ele>
        <time>2020-03-04T08:08:44Z</time>
      </trkpt>
      <trkpt lat="46.89972" lon="5.71225">
        <ele>275</ele>
        <time>2020-03-04T08:08:45Z</time>
      </trkpt>
      <trkpt lat="46.89969" lon="5.71218">
        <ele>275</ele>
        <time>2020-03-04T08:08:46Z</time>
      </trkpt>
      <trkpt lat="46.89967" lon="5.71211">
        <ele>275</ele>
        <time>2020-03-04T08:08:47Z</time>
      </trkpt>
      <trkpt lat="46.89965" lon="5.71205">
        <ele>275</ele>
        <time>2020-03-04T08:08:48Z</time>
      </trkpt>
      <trkpt lat="46.89963" lon="5.71198">
        <ele>275</ele>
        <time>2020-03-04T08:08:49Z</time>
      </trkpt>
      <trkpt lat="46.89961" lon="5.71191">
        <ele>275</ele>
        <time>2020-03-04T08:08:50Z</time>
      </trkpt>
      <trkpt lat="46.8996" lon="5.71184">
        <ele>275</ele>
        <time>2020-03-04T08:08:51Z</time>
      </trkpt>
      <trkpt lat="46.89958" lon="5.71177">
        <ele>275</ele>
        <time>2020-03-04T08:08:52Z</time>
      </trkpt>
      <trkpt lat="46.89957" lon="5.7117">
        <ele>275.2</ele>
        <time>2020-03-04T08:08:53Z</time>
      </trkpt>
      <trkpt lat="46.89956" lon="5.71163">
        <ele>275.2</ele>
        <time>2020-03-04T08:08:54Z</time>
      </trkpt>
      <trkpt lat="46.89955" lon="5.71156">
        <ele>275.2</ele>
        <time>2020-03-04T08:08:55Z</time>
      </trkpt>
      <trkpt lat="46.89954" lon="5.71149">
        <ele>275.2</ele>
        <time>2020-03-04T08:08:56Z</time>
      </trkpt>
      <trkpt lat="46.89954" lon="5.71142">
        <ele>275.2</ele>
        <time>2020-03-04T08:08:57Z</time>
      </trkpt>
      <trkpt lat="46.89954" lon="5.71135">
        <ele>275.6</ele>
        <time>2020-03-04T08:08:58Z</time>
      </trkpt>
      <trkpt lat="46.89954" lon="5.71128">
        <ele>275.6</ele>
        <time>2020-03-04T08:08:59Z</time>
      </trkpt>
      <trkpt lat="46.89955" lon="5.71122">
        <ele>275.6</ele>
        <time>2020-03-04T08:09:00Z</time>
      </trkpt>
      <trkpt lat="46.89955" lon="5.71115">
        <ele>275.8</ele>
        <time>2020-03-04T08:09:01Z</time>
      </trkpt>
      <trkpt lat="46.89955" lon="5.71109">
        <ele>275.8</ele>
        <time>2020-03-04T08:09:02Z</time>
      </trkpt>
      <trkpt lat="46.89955" lon="5.71102">
        <ele>275.8</ele>
        <time>2020-03-04T08:09:03Z</time>
      </trkpt>
      <trkpt lat="46.89955" lon="5.71095">
        <ele>275.8</ele>
        <time>2020-03-04T08:09:04Z</time>
      </trkpt>
      <trkpt lat="46.89956" lon="5.71088">
        <ele>275.8</ele>
        <time>2020-03-04T08:09:05Z</time>
      </trkpt>
      <trkpt lat="46.89956" lon="5.71081">
        <ele>276.2</ele>
        <time>2020-03-04T08:09:06Z</time>
      </trkpt>
      <trkpt lat="46.89956" lon="5.71075">
        <ele>276.2</ele>
        <time>2020-03-04T08:09:07Z</time>
      </trkpt>
      <trkpt lat="46.89956" lon="5.71068">
        <ele>276.6</ele>
        <time>2020-03-04T08:09:08Z</time>
      </trkpt>
      <trkpt lat="46.89956" lon="5.71062">
        <ele>276.6</ele>
        <time>2020-03-04T08:09:09Z</time>
      </trkpt>
      <trkpt lat="46.89957" lon="5.71056">
        <ele>276.8</ele>
        <time>2020-03-04T08:09:10Z</time>
      </trkpt>
      <trkpt lat="46.89957" lon="5.7105">
        <ele>277.2</ele>
        <time>2020-03-04T08:09:11Z</time>
      </trkpt>
      <trkpt lat="46.89957" lon="5.71043">
        <ele>277.2</ele>
        <time>2020-03-04T08:09:12Z</time>
      </trkpt>
      <trkpt lat="46.89958" lon="5.71037">
        <ele>277.2</ele>
        <time>2020-03-04T08:09:13Z</time>
      </trkpt>
      <trkpt lat="46.89958" lon="5.71031">
        <ele>277.2</ele>
        <time>2020-03-04T08:09:14Z</time>
      </trkpt>
      <trkpt lat="46.89957" lon="5.71024">
        <ele>277.4</ele>
        <time>2020-03-04T08:09:15Z</time>
      </trkpt>
      <trkpt lat="46.89957" lon="5.71018">
        <ele>277.4</ele>
        <time>2020-03-04T08:09:16Z</time>
      </trkpt>
      <trkpt lat="46.89956" lon="5.71012">
        <ele>277.8</ele>
        <time>2020-03-04T08:09:17Z</time>
      </trkpt>
      <trkpt lat="46.89955" lon="5.71006">
        <ele>277.8</ele>
        <time>2020-03-04T08:09:18Z</time>
      </trkpt>
      <trkpt lat="46.89953" lon="5.71">
        <ele>277.8</ele>
        <time>2020-03-04T08:09:19Z</time>
      </trkpt>
      <trkpt lat="46.89951" lon="5.70994">
        <ele>278</ele>
        <time>2020-03-04T08:09:20Z</time>
      </trkpt>
      <trkpt lat="46.89949" lon="5.70988">
        <ele>278</ele>
        <time>2020-03-04T08:09:21Z</time>
      </trkpt>
      <trkpt lat="46.89946" lon="5.70983">
        <ele>278</ele>
        <time>2020-03-04T08:09:22Z</time>
      </trkpt>
      <trkpt lat="46.89942" lon="5.70978">
        <ele>278</ele>
        <time>2020-03-04T08:09:23Z</time>
      </trkpt>
      <trkpt lat="46.89939" lon="5.70974">
        <ele>278</ele>
        <time>2020-03-04T08:09:24Z</time>
      </trkpt>
      <trkpt lat="46.89936" lon="5.70969">
        <ele>278.2</ele>
        <time>2020-03-04T08:09:25Z</time>
      </trkpt>
      <trkpt lat="46.89932" lon="5.70965">
        <ele>278.2</ele>
        <time>2020-03-04T08:09:26Z</time>
      </trkpt>
      <trkpt lat="46.89929" lon="5.7096">
        <ele>278.2</ele>
        <time>2020-03-04T08:09:27Z</time>
      </trkpt>
      <trkpt lat="46.89925" lon="5.70955">
        <ele>278.4</ele>
        <time>2020-03-04T08:09:28Z</time>
      </trkpt>
      <trkpt lat="46.89922" lon="5.70951">
        <ele>278.4</ele>
        <time>2020-03-04T08:09:29Z</time>
      </trkpt>
      <trkpt lat="46.89918" lon="5.70946">
        <ele>278.4</ele>
        <time>2020-03-04T08:09:30Z</time>
      </trkpt>
      <trkpt lat="46.89915" lon="5.70941">
        <ele>278.4</ele>
        <time>2020-03-04T08:09:31Z</time>
      </trkpt>
      <trkpt lat="46.89911" lon="5.70936">
        <ele>278.4</ele>
        <time>2020-03-04T08:09:32Z</time>
      </trkpt>
      <trkpt lat="46.89907" lon="5.70932">
        <ele>278.4</ele>
        <time>2020-03-04T08:09:33Z</time>
      </trkpt>
      <trkpt lat="46.89903" lon="5.70927">
        <ele>278.4</ele>
        <time>2020-03-04T08:09:34Z</time>
      </trkpt>
      <trkpt lat="46.89899" lon="5.70922">
        <ele>278.4</ele>
        <time>2020-03-04T08:09:35Z</time>
      </trkpt>
      <trkpt lat="46.89895" lon="5.70917">
        <ele>278.4</ele>
        <time>2020-03-04T08:09:36Z</time>
      </trkpt>
      <trkpt lat="46.89891" lon="5.70913">
        <ele>278.4</ele>
        <time>2020-03-04T08:09:37Z</time>
      </trkpt>
      <trkpt lat="46.89887" lon="5.70908">
        <ele>278.2</ele>
        <time>2020-03-04T08:09:38Z</time>
      </trkpt>
      <trkpt lat="46.89882" lon="5.70902">
        <ele>278.2</ele>
        <time>2020-03-04T08:09:39Z</time>
      </trkpt>
      <trkpt lat="46.89877" lon="5.70897">
        <ele>277.8</ele>
        <time>2020-03-04T08:09:40Z</time>
      </trkpt>
      <trkpt lat="46.89872" lon="5.70892">
        <ele>277.8</ele>
        <time>2020-03-04T08:09:41Z</time>
      </trkpt>
      <trkpt lat="46.89867" lon="5.70887">
        <ele>277.6</ele>
        <time>2020-03-04T08:09:42Z</time>
      </trkpt>
      <trkpt lat="46.89862" lon="5.70881">
        <ele>277.4</ele>
        <time>2020-03-04T08:09:43Z</time>
      </trkpt>
      <trkpt lat="46.89858" lon="5.70874">
        <ele>277.2</ele>
        <time>2020-03-04T08:09:44Z</time>
      </trkpt>
      <trkpt lat="46.89854" lon="5.70867">
        <ele>277</ele>
        <time>2020-03-04T08:09:45Z</time>
      </trkpt>
      <trkpt lat="46.89851" lon="5.70858">
        <ele>277</ele>
        <time>2020-03-04T08:09:46Z</time>
      </trkpt>
      <trkpt lat="46.8985" lon="5.70849">
        <ele>276.8</ele>
        <time>2020-03-04T08:09:47Z</time>
      </trkpt>
      <trkpt lat="46.89851" lon="5.7084">
        <ele>276.8</ele>
        <time>2020-03-04T08:09:48Z</time>
      </trkpt>
      <trkpt lat="46.89852" lon="5.70831">
        <ele>276.8</ele>
        <time>2020-03-04T08:09:49Z</time>
      </trkpt>
      <trkpt lat="46.89853" lon="5.70823">
        <ele>276.8</ele>
        <time>2020-03-04T08:09:50Z</time>
      </trkpt>
      <trkpt lat="46.89854" lon="5.70814">
        <ele>276.8</ele>
        <time>2020-03-04T08:09:51Z</time>
      </trkpt>
      <trkpt lat="46.89855" lon="5.70806">
        <ele>276.8</ele>
        <time>2020-03-04T08:09:52Z</time>
      </trkpt>
      <trkpt lat="46.89855" lon="5.70798">
        <ele>276.8</ele>
        <time>2020-03-04T08:09:53Z</time>
      </trkpt>
      <trkpt lat="46.89855" lon="5.7079">
        <ele>276.8</ele>
        <time>2020-03-04T08:09:54Z</time>
      </trkpt>
      <trkpt lat="46.89854" lon="5.70782">
        <ele>276.8</ele>
        <time>2020-03-04T08:09:55Z</time>
      </trkpt>
      <trkpt lat="46.89853" lon="5.70775">
        <ele>276.8</ele>
        <time>2020-03-04T08:09:56Z</time>
      </trkpt>
      <trkpt lat="46.89853" lon="5.70767">
        <ele>276.4</ele>
        <time>2020-03-04T08:09:57Z</time>
      </trkpt>
      <trkpt lat="46.89854" lon="5.7076">
        <ele>276.4</ele>
        <time>2020-03-04T08:09:58Z</time>
      </trkpt>
      <trkpt lat="46.89857" lon="5.70754">
        <ele>276.4</ele>
        <time>2020-03-04T08:09:59Z</time>
      </trkpt>
      <trkpt lat="46.89861" lon="5.70748">
        <ele>276.4</ele>
        <time>2020-03-04T08:10:00Z</time>
      </trkpt>
      <trkpt lat="46.89865" lon="5.70744">
        <ele>276.2</ele>
        <time>2020-03-04T08:10:01Z</time>
      </trkpt>
      <trkpt lat="46.8987" lon="5.70739">
        <ele>276.2</ele>
        <time>2020-03-04T08:10:02Z</time>
      </trkpt>
      <trkpt lat="46.89874" lon="5.70735">
        <ele>276.2</ele>
        <time>2020-03-04T08:10:03Z</time>
      </trkpt>
      <trkpt lat="46.89879" lon="5.7073">
        <ele>276.2</ele>
        <time>2020-03-04T08:10:04Z</time>
      </trkpt>
      <trkpt lat="46.89883" lon="5.70724">
        <ele>276.2</ele>
        <time>2020-03-04T08:10:05Z</time>
      </trkpt>
      <trkpt lat="46.89888" lon="5.70719">
        <ele>276.2</ele>
        <time>2020-03-04T08:10:06Z</time>
      </trkpt>
      <trkpt lat="46.89892" lon="5.70713">
        <ele>276</ele>
        <time>2020-03-04T08:10:07Z</time>
      </trkpt>
      <trkpt lat="46.89896" lon="5.70708">
        <ele>276</ele>
        <time>2020-03-04T08:10:08Z</time>
      </trkpt>
      <trkpt lat="46.899" lon="5.70704">
        <ele>276</ele>
        <time>2020-03-04T08:10:09Z</time>
      </trkpt>
      <trkpt lat="46.89902" lon="5.707">
        <ele>276</ele>
        <time>2020-03-04T08:10:10Z</time>
      </trkpt>
      <trkpt lat="46.89904" lon="5.70697">
        <ele>275.6</ele>
        <time>2020-03-04T08:10:11Z</time>
      </trkpt>
      <trkpt lat="46.89906" lon="5.70695">
        <ele>275.6</ele>
        <time>2020-03-04T08:10:12Z</time>
      </trkpt>
      <trkpt lat="46.89907" lon="5.70693">
        <ele>275.6</ele>
        <time>2020-03-04T08:11:03Z</time>
      </trkpt>
      <trkpt lat="46.89908" lon="5.70691">
        <ele>275.6</ele>
        <time>2020-03-04T08:11:04Z</time>
      </trkpt>
      <trkpt lat="46.89909" lon="5.70689">
        <ele>275.6</ele>
        <time>2020-03-04T08:11:05Z</time>
      </trkpt>
      <trkpt lat="46.8991" lon="5.70686">
        <ele>275.4</ele>
        <time>2020-03-04T08:11:06Z</time>
      </trkpt>
      <trkpt lat="46.89911" lon="5.70683">
        <ele>275.4</ele>
        <time>2020-03-04T08:11:07Z</time>
      </trkpt>
      <trkpt lat="46.89913" lon="5.7068">
        <ele>275.4</ele>
        <time>2020-03-04T08:11:08Z</time>
      </trkpt>
      <trkpt lat="46.89915" lon="5.70676">
        <ele>275.4</ele>
        <time>2020-03-04T08:11:09Z</time>
      </trkpt>
      <trkpt lat="46.89917" lon="5.70672">
        <ele>275.4</ele>
        <time>2020-03-04T08:11:10Z</time>
      </trkpt>
      <trkpt lat="46.89919" lon="5.70667">
        <ele>275.4</ele>
        <time>2020-03-04T08:11:11Z</time>
      </trkpt>
      <trkpt lat="46.89921" lon="5.70661">
        <ele>275.2</ele>
        <time>2020-03-04T08:11:12Z</time>
      </trkpt>
      <trkpt lat="46.89923" lon="5.70654">
        <ele>275.2</ele>
        <time>2020-03-04T08:11:13Z</time>
      </trkpt>
      <trkpt lat="46.89925" lon="5.70647">
        <ele>275.2</ele>
        <time>2020-03-04T08:11:14Z</time>
      </trkpt>
      <trkpt lat="46.89927" lon="5.70639">
        <ele>275</ele>
        <time>2020-03-04T08:11:15Z</time>
      </trkpt>
      <trkpt lat="46.89929" lon="5.70631">
        <ele>275</ele>
        <time>2020-03-04T08:11:16Z</time>
      </trkpt>
      <trkpt lat="46.8993" lon="5.70623">
        <ele>275</ele>
        <time>2020-03-04T08:11:17Z</time>
      </trkpt>
      <trkpt lat="46.89932" lon="5.70614">
        <ele>274.6</ele>
        <time>2020-03-04T08:11:18Z</time>
      </trkpt>
      <trkpt lat="46.89933" lon="5.70605">
        <ele>274.4</ele>
        <time>2020-03-04T08:11:19Z</time>
      </trkpt>
      <trkpt lat="46.89935" lon="5.70595">
        <ele>274.4</ele>
        <time>2020-03-04T08:11:20Z</time>
      </trkpt>
      <trkpt lat="46.89937" lon="5.70585">
        <ele>274.2</ele>
        <time>2020-03-04T08:11:21Z</time>
      </trkpt>
      <trkpt lat="46.89939" lon="5.70575">
        <ele>274.2</ele>
        <time>2020-03-04T08:11:22Z</time>
      </trkpt>
      <trkpt lat="46.89941" lon="5.70565">
        <ele>273.8</ele>
        <time>2020-03-04T08:11:23Z</time>
      </trkpt>
      <trkpt lat="46.89943" lon="5.70555">
        <ele>273.8</ele>
        <time>2020-03-04T08:11:24Z</time>
      </trkpt>
      <trkpt lat="46.89945" lon="5.70545">
        <ele>273.6</ele>
        <time>2020-03-04T08:11:25Z</time>
      </trkpt>
      <trkpt lat="46.89947" lon="5.70534">
        <ele>273.6</ele>
        <time>2020-03-04T08:11:26Z</time>
      </trkpt>
      <trkpt lat="46.89949" lon="5.70524">
        <ele>273.2</ele>
        <time>2020-03-04T08:11:27Z</time>
      </trkpt>
      <trkpt lat="46.89951" lon="5.70514">
        <ele>273.2</ele>
        <time>2020-03-04T08:11:28Z</time>
      </trkpt>
      <trkpt lat="46.89953" lon="5.70503">
        <ele>273</ele>
        <time>2020-03-04T08:11:29Z</time>
      </trkpt>
      <trkpt lat="46.89955" lon="5.70493">
        <ele>273</ele>
        <time>2020-03-04T08:11:30Z</time>
      </trkpt>
      <trkpt lat="46.89957" lon="5.70482">
        <ele>273</ele>
        <time>2020-03-04T08:11:31Z</time>
      </trkpt>
      <trkpt lat="46.89959" lon="5.70472">
        <ele>273</ele>
        <time>2020-03-04T08:11:32Z</time>
      </trkpt>
      <trkpt lat="46.89961" lon="5.70462">
        <ele>273</ele>
        <time>2020-03-04T08:11:33Z</time>
      </trkpt>
      <trkpt lat="46.89963" lon="5.70451">
        <ele>272.8</ele>
        <time>2020-03-04T08:11:34Z</time>
      </trkpt>
      <trkpt lat="46.89965" lon="5.70441">
        <ele>272.8</ele>
        <time>2020-03-04T08:11:35Z</time>
      </trkpt>
      <trkpt lat="46.89968" lon="5.70431">
        <ele>272.6</ele>
        <time>2020-03-04T08:11:36Z</time>
      </trkpt>
      <trkpt lat="46.89971" lon="5.70421">
        <ele>272.6</ele>
        <time>2020-03-04T08:11:37Z</time>
      </trkpt>
      <trkpt lat="46.89975" lon="5.70411">
        <ele>272.4</ele>
        <time>2020-03-04T08:11:38Z</time>
      </trkpt>
      <trkpt lat="46.89979" lon="5.70402">
        <ele>272.4</ele>
        <time>2020-03-04T08:11:39Z</time>
      </trkpt>
      <trkpt lat="46.89984" lon="5.70394">
        <ele>272</ele>
        <time>2020-03-04T08:11:40Z</time>
      </trkpt>
      <trkpt lat="46.89989" lon="5.70385">
        <ele>272</ele>
        <time>2020-03-04T08:11:41Z</time>
      </trkpt>
      <trkpt lat="46.89995" lon="5.70377">
        <ele>272</ele>
        <time>2020-03-04T08:11:42Z</time>
      </trkpt>
      <trkpt lat="46.90001" lon="5.70369">
        <ele>271.8</ele>
        <time>2020-03-04T08:11:43Z</time>
      </trkpt>
      <trkpt lat="46.90007" lon="5.70362">
        <ele>271.8</ele>
        <time>2020-03-04T08:11:44Z</time>
      </trkpt>
      <trkpt lat="46.90013" lon="5.70354">
        <ele>271.4</ele>
        <time>2020-03-04T08:11:45Z</time>
      </trkpt>
      <trkpt lat="46.90019" lon="5.70346">
        <ele>271.4</ele>
        <time>2020-03-04T08:11:46Z</time>
      </trkpt>
      <trkpt lat="46.90025" lon="5.70338">
        <ele>271</ele>
        <time>2020-03-04T08:11:47Z</time>
      </trkpt>
      <trkpt lat="46.90031" lon="5.7033">
        <ele>271</ele>
        <time>2020-03-04T08:11:48Z</time>
      </trkpt>
      <trkpt lat="46.90037" lon="5.70322">
        <ele>271</ele>
        <time>2020-03-04T08:11:49Z</time>
      </trkpt>
      <trkpt lat="46.90043" lon="5.70314">
        <ele>271</ele>
        <time>2020-03-04T08:11:50Z</time>
      </trkpt>
      <trkpt lat="46.90049" lon="5.70305">
        <ele>270.8</ele>
        <time>2020-03-04T08:11:51Z</time>
      </trkpt>
      <trkpt lat="46.90055" lon="5.70297">
        <ele>270.8</ele>
        <time>2020-03-04T08:11:52Z</time>
      </trkpt>
      <trkpt lat="46.90061" lon="5.70288">
        <ele>270.8</ele>
        <time>2020-03-04T08:11:53Z</time>
      </trkpt>
      <trkpt lat="46.90066" lon="5.70279">
        <ele>270.8</ele>
        <time>2020-03-04T08:11:54Z</time>
      </trkpt>
      <trkpt lat="46.90071" lon="5.7027">
        <ele>270.6</ele>
        <time>2020-03-04T08:11:55Z</time>
      </trkpt>
      <trkpt lat="46.90076" lon="5.70261">
        <ele>270.6</ele>
        <time>2020-03-04T08:11:56Z</time>
      </trkpt>
      <trkpt lat="46.9008" lon="5.70251">
        <ele>270.6</ele>
        <time>2020-03-04T08:11:57Z</time>
      </trkpt>
      <trkpt lat="46.90084" lon="5.70241">
        <ele>270.2</ele>
        <time>2020-03-04T08:11:58Z</time>
      </trkpt>
      <trkpt lat="46.90088" lon="5.70231">
        <ele>270.2</ele>
        <time>2020-03-04T08:11:59Z</time>
      </trkpt>
      <trkpt lat="46.90091" lon="5.70221">
        <ele>270</ele>
        <time>2020-03-04T08:12:00Z</time>
      </trkpt>
      <trkpt lat="46.90095" lon="5.70211">
        <ele>270</ele>
        <time>2020-03-04T08:12:01Z</time>
      </trkpt>
      <trkpt lat="46.90098" lon="5.70201">
        <ele>270</ele>
        <time>2020-03-04T08:12:02Z</time>
      </trkpt>
      <trkpt lat="46.90102" lon="5.70191">
        <ele>270</ele>
        <time>2020-03-04T08:12:03Z</time>
      </trkpt>
      <trkpt lat="46.90105" lon="5.70182">
        <ele>270</ele>
        <time>2020-03-04T08:12:04Z</time>
      </trkpt>
      <trkpt lat="46.90108" lon="5.70172">
        <ele>270</ele>
        <time>2020-03-04T08:12:05Z</time>
      </trkpt>
      <trkpt lat="46.90112" lon="5.70162">
        <ele>270</ele>
        <time>2020-03-04T08:12:06Z</time>
      </trkpt>
      <trkpt lat="46.90115" lon="5.70152">
        <ele>270</ele>
        <time>2020-03-04T08:12:07Z</time>
      </trkpt>
      <trkpt lat="46.90118" lon="5.70142">
        <ele>270.2</ele>
        <time>2020-03-04T08:12:08Z</time>
      </trkpt>
      <trkpt lat="46.90122" lon="5.70133">
        <ele>270.2</ele>
        <time>2020-03-04T08:12:09Z</time>
      </trkpt>
      <trkpt lat="46.90125" lon="5.70123">
        <ele>270.2</ele>
        <time>2020-03-04T08:12:10Z</time>
      </trkpt>
      <trkpt lat="46.90129" lon="5.70113">
        <ele>270.2</ele>
        <time>2020-03-04T08:12:11Z</time>
      </trkpt>
      <trkpt lat="46.90132" lon="5.70103">
        <ele>270.2</ele>
        <time>2020-03-04T08:12:12Z</time>
      </trkpt>
      <trkpt lat="46.90136" lon="5.70093">
        <ele>270.2</ele>
        <time>2020-03-04T08:12:13Z</time>
      </trkpt>
      <trkpt lat="46.90139" lon="5.70083">
        <ele>270.2</ele>
        <time>2020-03-04T08:12:14Z</time>
      </trkpt>
      <trkpt lat="46.90143" lon="5.70073">
        <ele>270.4</ele>
        <time>2020-03-04T08:12:15Z</time>
      </trkpt>
      <trkpt lat="46.90146" lon="5.70063">
        <ele>270.4</ele>
        <time>2020-03-04T08:12:16Z</time>
      </trkpt>
      <trkpt lat="46.9015" lon="5.70053">
        <ele>270.8</ele>
        <time>2020-03-04T08:12:17Z</time>
      </trkpt>
      <trkpt lat="46.90154" lon="5.70043">
        <ele>270.8</ele>
        <time>2020-03-04T08:12:18Z</time>
      </trkpt>
      <trkpt lat="46.90157" lon="5.70033">
        <ele>270.8</ele>
        <time>2020-03-04T08:12:19Z</time>
      </trkpt>
      <trkpt lat="46.90161" lon="5.70023">
        <ele>270.8</ele>
        <time>2020-03-04T08:12:20Z</time>
      </trkpt>
      <trkpt lat="46.90164" lon="5.70013">
        <ele>270.8</ele>
        <time>2020-03-04T08:12:21Z</time>
      </trkpt>
      <trkpt lat="46.90167" lon="5.70003">
        <ele>270.8</ele>
        <time>2020-03-04T08:12:22Z</time>
      </trkpt>
      <trkpt lat="46.90169" lon="5.69993">
        <ele>270.8</ele>
        <time>2020-03-04T08:12:23Z</time>
      </trkpt>
      <trkpt lat="46.90171" lon="5.69982">
        <ele>270.8</ele>
        <time>2020-03-04T08:12:24Z</time>
      </trkpt>
      <trkpt lat="46.90172" lon="5.69971">
        <ele>270.8</ele>
        <time>2020-03-04T08:12:25Z</time>
      </trkpt>
      <trkpt lat="46.90172" lon="5.6996">
        <ele>270.8</ele>
        <time>2020-03-04T08:12:26Z</time>
      </trkpt>
      <trkpt lat="46.90172" lon="5.69949">
        <ele>270.8</ele>
        <time>2020-03-04T08:12:27Z</time>
      </trkpt>
      <trkpt lat="46.90171" lon="5.69939">
        <ele>270.8</ele>
        <time>2020-03-04T08:12:28Z</time>
      </trkpt>
      <trkpt lat="46.90169" lon="5.69928">
        <ele>270.8</ele>
        <time>2020-03-04T08:12:29Z</time>
      </trkpt>
      <trkpt lat="46.90168" lon="5.69918">
        <ele>270.8</ele>
        <time>2020-03-04T08:12:30Z</time>
      </trkpt>
      <trkpt lat="46.90166" lon="5.69907">
        <ele>270.8</ele>
        <time>2020-03-04T08:12:31Z</time>
      </trkpt>
      <trkpt lat="46.90165" lon="5.69897">
        <ele>270.8</ele>
        <time>2020-03-04T08:12:32Z</time>
      </trkpt>
      <trkpt lat="46.90165" lon="5.69886">
        <ele>270.8</ele>
        <time>2020-03-04T08:12:33Z</time>
      </trkpt>
      <trkpt lat="46.90167" lon="5.69876">
        <ele>270.8</ele>
        <time>2020-03-04T08:12:34Z</time>
      </trkpt>
      <trkpt lat="46.90169" lon="5.69866">
        <ele>270.8</ele>
        <time>2020-03-04T08:12:35Z</time>
      </trkpt>
      <trkpt lat="46.90172" lon="5.69856">
        <ele>270.8</ele>
        <time>2020-03-04T08:12:36Z</time>
      </trkpt>
      <trkpt lat="46.90175" lon="5.69847">
        <ele>270.8</ele>
        <time>2020-03-04T08:12:37Z</time>
      </trkpt>
      <trkpt lat="46.90178" lon="5.69838">
        <ele>270.8</ele>
        <time>2020-03-04T08:12:38Z</time>
      </trkpt>
      <trkpt lat="46.90181" lon="5.69829">
        <ele>270.8</ele>
        <time>2020-03-04T08:12:39Z</time>
      </trkpt>
      <trkpt lat="46.90185" lon="5.69821">
        <ele>271</ele>
        <time>2020-03-04T08:12:40Z</time>
      </trkpt>
      <trkpt lat="46.90188" lon="5.69812">
        <ele>271</ele>
        <time>2020-03-04T08:12:41Z</time>
      </trkpt>
      <trkpt lat="46.9019" lon="5.69803">
        <ele>271.2</ele>
        <time>2020-03-04T08:12:42Z</time>
      </trkpt>
      <trkpt lat="46.90193" lon="5.69794">
        <ele>271.2</ele>
        <time>2020-03-04T08:12:43Z</time>
      </trkpt>
      <trkpt lat="46.90196" lon="5.69785">
        <ele>271.2</ele>
        <time>2020-03-04T08:12:44Z</time>
      </trkpt>
      <trkpt lat="46.902" lon="5.69777">
        <ele>271.4</ele>
        <time>2020-03-04T08:12:45Z</time>
      </trkpt>
      <trkpt lat="46.90203" lon="5.69768">
        <ele>271.4</ele>
        <time>2020-03-04T08:12:46Z</time>
      </trkpt>
      <trkpt lat="46.90206" lon="5.6976">
        <ele>271.4</ele>
        <time>2020-03-04T08:12:47Z</time>
      </trkpt>
      <trkpt lat="46.90209" lon="5.69751">
        <ele>271.4</ele>
        <time>2020-03-04T08:12:48Z</time>
      </trkpt>
      <trkpt lat="46.90212" lon="5.69743">
        <ele>271.6</ele>
        <time>2020-03-04T08:12:49Z</time>
      </trkpt>
      <trkpt lat="46.90216" lon="5.69735">
        <ele>271.6</ele>
        <time>2020-03-04T08:12:50Z</time>
      </trkpt>
      <trkpt lat="46.90219" lon="5.69728">
        <ele>272</ele>
        <time>2020-03-04T08:12:51Z</time>
      </trkpt>
      <trkpt lat="46.90223" lon="5.6972">
        <ele>272</ele>
        <time>2020-03-04T08:12:52Z</time>
      </trkpt>
      <trkpt lat="46.90226" lon="5.69713">
        <ele>272</ele>
        <time>2020-03-04T08:12:53Z</time>
      </trkpt>
      <trkpt lat="46.9023" lon="5.69705">
        <ele>272.2</ele>
        <time>2020-03-04T08:12:54Z</time>
      </trkpt>
      <trkpt lat="46.90233" lon="5.69698">
        <ele>272.2</ele>
        <time>2020-03-04T08:12:55Z</time>
      </trkpt>
      <trkpt lat="46.90236" lon="5.6969">
        <ele>272.4</ele>
        <time>2020-03-04T08:12:56Z</time>
      </trkpt>
      <trkpt lat="46.90238" lon="5.69683">
        <ele>272.4</ele>
        <time>2020-03-04T08:12:57Z</time>
      </trkpt>
      <trkpt lat="46.9024" lon="5.69675">
        <ele>272.4</ele>
        <time>2020-03-04T08:12:58Z</time>
      </trkpt>
      <trkpt lat="46.90242" lon="5.69669">
        <ele>272.6</ele>
        <time>2020-03-04T08:12:59Z</time>
      </trkpt>
      <trkpt lat="46.90244" lon="5.69663">
        <ele>272.6</ele>
        <time>2020-03-04T08:13:00Z</time>
      </trkpt>
      <trkpt lat="46.90246" lon="5.69657">
        <ele>273</ele>
        <time>2020-03-04T08:13:01Z</time>
      </trkpt>
      <trkpt lat="46.90247" lon="5.69652">
        <ele>273</ele>
        <time>2020-03-04T08:13:02Z</time>
      </trkpt>
      <trkpt lat="46.90249" lon="5.69647">
        <ele>273.2</ele>
        <time>2020-03-04T08:13:03Z</time>
      </trkpt>
      <trkpt lat="46.9025" lon="5.69643">
        <ele>273.2</ele>
        <time>2020-03-04T08:13:04Z</time>
      </trkpt>
      <trkpt lat="46.9025" lon="5.69639">
        <ele>273.6</ele>
        <time>2020-03-04T08:13:05Z</time>
      </trkpt>
      <trkpt lat="46.9025" lon="5.69637">
        <ele>273.8</ele>
        <time>2020-03-04T08:13:06Z</time>
      </trkpt>
      <trkpt lat="46.90249" lon="5.69634">
        <ele>273.8</ele>
        <time>2020-03-04T08:13:07Z</time>
      </trkpt>
      <trkpt lat="46.90247" lon="5.6963">
        <ele>274.2</ele>
        <time>2020-03-04T08:13:08Z</time>
      </trkpt>
      <trkpt lat="46.90245" lon="5.69627">
        <ele>274.2</ele>
        <time>2020-03-04T08:13:09Z</time>
      </trkpt>
      <trkpt lat="46.90243" lon="5.69624">
        <ele>274.2</ele>
        <time>2020-03-04T08:13:10Z</time>
      </trkpt>
      <trkpt lat="46.9024" lon="5.69621">
        <ele>274.2</ele>
        <time>2020-03-04T08:13:11Z</time>
      </trkpt>
      <trkpt lat="46.90237" lon="5.69618">
        <ele>274.4</ele>
        <time>2020-03-04T08:13:12Z</time>
      </trkpt>
      <trkpt lat="46.90235" lon="5.69615">
        <ele>274.4</ele>
        <time>2020-03-04T08:13:13Z</time>
      </trkpt>
      <trkpt lat="46.90232" lon="5.69611">
        <ele>274.4</ele>
        <time>2020-03-04T08:13:14Z</time>
      </trkpt>
      <trkpt lat="46.9023" lon="5.69608">
        <ele>274.6</ele>
        <time>2020-03-04T08:13:15Z</time>
      </trkpt>
      <trkpt lat="46.90227" lon="5.69605">
        <ele>274.6</ele>
        <time>2020-03-04T08:13:16Z</time>
      </trkpt>
      <trkpt lat="46.90224" lon="5.69602">
        <ele>274.8</ele>
        <time>2020-03-04T08:13:17Z</time>
      </trkpt>
      <trkpt lat="46.90221" lon="5.69599">
        <ele>274.8</ele>
        <time>2020-03-04T08:13:18Z</time>
      </trkpt>
      <trkpt lat="46.90218" lon="5.69597">
        <ele>275</ele>
        <time>2020-03-04T08:13:19Z</time>
      </trkpt>
      <trkpt lat="46.90215" lon="5.69594">
        <ele>275</ele>
        <time>2020-03-04T08:13:20Z</time>
      </trkpt>
      <trkpt lat="46.90212" lon="5.69591">
        <ele>275.2</ele>
        <time>2020-03-04T08:13:21Z</time>
      </trkpt>
      <trkpt lat="46.90209" lon="5.69588">
        <ele>275.4</ele>
        <time>2020-03-04T08:13:22Z</time>
      </trkpt>
      <trkpt lat="46.90206" lon="5.69586">
        <ele>275.4</ele>
        <time>2020-03-04T08:13:23Z</time>
      </trkpt>
      <trkpt lat="46.90204" lon="5.69584">
        <ele>275.8</ele>
        <time>2020-03-04T08:13:24Z</time>
      </trkpt>
      <trkpt lat="46.90202" lon="5.69581">
        <ele>275.8</ele>
        <time>2020-03-04T08:13:25Z</time>
      </trkpt>
      <trkpt lat="46.902" lon="5.69577">
        <ele>275.8</ele>
        <time>2020-03-04T08:13:26Z</time>
      </trkpt>
      <trkpt lat="46.902" lon="5.69573">
        <ele>276.2</ele>
        <time>2020-03-04T08:13:27Z</time>
      </trkpt>
      <trkpt lat="46.90201" lon="5.69569">
        <ele>276.4</ele>
        <time>2020-03-04T08:13:28Z</time>
      </trkpt>
      <trkpt lat="46.90202" lon="5.69565">
        <ele>276.6</ele>
        <time>2020-03-04T08:13:29Z</time>
      </trkpt>
      <trkpt lat="46.90204" lon="5.69562">
        <ele>277</ele>
        <time>2020-03-04T08:13:30Z</time>
      </trkpt>
      <trkpt lat="46.90206" lon="5.69559">
        <ele>277.2</ele>
        <time>2020-03-04T08:13:31Z</time>
      </trkpt>
      <trkpt lat="46.90208" lon="5.69556">
        <ele>277.4</ele>
        <time>2020-03-04T08:13:32Z</time>
      </trkpt>
      <trkpt lat="46.9021" lon="5.69553">
        <ele>277.6</ele>
        <time>2020-03-04T08:13:33Z</time>
      </trkpt>
      <trkpt lat="46.90212" lon="5.6955">
        <ele>277.8</ele>
        <time>2020-03-04T08:13:34Z</time>
      </trkpt>
      <trkpt lat="46.90214" lon="5.69546">
        <ele>278.2</ele>
        <time>2020-03-04T08:13:35Z</time>
      </trkpt>
      <trkpt lat="46.90216" lon="5.69543">
        <ele>278.2</ele>
        <time>2020-03-04T08:13:36Z</time>
      </trkpt>
      <trkpt lat="46.90218" lon="5.69539">
        <ele>278.6</ele>
        <time>2020-03-04T08:13:37Z</time>
      </trkpt>
      <trkpt lat="46.90219" lon="5.69535">
        <ele>279</ele>
        <time>2020-03-04T08:13:38Z</time>
      </trkpt>
      <trkpt lat="46.90221" lon="5.69531">
        <ele>279.2</ele>
        <time>2020-03-04T08:13:39Z</time>
      </trkpt>
      <trkpt lat="46.90223" lon="5.69527">
        <ele>279.4</ele>
        <time>2020-03-04T08:13:40Z</time>
      </trkpt>
      <trkpt lat="46.90225" lon="5.69524">
        <ele>279.8</ele>
        <time>2020-03-04T08:13:41Z</time>
      </trkpt>
      <trkpt lat="46.90227" lon="5.6952">
        <ele>280</ele>
        <time>2020-03-04T08:13:42Z</time>
      </trkpt>
      <trkpt lat="46.90228" lon="5.69517">
        <ele>280.4</ele>
        <time>2020-03-04T08:13:43Z</time>
      </trkpt>
      <trkpt lat="46.9023" lon="5.69513">
        <ele>280.8</ele>
        <time>2020-03-04T08:13:44Z</time>
      </trkpt>
      <trkpt lat="46.90231" lon="5.6951">
        <ele>281</ele>
        <time>2020-03-04T08:13:45Z</time>
      </trkpt>
      <trkpt lat="46.90233" lon="5.69507">
        <ele>281.4</ele>
        <time>2020-03-04T08:13:46Z</time>
      </trkpt>
      <trkpt lat="46.90234" lon="5.69504">
        <ele>281.6</ele>
        <time>2020-03-04T08:13:47Z</time>
      </trkpt>
      <trkpt lat="46.90236" lon="5.69501">
        <ele>282</ele>
        <time>2020-03-04T08:13:48Z</time>
      </trkpt>
      <trkpt lat="46.90238" lon="5.69498">
        <ele>282.2</ele>
        <time>2020-03-04T08:13:49Z</time>
      </trkpt>
      <trkpt lat="46.90239" lon="5.69495">
        <ele>282.4</ele>
        <time>2020-03-04T08:13:50Z</time>
      </trkpt>
      <trkpt lat="46.9024" lon="5.69491">
        <ele>282.6</ele>
        <time>2020-03-04T08:13:51Z</time>
      </trkpt>
      <trkpt lat="46.90241" lon="5.69488">
        <ele>282.6</ele>
        <time>2020-03-04T08:13:52Z</time>
      </trkpt>
      <trkpt lat="46.90242" lon="5.69485">
        <ele>283</ele>
        <time>2020-03-04T08:13:53Z</time>
      </trkpt>
      <trkpt lat="46.90243" lon="5.69481">
        <ele>283.4</ele>
        <time>2020-03-04T08:13:54Z</time>
      </trkpt>
      <trkpt lat="46.90244" lon="5.69477">
        <ele>283.6</ele>
        <time>2020-03-04T08:13:55Z</time>
      </trkpt>
      <trkpt lat="46.90244" lon="5.69474">
        <ele>284</ele>
        <time>2020-03-04T08:13:56Z</time>
      </trkpt>
      <trkpt lat="46.90245" lon="5.6947">
        <ele>284.2</ele>
        <time>2020-03-04T08:13:57Z</time>
      </trkpt>
      <trkpt lat="46.90245" lon="5.69467">
        <ele>284.4</ele>
        <time>2020-03-04T08:13:58Z</time>
      </trkpt>
      <trkpt lat="46.90246" lon="5.69464">
        <ele>284.6</ele>
        <time>2020-03-04T08:13:59Z</time>
      </trkpt>
      <trkpt lat="46.90247" lon="5.69461">
        <ele>284.8</ele>
        <time>2020-03-04T08:14:00Z</time>
      </trkpt>
      <trkpt lat="46.90248" lon="5.69458">
        <ele>284.8</ele>
        <time>2020-03-04T08:14:01Z</time>
      </trkpt>
      <trkpt lat="46.90249" lon="5.69455">
        <ele>285</ele>
        <time>2020-03-04T08:14:02Z</time>
      </trkpt>
      <trkpt lat="46.90249" lon="5.69451">
        <ele>285</ele>
        <time>2020-03-04T08:14:03Z</time>
      </trkpt>
      <trkpt lat="46.9025" lon="5.69448">
        <ele>285</ele>
        <time>2020-03-04T08:14:04Z</time>
      </trkpt>
      <trkpt lat="46.9025" lon="5.69446">
        <ele>285.4</ele>
        <time>2020-03-04T08:14:05Z</time>
      </trkpt>
      <trkpt lat="46.9025" lon="5.69442">
        <ele>285.4</ele>
        <time>2020-03-04T08:14:06Z</time>
      </trkpt>
      <trkpt lat="46.9025" lon="5.69438">
        <ele>285.4</ele>
        <time>2020-03-04T08:14:07Z</time>
      </trkpt>
      <trkpt lat="46.9025" lon="5.69434">
        <ele>285.4</ele>
        <time>2020-03-04T08:14:08Z</time>
      </trkpt>
      <trkpt lat="46.9025" lon="5.69429">
        <ele>285.4</ele>
        <time>2020-03-04T08:14:09Z</time>
      </trkpt>
      <trkpt lat="46.9025" lon="5.69424">
        <ele>285.6</ele>
        <time>2020-03-04T08:14:10Z</time>
      </trkpt>
      <trkpt lat="46.90249" lon="5.69419">
        <ele>285.6</ele>
        <time>2020-03-04T08:14:11Z</time>
      </trkpt>
      <trkpt lat="46.90248" lon="5.69414">
        <ele>285.6</ele>
        <time>2020-03-04T08:14:12Z</time>
      </trkpt>
      <trkpt lat="46.90247" lon="5.69409">
        <ele>285.6</ele>
        <time>2020-03-04T08:14:13Z</time>
      </trkpt>
      <trkpt lat="46.90245" lon="5.69404">
        <ele>285.2</ele>
        <time>2020-03-04T08:14:14Z</time>
      </trkpt>
      <trkpt lat="46.90242" lon="5.69399">
        <ele>285.2</ele>
        <time>2020-03-04T08:14:15Z</time>
      </trkpt>
      <trkpt lat="46.90239" lon="5.69394">
        <ele>285</ele>
        <time>2020-03-04T08:14:16Z</time>
      </trkpt>
      <trkpt lat="46.90235" lon="5.69389">
        <ele>285</ele>
        <time>2020-03-04T08:14:17Z</time>
      </trkpt>
      <trkpt lat="46.90231" lon="5.69386">
        <ele>284.8</ele>
        <time>2020-03-04T08:14:18Z</time>
      </trkpt>
      <trkpt lat="46.90227" lon="5.69383">
        <ele>284.8</ele>
        <time>2020-03-04T08:14:19Z</time>
      </trkpt>
      <trkpt lat="46.90223" lon="5.69381">
        <ele>284.8</ele>
        <time>2020-03-04T08:14:20Z</time>
      </trkpt>
      <trkpt lat="46.90219" lon="5.6938">
        <ele>284.8</ele>
        <time>2020-03-04T08:14:21Z</time>
      </trkpt>
      <trkpt lat="46.90216" lon="5.6938">
        <ele>285.2</ele>
        <time>2020-03-04T08:14:22Z</time>
      </trkpt>
      <trkpt lat="46.90213" lon="5.69379">
        <ele>285.4</ele>
        <time>2020-03-04T08:14:23Z</time>
      </trkpt>
      <trkpt lat="46.9021" lon="5.69379">
        <ele>285.8</ele>
        <time>2020-03-04T08:14:24Z</time>
      </trkpt>
      <trkpt lat="46.90207" lon="5.6938">
        <ele>286</ele>
        <time>2020-03-04T08:14:25Z</time>
      </trkpt>
      <trkpt lat="46.90204" lon="5.6938">
        <ele>286.4</ele>
        <time>2020-03-04T08:14:26Z</time>
      </trkpt>
      <trkpt lat="46.902" lon="5.6938">
        <ele>286.8</ele>
        <time>2020-03-04T08:14:27Z</time>
      </trkpt>
      <trkpt lat="46.90197" lon="5.69381">
        <ele>287</ele>
        <time>2020-03-04T08:14:28Z</time>
      </trkpt>
      <trkpt lat="46.90194" lon="5.6938">
        <ele>287</ele>
        <time>2020-03-04T08:14:29Z</time>
      </trkpt>
      <trkpt lat="46.90191" lon="5.6938">
        <ele>287.4</ele>
        <time>2020-03-04T08:14:30Z</time>
      </trkpt>
      <trkpt lat="46.90187" lon="5.6938">
        <ele>287.4</ele>
        <time>2020-03-04T08:14:31Z</time>
      </trkpt>
      <trkpt lat="46.90184" lon="5.6938">
        <ele>287.8</ele>
        <time>2020-03-04T08:14:32Z</time>
      </trkpt>
      <trkpt lat="46.90181" lon="5.69379">
        <ele>287.8</ele>
        <time>2020-03-04T08:14:33Z</time>
      </trkpt>
      <trkpt lat="46.90178" lon="5.69379">
        <ele>288</ele>
        <time>2020-03-04T08:14:34Z</time>
      </trkpt>
      <trkpt lat="46.90175" lon="5.69379">
        <ele>288</ele>
        <time>2020-03-04T08:14:35Z</time>
      </trkpt>
      <trkpt lat="46.90172" lon="5.69379">
        <ele>288.4</ele>
        <time>2020-03-04T08:14:36Z</time>
      </trkpt>
      <trkpt lat="46.90169" lon="5.69378">
        <ele>288.4</ele>
        <time>2020-03-04T08:14:37Z</time>
      </trkpt>
      <trkpt lat="46.90166" lon="5.69377">
        <ele>288.4</ele>
        <time>2020-03-04T08:14:38Z</time>
      </trkpt>
      <trkpt lat="46.90162" lon="5.69376">
        <ele>288.4</ele>
        <time>2020-03-04T08:14:39Z</time>
      </trkpt>
      <trkpt lat="46.90158" lon="5.69375">
        <ele>288.4</ele>
        <time>2020-03-04T08:14:40Z</time>
      </trkpt>
      <trkpt lat="46.90155" lon="5.69373">
        <ele>288.4</ele>
        <time>2020-03-04T08:14:41Z</time>
      </trkpt>
      <trkpt lat="46.90151" lon="5.69371">
        <ele>288.4</ele>
        <time>2020-03-04T08:14:42Z</time>
      </trkpt>
      <trkpt lat="46.90147" lon="5.69369">
        <ele>288.4</ele>
        <time>2020-03-04T08:14:43Z</time>
      </trkpt>
      <trkpt lat="46.90144" lon="5.69366">
        <ele>288.4</ele>
        <time>2020-03-04T08:14:44Z</time>
      </trkpt>
      <trkpt lat="46.9014" lon="5.69363">
        <ele>288.4</ele>
        <time>2020-03-04T08:14:45Z</time>
      </trkpt>
      <trkpt lat="46.90135" lon="5.69359">
        <ele>288</ele>
        <time>2020-03-04T08:14:46Z</time>
      </trkpt>
      <trkpt lat="46.90131" lon="5.69355">
        <ele>288</ele>
        <time>2020-03-04T08:14:47Z</time>
      </trkpt>
      <trkpt lat="46.90126" lon="5.6935">
        <ele>287.8</ele>
        <time>2020-03-04T08:14:48Z</time>
      </trkpt>
      <trkpt lat="46.90122" lon="5.69344">
        <ele>287.8</ele>
        <time>2020-03-04T08:14:49Z</time>
      </trkpt>
      <trkpt lat="46.90118" lon="5.69338">
        <ele>287.4</ele>
        <time>2020-03-04T08:14:50Z</time>
      </trkpt>
      <trkpt lat="46.90114" lon="5.69331">
        <ele>287.2</ele>
        <time>2020-03-04T08:14:51Z</time>
      </trkpt>
      <trkpt lat="46.9011" lon="5.69324">
        <ele>286.8</ele>
        <time>2020-03-04T08:14:52Z</time>
      </trkpt>
      <trkpt lat="46.90106" lon="5.69318">
        <ele>286.8</ele>
        <time>2020-03-04T08:14:53Z</time>
      </trkpt>
      <trkpt lat="46.90103" lon="5.69312">
        <ele>286.6</ele>
        <time>2020-03-04T08:14:54Z</time>
      </trkpt>
      <trkpt lat="46.90101" lon="5.69308">
        <ele>286.6</ele>
        <time>2020-03-04T08:14:55Z</time>
      </trkpt>
      <trkpt lat="46.90099" lon="5.69304">
        <ele>286.6</ele>
        <time>2020-03-04T08:14:56Z</time>
      </trkpt>
      <trkpt lat="46.90096" lon="5.693">
        <ele>286.6</ele>
        <time>2020-03-04T08:14:57Z</time>
      </trkpt>
      <trkpt lat="46.90093" lon="5.69296">
        <ele>286.2</ele>
        <time>2020-03-04T08:14:58Z</time>
      </trkpt>
      <trkpt lat="46.90091" lon="5.69292">
        <ele>286.2</ele>
        <time>2020-03-04T08:14:59Z</time>
      </trkpt>
      <trkpt lat="46.90088" lon="5.69287">
        <ele>286</ele>
        <time>2020-03-04T08:15:00Z</time>
      </trkpt>
      <trkpt lat="46.90085" lon="5.69282">
        <ele>286</ele>
        <time>2020-03-04T08:15:01Z</time>
      </trkpt>
      <trkpt lat="46.90082" lon="5.69277">
        <ele>286</ele>
        <time>2020-03-04T08:15:02Z</time>
      </trkpt>
      <trkpt lat="46.90079" lon="5.69272">
        <ele>285.8</ele>
        <time>2020-03-04T08:15:03Z</time>
      </trkpt>
      <trkpt lat="46.90075" lon="5.69267">
        <ele>285.8</ele>
        <time>2020-03-04T08:15:04Z</time>
      </trkpt>
      <trkpt lat="46.90072" lon="5.69262">
        <ele>285.6</ele>
        <time>2020-03-04T08:15:05Z</time>
      </trkpt>
      <trkpt lat="46.90068" lon="5.69256">
        <ele>285.6</ele>
        <time>2020-03-04T08:15:06Z</time>
      </trkpt>
      <trkpt lat="46.90064" lon="5.69251">
        <ele>285.2</ele>
        <time>2020-03-04T08:15:07Z</time>
      </trkpt>
      <trkpt lat="46.90059" lon="5.69245">
        <ele>285</ele>
        <time>2020-03-04T08:15:08Z</time>
      </trkpt>
      <trkpt lat="46.90055" lon="5.69239">
        <ele>285</ele>
        <time>2020-03-04T08:15:09Z</time>
      </trkpt>
      <trkpt lat="46.9005" lon="5.69232">
        <ele>284.6</ele>
        <time>2020-03-04T08:15:10Z</time>
      </trkpt>
      <trkpt lat="46.90046" lon="5.69226">
        <ele>284.6</ele>
        <time>2020-03-04T08:15:11Z</time>
      </trkpt>
      <trkpt lat="46.90041" lon="5.69219">
        <ele>284.4</ele>
        <time>2020-03-04T08:15:12Z</time>
      </trkpt>
      <trkpt lat="46.90036" lon="5.69213">
        <ele>284.2</ele>
        <time>2020-03-04T08:15:13Z</time>
      </trkpt>
      <trkpt lat="46.90031" lon="5.69206">
        <ele>284.2</ele>
        <time>2020-03-04T08:15:14Z</time>
      </trkpt>
      <trkpt lat="46.90026" lon="5.69199">
        <ele>283.8</ele>
        <time>2020-03-04T08:15:15Z</time>
      </trkpt>
      <trkpt lat="46.90021" lon="5.69192">
        <ele>283.6</ele>
        <time>2020-03-04T08:15:16Z</time>
      </trkpt>
      <trkpt lat="46.90016" lon="5.69185">
        <ele>283.6</ele>
        <time>2020-03-04T08:15:17Z</time>
      </trkpt>
      <trkpt lat="46.9001" lon="5.69177">
        <ele>283.2</ele>
        <time>2020-03-04T08:15:18Z</time>
      </trkpt>
      <trkpt lat="46.90005" lon="5.6917">
        <ele>283.2</ele>
        <time>2020-03-04T08:15:19Z</time>
      </trkpt>
      <trkpt lat="46.9" lon="5.69163">
        <ele>282.8</ele>
        <time>2020-03-04T08:15:20Z</time>
      </trkpt>
      <trkpt lat="46.89995" lon="5.69155">
        <ele>282.6</ele>
        <time>2020-03-04T08:15:21Z</time>
      </trkpt>
      <trkpt lat="46.89989" lon="5.69148">
        <ele>282.6</ele>
        <time>2020-03-04T08:15:22Z</time>
      </trkpt>
      <trkpt lat="46.89984" lon="5.6914">
        <ele>282.2</ele>
        <time>2020-03-04T08:15:23Z</time>
      </trkpt>
      <trkpt lat="46.89978" lon="5.69133">
        <ele>282.2</ele>
        <time>2020-03-04T08:15:24Z</time>
      </trkpt>
      <trkpt lat="46.89973" lon="5.69126">
        <ele>282</ele>
        <time>2020-03-04T08:15:25Z</time>
      </trkpt>
      <trkpt lat="46.89968" lon="5.69119">
        <ele>282</ele>
        <time>2020-03-04T08:15:26Z</time>
      </trkpt>
      <trkpt lat="46.89963" lon="5.69112">
        <ele>281.6</ele>
        <time>2020-03-04T08:15:27Z</time>
      </trkpt>
      <trkpt lat="46.89958" lon="5.69105">
        <ele>281.6</ele>
        <time>2020-03-04T08:15:28Z</time>
      </trkpt>
      <trkpt lat="46.89953" lon="5.69098">
        <ele>281.2</ele>
        <time>2020-03-04T08:15:29Z</time>
      </trkpt>
      <trkpt lat="46.89948" lon="5.69091">
        <ele>281.2</ele>
        <time>2020-03-04T08:15:30Z</time>
      </trkpt>
      <trkpt lat="46.89943" lon="5.69084">
        <ele>280.8</ele>
        <time>2020-03-04T08:15:31Z</time>
      </trkpt>
      <trkpt lat="46.89938" lon="5.69078">
        <ele>280.6</ele>
        <time>2020-03-04T08:15:32Z</time>
      </trkpt>
      <trkpt lat="46.89932" lon="5.6907">
        <ele>280.2</ele>
        <time>2020-03-04T08:15:33Z</time>
      </trkpt>
      <trkpt lat="46.89927" lon="5.69063">
        <ele>280</ele>
        <time>2020-03-04T08:15:34Z</time>
      </trkpt>
      <trkpt lat="46.89922" lon="5.69056">
        <ele>279.6</ele>
        <time>2020-03-04T08:15:35Z</time>
      </trkpt>
      <trkpt lat="46.89916" lon="5.69048">
        <ele>279.2</ele>
        <time>2020-03-04T08:15:36Z</time>
      </trkpt>
      <trkpt lat="46.89911" lon="5.69041">
        <ele>278.8</ele>
        <time>2020-03-04T08:15:37Z</time>
      </trkpt>
      <trkpt lat="46.89905" lon="5.69033">
        <ele>278.4</ele>
        <time>2020-03-04T08:15:38Z</time>
      </trkpt>
      <trkpt lat="46.89899" lon="5.69024">
        <ele>277.8</ele>
        <time>2020-03-04T08:15:39Z</time>
      </trkpt>
      <trkpt lat="46.89893" lon="5.69016">
        <ele>277.2</ele>
        <time>2020-03-04T08:15:40Z</time>
      </trkpt>
      <trkpt lat="46.89887" lon="5.69008">
        <ele>276.6</ele>
        <time>2020-03-04T08:15:41Z</time>
      </trkpt>
      <trkpt lat="46.8988" lon="5.68999">
        <ele>276.2</ele>
        <time>2020-03-04T08:15:42Z</time>
      </trkpt>
      <trkpt lat="46.89873" lon="5.68989">
        <ele>275.6</ele>
        <time>2020-03-04T08:15:43Z</time>
      </trkpt>
      <trkpt lat="46.89866" lon="5.68978">
        <ele>275</ele>
        <time>2020-03-04T08:15:44Z</time>
      </trkpt>
      <trkpt lat="46.89859" lon="5.68967">
        <ele>274.2</ele>
        <time>2020-03-04T08:15:45Z</time>
      </trkpt>
      <trkpt lat="46.89852" lon="5.68956">
        <ele>273.4</ele>
        <time>2020-03-04T08:15:46Z</time>
      </trkpt>
      <trkpt lat="46.89844" lon="5.68944">
        <ele>272.8</ele>
        <time>2020-03-04T08:15:47Z</time>
      </trkpt>
      <trkpt lat="46.89837" lon="5.68932">
        <ele>272.2</ele>
        <time>2020-03-04T08:15:48Z</time>
      </trkpt>
      <trkpt lat="46.8983" lon="5.6892">
        <ele>271.4</ele>
        <time>2020-03-04T08:15:49Z</time>
      </trkpt>
      <trkpt lat="46.89822" lon="5.68908">
        <ele>270.6</ele>
        <time>2020-03-04T08:15:50Z</time>
      </trkpt>
      <trkpt lat="46.89815" lon="5.68895">
        <ele>269.8</ele>
        <time>2020-03-04T08:15:51Z</time>
      </trkpt>
      <trkpt lat="46.89808" lon="5.68882">
        <ele>269</ele>
        <time>2020-03-04T08:15:52Z</time>
      </trkpt>
      <trkpt lat="46.89801" lon="5.6887">
        <ele>268.4</ele>
        <time>2020-03-04T08:15:53Z</time>
      </trkpt>
      <trkpt lat="46.89794" lon="5.68858">
        <ele>267.6</ele>
        <time>2020-03-04T08:15:54Z</time>
      </trkpt>
      <trkpt lat="46.89787" lon="5.68846">
        <ele>266.6</ele>
        <time>2020-03-04T08:15:55Z</time>
      </trkpt>
      <trkpt lat="46.89781" lon="5.68835">
        <ele>265.8</ele>
        <time>2020-03-04T08:15:56Z</time>
      </trkpt>
      <trkpt lat="46.89774" lon="5.68823">
        <ele>265</ele>
        <time>2020-03-04T08:15:57Z</time>
      </trkpt>
      <trkpt lat="46.89768" lon="5.68812">
        <ele>264.2</ele>
        <time>2020-03-04T08:15:58Z</time>
      </trkpt>
      <trkpt lat="46.89761" lon="5.68801">
        <ele>263.4</ele>
        <time>2020-03-04T08:15:59Z</time>
      </trkpt>
      <trkpt lat="46.89754" lon="5.6879">
        <ele>262.6</ele>
        <time>2020-03-04T08:16:00Z</time>
      </trkpt>
      <trkpt lat="46.89749" lon="5.68781">
        <ele>261.8</ele>
        <time>2020-03-04T08:16:01Z</time>
      </trkpt>
      <trkpt lat="46.89744" lon="5.68773">
        <ele>261</ele>
        <time>2020-03-04T08:16:02Z</time>
      </trkpt>
      <trkpt lat="46.8974" lon="5.68765">
        <ele>260.2</ele>
        <time>2020-03-04T08:16:03Z</time>
      </trkpt>
      <trkpt lat="46.89736" lon="5.68759">
        <ele>259.4</ele>
        <time>2020-03-04T08:16:04Z</time>
      </trkpt>
      <trkpt lat="46.89733" lon="5.68753">
        <ele>258.6</ele>
        <time>2020-03-04T08:16:05Z</time>
      </trkpt>
      <trkpt lat="46.8973" lon="5.68748">
        <ele>258</ele>
        <time>2020-03-04T08:16:06Z</time>
      </trkpt>
      <trkpt lat="46.89729" lon="5.68744">
        <ele>257.4</ele>
        <time>2020-03-04T08:16:07Z</time>
      </trkpt>
      <trkpt lat="46.89728" lon="5.68739">
        <ele>257</ele>
        <time>2020-03-04T08:16:08Z</time>
      </trkpt>
      <trkpt lat="46.89728" lon="5.68735">
        <ele>256.4</ele>
        <time>2020-03-04T08:16:09Z</time>
      </trkpt>
      <trkpt lat="46.89729" lon="5.68731">
        <ele>256</ele>
        <time>2020-03-04T08:16:10Z</time>
      </trkpt>
      <trkpt lat="46.8973" lon="5.68727">
        <ele>255.8</ele>
        <time>2020-03-04T08:16:11Z</time>
      </trkpt>
      <trkpt lat="46.89732" lon="5.68723">
        <ele>255.8</ele>
        <time>2020-03-04T08:16:12Z</time>
      </trkpt>
      <trkpt lat="46.89734" lon="5.68721">
        <ele>255.4</ele>
        <time>2020-03-04T08:16:13Z</time>
      </trkpt>
      <trkpt lat="46.89736" lon="5.68719">
        <ele>255.4</ele>
        <time>2020-03-04T08:16:14Z</time>
      </trkpt>
      <trkpt lat="46.89739" lon="5.68717">
        <ele>255.4</ele>
        <time>2020-03-04T08:16:15Z</time>
      </trkpt>
      <trkpt lat="46.89741" lon="5.68716">
        <ele>255.6</ele>
        <time>2020-03-04T08:16:16Z</time>
      </trkpt>
      <trkpt lat="46.89743" lon="5.68715">
        <ele>255.6</ele>
        <time>2020-03-04T08:16:17Z</time>
      </trkpt>
      <trkpt lat="46.89745" lon="5.68714">
        <ele>255.6</ele>
        <time>2020-03-04T08:16:18Z</time>
      </trkpt>
      <trkpt lat="46.89746" lon="5.68714">
        <ele>255.6</ele>
        <time>2020-03-04T08:16:19Z</time>
      </trkpt>
      <trkpt lat="46.89748" lon="5.68713">
        <ele>255.6</ele>
        <time>2020-03-04T08:16:20Z</time>
      </trkpt>
      <trkpt lat="46.89749" lon="5.68712">
        <ele>255.6</ele>
        <time>2020-03-04T08:16:21Z</time>
      </trkpt>
      <trkpt lat="46.89749" lon="5.6871">
        <ele>255.6</ele>
        <time>2020-03-04T08:16:22Z</time>
      </trkpt>
      <trkpt lat="46.89748" lon="5.68708">
        <ele>255.6</ele>
        <time>2020-03-04T08:16:23Z</time>
      </trkpt>
      <trkpt lat="46.89747" lon="5.68708">
        <ele>255.6</ele>
        <time>2020-03-04T08:16:24Z</time>
      </trkpt>
      <trkpt lat="46.89745" lon="5.68709">
        <ele>255.6</ele>
        <time>2020-03-04T08:16:25Z</time>
      </trkpt>
      <trkpt lat="46.89744" lon="5.68711">
        <ele>255.6</ele>
        <time>2020-03-04T08:16:26Z</time>
      </trkpt>
      <trkpt lat="46.89742" lon="5.68713">
        <ele>255.6</ele>
        <time>2020-03-04T08:16:27Z</time>
      </trkpt>
      <trkpt lat="46.8974" lon="5.68715">
        <ele>255.6</ele>
        <time>2020-03-04T08:16:28Z</time>
      </trkpt>
      <trkpt lat="46.89738" lon="5.68718">
        <ele>255.6</ele>
        <time>2020-03-04T08:16:29Z</time>
      </trkpt>
      <trkpt lat="46.89736" lon="5.68721">
        <ele>255.6</ele>
        <time>2020-03-04T08:16:30Z</time>
      </trkpt>
      <trkpt lat="46.89734" lon="5.68723">
        <ele>255.6</ele>
        <time>2020-03-04T08:16:31Z</time>
      </trkpt>
      <trkpt lat="46.89732" lon="5.68725">
        <ele>255.6</ele>
        <time>2020-03-04T08:16:32Z</time>
      </trkpt>
      <trkpt lat="46.8973" lon="5.68725">
        <ele>255.4</ele>
        <time>2020-03-04T08:16:33Z</time>
      </trkpt>
      <trkpt lat="46.89727" lon="5.68724">
        <ele>255.4</ele>
        <time>2020-03-04T08:16:34Z</time>
      </trkpt>
      <trkpt lat="46.89724" lon="5.6872">
        <ele>255</ele>
        <time>2020-03-04T08:16:35Z</time>
      </trkpt>
      <trkpt lat="46.89723" lon="5.68714">
        <ele>254.8</ele>
        <time>2020-03-04T08:16:36Z</time>
      </trkpt>
      <trkpt lat="46.89722" lon="5.68707">
        <ele>254.6</ele>
        <time>2020-03-04T08:16:37Z</time>
      </trkpt>
      <trkpt lat="46.89721" lon="5.687">
        <ele>254.2</ele>
        <time>2020-03-04T08:16:38Z</time>
      </trkpt>
      <trkpt lat="46.89719" lon="5.68692">
        <ele>254</ele>
        <time>2020-03-04T08:16:39Z</time>
      </trkpt>
      <trkpt lat="46.89718" lon="5.68684">
        <ele>253.8</ele>
        <time>2020-03-04T08:16:40Z</time>
      </trkpt>
      <trkpt lat="46.89716" lon="5.68675">
        <ele>253.6</ele>
        <time>2020-03-04T08:16:41Z</time>
      </trkpt>
      <trkpt lat="46.89715" lon="5.68666">
        <ele>253.6</ele>
        <time>2020-03-04T08:16:42Z</time>
      </trkpt>
      <trkpt lat="46.89714" lon="5.68657">
        <ele>253.2</ele>
        <time>2020-03-04T08:16:43Z</time>
      </trkpt>
      <trkpt lat="46.89712" lon="5.68647">
        <ele>253.2</ele>
        <time>2020-03-04T08:16:44Z</time>
      </trkpt>
      <trkpt lat="46.89711" lon="5.68637">
        <ele>252.8</ele>
        <time>2020-03-04T08:16:45Z</time>
      </trkpt>
      <trkpt lat="46.89709" lon="5.68627">
        <ele>252.8</ele>
        <time>2020-03-04T08:16:46Z</time>
      </trkpt>
      <trkpt lat="46.89707" lon="5.68617">
        <ele>252.4</ele>
        <time>2020-03-04T08:16:47Z</time>
      </trkpt>
      <trkpt lat="46.89706" lon="5.68607">
        <ele>252.4</ele>
        <time>2020-03-04T08:16:48Z</time>
      </trkpt>
      <trkpt lat="46.89705" lon="5.68597">
        <ele>252</ele>
        <time>2020-03-04T08:16:49Z</time>
      </trkpt>
      <trkpt lat="46.89703" lon="5.68586">
        <ele>251.8</ele>
        <time>2020-03-04T08:16:50Z</time>
      </trkpt>
      <trkpt lat="46.89701" lon="5.68576">
        <ele>251.8</ele>
        <time>2020-03-04T08:16:51Z</time>
      </trkpt>
      <trkpt lat="46.897" lon="5.68566">
        <ele>251.6</ele>
        <time>2020-03-04T08:16:52Z</time>
      </trkpt>
      <trkpt lat="46.89699" lon="5.68557">
        <ele>251.6</ele>
        <time>2020-03-04T08:16:53Z</time>
      </trkpt>
      <trkpt lat="46.89698" lon="5.68547">
        <ele>251.6</ele>
        <time>2020-03-04T08:16:54Z</time>
      </trkpt>
      <trkpt lat="46.89697" lon="5.68537">
        <ele>251.6</ele>
        <time>2020-03-04T08:16:55Z</time>
      </trkpt>
      <trkpt lat="46.89697" lon="5.68527">
        <ele>251.2</ele>
        <time>2020-03-04T08:16:56Z</time>
      </trkpt>
      <trkpt lat="46.89697" lon="5.68516">
        <ele>251.2</ele>
        <time>2020-03-04T08:16:57Z</time>
      </trkpt>
      <trkpt lat="46.89697" lon="5.68506">
        <ele>251</ele>
        <time>2020-03-04T08:16:58Z</time>
      </trkpt>
      <trkpt lat="46.89696" lon="5.68495">
        <ele>251</ele>
        <time>2020-03-04T08:16:59Z</time>
      </trkpt>
      <trkpt lat="46.89695" lon="5.68485">
        <ele>251</ele>
        <time>2020-03-04T08:17:00Z</time>
      </trkpt>
      <trkpt lat="46.89693" lon="5.68476">
        <ele>250.6</ele>
        <time>2020-03-04T08:17:01Z</time>
      </trkpt>
      <trkpt lat="46.8969" lon="5.68466">
        <ele>250.6</ele>
        <time>2020-03-04T08:17:02Z</time>
      </trkpt>
      <trkpt lat="46.89688" lon="5.68456">
        <ele>250.4</ele>
        <time>2020-03-04T08:17:03Z</time>
      </trkpt>
      <trkpt lat="46.89685" lon="5.68447">
        <ele>250.4</ele>
        <time>2020-03-04T08:17:04Z</time>
      </trkpt>
      <trkpt lat="46.89682" lon="5.68436">
        <ele>250.4</ele>
        <time>2020-03-04T08:17:05Z</time>
      </trkpt>
      <trkpt lat="46.89681" lon="5.68426">
        <ele>250.4</ele>
        <time>2020-03-04T08:17:06Z</time>
      </trkpt>
      <trkpt lat="46.89679" lon="5.68415">
        <ele>250.4</ele>
        <time>2020-03-04T08:17:07Z</time>
      </trkpt>
      <trkpt lat="46.89679" lon="5.68403">
        <ele>250.2</ele>
        <time>2020-03-04T08:17:08Z</time>
      </trkpt>
      <trkpt lat="46.89679" lon="5.68392">
        <ele>250.2</ele>
        <time>2020-03-04T08:17:09Z</time>
      </trkpt>
      <trkpt lat="46.8968" lon="5.68382">
        <ele>250.2</ele>
        <time>2020-03-04T08:17:10Z</time>
      </trkpt>
      <trkpt lat="46.89681" lon="5.68372">
        <ele>250.2</ele>
        <time>2020-03-04T08:17:11Z</time>
      </trkpt>
      <trkpt lat="46.89683" lon="5.68362">
        <ele>250.2</ele>
        <time>2020-03-04T08:17:12Z</time>
      </trkpt>
      <trkpt lat="46.89684" lon="5.68352">
        <ele>250.2</ele>
        <time>2020-03-04T08:17:13Z</time>
      </trkpt>
      <trkpt lat="46.89686" lon="5.68342">
        <ele>250.2</ele>
        <time>2020-03-04T08:17:14Z</time>
      </trkpt>
      <trkpt lat="46.89687" lon="5.68332">
        <ele>250.2</ele>
        <time>2020-03-04T08:17:15Z</time>
      </trkpt>
      <trkpt lat="46.89689" lon="5.68323">
        <ele>250.2</ele>
        <time>2020-03-04T08:17:16Z</time>
      </trkpt>
      <trkpt lat="46.89693" lon="5.68313">
        <ele>250.2</ele>
        <time>2020-03-04T08:17:17Z</time>
      </trkpt>
      <trkpt lat="46.89696" lon="5.68304">
        <ele>250.2</ele>
        <time>2020-03-04T08:17:18Z</time>
      </trkpt>
      <trkpt lat="46.897" lon="5.68295">
        <ele>250.2</ele>
        <time>2020-03-04T08:17:19Z</time>
      </trkpt>
      <trkpt lat="46.89705" lon="5.68286">
        <ele>250.2</ele>
        <time>2020-03-04T08:17:20Z</time>
      </trkpt>
      <trkpt lat="46.89709" lon="5.68277">
        <ele>250</ele>
        <time>2020-03-04T08:17:21Z</time>
      </trkpt>
      <trkpt lat="46.89713" lon="5.68268">
        <ele>250</ele>
        <time>2020-03-04T08:17:22Z</time>
      </trkpt>
      <trkpt lat="46.89718" lon="5.68259">
        <ele>250</ele>
        <time>2020-03-04T08:17:23Z</time>
      </trkpt>
      <trkpt lat="46.89722" lon="5.6825">
        <ele>250</ele>
        <time>2020-03-04T08:17:24Z</time>
      </trkpt>
      <trkpt lat="46.89726" lon="5.68241">
        <ele>249.8</ele>
        <time>2020-03-04T08:17:25Z</time>
      </trkpt>
      <trkpt lat="46.89731" lon="5.68232">
        <ele>249.8</ele>
        <time>2020-03-04T08:17:26Z</time>
      </trkpt>
      <trkpt lat="46.89735" lon="5.68223">
        <ele>249.8</ele>
        <time>2020-03-04T08:17:27Z</time>
      </trkpt>
      <trkpt lat="46.8974" lon="5.68214">
        <ele>249.8</ele>
        <time>2020-03-04T08:17:28Z</time>
      </trkpt>
      <trkpt lat="46.89744" lon="5.68205">
        <ele>249.8</ele>
        <time>2020-03-04T08:17:29Z</time>
      </trkpt>
      <trkpt lat="46.89748" lon="5.68196">
        <ele>249.8</ele>
        <time>2020-03-04T08:17:30Z</time>
      </trkpt>
      <trkpt lat="46.89751" lon="5.68186">
        <ele>249.6</ele>
        <time>2020-03-04T08:17:31Z</time>
      </trkpt>
      <trkpt lat="46.89755" lon="5.68177">
        <ele>249.6</ele>
        <time>2020-03-04T08:17:32Z</time>
      </trkpt>
      <trkpt lat="46.89758" lon="5.68168">
        <ele>249.6</ele>
        <time>2020-03-04T08:17:33Z</time>
      </trkpt>
      <trkpt lat="46.89762" lon="5.68159">
        <ele>249.6</ele>
        <time>2020-03-04T08:17:34Z</time>
      </trkpt>
      <trkpt lat="46.89766" lon="5.6815">
        <ele>249.6</ele>
        <time>2020-03-04T08:17:35Z</time>
      </trkpt>
      <trkpt lat="46.89769" lon="5.68141">
        <ele>249.6</ele>
        <time>2020-03-04T08:17:36Z</time>
      </trkpt>
      <trkpt lat="46.89772" lon="5.68132">
        <ele>249.6</ele>
        <time>2020-03-04T08:17:37Z</time>
      </trkpt>
      <trkpt lat="46.89774" lon="5.68122">
        <ele>249.2</ele>
        <time>2020-03-04T08:17:38Z</time>
      </trkpt>
      <trkpt lat="46.89776" lon="5.68113">
        <ele>249.2</ele>
        <time>2020-03-04T08:17:39Z</time>
      </trkpt>
      <trkpt lat="46.89777" lon="5.68103">
        <ele>249</ele>
        <time>2020-03-04T08:17:40Z</time>
      </trkpt>
      <trkpt lat="46.89778" lon="5.68093">
        <ele>249</ele>
        <time>2020-03-04T08:17:41Z</time>
      </trkpt>
      <trkpt lat="46.89779" lon="5.68083">
        <ele>249</ele>
        <time>2020-03-04T08:17:42Z</time>
      </trkpt>
      <trkpt lat="46.89779" lon="5.68074">
        <ele>249</ele>
        <time>2020-03-04T08:17:43Z</time>
      </trkpt>
      <trkpt lat="46.8978" lon="5.68064">
        <ele>249</ele>
        <time>2020-03-04T08:17:44Z</time>
      </trkpt>
      <trkpt lat="46.8978" lon="5.68055">
        <ele>249</ele>
        <time>2020-03-04T08:17:45Z</time>
      </trkpt>
      <trkpt lat="46.89781" lon="5.68045">
        <ele>249</ele>
        <time>2020-03-04T08:17:46Z</time>
      </trkpt>
      <trkpt lat="46.89781" lon="5.68036">
        <ele>249</ele>
        <time>2020-03-04T08:17:47Z</time>
      </trkpt>
      <trkpt lat="46.89781" lon="5.68026">
        <ele>249</ele>
        <time>2020-03-04T08:17:48Z</time>
      </trkpt>
      <trkpt lat="46.89782" lon="5.68017">
        <ele>249</ele>
        <time>2020-03-04T08:17:49Z</time>
      </trkpt>
      <trkpt lat="46.89781" lon="5.68008">
        <ele>249</ele>
        <time>2020-03-04T08:17:50Z</time>
      </trkpt>
      <trkpt lat="46.89781" lon="5.67999">
        <ele>249</ele>
        <time>2020-03-04T08:17:51Z</time>
      </trkpt>
      <trkpt lat="46.89781" lon="5.6799">
        <ele>249</ele>
        <time>2020-03-04T08:17:52Z</time>
      </trkpt>
      <trkpt lat="46.89781" lon="5.67981">
        <ele>249</ele>
        <time>2020-03-04T08:17:53Z</time>
      </trkpt>
      <trkpt lat="46.89781" lon="5.67972">
        <ele>249</ele>
        <time>2020-03-04T08:17:54Z</time>
      </trkpt>
      <trkpt lat="46.89781" lon="5.67963">
        <ele>249</ele>
        <time>2020-03-04T08:17:55Z</time>
      </trkpt>
      <trkpt lat="46.89782" lon="5.67955">
        <ele>249</ele>
        <time>2020-03-04T08:17:56Z</time>
      </trkpt>
      <trkpt lat="46.89782" lon="5.67947">
        <ele>249.2</ele>
        <time>2020-03-04T08:17:57Z</time>
      </trkpt>
      <trkpt lat="46.89782" lon="5.67939">
        <ele>249.2</ele>
        <time>2020-03-04T08:17:58Z</time>
      </trkpt>
      <trkpt lat="46.89782" lon="5.67931">
        <ele>249.6</ele>
        <time>2020-03-04T08:17:59Z</time>
      </trkpt>
      <trkpt lat="46.89782" lon="5.67923">
        <ele>249.6</ele>
        <time>2020-03-04T08:18:00Z</time>
      </trkpt>
      <trkpt lat="46.89783" lon="5.67916">
        <ele>249.8</ele>
        <time>2020-03-04T08:18:01Z</time>
      </trkpt>
      <trkpt lat="46.89784" lon="5.6791">
        <ele>250</ele>
        <time>2020-03-04T08:18:02Z</time>
      </trkpt>
      <trkpt lat="46.89785" lon="5.67903">
        <ele>250.4</ele>
        <time>2020-03-04T08:18:03Z</time>
      </trkpt>
      <trkpt lat="46.89786" lon="5.67897">
        <ele>250.6</ele>
        <time>2020-03-04T08:18:04Z</time>
      </trkpt>
      <trkpt lat="46.89787" lon="5.67892">
        <ele>250.8</ele>
        <time>2020-03-04T08:18:05Z</time>
      </trkpt>
      <trkpt lat="46.89788" lon="5.67886">
        <ele>251.2</ele>
        <time>2020-03-04T08:18:06Z</time>
      </trkpt>
      <trkpt lat="46.8979" lon="5.6788">
        <ele>251.4</ele>
        <time>2020-03-04T08:18:07Z</time>
      </trkpt>
      <trkpt lat="46.89791" lon="5.67875">
        <ele>251.8</ele>
        <time>2020-03-04T08:18:08Z</time>
      </trkpt>
      <trkpt lat="46.89792" lon="5.67869">
        <ele>252</ele>
        <time>2020-03-04T08:18:09Z</time>
      </trkpt>
      <trkpt lat="46.89794" lon="5.67864">
        <ele>252.4</ele>
        <time>2020-03-04T08:18:10Z</time>
      </trkpt>
      <trkpt lat="46.89795" lon="5.6786">
        <ele>252.6</ele>
        <time>2020-03-04T08:18:11Z</time>
      </trkpt>
      <trkpt lat="46.89797" lon="5.67856">
        <ele>253</ele>
        <time>2020-03-04T08:18:12Z</time>
      </trkpt>
      <trkpt lat="46.89798" lon="5.67852">
        <ele>253.4</ele>
        <time>2020-03-04T08:18:13Z</time>
      </trkpt>
      <trkpt lat="46.89799" lon="5.67849">
        <ele>253.6</ele>
        <time>2020-03-04T08:18:14Z</time>
      </trkpt>
      <trkpt lat="46.89801" lon="5.67845">
        <ele>253.8</ele>
        <time>2020-03-04T08:18:15Z</time>
      </trkpt>
      <trkpt lat="46.89803" lon="5.67841">
        <ele>254</ele>
        <time>2020-03-04T08:18:16Z</time>
      </trkpt>
      <trkpt lat="46.89804" lon="5.67838">
        <ele>254.4</ele>
        <time>2020-03-04T08:18:17Z</time>
      </trkpt>
      <trkpt lat="46.89806" lon="5.67834">
        <ele>254.8</ele>
        <time>2020-03-04T08:18:18Z</time>
      </trkpt>
      <trkpt lat="46.89807" lon="5.6783">
        <ele>255</ele>
        <time>2020-03-04T08:18:19Z</time>
      </trkpt>
      <trkpt lat="46.89808" lon="5.67826">
        <ele>255.2</ele>
        <time>2020-03-04T08:18:20Z</time>
      </trkpt>
      <trkpt lat="46.8981" lon="5.67822">
        <ele>255.6</ele>
        <time>2020-03-04T08:18:21Z</time>
      </trkpt>
      <trkpt lat="46.89811" lon="5.67819">
        <ele>255.8</ele>
        <time>2020-03-04T08:18:22Z</time>
      </trkpt>
      <trkpt lat="46.89812" lon="5.67815">
        <ele>256.2</ele>
        <time>2020-03-04T08:18:23Z</time>
      </trkpt>
      <trkpt lat="46.89813" lon="5.67811">
        <ele>256.4</ele>
        <time>2020-03-04T08:18:24Z</time>
      </trkpt>
      <trkpt lat="46.89814" lon="5.67808">
        <ele>256.6</ele>
        <time>2020-03-04T08:18:25Z</time>
      </trkpt>
      <trkpt lat="46.89816" lon="5.67804">
        <ele>257</ele>
        <time>2020-03-04T08:18:26Z</time>
      </trkpt>
      <trkpt lat="46.89817" lon="5.67801">
        <ele>257.2</ele>
        <time>2020-03-04T08:18:27Z</time>
      </trkpt>
      <trkpt lat="46.89819" lon="5.67797">
        <ele>257.4</ele>
        <time>2020-03-04T08:18:28Z</time>
      </trkpt>
      <trkpt lat="46.8982" lon="5.67794">
        <ele>257.8</ele>
        <time>2020-03-04T08:18:29Z</time>
      </trkpt>
      <trkpt lat="46.89821" lon="5.6779">
        <ele>258</ele>
        <time>2020-03-04T08:18:30Z</time>
      </trkpt>
      <trkpt lat="46.89822" lon="5.67786">
        <ele>258.2</ele>
        <time>2020-03-04T08:18:31Z</time>
      </trkpt>
      <trkpt lat="46.89823" lon="5.67782">
        <ele>258.6</ele>
        <time>2020-03-04T08:18:32Z</time>
      </trkpt>
      <trkpt lat="46.89824" lon="5.67778">
        <ele>258.8</ele>
        <time>2020-03-04T08:18:33Z</time>
      </trkpt>
      <trkpt lat="46.89825" lon="5.67774">
        <ele>259</ele>
        <time>2020-03-04T08:18:34Z</time>
      </trkpt>
      <trkpt lat="46.89826" lon="5.67771">
        <ele>259.6</ele>
        <time>2020-03-04T08:18:35Z</time>
      </trkpt>
      <trkpt lat="46.89827" lon="5.67767">
        <ele>259.8</ele>
        <time>2020-03-04T08:18:36Z</time>
      </trkpt>
      <trkpt lat="46.89827" lon="5.67763">
        <ele>259.8</ele>
        <time>2020-03-04T08:18:37Z</time>
      </trkpt>
      <trkpt lat="46.89828" lon="5.6776">
        <ele>260.2</ele>
        <time>2020-03-04T08:18:38Z</time>
      </trkpt>
      <trkpt lat="46.89828" lon="5.67756">
        <ele>260.4</ele>
        <time>2020-03-04T08:18:39Z</time>
      </trkpt>
      <trkpt lat="46.89829" lon="5.67753">
        <ele>260.8</ele>
        <time>2020-03-04T08:18:40Z</time>
      </trkpt>
      <trkpt lat="46.8983" lon="5.67749">
        <ele>261</ele>
        <time>2020-03-04T08:18:41Z</time>
      </trkpt>
      <trkpt lat="46.8983" lon="5.67745">
        <ele>261.4</ele>
        <time>2020-03-04T08:18:42Z</time>
      </trkpt>
      <trkpt lat="46.89831" lon="5.67742">
        <ele>261.6</ele>
        <time>2020-03-04T08:18:43Z</time>
      </trkpt>
      <trkpt lat="46.89832" lon="5.67738">
        <ele>261.8</ele>
        <time>2020-03-04T08:18:44Z</time>
      </trkpt>
      <trkpt lat="46.89833" lon="5.67735">
        <ele>262.2</ele>
        <time>2020-03-04T08:18:45Z</time>
      </trkpt>
      <trkpt lat="46.89834" lon="5.67732">
        <ele>262.2</ele>
        <time>2020-03-04T08:18:46Z</time>
      </trkpt>
      <trkpt lat="46.89834" lon="5.67729">
        <ele>262.6</ele>
        <time>2020-03-04T08:18:47Z</time>
      </trkpt>
      <trkpt lat="46.89835" lon="5.67726">
        <ele>262.8</ele>
        <time>2020-03-04T08:18:48Z</time>
      </trkpt>
      <trkpt lat="46.89836" lon="5.67723">
        <ele>263</ele>
        <time>2020-03-04T08:18:49Z</time>
      </trkpt>
      <trkpt lat="46.89837" lon="5.6772">
        <ele>263.2</ele>
        <time>2020-03-04T08:18:50Z</time>
      </trkpt>
      <trkpt lat="46.89838" lon="5.67717">
        <ele>263.6</ele>
        <time>2020-03-04T08:18:51Z</time>
      </trkpt>
      <trkpt lat="46.89839" lon="5.67714">
        <ele>263.8</ele>
        <time>2020-03-04T08:18:52Z</time>
      </trkpt>
      <trkpt lat="46.8984" lon="5.67711">
        <ele>264</ele>
        <time>2020-03-04T08:18:53Z</time>
      </trkpt>
      <trkpt lat="46.8984" lon="5.67708">
        <ele>264</ele>
        <time>2020-03-04T08:18:54Z</time>
      </trkpt>
      <trkpt lat="46.89841" lon="5.67705">
        <ele>264.4</ele>
        <time>2020-03-04T08:18:55Z</time>
      </trkpt>
      <trkpt lat="46.89843" lon="5.67702">
        <ele>264.4</ele>
        <time>2020-03-04T08:18:56Z</time>
      </trkpt>
      <trkpt lat="46.89844" lon="5.67699">
        <ele>264.6</ele>
        <time>2020-03-04T08:18:57Z</time>
      </trkpt>
      <trkpt lat="46.89845" lon="5.67696">
        <ele>264.6</ele>
        <time>2020-03-04T08:18:58Z</time>
      </trkpt>
      <trkpt lat="46.89846" lon="5.67693">
        <ele>265</ele>
        <time>2020-03-04T08:18:59Z</time>
      </trkpt>
      <trkpt lat="46.89847" lon="5.6769">
        <ele>265.2</ele>
        <time>2020-03-04T08:19:00Z</time>
      </trkpt>
      <trkpt lat="46.89848" lon="5.67688">
        <ele>265.2</ele>
        <time>2020-03-04T08:19:01Z</time>
      </trkpt>
      <trkpt lat="46.89849" lon="5.67685">
        <ele>265.6</ele>
        <time>2020-03-04T08:19:02Z</time>
      </trkpt>
      <trkpt lat="46.8985" lon="5.67682">
        <ele>266</ele>
        <time>2020-03-04T08:19:03Z</time>
      </trkpt>
      <trkpt lat="46.89851" lon="5.67679">
        <ele>266.2</ele>
        <time>2020-03-04T08:19:04Z</time>
      </trkpt>
      <trkpt lat="46.89852" lon="5.67677">
        <ele>266.2</ele>
        <time>2020-03-04T08:19:05Z</time>
      </trkpt>
      <trkpt lat="46.89853" lon="5.67674">
        <ele>266.6</ele>
        <time>2020-03-04T08:19:06Z</time>
      </trkpt>
      <trkpt lat="46.89854" lon="5.67671">
        <ele>266.6</ele>
        <time>2020-03-04T08:19:07Z</time>
      </trkpt>
      <trkpt lat="46.89855" lon="5.67669">
        <ele>267</ele>
        <time>2020-03-04T08:19:08Z</time>
      </trkpt>
      <trkpt lat="46.89856" lon="5.67666">
        <ele>267.2</ele>
        <time>2020-03-04T08:19:09Z</time>
      </trkpt>
      <trkpt lat="46.89858" lon="5.67664">
        <ele>267.4</ele>
        <time>2020-03-04T08:19:10Z</time>
      </trkpt>
      <trkpt lat="46.89859" lon="5.67661">
        <ele>267.6</ele>
        <time>2020-03-04T08:19:11Z</time>
      </trkpt>
      <trkpt lat="46.8986" lon="5.67658">
        <ele>267.8</ele>
        <time>2020-03-04T08:19:12Z</time>
      </trkpt>
      <trkpt lat="46.89861" lon="5.67655">
        <ele>267.8</ele>
        <time>2020-03-04T08:19:13Z</time>
      </trkpt>
      <trkpt lat="46.89862" lon="5.67652">
        <ele>268</ele>
        <time>2020-03-04T08:19:14Z</time>
      </trkpt>
      <trkpt lat="46.89863" lon="5.6765">
        <ele>268.4</ele>
        <time>2020-03-04T08:19:15Z</time>
      </trkpt>
      <trkpt lat="46.89864" lon="5.67647">
        <ele>268.6</ele>
        <time>2020-03-04T08:19:16Z</time>
      </trkpt>
      <trkpt lat="46.89865" lon="5.67645">
        <ele>268.8</ele>
        <time>2020-03-04T08:19:17Z</time>
      </trkpt>
      <trkpt lat="46.89865" lon="5.67642">
        <ele>268.8</ele>
        <time>2020-03-04T08:19:18Z</time>
      </trkpt>
      <trkpt lat="46.89866" lon="5.67639">
        <ele>269.2</ele>
        <time>2020-03-04T08:19:19Z</time>
      </trkpt>
      <trkpt lat="46.89867" lon="5.67636">
        <ele>269.4</ele>
        <time>2020-03-04T08:19:20Z</time>
      </trkpt>
      <trkpt lat="46.89868" lon="5.67633">
        <ele>269.4</ele>
        <time>2020-03-04T08:19:21Z</time>
      </trkpt>
      <trkpt lat="46.89869" lon="5.6763">
        <ele>269.6</ele>
        <time>2020-03-04T08:19:22Z</time>
      </trkpt>
      <trkpt lat="46.8987" lon="5.67628">
        <ele>270</ele>
        <time>2020-03-04T08:19:23Z</time>
      </trkpt>
      <trkpt lat="46.89871" lon="5.67625">
        <ele>270.2</ele>
        <time>2020-03-04T08:19:24Z</time>
      </trkpt>
      <trkpt lat="46.89872" lon="5.67622">
        <ele>270.2</ele>
        <time>2020-03-04T08:19:25Z</time>
      </trkpt>
      <trkpt lat="46.89874" lon="5.6762">
        <ele>270.6</ele>
        <time>2020-03-04T08:19:26Z</time>
      </trkpt>
      <trkpt lat="46.89875" lon="5.67617">
        <ele>270.6</ele>
        <time>2020-03-04T08:19:27Z</time>
      </trkpt>
      <trkpt lat="46.89876" lon="5.67614">
        <ele>271</ele>
        <time>2020-03-04T08:19:28Z</time>
      </trkpt>
      <trkpt lat="46.89877" lon="5.67612">
        <ele>271.2</ele>
        <time>2020-03-04T08:19:29Z</time>
      </trkpt>
      <trkpt lat="46.89878" lon="5.67609">
        <ele>271.4</ele>
        <time>2020-03-04T08:19:30Z</time>
      </trkpt>
      <trkpt lat="46.89879" lon="5.67607">
        <ele>271.4</ele>
        <time>2020-03-04T08:19:31Z</time>
      </trkpt>
      <trkpt lat="46.8988" lon="5.67604">
        <ele>271.6</ele>
        <time>2020-03-04T08:19:32Z</time>
      </trkpt>
      <trkpt lat="46.89881" lon="5.67601">
        <ele>271.6</ele>
        <time>2020-03-04T08:19:33Z</time>
      </trkpt>
      <trkpt lat="46.89882" lon="5.67598">
        <ele>271.8</ele>
        <time>2020-03-04T08:19:34Z</time>
      </trkpt>
      <trkpt lat="46.89883" lon="5.67595">
        <ele>271.8</ele>
        <time>2020-03-04T08:19:35Z</time>
      </trkpt>
      <trkpt lat="46.89884" lon="5.67592">
        <ele>272.2</ele>
        <time>2020-03-04T08:19:36Z</time>
      </trkpt>
      <trkpt lat="46.89885" lon="5.67589">
        <ele>272.2</ele>
        <time>2020-03-04T08:19:37Z</time>
      </trkpt>
      <trkpt lat="46.89886" lon="5.67586">
        <ele>272.4</ele>
        <time>2020-03-04T08:19:38Z</time>
      </trkpt>
      <trkpt lat="46.89887" lon="5.67583">
        <ele>272.4</ele>
        <time>2020-03-04T08:19:39Z</time>
      </trkpt>
      <trkpt lat="46.89888" lon="5.6758">
        <ele>272.6</ele>
        <time>2020-03-04T08:19:40Z</time>
      </trkpt>
      <trkpt lat="46.89889" lon="5.67576">
        <ele>272.6</ele>
        <time>2020-03-04T08:19:41Z</time>
      </trkpt>
      <trkpt lat="46.89891" lon="5.67573">
        <ele>272.8</ele>
        <time>2020-03-04T08:19:42Z</time>
      </trkpt>
      <trkpt lat="46.89892" lon="5.67569">
        <ele>272.8</ele>
        <time>2020-03-04T08:19:43Z</time>
      </trkpt>
      <trkpt lat="46.89893" lon="5.67565">
        <ele>272.8</ele>
        <time>2020-03-04T08:19:44Z</time>
      </trkpt>
      <trkpt lat="46.89895" lon="5.67561">
        <ele>272.8</ele>
        <time>2020-03-04T08:19:45Z</time>
      </trkpt>
      <trkpt lat="46.89896" lon="5.67556">
        <ele>272.8</ele>
        <time>2020-03-04T08:19:46Z</time>
      </trkpt>
      <trkpt lat="46.89897" lon="5.6755">
        <ele>272.8</ele>
        <time>2020-03-04T08:19:47Z</time>
      </trkpt>
      <trkpt lat="46.89899" lon="5.67544">
        <ele>272.8</ele>
        <time>2020-03-04T08:19:48Z</time>
      </trkpt>
      <trkpt lat="46.899" lon="5.67537">
        <ele>272.8</ele>
        <time>2020-03-04T08:19:49Z</time>
      </trkpt>
      <trkpt lat="46.899" lon="5.6753">
        <ele>272.6</ele>
        <time>2020-03-04T08:19:50Z</time>
      </trkpt>
      <trkpt lat="46.89901" lon="5.67523">
        <ele>272.6</ele>
        <time>2020-03-04T08:19:51Z</time>
      </trkpt>
      <trkpt lat="46.89901" lon="5.67516">
        <ele>272.2</ele>
        <time>2020-03-04T08:19:52Z</time>
      </trkpt>
      <trkpt lat="46.89901" lon="5.67508">
        <ele>272</ele>
        <time>2020-03-04T08:19:53Z</time>
      </trkpt>
      <trkpt lat="46.89901" lon="5.675">
        <ele>271.6</ele>
        <time>2020-03-04T08:19:54Z</time>
      </trkpt>
      <trkpt lat="46.89901" lon="5.67492">
        <ele>271.6</ele>
        <time>2020-03-04T08:19:55Z</time>
      </trkpt>
      <trkpt lat="46.89902" lon="5.67483">
        <ele>271.2</ele>
        <time>2020-03-04T08:19:56Z</time>
      </trkpt>
      <trkpt lat="46.89902" lon="5.67474">
        <ele>271</ele>
        <time>2020-03-04T08:19:57Z</time>
      </trkpt>
      <trkpt lat="46.89902" lon="5.67465">
        <ele>270.8</ele>
        <time>2020-03-04T08:19:58Z</time>
      </trkpt>
      <trkpt lat="46.89903" lon="5.67455">
        <ele>270.4</ele>
        <time>2020-03-04T08:19:59Z</time>
      </trkpt>
      <trkpt lat="46.89903" lon="5.67445">
        <ele>270.2</ele>
        <time>2020-03-04T08:20:00Z</time>
      </trkpt>
      <trkpt lat="46.89904" lon="5.67435">
        <ele>269.8</ele>
        <time>2020-03-04T08:20:01Z</time>
      </trkpt>
      <trkpt lat="46.89905" lon="5.67423">
        <ele>269.2</ele>
        <time>2020-03-04T08:20:02Z</time>
      </trkpt>
      <trkpt lat="46.89906" lon="5.67412">
        <ele>268.8</ele>
        <time>2020-03-04T08:20:03Z</time>
      </trkpt>
      <trkpt lat="46.89908" lon="5.674">
        <ele>268.4</ele>
        <time>2020-03-04T08:20:04Z</time>
      </trkpt>
      <trkpt lat="46.8991" lon="5.67389">
        <ele>268</ele>
        <time>2020-03-04T08:20:05Z</time>
      </trkpt>
      <trkpt lat="46.89912" lon="5.67377">
        <ele>267.8</ele>
        <time>2020-03-04T08:20:06Z</time>
      </trkpt>
      <trkpt lat="46.89914" lon="5.67365">
        <ele>267.6</ele>
        <time>2020-03-04T08:20:07Z</time>
      </trkpt>
      <trkpt lat="46.89915" lon="5.67354">
        <ele>267.2</ele>
        <time>2020-03-04T08:20:08Z</time>
      </trkpt>
      <trkpt lat="46.89916" lon="5.67342">
        <ele>267</ele>
        <time>2020-03-04T08:20:09Z</time>
      </trkpt>
      <trkpt lat="46.89916" lon="5.6733">
        <ele>266.8</ele>
        <time>2020-03-04T08:20:10Z</time>
      </trkpt>
      <trkpt lat="46.89915" lon="5.67318">
        <ele>266.8</ele>
        <time>2020-03-04T08:20:11Z</time>
      </trkpt>
      <trkpt lat="46.89914" lon="5.67307">
        <ele>266.4</ele>
        <time>2020-03-04T08:20:12Z</time>
      </trkpt>
      <trkpt lat="46.89912" lon="5.67296">
        <ele>266.4</ele>
        <time>2020-03-04T08:20:13Z</time>
      </trkpt>
      <trkpt lat="46.8991" lon="5.67285">
        <ele>266.4</ele>
        <time>2020-03-04T08:20:14Z</time>
      </trkpt>
      <trkpt lat="46.89908" lon="5.67275">
        <ele>266.4</ele>
        <time>2020-03-04T08:20:15Z</time>
      </trkpt>
      <trkpt lat="46.89905" lon="5.67266">
        <ele>266.4</ele>
        <time>2020-03-04T08:20:16Z</time>
      </trkpt>
      <trkpt lat="46.89902" lon="5.67258">
        <ele>266.8</ele>
        <time>2020-03-04T08:20:17Z</time>
      </trkpt>
      <trkpt lat="46.89899" lon="5.6725">
        <ele>267</ele>
        <time>2020-03-04T08:20:18Z</time>
      </trkpt>
      <trkpt lat="46.89896" lon="5.67243">
        <ele>267</ele>
        <time>2020-03-04T08:20:19Z</time>
      </trkpt>
      <trkpt lat="46.89893" lon="5.67236">
        <ele>267.4</ele>
        <time>2020-03-04T08:20:20Z</time>
      </trkpt>
      <trkpt lat="46.8989" lon="5.6723">
        <ele>267.6</ele>
        <time>2020-03-04T08:20:21Z</time>
      </trkpt>
      <trkpt lat="46.89887" lon="5.67225">
        <ele>267.6</ele>
        <time>2020-03-04T08:20:22Z</time>
      </trkpt>
      <trkpt lat="46.89885" lon="5.67219">
        <ele>267.8</ele>
        <time>2020-03-04T08:20:23Z</time>
      </trkpt>
      <trkpt lat="46.89882" lon="5.67214">
        <ele>267.8</ele>
        <time>2020-03-04T08:20:24Z</time>
      </trkpt>
      <trkpt lat="46.89879" lon="5.67209">
        <ele>268.2</ele>
        <time>2020-03-04T08:20:25Z</time>
      </trkpt>
      <trkpt lat="46.89876" lon="5.67204">
        <ele>268.2</ele>
        <time>2020-03-04T08:20:26Z</time>
      </trkpt>
      <trkpt lat="46.89874" lon="5.67199">
        <ele>268.4</ele>
        <time>2020-03-04T08:20:27Z</time>
      </trkpt>
      <trkpt lat="46.89871" lon="5.67194">
        <ele>268.4</ele>
        <time>2020-03-04T08:20:28Z</time>
      </trkpt>
      <trkpt lat="46.89868" lon="5.67189">
        <ele>269</ele>
        <time>2020-03-04T08:20:29Z</time>
      </trkpt>
      <trkpt lat="46.89865" lon="5.67184">
        <ele>269</ele>
        <time>2020-03-04T08:20:30Z</time>
      </trkpt>
      <trkpt lat="46.89862" lon="5.67179">
        <ele>269</ele>
        <time>2020-03-04T08:20:31Z</time>
      </trkpt>
      <trkpt lat="46.8986" lon="5.67173">
        <ele>269.2</ele>
        <time>2020-03-04T08:20:32Z</time>
      </trkpt>
      <trkpt lat="46.89857" lon="5.67168">
        <ele>269.2</ele>
        <time>2020-03-04T08:20:33Z</time>
      </trkpt>
      <trkpt lat="46.89854" lon="5.67163">
        <ele>269.4</ele>
        <time>2020-03-04T08:20:34Z</time>
      </trkpt>
      <trkpt lat="46.89851" lon="5.67158">
        <ele>269.4</ele>
        <time>2020-03-04T08:20:35Z</time>
      </trkpt>
      <trkpt lat="46.89848" lon="5.67154">
        <ele>269.8</ele>
        <time>2020-03-04T08:20:36Z</time>
      </trkpt>
      <trkpt lat="46.89845" lon="5.67149">
        <ele>269.8</ele>
        <time>2020-03-04T08:20:37Z</time>
      </trkpt>
      <trkpt lat="46.89843" lon="5.67145">
        <ele>270.2</ele>
        <time>2020-03-04T08:20:38Z</time>
      </trkpt>
      <trkpt lat="46.8984" lon="5.6714">
        <ele>270.4</ele>
        <time>2020-03-04T08:20:39Z</time>
      </trkpt>
      <trkpt lat="46.89838" lon="5.67135">
        <ele>270.4</ele>
        <time>2020-03-04T08:20:40Z</time>
      </trkpt>
      <trkpt lat="46.89836" lon="5.6713">
        <ele>270.8</ele>
        <time>2020-03-04T08:20:41Z</time>
      </trkpt>
      <trkpt lat="46.89833" lon="5.67125">
        <ele>271</ele>
        <time>2020-03-04T08:20:42Z</time>
      </trkpt>
      <trkpt lat="46.89831" lon="5.6712">
        <ele>271</ele>
        <time>2020-03-04T08:20:43Z</time>
      </trkpt>
      <trkpt lat="46.89829" lon="5.67115">
        <ele>271.4</ele>
        <time>2020-03-04T08:20:44Z</time>
      </trkpt>
      <trkpt lat="46.89827" lon="5.6711">
        <ele>271.6</ele>
        <time>2020-03-04T08:20:45Z</time>
      </trkpt>
      <trkpt lat="46.89825" lon="5.67105">
        <ele>271.6</ele>
        <time>2020-03-04T08:20:46Z</time>
      </trkpt>
      <trkpt lat="46.89823" lon="5.67099">
        <ele>271.6</ele>
        <time>2020-03-04T08:20:47Z</time>
      </trkpt>
      <trkpt lat="46.89821" lon="5.67094">
        <ele>272</ele>
        <time>2020-03-04T08:20:48Z</time>
      </trkpt>
      <trkpt lat="46.8982" lon="5.67088">
        <ele>272.2</ele>
        <time>2020-03-04T08:20:49Z</time>
      </trkpt>
      <trkpt lat="46.89819" lon="5.67083">
        <ele>272.6</ele>
        <time>2020-03-04T08:20:50Z</time>
      </trkpt>
      <trkpt lat="46.89819" lon="5.67078">
        <ele>272.8</ele>
        <time>2020-03-04T08:20:51Z</time>
      </trkpt>
      <trkpt lat="46.8982" lon="5.67072">
        <ele>273.2</ele>
        <time>2020-03-04T08:20:52Z</time>
      </trkpt>
      <trkpt lat="46.8982" lon="5.67068">
        <ele>273.4</ele>
        <time>2020-03-04T08:20:53Z</time>
      </trkpt>
      <trkpt lat="46.89821" lon="5.67064">
        <ele>273.8</ele>
        <time>2020-03-04T08:20:54Z</time>
      </trkpt>
      <trkpt lat="46.89822" lon="5.67059">
        <ele>274.2</ele>
        <time>2020-03-04T08:20:55Z</time>
      </trkpt>
      <trkpt lat="46.89822" lon="5.67054">
        <ele>274.6</ele>
        <time>2020-03-04T08:20:56Z</time>
      </trkpt>
      <trkpt lat="46.89823" lon="5.67049">
        <ele>274.8</ele>
        <time>2020-03-04T08:20:57Z</time>
      </trkpt>
      <trkpt lat="46.89824" lon="5.67045">
        <ele>275.2</ele>
        <time>2020-03-04T08:20:58Z</time>
      </trkpt>
      <trkpt lat="46.89825" lon="5.67041">
        <ele>275.4</ele>
        <time>2020-03-04T08:20:59Z</time>
      </trkpt>
      <trkpt lat="46.89826" lon="5.67037">
        <ele>275.6</ele>
        <time>2020-03-04T08:21:00Z</time>
      </trkpt>
      <trkpt lat="46.89827" lon="5.67032">
        <ele>275.6</ele>
        <time>2020-03-04T08:21:01Z</time>
      </trkpt>
      <trkpt lat="46.89827" lon="5.67028">
        <ele>276</ele>
        <time>2020-03-04T08:21:02Z</time>
      </trkpt>
      <trkpt lat="46.89828" lon="5.67023">
        <ele>276</ele>
        <time>2020-03-04T08:21:03Z</time>
      </trkpt>
      <trkpt lat="46.89829" lon="5.67018">
        <ele>276</ele>
        <time>2020-03-04T08:21:04Z</time>
      </trkpt>
      <trkpt lat="46.8983" lon="5.67013">
        <ele>276</ele>
        <time>2020-03-04T08:21:05Z</time>
      </trkpt>
      <trkpt lat="46.89831" lon="5.67008">
        <ele>276</ele>
        <time>2020-03-04T08:21:06Z</time>
      </trkpt>
      <trkpt lat="46.89832" lon="5.67003">
        <ele>276</ele>
        <time>2020-03-04T08:21:07Z</time>
      </trkpt>
      <trkpt lat="46.89833" lon="5.66997">
        <ele>276</ele>
        <time>2020-03-04T08:21:08Z</time>
      </trkpt>
      <trkpt lat="46.89833" lon="5.66991">
        <ele>276</ele>
        <time>2020-03-04T08:21:09Z</time>
      </trkpt>
      <trkpt lat="46.89834" lon="5.66984">
        <ele>276</ele>
        <time>2020-03-04T08:21:10Z</time>
      </trkpt>
      <trkpt lat="46.89834" lon="5.66977">
        <ele>275.8</ele>
        <time>2020-03-04T08:21:11Z</time>
      </trkpt>
      <trkpt lat="46.89835" lon="5.6697">
        <ele>275.8</ele>
        <time>2020-03-04T08:21:12Z</time>
      </trkpt>
      <trkpt lat="46.89835" lon="5.66962">
        <ele>275.4</ele>
        <time>2020-03-04T08:21:13Z</time>
      </trkpt>
      <trkpt lat="46.89836" lon="5.66954">
        <ele>275.2</ele>
        <time>2020-03-04T08:21:14Z</time>
      </trkpt>
      <trkpt lat="46.89836" lon="5.66946">
        <ele>275</ele>
        <time>2020-03-04T08:21:15Z</time>
      </trkpt>
      <trkpt lat="46.89836" lon="5.66937">
        <ele>274.8</ele>
        <time>2020-03-04T08:21:16Z</time>
      </trkpt>
      <trkpt lat="46.89835" lon="5.66928">
        <ele>274.8</ele>
        <time>2020-03-04T08:21:17Z</time>
      </trkpt>
      <trkpt lat="46.89834" lon="5.6692">
        <ele>274.4</ele>
        <time>2020-03-04T08:21:18Z</time>
      </trkpt>
      <trkpt lat="46.89832" lon="5.66912">
        <ele>274.4</ele>
        <time>2020-03-04T08:21:19Z</time>
      </trkpt>
      <trkpt lat="46.8983" lon="5.66904">
        <ele>274.2</ele>
        <time>2020-03-04T08:21:20Z</time>
      </trkpt>
      <trkpt lat="46.89827" lon="5.66896">
        <ele>274.2</ele>
        <time>2020-03-04T08:21:21Z</time>
      </trkpt>
      <trkpt lat="46.89825" lon="5.66888">
        <ele>273.8</ele>
        <time>2020-03-04T08:21:22Z</time>
      </trkpt>
      <trkpt lat="46.89823" lon="5.66881">
        <ele>273.8</ele>
        <time>2020-03-04T08:21:23Z</time>
      </trkpt>
      <trkpt lat="46.89821" lon="5.66874">
        <ele>273.8</ele>
        <time>2020-03-04T08:21:24Z</time>
      </trkpt>
      <trkpt lat="46.89819" lon="5.66866">
        <ele>273.6</ele>
        <time>2020-03-04T08:21:25Z</time>
      </trkpt>
      <trkpt lat="46.89818" lon="5.66858">
        <ele>273.6</ele>
        <time>2020-03-04T08:21:26Z</time>
      </trkpt>
      <trkpt lat="46.89816" lon="5.6685">
        <ele>273.6</ele>
        <time>2020-03-04T08:21:27Z</time>
      </trkpt>
      <trkpt lat="46.89814" lon="5.66842">
        <ele>273.4</ele>
        <time>2020-03-04T08:21:28Z</time>
      </trkpt>
      <trkpt lat="46.89813" lon="5.66834">
        <ele>273.4</ele>
        <time>2020-03-04T08:21:29Z</time>
      </trkpt>
      <trkpt lat="46.89811" lon="5.66825">
        <ele>273.2</ele>
        <time>2020-03-04T08:21:30Z</time>
      </trkpt>
      <trkpt lat="46.8981" lon="5.66817">
        <ele>273.2</ele>
        <time>2020-03-04T08:21:31Z</time>
      </trkpt>
      <trkpt lat="46.89809" lon="5.66808">
        <ele>272.8</ele>
        <time>2020-03-04T08:21:32Z</time>
      </trkpt>
      <trkpt lat="46.89809" lon="5.668">
        <ele>272.8</ele>
        <time>2020-03-04T08:21:33Z</time>
      </trkpt>
      <trkpt lat="46.89808" lon="5.66791">
        <ele>272.6</ele>
        <time>2020-03-04T08:21:34Z</time>
      </trkpt>
      <trkpt lat="46.89808" lon="5.66782">
        <ele>272.6</ele>
        <time>2020-03-04T08:21:35Z</time>
      </trkpt>
      <trkpt lat="46.89808" lon="5.66773">
        <ele>272.4</ele>
        <time>2020-03-04T08:21:36Z</time>
      </trkpt>
      <trkpt lat="46.89807" lon="5.66764">
        <ele>272.4</ele>
        <time>2020-03-04T08:21:37Z</time>
      </trkpt>
      <trkpt lat="46.89807" lon="5.66755">
        <ele>272</ele>
        <time>2020-03-04T08:21:38Z</time>
      </trkpt>
      <trkpt lat="46.89806" lon="5.66747">
        <ele>272</ele>
        <time>2020-03-04T08:21:39Z</time>
      </trkpt>
      <trkpt lat="46.89806" lon="5.66738">
        <ele>272</ele>
        <time>2020-03-04T08:21:40Z</time>
      </trkpt>
      <trkpt lat="46.89805" lon="5.66729">
        <ele>271.8</ele>
        <time>2020-03-04T08:21:41Z</time>
      </trkpt>
      <trkpt lat="46.89805" lon="5.66721">
        <ele>271.8</ele>
        <time>2020-03-04T08:21:42Z</time>
      </trkpt>
      <trkpt lat="46.89804" lon="5.66712">
        <ele>271.6</ele>
        <time>2020-03-04T08:21:43Z</time>
      </trkpt>
      <trkpt lat="46.89804" lon="5.66703">
        <ele>271.6</ele>
        <time>2020-03-04T08:21:44Z</time>
      </trkpt>
      <trkpt lat="46.89803" lon="5.66693">
        <ele>271.2</ele>
        <time>2020-03-04T08:21:45Z</time>
      </trkpt>
      <trkpt lat="46.89802" lon="5.66684">
        <ele>271.2</ele>
        <time>2020-03-04T08:21:46Z</time>
      </trkpt>
      <trkpt lat="46.89802" lon="5.66675">
        <ele>271.2</ele>
        <time>2020-03-04T08:21:47Z</time>
      </trkpt>
      <trkpt lat="46.89801" lon="5.66665">
        <ele>271.2</ele>
        <time>2020-03-04T08:21:48Z</time>
      </trkpt>
      <trkpt lat="46.898" lon="5.66656">
        <ele>271</ele>
        <time>2020-03-04T08:21:49Z</time>
      </trkpt>
      <trkpt lat="46.89799" lon="5.66646">
        <ele>271</ele>
        <time>2020-03-04T08:21:50Z</time>
      </trkpt>
      <trkpt lat="46.89798" lon="5.66637">
        <ele>270.6</ele>
        <time>2020-03-04T08:21:51Z</time>
      </trkpt>
      <trkpt lat="46.89797" lon="5.66628">
        <ele>270.6</ele>
        <time>2020-03-04T08:21:52Z</time>
      </trkpt>
      <trkpt lat="46.89796" lon="5.6662">
        <ele>270.6</ele>
        <time>2020-03-04T08:21:53Z</time>
      </trkpt>
      <trkpt lat="46.89796" lon="5.66611">
        <ele>270.6</ele>
        <time>2020-03-04T08:21:54Z</time>
      </trkpt>
      <trkpt lat="46.89795" lon="5.66603">
        <ele>270.4</ele>
        <time>2020-03-04T08:21:55Z</time>
      </trkpt>
      <trkpt lat="46.89795" lon="5.66595">
        <ele>270.4</ele>
        <time>2020-03-04T08:21:56Z</time>
      </trkpt>
      <trkpt lat="46.89794" lon="5.66587">
        <ele>270.4</ele>
        <time>2020-03-04T08:21:57Z</time>
      </trkpt>
      <trkpt lat="46.89793" lon="5.66579">
        <ele>270.2</ele>
        <time>2020-03-04T08:21:58Z</time>
      </trkpt>
      <trkpt lat="46.89793" lon="5.6657">
        <ele>270.2</ele>
        <time>2020-03-04T08:21:59Z</time>
      </trkpt>
      <trkpt lat="46.89792" lon="5.66562">
        <ele>269.8</ele>
        <time>2020-03-04T08:22:00Z</time>
      </trkpt>
      <trkpt lat="46.89791" lon="5.66552">
        <ele>269.6</ele>
        <time>2020-03-04T08:22:01Z</time>
      </trkpt>
      <trkpt lat="46.89789" lon="5.66542">
        <ele>269.2</ele>
        <time>2020-03-04T08:22:02Z</time>
      </trkpt>
      <trkpt lat="46.89787" lon="5.66532">
        <ele>268.8</ele>
        <time>2020-03-04T08:22:03Z</time>
      </trkpt>
      <trkpt lat="46.89785" lon="5.66522">
        <ele>268.4</ele>
        <time>2020-03-04T08:22:04Z</time>
      </trkpt>
      <trkpt lat="46.89782" lon="5.66512">
        <ele>268</ele>
        <time>2020-03-04T08:22:05Z</time>
      </trkpt>
      <trkpt lat="46.89779" lon="5.66502">
        <ele>267.6</ele>
        <time>2020-03-04T08:22:06Z</time>
      </trkpt>
      <trkpt lat="46.89776" lon="5.66492">
        <ele>267.2</ele>
        <time>2020-03-04T08:22:07Z</time>
      </trkpt>
      <trkpt lat="46.89773" lon="5.66482">
        <ele>267</ele>
        <time>2020-03-04T08:22:08Z</time>
      </trkpt>
      <trkpt lat="46.8977" lon="5.66472">
        <ele>266.6</ele>
        <time>2020-03-04T08:22:09Z</time>
      </trkpt>
      <trkpt lat="46.89767" lon="5.66461">
        <ele>266.2</ele>
        <time>2020-03-04T08:22:10Z</time>
      </trkpt>
      <trkpt lat="46.89764" lon="5.6645">
        <ele>265.8</ele>
        <time>2020-03-04T08:22:11Z</time>
      </trkpt>
      <trkpt lat="46.89761" lon="5.66439">
        <ele>265.4</ele>
        <time>2020-03-04T08:22:12Z</time>
      </trkpt>
      <trkpt lat="46.89759" lon="5.66428">
        <ele>265.2</ele>
        <time>2020-03-04T08:22:13Z</time>
      </trkpt>
      <trkpt lat="46.89757" lon="5.66417">
        <ele>265</ele>
        <time>2020-03-04T08:22:14Z</time>
      </trkpt>
      <trkpt lat="46.89756" lon="5.66406">
        <ele>264.8</ele>
        <time>2020-03-04T08:22:15Z</time>
      </trkpt>
      <trkpt lat="46.89755" lon="5.66395">
        <ele>264.8</ele>
        <time>2020-03-04T08:22:16Z</time>
      </trkpt>
      <trkpt lat="46.89754" lon="5.66385">
        <ele>264.8</ele>
        <time>2020-03-04T08:22:17Z</time>
      </trkpt>
      <trkpt lat="46.89751" lon="5.66376">
        <ele>264.8</ele>
        <time>2020-03-04T08:22:18Z</time>
      </trkpt>
      <trkpt lat="46.89748" lon="5.66368">
        <ele>264.8</ele>
        <time>2020-03-04T08:22:19Z</time>
      </trkpt>
      <trkpt lat="46.89743" lon="5.66361">
        <ele>264.8</ele>
        <time>2020-03-04T08:22:20Z</time>
      </trkpt>
      <trkpt lat="46.89738" lon="5.66354">
        <ele>264.6</ele>
        <time>2020-03-04T08:22:21Z</time>
      </trkpt>
      <trkpt lat="46.89732" lon="5.66348">
        <ele>264.6</ele>
        <time>2020-03-04T08:22:22Z</time>
      </trkpt>
      <trkpt lat="46.89726" lon="5.66342">
        <ele>264.2</ele>
        <time>2020-03-04T08:22:23Z</time>
      </trkpt>
      <trkpt lat="46.8972" lon="5.66335">
        <ele>264.2</ele>
        <time>2020-03-04T08:22:24Z</time>
      </trkpt>
      <trkpt lat="46.89715" lon="5.66328">
        <ele>263.8</ele>
        <time>2020-03-04T08:22:25Z</time>
      </trkpt>
      <trkpt lat="46.89709" lon="5.66321">
        <ele>263.6</ele>
        <time>2020-03-04T08:22:26Z</time>
      </trkpt>
      <trkpt lat="46.89703" lon="5.66315">
        <ele>263.4</ele>
        <time>2020-03-04T08:22:27Z</time>
      </trkpt>
      <trkpt lat="46.89697" lon="5.66307">
        <ele>263.2</ele>
        <time>2020-03-04T08:22:28Z</time>
      </trkpt>
      <trkpt lat="46.89691" lon="5.663">
        <ele>262.8</ele>
        <time>2020-03-04T08:22:29Z</time>
      </trkpt>
      <trkpt lat="46.89685" lon="5.66292">
        <ele>262.6</ele>
        <time>2020-03-04T08:22:30Z</time>
      </trkpt>
      <trkpt lat="46.8968" lon="5.66284">
        <ele>262.4</ele>
        <time>2020-03-04T08:22:31Z</time>
      </trkpt>
      <trkpt lat="46.89674" lon="5.66276">
        <ele>262</ele>
        <time>2020-03-04T08:22:32Z</time>
      </trkpt>
      <trkpt lat="46.89669" lon="5.66267">
        <ele>262</ele>
        <time>2020-03-04T08:22:33Z</time>
      </trkpt>
      <trkpt lat="46.89664" lon="5.66258">
        <ele>261.6</ele>
        <time>2020-03-04T08:22:34Z</time>
      </trkpt>
      <trkpt lat="46.89659" lon="5.6625">
        <ele>261.4</ele>
        <time>2020-03-04T08:22:35Z</time>
      </trkpt>
      <trkpt lat="46.89654" lon="5.66241">
        <ele>261</ele>
        <time>2020-03-04T08:22:36Z</time>
      </trkpt>
      <trkpt lat="46.89649" lon="5.66233">
        <ele>260.8</ele>
        <time>2020-03-04T08:22:37Z</time>
      </trkpt>
      <trkpt lat="46.89644" lon="5.66224">
        <ele>260.6</ele>
        <time>2020-03-04T08:22:38Z</time>
      </trkpt>
      <trkpt lat="46.89639" lon="5.66215">
        <ele>260.6</ele>
        <time>2020-03-04T08:22:39Z</time>
      </trkpt>
      <trkpt lat="46.89635" lon="5.66206">
        <ele>260.4</ele>
        <time>2020-03-04T08:22:40Z</time>
      </trkpt>
      <trkpt lat="46.8963" lon="5.66197">
        <ele>260.4</ele>
        <time>2020-03-04T08:22:41Z</time>
      </trkpt>
      <trkpt lat="46.89625" lon="5.66188">
        <ele>260</ele>
        <time>2020-03-04T08:22:42Z</time>
      </trkpt>
      <trkpt lat="46.89621" lon="5.66179">
        <ele>259.6</ele>
        <time>2020-03-04T08:22:43Z</time>
      </trkpt>
      <trkpt lat="46.89616" lon="5.6617">
        <ele>259.2</ele>
        <time>2020-03-04T08:22:44Z</time>
      </trkpt>
      <trkpt lat="46.89611" lon="5.66161">
        <ele>258.8</ele>
        <time>2020-03-04T08:22:45Z</time>
      </trkpt>
      <trkpt lat="46.89607" lon="5.66152">
        <ele>258.4</ele>
        <time>2020-03-04T08:22:46Z</time>
      </trkpt>
      <trkpt lat="46.89603" lon="5.66142">
        <ele>258.2</ele>
        <time>2020-03-04T08:22:47Z</time>
      </trkpt>
      <trkpt lat="46.896" lon="5.66132">
        <ele>257.8</ele>
        <time>2020-03-04T08:22:48Z</time>
      </trkpt>
      <trkpt lat="46.89597" lon="5.66123">
        <ele>257.2</ele>
        <time>2020-03-04T08:22:49Z</time>
      </trkpt>
      <trkpt lat="46.89596" lon="5.66113">
        <ele>256.8</ele>
        <time>2020-03-04T08:22:50Z</time>
      </trkpt>
      <trkpt lat="46.89596" lon="5.66101">
        <ele>256.4</ele>
        <time>2020-03-04T08:22:51Z</time>
      </trkpt>
      <trkpt lat="46.89597" lon="5.66089">
        <ele>255.8</ele>
        <time>2020-03-04T08:22:52Z</time>
      </trkpt>
      <trkpt lat="46.896" lon="5.66076">
        <ele>255.2</ele>
        <time>2020-03-04T08:22:53Z</time>
      </trkpt>
      <trkpt lat="46.89603" lon="5.66062">
        <ele>254.4</ele>
        <time>2020-03-04T08:22:54Z</time>
      </trkpt>
      <trkpt lat="46.89607" lon="5.66047">
        <ele>253.6</ele>
        <time>2020-03-04T08:22:55Z</time>
      </trkpt>
      <trkpt lat="46.8961" lon="5.66034">
        <ele>252.6</ele>
        <time>2020-03-04T08:22:56Z</time>
      </trkpt>
      <trkpt lat="46.89613" lon="5.66022">
        <ele>251.6</ele>
        <time>2020-03-04T08:22:57Z</time>
      </trkpt>
      <trkpt lat="46.89616" lon="5.66009">
        <ele>250.8</ele>
        <time>2020-03-04T08:22:58Z</time>
      </trkpt>
      <trkpt lat="46.8962" lon="5.65998">
        <ele>250</ele>
        <time>2020-03-04T08:22:59Z</time>
      </trkpt>
      <trkpt lat="46.89626" lon="5.65986">
        <ele>249</ele>
        <time>2020-03-04T08:23:00Z</time>
      </trkpt>
      <trkpt lat="46.89632" lon="5.65975">
        <ele>248.2</ele>
        <time>2020-03-04T08:23:01Z</time>
      </trkpt>
      <trkpt lat="46.8964" lon="5.65967">
        <ele>247.6</ele>
        <time>2020-03-04T08:23:02Z</time>
      </trkpt>
      <trkpt lat="46.89649" lon="5.65962">
        <ele>247</ele>
        <time>2020-03-04T08:23:03Z</time>
      </trkpt>
      <trkpt lat="46.89658" lon="5.65957">
        <ele>246.6</ele>
        <time>2020-03-04T08:23:04Z</time>
      </trkpt>
      <trkpt lat="46.89667" lon="5.65953">
        <ele>246.2</ele>
        <time>2020-03-04T08:23:05Z</time>
      </trkpt>
      <trkpt lat="46.89676" lon="5.6595">
        <ele>245.8</ele>
        <time>2020-03-04T08:23:06Z</time>
      </trkpt>
      <trkpt lat="46.89685" lon="5.65944">
        <ele>245.4</ele>
        <time>2020-03-04T08:23:07Z</time>
      </trkpt>
      <trkpt lat="46.89691" lon="5.65937">
        <ele>245</ele>
        <time>2020-03-04T08:23:08Z</time>
      </trkpt>
      <trkpt lat="46.89697" lon="5.65928">
        <ele>244.8</ele>
        <time>2020-03-04T08:23:09Z</time>
      </trkpt>
      <trkpt lat="46.89701" lon="5.65916">
        <ele>244.8</ele>
        <time>2020-03-04T08:23:10Z</time>
      </trkpt>
      <trkpt lat="46.89703" lon="5.65904">
        <ele>244.4</ele>
        <time>2020-03-04T08:23:11Z</time>
      </trkpt>
      <trkpt lat="46.89705" lon="5.65891">
        <ele>244.4</ele>
        <time>2020-03-04T08:23:12Z</time>
      </trkpt>
      <trkpt lat="46.89706" lon="5.65879">
        <ele>244.4</ele>
        <time>2020-03-04T08:23:13Z</time>
      </trkpt>
      <trkpt lat="46.89706" lon="5.65867">
        <ele>244.2</ele>
        <time>2020-03-04T08:23:14Z</time>
      </trkpt>
      <trkpt lat="46.89705" lon="5.65856">
        <ele>244.2</ele>
        <time>2020-03-04T08:23:15Z</time>
      </trkpt>
      <trkpt lat="46.89704" lon="5.65845">
        <ele>244.2</ele>
        <time>2020-03-04T08:23:16Z</time>
      </trkpt>
      <trkpt lat="46.89702" lon="5.65834">
        <ele>244.2</ele>
        <time>2020-03-04T08:23:17Z</time>
      </trkpt>
      <trkpt lat="46.897" lon="5.65823">
        <ele>244.2</ele>
        <time>2020-03-04T08:23:18Z</time>
      </trkpt>
      <trkpt lat="46.89697" lon="5.65813">
        <ele>244.2</ele>
        <time>2020-03-04T08:23:19Z</time>
      </trkpt>
      <trkpt lat="46.89694" lon="5.65803">
        <ele>244.2</ele>
        <time>2020-03-04T08:23:20Z</time>
      </trkpt>
      <trkpt lat="46.89692" lon="5.65793">
        <ele>244.2</ele>
        <time>2020-03-04T08:23:21Z</time>
      </trkpt>
      <trkpt lat="46.89689" lon="5.65783">
        <ele>244.2</ele>
        <time>2020-03-04T08:23:22Z</time>
      </trkpt>
      <trkpt lat="46.89687" lon="5.65773">
        <ele>244.2</ele>
        <time>2020-03-04T08:23:23Z</time>
      </trkpt>
      <trkpt lat="46.89685" lon="5.65764">
        <ele>244.4</ele>
        <time>2020-03-04T08:23:24Z</time>
      </trkpt>
      <trkpt lat="46.89683" lon="5.65755">
        <ele>244.4</ele>
        <time>2020-03-04T08:23:25Z</time>
      </trkpt>
      <trkpt lat="46.8968" lon="5.65746">
        <ele>244.4</ele>
        <time>2020-03-04T08:23:26Z</time>
      </trkpt>
      <trkpt lat="46.89678" lon="5.65737">
        <ele>244.4</ele>
        <time>2020-03-04T08:23:27Z</time>
      </trkpt>
      <trkpt lat="46.89676" lon="5.65729">
        <ele>244.8</ele>
        <time>2020-03-04T08:23:28Z</time>
      </trkpt>
      <trkpt lat="46.89673" lon="5.65721">
        <ele>244.8</ele>
        <time>2020-03-04T08:23:29Z</time>
      </trkpt>
      <trkpt lat="46.89671" lon="5.65713">
        <ele>244.8</ele>
        <time>2020-03-04T08:23:30Z</time>
      </trkpt>
      <trkpt lat="46.89669" lon="5.65706">
        <ele>245</ele>
        <time>2020-03-04T08:23:31Z</time>
      </trkpt>
      <trkpt lat="46.89667" lon="5.65698">
        <ele>245.2</ele>
        <time>2020-03-04T08:23:32Z</time>
      </trkpt>
      <trkpt lat="46.89666" lon="5.65692">
        <ele>245.6</ele>
        <time>2020-03-04T08:23:33Z</time>
      </trkpt>
      <trkpt lat="46.89664" lon="5.65685">
        <ele>245.8</ele>
        <time>2020-03-04T08:23:34Z</time>
      </trkpt>
      <trkpt lat="46.89662" lon="5.6568">
        <ele>246</ele>
        <time>2020-03-04T08:23:35Z</time>
      </trkpt>
      <trkpt lat="46.8966" lon="5.65674">
        <ele>246.4</ele>
        <time>2020-03-04T08:23:36Z</time>
      </trkpt>
      <trkpt lat="46.89658" lon="5.65669">
        <ele>246.6</ele>
        <time>2020-03-04T08:23:37Z</time>
      </trkpt>
      <trkpt lat="46.89656" lon="5.65664">
        <ele>246.6</ele>
        <time>2020-03-04T08:23:38Z</time>
      </trkpt>
      <trkpt lat="46.89654" lon="5.65659">
        <ele>247</ele>
        <time>2020-03-04T08:23:39Z</time>
      </trkpt>
      <trkpt lat="46.89652" lon="5.65654">
        <ele>247.2</ele>
        <time>2020-03-04T08:23:40Z</time>
      </trkpt>
      <trkpt lat="46.8965" lon="5.65649">
        <ele>247.4</ele>
        <time>2020-03-04T08:23:41Z</time>
      </trkpt>
      <trkpt lat="46.89648" lon="5.65643">
        <ele>247.8</ele>
        <time>2020-03-04T08:23:42Z</time>
      </trkpt>
      <trkpt lat="46.89646" lon="5.65638">
        <ele>248</ele>
        <time>2020-03-04T08:23:43Z</time>
      </trkpt>
      <trkpt lat="46.89643" lon="5.65633">
        <ele>248.4</ele>
        <time>2020-03-04T08:23:44Z</time>
      </trkpt>
      <trkpt lat="46.89641" lon="5.65628">
        <ele>248.6</ele>
        <time>2020-03-04T08:23:45Z</time>
      </trkpt>
      <trkpt lat="46.89639" lon="5.65623">
        <ele>249</ele>
        <time>2020-03-04T08:23:46Z</time>
      </trkpt>
      <trkpt lat="46.89637" lon="5.65618">
        <ele>249.2</ele>
        <time>2020-03-04T08:23:47Z</time>
      </trkpt>
      <trkpt lat="46.89635" lon="5.65613">
        <ele>249.6</ele>
        <time>2020-03-04T08:23:48Z</time>
      </trkpt>
      <trkpt lat="46.89633" lon="5.65607">
        <ele>249.8</ele>
        <time>2020-03-04T08:23:49Z</time>
      </trkpt>
      <trkpt lat="46.8963" lon="5.65602">
        <ele>250.2</ele>
        <time>2020-03-04T08:23:50Z</time>
      </trkpt>
      <trkpt lat="46.89628" lon="5.65597">
        <ele>250.6</ele>
        <time>2020-03-04T08:23:51Z</time>
      </trkpt>
      <trkpt lat="46.89626" lon="5.65591">
        <ele>250.8</ele>
        <time>2020-03-04T08:23:52Z</time>
      </trkpt>
      <trkpt lat="46.89623" lon="5.65585">
        <ele>251.2</ele>
        <time>2020-03-04T08:23:53Z</time>
      </trkpt>
      <trkpt lat="46.89621" lon="5.6558">
        <ele>251.4</ele>
        <time>2020-03-04T08:23:54Z</time>
      </trkpt>
      <trkpt lat="46.89619" lon="5.65576">
        <ele>251.8</ele>
        <time>2020-03-04T08:23:55Z</time>
      </trkpt>
      <trkpt lat="46.89617" lon="5.65571">
        <ele>252</ele>
        <time>2020-03-04T08:23:56Z</time>
      </trkpt>
      <trkpt lat="46.89614" lon="5.65567">
        <ele>252.4</ele>
        <time>2020-03-04T08:23:57Z</time>
      </trkpt>
      <trkpt lat="46.89612" lon="5.65563">
        <ele>252.8</ele>
        <time>2020-03-04T08:23:58Z</time>
      </trkpt>
      <trkpt lat="46.89611" lon="5.65559">
        <ele>253.2</ele>
        <time>2020-03-04T08:23:59Z</time>
      </trkpt>
      <trkpt lat="46.89609" lon="5.65555">
        <ele>253.4</ele>
        <time>2020-03-04T08:24:00Z</time>
      </trkpt>
      <trkpt lat="46.89607" lon="5.65551">
        <ele>253.6</ele>
        <time>2020-03-04T08:24:01Z</time>
      </trkpt>
      <trkpt lat="46.89606" lon="5.65548">
        <ele>253.6</ele>
        <time>2020-03-04T08:24:02Z</time>
      </trkpt>
      <trkpt lat="46.89604" lon="5.65545">
        <ele>254</ele>
        <time>2020-03-04T08:24:03Z</time>
      </trkpt>
      <trkpt lat="46.89602" lon="5.65541">
        <ele>254.4</ele>
        <time>2020-03-04T08:24:04Z</time>
      </trkpt>
      <trkpt lat="46.896" lon="5.65537">
        <ele>254.6</ele>
        <time>2020-03-04T08:24:05Z</time>
      </trkpt>
      <trkpt lat="46.89598" lon="5.65534">
        <ele>254.8</ele>
        <time>2020-03-04T08:24:06Z</time>
      </trkpt>
      <trkpt lat="46.89596" lon="5.6553">
        <ele>254.8</ele>
        <time>2020-03-04T08:24:07Z</time>
      </trkpt>
      <trkpt lat="46.89594" lon="5.65527">
        <ele>255.2</ele>
        <time>2020-03-04T08:24:08Z</time>
      </trkpt>
      <trkpt lat="46.89592" lon="5.65523">
        <ele>255.2</ele>
        <time>2020-03-04T08:24:09Z</time>
      </trkpt>
      <trkpt lat="46.8959" lon="5.65519">
        <ele>255.2</ele>
        <time>2020-03-04T08:24:10Z</time>
      </trkpt>
      <trkpt lat="46.89588" lon="5.65515">
        <ele>255.4</ele>
        <time>2020-03-04T08:24:11Z</time>
      </trkpt>
      <trkpt lat="46.89585" lon="5.65511">
        <ele>255.4</ele>
        <time>2020-03-04T08:24:12Z</time>
      </trkpt>
      <trkpt lat="46.89583" lon="5.65507">
        <ele>255.4</ele>
        <time>2020-03-04T08:24:13Z</time>
      </trkpt>
      <trkpt lat="46.89581" lon="5.65502">
        <ele>255.8</ele>
        <time>2020-03-04T08:24:14Z</time>
      </trkpt>
      <trkpt lat="46.89579" lon="5.65498">
        <ele>255.8</ele>
        <time>2020-03-04T08:24:15Z</time>
      </trkpt>
      <trkpt lat="46.89577" lon="5.65494">
        <ele>256</ele>
        <time>2020-03-04T08:24:16Z</time>
      </trkpt>
      <trkpt lat="46.89575" lon="5.6549">
        <ele>256</ele>
        <time>2020-03-04T08:24:17Z</time>
      </trkpt>
      <trkpt lat="46.89574" lon="5.65486">
        <ele>256.2</ele>
        <time>2020-03-04T08:24:18Z</time>
      </trkpt>
      <trkpt lat="46.89572" lon="5.65482">
        <ele>256.2</ele>
        <time>2020-03-04T08:24:19Z</time>
      </trkpt>
      <trkpt lat="46.8957" lon="5.65479">
        <ele>256.6</ele>
        <time>2020-03-04T08:24:20Z</time>
      </trkpt>
      <trkpt lat="46.89568" lon="5.65475">
        <ele>256.6</ele>
        <time>2020-03-04T08:24:21Z</time>
      </trkpt>
      <trkpt lat="46.89567" lon="5.65471">
        <ele>257</ele>
        <time>2020-03-04T08:24:22Z</time>
      </trkpt>
      <trkpt lat="46.89565" lon="5.65467">
        <ele>257</ele>
        <time>2020-03-04T08:24:23Z</time>
      </trkpt>
      <trkpt lat="46.89563" lon="5.65464">
        <ele>257.4</ele>
        <time>2020-03-04T08:24:24Z</time>
      </trkpt>
      <trkpt lat="46.89562" lon="5.6546">
        <ele>257.4</ele>
        <time>2020-03-04T08:24:25Z</time>
      </trkpt>
      <trkpt lat="46.8956" lon="5.65457">
        <ele>257.8</ele>
        <time>2020-03-04T08:24:26Z</time>
      </trkpt>
      <trkpt lat="46.89559" lon="5.65453">
        <ele>258</ele>
        <time>2020-03-04T08:24:27Z</time>
      </trkpt>
      <trkpt lat="46.89557" lon="5.6545">
        <ele>258</ele>
        <time>2020-03-04T08:24:28Z</time>
      </trkpt>
      <trkpt lat="46.89556" lon="5.65447">
        <ele>258.2</ele>
        <time>2020-03-04T08:24:29Z</time>
      </trkpt>
      <trkpt lat="46.89555" lon="5.65444">
        <ele>258.6</ele>
        <time>2020-03-04T08:24:30Z</time>
      </trkpt>
      <trkpt lat="46.89553" lon="5.65441">
        <ele>258.8</ele>
        <time>2020-03-04T08:24:31Z</time>
      </trkpt>
      <trkpt lat="46.89553" lon="5.65439">
        <ele>259</ele>
        <time>2020-03-04T08:24:32Z</time>
      </trkpt>
      <trkpt lat="46.89552" lon="5.65436">
        <ele>259</ele>
        <time>2020-03-04T08:24:33Z</time>
      </trkpt>
      <trkpt lat="46.8955" lon="5.65432">
        <ele>259.4</ele>
        <time>2020-03-04T08:24:34Z</time>
      </trkpt>
      <trkpt lat="46.89549" lon="5.65429">
        <ele>259.4</ele>
        <time>2020-03-04T08:24:35Z</time>
      </trkpt>
      <trkpt lat="46.89548" lon="5.65426">
        <ele>259.8</ele>
        <time>2020-03-04T08:24:36Z</time>
      </trkpt>
      <trkpt lat="46.89547" lon="5.65423">
        <ele>259.8</ele>
        <time>2020-03-04T08:24:37Z</time>
      </trkpt>
      <trkpt lat="46.89546" lon="5.65419">
        <ele>260</ele>
        <time>2020-03-04T08:24:38Z</time>
      </trkpt>
      <trkpt lat="46.89545" lon="5.65416">
        <ele>260</ele>
        <time>2020-03-04T08:24:39Z</time>
      </trkpt>
      <trkpt lat="46.89544" lon="5.65412">
        <ele>260.2</ele>
        <time>2020-03-04T08:24:40Z</time>
      </trkpt>
      <trkpt lat="46.89543" lon="5.65409">
        <ele>260.2</ele>
        <time>2020-03-04T08:24:41Z</time>
      </trkpt>
      <trkpt lat="46.89541" lon="5.65405">
        <ele>260.2</ele>
        <time>2020-03-04T08:24:42Z</time>
      </trkpt>
      <trkpt lat="46.8954" lon="5.65401">
        <ele>260.6</ele>
        <time>2020-03-04T08:24:43Z</time>
      </trkpt>
      <trkpt lat="46.89539" lon="5.65397">
        <ele>260.6</ele>
        <time>2020-03-04T08:24:44Z</time>
      </trkpt>
      <trkpt lat="46.89537" lon="5.65394">
        <ele>260.8</ele>
        <time>2020-03-04T08:24:45Z</time>
      </trkpt>
      <trkpt lat="46.89536" lon="5.6539">
        <ele>260.8</ele>
        <time>2020-03-04T08:24:46Z</time>
      </trkpt>
      <trkpt lat="46.89535" lon="5.65386">
        <ele>261</ele>
        <time>2020-03-04T08:24:47Z</time>
      </trkpt>
      <trkpt lat="46.89533" lon="5.65382">
        <ele>261</ele>
        <time>2020-03-04T08:24:48Z</time>
      </trkpt>
      <trkpt lat="46.89532" lon="5.65378">
        <ele>261.2</ele>
        <time>2020-03-04T08:24:49Z</time>
      </trkpt>
      <trkpt lat="46.8953" lon="5.65374">
        <ele>261.2</ele>
        <time>2020-03-04T08:24:50Z</time>
      </trkpt>
      <trkpt lat="46.89529" lon="5.6537">
        <ele>261.2</ele>
        <time>2020-03-04T08:24:51Z</time>
      </trkpt>
      <trkpt lat="46.89528" lon="5.65365">
        <ele>261.6</ele>
        <time>2020-03-04T08:24:52Z</time>
      </trkpt>
      <trkpt lat="46.89526" lon="5.65361">
        <ele>261.6</ele>
        <time>2020-03-04T08:24:53Z</time>
      </trkpt>
      <trkpt lat="46.89525" lon="5.65357">
        <ele>261.8</ele>
        <time>2020-03-04T08:24:54Z</time>
      </trkpt>
      <trkpt lat="46.89523" lon="5.65352">
        <ele>261.8</ele>
        <time>2020-03-04T08:24:55Z</time>
      </trkpt>
      <trkpt lat="46.89522" lon="5.65348">
        <ele>262.2</ele>
        <time>2020-03-04T08:24:56Z</time>
      </trkpt>
      <trkpt lat="46.89521" lon="5.65343">
        <ele>262.2</ele>
        <time>2020-03-04T08:24:57Z</time>
      </trkpt>
      <trkpt lat="46.89519" lon="5.65339">
        <ele>262.4</ele>
        <time>2020-03-04T08:24:58Z</time>
      </trkpt>
      <trkpt lat="46.89518" lon="5.65334">
        <ele>262.4</ele>
        <time>2020-03-04T08:24:59Z</time>
      </trkpt>
      <trkpt lat="46.89516" lon="5.6533">
        <ele>262.6</ele>
        <time>2020-03-04T08:25:00Z</time>
      </trkpt>
      <trkpt lat="46.89515" lon="5.65325">
        <ele>262.6</ele>
        <time>2020-03-04T08:25:01Z</time>
      </trkpt>
      <trkpt lat="46.89514" lon="5.6532">
        <ele>262.8</ele>
        <time>2020-03-04T08:25:02Z</time>
      </trkpt>
      <trkpt lat="46.89513" lon="5.65315">
        <ele>262.8</ele>
        <time>2020-03-04T08:25:03Z</time>
      </trkpt>
      <trkpt lat="46.89513" lon="5.65309">
        <ele>263.2</ele>
        <time>2020-03-04T08:25:04Z</time>
      </trkpt>
      <trkpt lat="46.89512" lon="5.65304">
        <ele>263.2</ele>
        <time>2020-03-04T08:25:05Z</time>
      </trkpt>
      <trkpt lat="46.89512" lon="5.65298">
        <ele>263.2</ele>
        <time>2020-03-04T08:25:06Z</time>
      </trkpt>
      <trkpt lat="46.89512" lon="5.65293">
        <ele>263.4</ele>
        <time>2020-03-04T08:25:07Z</time>
      </trkpt>
      <trkpt lat="46.89511" lon="5.65287">
        <ele>263.4</ele>
        <time>2020-03-04T08:25:08Z</time>
      </trkpt>
      <trkpt lat="46.8951" lon="5.65281">
        <ele>263.4</ele>
        <time>2020-03-04T08:25:09Z</time>
      </trkpt>
      <trkpt lat="46.89509" lon="5.65276">
        <ele>263.4</ele>
        <time>2020-03-04T08:25:10Z</time>
      </trkpt>
      <trkpt lat="46.89507" lon="5.65271">
        <ele>263.4</ele>
        <time>2020-03-04T08:25:11Z</time>
      </trkpt>
      <trkpt lat="46.89506" lon="5.65266">
        <ele>263.8</ele>
        <time>2020-03-04T08:25:12Z</time>
      </trkpt>
      <trkpt lat="46.89504" lon="5.65261">
        <ele>264</ele>
        <time>2020-03-04T08:25:13Z</time>
      </trkpt>
      <trkpt lat="46.89501" lon="5.65256">
        <ele>264.2</ele>
        <time>2020-03-04T08:25:14Z</time>
      </trkpt>
      <trkpt lat="46.89499" lon="5.65253">
        <ele>264.2</ele>
        <time>2020-03-04T08:25:15Z</time>
      </trkpt>
      <trkpt lat="46.89496" lon="5.65249">
        <ele>264.2</ele>
        <time>2020-03-04T08:25:16Z</time>
      </trkpt>
      <trkpt lat="46.89494" lon="5.65246">
        <ele>264.6</ele>
        <time>2020-03-04T08:25:17Z</time>
      </trkpt>
      <trkpt lat="46.89491" lon="5.65242">
        <ele>264.6</ele>
        <time>2020-03-04T08:25:18Z</time>
      </trkpt>
      <trkpt lat="46.89488" lon="5.65239">
        <ele>264.8</ele>
        <time>2020-03-04T08:25:19Z</time>
      </trkpt>
      <trkpt lat="46.89485" lon="5.65236">
        <ele>264.8</ele>
        <time>2020-03-04T08:25:20Z</time>
      </trkpt>
      <trkpt lat="46.89482" lon="5.65233">
        <ele>265.2</ele>
        <time>2020-03-04T08:25:21Z</time>
      </trkpt>
      <trkpt lat="46.89479" lon="5.65229">
        <ele>265.4</ele>
        <time>2020-03-04T08:25:22Z</time>
      </trkpt>
      <trkpt lat="46.89476" lon="5.65226">
        <ele>265.6</ele>
        <time>2020-03-04T08:25:23Z</time>
      </trkpt>
      <trkpt lat="46.89474" lon="5.65223">
        <ele>265.8</ele>
        <time>2020-03-04T08:25:24Z</time>
      </trkpt>
      <trkpt lat="46.89471" lon="5.65221">
        <ele>266.2</ele>
        <time>2020-03-04T08:25:25Z</time>
      </trkpt>
      <trkpt lat="46.89469" lon="5.65219">
        <ele>266.4</ele>
        <time>2020-03-04T08:25:26Z</time>
      </trkpt>
      <trkpt lat="46.89466" lon="5.65217">
        <ele>266.4</ele>
        <time>2020-03-04T08:25:27Z</time>
      </trkpt>
      <trkpt lat="46.89464" lon="5.65214">
        <ele>266.8</ele>
        <time>2020-03-04T08:25:28Z</time>
      </trkpt>
      <trkpt lat="46.89462" lon="5.65213">
        <ele>267</ele>
        <time>2020-03-04T08:25:29Z</time>
      </trkpt>
      <trkpt lat="46.8946" lon="5.65211">
        <ele>267.2</ele>
        <time>2020-03-04T08:25:30Z</time>
      </trkpt>
      <trkpt lat="46.89457" lon="5.65209">
        <ele>267.2</ele>
        <time>2020-03-04T08:25:31Z</time>
      </trkpt>
      <trkpt lat="46.89455" lon="5.65206">
        <ele>267.6</ele>
        <time>2020-03-04T08:25:32Z</time>
      </trkpt>
      <trkpt lat="46.89453" lon="5.65204">
        <ele>267.6</ele>
        <time>2020-03-04T08:25:33Z</time>
      </trkpt>
      <trkpt lat="46.89451" lon="5.65202">
        <ele>268</ele>
        <time>2020-03-04T08:25:34Z</time>
      </trkpt>
      <trkpt lat="46.89448" lon="5.652">
        <ele>268.2</ele>
        <time>2020-03-04T08:25:35Z</time>
      </trkpt>
      <trkpt lat="46.89446" lon="5.65199">
        <ele>268.2</ele>
        <time>2020-03-04T08:25:36Z</time>
      </trkpt>
      <trkpt lat="46.89444" lon="5.65197">
        <ele>268.6</ele>
        <time>2020-03-04T08:25:37Z</time>
      </trkpt>
      <trkpt lat="46.89442" lon="5.65194">
        <ele>268.6</ele>
        <time>2020-03-04T08:25:38Z</time>
      </trkpt>
      <trkpt lat="46.8944" lon="5.65192">
        <ele>269</ele>
        <time>2020-03-04T08:25:39Z</time>
      </trkpt>
      <trkpt lat="46.89438" lon="5.6519">
        <ele>269</ele>
        <time>2020-03-04T08:25:40Z</time>
      </trkpt>
      <trkpt lat="46.89436" lon="5.65188">
        <ele>269.4</ele>
        <time>2020-03-04T08:25:41Z</time>
      </trkpt>
      <trkpt lat="46.89433" lon="5.65186">
        <ele>269.4</ele>
        <time>2020-03-04T08:25:42Z</time>
      </trkpt>
      <trkpt lat="46.89431" lon="5.65184">
        <ele>269.8</ele>
        <time>2020-03-04T08:25:43Z</time>
      </trkpt>
      <trkpt lat="46.89429" lon="5.65182">
        <ele>270</ele>
        <time>2020-03-04T08:25:44Z</time>
      </trkpt>
      <trkpt lat="46.89428" lon="5.6518">
        <ele>270</ele>
        <time>2020-03-04T08:25:45Z</time>
      </trkpt>
      <trkpt lat="46.89426" lon="5.65178">
        <ele>270.2</ele>
        <time>2020-03-04T08:25:46Z</time>
      </trkpt>
      <trkpt lat="46.89424" lon="5.65175">
        <ele>270.2</ele>
        <time>2020-03-04T08:25:47Z</time>
      </trkpt>
      <trkpt lat="46.89422" lon="5.65172">
        <ele>270.6</ele>
        <time>2020-03-04T08:25:48Z</time>
      </trkpt>
      <trkpt lat="46.89421" lon="5.6517">
        <ele>270.6</ele>
        <time>2020-03-04T08:25:49Z</time>
      </trkpt>
      <trkpt lat="46.89419" lon="5.65167">
        <ele>270.8</ele>
        <time>2020-03-04T08:25:50Z</time>
      </trkpt>
      <trkpt lat="46.89417" lon="5.65164">
        <ele>270.8</ele>
        <time>2020-03-04T08:25:51Z</time>
      </trkpt>
      <trkpt lat="46.89415" lon="5.65161">
        <ele>271</ele>
        <time>2020-03-04T08:25:52Z</time>
      </trkpt>
      <trkpt lat="46.89413" lon="5.65158">
        <ele>271</ele>
        <time>2020-03-04T08:25:53Z</time>
      </trkpt>
      <trkpt lat="46.89412" lon="5.65155">
        <ele>271.2</ele>
        <time>2020-03-04T08:25:54Z</time>
      </trkpt>
      <trkpt lat="46.8941" lon="5.65152">
        <ele>271.2</ele>
        <time>2020-03-04T08:25:55Z</time>
      </trkpt>
      <trkpt lat="46.89408" lon="5.65149">
        <ele>271.2</ele>
        <time>2020-03-04T08:25:56Z</time>
      </trkpt>
      <trkpt lat="46.89406" lon="5.65145">
        <ele>271.4</ele>
        <time>2020-03-04T08:25:57Z</time>
      </trkpt>
      <trkpt lat="46.89404" lon="5.65142">
        <ele>271.4</ele>
        <time>2020-03-04T08:25:58Z</time>
      </trkpt>
      <trkpt lat="46.89402" lon="5.65138">
        <ele>271.4</ele>
        <time>2020-03-04T08:25:59Z</time>
      </trkpt>
      <trkpt lat="46.89399" lon="5.65134">
        <ele>271.4</ele>
        <time>2020-03-04T08:26:00Z</time>
      </trkpt>
      <trkpt lat="46.89396" lon="5.6513">
        <ele>271.4</ele>
        <time>2020-03-04T08:26:01Z</time>
      </trkpt>
      <trkpt lat="46.89393" lon="5.65126">
        <ele>271.4</ele>
        <time>2020-03-04T08:26:02Z</time>
      </trkpt>
      <trkpt lat="46.8939" lon="5.65123">
        <ele>271.4</ele>
        <time>2020-03-04T08:26:03Z</time>
      </trkpt>
      <trkpt lat="46.89387" lon="5.65118">
        <ele>271.4</ele>
        <time>2020-03-04T08:26:04Z</time>
      </trkpt>
      <trkpt lat="46.89384" lon="5.65114">
        <ele>271.4</ele>
        <time>2020-03-04T08:26:05Z</time>
      </trkpt>
      <trkpt lat="46.8938" lon="5.65109">
        <ele>271.4</ele>
        <time>2020-03-04T08:26:06Z</time>
      </trkpt>
      <trkpt lat="46.89377" lon="5.65105">
        <ele>271.4</ele>
        <time>2020-03-04T08:26:07Z</time>
      </trkpt>
      <trkpt lat="46.89373" lon="5.65101">
        <ele>271.4</ele>
        <time>2020-03-04T08:26:08Z</time>
      </trkpt>
      <trkpt lat="46.89369" lon="5.65097">
        <ele>271.2</ele>
        <time>2020-03-04T08:26:09Z</time>
      </trkpt>
      <trkpt lat="46.89366" lon="5.65093">
        <ele>271.2</ele>
        <time>2020-03-04T08:26:10Z</time>
      </trkpt>
      <trkpt lat="46.89362" lon="5.65089">
        <ele>271.2</ele>
        <time>2020-03-04T08:26:11Z</time>
      </trkpt>
      <trkpt lat="46.89358" lon="5.65085">
        <ele>271</ele>
        <time>2020-03-04T08:26:12Z</time>
      </trkpt>
      <trkpt lat="46.89354" lon="5.65081">
        <ele>271</ele>
        <time>2020-03-04T08:26:13Z</time>
      </trkpt>
      <trkpt lat="46.8935" lon="5.65077">
        <ele>270.8</ele>
        <time>2020-03-04T08:26:14Z</time>
      </trkpt>
      <trkpt lat="46.89346" lon="5.65073">
        <ele>270.8</ele>
        <time>2020-03-04T08:26:15Z</time>
      </trkpt>
      <trkpt lat="46.89342" lon="5.65069">
        <ele>270.4</ele>
        <time>2020-03-04T08:26:16Z</time>
      </trkpt>
      <trkpt lat="46.89338" lon="5.65065">
        <ele>270.4</ele>
        <time>2020-03-04T08:26:17Z</time>
      </trkpt>
      <trkpt lat="46.89334" lon="5.65062">
        <ele>270.4</ele>
        <time>2020-03-04T08:26:18Z</time>
      </trkpt>
      <trkpt lat="46.8933" lon="5.65058">
        <ele>270.2</ele>
        <time>2020-03-04T08:26:19Z</time>
      </trkpt>
      <trkpt lat="46.89327" lon="5.65054">
        <ele>270.2</ele>
        <time>2020-03-04T08:26:20Z</time>
      </trkpt>
      <trkpt lat="46.89323" lon="5.65051">
        <ele>270</ele>
        <time>2020-03-04T08:26:21Z</time>
      </trkpt>
      <trkpt lat="46.89319" lon="5.65047">
        <ele>270</ele>
        <time>2020-03-04T08:26:22Z</time>
      </trkpt>
      <trkpt lat="46.89315" lon="5.65042">
        <ele>269.6</ele>
        <time>2020-03-04T08:26:23Z</time>
      </trkpt>
      <trkpt lat="46.89312" lon="5.65037">
        <ele>269.6</ele>
        <time>2020-03-04T08:26:24Z</time>
      </trkpt>
      <trkpt lat="46.89309" lon="5.65033">
        <ele>269.6</ele>
        <time>2020-03-04T08:26:25Z</time>
      </trkpt>
      <trkpt lat="46.89305" lon="5.65029">
        <ele>269.4</ele>
        <time>2020-03-04T08:26:26Z</time>
      </trkpt>
      <trkpt lat="46.89302" lon="5.65025">
        <ele>269.4</ele>
        <time>2020-03-04T08:26:27Z</time>
      </trkpt>
      <trkpt lat="46.89298" lon="5.65022">
        <ele>269.2</ele>
        <time>2020-03-04T08:26:28Z</time>
      </trkpt>
      <trkpt lat="46.89295" lon="5.65019">
        <ele>269.2</ele>
        <time>2020-03-04T08:26:29Z</time>
      </trkpt>
      <trkpt lat="46.89291" lon="5.65015">
        <ele>269.2</ele>
        <time>2020-03-04T08:26:30Z</time>
      </trkpt>
      <trkpt lat="46.89288" lon="5.65011">
        <ele>269</ele>
        <time>2020-03-04T08:26:31Z</time>
      </trkpt>
      <trkpt lat="46.89284" lon="5.65008">
        <ele>269</ele>
        <time>2020-03-04T08:26:32Z</time>
      </trkpt>
      <trkpt lat="46.89281" lon="5.65004">
        <ele>269</ele>
        <time>2020-03-04T08:26:33Z</time>
      </trkpt>
      <trkpt lat="46.89279" lon="5.65">
        <ele>269</ele>
        <time>2020-03-04T08:26:34Z</time>
      </trkpt>
      <trkpt lat="46.89277" lon="5.64995">
        <ele>269</ele>
        <time>2020-03-04T08:26:35Z</time>
      </trkpt>
      <trkpt lat="46.89276" lon="5.64991">
        <ele>269</ele>
        <time>2020-03-04T08:26:36Z</time>
      </trkpt>
      <trkpt lat="46.89275" lon="5.64987">
        <ele>269</ele>
        <time>2020-03-04T08:26:37Z</time>
      </trkpt>
      <trkpt lat="46.89275" lon="5.64984">
        <ele>269</ele>
        <time>2020-03-04T08:26:38Z</time>
      </trkpt>
      <trkpt lat="46.89276" lon="5.64981">
        <ele>269</ele>
        <time>2020-03-04T08:26:39Z</time>
      </trkpt>
      <trkpt lat="46.89276" lon="5.64979">
        <ele>269</ele>
        <time>2020-03-04T08:26:40Z</time>
      </trkpt>
      <trkpt lat="46.89276" lon="5.64978">
        <ele>269</ele>
        <time>2020-03-04T08:26:41Z</time>
      </trkpt>
      <trkpt lat="46.8927" lon="5.64974">
        <ele>269.4</ele>
        <time>2020-03-04T08:26:48Z</time>
      </trkpt>
      <trkpt lat="46.89268" lon="5.64974">
        <ele>269.4</ele>
        <time>2020-03-04T08:26:49Z</time>
      </trkpt>
      <trkpt lat="46.89266" lon="5.64973">
        <ele>269.4</ele>
        <time>2020-03-04T08:26:50Z</time>
      </trkpt>
      <trkpt lat="46.89264" lon="5.64971">
        <ele>269.4</ele>
        <time>2020-03-04T08:26:51Z</time>
      </trkpt>
      <trkpt lat="46.89263" lon="5.64969">
        <ele>269</ele>
        <time>2020-03-04T08:26:52Z</time>
      </trkpt>
      <trkpt lat="46.89263" lon="5.64966">
        <ele>269</ele>
        <time>2020-03-04T08:26:53Z</time>
      </trkpt>
      <trkpt lat="46.89263" lon="5.64963">
        <ele>268.8</ele>
        <time>2020-03-04T08:26:54Z</time>
      </trkpt>
      <trkpt lat="46.89264" lon="5.64961">
        <ele>268.8</ele>
        <time>2020-03-04T08:26:55Z</time>
      </trkpt>
      <trkpt lat="46.89266" lon="5.64959">
        <ele>268.8</ele>
        <time>2020-03-04T08:26:56Z</time>
      </trkpt>
      <trkpt lat="46.89268" lon="5.64957">
        <ele>268.8</ele>
        <time>2020-03-04T08:26:57Z</time>
      </trkpt>
      <trkpt lat="46.8927" lon="5.64955">
        <ele>268.8</ele>
        <time>2020-03-04T08:26:58Z</time>
      </trkpt>
      <trkpt lat="46.89272" lon="5.64953">
        <ele>268.8</ele>
        <time>2020-03-04T08:26:59Z</time>
      </trkpt>
      <trkpt lat="46.89275" lon="5.64951">
        <ele>268.8</ele>
        <time>2020-03-04T08:27:00Z</time>
      </trkpt>
      <trkpt lat="46.89277" lon="5.64949">
        <ele>268.8</ele>
        <time>2020-03-04T08:27:01Z</time>
      </trkpt>
      <trkpt lat="46.89279" lon="5.64947">
        <ele>268.8</ele>
        <time>2020-03-04T08:27:02Z</time>
      </trkpt>
      <trkpt lat="46.89282" lon="5.64944">
        <ele>269</ele>
        <time>2020-03-04T08:27:03Z</time>
      </trkpt>
      <trkpt lat="46.89284" lon="5.64941">
        <ele>269</ele>
        <time>2020-03-04T08:27:04Z</time>
      </trkpt>
      <trkpt lat="46.89287" lon="5.64938">
        <ele>269</ele>
        <time>2020-03-04T08:27:05Z</time>
      </trkpt>
      <trkpt lat="46.8929" lon="5.64935">
        <ele>269.2</ele>
        <time>2020-03-04T08:27:06Z</time>
      </trkpt>
      <trkpt lat="46.89293" lon="5.64932">
        <ele>269.2</ele>
        <time>2020-03-04T08:27:07Z</time>
      </trkpt>
      <trkpt lat="46.89295" lon="5.64929">
        <ele>269.2</ele>
        <time>2020-03-04T08:27:08Z</time>
      </trkpt>
      <trkpt lat="46.89298" lon="5.64926">
        <ele>269.2</ele>
        <time>2020-03-04T08:27:09Z</time>
      </trkpt>
      <trkpt lat="46.89301" lon="5.64922">
        <ele>269.2</ele>
        <time>2020-03-04T08:27:10Z</time>
      </trkpt>
      <trkpt lat="46.89303" lon="5.64918">
        <ele>269.6</ele>
        <time>2020-03-04T08:27:11Z</time>
      </trkpt>
      <trkpt lat="46.89305" lon="5.64915">
        <ele>269.6</ele>
        <time>2020-03-04T08:27:12Z</time>
      </trkpt>
      <trkpt lat="46.89307" lon="5.6491">
        <ele>269.6</ele>
        <time>2020-03-04T08:27:13Z</time>
      </trkpt>
      <trkpt lat="46.89307" lon="5.64905">
        <ele>269.6</ele>
        <time>2020-03-04T08:27:14Z</time>
      </trkpt>
      <trkpt lat="46.89307" lon="5.649">
        <ele>269.6</ele>
        <time>2020-03-04T08:27:15Z</time>
      </trkpt>
      <trkpt lat="46.89307" lon="5.64895">
        <ele>269.8</ele>
        <time>2020-03-04T08:27:16Z</time>
      </trkpt>
      <trkpt lat="46.89305" lon="5.6489">
        <ele>269.8</ele>
        <time>2020-03-04T08:27:17Z</time>
      </trkpt>
      <trkpt lat="46.89304" lon="5.64885">
        <ele>269.8</ele>
        <time>2020-03-04T08:27:18Z</time>
      </trkpt>
      <trkpt lat="46.89303" lon="5.6488">
        <ele>269.8</ele>
        <time>2020-03-04T08:27:19Z</time>
      </trkpt>
      <trkpt lat="46.89301" lon="5.64874">
        <ele>269.8</ele>
        <time>2020-03-04T08:27:20Z</time>
      </trkpt>
      <trkpt lat="46.89299" lon="5.64868">
        <ele>269.8</ele>
        <time>2020-03-04T08:27:21Z</time>
      </trkpt>
      <trkpt lat="46.89297" lon="5.64862">
        <ele>269.8</ele>
        <time>2020-03-04T08:27:22Z</time>
      </trkpt>
      <trkpt lat="46.89296" lon="5.64856">
        <ele>269.6</ele>
        <time>2020-03-04T08:27:23Z</time>
      </trkpt>
      <trkpt lat="46.89294" lon="5.6485">
        <ele>269.6</ele>
        <time>2020-03-04T08:27:24Z</time>
      </trkpt>
      <trkpt lat="46.89292" lon="5.64844">
        <ele>269.4</ele>
        <time>2020-03-04T08:27:25Z</time>
      </trkpt>
      <trkpt lat="46.8929" lon="5.64837">
        <ele>269.4</ele>
        <time>2020-03-04T08:27:26Z</time>
      </trkpt>
      <trkpt lat="46.89288" lon="5.64831">
        <ele>269.4</ele>
        <time>2020-03-04T08:27:27Z</time>
      </trkpt>
      <trkpt lat="46.89286" lon="5.64824">
        <ele>269</ele>
        <time>2020-03-04T08:27:28Z</time>
      </trkpt>
      <trkpt lat="46.89285" lon="5.64818">
        <ele>269</ele>
        <time>2020-03-04T08:27:29Z</time>
      </trkpt>
      <trkpt lat="46.89283" lon="5.64812">
        <ele>268.8</ele>
        <time>2020-03-04T08:27:30Z</time>
      </trkpt>
      <trkpt lat="46.89282" lon="5.64806">
        <ele>268.8</ele>
        <time>2020-03-04T08:27:31Z</time>
      </trkpt>
      <trkpt lat="46.8928" lon="5.64799">
        <ele>268.8</ele>
        <time>2020-03-04T08:27:32Z</time>
      </trkpt>
      <trkpt lat="46.89278" lon="5.64793">
        <ele>268.6</ele>
        <time>2020-03-04T08:27:33Z</time>
      </trkpt>
      <trkpt lat="46.89276" lon="5.64786">
        <ele>268.6</ele>
        <time>2020-03-04T08:27:34Z</time>
      </trkpt>
      <trkpt lat="46.89274" lon="5.64779">
        <ele>268.6</ele>
        <time>2020-03-04T08:27:35Z</time>
      </trkpt>
      <trkpt lat="46.89272" lon="5.64772">
        <ele>268.2</ele>
        <time>2020-03-04T08:27:36Z</time>
      </trkpt>
      <trkpt lat="46.89269" lon="5.64765">
        <ele>268.2</ele>
        <time>2020-03-04T08:27:37Z</time>
      </trkpt>
      <trkpt lat="46.89267" lon="5.64757">
        <ele>268</ele>
        <time>2020-03-04T08:27:38Z</time>
      </trkpt>
      <trkpt lat="46.89265" lon="5.64749">
        <ele>267.8</ele>
        <time>2020-03-04T08:27:39Z</time>
      </trkpt>
      <trkpt lat="46.89262" lon="5.64741">
        <ele>267.8</ele>
        <time>2020-03-04T08:27:40Z</time>
      </trkpt>
      <trkpt lat="46.8926" lon="5.64732">
        <ele>267.6</ele>
        <time>2020-03-04T08:27:41Z</time>
      </trkpt>
      <trkpt lat="46.89257" lon="5.64723">
        <ele>267.6</ele>
        <time>2020-03-04T08:27:42Z</time>
      </trkpt>
      <trkpt lat="46.89255" lon="5.64714">
        <ele>267.2</ele>
        <time>2020-03-04T08:27:43Z</time>
      </trkpt>
      <trkpt lat="46.89254" lon="5.64705">
        <ele>267.2</ele>
        <time>2020-03-04T08:27:44Z</time>
      </trkpt>
      <trkpt lat="46.89253" lon="5.64696">
        <ele>267</ele>
        <time>2020-03-04T08:27:45Z</time>
      </trkpt>
      <trkpt lat="46.89252" lon="5.64687">
        <ele>267</ele>
        <time>2020-03-04T08:27:46Z</time>
      </trkpt>
      <trkpt lat="46.89251" lon="5.64677">
        <ele>267</ele>
        <time>2020-03-04T08:27:47Z</time>
      </trkpt>
      <trkpt lat="46.8925" lon="5.64668">
        <ele>267</ele>
        <time>2020-03-04T08:27:48Z</time>
      </trkpt>
      <trkpt lat="46.8925" lon="5.64659">
        <ele>267</ele>
        <time>2020-03-04T08:27:49Z</time>
      </trkpt>
      <trkpt lat="46.8925" lon="5.6465">
        <ele>267</ele>
        <time>2020-03-04T08:27:50Z</time>
      </trkpt>
      <trkpt lat="46.89249" lon="5.64641">
        <ele>267</ele>
        <time>2020-03-04T08:27:51Z</time>
      </trkpt>
      <trkpt lat="46.89248" lon="5.64631">
        <ele>267</ele>
        <time>2020-03-04T08:27:52Z</time>
      </trkpt>
      <trkpt lat="46.89247" lon="5.64622">
        <ele>267</ele>
        <time>2020-03-04T08:27:53Z</time>
      </trkpt>
      <trkpt lat="46.89246" lon="5.64614">
        <ele>267.2</ele>
        <time>2020-03-04T08:27:54Z</time>
      </trkpt>
      <trkpt lat="46.89246" lon="5.64605">
        <ele>267.2</ele>
        <time>2020-03-04T08:27:55Z</time>
      </trkpt>
      <trkpt lat="46.89245" lon="5.64597">
        <ele>267.6</ele>
        <time>2020-03-04T08:27:56Z</time>
      </trkpt>
      <trkpt lat="46.89244" lon="5.64589">
        <ele>267.6</ele>
        <time>2020-03-04T08:27:57Z</time>
      </trkpt>
      <trkpt lat="46.89243" lon="5.64581">
        <ele>267.8</ele>
        <time>2020-03-04T08:27:58Z</time>
      </trkpt>
      <trkpt lat="46.89243" lon="5.64574">
        <ele>267.8</ele>
        <time>2020-03-04T08:27:59Z</time>
      </trkpt>
      <trkpt lat="46.89243" lon="5.64566">
        <ele>268.2</ele>
        <time>2020-03-04T08:28:00Z</time>
      </trkpt>
      <trkpt lat="46.89243" lon="5.64559">
        <ele>268.2</ele>
        <time>2020-03-04T08:28:01Z</time>
      </trkpt>
      <trkpt lat="46.89242" lon="5.64552">
        <ele>268.4</ele>
        <time>2020-03-04T08:28:02Z</time>
      </trkpt>
      <trkpt lat="46.89242" lon="5.64545">
        <ele>268.4</ele>
        <time>2020-03-04T08:28:03Z</time>
      </trkpt>
      <trkpt lat="46.89243" lon="5.64538">
        <ele>268.6</ele>
        <time>2020-03-04T08:28:04Z</time>
      </trkpt>
      <trkpt lat="46.89243" lon="5.64531">
        <ele>268.6</ele>
        <time>2020-03-04T08:28:05Z</time>
      </trkpt>
      <trkpt lat="46.89244" lon="5.64524">
        <ele>268.6</ele>
        <time>2020-03-04T08:28:06Z</time>
      </trkpt>
      <trkpt lat="46.89245" lon="5.64517">
        <ele>268.8</ele>
        <time>2020-03-04T08:28:07Z</time>
      </trkpt>
      <trkpt lat="46.89246" lon="5.64509">
        <ele>268.8</ele>
        <time>2020-03-04T08:28:08Z</time>
      </trkpt>
      <trkpt lat="46.89247" lon="5.64502">
        <ele>268.8</ele>
        <time>2020-03-04T08:28:09Z</time>
      </trkpt>
      <trkpt lat="46.89249" lon="5.64494">
        <ele>268.8</ele>
        <time>2020-03-04T08:28:10Z</time>
      </trkpt>
      <trkpt lat="46.8925" lon="5.64487">
        <ele>268.8</ele>
        <time>2020-03-04T08:28:11Z</time>
      </trkpt>
      <trkpt lat="46.89252" lon="5.64479">
        <ele>268.6</ele>
        <time>2020-03-04T08:28:12Z</time>
      </trkpt>
      <trkpt lat="46.89253" lon="5.64472">
        <ele>268.6</ele>
        <time>2020-03-04T08:28:13Z</time>
      </trkpt>
      <trkpt lat="46.89256" lon="5.64464">
        <ele>268.2</ele>
        <time>2020-03-04T08:28:14Z</time>
      </trkpt>
      <trkpt lat="46.89258" lon="5.64456">
        <ele>268</ele>
        <time>2020-03-04T08:28:15Z</time>
      </trkpt>
      <trkpt lat="46.8926" lon="5.64448">
        <ele>267.8</ele>
        <time>2020-03-04T08:28:16Z</time>
      </trkpt>
      <trkpt lat="46.89263" lon="5.64441">
        <ele>267.6</ele>
        <time>2020-03-04T08:28:17Z</time>
      </trkpt>
      <trkpt lat="46.89267" lon="5.64433">
        <ele>267.4</ele>
        <time>2020-03-04T08:28:18Z</time>
      </trkpt>
      <trkpt lat="46.89271" lon="5.64424">
        <ele>267</ele>
        <time>2020-03-04T08:28:19Z</time>
      </trkpt>
      <trkpt lat="46.89275" lon="5.64416">
        <ele>266.6</ele>
        <time>2020-03-04T08:28:20Z</time>
      </trkpt>
      <trkpt lat="46.8928" lon="5.64409">
        <ele>266.2</ele>
        <time>2020-03-04T08:28:21Z</time>
      </trkpt>
      <trkpt lat="46.89285" lon="5.64401">
        <ele>266</ele>
        <time>2020-03-04T08:28:22Z</time>
      </trkpt>
      <trkpt lat="46.8929" lon="5.64395">
        <ele>265.6</ele>
        <time>2020-03-04T08:28:23Z</time>
      </trkpt>
      <trkpt lat="46.89294" lon="5.64389">
        <ele>265</ele>
        <time>2020-03-04T08:28:24Z</time>
      </trkpt>
      <trkpt lat="46.89299" lon="5.64383">
        <ele>264.8</ele>
        <time>2020-03-04T08:28:25Z</time>
      </trkpt>
      <trkpt lat="46.89304" lon="5.64377">
        <ele>264.2</ele>
        <time>2020-03-04T08:28:26Z</time>
      </trkpt>
      <trkpt lat="46.89309" lon="5.64372">
        <ele>263.8</ele>
        <time>2020-03-04T08:28:27Z</time>
      </trkpt>
      <trkpt lat="46.89314" lon="5.64366">
        <ele>263.4</ele>
        <time>2020-03-04T08:28:28Z</time>
      </trkpt>
      <trkpt lat="46.89319" lon="5.64359">
        <ele>263</ele>
        <time>2020-03-04T08:28:29Z</time>
      </trkpt>
      <trkpt lat="46.89324" lon="5.64352">
        <ele>262.6</ele>
        <time>2020-03-04T08:28:30Z</time>
      </trkpt>
      <trkpt lat="46.89327" lon="5.64344">
        <ele>262.2</ele>
        <time>2020-03-04T08:28:31Z</time>
      </trkpt>
      <trkpt lat="46.89331" lon="5.64335">
        <ele>261.6</ele>
        <time>2020-03-04T08:28:32Z</time>
      </trkpt>
      <trkpt lat="46.89334" lon="5.64326">
        <ele>261</ele>
        <time>2020-03-04T08:28:33Z</time>
      </trkpt>
      <trkpt lat="46.89336" lon="5.64316">
        <ele>260.4</ele>
        <time>2020-03-04T08:28:34Z</time>
      </trkpt>
      <trkpt lat="46.89339" lon="5.64307">
        <ele>259.8</ele>
        <time>2020-03-04T08:28:35Z</time>
      </trkpt>
      <trkpt lat="46.8934" lon="5.64297">
        <ele>259.4</ele>
        <time>2020-03-04T08:28:36Z</time>
      </trkpt>
      <trkpt lat="46.89342" lon="5.64286">
        <ele>258.8</ele>
        <time>2020-03-04T08:28:37Z</time>
      </trkpt>
      <trkpt lat="46.89343" lon="5.64276">
        <ele>258.4</ele>
        <time>2020-03-04T08:28:38Z</time>
      </trkpt>
      <trkpt lat="46.89344" lon="5.64265">
        <ele>257.8</ele>
        <time>2020-03-04T08:28:39Z</time>
      </trkpt>
      <trkpt lat="46.89346" lon="5.64255">
        <ele>257.2</ele>
        <time>2020-03-04T08:28:40Z</time>
      </trkpt>
      <trkpt lat="46.89347" lon="5.64245">
        <ele>256.8</ele>
        <time>2020-03-04T08:28:41Z</time>
      </trkpt>
      <trkpt lat="46.89348" lon="5.64235">
        <ele>256.4</ele>
        <time>2020-03-04T08:28:42Z</time>
      </trkpt>
      <trkpt lat="46.8935" lon="5.64226">
        <ele>256</ele>
        <time>2020-03-04T08:28:43Z</time>
      </trkpt>
      <trkpt lat="46.89351" lon="5.64218">
        <ele>255.8</ele>
        <time>2020-03-04T08:28:44Z</time>
      </trkpt>
      <trkpt lat="46.89352" lon="5.6421">
        <ele>255.4</ele>
        <time>2020-03-04T08:28:45Z</time>
      </trkpt>
      <trkpt lat="46.89353" lon="5.64202">
        <ele>255.2</ele>
        <time>2020-03-04T08:28:46Z</time>
      </trkpt>
      <trkpt lat="46.89354" lon="5.64194">
        <ele>255</ele>
        <time>2020-03-04T08:28:47Z</time>
      </trkpt>
      <trkpt lat="46.89356" lon="5.64188">
        <ele>255</ele>
        <time>2020-03-04T08:28:48Z</time>
      </trkpt>
      <trkpt lat="46.89358" lon="5.64182">
        <ele>254.6</ele>
        <time>2020-03-04T08:28:49Z</time>
      </trkpt>
      <trkpt lat="46.89359" lon="5.64176">
        <ele>254.6</ele>
        <time>2020-03-04T08:28:50Z</time>
      </trkpt>
      <trkpt lat="46.8936" lon="5.64171">
        <ele>254.2</ele>
        <time>2020-03-04T08:28:51Z</time>
      </trkpt>
      <trkpt lat="46.89361" lon="5.64167">
        <ele>254.2</ele>
        <time>2020-03-04T08:28:52Z</time>
      </trkpt>
      <trkpt lat="46.89363" lon="5.64163">
        <ele>254</ele>
        <time>2020-03-04T08:28:53Z</time>
      </trkpt>
      <trkpt lat="46.89364" lon="5.64159">
        <ele>254</ele>
        <time>2020-03-04T08:28:54Z</time>
      </trkpt>
      <trkpt lat="46.89364" lon="5.64156">
        <ele>254</ele>
        <time>2020-03-04T08:28:55Z</time>
      </trkpt>
      <trkpt lat="46.89364" lon="5.64153">
        <ele>254</ele>
        <time>2020-03-04T08:28:56Z</time>
      </trkpt>
      <trkpt lat="46.89364" lon="5.6415">
        <ele>253.8</ele>
        <time>2020-03-04T08:28:57Z</time>
      </trkpt>
      <trkpt lat="46.89363" lon="5.64147">
        <ele>253.8</ele>
        <time>2020-03-04T08:28:58Z</time>
      </trkpt>
      <trkpt lat="46.89362" lon="5.64144">
        <ele>253.8</ele>
        <time>2020-03-04T08:28:59Z</time>
      </trkpt>
      <trkpt lat="46.8936" lon="5.64141">
        <ele>253.8</ele>
        <time>2020-03-04T08:29:00Z</time>
      </trkpt>
      <trkpt lat="46.89358" lon="5.64138">
        <ele>253.8</ele>
        <time>2020-03-04T08:29:01Z</time>
      </trkpt>
      <trkpt lat="46.89357" lon="5.64133">
        <ele>253.6</ele>
        <time>2020-03-04T08:29:02Z</time>
      </trkpt>
      <trkpt lat="46.89355" lon="5.64127">
        <ele>253.6</ele>
        <time>2020-03-04T08:29:03Z</time>
      </trkpt>
      <trkpt lat="46.89353" lon="5.64121">
        <ele>253.2</ele>
        <time>2020-03-04T08:29:04Z</time>
      </trkpt>
      <trkpt lat="46.89351" lon="5.64115">
        <ele>253.2</ele>
        <time>2020-03-04T08:29:05Z</time>
      </trkpt>
      <trkpt lat="46.8935" lon="5.64108">
        <ele>253</ele>
        <time>2020-03-04T08:29:06Z</time>
      </trkpt>
      <trkpt lat="46.89348" lon="5.64101">
        <ele>252.6</ele>
        <time>2020-03-04T08:29:07Z</time>
      </trkpt>
      <trkpt lat="46.89346" lon="5.64094">
        <ele>252.4</ele>
        <time>2020-03-04T08:29:08Z</time>
      </trkpt>
      <trkpt lat="46.89343" lon="5.64087">
        <ele>252.4</ele>
        <time>2020-03-04T08:29:09Z</time>
      </trkpt>
      <trkpt lat="46.89341" lon="5.64079">
        <ele>252.2</ele>
        <time>2020-03-04T08:29:10Z</time>
      </trkpt>
      <trkpt lat="46.89338" lon="5.64072">
        <ele>252.2</ele>
        <time>2020-03-04T08:29:11Z</time>
      </trkpt>
      <trkpt lat="46.89336" lon="5.64065">
        <ele>252.2</ele>
        <time>2020-03-04T08:29:12Z</time>
      </trkpt>
      <trkpt lat="46.89333" lon="5.64058">
        <ele>252.2</ele>
        <time>2020-03-04T08:29:13Z</time>
      </trkpt>
      <trkpt lat="46.8933" lon="5.64051">
        <ele>252.2</ele>
        <time>2020-03-04T08:29:14Z</time>
      </trkpt>
      <trkpt lat="46.89326" lon="5.64045">
        <ele>252.2</ele>
        <time>2020-03-04T08:29:15Z</time>
      </trkpt>
      <trkpt lat="46.89321" lon="5.64039">
        <ele>252.2</ele>
        <time>2020-03-04T08:29:16Z</time>
      </trkpt>
      <trkpt lat="46.89317" lon="5.64034">
        <ele>252.4</ele>
        <time>2020-03-04T08:29:17Z</time>
      </trkpt>
      <trkpt lat="46.89312" lon="5.64031">
        <ele>252.4</ele>
        <time>2020-03-04T08:29:18Z</time>
      </trkpt>
      <trkpt lat="46.89307" lon="5.64028">
        <ele>252.4</ele>
        <time>2020-03-04T08:29:19Z</time>
      </trkpt>
      <trkpt lat="46.89302" lon="5.64027">
        <ele>252.8</ele>
        <time>2020-03-04T08:29:20Z</time>
      </trkpt>
      <trkpt lat="46.89297" lon="5.64026">
        <ele>252.8</ele>
        <time>2020-03-04T08:29:21Z</time>
      </trkpt>
      <trkpt lat="46.89293" lon="5.64024">
        <ele>253.2</ele>
        <time>2020-03-04T08:29:22Z</time>
      </trkpt>
      <trkpt lat="46.89289" lon="5.64022">
        <ele>253.2</ele>
        <time>2020-03-04T08:29:23Z</time>
      </trkpt>
      <trkpt lat="46.89285" lon="5.64022">
        <ele>253.4</ele>
        <time>2020-03-04T08:29:24Z</time>
      </trkpt>
      <trkpt lat="46.89281" lon="5.64021">
        <ele>253.4</ele>
        <time>2020-03-04T08:29:25Z</time>
      </trkpt>
      <trkpt lat="46.89277" lon="5.64021">
        <ele>253.8</ele>
        <time>2020-03-04T08:29:26Z</time>
      </trkpt>
      <trkpt lat="46.89273" lon="5.64019">
        <ele>253.8</ele>
        <time>2020-03-04T08:29:27Z</time>
      </trkpt>
      <trkpt lat="46.89269" lon="5.64017">
        <ele>254.2</ele>
        <time>2020-03-04T08:29:28Z</time>
      </trkpt>
      <trkpt lat="46.89265" lon="5.64016">
        <ele>254.2</ele>
        <time>2020-03-04T08:29:29Z</time>
      </trkpt>
      <trkpt lat="46.89261" lon="5.64016">
        <ele>254.6</ele>
        <time>2020-03-04T08:29:30Z</time>
      </trkpt>
      <trkpt lat="46.89257" lon="5.64016">
        <ele>254.8</ele>
        <time>2020-03-04T08:29:31Z</time>
      </trkpt>
      <trkpt lat="46.89253" lon="5.64016">
        <ele>255</ele>
        <time>2020-03-04T08:29:32Z</time>
      </trkpt>
      <trkpt lat="46.8925" lon="5.64016">
        <ele>255</ele>
        <time>2020-03-04T08:29:33Z</time>
      </trkpt>
      <trkpt lat="46.89246" lon="5.64016">
        <ele>255.4</ele>
        <time>2020-03-04T08:29:34Z</time>
      </trkpt>
      <trkpt lat="46.89242" lon="5.64016">
        <ele>255.8</ele>
        <time>2020-03-04T08:29:35Z</time>
      </trkpt>
      <trkpt lat="46.89238" lon="5.64016">
        <ele>256</ele>
        <time>2020-03-04T08:29:36Z</time>
      </trkpt>
      <trkpt lat="46.89235" lon="5.64016">
        <ele>256.2</ele>
        <time>2020-03-04T08:29:37Z</time>
      </trkpt>
      <trkpt lat="46.89231" lon="5.64016">
        <ele>256.4</ele>
        <time>2020-03-04T08:29:38Z</time>
      </trkpt>
      <trkpt lat="46.89228" lon="5.64017">
        <ele>256.4</ele>
        <time>2020-03-04T08:29:39Z</time>
      </trkpt>
      <trkpt lat="46.89225" lon="5.64017">
        <ele>256.8</ele>
        <time>2020-03-04T08:29:40Z</time>
      </trkpt>
      <trkpt lat="46.89221" lon="5.64018">
        <ele>257.2</ele>
        <time>2020-03-04T08:29:41Z</time>
      </trkpt>
      <trkpt lat="46.89218" lon="5.64018">
        <ele>257.4</ele>
        <time>2020-03-04T08:29:42Z</time>
      </trkpt>
      <trkpt lat="46.89214" lon="5.64018">
        <ele>257.6</ele>
        <time>2020-03-04T08:29:43Z</time>
      </trkpt>
      <trkpt lat="46.89211" lon="5.64018">
        <ele>257.6</ele>
        <time>2020-03-04T08:29:44Z</time>
      </trkpt>
      <trkpt lat="46.89207" lon="5.64018">
        <ele>258.2</ele>
        <time>2020-03-04T08:29:45Z</time>
      </trkpt>
      <trkpt lat="46.89204" lon="5.64017">
        <ele>258.4</ele>
        <time>2020-03-04T08:29:46Z</time>
      </trkpt>
      <trkpt lat="46.892" lon="5.64017">
        <ele>258.8</ele>
        <time>2020-03-04T08:29:47Z</time>
      </trkpt>
      <trkpt lat="46.89197" lon="5.64017">
        <ele>258.8</ele>
        <time>2020-03-04T08:29:48Z</time>
      </trkpt>
      <trkpt lat="46.89193" lon="5.64017">
        <ele>259</ele>
        <time>2020-03-04T08:29:49Z</time>
      </trkpt>
      <trkpt lat="46.8919" lon="5.64017">
        <ele>259</ele>
        <time>2020-03-04T08:29:50Z</time>
      </trkpt>
      <trkpt lat="46.89186" lon="5.64017">
        <ele>259.2</ele>
        <time>2020-03-04T08:29:51Z</time>
      </trkpt>
      <trkpt lat="46.89183" lon="5.64017">
        <ele>259.2</ele>
        <time>2020-03-04T08:29:52Z</time>
      </trkpt>
      <trkpt lat="46.89179" lon="5.64017">
        <ele>259.6</ele>
        <time>2020-03-04T08:29:53Z</time>
      </trkpt>
      <trkpt lat="46.89176" lon="5.64017">
        <ele>259.8</ele>
        <time>2020-03-04T08:29:54Z</time>
      </trkpt>
      <trkpt lat="46.89172" lon="5.64017">
        <ele>259.8</ele>
        <time>2020-03-04T08:29:55Z</time>
      </trkpt>
      <trkpt lat="46.89169" lon="5.64019">
        <ele>260.2</ele>
        <time>2020-03-04T08:29:56Z</time>
      </trkpt>
      <trkpt lat="46.89166" lon="5.6402">
        <ele>260.4</ele>
        <time>2020-03-04T08:29:57Z</time>
      </trkpt>
      <trkpt lat="46.89162" lon="5.6402">
        <ele>260.6</ele>
        <time>2020-03-04T08:29:58Z</time>
      </trkpt>
      <trkpt lat="46.89159" lon="5.64021">
        <ele>260.6</ele>
        <time>2020-03-04T08:29:59Z</time>
      </trkpt>
      <trkpt lat="46.89156" lon="5.64021">
        <ele>261</ele>
        <time>2020-03-04T08:30:00Z</time>
      </trkpt>
      <trkpt lat="46.89153" lon="5.64021">
        <ele>261</ele>
        <time>2020-03-04T08:30:01Z</time>
      </trkpt>
      <trkpt lat="46.8915" lon="5.64023">
        <ele>261.4</ele>
        <time>2020-03-04T08:30:02Z</time>
      </trkpt>
      <trkpt lat="46.89146" lon="5.64024">
        <ele>261.4</ele>
        <time>2020-03-04T08:30:03Z</time>
      </trkpt>
      <trkpt lat="46.89143" lon="5.64025">
        <ele>261.6</ele>
        <time>2020-03-04T08:30:04Z</time>
      </trkpt>
      <trkpt lat="46.89139" lon="5.64025">
        <ele>261.6</ele>
        <time>2020-03-04T08:30:05Z</time>
      </trkpt>
      <trkpt lat="46.89136" lon="5.64026">
        <ele>261.6</ele>
        <time>2020-03-04T08:30:06Z</time>
      </trkpt>
      <trkpt lat="46.89132" lon="5.64026">
        <ele>262</ele>
        <time>2020-03-04T08:30:07Z</time>
      </trkpt>
      <trkpt lat="46.89129" lon="5.64027">
        <ele>262</ele>
        <time>2020-03-04T08:30:08Z</time>
      </trkpt>
      <trkpt lat="46.89126" lon="5.64027">
        <ele>262.2</ele>
        <time>2020-03-04T08:30:09Z</time>
      </trkpt>
      <trkpt lat="46.89122" lon="5.64028">
        <ele>262.2</ele>
        <time>2020-03-04T08:30:10Z</time>
      </trkpt>
      <trkpt lat="46.89119" lon="5.64028">
        <ele>262.4</ele>
        <time>2020-03-04T08:30:11Z</time>
      </trkpt>
      <trkpt lat="46.89115" lon="5.64028">
        <ele>262.4</ele>
        <time>2020-03-04T08:30:12Z</time>
      </trkpt>
      <trkpt lat="46.89111" lon="5.64029">
        <ele>262.4</ele>
        <time>2020-03-04T08:30:13Z</time>
      </trkpt>
      <trkpt lat="46.89107" lon="5.64029">
        <ele>262.6</ele>
        <time>2020-03-04T08:30:14Z</time>
      </trkpt>
      <trkpt lat="46.89103" lon="5.64029">
        <ele>262.6</ele>
        <time>2020-03-04T08:30:15Z</time>
      </trkpt>
      <trkpt lat="46.891" lon="5.64028">
        <ele>262.8</ele>
        <time>2020-03-04T08:30:16Z</time>
      </trkpt>
      <trkpt lat="46.89096" lon="5.64029">
        <ele>262.8</ele>
        <time>2020-03-04T08:30:17Z</time>
      </trkpt>
      <trkpt lat="46.89092" lon="5.6403">
        <ele>263.2</ele>
        <time>2020-03-04T08:30:18Z</time>
      </trkpt>
      <trkpt lat="46.89088" lon="5.64031">
        <ele>263.2</ele>
        <time>2020-03-04T08:30:19Z</time>
      </trkpt>
      <trkpt lat="46.89085" lon="5.64032">
        <ele>263.4</ele>
        <time>2020-03-04T08:30:20Z</time>
      </trkpt>
      <trkpt lat="46.89081" lon="5.64033">
        <ele>263.4</ele>
        <time>2020-03-04T08:30:21Z</time>
      </trkpt>
      <trkpt lat="46.89077" lon="5.64034">
        <ele>263.6</ele>
        <time>2020-03-04T08:30:22Z</time>
      </trkpt>
      <trkpt lat="46.89074" lon="5.64036">
        <ele>263.6</ele>
        <time>2020-03-04T08:30:23Z</time>
      </trkpt>
      <trkpt lat="46.8907" lon="5.64037">
        <ele>263.8</ele>
        <time>2020-03-04T08:30:24Z</time>
      </trkpt>
      <trkpt lat="46.89067" lon="5.64038">
        <ele>263.8</ele>
        <time>2020-03-04T08:30:25Z</time>
      </trkpt>
      <trkpt lat="46.89064" lon="5.64039">
        <ele>264.2</ele>
        <time>2020-03-04T08:30:26Z</time>
      </trkpt>
      <trkpt lat="46.89062" lon="5.6404">
        <ele>264.4</ele>
        <time>2020-03-04T08:30:27Z</time>
      </trkpt>
      <trkpt lat="46.89059" lon="5.64041">
        <ele>264.4</ele>
        <time>2020-03-04T08:30:28Z</time>
      </trkpt>
      <trkpt lat="46.89057" lon="5.64042">
        <ele>264.8</ele>
        <time>2020-03-04T08:30:29Z</time>
      </trkpt>
      <trkpt lat="46.89054" lon="5.64044">
        <ele>265</ele>
        <time>2020-03-04T08:30:30Z</time>
      </trkpt>
      <trkpt lat="46.89052" lon="5.64045">
        <ele>265.2</ele>
        <time>2020-03-04T08:30:31Z</time>
      </trkpt>
      <trkpt lat="46.89049" lon="5.64046">
        <ele>265.4</ele>
        <time>2020-03-04T08:30:32Z</time>
      </trkpt>
      <trkpt lat="46.89047" lon="5.64048">
        <ele>265.4</ele>
        <time>2020-03-04T08:30:33Z</time>
      </trkpt>
      <trkpt lat="46.89045" lon="5.6405">
        <ele>266</ele>
        <time>2020-03-04T08:30:34Z</time>
      </trkpt>
      <trkpt lat="46.89042" lon="5.64052">
        <ele>266</ele>
        <time>2020-03-04T08:30:35Z</time>
      </trkpt>
      <trkpt lat="46.8904" lon="5.64054">
        <ele>266.2</ele>
        <time>2020-03-04T08:30:36Z</time>
      </trkpt>
      <trkpt lat="46.89038" lon="5.64056">
        <ele>266.2</ele>
        <time>2020-03-04T08:30:37Z</time>
      </trkpt>
      <trkpt lat="46.89036" lon="5.64058">
        <ele>266.6</ele>
        <time>2020-03-04T08:30:38Z</time>
      </trkpt>
      <trkpt lat="46.89033" lon="5.6406">
        <ele>266.6</ele>
        <time>2020-03-04T08:30:39Z</time>
      </trkpt>
      <trkpt lat="46.89032" lon="5.64062">
        <ele>266.8</ele>
        <time>2020-03-04T08:30:40Z</time>
      </trkpt>
      <trkpt lat="46.8903" lon="5.64064">
        <ele>267.2</ele>
        <time>2020-03-04T08:30:41Z</time>
      </trkpt>
      <trkpt lat="46.89028" lon="5.64067">
        <ele>267.2</ele>
        <time>2020-03-04T08:30:42Z</time>
      </trkpt>
      <trkpt lat="46.89026" lon="5.64069">
        <ele>267.4</ele>
        <time>2020-03-04T08:30:43Z</time>
      </trkpt>
      <trkpt lat="46.89024" lon="5.64072">
        <ele>267.4</ele>
        <time>2020-03-04T08:30:44Z</time>
      </trkpt>
      <trkpt lat="46.89022" lon="5.64074">
        <ele>267.8</ele>
        <time>2020-03-04T08:30:45Z</time>
      </trkpt>
      <trkpt lat="46.8902" lon="5.64077">
        <ele>267.8</ele>
        <time>2020-03-04T08:30:46Z</time>
      </trkpt>
      <trkpt lat="46.89019" lon="5.64079">
        <ele>268.2</ele>
        <time>2020-03-04T08:30:47Z</time>
      </trkpt>
      <trkpt lat="46.89017" lon="5.64082">
        <ele>268.2</ele>
        <time>2020-03-04T08:30:48Z</time>
      </trkpt>
      <trkpt lat="46.89015" lon="5.64085">
        <ele>268.6</ele>
        <time>2020-03-04T08:30:49Z</time>
      </trkpt>
      <trkpt lat="46.89013" lon="5.64087">
        <ele>268.6</ele>
        <time>2020-03-04T08:30:50Z</time>
      </trkpt>
      <trkpt lat="46.89011" lon="5.64089">
        <ele>268.8</ele>
        <time>2020-03-04T08:30:51Z</time>
      </trkpt>
      <trkpt lat="46.89009" lon="5.64091">
        <ele>268.8</ele>
        <time>2020-03-04T08:30:52Z</time>
      </trkpt>
      <trkpt lat="46.89007" lon="5.64093">
        <ele>269</ele>
        <time>2020-03-04T08:30:53Z</time>
      </trkpt>
      <trkpt lat="46.89005" lon="5.64095">
        <ele>269</ele>
        <time>2020-03-04T08:30:54Z</time>
      </trkpt>
      <trkpt lat="46.89003" lon="5.64097">
        <ele>269.4</ele>
        <time>2020-03-04T08:30:55Z</time>
      </trkpt>
      <trkpt lat="46.89001" lon="5.641">
        <ele>269.4</ele>
        <time>2020-03-04T08:30:56Z</time>
      </trkpt>
      <trkpt lat="46.88999" lon="5.64102">
        <ele>269.4</ele>
        <time>2020-03-04T08:30:57Z</time>
      </trkpt>
      <trkpt lat="46.88997" lon="5.64104">
        <ele>269.6</ele>
        <time>2020-03-04T08:30:58Z</time>
      </trkpt>
      <trkpt lat="46.88995" lon="5.64106">
        <ele>269.6</ele>
        <time>2020-03-04T08:30:59Z</time>
      </trkpt>
      <trkpt lat="46.88993" lon="5.64109">
        <ele>269.8</ele>
        <time>2020-03-04T08:31:00Z</time>
      </trkpt>
      <trkpt lat="46.88992" lon="5.64111">
        <ele>269.8</ele>
        <time>2020-03-04T08:31:01Z</time>
      </trkpt>
      <trkpt lat="46.8899" lon="5.64114">
        <ele>270</ele>
        <time>2020-03-04T08:31:02Z</time>
      </trkpt>
      <trkpt lat="46.88988" lon="5.64117">
        <ele>270</ele>
        <time>2020-03-04T08:31:03Z</time>
      </trkpt>
      <trkpt lat="46.88986" lon="5.64119">
        <ele>270</ele>
        <time>2020-03-04T08:31:04Z</time>
      </trkpt>
      <trkpt lat="46.88983" lon="5.64122">
        <ele>270</ele>
        <time>2020-03-04T08:31:05Z</time>
      </trkpt>
      <trkpt lat="46.88981" lon="5.64124">
        <ele>270</ele>
        <time>2020-03-04T08:31:06Z</time>
      </trkpt>
      <trkpt lat="46.88978" lon="5.64126">
        <ele>269.8</ele>
        <time>2020-03-04T08:31:07Z</time>
      </trkpt>
      <trkpt lat="46.88975" lon="5.64128">
        <ele>269.8</ele>
        <time>2020-03-04T08:31:08Z</time>
      </trkpt>
      <trkpt lat="46.88972" lon="5.6413">
        <ele>269.8</ele>
        <time>2020-03-04T08:31:09Z</time>
      </trkpt>
      <trkpt lat="46.88969" lon="5.64133">
        <ele>269.4</ele>
        <time>2020-03-04T08:31:10Z</time>
      </trkpt>
      <trkpt lat="46.88966" lon="5.64135">
        <ele>269.4</ele>
        <time>2020-03-04T08:31:11Z</time>
      </trkpt>
      <trkpt lat="46.88963" lon="5.64138">
        <ele>269.2</ele>
        <time>2020-03-04T08:31:12Z</time>
      </trkpt>
      <trkpt lat="46.8896" lon="5.64141">
        <ele>269.2</ele>
        <time>2020-03-04T08:31:13Z</time>
      </trkpt>
      <trkpt lat="46.88956" lon="5.64144">
        <ele>268.8</ele>
        <time>2020-03-04T08:31:14Z</time>
      </trkpt>
      <trkpt lat="46.88953" lon="5.64147">
        <ele>268.6</ele>
        <time>2020-03-04T08:31:15Z</time>
      </trkpt>
      <trkpt lat="46.88949" lon="5.6415">
        <ele>268.6</ele>
        <time>2020-03-04T08:31:16Z</time>
      </trkpt>
      <trkpt lat="46.88945" lon="5.64153">
        <ele>268.4</ele>
        <time>2020-03-04T08:31:17Z</time>
      </trkpt>
      <trkpt lat="46.88942" lon="5.64156">
        <ele>268.4</ele>
        <time>2020-03-04T08:31:18Z</time>
      </trkpt>
      <trkpt lat="46.88938" lon="5.64159">
        <ele>268</ele>
        <time>2020-03-04T08:31:19Z</time>
      </trkpt>
      <trkpt lat="46.88934" lon="5.64162">
        <ele>267.6</ele>
        <time>2020-03-04T08:31:20Z</time>
      </trkpt>
      <trkpt lat="46.88931" lon="5.64165">
        <ele>267.6</ele>
        <time>2020-03-04T08:31:21Z</time>
      </trkpt>
      <trkpt lat="46.88927" lon="5.64167">
        <ele>267.2</ele>
        <time>2020-03-04T08:31:22Z</time>
      </trkpt>
      <trkpt lat="46.88923" lon="5.64169">
        <ele>267</ele>
        <time>2020-03-04T08:31:23Z</time>
      </trkpt>
      <trkpt lat="46.8892" lon="5.64171">
        <ele>267</ele>
        <time>2020-03-04T08:31:24Z</time>
      </trkpt>
      <trkpt lat="46.88916" lon="5.64172">
        <ele>266.6</ele>
        <time>2020-03-04T08:31:25Z</time>
      </trkpt>
      <trkpt lat="46.88912" lon="5.64173">
        <ele>266.6</ele>
        <time>2020-03-04T08:31:26Z</time>
      </trkpt>
      <trkpt lat="46.88908" lon="5.64174">
        <ele>266.2</ele>
        <time>2020-03-04T08:31:27Z</time>
      </trkpt>
      <trkpt lat="46.88905" lon="5.64173">
        <ele>266</ele>
        <time>2020-03-04T08:31:28Z</time>
      </trkpt>
      <trkpt lat="46.88901" lon="5.64172">
        <ele>265.8</ele>
        <time>2020-03-04T08:31:29Z</time>
      </trkpt>
      <trkpt lat="46.88897" lon="5.64171">
        <ele>265.8</ele>
        <time>2020-03-04T08:31:30Z</time>
      </trkpt>
      <trkpt lat="46.88893" lon="5.64169">
        <ele>265.4</ele>
        <time>2020-03-04T08:31:31Z</time>
      </trkpt>
      <trkpt lat="46.88889" lon="5.64167">
        <ele>265.2</ele>
        <time>2020-03-04T08:31:32Z</time>
      </trkpt>
      <trkpt lat="46.88885" lon="5.64166">
        <ele>264.8</ele>
        <time>2020-03-04T08:31:33Z</time>
      </trkpt>
      <trkpt lat="46.8888" lon="5.64164">
        <ele>264.6</ele>
        <time>2020-03-04T08:31:34Z</time>
      </trkpt>
      <trkpt lat="46.88876" lon="5.64161">
        <ele>264.2</ele>
        <time>2020-03-04T08:31:35Z</time>
      </trkpt>
      <trkpt lat="46.88871" lon="5.64159">
        <ele>263.8</ele>
        <time>2020-03-04T08:31:36Z</time>
      </trkpt>
      <trkpt lat="46.88866" lon="5.64156">
        <ele>263.6</ele>
        <time>2020-03-04T08:31:37Z</time>
      </trkpt>
      <trkpt lat="46.88861" lon="5.64154">
        <ele>263.2</ele>
        <time>2020-03-04T08:31:38Z</time>
      </trkpt>
      <trkpt lat="46.88856" lon="5.64151">
        <ele>262.8</ele>
        <time>2020-03-04T08:31:39Z</time>
      </trkpt>
      <trkpt lat="46.88851" lon="5.64148">
        <ele>262.4</ele>
        <time>2020-03-04T08:31:40Z</time>
      </trkpt>
      <trkpt lat="46.88846" lon="5.64146">
        <ele>262.2</ele>
        <time>2020-03-04T08:31:41Z</time>
      </trkpt>
      <trkpt lat="46.88841" lon="5.64143">
        <ele>262</ele>
        <time>2020-03-04T08:31:42Z</time>
      </trkpt>
      <trkpt lat="46.88835" lon="5.6414">
        <ele>261.4</ele>
        <time>2020-03-04T08:31:43Z</time>
      </trkpt>
      <trkpt lat="46.8883" lon="5.64137">
        <ele>261.2</ele>
        <time>2020-03-04T08:31:44Z</time>
      </trkpt>
      <trkpt lat="46.88824" lon="5.64134">
        <ele>260.8</ele>
        <time>2020-03-04T08:31:45Z</time>
      </trkpt>
      <trkpt lat="46.88819" lon="5.64131">
        <ele>260.4</ele>
        <time>2020-03-04T08:31:46Z</time>
      </trkpt>
      <trkpt lat="46.88814" lon="5.64128">
        <ele>260.2</ele>
        <time>2020-03-04T08:31:47Z</time>
      </trkpt>
      <trkpt lat="46.8881" lon="5.64124">
        <ele>259.8</ele>
        <time>2020-03-04T08:31:48Z</time>
      </trkpt>
      <trkpt lat="46.88805" lon="5.64121">
        <ele>259.6</ele>
        <time>2020-03-04T08:31:49Z</time>
      </trkpt>
      <trkpt lat="46.88801" lon="5.64118">
        <ele>259.2</ele>
        <time>2020-03-04T08:31:50Z</time>
      </trkpt>
      <trkpt lat="46.88797" lon="5.64114">
        <ele>259</ele>
        <time>2020-03-04T08:31:51Z</time>
      </trkpt>
      <trkpt lat="46.88793" lon="5.6411">
        <ele>258.8</ele>
        <time>2020-03-04T08:31:52Z</time>
      </trkpt>
      <trkpt lat="46.88789" lon="5.64105">
        <ele>258.4</ele>
        <time>2020-03-04T08:31:53Z</time>
      </trkpt>
      <trkpt lat="46.88786" lon="5.64099">
        <ele>258.2</ele>
        <time>2020-03-04T08:31:54Z</time>
      </trkpt>
      <trkpt lat="46.88782" lon="5.64094">
        <ele>258</ele>
        <time>2020-03-04T08:31:55Z</time>
      </trkpt>
      <trkpt lat="46.88779" lon="5.64088">
        <ele>257.6</ele>
        <time>2020-03-04T08:31:56Z</time>
      </trkpt>
      <trkpt lat="46.88776" lon="5.64081">
        <ele>257.4</ele>
        <time>2020-03-04T08:31:57Z</time>
      </trkpt>
      <trkpt lat="46.88774" lon="5.64074">
        <ele>257</ele>
        <time>2020-03-04T08:31:58Z</time>
      </trkpt>
      <trkpt lat="46.88772" lon="5.64067">
        <ele>256.8</ele>
        <time>2020-03-04T08:31:59Z</time>
      </trkpt>
      <trkpt lat="46.88771" lon="5.6406">
        <ele>256.4</ele>
        <time>2020-03-04T08:32:00Z</time>
      </trkpt>
      <trkpt lat="46.8877" lon="5.64052">
        <ele>256.2</ele>
        <time>2020-03-04T08:32:01Z</time>
      </trkpt>
      <trkpt lat="46.88769" lon="5.64045">
        <ele>255.8</ele>
        <time>2020-03-04T08:32:02Z</time>
      </trkpt>
      <trkpt lat="46.88768" lon="5.64038">
        <ele>255.8</ele>
        <time>2020-03-04T08:32:03Z</time>
      </trkpt>
      <trkpt lat="46.88767" lon="5.64031">
        <ele>255.4</ele>
        <time>2020-03-04T08:32:04Z</time>
      </trkpt>
      <trkpt lat="46.88765" lon="5.64025">
        <ele>255.2</ele>
        <time>2020-03-04T08:32:05Z</time>
      </trkpt>
      <trkpt lat="46.88763" lon="5.64018">
        <ele>254.8</ele>
        <time>2020-03-04T08:32:06Z</time>
      </trkpt>
      <trkpt lat="46.88759" lon="5.64012">
        <ele>254.6</ele>
        <time>2020-03-04T08:32:07Z</time>
      </trkpt>
      <trkpt lat="46.88756" lon="5.64006">
        <ele>254.4</ele>
        <time>2020-03-04T08:32:08Z</time>
      </trkpt>
      <trkpt lat="46.88753" lon="5.64002">
        <ele>254</ele>
        <time>2020-03-04T08:32:09Z</time>
      </trkpt>
      <trkpt lat="46.8875" lon="5.63997">
        <ele>253.8</ele>
        <time>2020-03-04T08:32:10Z</time>
      </trkpt>
      <trkpt lat="46.88747" lon="5.63993">
        <ele>253.6</ele>
        <time>2020-03-04T08:32:11Z</time>
      </trkpt>
      <trkpt lat="46.88744" lon="5.63989">
        <ele>253.4</ele>
        <time>2020-03-04T08:32:12Z</time>
      </trkpt>
      <trkpt lat="46.88741" lon="5.63985">
        <ele>253</ele>
        <time>2020-03-04T08:32:13Z</time>
      </trkpt>
      <trkpt lat="46.88739" lon="5.63983">
        <ele>252.8</ele>
        <time>2020-03-04T08:32:14Z</time>
      </trkpt>
      <trkpt lat="46.88736" lon="5.6398">
        <ele>252.6</ele>
        <time>2020-03-04T08:32:15Z</time>
      </trkpt>
      <trkpt lat="46.88734" lon="5.63978">
        <ele>252.2</ele>
        <time>2020-03-04T08:32:16Z</time>
      </trkpt>
      <trkpt lat="46.88731" lon="5.63976">
        <ele>252</ele>
        <time>2020-03-04T08:32:17Z</time>
      </trkpt>
      <trkpt lat="46.88728" lon="5.63974">
        <ele>252</ele>
        <time>2020-03-04T08:32:18Z</time>
      </trkpt>
      <trkpt lat="46.88726" lon="5.63972">
        <ele>251.6</ele>
        <time>2020-03-04T08:32:19Z</time>
      </trkpt>
      <trkpt lat="46.88724" lon="5.6397">
        <ele>251.6</ele>
        <time>2020-03-04T08:32:20Z</time>
      </trkpt>
      <trkpt lat="46.88721" lon="5.63969">
        <ele>251.4</ele>
        <time>2020-03-04T08:32:21Z</time>
      </trkpt>
      <trkpt lat="46.88719" lon="5.63968">
        <ele>251.4</ele>
        <time>2020-03-04T08:32:22Z</time>
      </trkpt>
      <trkpt lat="46.88717" lon="5.63967">
        <ele>251</ele>
        <time>2020-03-04T08:32:23Z</time>
      </trkpt>
      <trkpt lat="46.88714" lon="5.63966">
        <ele>251</ele>
        <time>2020-03-04T08:32:24Z</time>
      </trkpt>
      <trkpt lat="46.88711" lon="5.63964">
        <ele>250.6</ele>
        <time>2020-03-04T08:32:25Z</time>
      </trkpt>
      <trkpt lat="46.88708" lon="5.63962">
        <ele>250.4</ele>
        <time>2020-03-04T08:32:26Z</time>
      </trkpt>
      <trkpt lat="46.88706" lon="5.63959">
        <ele>250</ele>
        <time>2020-03-04T08:32:27Z</time>
      </trkpt>
      <trkpt lat="46.88703" lon="5.63956">
        <ele>249.8</ele>
        <time>2020-03-04T08:32:28Z</time>
      </trkpt>
      <trkpt lat="46.887" lon="5.63953">
        <ele>249.4</ele>
        <time>2020-03-04T08:32:29Z</time>
      </trkpt>
      <trkpt lat="46.88698" lon="5.6395">
        <ele>249.2</ele>
        <time>2020-03-04T08:32:30Z</time>
      </trkpt>
      <trkpt lat="46.88695" lon="5.63948">
        <ele>248.8</ele>
        <time>2020-03-04T08:32:31Z</time>
      </trkpt>
      <trkpt lat="46.88693" lon="5.63945">
        <ele>248.6</ele>
        <time>2020-03-04T08:32:32Z</time>
      </trkpt>
      <trkpt lat="46.88691" lon="5.63942">
        <ele>248.4</ele>
        <time>2020-03-04T08:32:33Z</time>
      </trkpt>
      <trkpt lat="46.88689" lon="5.6394">
        <ele>248.2</ele>
        <time>2020-03-04T08:32:34Z</time>
      </trkpt>
      <trkpt lat="46.88686" lon="5.63937">
        <ele>248</ele>
        <time>2020-03-04T08:32:35Z</time>
      </trkpt>
      <trkpt lat="46.88683" lon="5.63934">
        <ele>247.6</ele>
        <time>2020-03-04T08:32:36Z</time>
      </trkpt>
      <trkpt lat="46.8868" lon="5.63931">
        <ele>247.4</ele>
        <time>2020-03-04T08:32:37Z</time>
      </trkpt>
      <trkpt lat="46.88678" lon="5.63928">
        <ele>247.4</ele>
        <time>2020-03-04T08:32:38Z</time>
      </trkpt>
      <trkpt lat="46.88675" lon="5.63923">
        <ele>247</ele>
        <time>2020-03-04T08:32:39Z</time>
      </trkpt>
      <trkpt lat="46.88673" lon="5.63918">
        <ele>246.6</ele>
        <time>2020-03-04T08:32:40Z</time>
      </trkpt>
      <trkpt lat="46.88672" lon="5.63912">
        <ele>246.6</ele>
        <time>2020-03-04T08:32:41Z</time>
      </trkpt>
      <trkpt lat="46.88671" lon="5.63906">
        <ele>246.2</ele>
        <time>2020-03-04T08:32:42Z</time>
      </trkpt>
      <trkpt lat="46.88671" lon="5.63899">
        <ele>246</ele>
        <time>2020-03-04T08:32:43Z</time>
      </trkpt>
      <trkpt lat="46.8867" lon="5.63893">
        <ele>246</ele>
        <time>2020-03-04T08:32:44Z</time>
      </trkpt>
      <trkpt lat="46.8867" lon="5.63886">
        <ele>245.8</ele>
        <time>2020-03-04T08:32:45Z</time>
      </trkpt>
      <trkpt lat="46.88669" lon="5.63879">
        <ele>245.8</ele>
        <time>2020-03-04T08:32:46Z</time>
      </trkpt>
      <trkpt lat="46.88669" lon="5.63872">
        <ele>245.4</ele>
        <time>2020-03-04T08:32:47Z</time>
      </trkpt>
      <trkpt lat="46.88667" lon="5.63866">
        <ele>245.4</ele>
        <time>2020-03-04T08:32:48Z</time>
      </trkpt>
      <trkpt lat="46.88666" lon="5.63859">
        <ele>245.2</ele>
        <time>2020-03-04T08:32:49Z</time>
      </trkpt>
      <trkpt lat="46.88663" lon="5.63854">
        <ele>245.2</ele>
        <time>2020-03-04T08:32:50Z</time>
      </trkpt>
      <trkpt lat="46.88659" lon="5.63849">
        <ele>245.2</ele>
        <time>2020-03-04T08:32:51Z</time>
      </trkpt>
      <trkpt lat="46.88655" lon="5.63845">
        <ele>245</ele>
        <time>2020-03-04T08:32:52Z</time>
      </trkpt>
      <trkpt lat="46.88651" lon="5.63842">
        <ele>245</ele>
        <time>2020-03-04T08:32:53Z</time>
      </trkpt>
      <trkpt lat="46.88647" lon="5.63839">
        <ele>245</ele>
        <time>2020-03-04T08:32:54Z</time>
      </trkpt>
      <trkpt lat="46.88642" lon="5.63836">
        <ele>245</ele>
        <time>2020-03-04T08:32:55Z</time>
      </trkpt>
      <trkpt lat="46.88639" lon="5.63834">
        <ele>245</ele>
        <time>2020-03-04T08:32:56Z</time>
      </trkpt>
      <trkpt lat="46.88635" lon="5.63832">
        <ele>245</ele>
        <time>2020-03-04T08:32:57Z</time>
      </trkpt>
      <trkpt lat="46.88631" lon="5.63829">
        <ele>245</ele>
        <time>2020-03-04T08:32:58Z</time>
      </trkpt>
      <trkpt lat="46.88627" lon="5.63827">
        <ele>245</ele>
        <time>2020-03-04T08:32:59Z</time>
      </trkpt>
      <trkpt lat="46.88624" lon="5.63824">
        <ele>245</ele>
        <time>2020-03-04T08:33:00Z</time>
      </trkpt>
      <trkpt lat="46.8862" lon="5.63821">
        <ele>245</ele>
        <time>2020-03-04T08:33:01Z</time>
      </trkpt>
      <trkpt lat="46.88617" lon="5.63818">
        <ele>245</ele>
        <time>2020-03-04T08:33:02Z</time>
      </trkpt>
      <trkpt lat="46.88613" lon="5.63816">
        <ele>245</ele>
        <time>2020-03-04T08:33:03Z</time>
      </trkpt>
      <trkpt lat="46.88609" lon="5.63813">
        <ele>245</ele>
        <time>2020-03-04T08:33:04Z</time>
      </trkpt>
      <trkpt lat="46.88605" lon="5.6381">
        <ele>245</ele>
        <time>2020-03-04T08:33:05Z</time>
      </trkpt>
      <trkpt lat="46.88602" lon="5.63807">
        <ele>245.2</ele>
        <time>2020-03-04T08:33:06Z</time>
      </trkpt>
      <trkpt lat="46.88598" lon="5.63804">
        <ele>245.2</ele>
        <time>2020-03-04T08:33:07Z</time>
      </trkpt>
      <trkpt lat="46.88594" lon="5.63801">
        <ele>245.4</ele>
        <time>2020-03-04T08:33:08Z</time>
      </trkpt>
      <trkpt lat="46.88591" lon="5.63799">
        <ele>245.4</ele>
        <time>2020-03-04T08:33:09Z</time>
      </trkpt>
      <trkpt lat="46.88587" lon="5.63795">
        <ele>245.6</ele>
        <time>2020-03-04T08:33:10Z</time>
      </trkpt>
      <trkpt lat="46.88584" lon="5.63792">
        <ele>245.6</ele>
        <time>2020-03-04T08:33:11Z</time>
      </trkpt>
      <trkpt lat="46.8858" lon="5.6379">
        <ele>246</ele>
        <time>2020-03-04T08:33:12Z</time>
      </trkpt>
      <trkpt lat="46.88576" lon="5.63787">
        <ele>246</ele>
        <time>2020-03-04T08:33:13Z</time>
      </trkpt>
      <trkpt lat="46.88573" lon="5.63785">
        <ele>246.4</ele>
        <time>2020-03-04T08:33:14Z</time>
      </trkpt>
      <trkpt lat="46.8857" lon="5.63782">
        <ele>246.6</ele>
        <time>2020-03-04T08:33:15Z</time>
      </trkpt>
      <trkpt lat="46.88566" lon="5.63779">
        <ele>246.8</ele>
        <time>2020-03-04T08:33:16Z</time>
      </trkpt>
      <trkpt lat="46.88563" lon="5.63776">
        <ele>247</ele>
        <time>2020-03-04T08:33:17Z</time>
      </trkpt>
      <trkpt lat="46.88561" lon="5.63773">
        <ele>247.4</ele>
        <time>2020-03-04T08:33:18Z</time>
      </trkpt>
      <trkpt lat="46.88558" lon="5.63771">
        <ele>247.6</ele>
        <time>2020-03-04T08:33:19Z</time>
      </trkpt>
      <trkpt lat="46.88555" lon="5.63768">
        <ele>248</ele>
        <time>2020-03-04T08:33:20Z</time>
      </trkpt>
      <trkpt lat="46.88552" lon="5.63766">
        <ele>248.4</ele>
        <time>2020-03-04T08:33:21Z</time>
      </trkpt>
      <trkpt lat="46.8855" lon="5.63764">
        <ele>248.6</ele>
        <time>2020-03-04T08:33:22Z</time>
      </trkpt>
      <trkpt lat="46.88548" lon="5.63762">
        <ele>248.8</ele>
        <time>2020-03-04T08:33:23Z</time>
      </trkpt>
      <trkpt lat="46.88546" lon="5.6376">
        <ele>249.2</ele>
        <time>2020-03-04T08:33:24Z</time>
      </trkpt>
      <trkpt lat="46.88544" lon="5.63758">
        <ele>249.4</ele>
        <time>2020-03-04T08:33:25Z</time>
      </trkpt>
      <trkpt lat="46.88543" lon="5.63757">
        <ele>249.6</ele>
        <time>2020-03-04T08:33:26Z</time>
      </trkpt>
      <trkpt lat="46.88541" lon="5.63755">
        <ele>249.8</ele>
        <time>2020-03-04T08:33:27Z</time>
      </trkpt>
      <trkpt lat="46.88538" lon="5.63754">
        <ele>249.8</ele>
        <time>2020-03-04T08:33:28Z</time>
      </trkpt>
      <trkpt lat="46.88536" lon="5.63752">
        <ele>250</ele>
        <time>2020-03-04T08:33:29Z</time>
      </trkpt>
      <trkpt lat="46.88534" lon="5.63751">
        <ele>250</ele>
        <time>2020-03-04T08:33:30Z</time>
      </trkpt>
      <trkpt lat="46.88532" lon="5.63749">
        <ele>250.4</ele>
        <time>2020-03-04T08:33:31Z</time>
      </trkpt>
      <trkpt lat="46.8853" lon="5.63748">
        <ele>250.4</ele>
        <time>2020-03-04T08:33:32Z</time>
      </trkpt>
      <trkpt lat="46.88529" lon="5.63747">
        <ele>250.8</ele>
        <time>2020-03-04T08:33:33Z</time>
      </trkpt>
      <trkpt lat="46.88527" lon="5.63745">
        <ele>250.8</ele>
        <time>2020-03-04T08:33:34Z</time>
      </trkpt>
      <trkpt lat="46.88525" lon="5.63744">
        <ele>251</ele>
        <time>2020-03-04T08:33:35Z</time>
      </trkpt>
      <trkpt lat="46.88523" lon="5.63743">
        <ele>251</ele>
        <time>2020-03-04T08:33:36Z</time>
      </trkpt>
      <trkpt lat="46.88521" lon="5.63742">
        <ele>251</ele>
        <time>2020-03-04T08:33:37Z</time>
      </trkpt>
      <trkpt lat="46.88519" lon="5.6374">
        <ele>251.4</ele>
        <time>2020-03-04T08:33:38Z</time>
      </trkpt>
      <trkpt lat="46.88516" lon="5.63739">
        <ele>251.4</ele>
        <time>2020-03-04T08:33:39Z</time>
      </trkpt>
      <trkpt lat="46.88514" lon="5.63737">
        <ele>251.6</ele>
        <time>2020-03-04T08:33:40Z</time>
      </trkpt>
      <trkpt lat="46.88512" lon="5.63735">
        <ele>251.6</ele>
        <time>2020-03-04T08:33:41Z</time>
      </trkpt>
      <trkpt lat="46.88509" lon="5.63734">
        <ele>251.8</ele>
        <time>2020-03-04T08:33:42Z</time>
      </trkpt>
      <trkpt lat="46.88507" lon="5.63733">
        <ele>251.8</ele>
        <time>2020-03-04T08:33:43Z</time>
      </trkpt>
      <trkpt lat="46.88505" lon="5.63731">
        <ele>252.2</ele>
        <time>2020-03-04T08:33:44Z</time>
      </trkpt>
      <trkpt lat="46.88502" lon="5.63729">
        <ele>252.2</ele>
        <time>2020-03-04T08:33:45Z</time>
      </trkpt>
      <trkpt lat="46.885" lon="5.63727">
        <ele>252.6</ele>
        <time>2020-03-04T08:33:46Z</time>
      </trkpt>
      <trkpt lat="46.88498" lon="5.63725">
        <ele>252.6</ele>
        <time>2020-03-04T08:33:47Z</time>
      </trkpt>
      <trkpt lat="46.88495" lon="5.63723">
        <ele>252.8</ele>
        <time>2020-03-04T08:33:48Z</time>
      </trkpt>
      <trkpt lat="46.88493" lon="5.63721">
        <ele>252.8</ele>
        <time>2020-03-04T08:33:49Z</time>
      </trkpt>
      <trkpt lat="46.8849" lon="5.63718">
        <ele>252.8</ele>
        <time>2020-03-04T08:33:50Z</time>
      </trkpt>
      <trkpt lat="46.88488" lon="5.63716">
        <ele>253</ele>
        <time>2020-03-04T08:33:51Z</time>
      </trkpt>
      <trkpt lat="46.88485" lon="5.63714">
        <ele>253</ele>
        <time>2020-03-04T08:33:52Z</time>
      </trkpt>
      <trkpt lat="46.88483" lon="5.63712">
        <ele>253.4</ele>
        <time>2020-03-04T08:33:53Z</time>
      </trkpt>
      <trkpt lat="46.8848" lon="5.6371">
        <ele>253.4</ele>
        <time>2020-03-04T08:33:54Z</time>
      </trkpt>
      <trkpt lat="46.88478" lon="5.63707">
        <ele>253.4</ele>
        <time>2020-03-04T08:33:55Z</time>
      </trkpt>
      <trkpt lat="46.88475" lon="5.63705">
        <ele>253.6</ele>
        <time>2020-03-04T08:33:56Z</time>
      </trkpt>
      <trkpt lat="46.88472" lon="5.63703">
        <ele>253.6</ele>
        <time>2020-03-04T08:33:57Z</time>
      </trkpt>
      <trkpt lat="46.88469" lon="5.63701">
        <ele>253.8</ele>
        <time>2020-03-04T08:33:58Z</time>
      </trkpt>
      <trkpt lat="46.88467" lon="5.63699">
        <ele>253.8</ele>
        <time>2020-03-04T08:33:59Z</time>
      </trkpt>
      <trkpt lat="46.88464" lon="5.63698">
        <ele>254.2</ele>
        <time>2020-03-04T08:34:00Z</time>
      </trkpt>
      <trkpt lat="46.88461" lon="5.63696">
        <ele>254.2</ele>
        <time>2020-03-04T08:34:01Z</time>
      </trkpt>
      <trkpt lat="46.88459" lon="5.63695">
        <ele>254.2</ele>
        <time>2020-03-04T08:34:02Z</time>
      </trkpt>
      <trkpt lat="46.88458" lon="5.63693">
        <ele>254.4</ele>
        <time>2020-03-04T08:34:03Z</time>
      </trkpt>
      <trkpt lat="46.88456" lon="5.63691">
        <ele>254.4</ele>
        <time>2020-03-04T08:34:04Z</time>
      </trkpt>
      <trkpt lat="46.88455" lon="5.6369">
        <ele>254.4</ele>
        <time>2020-03-04T08:34:05Z</time>
      </trkpt>
      <trkpt lat="46.88454" lon="5.63689">
        <ele>254.4</ele>
        <time>2020-03-04T08:34:06Z</time>
      </trkpt>
      <trkpt lat="46.88445" lon="5.63683">
        <ele>254.8</ele>
        <time>2020-03-04T08:34:51Z</time>
      </trkpt>
      <trkpt lat="46.88443" lon="5.63681">
        <ele>254.8</ele>
        <time>2020-03-04T08:34:52Z</time>
      </trkpt>
      <trkpt lat="46.88441" lon="5.6368">
        <ele>254.8</ele>
        <time>2020-03-04T08:34:53Z</time>
      </trkpt>
      <trkpt lat="46.88439" lon="5.63678">
        <ele>254.8</ele>
        <time>2020-03-04T08:34:54Z</time>
      </trkpt>
      <trkpt lat="46.88436" lon="5.63676">
        <ele>254.8</ele>
        <time>2020-03-04T08:34:55Z</time>
      </trkpt>
      <trkpt lat="46.88434" lon="5.63674">
        <ele>254.8</ele>
        <time>2020-03-04T08:34:56Z</time>
      </trkpt>
      <trkpt lat="46.88432" lon="5.63673">
        <ele>254.8</ele>
        <time>2020-03-04T08:34:57Z</time>
      </trkpt>
      <trkpt lat="46.88429" lon="5.63671">
        <ele>254.8</ele>
        <time>2020-03-04T08:34:58Z</time>
      </trkpt>
      <trkpt lat="46.88427" lon="5.6367">
        <ele>254.8</ele>
        <time>2020-03-04T08:34:59Z</time>
      </trkpt>
      <trkpt lat="46.88425" lon="5.63668">
        <ele>254.8</ele>
        <time>2020-03-04T08:35:00Z</time>
      </trkpt>
      <trkpt lat="46.88423" lon="5.63665">
        <ele>255.2</ele>
        <time>2020-03-04T08:35:01Z</time>
      </trkpt>
      <trkpt lat="46.8842" lon="5.63663">
        <ele>255.2</ele>
        <time>2020-03-04T08:35:02Z</time>
      </trkpt>
      <trkpt lat="46.88417" lon="5.6366">
        <ele>255.2</ele>
        <time>2020-03-04T08:35:03Z</time>
      </trkpt>
      <trkpt lat="46.88414" lon="5.63658">
        <ele>255.4</ele>
        <time>2020-03-04T08:35:04Z</time>
      </trkpt>
      <trkpt lat="46.88411" lon="5.63656">
        <ele>255.4</ele>
        <time>2020-03-04T08:35:05Z</time>
      </trkpt>
      <trkpt lat="46.88407" lon="5.63654">
        <ele>255.4</ele>
        <time>2020-03-04T08:35:06Z</time>
      </trkpt>
      <trkpt lat="46.88404" lon="5.63651">
        <ele>255.4</ele>
        <time>2020-03-04T08:35:07Z</time>
      </trkpt>
      <trkpt lat="46.884" lon="5.63648">
        <ele>255.6</ele>
        <time>2020-03-04T08:35:08Z</time>
      </trkpt>
      <trkpt lat="46.88396" lon="5.63646">
        <ele>255.6</ele>
        <time>2020-03-04T08:35:09Z</time>
      </trkpt>
      <trkpt lat="46.88392" lon="5.63643">
        <ele>255.6</ele>
        <time>2020-03-04T08:35:10Z</time>
      </trkpt>
      <trkpt lat="46.88389" lon="5.6364">
        <ele>255.8</ele>
        <time>2020-03-04T08:35:11Z</time>
      </trkpt>
      <trkpt lat="46.88386" lon="5.63637">
        <ele>255.8</ele>
        <time>2020-03-04T08:35:12Z</time>
      </trkpt>
      <trkpt lat="46.88382" lon="5.63634">
        <ele>255.8</ele>
        <time>2020-03-04T08:35:13Z</time>
      </trkpt>
      <trkpt lat="46.88379" lon="5.63631">
        <ele>255.8</ele>
        <time>2020-03-04T08:35:14Z</time>
      </trkpt>
      <trkpt lat="46.88375" lon="5.63628">
        <ele>255.8</ele>
        <time>2020-03-04T08:35:15Z</time>
      </trkpt>
      <trkpt lat="46.88372" lon="5.63625">
        <ele>256</ele>
        <time>2020-03-04T08:35:16Z</time>
      </trkpt>
      <trkpt lat="46.88369" lon="5.63622">
        <ele>256</ele>
        <time>2020-03-04T08:35:17Z</time>
      </trkpt>
      <trkpt lat="46.88366" lon="5.63618">
        <ele>256</ele>
        <time>2020-03-04T08:35:18Z</time>
      </trkpt>
      <trkpt lat="46.88362" lon="5.63614">
        <ele>256.4</ele>
        <time>2020-03-04T08:35:19Z</time>
      </trkpt>
      <trkpt lat="46.88358" lon="5.63611">
        <ele>256.4</ele>
        <time>2020-03-04T08:35:20Z</time>
      </trkpt>
      <trkpt lat="46.88354" lon="5.63607">
        <ele>256.4</ele>
        <time>2020-03-04T08:35:21Z</time>
      </trkpt>
      <trkpt lat="46.8835" lon="5.63604">
        <ele>256.4</ele>
        <time>2020-03-04T08:35:22Z</time>
      </trkpt>
      <trkpt lat="46.88346" lon="5.636">
        <ele>256.4</ele>
        <time>2020-03-04T08:35:23Z</time>
      </trkpt>
      <trkpt lat="46.88343" lon="5.63595">
        <ele>256.4</ele>
        <time>2020-03-04T08:35:24Z</time>
      </trkpt>
      <trkpt lat="46.8834" lon="5.6359">
        <ele>256.4</ele>
        <time>2020-03-04T08:35:25Z</time>
      </trkpt>
      <trkpt lat="46.88336" lon="5.63586">
        <ele>256.6</ele>
        <time>2020-03-04T08:35:26Z</time>
      </trkpt>
      <trkpt lat="46.88332" lon="5.6358">
        <ele>256.6</ele>
        <time>2020-03-04T08:35:27Z</time>
      </trkpt>
      <trkpt lat="46.88329" lon="5.63575">
        <ele>256.6</ele>
        <time>2020-03-04T08:35:28Z</time>
      </trkpt>
      <trkpt lat="46.88325" lon="5.63571">
        <ele>256.8</ele>
        <time>2020-03-04T08:35:29Z</time>
      </trkpt>
      <trkpt lat="46.88321" lon="5.63566">
        <ele>256.8</ele>
        <time>2020-03-04T08:35:30Z</time>
      </trkpt>
      <trkpt lat="46.88317" lon="5.63562">
        <ele>256.8</ele>
        <time>2020-03-04T08:35:31Z</time>
      </trkpt>
      <trkpt lat="46.88314" lon="5.63558">
        <ele>256.8</ele>
        <time>2020-03-04T08:35:32Z</time>
      </trkpt>
      <trkpt lat="46.8831" lon="5.63554">
        <ele>257</ele>
        <time>2020-03-04T08:35:33Z</time>
      </trkpt>
      <trkpt lat="46.88306" lon="5.63549">
        <ele>257</ele>
        <time>2020-03-04T08:35:34Z</time>
      </trkpt>
      <trkpt lat="46.88303" lon="5.63545">
        <ele>257.4</ele>
        <time>2020-03-04T08:35:35Z</time>
      </trkpt>
      <trkpt lat="46.88299" lon="5.63541">
        <ele>257.4</ele>
        <time>2020-03-04T08:35:36Z</time>
      </trkpt>
      <trkpt lat="46.88295" lon="5.63536">
        <ele>257.4</ele>
        <time>2020-03-04T08:35:37Z</time>
      </trkpt>
      <trkpt lat="46.88291" lon="5.63532">
        <ele>257.6</ele>
        <time>2020-03-04T08:35:38Z</time>
      </trkpt>
      <trkpt lat="46.88287" lon="5.63527">
        <ele>257.6</ele>
        <time>2020-03-04T08:35:39Z</time>
      </trkpt>
      <trkpt lat="46.88283" lon="5.63522">
        <ele>257.6</ele>
        <time>2020-03-04T08:35:40Z</time>
      </trkpt>
      <trkpt lat="46.88279" lon="5.63518">
        <ele>258</ele>
        <time>2020-03-04T08:35:41Z</time>
      </trkpt>
      <trkpt lat="46.88276" lon="5.63513">
        <ele>258</ele>
        <time>2020-03-04T08:35:42Z</time>
      </trkpt>
      <trkpt lat="46.88272" lon="5.63509">
        <ele>258.2</ele>
        <time>2020-03-04T08:35:43Z</time>
      </trkpt>
      <trkpt lat="46.88269" lon="5.63504">
        <ele>258.2</ele>
        <time>2020-03-04T08:35:44Z</time>
      </trkpt>
      <trkpt lat="46.88266" lon="5.635">
        <ele>258.2</ele>
        <time>2020-03-04T08:35:45Z</time>
      </trkpt>
      <trkpt lat="46.88262" lon="5.63496">
        <ele>258.4</ele>
        <time>2020-03-04T08:35:46Z</time>
      </trkpt>
      <trkpt lat="46.88259" lon="5.63491">
        <ele>258.4</ele>
        <time>2020-03-04T08:35:47Z</time>
      </trkpt>
      <trkpt lat="46.88255" lon="5.63486">
        <ele>258.8</ele>
        <time>2020-03-04T08:35:48Z</time>
      </trkpt>
      <trkpt lat="46.88251" lon="5.63482">
        <ele>258.8</ele>
        <time>2020-03-04T08:35:49Z</time>
      </trkpt>
      <trkpt lat="46.88248" lon="5.63477">
        <ele>259</ele>
        <time>2020-03-04T08:35:50Z</time>
      </trkpt>
      <trkpt lat="46.88244" lon="5.63473">
        <ele>259</ele>
        <time>2020-03-04T08:35:51Z</time>
      </trkpt>
      <trkpt lat="46.88241" lon="5.63468">
        <ele>259.2</ele>
        <time>2020-03-04T08:35:52Z</time>
      </trkpt>
      <trkpt lat="46.88237" lon="5.63464">
        <ele>259.2</ele>
        <time>2020-03-04T08:35:53Z</time>
      </trkpt>
      <trkpt lat="46.88234" lon="5.63461">
        <ele>259.4</ele>
        <time>2020-03-04T08:35:54Z</time>
      </trkpt>
      <trkpt lat="46.88231" lon="5.63457">
        <ele>259.4</ele>
        <time>2020-03-04T08:35:55Z</time>
      </trkpt>
      <trkpt lat="46.88228" lon="5.63453">
        <ele>259.4</ele>
        <time>2020-03-04T08:35:56Z</time>
      </trkpt>
      <trkpt lat="46.88225" lon="5.63449">
        <ele>259.8</ele>
        <time>2020-03-04T08:35:57Z</time>
      </trkpt>
      <trkpt lat="46.88221" lon="5.63445">
        <ele>259.8</ele>
        <time>2020-03-04T08:35:58Z</time>
      </trkpt>
      <trkpt lat="46.88218" lon="5.63441">
        <ele>260</ele>
        <time>2020-03-04T08:35:59Z</time>
      </trkpt>
      <trkpt lat="46.88214" lon="5.63437">
        <ele>260</ele>
        <time>2020-03-04T08:36:00Z</time>
      </trkpt>
      <trkpt lat="46.88211" lon="5.63433">
        <ele>260.2</ele>
        <time>2020-03-04T08:36:01Z</time>
      </trkpt>
      <trkpt lat="46.88208" lon="5.63428">
        <ele>260.2</ele>
        <time>2020-03-04T08:36:02Z</time>
      </trkpt>
      <trkpt lat="46.88205" lon="5.63423">
        <ele>260.4</ele>
        <time>2020-03-04T08:36:03Z</time>
      </trkpt>
      <trkpt lat="46.88202" lon="5.63419">
        <ele>260.4</ele>
        <time>2020-03-04T08:36:04Z</time>
      </trkpt>
      <trkpt lat="46.88198" lon="5.63415">
        <ele>260.4</ele>
        <time>2020-03-04T08:36:05Z</time>
      </trkpt>
      <trkpt lat="46.88194" lon="5.63412">
        <ele>260.4</ele>
        <time>2020-03-04T08:36:06Z</time>
      </trkpt>
      <trkpt lat="46.88191" lon="5.63408">
        <ele>260.6</ele>
        <time>2020-03-04T08:36:07Z</time>
      </trkpt>
      <trkpt lat="46.88188" lon="5.63404">
        <ele>260.6</ele>
        <time>2020-03-04T08:36:08Z</time>
      </trkpt>
      <trkpt lat="46.88184" lon="5.63399">
        <ele>261</ele>
        <time>2020-03-04T08:36:09Z</time>
      </trkpt>
      <trkpt lat="46.88181" lon="5.63395">
        <ele>261</ele>
        <time>2020-03-04T08:36:10Z</time>
      </trkpt>
      <trkpt lat="46.88178" lon="5.63391">
        <ele>261</ele>
        <time>2020-03-04T08:36:11Z</time>
      </trkpt>
      <trkpt lat="46.88174" lon="5.63388">
        <ele>261.2</ele>
        <time>2020-03-04T08:36:12Z</time>
      </trkpt>
      <trkpt lat="46.88171" lon="5.63384">
        <ele>261.2</ele>
        <time>2020-03-04T08:36:13Z</time>
      </trkpt>
      <trkpt lat="46.88168" lon="5.6338">
        <ele>261.2</ele>
        <time>2020-03-04T08:36:14Z</time>
      </trkpt>
      <trkpt lat="46.88164" lon="5.63376">
        <ele>261.4</ele>
        <time>2020-03-04T08:36:15Z</time>
      </trkpt>
      <trkpt lat="46.88161" lon="5.63372">
        <ele>261.4</ele>
        <time>2020-03-04T08:36:16Z</time>
      </trkpt>
      <trkpt lat="46.88159" lon="5.63368">
        <ele>261.6</ele>
        <time>2020-03-04T08:36:17Z</time>
      </trkpt>
      <trkpt lat="46.88155" lon="5.63364">
        <ele>261.6</ele>
        <time>2020-03-04T08:36:18Z</time>
      </trkpt>
      <trkpt lat="46.88152" lon="5.63361">
        <ele>261.6</ele>
        <time>2020-03-04T08:36:19Z</time>
      </trkpt>
      <trkpt lat="46.88148" lon="5.63358">
        <ele>261.8</ele>
        <time>2020-03-04T08:36:20Z</time>
      </trkpt>
      <trkpt lat="46.88144" lon="5.63355">
        <ele>261.8</ele>
        <time>2020-03-04T08:36:21Z</time>
      </trkpt>
      <trkpt lat="46.8814" lon="5.63352">
        <ele>262.2</ele>
        <time>2020-03-04T08:36:22Z</time>
      </trkpt>
      <trkpt lat="46.88137" lon="5.6335">
        <ele>262.2</ele>
        <time>2020-03-04T08:36:23Z</time>
      </trkpt>
      <trkpt lat="46.88134" lon="5.63347">
        <ele>262.2</ele>
        <time>2020-03-04T08:36:24Z</time>
      </trkpt>
      <trkpt lat="46.8813" lon="5.63344">
        <ele>262.4</ele>
        <time>2020-03-04T08:36:25Z</time>
      </trkpt>
      <trkpt lat="46.88127" lon="5.63341">
        <ele>262.4</ele>
        <time>2020-03-04T08:36:26Z</time>
      </trkpt>
      <trkpt lat="46.88123" lon="5.6334">
        <ele>262.8</ele>
        <time>2020-03-04T08:36:27Z</time>
      </trkpt>
      <trkpt lat="46.8812" lon="5.63338">
        <ele>262.8</ele>
        <time>2020-03-04T08:36:28Z</time>
      </trkpt>
      <trkpt lat="46.88116" lon="5.63337">
        <ele>263</ele>
        <time>2020-03-04T08:36:29Z</time>
      </trkpt>
      <trkpt lat="46.88113" lon="5.63335">
        <ele>263</ele>
        <time>2020-03-04T08:36:30Z</time>
      </trkpt>
      <trkpt lat="46.8811" lon="5.63332">
        <ele>263.2</ele>
        <time>2020-03-04T08:36:31Z</time>
      </trkpt>
      <trkpt lat="46.88107" lon="5.6333">
        <ele>263.2</ele>
        <time>2020-03-04T08:36:32Z</time>
      </trkpt>
      <trkpt lat="46.88104" lon="5.63327">
        <ele>263.4</ele>
        <time>2020-03-04T08:36:33Z</time>
      </trkpt>
      <trkpt lat="46.88101" lon="5.63324">
        <ele>263.4</ele>
        <time>2020-03-04T08:36:34Z</time>
      </trkpt>
      <trkpt lat="46.88097" lon="5.63321">
        <ele>263.8</ele>
        <time>2020-03-04T08:36:35Z</time>
      </trkpt>
      <trkpt lat="46.88094" lon="5.63319">
        <ele>263.8</ele>
        <time>2020-03-04T08:36:36Z</time>
      </trkpt>
      <trkpt lat="46.88091" lon="5.63315">
        <ele>263.8</ele>
        <time>2020-03-04T08:36:37Z</time>
      </trkpt>
      <trkpt lat="46.88088" lon="5.63313">
        <ele>264</ele>
        <time>2020-03-04T08:36:38Z</time>
      </trkpt>
      <trkpt lat="46.88085" lon="5.6331">
        <ele>264</ele>
        <time>2020-03-04T08:36:39Z</time>
      </trkpt>
      <trkpt lat="46.88083" lon="5.63307">
        <ele>264</ele>
        <time>2020-03-04T08:36:40Z</time>
      </trkpt>
      <trkpt lat="46.8808" lon="5.63305">
        <ele>264.2</ele>
        <time>2020-03-04T08:36:41Z</time>
      </trkpt>
      <trkpt lat="46.88077" lon="5.63303">
        <ele>264.2</ele>
        <time>2020-03-04T08:36:42Z</time>
      </trkpt>
      <trkpt lat="46.88074" lon="5.633">
        <ele>264.4</ele>
        <time>2020-03-04T08:36:43Z</time>
      </trkpt>
      <trkpt lat="46.88072" lon="5.63297">
        <ele>264.4</ele>
        <time>2020-03-04T08:36:44Z</time>
      </trkpt>
      <trkpt lat="46.88068" lon="5.63295">
        <ele>264.8</ele>
        <time>2020-03-04T08:36:45Z</time>
      </trkpt>
      <trkpt lat="46.88064" lon="5.63293">
        <ele>264.8</ele>
        <time>2020-03-04T08:36:46Z</time>
      </trkpt>
      <trkpt lat="46.8806" lon="5.63291">
        <ele>265</ele>
        <time>2020-03-04T08:36:47Z</time>
      </trkpt>
      <trkpt lat="46.88056" lon="5.63288">
        <ele>265</ele>
        <time>2020-03-04T08:36:48Z</time>
      </trkpt>
      <trkpt lat="46.88053" lon="5.63286">
        <ele>265</ele>
        <time>2020-03-04T08:36:49Z</time>
      </trkpt>
      <trkpt lat="46.8805" lon="5.63283">
        <ele>265</ele>
        <time>2020-03-04T08:36:50Z</time>
      </trkpt>
      <trkpt lat="46.88047" lon="5.63281">
        <ele>265.2</ele>
        <time>2020-03-04T08:36:51Z</time>
      </trkpt>
      <trkpt lat="46.88043" lon="5.63278">
        <ele>265.2</ele>
        <time>2020-03-04T08:36:52Z</time>
      </trkpt>
      <trkpt lat="46.88039" lon="5.63276">
        <ele>265.4</ele>
        <time>2020-03-04T08:36:53Z</time>
      </trkpt>
      <trkpt lat="46.88036" lon="5.63273">
        <ele>265.4</ele>
        <time>2020-03-04T08:36:54Z</time>
      </trkpt>
      <trkpt lat="46.88032" lon="5.63271">
        <ele>265.4</ele>
        <time>2020-03-04T08:36:55Z</time>
      </trkpt>
      <trkpt lat="46.88028" lon="5.63269">
        <ele>265.6</ele>
        <time>2020-03-04T08:36:56Z</time>
      </trkpt>
      <trkpt lat="46.88024" lon="5.63267">
        <ele>265.6</ele>
        <time>2020-03-04T08:36:57Z</time>
      </trkpt>
      <trkpt lat="46.8802" lon="5.63264">
        <ele>266</ele>
        <time>2020-03-04T08:36:58Z</time>
      </trkpt>
      <trkpt lat="46.88016" lon="5.63262">
        <ele>266</ele>
        <time>2020-03-04T08:36:59Z</time>
      </trkpt>
      <trkpt lat="46.88011" lon="5.6326">
        <ele>266</ele>
        <time>2020-03-04T08:37:00Z</time>
      </trkpt>
      <trkpt lat="46.88007" lon="5.63258">
        <ele>266</ele>
        <time>2020-03-04T08:37:01Z</time>
      </trkpt>
      <trkpt lat="46.88003" lon="5.63256">
        <ele>266</ele>
        <time>2020-03-04T08:37:02Z</time>
      </trkpt>
      <trkpt lat="46.87999" lon="5.63254">
        <ele>266.2</ele>
        <time>2020-03-04T08:37:03Z</time>
      </trkpt>
      <trkpt lat="46.87995" lon="5.63251">
        <ele>266.2</ele>
        <time>2020-03-04T08:37:04Z</time>
      </trkpt>
      <trkpt lat="46.8799" lon="5.6325">
        <ele>266.2</ele>
        <time>2020-03-04T08:37:05Z</time>
      </trkpt>
      <trkpt lat="46.87986" lon="5.63248">
        <ele>266.2</ele>
        <time>2020-03-04T08:37:06Z</time>
      </trkpt>
      <trkpt lat="46.87982" lon="5.63245">
        <ele>266.2</ele>
        <time>2020-03-04T08:37:07Z</time>
      </trkpt>
      <trkpt lat="46.87978" lon="5.63243">
        <ele>266.4</ele>
        <time>2020-03-04T08:37:08Z</time>
      </trkpt>
      <trkpt lat="46.87973" lon="5.63241">
        <ele>266.4</ele>
        <time>2020-03-04T08:37:09Z</time>
      </trkpt>
      <trkpt lat="46.87969" lon="5.63239">
        <ele>266.4</ele>
        <time>2020-03-04T08:37:10Z</time>
      </trkpt>
      <trkpt lat="46.87965" lon="5.63236">
        <ele>266.6</ele>
        <time>2020-03-04T08:37:11Z</time>
      </trkpt>
      <trkpt lat="46.87961" lon="5.63234">
        <ele>266.6</ele>
        <time>2020-03-04T08:37:12Z</time>
      </trkpt>
      <trkpt lat="46.87957" lon="5.63232">
        <ele>266.6</ele>
        <time>2020-03-04T08:37:13Z</time>
      </trkpt>
      <trkpt lat="46.87953" lon="5.63229">
        <ele>266.8</ele>
        <time>2020-03-04T08:37:14Z</time>
      </trkpt>
      <trkpt lat="46.87949" lon="5.63226">
        <ele>266.8</ele>
        <time>2020-03-04T08:37:15Z</time>
      </trkpt>
      <trkpt lat="46.87945" lon="5.63223">
        <ele>267.2</ele>
        <time>2020-03-04T08:37:16Z</time>
      </trkpt>
      <trkpt lat="46.8794" lon="5.63221">
        <ele>267.2</ele>
        <time>2020-03-04T08:37:17Z</time>
      </trkpt>
      <trkpt lat="46.87936" lon="5.63219">
        <ele>267.2</ele>
        <time>2020-03-04T08:37:18Z</time>
      </trkpt>
      <trkpt lat="46.87932" lon="5.63217">
        <ele>267.4</ele>
        <time>2020-03-04T08:37:19Z</time>
      </trkpt>
      <trkpt lat="46.87928" lon="5.63215">
        <ele>267.4</ele>
        <time>2020-03-04T08:37:20Z</time>
      </trkpt>
      <trkpt lat="46.87924" lon="5.63213">
        <ele>267.4</ele>
        <time>2020-03-04T08:37:21Z</time>
      </trkpt>
      <trkpt lat="46.8792" lon="5.6321">
        <ele>267.6</ele>
        <time>2020-03-04T08:37:22Z</time>
      </trkpt>
      <trkpt lat="46.87916" lon="5.63209">
        <ele>267.6</ele>
        <time>2020-03-04T08:37:23Z</time>
      </trkpt>
      <trkpt lat="46.87913" lon="5.63206">
        <ele>267.8</ele>
        <time>2020-03-04T08:37:24Z</time>
      </trkpt>
      <trkpt lat="46.87909" lon="5.63204">
        <ele>267.8</ele>
        <time>2020-03-04T08:37:25Z</time>
      </trkpt>
      <trkpt lat="46.87905" lon="5.63202">
        <ele>267.8</ele>
        <time>2020-03-04T08:37:26Z</time>
      </trkpt>
      <trkpt lat="46.87902" lon="5.63199">
        <ele>268.2</ele>
        <time>2020-03-04T08:37:27Z</time>
      </trkpt>
      <trkpt lat="46.87898" lon="5.63196">
        <ele>268.2</ele>
        <time>2020-03-04T08:37:28Z</time>
      </trkpt>
      <trkpt lat="46.87894" lon="5.63193">
        <ele>268.4</ele>
        <time>2020-03-04T08:37:29Z</time>
      </trkpt>
      <trkpt lat="46.87891" lon="5.63189">
        <ele>268.4</ele>
        <time>2020-03-04T08:37:30Z</time>
      </trkpt>
      <trkpt lat="46.87888" lon="5.63186">
        <ele>268.4</ele>
        <time>2020-03-04T08:37:31Z</time>
      </trkpt>
      <trkpt lat="46.87884" lon="5.63182">
        <ele>268.6</ele>
        <time>2020-03-04T08:37:32Z</time>
      </trkpt>
      <trkpt lat="46.87881" lon="5.63178">
        <ele>268.6</ele>
        <time>2020-03-04T08:37:33Z</time>
      </trkpt>
      <trkpt lat="46.87878" lon="5.63174">
        <ele>268.6</ele>
        <time>2020-03-04T08:37:34Z</time>
      </trkpt>
      <trkpt lat="46.87874" lon="5.6317">
        <ele>269</ele>
        <time>2020-03-04T08:37:35Z</time>
      </trkpt>
      <trkpt lat="46.87871" lon="5.63167">
        <ele>269</ele>
        <time>2020-03-04T08:37:36Z</time>
      </trkpt>
      <trkpt lat="46.87867" lon="5.63163">
        <ele>269</ele>
        <time>2020-03-04T08:37:37Z</time>
      </trkpt>
      <trkpt lat="46.87864" lon="5.63159">
        <ele>269</ele>
        <time>2020-03-04T08:37:38Z</time>
      </trkpt>
      <trkpt lat="46.87861" lon="5.63155">
        <ele>269</ele>
        <time>2020-03-04T08:37:39Z</time>
      </trkpt>
      <trkpt lat="46.87857" lon="5.6315">
        <ele>269.2</ele>
        <time>2020-03-04T08:37:40Z</time>
      </trkpt>
      <trkpt lat="46.87854" lon="5.63146">
        <ele>269.2</ele>
        <time>2020-03-04T08:37:41Z</time>
      </trkpt>
      <trkpt lat="46.8785" lon="5.63142">
        <ele>269.2</ele>
        <time>2020-03-04T08:37:42Z</time>
      </trkpt>
      <trkpt lat="46.87847" lon="5.63138">
        <ele>269.2</ele>
        <time>2020-03-04T08:37:43Z</time>
      </trkpt>
      <trkpt lat="46.87843" lon="5.63133">
        <ele>269.2</ele>
        <time>2020-03-04T08:37:44Z</time>
      </trkpt>
      <trkpt lat="46.8784" lon="5.63129">
        <ele>269.2</ele>
        <time>2020-03-04T08:37:45Z</time>
      </trkpt>
      <trkpt lat="46.87836" lon="5.63124">
        <ele>269.4</ele>
        <time>2020-03-04T08:37:46Z</time>
      </trkpt>
      <trkpt lat="46.87833" lon="5.6312">
        <ele>269.4</ele>
        <time>2020-03-04T08:37:47Z</time>
      </trkpt>
      <trkpt lat="46.87829" lon="5.63115">
        <ele>269.4</ele>
        <time>2020-03-04T08:37:48Z</time>
      </trkpt>
      <trkpt lat="46.87825" lon="5.63111">
        <ele>269.4</ele>
        <time>2020-03-04T08:37:49Z</time>
      </trkpt>
      <trkpt lat="46.87822" lon="5.63107">
        <ele>269.4</ele>
        <time>2020-03-04T08:37:50Z</time>
      </trkpt>
      <trkpt lat="46.87818" lon="5.63102">
        <ele>269.4</ele>
        <time>2020-03-04T08:37:51Z</time>
      </trkpt>
      <trkpt lat="46.87814" lon="5.63098">
        <ele>269.4</ele>
        <time>2020-03-04T08:37:52Z</time>
      </trkpt>
      <trkpt lat="46.8781" lon="5.63093">
        <ele>269.4</ele>
        <time>2020-03-04T08:37:53Z</time>
      </trkpt>
      <trkpt lat="46.87807" lon="5.63089">
        <ele>269.4</ele>
        <time>2020-03-04T08:37:54Z</time>
      </trkpt>
      <trkpt lat="46.87803" lon="5.63084">
        <ele>269.6</ele>
        <time>2020-03-04T08:37:55Z</time>
      </trkpt>
      <trkpt lat="46.87799" lon="5.6308">
        <ele>269.6</ele>
        <time>2020-03-04T08:37:56Z</time>
      </trkpt>
      <trkpt lat="46.87795" lon="5.63075">
        <ele>269.6</ele>
        <time>2020-03-04T08:37:57Z</time>
      </trkpt>
      <trkpt lat="46.87791" lon="5.63071">
        <ele>269.8</ele>
        <time>2020-03-04T08:37:58Z</time>
      </trkpt>
      <trkpt lat="46.87787" lon="5.63066">
        <ele>269.8</ele>
        <time>2020-03-04T08:37:59Z</time>
      </trkpt>
      <trkpt lat="46.87784" lon="5.63062">
        <ele>269.8</ele>
        <time>2020-03-04T08:38:00Z</time>
      </trkpt>
      <trkpt lat="46.8778" lon="5.63057">
        <ele>269.8</ele>
        <time>2020-03-04T08:38:01Z</time>
      </trkpt>
      <trkpt lat="46.87776" lon="5.63052">
        <ele>269.8</ele>
        <time>2020-03-04T08:38:02Z</time>
      </trkpt>
      <trkpt lat="46.87772" lon="5.63048">
        <ele>269.8</ele>
        <time>2020-03-04T08:38:03Z</time>
      </trkpt>
      <trkpt lat="46.87768" lon="5.63043">
        <ele>269.8</ele>
        <time>2020-03-04T08:38:04Z</time>
      </trkpt>
      <trkpt lat="46.87764" lon="5.63039">
        <ele>270.2</ele>
        <time>2020-03-04T08:38:05Z</time>
      </trkpt>
      <trkpt lat="46.87761" lon="5.63034">
        <ele>270.2</ele>
        <time>2020-03-04T08:38:06Z</time>
      </trkpt>
      <trkpt lat="46.87757" lon="5.6303">
        <ele>270.2</ele>
        <time>2020-03-04T08:38:07Z</time>
      </trkpt>
      <trkpt lat="46.87753" lon="5.63026">
        <ele>270.4</ele>
        <time>2020-03-04T08:38:08Z</time>
      </trkpt>
      <trkpt lat="46.8775" lon="5.63022">
        <ele>270.4</ele>
        <time>2020-03-04T08:38:09Z</time>
      </trkpt>
      <trkpt lat="46.87746" lon="5.63017">
        <ele>270.6</ele>
        <time>2020-03-04T08:38:10Z</time>
      </trkpt>
      <trkpt lat="46.87743" lon="5.63013">
        <ele>270.6</ele>
        <time>2020-03-04T08:38:11Z</time>
      </trkpt>
      <trkpt lat="46.87739" lon="5.63009">
        <ele>270.6</ele>
        <time>2020-03-04T08:38:12Z</time>
      </trkpt>
      <trkpt lat="46.87736" lon="5.63004">
        <ele>270.8</ele>
        <time>2020-03-04T08:38:13Z</time>
      </trkpt>
      <trkpt lat="46.87732" lon="5.63">
        <ele>270.8</ele>
        <time>2020-03-04T08:38:14Z</time>
      </trkpt>
      <trkpt lat="46.87728" lon="5.62996">
        <ele>271.2</ele>
        <time>2020-03-04T08:38:15Z</time>
      </trkpt>
      <trkpt lat="46.87725" lon="5.62991">
        <ele>271.2</ele>
        <time>2020-03-04T08:38:16Z</time>
      </trkpt>
      <trkpt lat="46.87722" lon="5.62987">
        <ele>271.4</ele>
        <time>2020-03-04T08:38:17Z</time>
      </trkpt>
      <trkpt lat="46.87718" lon="5.62984">
        <ele>271.4</ele>
        <time>2020-03-04T08:38:18Z</time>
      </trkpt>
      <trkpt lat="46.87715" lon="5.6298">
        <ele>271.6</ele>
        <time>2020-03-04T08:38:19Z</time>
      </trkpt>
      <trkpt lat="46.87712" lon="5.62976">
        <ele>271.6</ele>
        <time>2020-03-04T08:38:20Z</time>
      </trkpt>
      <trkpt lat="46.87709" lon="5.62972">
        <ele>271.8</ele>
        <time>2020-03-04T08:38:21Z</time>
      </trkpt>
      <trkpt lat="46.87705" lon="5.62969">
        <ele>271.8</ele>
        <time>2020-03-04T08:38:22Z</time>
      </trkpt>
      <trkpt lat="46.87702" lon="5.62965">
        <ele>272.2</ele>
        <time>2020-03-04T08:38:23Z</time>
      </trkpt>
      <trkpt lat="46.87699" lon="5.62961">
        <ele>272.2</ele>
        <time>2020-03-04T08:38:24Z</time>
      </trkpt>
      <trkpt lat="46.87696" lon="5.62958">
        <ele>272.4</ele>
        <time>2020-03-04T08:38:25Z</time>
      </trkpt>
      <trkpt lat="46.87692" lon="5.62954">
        <ele>272.4</ele>
        <time>2020-03-04T08:38:26Z</time>
      </trkpt>
      <trkpt lat="46.87689" lon="5.6295">
        <ele>272.4</ele>
        <time>2020-03-04T08:38:27Z</time>
      </trkpt>
      <trkpt lat="46.87686" lon="5.62947">
        <ele>272.4</ele>
        <time>2020-03-04T08:38:28Z</time>
      </trkpt>
      <trkpt lat="46.87682" lon="5.62943">
        <ele>272.4</ele>
        <time>2020-03-04T08:38:29Z</time>
      </trkpt>
      <trkpt lat="46.87679" lon="5.62939">
        <ele>272.4</ele>
        <time>2020-03-04T08:38:30Z</time>
      </trkpt>
      <trkpt lat="46.87675" lon="5.62935">
        <ele>272.4</ele>
        <time>2020-03-04T08:38:31Z</time>
      </trkpt>
      <trkpt lat="46.87671" lon="5.62932">
        <ele>272.4</ele>
        <time>2020-03-04T08:38:32Z</time>
      </trkpt>
      <trkpt lat="46.87668" lon="5.62928">
        <ele>272.4</ele>
        <time>2020-03-04T08:38:33Z</time>
      </trkpt>
      <trkpt lat="46.87664" lon="5.62924">
        <ele>272.4</ele>
        <time>2020-03-04T08:38:34Z</time>
      </trkpt>
      <trkpt lat="46.87661" lon="5.62921">
        <ele>272.6</ele>
        <time>2020-03-04T08:38:35Z</time>
      </trkpt>
      <trkpt lat="46.87657" lon="5.62918">
        <ele>272.6</ele>
        <time>2020-03-04T08:38:36Z</time>
      </trkpt>
      <trkpt lat="46.87653" lon="5.62916">
        <ele>272.6</ele>
        <time>2020-03-04T08:38:37Z</time>
      </trkpt>
      <trkpt lat="46.87648" lon="5.62914">
        <ele>272.6</ele>
        <time>2020-03-04T08:38:38Z</time>
      </trkpt>
      <trkpt lat="46.87644" lon="5.62912">
        <ele>272.6</ele>
        <time>2020-03-04T08:38:39Z</time>
      </trkpt>
      <trkpt lat="46.8764" lon="5.6291">
        <ele>273</ele>
        <time>2020-03-04T08:38:40Z</time>
      </trkpt>
      <trkpt lat="46.87636" lon="5.62907">
        <ele>273</ele>
        <time>2020-03-04T08:38:41Z</time>
      </trkpt>
      <trkpt lat="46.87632" lon="5.62905">
        <ele>273</ele>
        <time>2020-03-04T08:38:42Z</time>
      </trkpt>
      <trkpt lat="46.87628" lon="5.62902">
        <ele>273</ele>
        <time>2020-03-04T08:38:43Z</time>
      </trkpt>
      <trkpt lat="46.87624" lon="5.629">
        <ele>273</ele>
        <time>2020-03-04T08:38:44Z</time>
      </trkpt>
      <trkpt lat="46.8762" lon="5.62897">
        <ele>273</ele>
        <time>2020-03-04T08:38:45Z</time>
      </trkpt>
      <trkpt lat="46.87616" lon="5.62894">
        <ele>273.2</ele>
        <time>2020-03-04T08:38:46Z</time>
      </trkpt>
      <trkpt lat="46.87613" lon="5.6289">
        <ele>273.2</ele>
        <time>2020-03-04T08:38:47Z</time>
      </trkpt>
      <trkpt lat="46.8761" lon="5.62886">
        <ele>273.2</ele>
        <time>2020-03-04T08:38:48Z</time>
      </trkpt>
      <trkpt lat="46.87607" lon="5.62882">
        <ele>273.4</ele>
        <time>2020-03-04T08:38:49Z</time>
      </trkpt>
      <trkpt lat="46.87604" lon="5.62877">
        <ele>273.4</ele>
        <time>2020-03-04T08:38:50Z</time>
      </trkpt>
      <trkpt lat="46.87602" lon="5.62873">
        <ele>273.6</ele>
        <time>2020-03-04T08:38:51Z</time>
      </trkpt>
      <trkpt lat="46.87599" lon="5.62868">
        <ele>273.6</ele>
        <time>2020-03-04T08:38:52Z</time>
      </trkpt>
      <trkpt lat="46.87597" lon="5.62864">
        <ele>274</ele>
        <time>2020-03-04T08:38:53Z</time>
      </trkpt>
      <trkpt lat="46.87595" lon="5.62859">
        <ele>274.2</ele>
        <time>2020-03-04T08:38:54Z</time>
      </trkpt>
      <trkpt lat="46.87593" lon="5.62855">
        <ele>274.2</ele>
        <time>2020-03-04T08:38:55Z</time>
      </trkpt>
      <trkpt lat="46.87592" lon="5.62851">
        <ele>274.6</ele>
        <time>2020-03-04T08:38:56Z</time>
      </trkpt>
      <trkpt lat="46.8759" lon="5.62847">
        <ele>274.6</ele>
        <time>2020-03-04T08:38:57Z</time>
      </trkpt>
      <trkpt lat="46.87588" lon="5.62844">
        <ele>275</ele>
        <time>2020-03-04T08:38:58Z</time>
      </trkpt>
      <trkpt lat="46.87587" lon="5.6284">
        <ele>275</ele>
        <time>2020-03-04T08:38:59Z</time>
      </trkpt>
      <trkpt lat="46.87585" lon="5.62837">
        <ele>275.4</ele>
        <time>2020-03-04T08:39:00Z</time>
      </trkpt>
      <trkpt lat="46.87584" lon="5.62833">
        <ele>275.4</ele>
        <time>2020-03-04T08:39:01Z</time>
      </trkpt>
      <trkpt lat="46.87582" lon="5.6283">
        <ele>275.8</ele>
        <time>2020-03-04T08:39:02Z</time>
      </trkpt>
      <trkpt lat="46.8758" lon="5.62826">
        <ele>275.8</ele>
        <time>2020-03-04T08:39:03Z</time>
      </trkpt>
      <trkpt lat="46.87578" lon="5.62823">
        <ele>276.2</ele>
        <time>2020-03-04T08:39:04Z</time>
      </trkpt>
      <trkpt lat="46.87576" lon="5.62819">
        <ele>276.4</ele>
        <time>2020-03-04T08:39:05Z</time>
      </trkpt>
      <trkpt lat="46.87574" lon="5.62815">
        <ele>276.4</ele>
        <time>2020-03-04T08:39:06Z</time>
      </trkpt>
      <trkpt lat="46.87571" lon="5.62812">
        <ele>276.8</ele>
        <time>2020-03-04T08:39:07Z</time>
      </trkpt>
      <trkpt lat="46.87569" lon="5.62809">
        <ele>276.8</ele>
        <time>2020-03-04T08:39:08Z</time>
      </trkpt>
      <trkpt lat="46.87566" lon="5.62806">
        <ele>276.8</ele>
        <time>2020-03-04T08:39:09Z</time>
      </trkpt>
      <trkpt lat="46.87563" lon="5.62804">
        <ele>277</ele>
        <time>2020-03-04T08:39:10Z</time>
      </trkpt>
      <trkpt lat="46.8756" lon="5.62801">
        <ele>277</ele>
        <time>2020-03-04T08:39:11Z</time>
      </trkpt>
      <trkpt lat="46.87557" lon="5.62799">
        <ele>277.4</ele>
        <time>2020-03-04T08:39:12Z</time>
      </trkpt>
      <trkpt lat="46.87554" lon="5.62797">
        <ele>277.4</ele>
        <time>2020-03-04T08:39:13Z</time>
      </trkpt>
      <trkpt lat="46.87552" lon="5.62795">
        <ele>277.6</ele>
        <time>2020-03-04T08:39:14Z</time>
      </trkpt>
      <trkpt lat="46.87549" lon="5.62793">
        <ele>277.6</ele>
        <time>2020-03-04T08:39:15Z</time>
      </trkpt>
      <trkpt lat="46.87546" lon="5.62791">
        <ele>277.8</ele>
        <time>2020-03-04T08:39:16Z</time>
      </trkpt>
      <trkpt lat="46.87543" lon="5.62789">
        <ele>277.8</ele>
        <time>2020-03-04T08:39:17Z</time>
      </trkpt>
      <trkpt lat="46.87539" lon="5.62788">
        <ele>277.8</ele>
        <time>2020-03-04T08:39:18Z</time>
      </trkpt>
      <trkpt lat="46.87536" lon="5.62786">
        <ele>277.8</ele>
        <time>2020-03-04T08:39:19Z</time>
      </trkpt>
      <trkpt lat="46.87533" lon="5.62784">
        <ele>278.2</ele>
        <time>2020-03-04T08:39:20Z</time>
      </trkpt>
      <trkpt lat="46.87529" lon="5.62781">
        <ele>278.2</ele>
        <time>2020-03-04T08:39:21Z</time>
      </trkpt>
      <trkpt lat="46.87526" lon="5.62779">
        <ele>278.2</ele>
        <time>2020-03-04T08:39:22Z</time>
      </trkpt>
      <trkpt lat="46.87522" lon="5.62777">
        <ele>278.2</ele>
        <time>2020-03-04T08:39:23Z</time>
      </trkpt>
      <trkpt lat="46.87519" lon="5.62775">
        <ele>278.4</ele>
        <time>2020-03-04T08:39:24Z</time>
      </trkpt>
      <trkpt lat="46.87515" lon="5.62772">
        <ele>278.4</ele>
        <time>2020-03-04T08:39:25Z</time>
      </trkpt>
      <trkpt lat="46.87511" lon="5.62769">
        <ele>278.4</ele>
        <time>2020-03-04T08:39:26Z</time>
      </trkpt>
      <trkpt lat="46.87507" lon="5.62767">
        <ele>278.4</ele>
        <time>2020-03-04T08:39:27Z</time>
      </trkpt>
      <trkpt lat="46.87503" lon="5.62764">
        <ele>278.4</ele>
        <time>2020-03-04T08:39:28Z</time>
      </trkpt>
      <trkpt lat="46.87499" lon="5.62761">
        <ele>278.4</ele>
        <time>2020-03-04T08:39:29Z</time>
      </trkpt>
      <trkpt lat="46.87495" lon="5.62758">
        <ele>278.4</ele>
        <time>2020-03-04T08:39:30Z</time>
      </trkpt>
      <trkpt lat="46.87491" lon="5.62755">
        <ele>278.4</ele>
        <time>2020-03-04T08:39:31Z</time>
      </trkpt>
      <trkpt lat="46.87488" lon="5.62752">
        <ele>278.4</ele>
        <time>2020-03-04T08:39:32Z</time>
      </trkpt>
      <trkpt lat="46.87484" lon="5.62749">
        <ele>278.4</ele>
        <time>2020-03-04T08:39:33Z</time>
      </trkpt>
      <trkpt lat="46.8748" lon="5.62746">
        <ele>278.4</ele>
        <time>2020-03-04T08:39:34Z</time>
      </trkpt>
      <trkpt lat="46.87476" lon="5.62743">
        <ele>278.4</ele>
        <time>2020-03-04T08:39:35Z</time>
      </trkpt>
      <trkpt lat="46.87472" lon="5.62741">
        <ele>278.6</ele>
        <time>2020-03-04T08:39:36Z</time>
      </trkpt>
      <trkpt lat="46.87468" lon="5.62739">
        <ele>278.6</ele>
        <time>2020-03-04T08:39:37Z</time>
      </trkpt>
      <trkpt lat="46.87464" lon="5.62736">
        <ele>278.6</ele>
        <time>2020-03-04T08:39:38Z</time>
      </trkpt>
      <trkpt lat="46.8746" lon="5.62734">
        <ele>278.6</ele>
        <time>2020-03-04T08:39:39Z</time>
      </trkpt>
      <trkpt lat="46.87456" lon="5.62731">
        <ele>278.6</ele>
        <time>2020-03-04T08:39:40Z</time>
      </trkpt>
      <trkpt lat="46.87453" lon="5.62728">
        <ele>278.6</ele>
        <time>2020-03-04T08:39:41Z</time>
      </trkpt>
      <trkpt lat="46.8745" lon="5.62726">
        <ele>278.6</ele>
        <time>2020-03-04T08:39:42Z</time>
      </trkpt>
      <trkpt lat="46.87446" lon="5.62723">
        <ele>278.6</ele>
        <time>2020-03-04T08:39:43Z</time>
      </trkpt>
      <trkpt lat="46.87443" lon="5.62721">
        <ele>278.6</ele>
        <time>2020-03-04T08:39:44Z</time>
      </trkpt>
      <trkpt lat="46.87439" lon="5.62719">
        <ele>278.6</ele>
        <time>2020-03-04T08:39:45Z</time>
      </trkpt>
      <trkpt lat="46.87436" lon="5.62716">
        <ele>278.6</ele>
        <time>2020-03-04T08:39:46Z</time>
      </trkpt>
      <trkpt lat="46.87432" lon="5.62714">
        <ele>278.6</ele>
        <time>2020-03-04T08:39:47Z</time>
      </trkpt>
      <trkpt lat="46.87429" lon="5.62711">
        <ele>278.6</ele>
        <time>2020-03-04T08:39:48Z</time>
      </trkpt>
      <trkpt lat="46.87425" lon="5.62709">
        <ele>278.6</ele>
        <time>2020-03-04T08:39:49Z</time>
      </trkpt>
      <trkpt lat="46.87421" lon="5.62706">
        <ele>278.6</ele>
        <time>2020-03-04T08:39:50Z</time>
      </trkpt>
      <trkpt lat="46.87418" lon="5.62704">
        <ele>278.4</ele>
        <time>2020-03-04T08:39:51Z</time>
      </trkpt>
      <trkpt lat="46.87414" lon="5.62701">
        <ele>278.4</ele>
        <time>2020-03-04T08:39:52Z</time>
      </trkpt>
      <trkpt lat="46.8741" lon="5.62699">
        <ele>278.4</ele>
        <time>2020-03-04T08:39:53Z</time>
      </trkpt>
      <trkpt lat="46.87407" lon="5.62697">
        <ele>278.4</ele>
        <time>2020-03-04T08:39:54Z</time>
      </trkpt>
      <trkpt lat="46.87403" lon="5.62695">
        <ele>278.4</ele>
        <time>2020-03-04T08:39:55Z</time>
      </trkpt>
      <trkpt lat="46.87399" lon="5.62693">
        <ele>278.4</ele>
        <time>2020-03-04T08:39:56Z</time>
      </trkpt>
      <trkpt lat="46.87396" lon="5.6269">
        <ele>278.4</ele>
        <time>2020-03-04T08:39:57Z</time>
      </trkpt>
      <trkpt lat="46.87392" lon="5.62688">
        <ele>278.6</ele>
        <time>2020-03-04T08:39:58Z</time>
      </trkpt>
      <trkpt lat="46.87388" lon="5.62685">
        <ele>278.6</ele>
        <time>2020-03-04T08:39:59Z</time>
      </trkpt>
      <trkpt lat="46.87384" lon="5.62682">
        <ele>278.6</ele>
        <time>2020-03-04T08:40:00Z</time>
      </trkpt>
      <trkpt lat="46.87381" lon="5.6268">
        <ele>278.6</ele>
        <time>2020-03-04T08:40:01Z</time>
      </trkpt>
      <trkpt lat="46.87377" lon="5.62677">
        <ele>278.6</ele>
        <time>2020-03-04T08:40:02Z</time>
      </trkpt>
      <trkpt lat="46.87373" lon="5.62675">
        <ele>278.6</ele>
        <time>2020-03-04T08:40:03Z</time>
      </trkpt>
      <trkpt lat="46.87369" lon="5.62672">
        <ele>278.6</ele>
        <time>2020-03-04T08:40:04Z</time>
      </trkpt>
      <trkpt lat="46.87365" lon="5.62669">
        <ele>278.4</ele>
        <time>2020-03-04T08:40:05Z</time>
      </trkpt>
      <trkpt lat="46.87361" lon="5.62666">
        <ele>278.4</ele>
        <time>2020-03-04T08:40:06Z</time>
      </trkpt>
      <trkpt lat="46.87357" lon="5.62663">
        <ele>278.4</ele>
        <time>2020-03-04T08:40:07Z</time>
      </trkpt>
      <trkpt lat="46.87352" lon="5.6266">
        <ele>278.2</ele>
        <time>2020-03-04T08:40:08Z</time>
      </trkpt>
      <trkpt lat="46.87348" lon="5.62657">
        <ele>278.2</ele>
        <time>2020-03-04T08:40:09Z</time>
      </trkpt>
      <trkpt lat="46.87344" lon="5.62654">
        <ele>278</ele>
        <time>2020-03-04T08:40:10Z</time>
      </trkpt>
      <trkpt lat="46.87339" lon="5.62651">
        <ele>278</ele>
        <time>2020-03-04T08:40:11Z</time>
      </trkpt>
      <trkpt lat="46.87336" lon="5.62649">
        <ele>277.6</ele>
        <time>2020-03-04T08:40:12Z</time>
      </trkpt>
      <trkpt lat="46.87333" lon="5.62647">
        <ele>277.4</ele>
        <time>2020-03-04T08:40:13Z</time>
      </trkpt>
      <trkpt lat="46.8733" lon="5.62645">
        <ele>277.2</ele>
        <time>2020-03-04T08:40:14Z</time>
      </trkpt>
      <trkpt lat="46.87328" lon="5.62643">
        <ele>277.2</ele>
        <time>2020-03-04T08:40:15Z</time>
      </trkpt>
      <trkpt lat="46.87326" lon="5.62642">
        <ele>276.8</ele>
        <time>2020-03-04T08:40:16Z</time>
      </trkpt>
      <trkpt lat="46.87326" lon="5.62642">
        <ele>276.8</ele>
        <time>2020-03-04T08:40:17Z</time>
      </trkpt>
      <trkpt lat="46.87323" lon="5.62641">
        <ele>276.4</ele>
        <time>2020-03-04T08:40:53Z</time>
      </trkpt>
      <trkpt lat="46.87322" lon="5.62641">
        <ele>276.4</ele>
        <time>2020-03-04T08:40:54Z</time>
      </trkpt>
      <trkpt lat="46.8732" lon="5.62641">
        <ele>276.4</ele>
        <time>2020-03-04T08:40:55Z</time>
      </trkpt>
      <trkpt lat="46.87317" lon="5.6264">
        <ele>276</ele>
        <time>2020-03-04T08:40:56Z</time>
      </trkpt>
      <trkpt lat="46.87314" lon="5.62638">
        <ele>276</ele>
        <time>2020-03-04T08:40:57Z</time>
      </trkpt>
      <trkpt lat="46.87311" lon="5.62637">
        <ele>275.8</ele>
        <time>2020-03-04T08:40:58Z</time>
      </trkpt>
      <trkpt lat="46.87307" lon="5.62636">
        <ele>275.8</ele>
        <time>2020-03-04T08:40:59Z</time>
      </trkpt>
      <trkpt lat="46.87303" lon="5.62635">
        <ele>275.4</ele>
        <time>2020-03-04T08:41:00Z</time>
      </trkpt>
      <trkpt lat="46.87298" lon="5.62634">
        <ele>275.2</ele>
        <time>2020-03-04T08:41:01Z</time>
      </trkpt>
      <trkpt lat="46.87294" lon="5.62634">
        <ele>275</ele>
        <time>2020-03-04T08:41:02Z</time>
      </trkpt>
      <trkpt lat="46.87289" lon="5.62632">
        <ele>274.8</ele>
        <time>2020-03-04T08:41:03Z</time>
      </trkpt>
      <trkpt lat="46.87283" lon="5.6263">
        <ele>274.4</ele>
        <time>2020-03-04T08:41:04Z</time>
      </trkpt>
      <trkpt lat="46.87278" lon="5.62628">
        <ele>274.2</ele>
        <time>2020-03-04T08:41:05Z</time>
      </trkpt>
      <trkpt lat="46.87273" lon="5.62625">
        <ele>274</ele>
        <time>2020-03-04T08:41:06Z</time>
      </trkpt>
      <trkpt lat="46.87267" lon="5.62622">
        <ele>274</ele>
        <time>2020-03-04T08:41:07Z</time>
      </trkpt>
      <trkpt lat="46.87262" lon="5.62618">
        <ele>273.6</ele>
        <time>2020-03-04T08:41:08Z</time>
      </trkpt>
      <trkpt lat="46.87258" lon="5.62614">
        <ele>273.6</ele>
        <time>2020-03-04T08:41:09Z</time>
      </trkpt>
      <trkpt lat="46.87253" lon="5.62609">
        <ele>273.2</ele>
        <time>2020-03-04T08:41:10Z</time>
      </trkpt>
      <trkpt lat="46.87248" lon="5.62605">
        <ele>273.2</ele>
        <time>2020-03-04T08:41:11Z</time>
      </trkpt>
      <trkpt lat="46.87243" lon="5.626">
        <ele>272.8</ele>
        <time>2020-03-04T08:41:12Z</time>
      </trkpt>
      <trkpt lat="46.87238" lon="5.62596">
        <ele>272.8</ele>
        <time>2020-03-04T08:41:13Z</time>
      </trkpt>
      <trkpt lat="46.87233" lon="5.62591">
        <ele>272.4</ele>
        <time>2020-03-04T08:41:14Z</time>
      </trkpt>
      <trkpt lat="46.87228" lon="5.62587">
        <ele>272.4</ele>
        <time>2020-03-04T08:41:15Z</time>
      </trkpt>
      <trkpt lat="46.87223" lon="5.62582">
        <ele>272.2</ele>
        <time>2020-03-04T08:41:16Z</time>
      </trkpt>
      <trkpt lat="46.87219" lon="5.62577">
        <ele>272.2</ele>
        <time>2020-03-04T08:41:17Z</time>
      </trkpt>
      <trkpt lat="46.87214" lon="5.62572">
        <ele>271.8</ele>
        <time>2020-03-04T08:41:18Z</time>
      </trkpt>
      <trkpt lat="46.87209" lon="5.62567">
        <ele>271.8</ele>
        <time>2020-03-04T08:41:19Z</time>
      </trkpt>
      <trkpt lat="46.87204" lon="5.62561">
        <ele>271.6</ele>
        <time>2020-03-04T08:41:20Z</time>
      </trkpt>
      <trkpt lat="46.87201" lon="5.62556">
        <ele>271.6</ele>
        <time>2020-03-04T08:41:21Z</time>
      </trkpt>
      <trkpt lat="46.87197" lon="5.6255">
        <ele>271.6</ele>
        <time>2020-03-04T08:41:22Z</time>
      </trkpt>
      <trkpt lat="46.87193" lon="5.62544">
        <ele>271.6</ele>
        <time>2020-03-04T08:41:23Z</time>
      </trkpt>
      <trkpt lat="46.8719" lon="5.62539">
        <ele>271.6</ele>
        <time>2020-03-04T08:41:24Z</time>
      </trkpt>
      <trkpt lat="46.87186" lon="5.62534">
        <ele>271.6</ele>
        <time>2020-03-04T08:41:25Z</time>
      </trkpt>
      <trkpt lat="46.87183" lon="5.62529">
        <ele>271.6</ele>
        <time>2020-03-04T08:41:26Z</time>
      </trkpt>
      <trkpt lat="46.87179" lon="5.62524">
        <ele>271.6</ele>
        <time>2020-03-04T08:41:27Z</time>
      </trkpt>
      <trkpt lat="46.87176" lon="5.62519">
        <ele>271.6</ele>
        <time>2020-03-04T08:41:28Z</time>
      </trkpt>
      <trkpt lat="46.87172" lon="5.62514">
        <ele>271.6</ele>
        <time>2020-03-04T08:41:29Z</time>
      </trkpt>
      <trkpt lat="46.87168" lon="5.62509">
        <ele>271.6</ele>
        <time>2020-03-04T08:41:30Z</time>
      </trkpt>
      <trkpt lat="46.87165" lon="5.62504">
        <ele>271.6</ele>
        <time>2020-03-04T08:41:31Z</time>
      </trkpt>
      <trkpt lat="46.87161" lon="5.625">
        <ele>271.6</ele>
        <time>2020-03-04T08:41:32Z</time>
      </trkpt>
      <trkpt lat="46.87158" lon="5.62495">
        <ele>272</ele>
        <time>2020-03-04T08:41:33Z</time>
      </trkpt>
      <trkpt lat="46.87155" lon="5.62491">
        <ele>272</ele>
        <time>2020-03-04T08:41:34Z</time>
      </trkpt>
      <trkpt lat="46.87153" lon="5.62487">
        <ele>272</ele>
        <time>2020-03-04T08:41:35Z</time>
      </trkpt>
      <trkpt lat="46.8715" lon="5.62482">
        <ele>272.2</ele>
        <time>2020-03-04T08:41:36Z</time>
      </trkpt>
      <trkpt lat="46.87147" lon="5.62478">
        <ele>272.2</ele>
        <time>2020-03-04T08:41:37Z</time>
      </trkpt>
      <trkpt lat="46.87145" lon="5.62473">
        <ele>272.2</ele>
        <time>2020-03-04T08:41:38Z</time>
      </trkpt>
      <trkpt lat="46.87143" lon="5.62468">
        <ele>272.2</ele>
        <time>2020-03-04T08:41:39Z</time>
      </trkpt>
      <trkpt lat="46.87141" lon="5.62464">
        <ele>272.4</ele>
        <time>2020-03-04T08:41:40Z</time>
      </trkpt>
      <trkpt lat="46.87139" lon="5.62459">
        <ele>272.4</ele>
        <time>2020-03-04T08:41:41Z</time>
      </trkpt>
      <trkpt lat="46.87137" lon="5.62455">
        <ele>272.8</ele>
        <time>2020-03-04T08:41:42Z</time>
      </trkpt>
      <trkpt lat="46.87135" lon="5.6245">
        <ele>272.8</ele>
        <time>2020-03-04T08:41:43Z</time>
      </trkpt>
      <trkpt lat="46.87133" lon="5.62446">
        <ele>273</ele>
        <time>2020-03-04T08:41:44Z</time>
      </trkpt>
      <trkpt lat="46.8713" lon="5.62442">
        <ele>273</ele>
        <time>2020-03-04T08:41:45Z</time>
      </trkpt>
      <trkpt lat="46.87128" lon="5.62438">
        <ele>273</ele>
        <time>2020-03-04T08:41:46Z</time>
      </trkpt>
      <trkpt lat="46.87126" lon="5.62433">
        <ele>273</ele>
        <time>2020-03-04T08:41:47Z</time>
      </trkpt>
      <trkpt lat="46.87124" lon="5.62429">
        <ele>273.2</ele>
        <time>2020-03-04T08:41:48Z</time>
      </trkpt>
      <trkpt lat="46.87121" lon="5.62425">
        <ele>273.2</ele>
        <time>2020-03-04T08:41:49Z</time>
      </trkpt>
      <trkpt lat="46.87119" lon="5.62421">
        <ele>273.2</ele>
        <time>2020-03-04T08:41:50Z</time>
      </trkpt>
      <trkpt lat="46.87116" lon="5.62416">
        <ele>273.2</ele>
        <time>2020-03-04T08:41:51Z</time>
      </trkpt>
      <trkpt lat="46.87113" lon="5.62412">
        <ele>273</ele>
        <time>2020-03-04T08:41:52Z</time>
      </trkpt>
      <trkpt lat="46.8711" lon="5.62408">
        <ele>273</ele>
        <time>2020-03-04T08:41:53Z</time>
      </trkpt>
      <trkpt lat="46.87106" lon="5.62403">
        <ele>272.8</ele>
        <time>2020-03-04T08:41:54Z</time>
      </trkpt>
      <trkpt lat="46.87103" lon="5.62398">
        <ele>272.4</ele>
        <time>2020-03-04T08:41:55Z</time>
      </trkpt>
      <trkpt lat="46.87099" lon="5.62392">
        <ele>272.2</ele>
        <time>2020-03-04T08:41:56Z</time>
      </trkpt>
      <trkpt lat="46.87095" lon="5.62387">
        <ele>271.8</ele>
        <time>2020-03-04T08:41:57Z</time>
      </trkpt>
      <trkpt lat="46.87091" lon="5.62381">
        <ele>271.4</ele>
        <time>2020-03-04T08:41:58Z</time>
      </trkpt>
      <trkpt lat="46.87088" lon="5.62375">
        <ele>271</ele>
        <time>2020-03-04T08:41:59Z</time>
      </trkpt>
      <trkpt lat="46.87084" lon="5.6237">
        <ele>270.8</ele>
        <time>2020-03-04T08:42:00Z</time>
      </trkpt>
      <trkpt lat="46.87081" lon="5.62365">
        <ele>270.4</ele>
        <time>2020-03-04T08:42:01Z</time>
      </trkpt>
      <trkpt lat="46.87079" lon="5.6236">
        <ele>269.8</ele>
        <time>2020-03-04T08:42:02Z</time>
      </trkpt>
      <trkpt lat="46.87076" lon="5.62354">
        <ele>269.4</ele>
        <time>2020-03-04T08:42:03Z</time>
      </trkpt>
      <trkpt lat="46.87075" lon="5.62348">
        <ele>269</ele>
        <time>2020-03-04T08:42:04Z</time>
      </trkpt>
      <trkpt lat="46.87073" lon="5.62342">
        <ele>268.4</ele>
        <time>2020-03-04T08:42:05Z</time>
      </trkpt>
      <trkpt lat="46.87072" lon="5.62335">
        <ele>267.8</ele>
        <time>2020-03-04T08:42:06Z</time>
      </trkpt>
      <trkpt lat="46.87071" lon="5.6233">
        <ele>267.4</ele>
        <time>2020-03-04T08:42:07Z</time>
      </trkpt>
      <trkpt lat="46.8707" lon="5.62324">
        <ele>267</ele>
        <time>2020-03-04T08:42:08Z</time>
      </trkpt>
      <trkpt lat="46.8707" lon="5.62317">
        <ele>266.6</ele>
        <time>2020-03-04T08:42:09Z</time>
      </trkpt>
      <trkpt lat="46.87071" lon="5.62311">
        <ele>266.4</ele>
        <time>2020-03-04T08:42:10Z</time>
      </trkpt>
      <trkpt lat="46.87073" lon="5.62304">
        <ele>266.4</ele>
        <time>2020-03-04T08:42:11Z</time>
      </trkpt>
      <trkpt lat="46.87075" lon="5.62298">
        <ele>266.2</ele>
        <time>2020-03-04T08:42:12Z</time>
      </trkpt>
      <trkpt lat="46.87076" lon="5.6229">
        <ele>266.2</ele>
        <time>2020-03-04T08:42:13Z</time>
      </trkpt>
      <trkpt lat="46.87078" lon="5.62283">
        <ele>266.2</ele>
        <time>2020-03-04T08:42:14Z</time>
      </trkpt>
      <trkpt lat="46.8708" lon="5.62276">
        <ele>266.2</ele>
        <time>2020-03-04T08:42:15Z</time>
      </trkpt>
      <trkpt lat="46.87081" lon="5.62268">
        <ele>266.2</ele>
        <time>2020-03-04T08:42:16Z</time>
      </trkpt>
      <trkpt lat="46.87083" lon="5.62261">
        <ele>266.2</ele>
        <time>2020-03-04T08:42:17Z</time>
      </trkpt>
      <trkpt lat="46.87084" lon="5.62253">
        <ele>266.2</ele>
        <time>2020-03-04T08:42:18Z</time>
      </trkpt>
      <trkpt lat="46.87086" lon="5.62246">
        <ele>266.2</ele>
        <time>2020-03-04T08:42:19Z</time>
      </trkpt>
      <trkpt lat="46.87088" lon="5.62239">
        <ele>266.2</ele>
        <time>2020-03-04T08:42:20Z</time>
      </trkpt>
      <trkpt lat="46.8709" lon="5.62232">
        <ele>266.2</ele>
        <time>2020-03-04T08:42:21Z</time>
      </trkpt>
      <trkpt lat="46.87092" lon="5.62224">
        <ele>266.2</ele>
        <time>2020-03-04T08:42:22Z</time>
      </trkpt>
      <trkpt lat="46.87094" lon="5.62217">
        <ele>266.2</ele>
        <time>2020-03-04T08:42:23Z</time>
      </trkpt>
      <trkpt lat="46.87097" lon="5.6221">
        <ele>266.2</ele>
        <time>2020-03-04T08:42:24Z</time>
      </trkpt>
      <trkpt lat="46.87099" lon="5.62203">
        <ele>266.2</ele>
        <time>2020-03-04T08:42:25Z</time>
      </trkpt>
      <trkpt lat="46.87102" lon="5.62197">
        <ele>266.2</ele>
        <time>2020-03-04T08:42:26Z</time>
      </trkpt>
      <trkpt lat="46.87106" lon="5.6219">
        <ele>266.2</ele>
        <time>2020-03-04T08:42:27Z</time>
      </trkpt>
      <trkpt lat="46.87109" lon="5.62184">
        <ele>266.2</ele>
        <time>2020-03-04T08:42:28Z</time>
      </trkpt>
      <trkpt lat="46.87112" lon="5.62178">
        <ele>266.2</ele>
        <time>2020-03-04T08:42:29Z</time>
      </trkpt>
      <trkpt lat="46.87115" lon="5.62172">
        <ele>266.2</ele>
        <time>2020-03-04T08:42:30Z</time>
      </trkpt>
      <trkpt lat="46.87118" lon="5.62166">
        <ele>266.2</ele>
        <time>2020-03-04T08:42:31Z</time>
      </trkpt>
      <trkpt lat="46.87121" lon="5.62159">
        <ele>266.2</ele>
        <time>2020-03-04T08:42:32Z</time>
      </trkpt>
      <trkpt lat="46.87124" lon="5.62153">
        <ele>265.8</ele>
        <time>2020-03-04T08:42:33Z</time>
      </trkpt>
      <trkpt lat="46.87128" lon="5.62147">
        <ele>265.8</ele>
        <time>2020-03-04T08:42:34Z</time>
      </trkpt>
      <trkpt lat="46.87131" lon="5.6214">
        <ele>265.6</ele>
        <time>2020-03-04T08:42:35Z</time>
      </trkpt>
      <trkpt lat="46.87135" lon="5.62134">
        <ele>265.6</ele>
        <time>2020-03-04T08:42:36Z</time>
      </trkpt>
      <trkpt lat="46.87138" lon="5.62128">
        <ele>265.6</ele>
        <time>2020-03-04T08:42:37Z</time>
      </trkpt>
      <trkpt lat="46.87142" lon="5.62122">
        <ele>265.6</ele>
        <time>2020-03-04T08:42:38Z</time>
      </trkpt>
      <trkpt lat="46.87147" lon="5.62116">
        <ele>265.4</ele>
        <time>2020-03-04T08:42:39Z</time>
      </trkpt>
      <trkpt lat="46.87151" lon="5.62111">
        <ele>265.4</ele>
        <time>2020-03-04T08:42:40Z</time>
      </trkpt>
      <trkpt lat="46.87156" lon="5.62106">
        <ele>265.4</ele>
        <time>2020-03-04T08:42:41Z</time>
      </trkpt>
      <trkpt lat="46.8716" lon="5.62101">
        <ele>265.4</ele>
        <time>2020-03-04T08:42:42Z</time>
      </trkpt>
      <trkpt lat="46.87166" lon="5.62097">
        <ele>265.2</ele>
        <time>2020-03-04T08:42:43Z</time>
      </trkpt>
      <trkpt lat="46.87171" lon="5.62092">
        <ele>265.2</ele>
        <time>2020-03-04T08:42:44Z</time>
      </trkpt>
      <trkpt lat="46.87176" lon="5.62088">
        <ele>264.8</ele>
        <time>2020-03-04T08:42:45Z</time>
      </trkpt>
      <trkpt lat="46.87182" lon="5.62082">
        <ele>264.8</ele>
        <time>2020-03-04T08:42:46Z</time>
      </trkpt>
      <trkpt lat="46.87188" lon="5.62076">
        <ele>264.4</ele>
        <time>2020-03-04T08:42:47Z</time>
      </trkpt>
      <trkpt lat="46.87193" lon="5.62069">
        <ele>264.2</ele>
        <time>2020-03-04T08:42:48Z</time>
      </trkpt>
      <trkpt lat="46.87198" lon="5.62062">
        <ele>263.8</ele>
        <time>2020-03-04T08:42:49Z</time>
      </trkpt>
      <trkpt lat="46.87203" lon="5.62053">
        <ele>263.6</ele>
        <time>2020-03-04T08:42:50Z</time>
      </trkpt>
      <trkpt lat="46.87208" lon="5.62045">
        <ele>263.6</ele>
        <time>2020-03-04T08:42:51Z</time>
      </trkpt>
      <trkpt lat="46.87211" lon="5.62035">
        <ele>263.2</ele>
        <time>2020-03-04T08:42:52Z</time>
      </trkpt>
      <trkpt lat="46.87214" lon="5.62025">
        <ele>263.2</ele>
        <time>2020-03-04T08:42:53Z</time>
      </trkpt>
      <trkpt lat="46.87218" lon="5.62015">
        <ele>262.8</ele>
        <time>2020-03-04T08:42:54Z</time>
      </trkpt>
      <trkpt lat="46.87221" lon="5.62005">
        <ele>262.6</ele>
        <time>2020-03-04T08:42:55Z</time>
      </trkpt>
      <trkpt lat="46.87224" lon="5.61996">
        <ele>262.6</ele>
        <time>2020-03-04T08:42:56Z</time>
      </trkpt>
      <trkpt lat="46.87228" lon="5.61986">
        <ele>262.2</ele>
        <time>2020-03-04T08:42:57Z</time>
      </trkpt>
      <trkpt lat="46.87233" lon="5.61977">
        <ele>262.2</ele>
        <time>2020-03-04T08:42:58Z</time>
      </trkpt>
      <trkpt lat="46.87237" lon="5.61968">
        <ele>262</ele>
        <time>2020-03-04T08:42:59Z</time>
      </trkpt>
      <trkpt lat="46.87242" lon="5.61961">
        <ele>262</ele>
        <time>2020-03-04T08:43:00Z</time>
      </trkpt>
      <trkpt lat="46.87248" lon="5.61954">
        <ele>262</ele>
        <time>2020-03-04T08:43:01Z</time>
      </trkpt>
      <trkpt lat="46.87254" lon="5.61948">
        <ele>262</ele>
        <time>2020-03-04T08:43:02Z</time>
      </trkpt>
      <trkpt lat="46.8726" lon="5.61942">
        <ele>262</ele>
        <time>2020-03-04T08:43:03Z</time>
      </trkpt>
      <trkpt lat="46.87266" lon="5.61938">
        <ele>262</ele>
        <time>2020-03-04T08:43:04Z</time>
      </trkpt>
      <trkpt lat="46.87272" lon="5.61934">
        <ele>262</ele>
        <time>2020-03-04T08:43:05Z</time>
      </trkpt>
      <trkpt lat="46.87278" lon="5.6193">
        <ele>262</ele>
        <time>2020-03-04T08:43:06Z</time>
      </trkpt>
      <trkpt lat="46.87284" lon="5.61926">
        <ele>262</ele>
        <time>2020-03-04T08:43:07Z</time>
      </trkpt>
      <trkpt lat="46.8729" lon="5.61922">
        <ele>262.2</ele>
        <time>2020-03-04T08:43:08Z</time>
      </trkpt>
      <trkpt lat="46.87296" lon="5.61919">
        <ele>262.2</ele>
        <time>2020-03-04T08:43:09Z</time>
      </trkpt>
      <trkpt lat="46.87301" lon="5.61916">
        <ele>262.6</ele>
        <time>2020-03-04T08:43:10Z</time>
      </trkpt>
      <trkpt lat="46.87307" lon="5.61913">
        <ele>262.6</ele>
        <time>2020-03-04T08:43:11Z</time>
      </trkpt>
      <trkpt lat="46.87313" lon="5.6191">
        <ele>262.8</ele>
        <time>2020-03-04T08:43:12Z</time>
      </trkpt>
      <trkpt lat="46.87319" lon="5.61907">
        <ele>262.8</ele>
        <time>2020-03-04T08:43:13Z</time>
      </trkpt>
      <trkpt lat="46.87325" lon="5.61904">
        <ele>262.8</ele>
        <time>2020-03-04T08:43:14Z</time>
      </trkpt>
      <trkpt lat="46.87331" lon="5.61902">
        <ele>262.8</ele>
        <time>2020-03-04T08:43:15Z</time>
      </trkpt>
      <trkpt lat="46.87337" lon="5.619">
        <ele>262.8</ele>
        <time>2020-03-04T08:43:16Z</time>
      </trkpt>
      <trkpt lat="46.87343" lon="5.61897">
        <ele>263</ele>
        <time>2020-03-04T08:43:17Z</time>
      </trkpt>
      <trkpt lat="46.87349" lon="5.61894">
        <ele>263</ele>
        <time>2020-03-04T08:43:18Z</time>
      </trkpt>
      <trkpt lat="46.87355" lon="5.61892">
        <ele>263</ele>
        <time>2020-03-04T08:43:19Z</time>
      </trkpt>
      <trkpt lat="46.87361" lon="5.61889">
        <ele>263</ele>
        <time>2020-03-04T08:43:20Z</time>
      </trkpt>
      <trkpt lat="46.87368" lon="5.61886">
        <ele>263</ele>
        <time>2020-03-04T08:43:21Z</time>
      </trkpt>
      <trkpt lat="46.87374" lon="5.61884">
        <ele>263</ele>
        <time>2020-03-04T08:43:22Z</time>
      </trkpt>
      <trkpt lat="46.87381" lon="5.61881">
        <ele>263</ele>
        <time>2020-03-04T08:43:23Z</time>
      </trkpt>
      <trkpt lat="46.87388" lon="5.61878">
        <ele>263</ele>
        <time>2020-03-04T08:43:24Z</time>
      </trkpt>
      <trkpt lat="46.87394" lon="5.61875">
        <ele>263</ele>
        <time>2020-03-04T08:43:25Z</time>
      </trkpt>
      <trkpt lat="46.87401" lon="5.61871">
        <ele>263</ele>
        <time>2020-03-04T08:43:26Z</time>
      </trkpt>
      <trkpt lat="46.87407" lon="5.61868">
        <ele>263</ele>
        <time>2020-03-04T08:43:27Z</time>
      </trkpt>
      <trkpt lat="46.87414" lon="5.61864">
        <ele>263</ele>
        <time>2020-03-04T08:43:28Z</time>
      </trkpt>
      <trkpt lat="46.8742" lon="5.6186">
        <ele>263</ele>
        <time>2020-03-04T08:43:29Z</time>
      </trkpt>
      <trkpt lat="46.87425" lon="5.61855">
        <ele>262.8</ele>
        <time>2020-03-04T08:43:30Z</time>
      </trkpt>
      <trkpt lat="46.87431" lon="5.6185">
        <ele>262.8</ele>
        <time>2020-03-04T08:43:31Z</time>
      </trkpt>
      <trkpt lat="46.87437" lon="5.61845">
        <ele>262.6</ele>
        <time>2020-03-04T08:43:32Z</time>
      </trkpt>
      <trkpt lat="46.87442" lon="5.61839">
        <ele>262.6</ele>
        <time>2020-03-04T08:43:33Z</time>
      </trkpt>
      <trkpt lat="46.87448" lon="5.61833">
        <ele>262.2</ele>
        <time>2020-03-04T08:43:34Z</time>
      </trkpt>
      <trkpt lat="46.87453" lon="5.61827">
        <ele>262.2</ele>
        <time>2020-03-04T08:43:35Z</time>
      </trkpt>
      <trkpt lat="46.87458" lon="5.61821">
        <ele>262</ele>
        <time>2020-03-04T08:43:36Z</time>
      </trkpt>
      <trkpt lat="46.87462" lon="5.61816">
        <ele>262</ele>
        <time>2020-03-04T08:43:37Z</time>
      </trkpt>
      <trkpt lat="46.87466" lon="5.61811">
        <ele>262</ele>
        <time>2020-03-04T08:43:38Z</time>
      </trkpt>
      <trkpt lat="46.8747" lon="5.61806">
        <ele>261.6</ele>
        <time>2020-03-04T08:43:39Z</time>
      </trkpt>
      <trkpt lat="46.87473" lon="5.61801">
        <ele>261.6</ele>
        <time>2020-03-04T08:43:40Z</time>
      </trkpt>
      <trkpt lat="46.87475" lon="5.61797">
        <ele>261.4</ele>
        <time>2020-03-04T08:43:41Z</time>
      </trkpt>
      <trkpt lat="46.87477" lon="5.61793">
        <ele>261.4</ele>
        <time>2020-03-04T08:43:42Z</time>
      </trkpt>
      <trkpt lat="46.87479" lon="5.61788">
        <ele>261.4</ele>
        <time>2020-03-04T08:43:43Z</time>
      </trkpt>
      <trkpt lat="46.87479" lon="5.61784">
        <ele>261</ele>
        <time>2020-03-04T08:43:44Z</time>
      </trkpt>
      <trkpt lat="46.87478" lon="5.61779">
        <ele>260.8</ele>
        <time>2020-03-04T08:43:45Z</time>
      </trkpt>
      <trkpt lat="46.87476" lon="5.61775">
        <ele>260.8</ele>
        <time>2020-03-04T08:43:46Z</time>
      </trkpt>
      <trkpt lat="46.87472" lon="5.61771">
        <ele>260.6</ele>
        <time>2020-03-04T08:43:47Z</time>
      </trkpt>
      <trkpt lat="46.87467" lon="5.61768">
        <ele>260.6</ele>
        <time>2020-03-04T08:43:48Z</time>
      </trkpt>
      <trkpt lat="46.87463" lon="5.61764">
        <ele>260.2</ele>
        <time>2020-03-04T08:43:49Z</time>
      </trkpt>
      <trkpt lat="46.87458" lon="5.6176">
        <ele>260.2</ele>
        <time>2020-03-04T08:43:50Z</time>
      </trkpt>
      <trkpt lat="46.87453" lon="5.61755">
        <ele>260</ele>
        <time>2020-03-04T08:43:51Z</time>
      </trkpt>
      <trkpt lat="46.87448" lon="5.6175">
        <ele>260</ele>
        <time>2020-03-04T08:43:52Z</time>
      </trkpt>
      <trkpt lat="46.87442" lon="5.61745">
        <ele>259.6</ele>
        <time>2020-03-04T08:43:53Z</time>
      </trkpt>
      <trkpt lat="46.87437" lon="5.6174">
        <ele>259.6</ele>
        <time>2020-03-04T08:43:54Z</time>
      </trkpt>
      <trkpt lat="46.87431" lon="5.61734">
        <ele>259.4</ele>
        <time>2020-03-04T08:43:55Z</time>
      </trkpt>
      <trkpt lat="46.87426" lon="5.61727">
        <ele>259.4</ele>
        <time>2020-03-04T08:43:56Z</time>
      </trkpt>
      <trkpt lat="46.8742" lon="5.6172">
        <ele>259</ele>
        <time>2020-03-04T08:43:57Z</time>
      </trkpt>
      <trkpt lat="46.87414" lon="5.61713">
        <ele>259</ele>
        <time>2020-03-04T08:43:58Z</time>
      </trkpt>
      <trkpt lat="46.87409" lon="5.61705">
        <ele>258.6</ele>
        <time>2020-03-04T08:43:59Z</time>
      </trkpt>
      <trkpt lat="46.87403" lon="5.61698">
        <ele>258.6</ele>
        <time>2020-03-04T08:44:00Z</time>
      </trkpt>
      <trkpt lat="46.87398" lon="5.61689">
        <ele>258.4</ele>
        <time>2020-03-04T08:44:01Z</time>
      </trkpt>
      <trkpt lat="46.87393" lon="5.6168">
        <ele>258</ele>
        <time>2020-03-04T08:44:02Z</time>
      </trkpt>
      <trkpt lat="46.87387" lon="5.61672">
        <ele>257.8</ele>
        <time>2020-03-04T08:44:03Z</time>
      </trkpt>
      <trkpt lat="46.87381" lon="5.61663">
        <ele>257.6</ele>
        <time>2020-03-04T08:44:04Z</time>
      </trkpt>
      <trkpt lat="46.87376" lon="5.61654">
        <ele>257</ele>
        <time>2020-03-04T08:44:05Z</time>
      </trkpt>
      <trkpt lat="46.8737" lon="5.61646">
        <ele>256.6</ele>
        <time>2020-03-04T08:44:06Z</time>
      </trkpt>
      <trkpt lat="46.87363" lon="5.61637">
        <ele>256.6</ele>
        <time>2020-03-04T08:44:07Z</time>
      </trkpt>
      <trkpt lat="46.87356" lon="5.61629">
        <ele>256.4</ele>
        <time>2020-03-04T08:44:08Z</time>
      </trkpt>
      <trkpt lat="46.87349" lon="5.61621">
        <ele>256</ele>
        <time>2020-03-04T08:44:09Z</time>
      </trkpt>
      <trkpt lat="46.87343" lon="5.61614">
        <ele>255.4</ele>
        <time>2020-03-04T08:44:10Z</time>
      </trkpt>
      <trkpt lat="46.87335" lon="5.61606">
        <ele>255</ele>
        <time>2020-03-04T08:44:11Z</time>
      </trkpt>
      <trkpt lat="46.87328" lon="5.61599">
        <ele>254.6</ele>
        <time>2020-03-04T08:44:12Z</time>
      </trkpt>
      <trkpt lat="46.8732" lon="5.61592">
        <ele>254.2</ele>
        <time>2020-03-04T08:44:13Z</time>
      </trkpt>
      <trkpt lat="46.87312" lon="5.61586">
        <ele>253.8</ele>
        <time>2020-03-04T08:44:14Z</time>
      </trkpt>
      <trkpt lat="46.87304" lon="5.6158">
        <ele>253.6</ele>
        <time>2020-03-04T08:44:15Z</time>
      </trkpt>
      <trkpt lat="46.87297" lon="5.61574">
        <ele>253.4</ele>
        <time>2020-03-04T08:44:16Z</time>
      </trkpt>
      <trkpt lat="46.87289" lon="5.61567">
        <ele>253</ele>
        <time>2020-03-04T08:44:17Z</time>
      </trkpt>
      <trkpt lat="46.87281" lon="5.61561">
        <ele>253</ele>
        <time>2020-03-04T08:44:18Z</time>
      </trkpt>
      <trkpt lat="46.87274" lon="5.61555">
        <ele>252.8</ele>
        <time>2020-03-04T08:44:19Z</time>
      </trkpt>
      <trkpt lat="46.87267" lon="5.61549">
        <ele>252.6</ele>
        <time>2020-03-04T08:44:20Z</time>
      </trkpt>
      <trkpt lat="46.8726" lon="5.61543">
        <ele>252.6</ele>
        <time>2020-03-04T08:44:21Z</time>
      </trkpt>
      <trkpt lat="46.87253" lon="5.61536">
        <ele>252.6</ele>
        <time>2020-03-04T08:44:22Z</time>
      </trkpt>
      <trkpt lat="46.87246" lon="5.6153">
        <ele>252.6</ele>
        <time>2020-03-04T08:44:23Z</time>
      </trkpt>
      <trkpt lat="46.8724" lon="5.61523">
        <ele>252.6</ele>
        <time>2020-03-04T08:44:24Z</time>
      </trkpt>
      <trkpt lat="46.87233" lon="5.61517">
        <ele>252.6</ele>
        <time>2020-03-04T08:44:25Z</time>
      </trkpt>
      <trkpt lat="46.87227" lon="5.61511">
        <ele>252.6</ele>
        <time>2020-03-04T08:44:26Z</time>
      </trkpt>
      <trkpt lat="46.87221" lon="5.61504">
        <ele>252.6</ele>
        <time>2020-03-04T08:44:27Z</time>
      </trkpt>
      <trkpt lat="46.87215" lon="5.61498">
        <ele>252.6</ele>
        <time>2020-03-04T08:44:28Z</time>
      </trkpt>
      <trkpt lat="46.8721" lon="5.61492">
        <ele>252.6</ele>
        <time>2020-03-04T08:44:29Z</time>
      </trkpt>
      <trkpt lat="46.87204" lon="5.61485">
        <ele>252.6</ele>
        <time>2020-03-04T08:44:30Z</time>
      </trkpt>
      <trkpt lat="46.87198" lon="5.61479">
        <ele>252.6</ele>
        <time>2020-03-04T08:44:31Z</time>
      </trkpt>
      <trkpt lat="46.87193" lon="5.61472">
        <ele>253</ele>
        <time>2020-03-04T08:44:32Z</time>
      </trkpt>
      <trkpt lat="46.87188" lon="5.61466">
        <ele>253</ele>
        <time>2020-03-04T08:44:33Z</time>
      </trkpt>
      <trkpt lat="46.87183" lon="5.61459">
        <ele>253.2</ele>
        <time>2020-03-04T08:44:34Z</time>
      </trkpt>
      <trkpt lat="46.87178" lon="5.61453">
        <ele>253.2</ele>
        <time>2020-03-04T08:44:35Z</time>
      </trkpt>
      <trkpt lat="46.87173" lon="5.61447">
        <ele>253.4</ele>
        <time>2020-03-04T08:44:36Z</time>
      </trkpt>
      <trkpt lat="46.87168" lon="5.61441">
        <ele>253.4</ele>
        <time>2020-03-04T08:44:37Z</time>
      </trkpt>
      <trkpt lat="46.87163" lon="5.61436">
        <ele>253.4</ele>
        <time>2020-03-04T08:44:38Z</time>
      </trkpt>
      <trkpt lat="46.87158" lon="5.6143">
        <ele>253.8</ele>
        <time>2020-03-04T08:44:39Z</time>
      </trkpt>
      <trkpt lat="46.87154" lon="5.61424">
        <ele>253.8</ele>
        <time>2020-03-04T08:44:40Z</time>
      </trkpt>
      <trkpt lat="46.87149" lon="5.61418">
        <ele>253.8</ele>
        <time>2020-03-04T08:44:41Z</time>
      </trkpt>
      <trkpt lat="46.87145" lon="5.61413">
        <ele>254</ele>
        <time>2020-03-04T08:44:42Z</time>
      </trkpt>
      <trkpt lat="46.8714" lon="5.61408">
        <ele>254</ele>
        <time>2020-03-04T08:44:43Z</time>
      </trkpt>
      <trkpt lat="46.87136" lon="5.61403">
        <ele>254.2</ele>
        <time>2020-03-04T08:44:44Z</time>
      </trkpt>
      <trkpt lat="46.87131" lon="5.61397">
        <ele>254.2</ele>
        <time>2020-03-04T08:44:45Z</time>
      </trkpt>
      <trkpt lat="46.87127" lon="5.61392">
        <ele>254.6</ele>
        <time>2020-03-04T08:44:46Z</time>
      </trkpt>
      <trkpt lat="46.87123" lon="5.61387">
        <ele>254.6</ele>
        <time>2020-03-04T08:44:47Z</time>
      </trkpt>
      <trkpt lat="46.87119" lon="5.61382">
        <ele>254.8</ele>
        <time>2020-03-04T08:44:48Z</time>
      </trkpt>
      <trkpt lat="46.87115" lon="5.61377">
        <ele>254.8</ele>
        <time>2020-03-04T08:44:49Z</time>
      </trkpt>
      <trkpt lat="46.8711" lon="5.61372">
        <ele>255</ele>
        <time>2020-03-04T08:44:50Z</time>
      </trkpt>
      <trkpt lat="46.87106" lon="5.61367">
        <ele>255</ele>
        <time>2020-03-04T08:44:51Z</time>
      </trkpt>
      <trkpt lat="46.87102" lon="5.61363">
        <ele>255</ele>
        <time>2020-03-04T08:44:52Z</time>
      </trkpt>
      <trkpt lat="46.87098" lon="5.61359">
        <ele>255</ele>
        <time>2020-03-04T08:44:53Z</time>
      </trkpt>
      <trkpt lat="46.87093" lon="5.61355">
        <ele>255.2</ele>
        <time>2020-03-04T08:44:54Z</time>
      </trkpt>
      <trkpt lat="46.87089" lon="5.61351">
        <ele>255.2</ele>
        <time>2020-03-04T08:44:55Z</time>
      </trkpt>
      <trkpt lat="46.87084" lon="5.61347">
        <ele>255.2</ele>
        <time>2020-03-04T08:44:56Z</time>
      </trkpt>
      <trkpt lat="46.8708" lon="5.61343">
        <ele>255.2</ele>
        <time>2020-03-04T08:44:57Z</time>
      </trkpt>
      <trkpt lat="46.87075" lon="5.61339">
        <ele>255.2</ele>
        <time>2020-03-04T08:44:58Z</time>
      </trkpt>
      <trkpt lat="46.8707" lon="5.61336">
        <ele>255.2</ele>
        <time>2020-03-04T08:44:59Z</time>
      </trkpt>
      <trkpt lat="46.87065" lon="5.61332">
        <ele>255.4</ele>
        <time>2020-03-04T08:45:00Z</time>
      </trkpt>
      <trkpt lat="46.8706" lon="5.61328">
        <ele>255.4</ele>
        <time>2020-03-04T08:45:01Z</time>
      </trkpt>
      <trkpt lat="46.87055" lon="5.61325">
        <ele>255.4</ele>
        <time>2020-03-04T08:45:02Z</time>
      </trkpt>
      <trkpt lat="46.8705" lon="5.61322">
        <ele>255.4</ele>
        <time>2020-03-04T08:45:03Z</time>
      </trkpt>
      <trkpt lat="46.87046" lon="5.61319">
        <ele>255.4</ele>
        <time>2020-03-04T08:45:04Z</time>
      </trkpt>
      <trkpt lat="46.87041" lon="5.61315">
        <ele>255.4</ele>
        <time>2020-03-04T08:45:05Z</time>
      </trkpt>
      <trkpt lat="46.87036" lon="5.61313">
        <ele>255.4</ele>
        <time>2020-03-04T08:45:06Z</time>
      </trkpt>
      <trkpt lat="46.87031" lon="5.6131">
        <ele>255.2</ele>
        <time>2020-03-04T08:45:07Z</time>
      </trkpt>
      <trkpt lat="46.87026" lon="5.61307">
        <ele>255.2</ele>
        <time>2020-03-04T08:45:08Z</time>
      </trkpt>
      <trkpt lat="46.87023" lon="5.61303">
        <ele>254.8</ele>
        <time>2020-03-04T08:45:09Z</time>
      </trkpt>
      <trkpt lat="46.8702" lon="5.61297">
        <ele>254.8</ele>
        <time>2020-03-04T08:45:10Z</time>
      </trkpt>
      <trkpt lat="46.87018" lon="5.61291">
        <ele>254.6</ele>
        <time>2020-03-04T08:45:11Z</time>
      </trkpt>
      <trkpt lat="46.87018" lon="5.61284">
        <ele>254.6</ele>
        <time>2020-03-04T08:45:12Z</time>
      </trkpt>
      <trkpt lat="46.87019" lon="5.61276">
        <ele>254.4</ele>
        <time>2020-03-04T08:45:13Z</time>
      </trkpt>
      <trkpt lat="46.8702" lon="5.61268">
        <ele>254.4</ele>
        <time>2020-03-04T08:45:14Z</time>
      </trkpt>
      <trkpt lat="46.87021" lon="5.6126">
        <ele>254.4</ele>
        <time>2020-03-04T08:45:15Z</time>
      </trkpt>
      <trkpt lat="46.87022" lon="5.61251">
        <ele>254.2</ele>
        <time>2020-03-04T08:45:16Z</time>
      </trkpt>
      <trkpt lat="46.87023" lon="5.61243">
        <ele>254.2</ele>
        <time>2020-03-04T08:45:17Z</time>
      </trkpt>
      <trkpt lat="46.87024" lon="5.61235">
        <ele>254.2</ele>
        <time>2020-03-04T08:45:18Z</time>
      </trkpt>
      <trkpt lat="46.87025" lon="5.61226">
        <ele>254.2</ele>
        <time>2020-03-04T08:45:19Z</time>
      </trkpt>
      <trkpt lat="46.87026" lon="5.61217">
        <ele>254.4</ele>
        <time>2020-03-04T08:45:20Z</time>
      </trkpt>
      <trkpt lat="46.87026" lon="5.61209">
        <ele>254.4</ele>
        <time>2020-03-04T08:45:21Z</time>
      </trkpt>
      <trkpt lat="46.87027" lon="5.612">
        <ele>254.4</ele>
        <time>2020-03-04T08:45:22Z</time>
      </trkpt>
      <trkpt lat="46.87027" lon="5.61191">
        <ele>254.4</ele>
        <time>2020-03-04T08:45:23Z</time>
      </trkpt>
      <trkpt lat="46.87028" lon="5.61183">
        <ele>254.4</ele>
        <time>2020-03-04T08:45:24Z</time>
      </trkpt>
      <trkpt lat="46.87029" lon="5.61174">
        <ele>254.4</ele>
        <time>2020-03-04T08:45:25Z</time>
      </trkpt>
      <trkpt lat="46.87029" lon="5.61165">
        <ele>254.6</ele>
        <time>2020-03-04T08:45:26Z</time>
      </trkpt>
      <trkpt lat="46.87029" lon="5.61156">
        <ele>254.6</ele>
        <time>2020-03-04T08:45:27Z</time>
      </trkpt>
      <trkpt lat="46.8703" lon="5.61147">
        <ele>254.6</ele>
        <time>2020-03-04T08:45:28Z</time>
      </trkpt>
      <trkpt lat="46.8703" lon="5.61138">
        <ele>254.8</ele>
        <time>2020-03-04T08:45:29Z</time>
      </trkpt>
      <trkpt lat="46.8703" lon="5.61129">
        <ele>254.8</ele>
        <time>2020-03-04T08:45:30Z</time>
      </trkpt>
      <trkpt lat="46.8703" lon="5.6112">
        <ele>254.8</ele>
        <time>2020-03-04T08:45:31Z</time>
      </trkpt>
      <trkpt lat="46.8703" lon="5.61111">
        <ele>254.8</ele>
        <time>2020-03-04T08:45:32Z</time>
      </trkpt>
      <trkpt lat="46.87029" lon="5.61101">
        <ele>255</ele>
        <time>2020-03-04T08:45:33Z</time>
      </trkpt>
      <trkpt lat="46.87029" lon="5.61092">
        <ele>255</ele>
        <time>2020-03-04T08:45:34Z</time>
      </trkpt>
      <trkpt lat="46.87028" lon="5.61083">
        <ele>255</ele>
        <time>2020-03-04T08:45:35Z</time>
      </trkpt>
      <trkpt lat="46.87028" lon="5.61074">
        <ele>255.4</ele>
        <time>2020-03-04T08:45:36Z</time>
      </trkpt>
      <trkpt lat="46.87027" lon="5.61065">
        <ele>255.4</ele>
        <time>2020-03-04T08:45:37Z</time>
      </trkpt>
      <trkpt lat="46.87026" lon="5.61056">
        <ele>255.6</ele>
        <time>2020-03-04T08:45:38Z</time>
      </trkpt>
      <trkpt lat="46.87025" lon="5.61047">
        <ele>255.6</ele>
        <time>2020-03-04T08:45:39Z</time>
      </trkpt>
      <trkpt lat="46.87024" lon="5.61038">
        <ele>255.6</ele>
        <time>2020-03-04T08:45:40Z</time>
      </trkpt>
      <trkpt lat="46.87024" lon="5.61029">
        <ele>255.8</ele>
        <time>2020-03-04T08:45:41Z</time>
      </trkpt>
      <trkpt lat="46.87023" lon="5.61021">
        <ele>255.8</ele>
        <time>2020-03-04T08:45:42Z</time>
      </trkpt>
      <trkpt lat="46.87022" lon="5.61012">
        <ele>255.8</ele>
        <time>2020-03-04T08:45:43Z</time>
      </trkpt>
      <trkpt lat="46.87022" lon="5.61003">
        <ele>256.2</ele>
        <time>2020-03-04T08:45:44Z</time>
      </trkpt>
      <trkpt lat="46.87022" lon="5.60994">
        <ele>256.2</ele>
        <time>2020-03-04T08:45:45Z</time>
      </trkpt>
      <trkpt lat="46.87021" lon="5.60985">
        <ele>256.2</ele>
        <time>2020-03-04T08:45:46Z</time>
      </trkpt>
      <trkpt lat="46.8702" lon="5.60976">
        <ele>256.2</ele>
        <time>2020-03-04T08:45:47Z</time>
      </trkpt>
      <trkpt lat="46.8702" lon="5.60967">
        <ele>256.2</ele>
        <time>2020-03-04T08:45:48Z</time>
      </trkpt>
      <trkpt lat="46.87019" lon="5.60957">
        <ele>255.8</ele>
        <time>2020-03-04T08:45:49Z</time>
      </trkpt>
      <trkpt lat="46.87019" lon="5.60948">
        <ele>255.8</ele>
        <time>2020-03-04T08:45:50Z</time>
      </trkpt>
      <trkpt lat="46.87018" lon="5.60938">
        <ele>255.6</ele>
        <time>2020-03-04T08:45:51Z</time>
      </trkpt>
      <trkpt lat="46.87017" lon="5.60929">
        <ele>255.6</ele>
        <time>2020-03-04T08:45:52Z</time>
      </trkpt>
      <trkpt lat="46.87016" lon="5.60919">
        <ele>255.4</ele>
        <time>2020-03-04T08:45:53Z</time>
      </trkpt>
      <trkpt lat="46.87016" lon="5.6091">
        <ele>255.4</ele>
        <time>2020-03-04T08:45:54Z</time>
      </trkpt>
      <trkpt lat="46.87015" lon="5.609">
        <ele>255.4</ele>
        <time>2020-03-04T08:45:55Z</time>
      </trkpt>
      <trkpt lat="46.87015" lon="5.6089">
        <ele>255</ele>
        <time>2020-03-04T08:45:56Z</time>
      </trkpt>
      <trkpt lat="46.87014" lon="5.6088">
        <ele>254.8</ele>
        <time>2020-03-04T08:45:57Z</time>
      </trkpt>
      <trkpt lat="46.87014" lon="5.6087">
        <ele>254.6</ele>
        <time>2020-03-04T08:45:58Z</time>
      </trkpt>
      <trkpt lat="46.87013" lon="5.6086">
        <ele>254.4</ele>
        <time>2020-03-04T08:45:59Z</time>
      </trkpt>
      <trkpt lat="46.87012" lon="5.60849">
        <ele>254.2</ele>
        <time>2020-03-04T08:46:00Z</time>
      </trkpt>
      <trkpt lat="46.87011" lon="5.60838">
        <ele>253.8</ele>
        <time>2020-03-04T08:46:01Z</time>
      </trkpt>
      <trkpt lat="46.8701" lon="5.60827">
        <ele>253.6</ele>
        <time>2020-03-04T08:46:02Z</time>
      </trkpt>
      <trkpt lat="46.87009" lon="5.60815">
        <ele>253.2</ele>
        <time>2020-03-04T08:46:03Z</time>
      </trkpt>
      <trkpt lat="46.87008" lon="5.60803">
        <ele>253</ele>
        <time>2020-03-04T08:46:04Z</time>
      </trkpt>
      <trkpt lat="46.87008" lon="5.60791">
        <ele>252.6</ele>
        <time>2020-03-04T08:46:05Z</time>
      </trkpt>
      <trkpt lat="46.87007" lon="5.60779">
        <ele>252.2</ele>
        <time>2020-03-04T08:46:06Z</time>
      </trkpt>
      <trkpt lat="46.87006" lon="5.60766">
        <ele>252</ele>
        <time>2020-03-04T08:46:07Z</time>
      </trkpt>
      <trkpt lat="46.87006" lon="5.60754">
        <ele>251.6</ele>
        <time>2020-03-04T08:46:08Z</time>
      </trkpt>
      <trkpt lat="46.87005" lon="5.60741">
        <ele>251.4</ele>
        <time>2020-03-04T08:46:09Z</time>
      </trkpt>
      <trkpt lat="46.87004" lon="5.60728">
        <ele>251</ele>
        <time>2020-03-04T08:46:10Z</time>
      </trkpt>
      <trkpt lat="46.87003" lon="5.60715">
        <ele>250.8</ele>
        <time>2020-03-04T08:46:11Z</time>
      </trkpt>
      <trkpt lat="46.87002" lon="5.60701">
        <ele>250.4</ele>
        <time>2020-03-04T08:46:12Z</time>
      </trkpt>
      <trkpt lat="46.87001" lon="5.60687">
        <ele>250.2</ele>
        <time>2020-03-04T08:46:13Z</time>
      </trkpt>
      <trkpt lat="46.87001" lon="5.60673">
        <ele>249.8</ele>
        <time>2020-03-04T08:46:14Z</time>
      </trkpt>
      <trkpt lat="46.87" lon="5.60658">
        <ele>249.4</ele>
        <time>2020-03-04T08:46:15Z</time>
      </trkpt>
      <trkpt lat="46.86999" lon="5.60644">
        <ele>248.8</ele>
        <time>2020-03-04T08:46:16Z</time>
      </trkpt>
      <trkpt lat="46.86998" lon="5.6063">
        <ele>248.4</ele>
        <time>2020-03-04T08:46:17Z</time>
      </trkpt>
      <trkpt lat="46.86997" lon="5.60615">
        <ele>248</ele>
        <time>2020-03-04T08:46:18Z</time>
      </trkpt>
      <trkpt lat="46.86995" lon="5.60601">
        <ele>247.4</ele>
        <time>2020-03-04T08:46:19Z</time>
      </trkpt>
      <trkpt lat="46.86995" lon="5.60586">
        <ele>247</ele>
        <time>2020-03-04T08:46:20Z</time>
      </trkpt>
      <trkpt lat="46.86994" lon="5.60571">
        <ele>246.4</ele>
        <time>2020-03-04T08:46:21Z</time>
      </trkpt>
      <trkpt lat="46.86993" lon="5.60555">
        <ele>245.8</ele>
        <time>2020-03-04T08:46:22Z</time>
      </trkpt>
      <trkpt lat="46.86993" lon="5.60539">
        <ele>245.2</ele>
        <time>2020-03-04T08:46:23Z</time>
      </trkpt>
      <trkpt lat="46.86992" lon="5.60524">
        <ele>244.6</ele>
        <time>2020-03-04T08:46:24Z</time>
      </trkpt>
      <trkpt lat="46.8699" lon="5.60509">
        <ele>243.8</ele>
        <time>2020-03-04T08:46:25Z</time>
      </trkpt>
      <trkpt lat="46.86988" lon="5.60494">
        <ele>243</ele>
        <time>2020-03-04T08:46:26Z</time>
      </trkpt>
      <trkpt lat="46.86987" lon="5.60478">
        <ele>242.2</ele>
        <time>2020-03-04T08:46:27Z</time>
      </trkpt>
      <trkpt lat="46.86985" lon="5.60462">
        <ele>241.6</ele>
        <time>2020-03-04T08:46:28Z</time>
      </trkpt>
      <trkpt lat="46.86984" lon="5.60445">
        <ele>240.6</ele>
        <time>2020-03-04T08:46:29Z</time>
      </trkpt>
      <trkpt lat="46.86984" lon="5.60427">
        <ele>240</ele>
        <time>2020-03-04T08:46:30Z</time>
      </trkpt>
      <trkpt lat="46.86983" lon="5.6041">
        <ele>239.2</ele>
        <time>2020-03-04T08:46:31Z</time>
      </trkpt>
      <trkpt lat="46.86982" lon="5.60395">
        <ele>238.6</ele>
        <time>2020-03-04T08:46:32Z</time>
      </trkpt>
      <trkpt lat="46.86981" lon="5.60382">
        <ele>238</ele>
        <time>2020-03-04T08:46:33Z</time>
      </trkpt>
      <trkpt lat="46.8698" lon="5.60368">
        <ele>237.4</ele>
        <time>2020-03-04T08:46:34Z</time>
      </trkpt>
      <trkpt lat="46.86978" lon="5.60356">
        <ele>236.8</ele>
        <time>2020-03-04T08:46:35Z</time>
      </trkpt>
      <trkpt lat="46.86977" lon="5.60344">
        <ele>236.4</ele>
        <time>2020-03-04T08:46:36Z</time>
      </trkpt>
      <trkpt lat="46.86976" lon="5.60333">
        <ele>235.8</ele>
        <time>2020-03-04T08:46:37Z</time>
      </trkpt>
      <trkpt lat="46.86974" lon="5.60323">
        <ele>235.4</ele>
        <time>2020-03-04T08:46:38Z</time>
      </trkpt>
      <trkpt lat="46.86971" lon="5.60314">
        <ele>235</ele>
        <time>2020-03-04T08:46:39Z</time>
      </trkpt>
      <trkpt lat="46.86966" lon="5.60307">
        <ele>234.8</ele>
        <time>2020-03-04T08:46:40Z</time>
      </trkpt>
      <trkpt lat="46.8696" lon="5.60302">
        <ele>234.4</ele>
        <time>2020-03-04T08:46:41Z</time>
      </trkpt>
      <trkpt lat="46.86954" lon="5.60298">
        <ele>234.4</ele>
        <time>2020-03-04T08:46:42Z</time>
      </trkpt>
      <trkpt lat="46.86948" lon="5.60295">
        <ele>234.2</ele>
        <time>2020-03-04T08:46:43Z</time>
      </trkpt>
      <trkpt lat="46.86941" lon="5.60292">
        <ele>234.2</ele>
        <time>2020-03-04T08:46:44Z</time>
      </trkpt>
      <trkpt lat="46.86935" lon="5.60288">
        <ele>234.2</ele>
        <time>2020-03-04T08:46:45Z</time>
      </trkpt>
      <trkpt lat="46.8693" lon="5.60284">
        <ele>234.2</ele>
        <time>2020-03-04T08:46:46Z</time>
      </trkpt>
      <trkpt lat="46.86925" lon="5.60278">
        <ele>234.4</ele>
        <time>2020-03-04T08:46:47Z</time>
      </trkpt>
      <trkpt lat="46.8692" lon="5.60273">
        <ele>234.4</ele>
        <time>2020-03-04T08:46:48Z</time>
      </trkpt>
      <trkpt lat="46.86916" lon="5.60268">
        <ele>234.8</ele>
        <time>2020-03-04T08:46:49Z</time>
      </trkpt>
      <trkpt lat="46.86911" lon="5.60262">
        <ele>235</ele>
        <time>2020-03-04T08:46:50Z</time>
      </trkpt>
      <trkpt lat="46.86907" lon="5.60256">
        <ele>235</ele>
        <time>2020-03-04T08:46:51Z</time>
      </trkpt>
      <trkpt lat="46.86903" lon="5.60251">
        <ele>235</ele>
        <time>2020-03-04T08:46:52Z</time>
      </trkpt>
      <trkpt lat="46.86898" lon="5.60245">
        <ele>235</ele>
        <time>2020-03-04T08:46:53Z</time>
      </trkpt>
      <trkpt lat="46.86893" lon="5.60241">
        <ele>235</ele>
        <time>2020-03-04T08:46:54Z</time>
      </trkpt>
      <trkpt lat="46.86887" lon="5.60236">
        <ele>235</ele>
        <time>2020-03-04T08:46:55Z</time>
      </trkpt>
      <trkpt lat="46.86881" lon="5.60233">
        <ele>235</ele>
        <time>2020-03-04T08:46:56Z</time>
      </trkpt>
      <trkpt lat="46.86875" lon="5.6023">
        <ele>235</ele>
        <time>2020-03-04T08:46:57Z</time>
      </trkpt>
      <trkpt lat="46.86869" lon="5.60227">
        <ele>235</ele>
        <time>2020-03-04T08:46:58Z</time>
      </trkpt>
      <trkpt lat="46.86862" lon="5.60224">
        <ele>234.8</ele>
        <time>2020-03-04T08:46:59Z</time>
      </trkpt>
      <trkpt lat="46.86857" lon="5.6022">
        <ele>234.8</ele>
        <time>2020-03-04T08:47:00Z</time>
      </trkpt>
      <trkpt lat="46.86851" lon="5.60216">
        <ele>234.8</ele>
        <time>2020-03-04T08:47:01Z</time>
      </trkpt>
      <trkpt lat="46.86845" lon="5.60212">
        <ele>234.8</ele>
        <time>2020-03-04T08:47:02Z</time>
      </trkpt>
      <trkpt lat="46.8684" lon="5.60209">
        <ele>234.6</ele>
        <time>2020-03-04T08:47:03Z</time>
      </trkpt>
      <trkpt lat="46.86834" lon="5.60205">
        <ele>234.6</ele>
        <time>2020-03-04T08:47:04Z</time>
      </trkpt>
      <trkpt lat="46.86829" lon="5.60202">
        <ele>234.6</ele>
        <time>2020-03-04T08:47:05Z</time>
      </trkpt>
      <trkpt lat="46.86823" lon="5.60198">
        <ele>234.6</ele>
        <time>2020-03-04T08:47:06Z</time>
      </trkpt>
      <trkpt lat="46.86818" lon="5.60194">
        <ele>234.8</ele>
        <time>2020-03-04T08:47:07Z</time>
      </trkpt>
      <trkpt lat="46.86813" lon="5.60191">
        <ele>234.8</ele>
        <time>2020-03-04T08:47:08Z</time>
      </trkpt>
      <trkpt lat="46.86808" lon="5.60187">
        <ele>234.8</ele>
        <time>2020-03-04T08:47:09Z</time>
      </trkpt>
      <trkpt lat="46.86803" lon="5.60184">
        <ele>234.8</ele>
        <time>2020-03-04T08:47:10Z</time>
      </trkpt>
      <trkpt lat="46.86799" lon="5.60181">
        <ele>234.8</ele>
        <time>2020-03-04T08:47:11Z</time>
      </trkpt>
      <trkpt lat="46.86794" lon="5.60178">
        <ele>234.8</ele>
        <time>2020-03-04T08:47:12Z</time>
      </trkpt>
      <trkpt lat="46.8679" lon="5.60175">
        <ele>234.8</ele>
        <time>2020-03-04T08:47:13Z</time>
      </trkpt>
      <trkpt lat="46.86786" lon="5.60171">
        <ele>235.2</ele>
        <time>2020-03-04T08:47:14Z</time>
      </trkpt>
      <trkpt lat="46.86782" lon="5.60168">
        <ele>235.2</ele>
        <time>2020-03-04T08:47:15Z</time>
      </trkpt>
      <trkpt lat="46.86778" lon="5.60164">
        <ele>235.4</ele>
        <time>2020-03-04T08:47:16Z</time>
      </trkpt>
      <trkpt lat="46.86775" lon="5.6016">
        <ele>235.4</ele>
        <time>2020-03-04T08:47:17Z</time>
      </trkpt>
      <trkpt lat="46.86771" lon="5.60156">
        <ele>235.8</ele>
        <time>2020-03-04T08:47:18Z</time>
      </trkpt>
      <trkpt lat="46.86768" lon="5.60152">
        <ele>235.8</ele>
        <time>2020-03-04T08:47:19Z</time>
      </trkpt>
      <trkpt lat="46.86765" lon="5.60148">
        <ele>236.2</ele>
        <time>2020-03-04T08:47:20Z</time>
      </trkpt>
      <trkpt lat="46.86762" lon="5.60144">
        <ele>236.4</ele>
        <time>2020-03-04T08:47:21Z</time>
      </trkpt>
      <trkpt lat="46.86759" lon="5.6014">
        <ele>236.4</ele>
        <time>2020-03-04T08:47:22Z</time>
      </trkpt>
      <trkpt lat="46.86756" lon="5.60136">
        <ele>236.8</ele>
        <time>2020-03-04T08:47:23Z</time>
      </trkpt>
      <trkpt lat="46.86754" lon="5.60132">
        <ele>237</ele>
        <time>2020-03-04T08:47:24Z</time>
      </trkpt>
      <trkpt lat="46.86751" lon="5.60128">
        <ele>237.2</ele>
        <time>2020-03-04T08:47:25Z</time>
      </trkpt>
      <trkpt lat="46.86749" lon="5.60123">
        <ele>237.4</ele>
        <time>2020-03-04T08:47:26Z</time>
      </trkpt>
      <trkpt lat="46.86747" lon="5.60119">
        <ele>237.4</ele>
        <time>2020-03-04T08:47:27Z</time>
      </trkpt>
      <trkpt lat="46.86745" lon="5.60114">
        <ele>237.8</ele>
        <time>2020-03-04T08:47:28Z</time>
      </trkpt>
      <trkpt lat="46.86743" lon="5.60109">
        <ele>238.2</ele>
        <time>2020-03-04T08:47:29Z</time>
      </trkpt>
      <trkpt lat="46.86741" lon="5.60105">
        <ele>238.4</ele>
        <time>2020-03-04T08:47:30Z</time>
      </trkpt>
      <trkpt lat="46.86739" lon="5.60102">
        <ele>238.6</ele>
        <time>2020-03-04T08:47:31Z</time>
      </trkpt>
      <trkpt lat="46.86737" lon="5.60098">
        <ele>239</ele>
        <time>2020-03-04T08:47:32Z</time>
      </trkpt>
      <trkpt lat="46.86736" lon="5.60095">
        <ele>239.2</ele>
        <time>2020-03-04T08:47:33Z</time>
      </trkpt>
      <trkpt lat="46.86734" lon="5.60092">
        <ele>239.4</ele>
        <time>2020-03-04T08:47:34Z</time>
      </trkpt>
      <trkpt lat="46.86733" lon="5.60088">
        <ele>239.4</ele>
        <time>2020-03-04T08:47:35Z</time>
      </trkpt>
      <trkpt lat="46.86731" lon="5.60084">
        <ele>239.8</ele>
        <time>2020-03-04T08:47:36Z</time>
      </trkpt>
      <trkpt lat="46.86729" lon="5.60081">
        <ele>240.2</ele>
        <time>2020-03-04T08:47:37Z</time>
      </trkpt>
      <trkpt lat="46.86726" lon="5.60078">
        <ele>240.4</ele>
        <time>2020-03-04T08:47:38Z</time>
      </trkpt>
      <trkpt lat="46.86723" lon="5.60076">
        <ele>240.6</ele>
        <time>2020-03-04T08:47:39Z</time>
      </trkpt>
      <trkpt lat="46.8672" lon="5.60074">
        <ele>240.8</ele>
        <time>2020-03-04T08:47:40Z</time>
      </trkpt>
      <trkpt lat="46.86716" lon="5.60073">
        <ele>241.2</ele>
        <time>2020-03-04T08:47:41Z</time>
      </trkpt>
      <trkpt lat="46.86713" lon="5.60074">
        <ele>241.6</ele>
        <time>2020-03-04T08:47:42Z</time>
      </trkpt>
      <trkpt lat="46.8671" lon="5.60075">
        <ele>241.8</ele>
        <time>2020-03-04T08:47:43Z</time>
      </trkpt>
      <trkpt lat="46.86707" lon="5.60076">
        <ele>242.2</ele>
        <time>2020-03-04T08:47:44Z</time>
      </trkpt>
      <trkpt lat="46.86704" lon="5.60078">
        <ele>242.4</ele>
        <time>2020-03-04T08:47:45Z</time>
      </trkpt>
      <trkpt lat="46.86701" lon="5.6008">
        <ele>242.4</ele>
        <time>2020-03-04T08:47:46Z</time>
      </trkpt>
      <trkpt lat="46.86698" lon="5.60082">
        <ele>242.8</ele>
        <time>2020-03-04T08:47:47Z</time>
      </trkpt>
      <trkpt lat="46.86695" lon="5.60085">
        <ele>242.8</ele>
        <time>2020-03-04T08:47:48Z</time>
      </trkpt>
      <trkpt lat="46.86693" lon="5.60087">
        <ele>243</ele>
        <time>2020-03-04T08:47:49Z</time>
      </trkpt>
      <trkpt lat="46.8669" lon="5.6009">
        <ele>243</ele>
        <time>2020-03-04T08:47:50Z</time>
      </trkpt>
      <trkpt lat="46.86687" lon="5.60092">
        <ele>243.2</ele>
        <time>2020-03-04T08:47:51Z</time>
      </trkpt>
      <trkpt lat="46.86684" lon="5.60095">
        <ele>243.2</ele>
        <time>2020-03-04T08:47:52Z</time>
      </trkpt>
      <trkpt lat="46.86681" lon="5.60097">
        <ele>243.2</ele>
        <time>2020-03-04T08:47:53Z</time>
      </trkpt>
      <trkpt lat="46.86679" lon="5.60099">
        <ele>243.6</ele>
        <time>2020-03-04T08:47:54Z</time>
      </trkpt>
      <trkpt lat="46.86676" lon="5.60101">
        <ele>243.6</ele>
        <time>2020-03-04T08:47:55Z</time>
      </trkpt>
      <trkpt lat="46.86673" lon="5.60103">
        <ele>243.8</ele>
        <time>2020-03-04T08:47:56Z</time>
      </trkpt>
      <trkpt lat="46.8667" lon="5.60105">
        <ele>244</ele>
        <time>2020-03-04T08:47:57Z</time>
      </trkpt>
      <trkpt lat="46.86668" lon="5.60107">
        <ele>244</ele>
        <time>2020-03-04T08:47:58Z</time>
      </trkpt>
      <trkpt lat="46.86665" lon="5.6011">
        <ele>244.4</ele>
        <time>2020-03-04T08:47:59Z</time>
      </trkpt>
      <trkpt lat="46.86662" lon="5.60112">
        <ele>244.4</ele>
        <time>2020-03-04T08:48:00Z</time>
      </trkpt>
      <trkpt lat="46.86659" lon="5.60115">
        <ele>244.4</ele>
        <time>2020-03-04T08:48:01Z</time>
      </trkpt>
      <trkpt lat="46.86656" lon="5.60117">
        <ele>244.6</ele>
        <time>2020-03-04T08:48:02Z</time>
      </trkpt>
      <trkpt lat="46.86653" lon="5.6012">
        <ele>244.6</ele>
        <time>2020-03-04T08:48:03Z</time>
      </trkpt>
      <trkpt lat="46.8665" lon="5.60122">
        <ele>244.6</ele>
        <time>2020-03-04T08:48:04Z</time>
      </trkpt>
      <trkpt lat="46.86647" lon="5.60124">
        <ele>244.8</ele>
        <time>2020-03-04T08:48:05Z</time>
      </trkpt>
      <trkpt lat="46.86643" lon="5.60126">
        <ele>244.8</ele>
        <time>2020-03-04T08:48:06Z</time>
      </trkpt>
      <trkpt lat="46.8664" lon="5.60128">
        <ele>245.2</ele>
        <time>2020-03-04T08:48:07Z</time>
      </trkpt>
      <trkpt lat="46.86638" lon="5.60131">
        <ele>245.2</ele>
        <time>2020-03-04T08:48:08Z</time>
      </trkpt>
      <trkpt lat="46.86635" lon="5.60133">
        <ele>245.2</ele>
        <time>2020-03-04T08:48:09Z</time>
      </trkpt>
      <trkpt lat="46.86632" lon="5.60136">
        <ele>245.4</ele>
        <time>2020-03-04T08:48:10Z</time>
      </trkpt>
      <trkpt lat="46.86629" lon="5.60138">
        <ele>245.4</ele>
        <time>2020-03-04T08:48:11Z</time>
      </trkpt>
      <trkpt lat="46.86626" lon="5.6014">
        <ele>245.6</ele>
        <time>2020-03-04T08:48:12Z</time>
      </trkpt>
      <trkpt lat="46.86623" lon="5.60142">
        <ele>245.6</ele>
        <time>2020-03-04T08:48:13Z</time>
      </trkpt>
      <trkpt lat="46.8662" lon="5.60144">
        <ele>246</ele>
        <time>2020-03-04T08:48:14Z</time>
      </trkpt>
      <trkpt lat="46.86617" lon="5.60147">
        <ele>246</ele>
        <time>2020-03-04T08:48:15Z</time>
      </trkpt>
      <trkpt lat="46.86613" lon="5.60149">
        <ele>246</ele>
        <time>2020-03-04T08:48:16Z</time>
      </trkpt>
      <trkpt lat="46.8661" lon="5.60152">
        <ele>246.2</ele>
        <time>2020-03-04T08:48:17Z</time>
      </trkpt>
      <trkpt lat="46.86607" lon="5.60155">
        <ele>246.2</ele>
        <time>2020-03-04T08:48:18Z</time>
      </trkpt>
      <trkpt lat="46.86605" lon="5.60158">
        <ele>246.4</ele>
        <time>2020-03-04T08:48:19Z</time>
      </trkpt>
      <trkpt lat="46.86602" lon="5.60162">
        <ele>246.4</ele>
        <time>2020-03-04T08:48:20Z</time>
      </trkpt>
      <trkpt lat="46.86599" lon="5.60166">
        <ele>246.6</ele>
        <time>2020-03-04T08:48:21Z</time>
      </trkpt>
      <trkpt lat="46.86597" lon="5.60171">
        <ele>246.6</ele>
        <time>2020-03-04T08:48:22Z</time>
      </trkpt>
      <trkpt lat="46.86595" lon="5.60175">
        <ele>246.8</ele>
        <time>2020-03-04T08:48:23Z</time>
      </trkpt>
      <trkpt lat="46.86593" lon="5.60179">
        <ele>247</ele>
        <time>2020-03-04T08:48:24Z</time>
      </trkpt>
      <trkpt lat="46.86591" lon="5.60183">
        <ele>247</ele>
        <time>2020-03-04T08:48:25Z</time>
      </trkpt>
      <trkpt lat="46.86589" lon="5.60187">
        <ele>247.2</ele>
        <time>2020-03-04T08:48:26Z</time>
      </trkpt>
      <trkpt lat="46.86587" lon="5.60191">
        <ele>247.2</ele>
        <time>2020-03-04T08:48:27Z</time>
      </trkpt>
      <trkpt lat="46.86585" lon="5.60196">
        <ele>247.6</ele>
        <time>2020-03-04T08:48:28Z</time>
      </trkpt>
      <trkpt lat="46.86583" lon="5.602">
        <ele>247.8</ele>
        <time>2020-03-04T08:48:29Z</time>
      </trkpt>
      <trkpt lat="46.86581" lon="5.60204">
        <ele>248.2</ele>
        <time>2020-03-04T08:48:30Z</time>
      </trkpt>
      <trkpt lat="46.8658" lon="5.60209">
        <ele>248.2</ele>
        <time>2020-03-04T08:48:31Z</time>
      </trkpt>
      <trkpt lat="46.86578" lon="5.60213">
        <ele>248.4</ele>
        <time>2020-03-04T08:48:32Z</time>
      </trkpt>
      <trkpt lat="46.86576" lon="5.60216">
        <ele>248.4</ele>
        <time>2020-03-04T08:48:33Z</time>
      </trkpt>
      <trkpt lat="46.86574" lon="5.6022">
        <ele>248.8</ele>
        <time>2020-03-04T08:48:34Z</time>
      </trkpt>
      <trkpt lat="46.86572" lon="5.60223">
        <ele>248.8</ele>
        <time>2020-03-04T08:48:35Z</time>
      </trkpt>
      <trkpt lat="46.86571" lon="5.60227">
        <ele>249.2</ele>
        <time>2020-03-04T08:48:36Z</time>
      </trkpt>
      <trkpt lat="46.86569" lon="5.60231">
        <ele>249.2</ele>
        <time>2020-03-04T08:48:37Z</time>
      </trkpt>
      <trkpt lat="46.86567" lon="5.60234">
        <ele>249.6</ele>
        <time>2020-03-04T08:48:38Z</time>
      </trkpt>
      <trkpt lat="46.86565" lon="5.60238">
        <ele>249.6</ele>
        <time>2020-03-04T08:48:39Z</time>
      </trkpt>
      <trkpt lat="46.86563" lon="5.60242">
        <ele>249.8</ele>
        <time>2020-03-04T08:48:40Z</time>
      </trkpt>
      <trkpt lat="46.86561" lon="5.60246">
        <ele>249.8</ele>
        <time>2020-03-04T08:48:41Z</time>
      </trkpt>
      <trkpt lat="46.8656" lon="5.6025">
        <ele>250.2</ele>
        <time>2020-03-04T08:48:42Z</time>
      </trkpt>
      <trkpt lat="46.86558" lon="5.60254">
        <ele>250.2</ele>
        <time>2020-03-04T08:48:43Z</time>
      </trkpt>
      <trkpt lat="46.86556" lon="5.60258">
        <ele>250.4</ele>
        <time>2020-03-04T08:48:44Z</time>
      </trkpt>
      <trkpt lat="46.86554" lon="5.60261">
        <ele>250.4</ele>
        <time>2020-03-04T08:48:45Z</time>
      </trkpt>
      <trkpt lat="46.86552" lon="5.60264">
        <ele>250.6</ele>
        <time>2020-03-04T08:48:46Z</time>
      </trkpt>
      <trkpt lat="46.8655" lon="5.60266">
        <ele>250.6</ele>
        <time>2020-03-04T08:48:47Z</time>
      </trkpt>
      <trkpt lat="46.86547" lon="5.60269">
        <ele>250.8</ele>
        <time>2020-03-04T08:48:48Z</time>
      </trkpt>
      <trkpt lat="46.86545" lon="5.60271">
        <ele>250.8</ele>
        <time>2020-03-04T08:48:49Z</time>
      </trkpt>
      <trkpt lat="46.86542" lon="5.60272">
        <ele>251.2</ele>
        <time>2020-03-04T08:48:50Z</time>
      </trkpt>
      <trkpt lat="46.86539" lon="5.60273">
        <ele>251.2</ele>
        <time>2020-03-04T08:48:51Z</time>
      </trkpt>
      <trkpt lat="46.86537" lon="5.60274">
        <ele>251.2</ele>
        <time>2020-03-04T08:48:52Z</time>
      </trkpt>
      <trkpt lat="46.86534" lon="5.60275">
        <ele>251.4</ele>
        <time>2020-03-04T08:48:53Z</time>
      </trkpt>
      <trkpt lat="46.86532" lon="5.60275">
        <ele>251.4</ele>
        <time>2020-03-04T08:48:54Z</time>
      </trkpt>
      <trkpt lat="46.86529" lon="5.60276">
        <ele>251.4</ele>
        <time>2020-03-04T08:48:55Z</time>
      </trkpt>
      <trkpt lat="46.86525" lon="5.60276">
        <ele>251.6</ele>
        <time>2020-03-04T08:48:56Z</time>
      </trkpt>
      <trkpt lat="46.86522" lon="5.60276">
        <ele>251.6</ele>
        <time>2020-03-04T08:48:57Z</time>
      </trkpt>
      <trkpt lat="46.86519" lon="5.60275">
        <ele>251.6</ele>
        <time>2020-03-04T08:48:58Z</time>
      </trkpt>
      <trkpt lat="46.86516" lon="5.60274">
        <ele>251.8</ele>
        <time>2020-03-04T08:48:59Z</time>
      </trkpt>
      <trkpt lat="46.86513" lon="5.60273">
        <ele>251.8</ele>
        <time>2020-03-04T08:49:00Z</time>
      </trkpt>
      <trkpt lat="46.8651" lon="5.60271">
        <ele>252.2</ele>
        <time>2020-03-04T08:49:01Z</time>
      </trkpt>
      <trkpt lat="46.86507" lon="5.60269">
        <ele>252.2</ele>
        <time>2020-03-04T08:49:02Z</time>
      </trkpt>
      <trkpt lat="46.86503" lon="5.60268">
        <ele>252.4</ele>
        <time>2020-03-04T08:49:03Z</time>
      </trkpt>
      <trkpt lat="46.865" lon="5.60266">
        <ele>252.4</ele>
        <time>2020-03-04T08:49:04Z</time>
      </trkpt>
      <trkpt lat="46.86496" lon="5.60265">
        <ele>252.4</ele>
        <time>2020-03-04T08:49:05Z</time>
      </trkpt>
      <trkpt lat="46.86493" lon="5.60263">
        <ele>252.6</ele>
        <time>2020-03-04T08:49:06Z</time>
      </trkpt>
      <trkpt lat="46.8649" lon="5.60261">
        <ele>252.6</ele>
        <time>2020-03-04T08:49:07Z</time>
      </trkpt>
      <trkpt lat="46.86487" lon="5.60259">
        <ele>252.6</ele>
        <time>2020-03-04T08:49:08Z</time>
      </trkpt>
      <trkpt lat="46.86484" lon="5.60257">
        <ele>253</ele>
        <time>2020-03-04T08:49:09Z</time>
      </trkpt>
      <trkpt lat="46.8648" lon="5.60255">
        <ele>253</ele>
        <time>2020-03-04T08:49:10Z</time>
      </trkpt>
      <trkpt lat="46.86476" lon="5.60253">
        <ele>253</ele>
        <time>2020-03-04T08:49:11Z</time>
      </trkpt>
      <trkpt lat="46.86472" lon="5.60251">
        <ele>253.2</ele>
        <time>2020-03-04T08:49:12Z</time>
      </trkpt>
      <trkpt lat="46.86469" lon="5.60248">
        <ele>253.2</ele>
        <time>2020-03-04T08:49:13Z</time>
      </trkpt>
      <trkpt lat="46.86465" lon="5.60245">
        <ele>253.2</ele>
        <time>2020-03-04T08:49:14Z</time>
      </trkpt>
      <trkpt lat="46.86461" lon="5.60243">
        <ele>253.4</ele>
        <time>2020-03-04T08:49:15Z</time>
      </trkpt>
      <trkpt lat="46.86458" lon="5.60241">
        <ele>253.4</ele>
        <time>2020-03-04T08:49:16Z</time>
      </trkpt>
      <trkpt lat="46.86454" lon="5.60239">
        <ele>253.4</ele>
        <time>2020-03-04T08:49:17Z</time>
      </trkpt>
      <trkpt lat="46.8645" lon="5.60237">
        <ele>253.8</ele>
        <time>2020-03-04T08:49:18Z</time>
      </trkpt>
      <trkpt lat="46.86446" lon="5.60235">
        <ele>253.8</ele>
        <time>2020-03-04T08:49:19Z</time>
      </trkpt>
      <trkpt lat="46.86441" lon="5.60234">
        <ele>254</ele>
        <time>2020-03-04T08:49:20Z</time>
      </trkpt>
      <trkpt lat="46.86437" lon="5.60233">
        <ele>254</ele>
        <time>2020-03-04T08:49:21Z</time>
      </trkpt>
      <trkpt lat="46.86433" lon="5.60231">
        <ele>254</ele>
        <time>2020-03-04T08:49:22Z</time>
      </trkpt>
      <trkpt lat="46.86428" lon="5.60229">
        <ele>254.2</ele>
        <time>2020-03-04T08:49:23Z</time>
      </trkpt>
      <trkpt lat="46.86424" lon="5.60226">
        <ele>254.2</ele>
        <time>2020-03-04T08:49:24Z</time>
      </trkpt>
      <trkpt lat="46.8642" lon="5.60224">
        <ele>254.2</ele>
        <time>2020-03-04T08:49:25Z</time>
      </trkpt>
      <trkpt lat="46.86417" lon="5.60222">
        <ele>254.4</ele>
        <time>2020-03-04T08:49:26Z</time>
      </trkpt>
      <trkpt lat="46.86413" lon="5.6022">
        <ele>254.4</ele>
        <time>2020-03-04T08:49:27Z</time>
      </trkpt>
      <trkpt lat="46.86409" lon="5.60218">
        <ele>254.8</ele>
        <time>2020-03-04T08:49:28Z</time>
      </trkpt>
      <trkpt lat="46.86405" lon="5.60217">
        <ele>254.8</ele>
        <time>2020-03-04T08:49:29Z</time>
      </trkpt>
      <trkpt lat="46.864" lon="5.60216">
        <ele>255</ele>
        <time>2020-03-04T08:49:30Z</time>
      </trkpt>
      <trkpt lat="46.86396" lon="5.60215">
        <ele>255</ele>
        <time>2020-03-04T08:49:31Z</time>
      </trkpt>
      <trkpt lat="46.86392" lon="5.60213">
        <ele>255</ele>
        <time>2020-03-04T08:49:32Z</time>
      </trkpt>
      <trkpt lat="46.86388" lon="5.60212">
        <ele>255.2</ele>
        <time>2020-03-04T08:49:33Z</time>
      </trkpt>
      <trkpt lat="46.86384" lon="5.6021">
        <ele>255.2</ele>
        <time>2020-03-04T08:49:34Z</time>
      </trkpt>
      <trkpt lat="46.86381" lon="5.60208">
        <ele>255.6</ele>
        <time>2020-03-04T08:49:35Z</time>
      </trkpt>
      <trkpt lat="46.86377" lon="5.60206">
        <ele>255.6</ele>
        <time>2020-03-04T08:49:36Z</time>
      </trkpt>
      <trkpt lat="46.86373" lon="5.60205">
        <ele>255.8</ele>
        <time>2020-03-04T08:49:37Z</time>
      </trkpt>
      <trkpt lat="46.8637" lon="5.60203">
        <ele>255.8</ele>
        <time>2020-03-04T08:49:38Z</time>
      </trkpt>
      <trkpt lat="46.86366" lon="5.60201">
        <ele>256.2</ele>
        <time>2020-03-04T08:49:39Z</time>
      </trkpt>
      <trkpt lat="46.86363" lon="5.60199">
        <ele>256.2</ele>
        <time>2020-03-04T08:49:40Z</time>
      </trkpt>
      <trkpt lat="46.8636" lon="5.60197">
        <ele>256.4</ele>
        <time>2020-03-04T08:49:41Z</time>
      </trkpt>
      <trkpt lat="46.86357" lon="5.60194">
        <ele>256.4</ele>
        <time>2020-03-04T08:49:42Z</time>
      </trkpt>
      <trkpt lat="46.86354" lon="5.60192">
        <ele>256.8</ele>
        <time>2020-03-04T08:49:43Z</time>
      </trkpt>
      <trkpt lat="46.8635" lon="5.6019">
        <ele>256.8</ele>
        <time>2020-03-04T08:49:44Z</time>
      </trkpt>
      <trkpt lat="46.86347" lon="5.60188">
        <ele>257.2</ele>
        <time>2020-03-04T08:49:45Z</time>
      </trkpt>
      <trkpt lat="46.86344" lon="5.60185">
        <ele>257.2</ele>
        <time>2020-03-04T08:49:46Z</time>
      </trkpt>
      <trkpt lat="46.8634" lon="5.60182">
        <ele>257.4</ele>
        <time>2020-03-04T08:49:47Z</time>
      </trkpt>
      <trkpt lat="46.86337" lon="5.60179">
        <ele>257.4</ele>
        <time>2020-03-04T08:49:48Z</time>
      </trkpt>
      <trkpt lat="46.86334" lon="5.60176">
        <ele>257.8</ele>
        <time>2020-03-04T08:49:49Z</time>
      </trkpt>
      <trkpt lat="46.86331" lon="5.60173">
        <ele>257.8</ele>
        <time>2020-03-04T08:49:50Z</time>
      </trkpt>
      <trkpt lat="46.86328" lon="5.6017">
        <ele>258</ele>
        <time>2020-03-04T08:49:51Z</time>
      </trkpt>
      <trkpt lat="46.86324" lon="5.60168">
        <ele>258.2</ele>
        <time>2020-03-04T08:49:52Z</time>
      </trkpt>
      <trkpt lat="46.86321" lon="5.60165">
        <ele>258.6</ele>
        <time>2020-03-04T08:49:53Z</time>
      </trkpt>
      <trkpt lat="46.86318" lon="5.60162">
        <ele>258.6</ele>
        <time>2020-03-04T08:49:54Z</time>
      </trkpt>
      <trkpt lat="46.86316" lon="5.60158">
        <ele>259</ele>
        <time>2020-03-04T08:49:55Z</time>
      </trkpt>
      <trkpt lat="46.86313" lon="5.60155">
        <ele>259</ele>
        <time>2020-03-04T08:49:56Z</time>
      </trkpt>
      <trkpt lat="46.8631" lon="5.60152">
        <ele>259.4</ele>
        <time>2020-03-04T08:49:57Z</time>
      </trkpt>
      <trkpt lat="46.86307" lon="5.60149">
        <ele>259.4</ele>
        <time>2020-03-04T08:49:58Z</time>
      </trkpt>
      <trkpt lat="46.86305" lon="5.60145">
        <ele>259.6</ele>
        <time>2020-03-04T08:49:59Z</time>
      </trkpt>
      <trkpt lat="46.86302" lon="5.60142">
        <ele>259.6</ele>
        <time>2020-03-04T08:50:00Z</time>
      </trkpt>
      <trkpt lat="46.863" lon="5.60138">
        <ele>260</ele>
        <time>2020-03-04T08:50:01Z</time>
      </trkpt>
      <trkpt lat="46.86297" lon="5.60135">
        <ele>260.2</ele>
        <time>2020-03-04T08:50:02Z</time>
      </trkpt>
      <trkpt lat="46.86294" lon="5.60131">
        <ele>260.4</ele>
        <time>2020-03-04T08:50:03Z</time>
      </trkpt>
      <trkpt lat="46.86291" lon="5.60127">
        <ele>260.6</ele>
        <time>2020-03-04T08:50:04Z</time>
      </trkpt>
      <trkpt lat="46.86288" lon="5.60124">
        <ele>260.8</ele>
        <time>2020-03-04T08:50:05Z</time>
      </trkpt>
      <trkpt lat="46.86286" lon="5.6012">
        <ele>260.8</ele>
        <time>2020-03-04T08:50:06Z</time>
      </trkpt>
      <trkpt lat="46.86283" lon="5.60116">
        <ele>261.2</ele>
        <time>2020-03-04T08:50:07Z</time>
      </trkpt>
      <trkpt lat="46.8628" lon="5.60113">
        <ele>261.2</ele>
        <time>2020-03-04T08:50:08Z</time>
      </trkpt>
      <trkpt lat="46.86278" lon="5.60109">
        <ele>261.6</ele>
        <time>2020-03-04T08:50:09Z</time>
      </trkpt>
      <trkpt lat="46.86275" lon="5.60106">
        <ele>261.8</ele>
        <time>2020-03-04T08:50:10Z</time>
      </trkpt>
      <trkpt lat="46.86272" lon="5.60102">
        <ele>262</ele>
        <time>2020-03-04T08:50:11Z</time>
      </trkpt>
      <trkpt lat="46.86269" lon="5.60099">
        <ele>262</ele>
        <time>2020-03-04T08:50:12Z</time>
      </trkpt>
      <trkpt lat="46.86267" lon="5.60096">
        <ele>262.4</ele>
        <time>2020-03-04T08:50:13Z</time>
      </trkpt>
      <trkpt lat="46.86264" lon="5.60093">
        <ele>262.8</ele>
        <time>2020-03-04T08:50:14Z</time>
      </trkpt>
      <trkpt lat="46.86261" lon="5.6009">
        <ele>262.8</ele>
        <time>2020-03-04T08:50:15Z</time>
      </trkpt>
      <trkpt lat="46.86259" lon="5.60087">
        <ele>263.2</ele>
        <time>2020-03-04T08:50:16Z</time>
      </trkpt>
      <trkpt lat="46.86256" lon="5.60083">
        <ele>263.4</ele>
        <time>2020-03-04T08:50:17Z</time>
      </trkpt>
      <trkpt lat="46.86254" lon="5.6008">
        <ele>263.6</ele>
        <time>2020-03-04T08:50:18Z</time>
      </trkpt>
      <trkpt lat="46.86251" lon="5.60077">
        <ele>263.6</ele>
        <time>2020-03-04T08:50:19Z</time>
      </trkpt>
      <trkpt lat="46.86249" lon="5.60074">
        <ele>263.8</ele>
        <time>2020-03-04T08:50:20Z</time>
      </trkpt>
      <trkpt lat="46.86246" lon="5.60071">
        <ele>263.8</ele>
        <time>2020-03-04T08:50:21Z</time>
      </trkpt>
      <trkpt lat="46.86244" lon="5.60068">
        <ele>264.2</ele>
        <time>2020-03-04T08:50:22Z</time>
      </trkpt>
      <trkpt lat="46.86242" lon="5.60065">
        <ele>264.2</ele>
        <time>2020-03-04T08:50:23Z</time>
      </trkpt>
      <trkpt lat="46.8624" lon="5.60062">
        <ele>264.6</ele>
        <time>2020-03-04T08:50:24Z</time>
      </trkpt>
      <trkpt lat="46.86237" lon="5.60059">
        <ele>264.8</ele>
        <time>2020-03-04T08:50:25Z</time>
      </trkpt>
      <trkpt lat="46.86235" lon="5.60056">
        <ele>265</ele>
        <time>2020-03-04T08:50:26Z</time>
      </trkpt>
      <trkpt lat="46.86233" lon="5.60053">
        <ele>265</ele>
        <time>2020-03-04T08:50:27Z</time>
      </trkpt>
      <trkpt lat="46.8623" lon="5.60051">
        <ele>265.4</ele>
        <time>2020-03-04T08:50:28Z</time>
      </trkpt>
      <trkpt lat="46.86228" lon="5.60048">
        <ele>265.4</ele>
        <time>2020-03-04T08:50:29Z</time>
      </trkpt>
      <trkpt lat="46.86227" lon="5.60045">
        <ele>265.6</ele>
        <time>2020-03-04T08:50:30Z</time>
      </trkpt>
      <trkpt lat="46.86225" lon="5.60042">
        <ele>265.6</ele>
        <time>2020-03-04T08:50:31Z</time>
      </trkpt>
      <trkpt lat="46.86222" lon="5.6004">
        <ele>266</ele>
        <time>2020-03-04T08:50:32Z</time>
      </trkpt>
      <trkpt lat="46.8622" lon="5.60037">
        <ele>266</ele>
        <time>2020-03-04T08:50:33Z</time>
      </trkpt>
      <trkpt lat="46.86218" lon="5.60034">
        <ele>266.4</ele>
        <time>2020-03-04T08:50:34Z</time>
      </trkpt>
      <trkpt lat="46.86216" lon="5.60032">
        <ele>266.4</ele>
        <time>2020-03-04T08:50:35Z</time>
      </trkpt>
      <trkpt lat="46.86214" lon="5.60029">
        <ele>266.6</ele>
        <time>2020-03-04T08:50:36Z</time>
      </trkpt>
      <trkpt lat="46.86212" lon="5.60027">
        <ele>266.6</ele>
        <time>2020-03-04T08:50:37Z</time>
      </trkpt>
      <trkpt lat="46.8621" lon="5.60024">
        <ele>266.8</ele>
        <time>2020-03-04T08:50:38Z</time>
      </trkpt>
      <trkpt lat="46.86208" lon="5.60022">
        <ele>266.8</ele>
        <time>2020-03-04T08:50:39Z</time>
      </trkpt>
      <trkpt lat="46.86207" lon="5.60019">
        <ele>267.2</ele>
        <time>2020-03-04T08:50:40Z</time>
      </trkpt>
      <trkpt lat="46.86205" lon="5.60017">
        <ele>267.2</ele>
        <time>2020-03-04T08:50:41Z</time>
      </trkpt>
      <trkpt lat="46.86203" lon="5.60014">
        <ele>267.4</ele>
        <time>2020-03-04T08:50:42Z</time>
      </trkpt>
      <trkpt lat="46.86201" lon="5.60012">
        <ele>267.4</ele>
        <time>2020-03-04T08:50:43Z</time>
      </trkpt>
      <trkpt lat="46.862" lon="5.60009">
        <ele>267.6</ele>
        <time>2020-03-04T08:50:44Z</time>
      </trkpt>
      <trkpt lat="46.86198" lon="5.60007">
        <ele>267.6</ele>
        <time>2020-03-04T08:50:45Z</time>
      </trkpt>
      <trkpt lat="46.86196" lon="5.60004">
        <ele>267.6</ele>
        <time>2020-03-04T08:50:46Z</time>
      </trkpt>
      <trkpt lat="46.86195" lon="5.60001">
        <ele>267.6</ele>
        <time>2020-03-04T08:50:47Z</time>
      </trkpt>
      <trkpt lat="46.86194" lon="5.59999">
        <ele>267.8</ele>
        <time>2020-03-04T08:50:48Z</time>
      </trkpt>
      <trkpt lat="46.86194" lon="5.59996">
        <ele>267.8</ele>
        <time>2020-03-04T08:50:49Z</time>
      </trkpt>
      <trkpt lat="46.86194" lon="5.59993">
        <ele>267.8</ele>
        <time>2020-03-04T08:50:50Z</time>
      </trkpt>
      <trkpt lat="46.86194" lon="5.5999">
        <ele>268</ele>
        <time>2020-03-04T08:50:51Z</time>
      </trkpt>
      <trkpt lat="46.86196" lon="5.59987">
        <ele>268</ele>
        <time>2020-03-04T08:50:52Z</time>
      </trkpt>
      <trkpt lat="46.86197" lon="5.59984">
        <ele>268</ele>
        <time>2020-03-04T08:50:53Z</time>
      </trkpt>
      <trkpt lat="46.86199" lon="5.59981">
        <ele>268</ele>
        <time>2020-03-04T08:50:54Z</time>
      </trkpt>
      <trkpt lat="46.86201" lon="5.59977">
        <ele>268</ele>
        <time>2020-03-04T08:50:55Z</time>
      </trkpt>
      <trkpt lat="46.86203" lon="5.59974">
        <ele>268</ele>
        <time>2020-03-04T08:50:56Z</time>
      </trkpt>
      <trkpt lat="46.86205" lon="5.5997">
        <ele>268.2</ele>
        <time>2020-03-04T08:50:57Z</time>
      </trkpt>
      <trkpt lat="46.86207" lon="5.59966">
        <ele>268.2</ele>
        <time>2020-03-04T08:50:58Z</time>
      </trkpt>
      <trkpt lat="46.86209" lon="5.59962">
        <ele>268.2</ele>
        <time>2020-03-04T08:50:59Z</time>
      </trkpt>
      <trkpt lat="46.86211" lon="5.59958">
        <ele>268.2</ele>
        <time>2020-03-04T08:51:00Z</time>
      </trkpt>
      <trkpt lat="46.86213" lon="5.59953">
        <ele>268.2</ele>
        <time>2020-03-04T08:51:01Z</time>
      </trkpt>
      <trkpt lat="46.86216" lon="5.59949">
        <ele>268.2</ele>
        <time>2020-03-04T08:51:02Z</time>
      </trkpt>
      <trkpt lat="46.86218" lon="5.59945">
        <ele>268.2</ele>
        <time>2020-03-04T08:51:03Z</time>
      </trkpt>
      <trkpt lat="46.86221" lon="5.5994">
        <ele>268.2</ele>
        <time>2020-03-04T08:51:04Z</time>
      </trkpt>
      <trkpt lat="46.86224" lon="5.59935">
        <ele>268.4</ele>
        <time>2020-03-04T08:51:05Z</time>
      </trkpt>
      <trkpt lat="46.86226" lon="5.5993">
        <ele>268.4</ele>
        <time>2020-03-04T08:51:06Z</time>
      </trkpt>
      <trkpt lat="46.86229" lon="5.59926">
        <ele>268.4</ele>
        <time>2020-03-04T08:51:07Z</time>
      </trkpt>
      <trkpt lat="46.86232" lon="5.59921">
        <ele>268.6</ele>
        <time>2020-03-04T08:51:08Z</time>
      </trkpt>
      <trkpt lat="46.86235" lon="5.59916">
        <ele>268.6</ele>
        <time>2020-03-04T08:51:09Z</time>
      </trkpt>
      <trkpt lat="46.86237" lon="5.59911">
        <ele>268.6</ele>
        <time>2020-03-04T08:51:10Z</time>
      </trkpt>
      <trkpt lat="46.8624" lon="5.59906">
        <ele>268.6</ele>
        <time>2020-03-04T08:51:11Z</time>
      </trkpt>
      <trkpt lat="46.86243" lon="5.599">
        <ele>268.6</ele>
        <time>2020-03-04T08:51:12Z</time>
      </trkpt>
      <trkpt lat="46.86246" lon="5.59895">
        <ele>268.6</ele>
        <time>2020-03-04T08:51:13Z</time>
      </trkpt>
      <trkpt lat="46.86248" lon="5.5989">
        <ele>268.6</ele>
        <time>2020-03-04T08:51:14Z</time>
      </trkpt>
      <trkpt lat="46.86251" lon="5.59885">
        <ele>268.8</ele>
        <time>2020-03-04T08:51:15Z</time>
      </trkpt>
      <trkpt lat="46.86254" lon="5.5988">
        <ele>268.8</ele>
        <time>2020-03-04T08:51:16Z</time>
      </trkpt>
      <trkpt lat="46.86256" lon="5.59875">
        <ele>268.8</ele>
        <time>2020-03-04T08:51:17Z</time>
      </trkpt>
      <trkpt lat="46.86259" lon="5.59871">
        <ele>268.8</ele>
        <time>2020-03-04T08:51:18Z</time>
      </trkpt>
      <trkpt lat="46.86262" lon="5.59866">
        <ele>269.2</ele>
        <time>2020-03-04T08:51:19Z</time>
      </trkpt>
      <trkpt lat="46.86264" lon="5.59861">
        <ele>269.2</ele>
        <time>2020-03-04T08:51:20Z</time>
      </trkpt>
      <trkpt lat="46.86267" lon="5.59857">
        <ele>269.2</ele>
        <time>2020-03-04T08:51:21Z</time>
      </trkpt>
      <trkpt lat="46.86269" lon="5.59852">
        <ele>269.4</ele>
        <time>2020-03-04T08:51:22Z</time>
      </trkpt>
      <trkpt lat="46.86271" lon="5.59847">
        <ele>269.6</ele>
        <time>2020-03-04T08:51:23Z</time>
      </trkpt>
      <trkpt lat="46.86273" lon="5.59843">
        <ele>269.6</ele>
        <time>2020-03-04T08:51:24Z</time>
      </trkpt>
      <trkpt lat="46.86276" lon="5.59838">
        <ele>270</ele>
        <time>2020-03-04T08:51:25Z</time>
      </trkpt>
      <trkpt lat="46.86278" lon="5.59833">
        <ele>270</ele>
        <time>2020-03-04T08:51:26Z</time>
      </trkpt>
      <trkpt lat="46.8628" lon="5.59827">
        <ele>270.2</ele>
        <time>2020-03-04T08:51:27Z</time>
      </trkpt>
      <trkpt lat="46.86282" lon="5.59822">
        <ele>270.2</ele>
        <time>2020-03-04T08:51:28Z</time>
      </trkpt>
      <trkpt lat="46.86284" lon="5.59817">
        <ele>270.2</ele>
        <time>2020-03-04T08:51:29Z</time>
      </trkpt>
      <trkpt lat="46.86287" lon="5.59812">
        <ele>270.2</ele>
        <time>2020-03-04T08:51:30Z</time>
      </trkpt>
      <trkpt lat="46.86289" lon="5.59806">
        <ele>270.2</ele>
        <time>2020-03-04T08:51:31Z</time>
      </trkpt>
      <trkpt lat="46.86292" lon="5.598">
        <ele>270</ele>
        <time>2020-03-04T08:51:32Z</time>
      </trkpt>
      <trkpt lat="46.86295" lon="5.59794">
        <ele>269.8</ele>
        <time>2020-03-04T08:51:33Z</time>
      </trkpt>
      <trkpt lat="46.86297" lon="5.59787">
        <ele>269.8</ele>
        <time>2020-03-04T08:51:34Z</time>
      </trkpt>
      <trkpt lat="46.863" lon="5.5978">
        <ele>269.8</ele>
        <time>2020-03-04T08:51:35Z</time>
      </trkpt>
      <trkpt lat="46.86303" lon="5.59774">
        <ele>269.4</ele>
        <time>2020-03-04T08:51:36Z</time>
      </trkpt>
      <trkpt lat="46.86306" lon="5.59767">
        <ele>269.4</ele>
        <time>2020-03-04T08:51:37Z</time>
      </trkpt>
      <trkpt lat="46.86309" lon="5.59759">
        <ele>269.2</ele>
        <time>2020-03-04T08:51:38Z</time>
      </trkpt>
      <trkpt lat="46.86312" lon="5.59752">
        <ele>269.2</ele>
        <time>2020-03-04T08:51:39Z</time>
      </trkpt>
      <trkpt lat="46.86315" lon="5.59744">
        <ele>269.2</ele>
        <time>2020-03-04T08:51:40Z</time>
      </trkpt>
      <trkpt lat="46.86319" lon="5.59736">
        <ele>268.8</ele>
        <time>2020-03-04T08:51:41Z</time>
      </trkpt>
      <trkpt lat="46.86322" lon="5.59728">
        <ele>268.8</ele>
        <time>2020-03-04T08:51:42Z</time>
      </trkpt>
      <trkpt lat="46.86325" lon="5.5972">
        <ele>268.4</ele>
        <time>2020-03-04T08:51:43Z</time>
      </trkpt>
      <trkpt lat="46.86329" lon="5.59712">
        <ele>268.4</ele>
        <time>2020-03-04T08:51:44Z</time>
      </trkpt>
      <trkpt lat="46.86333" lon="5.59704">
        <ele>268.2</ele>
        <time>2020-03-04T08:51:45Z</time>
      </trkpt>
      <trkpt lat="46.86336" lon="5.59696">
        <ele>268.2</ele>
        <time>2020-03-04T08:51:46Z</time>
      </trkpt>
      <trkpt lat="46.8634" lon="5.59687">
        <ele>267.8</ele>
        <time>2020-03-04T08:51:47Z</time>
      </trkpt>
      <trkpt lat="46.86344" lon="5.59679">
        <ele>267.8</ele>
        <time>2020-03-04T08:51:48Z</time>
      </trkpt>
      <trkpt lat="46.86347" lon="5.5967">
        <ele>267.8</ele>
        <time>2020-03-04T08:51:49Z</time>
      </trkpt>
      <trkpt lat="46.86351" lon="5.59661">
        <ele>267.6</ele>
        <time>2020-03-04T08:51:50Z</time>
      </trkpt>
      <trkpt lat="46.86355" lon="5.59653">
        <ele>267.6</ele>
        <time>2020-03-04T08:51:51Z</time>
      </trkpt>
      <trkpt lat="46.86359" lon="5.59644">
        <ele>267.6</ele>
        <time>2020-03-04T08:51:52Z</time>
      </trkpt>
      <trkpt lat="46.86362" lon="5.59636">
        <ele>267.6</ele>
        <time>2020-03-04T08:51:53Z</time>
      </trkpt>
      <trkpt lat="46.86366" lon="5.59627">
        <ele>267.6</ele>
        <time>2020-03-04T08:51:54Z</time>
      </trkpt>
      <trkpt lat="46.8637" lon="5.59619">
        <ele>267.4</ele>
        <time>2020-03-04T08:51:55Z</time>
      </trkpt>
      <trkpt lat="46.86374" lon="5.5961">
        <ele>267.4</ele>
        <time>2020-03-04T08:51:56Z</time>
      </trkpt>
      <trkpt lat="46.86378" lon="5.59602">
        <ele>267.4</ele>
        <time>2020-03-04T08:51:57Z</time>
      </trkpt>
      <trkpt lat="46.86382" lon="5.59594">
        <ele>267.2</ele>
        <time>2020-03-04T08:51:58Z</time>
      </trkpt>
      <trkpt lat="46.86386" lon="5.59586">
        <ele>267.2</ele>
        <time>2020-03-04T08:51:59Z</time>
      </trkpt>
      <trkpt lat="46.86391" lon="5.59578">
        <ele>266.8</ele>
        <time>2020-03-04T08:52:00Z</time>
      </trkpt>
      <trkpt lat="46.86396" lon="5.5957">
        <ele>266.8</ele>
        <time>2020-03-04T08:52:01Z</time>
      </trkpt>
      <trkpt lat="46.86401" lon="5.59562">
        <ele>266.6</ele>
        <time>2020-03-04T08:52:02Z</time>
      </trkpt>
      <trkpt lat="46.86406" lon="5.59554">
        <ele>266.6</ele>
        <time>2020-03-04T08:52:03Z</time>
      </trkpt>
      <trkpt lat="46.86411" lon="5.59546">
        <ele>266.2</ele>
        <time>2020-03-04T08:52:04Z</time>
      </trkpt>
      <trkpt lat="46.86416" lon="5.59537">
        <ele>266.2</ele>
        <time>2020-03-04T08:52:05Z</time>
      </trkpt>
      <trkpt lat="46.86421" lon="5.59528">
        <ele>265.8</ele>
        <time>2020-03-04T08:52:06Z</time>
      </trkpt>
      <trkpt lat="46.86426" lon="5.59519">
        <ele>265.6</ele>
        <time>2020-03-04T08:52:07Z</time>
      </trkpt>
      <trkpt lat="46.86431" lon="5.5951">
        <ele>265.6</ele>
        <time>2020-03-04T08:52:08Z</time>
      </trkpt>
      <trkpt lat="46.86437" lon="5.59501">
        <ele>265</ele>
        <time>2020-03-04T08:52:09Z</time>
      </trkpt>
      <trkpt lat="46.86442" lon="5.59492">
        <ele>264.8</ele>
        <time>2020-03-04T08:52:10Z</time>
      </trkpt>
      <trkpt lat="46.86447" lon="5.59483">
        <ele>264.6</ele>
        <time>2020-03-04T08:52:11Z</time>
      </trkpt>
      <trkpt lat="46.86453" lon="5.59474">
        <ele>264.4</ele>
        <time>2020-03-04T08:52:12Z</time>
      </trkpt>
      <trkpt lat="46.86459" lon="5.59465">
        <ele>263.8</ele>
        <time>2020-03-04T08:52:13Z</time>
      </trkpt>
      <trkpt lat="46.86465" lon="5.59457">
        <ele>263.4</ele>
        <time>2020-03-04T08:52:14Z</time>
      </trkpt>
      <trkpt lat="46.86472" lon="5.59449">
        <ele>263</ele>
        <time>2020-03-04T08:52:15Z</time>
      </trkpt>
      <trkpt lat="46.86479" lon="5.59441">
        <ele>262.6</ele>
        <time>2020-03-04T08:52:16Z</time>
      </trkpt>
      <trkpt lat="46.86487" lon="5.59434">
        <ele>262.2</ele>
        <time>2020-03-04T08:52:17Z</time>
      </trkpt>
      <trkpt lat="46.86496" lon="5.59427">
        <ele>261.8</ele>
        <time>2020-03-04T08:52:18Z</time>
      </trkpt>
      <trkpt lat="46.86505" lon="5.59421">
        <ele>261.4</ele>
        <time>2020-03-04T08:52:19Z</time>
      </trkpt>
      <trkpt lat="46.86514" lon="5.59415">
        <ele>260.8</ele>
        <time>2020-03-04T08:52:20Z</time>
      </trkpt>
      <trkpt lat="46.86522" lon="5.59406">
        <ele>260.4</ele>
        <time>2020-03-04T08:52:21Z</time>
      </trkpt>
      <trkpt lat="46.86531" lon="5.59399">
        <ele>259.8</ele>
        <time>2020-03-04T08:52:22Z</time>
      </trkpt>
      <trkpt lat="46.86539" lon="5.59392">
        <ele>259.4</ele>
        <time>2020-03-04T08:52:23Z</time>
      </trkpt>
      <trkpt lat="46.86548" lon="5.59385">
        <ele>259</ele>
        <time>2020-03-04T08:52:24Z</time>
      </trkpt>
      <trkpt lat="46.86557" lon="5.59378">
        <ele>258.6</ele>
        <time>2020-03-04T08:52:25Z</time>
      </trkpt>
      <trkpt lat="46.86566" lon="5.59371">
        <ele>258.2</ele>
        <time>2020-03-04T08:52:26Z</time>
      </trkpt>
      <trkpt lat="46.86575" lon="5.59364">
        <ele>257.8</ele>
        <time>2020-03-04T08:52:27Z</time>
      </trkpt>
      <trkpt lat="46.86584" lon="5.59357">
        <ele>257.4</ele>
        <time>2020-03-04T08:52:28Z</time>
      </trkpt>
      <trkpt lat="46.86594" lon="5.5935">
        <ele>257</ele>
        <time>2020-03-04T08:52:29Z</time>
      </trkpt>
      <trkpt lat="46.86603" lon="5.59343">
        <ele>256.6</ele>
        <time>2020-03-04T08:52:30Z</time>
      </trkpt>
      <trkpt lat="46.86612" lon="5.59335">
        <ele>256.2</ele>
        <time>2020-03-04T08:52:31Z</time>
      </trkpt>
      <trkpt lat="46.86622" lon="5.59328">
        <ele>255.6</ele>
        <time>2020-03-04T08:52:32Z</time>
      </trkpt>
      <trkpt lat="46.86632" lon="5.59321">
        <ele>255.2</ele>
        <time>2020-03-04T08:52:33Z</time>
      </trkpt>
      <trkpt lat="46.86641" lon="5.59313">
        <ele>254.6</ele>
        <time>2020-03-04T08:52:34Z</time>
      </trkpt>
      <trkpt lat="46.8665" lon="5.59306">
        <ele>254.2</ele>
        <time>2020-03-04T08:52:35Z</time>
      </trkpt>
      <trkpt lat="46.8666" lon="5.59298">
        <ele>253.6</ele>
        <time>2020-03-04T08:52:36Z</time>
      </trkpt>
      <trkpt lat="46.8667" lon="5.5929">
        <ele>253.2</ele>
        <time>2020-03-04T08:52:37Z</time>
      </trkpt>
      <trkpt lat="46.86679" lon="5.59283">
        <ele>253</ele>
        <time>2020-03-04T08:52:38Z</time>
      </trkpt>
      <trkpt lat="46.86688" lon="5.59276">
        <ele>252.6</ele>
        <time>2020-03-04T08:52:39Z</time>
      </trkpt>
      <trkpt lat="46.86697" lon="5.59269">
        <ele>252.2</ele>
        <time>2020-03-04T08:52:40Z</time>
      </trkpt>
      <trkpt lat="46.86708" lon="5.59261">
        <ele>251.8</ele>
        <time>2020-03-04T08:52:41Z</time>
      </trkpt>
      <trkpt lat="46.86717" lon="5.59253">
        <ele>251.6</ele>
        <time>2020-03-04T08:52:42Z</time>
      </trkpt>
      <trkpt lat="46.86727" lon="5.59245">
        <ele>251.2</ele>
        <time>2020-03-04T08:52:43Z</time>
      </trkpt>
      <trkpt lat="46.86736" lon="5.59237">
        <ele>251.2</ele>
        <time>2020-03-04T08:52:44Z</time>
      </trkpt>
      <trkpt lat="46.86745" lon="5.59229">
        <ele>251</ele>
        <time>2020-03-04T08:52:45Z</time>
      </trkpt>
      <trkpt lat="46.86754" lon="5.59223">
        <ele>251</ele>
        <time>2020-03-04T08:52:46Z</time>
      </trkpt>
      <trkpt lat="46.86763" lon="5.59217">
        <ele>250.6</ele>
        <time>2020-03-04T08:52:47Z</time>
      </trkpt>
      <trkpt lat="46.86773" lon="5.5921">
        <ele>250.6</ele>
        <time>2020-03-04T08:52:48Z</time>
      </trkpt>
      <trkpt lat="46.86781" lon="5.59203">
        <ele>250.2</ele>
        <time>2020-03-04T08:52:49Z</time>
      </trkpt>
      <trkpt lat="46.8679" lon="5.59196">
        <ele>250.2</ele>
        <time>2020-03-04T08:52:50Z</time>
      </trkpt>
      <trkpt lat="46.86799" lon="5.59189">
        <ele>249.8</ele>
        <time>2020-03-04T08:52:51Z</time>
      </trkpt>
      <trkpt lat="46.86807" lon="5.59182">
        <ele>249.4</ele>
        <time>2020-03-04T08:52:52Z</time>
      </trkpt>
      <trkpt lat="46.86816" lon="5.59175">
        <ele>249.4</ele>
        <time>2020-03-04T08:52:53Z</time>
      </trkpt>
      <trkpt lat="46.86825" lon="5.59169">
        <ele>249</ele>
        <time>2020-03-04T08:52:54Z</time>
      </trkpt>
      <trkpt lat="46.86834" lon="5.59161">
        <ele>249</ele>
        <time>2020-03-04T08:52:55Z</time>
      </trkpt>
      <trkpt lat="46.86843" lon="5.59154">
        <ele>248.8</ele>
        <time>2020-03-04T08:52:56Z</time>
      </trkpt>
      <trkpt lat="46.86852" lon="5.59147">
        <ele>248.8</ele>
        <time>2020-03-04T08:52:57Z</time>
      </trkpt>
      <trkpt lat="46.86861" lon="5.5914">
        <ele>248.4</ele>
        <time>2020-03-04T08:52:58Z</time>
      </trkpt>
      <trkpt lat="46.86869" lon="5.59133">
        <ele>248.4</ele>
        <time>2020-03-04T08:52:59Z</time>
      </trkpt>
      <trkpt lat="46.86878" lon="5.59127">
        <ele>248.2</ele>
        <time>2020-03-04T08:53:00Z</time>
      </trkpt>
      <trkpt lat="46.86886" lon="5.5912">
        <ele>248</ele>
        <time>2020-03-04T08:53:01Z</time>
      </trkpt>
      <trkpt lat="46.86895" lon="5.59113">
        <ele>247.8</ele>
        <time>2020-03-04T08:53:02Z</time>
      </trkpt>
      <trkpt lat="46.86903" lon="5.59107">
        <ele>247.4</ele>
        <time>2020-03-04T08:53:03Z</time>
      </trkpt>
      <trkpt lat="46.86911" lon="5.59101">
        <ele>247.2</ele>
        <time>2020-03-04T08:53:04Z</time>
      </trkpt>
      <trkpt lat="46.86919" lon="5.59094">
        <ele>247.2</ele>
        <time>2020-03-04T08:53:05Z</time>
      </trkpt>
      <trkpt lat="46.86928" lon="5.59089">
        <ele>246.8</ele>
        <time>2020-03-04T08:53:06Z</time>
      </trkpt>
      <trkpt lat="46.86936" lon="5.59082">
        <ele>246.6</ele>
        <time>2020-03-04T08:53:07Z</time>
      </trkpt>
      <trkpt lat="46.86943" lon="5.59075">
        <ele>246.2</ele>
        <time>2020-03-04T08:53:08Z</time>
      </trkpt>
      <trkpt lat="46.86952" lon="5.59069">
        <ele>246</ele>
        <time>2020-03-04T08:53:09Z</time>
      </trkpt>
      <trkpt lat="46.8696" lon="5.59063">
        <ele>245.8</ele>
        <time>2020-03-04T08:53:10Z</time>
      </trkpt>
      <trkpt lat="46.86969" lon="5.59057">
        <ele>245.4</ele>
        <time>2020-03-04T08:53:11Z</time>
      </trkpt>
      <trkpt lat="46.86977" lon="5.5905">
        <ele>245.2</ele>
        <time>2020-03-04T08:53:12Z</time>
      </trkpt>
      <trkpt lat="46.86986" lon="5.59043">
        <ele>244.8</ele>
        <time>2020-03-04T08:53:13Z</time>
      </trkpt>
      <trkpt lat="46.86994" lon="5.59036">
        <ele>244.6</ele>
        <time>2020-03-04T08:53:14Z</time>
      </trkpt>
      <trkpt lat="46.87001" lon="5.59028">
        <ele>244.4</ele>
        <time>2020-03-04T08:53:15Z</time>
      </trkpt>
      <trkpt lat="46.87009" lon="5.5902">
        <ele>244.4</ele>
        <time>2020-03-04T08:53:16Z</time>
      </trkpt>
      <trkpt lat="46.87017" lon="5.5901">
        <ele>243.8</ele>
        <time>2020-03-04T08:53:17Z</time>
      </trkpt>
      <trkpt lat="46.87023" lon="5.59001">
        <ele>243.8</ele>
        <time>2020-03-04T08:53:18Z</time>
      </trkpt>
      <trkpt lat="46.87029" lon="5.5899">
        <ele>243.4</ele>
        <time>2020-03-04T08:53:19Z</time>
      </trkpt>
      <trkpt lat="46.87034" lon="5.58979">
        <ele>243.4</ele>
        <time>2020-03-04T08:53:20Z</time>
      </trkpt>
      <trkpt lat="46.87039" lon="5.58967">
        <ele>243</ele>
        <time>2020-03-04T08:53:21Z</time>
      </trkpt>
      <trkpt lat="46.87044" lon="5.58955">
        <ele>243</ele>
        <time>2020-03-04T08:53:22Z</time>
      </trkpt>
      <trkpt lat="46.87049" lon="5.58944">
        <ele>242.6</ele>
        <time>2020-03-04T08:53:23Z</time>
      </trkpt>
      <trkpt lat="46.87054" lon="5.58933">
        <ele>242.6</ele>
        <time>2020-03-04T08:53:24Z</time>
      </trkpt>
      <trkpt lat="46.87059" lon="5.58922">
        <ele>242.4</ele>
        <time>2020-03-04T08:53:25Z</time>
      </trkpt>
      <trkpt lat="46.87064" lon="5.5891">
        <ele>242.4</ele>
        <time>2020-03-04T08:53:26Z</time>
      </trkpt>
      <trkpt lat="46.8707" lon="5.589">
        <ele>242.2</ele>
        <time>2020-03-04T08:53:27Z</time>
      </trkpt>
      <trkpt lat="46.87075" lon="5.58889">
        <ele>242.2</ele>
        <time>2020-03-04T08:53:28Z</time>
      </trkpt>
      <trkpt lat="46.87079" lon="5.58878">
        <ele>242.2</ele>
        <time>2020-03-04T08:53:29Z</time>
      </trkpt>
      <trkpt lat="46.87084" lon="5.58867">
        <ele>242.2</ele>
        <time>2020-03-04T08:53:30Z</time>
      </trkpt>
      <trkpt lat="46.87089" lon="5.58857">
        <ele>242.2</ele>
        <time>2020-03-04T08:53:31Z</time>
      </trkpt>
      <trkpt lat="46.87094" lon="5.58847">
        <ele>241.8</ele>
        <time>2020-03-04T08:53:32Z</time>
      </trkpt>
      <trkpt lat="46.87098" lon="5.58837">
        <ele>241.8</ele>
        <time>2020-03-04T08:53:33Z</time>
      </trkpt>
      <trkpt lat="46.87103" lon="5.58827">
        <ele>241.8</ele>
        <time>2020-03-04T08:53:34Z</time>
      </trkpt>
      <trkpt lat="46.87107" lon="5.58817">
        <ele>241.8</ele>
        <time>2020-03-04T08:53:35Z</time>
      </trkpt>
      <trkpt lat="46.87112" lon="5.58807">
        <ele>241.6</ele>
        <time>2020-03-04T08:53:36Z</time>
      </trkpt>
      <trkpt lat="46.87116" lon="5.58798">
        <ele>241.6</ele>
        <time>2020-03-04T08:53:37Z</time>
      </trkpt>
      <trkpt lat="46.8712" lon="5.58788">
        <ele>241.6</ele>
        <time>2020-03-04T08:53:38Z</time>
      </trkpt>
      <trkpt lat="46.87125" lon="5.58779">
        <ele>241.6</ele>
        <time>2020-03-04T08:53:39Z</time>
      </trkpt>
      <trkpt lat="46.87129" lon="5.58769">
        <ele>241.6</ele>
        <time>2020-03-04T08:53:40Z</time>
      </trkpt>
      <trkpt lat="46.87133" lon="5.5876">
        <ele>241.4</ele>
        <time>2020-03-04T08:53:41Z</time>
      </trkpt>
      <trkpt lat="46.87137" lon="5.58751">
        <ele>241.4</ele>
        <time>2020-03-04T08:53:42Z</time>
      </trkpt>
      <trkpt lat="46.87142" lon="5.58742">
        <ele>241.4</ele>
        <time>2020-03-04T08:53:43Z</time>
      </trkpt>
      <trkpt lat="46.87146" lon="5.58733">
        <ele>241.4</ele>
        <time>2020-03-04T08:53:44Z</time>
      </trkpt>
      <trkpt lat="46.8715" lon="5.58725">
        <ele>241.4</ele>
        <time>2020-03-04T08:53:45Z</time>
      </trkpt>
      <trkpt lat="46.87154" lon="5.58716">
        <ele>241.4</ele>
        <time>2020-03-04T08:53:46Z</time>
      </trkpt>
      <trkpt lat="46.87158" lon="5.58707">
        <ele>241.4</ele>
        <time>2020-03-04T08:53:47Z</time>
      </trkpt>
      <trkpt lat="46.87162" lon="5.58698">
        <ele>241.2</ele>
        <time>2020-03-04T08:53:48Z</time>
      </trkpt>
      <trkpt lat="46.87166" lon="5.58689">
        <ele>241.2</ele>
        <time>2020-03-04T08:53:49Z</time>
      </trkpt>
      <trkpt lat="46.8717" lon="5.58681">
        <ele>241.2</ele>
        <time>2020-03-04T08:53:50Z</time>
      </trkpt>
      <trkpt lat="46.87174" lon="5.58672">
        <ele>241.2</ele>
        <time>2020-03-04T08:53:51Z</time>
      </trkpt>
      <trkpt lat="46.87178" lon="5.58664">
        <ele>241.2</ele>
        <time>2020-03-04T08:53:52Z</time>
      </trkpt>
      <trkpt lat="46.87182" lon="5.58655">
        <ele>241.2</ele>
        <time>2020-03-04T08:53:53Z</time>
      </trkpt>
      <trkpt lat="46.87186" lon="5.58647">
        <ele>241.2</ele>
        <time>2020-03-04T08:53:54Z</time>
      </trkpt>
      <trkpt lat="46.8719" lon="5.58639">
        <ele>241.2</ele>
        <time>2020-03-04T08:53:55Z</time>
      </trkpt>
      <trkpt lat="46.87194" lon="5.58631">
        <ele>241.2</ele>
        <time>2020-03-04T08:53:56Z</time>
      </trkpt>
      <trkpt lat="46.87197" lon="5.58622">
        <ele>241.2</ele>
        <time>2020-03-04T08:53:57Z</time>
      </trkpt>
      <trkpt lat="46.87201" lon="5.58614">
        <ele>241.2</ele>
        <time>2020-03-04T08:53:58Z</time>
      </trkpt>
      <trkpt lat="46.87205" lon="5.58607">
        <ele>241.2</ele>
        <time>2020-03-04T08:53:59Z</time>
      </trkpt>
      <trkpt lat="46.87208" lon="5.58599">
        <ele>241.2</ele>
        <time>2020-03-04T08:54:00Z</time>
      </trkpt>
      <trkpt lat="46.87212" lon="5.58591">
        <ele>241.2</ele>
        <time>2020-03-04T08:54:01Z</time>
      </trkpt>
      <trkpt lat="46.87215" lon="5.58583">
        <ele>241.2</ele>
        <time>2020-03-04T08:54:02Z</time>
      </trkpt>
      <trkpt lat="46.87219" lon="5.58576">
        <ele>241.2</ele>
        <time>2020-03-04T08:54:03Z</time>
      </trkpt>
      <trkpt lat="46.87223" lon="5.58568">
        <ele>241.2</ele>
        <time>2020-03-04T08:54:04Z</time>
      </trkpt>
      <trkpt lat="46.87226" lon="5.58561">
        <ele>241.2</ele>
        <time>2020-03-04T08:54:05Z</time>
      </trkpt>
      <trkpt lat="46.8723" lon="5.58554">
        <ele>241.2</ele>
        <time>2020-03-04T08:54:06Z</time>
      </trkpt>
      <trkpt lat="46.87233" lon="5.58546">
        <ele>241.4</ele>
        <time>2020-03-04T08:54:07Z</time>
      </trkpt>
      <trkpt lat="46.87236" lon="5.58539">
        <ele>241.4</ele>
        <time>2020-03-04T08:54:08Z</time>
      </trkpt>
      <trkpt lat="46.8724" lon="5.58532">
        <ele>241.4</ele>
        <time>2020-03-04T08:54:09Z</time>
      </trkpt>
      <trkpt lat="46.87243" lon="5.58525">
        <ele>241.4</ele>
        <time>2020-03-04T08:54:10Z</time>
      </trkpt>
      <trkpt lat="46.87246" lon="5.58518">
        <ele>241.8</ele>
        <time>2020-03-04T08:54:11Z</time>
      </trkpt>
      <trkpt lat="46.87249" lon="5.58512">
        <ele>241.8</ele>
        <time>2020-03-04T08:54:12Z</time>
      </trkpt>
      <trkpt lat="46.87253" lon="5.58505">
        <ele>241.8</ele>
        <time>2020-03-04T08:54:13Z</time>
      </trkpt>
      <trkpt lat="46.87256" lon="5.58498">
        <ele>241.8</ele>
        <time>2020-03-04T08:54:14Z</time>
      </trkpt>
      <trkpt lat="46.8726" lon="5.58491">
        <ele>241.8</ele>
        <time>2020-03-04T08:54:15Z</time>
      </trkpt>
      <trkpt lat="46.87263" lon="5.58484">
        <ele>241.8</ele>
        <time>2020-03-04T08:54:16Z</time>
      </trkpt>
      <trkpt lat="46.87266" lon="5.58477">
        <ele>242</ele>
        <time>2020-03-04T08:54:17Z</time>
      </trkpt>
      <trkpt lat="46.8727" lon="5.5847">
        <ele>242</ele>
        <time>2020-03-04T08:54:18Z</time>
      </trkpt>
      <trkpt lat="46.87273" lon="5.58463">
        <ele>242</ele>
        <time>2020-03-04T08:54:19Z</time>
      </trkpt>
      <trkpt lat="46.87277" lon="5.58456">
        <ele>242</ele>
        <time>2020-03-04T08:54:20Z</time>
      </trkpt>
      <trkpt lat="46.87281" lon="5.58448">
        <ele>242</ele>
        <time>2020-03-04T08:54:21Z</time>
      </trkpt>
      <trkpt lat="46.87284" lon="5.58441">
        <ele>241.8</ele>
        <time>2020-03-04T08:54:22Z</time>
      </trkpt>
      <trkpt lat="46.87288" lon="5.58434">
        <ele>241.8</ele>
        <time>2020-03-04T08:54:23Z</time>
      </trkpt>
      <trkpt lat="46.87292" lon="5.58426">
        <ele>241.8</ele>
        <time>2020-03-04T08:54:24Z</time>
      </trkpt>
      <trkpt lat="46.87296" lon="5.58419">
        <ele>241.8</ele>
        <time>2020-03-04T08:54:25Z</time>
      </trkpt>
      <trkpt lat="46.87301" lon="5.58411">
        <ele>241.8</ele>
        <time>2020-03-04T08:54:26Z</time>
      </trkpt>
      <trkpt lat="46.87305" lon="5.58403">
        <ele>241.6</ele>
        <time>2020-03-04T08:54:27Z</time>
      </trkpt>
      <trkpt lat="46.87309" lon="5.58396">
        <ele>241.4</ele>
        <time>2020-03-04T08:54:28Z</time>
      </trkpt>
      <trkpt lat="46.87314" lon="5.58387">
        <ele>241.4</ele>
        <time>2020-03-04T08:54:29Z</time>
      </trkpt>
      <trkpt lat="46.87318" lon="5.58379">
        <ele>241</ele>
        <time>2020-03-04T08:54:30Z</time>
      </trkpt>
      <trkpt lat="46.87322" lon="5.58371">
        <ele>241</ele>
        <time>2020-03-04T08:54:31Z</time>
      </trkpt>
      <trkpt lat="46.87327" lon="5.58363">
        <ele>241</ele>
        <time>2020-03-04T08:54:32Z</time>
      </trkpt>
      <trkpt lat="46.87331" lon="5.58355">
        <ele>240.8</ele>
        <time>2020-03-04T08:54:33Z</time>
      </trkpt>
      <trkpt lat="46.87335" lon="5.58347">
        <ele>240.8</ele>
        <time>2020-03-04T08:54:34Z</time>
      </trkpt>
      <trkpt lat="46.8734" lon="5.58339">
        <ele>240.8</ele>
        <time>2020-03-04T08:54:35Z</time>
      </trkpt>
      <trkpt lat="46.87344" lon="5.58331">
        <ele>240.6</ele>
        <time>2020-03-04T08:54:36Z</time>
      </trkpt>
      <trkpt lat="46.87348" lon="5.58322">
        <ele>240.6</ele>
        <time>2020-03-04T08:54:37Z</time>
      </trkpt>
      <trkpt lat="46.87352" lon="5.58314">
        <ele>240.6</ele>
        <time>2020-03-04T08:54:38Z</time>
      </trkpt>
      <trkpt lat="46.87356" lon="5.58306">
        <ele>240.6</ele>
        <time>2020-03-04T08:54:39Z</time>
      </trkpt>
      <trkpt lat="46.87361" lon="5.58298">
        <ele>240.6</ele>
        <time>2020-03-04T08:54:40Z</time>
      </trkpt>
      <trkpt lat="46.87365" lon="5.58291">
        <ele>240.6</ele>
        <time>2020-03-04T08:54:41Z</time>
      </trkpt>
      <trkpt lat="46.87369" lon="5.58283">
        <ele>240.2</ele>
        <time>2020-03-04T08:54:42Z</time>
      </trkpt>
      <trkpt lat="46.87373" lon="5.58275">
        <ele>240.2</ele>
        <time>2020-03-04T08:54:43Z</time>
      </trkpt>
      <trkpt lat="46.87377" lon="5.58267">
        <ele>240</ele>
        <time>2020-03-04T08:54:44Z</time>
      </trkpt>
      <trkpt lat="46.87381" lon="5.58259">
        <ele>240</ele>
        <time>2020-03-04T08:54:45Z</time>
      </trkpt>
      <trkpt lat="46.87386" lon="5.58251">
        <ele>239.6</ele>
        <time>2020-03-04T08:54:46Z</time>
      </trkpt>
      <trkpt lat="46.8739" lon="5.58242">
        <ele>239.4</ele>
        <time>2020-03-04T08:54:47Z</time>
      </trkpt>
      <trkpt lat="46.87395" lon="5.58233">
        <ele>239.4</ele>
        <time>2020-03-04T08:54:48Z</time>
      </trkpt>
      <trkpt lat="46.87399" lon="5.58224">
        <ele>239</ele>
        <time>2020-03-04T08:54:49Z</time>
      </trkpt>
      <trkpt lat="46.87404" lon="5.58215">
        <ele>238.6</ele>
        <time>2020-03-04T08:54:50Z</time>
      </trkpt>
      <trkpt lat="46.8741" lon="5.58206">
        <ele>238.2</ele>
        <time>2020-03-04T08:54:51Z</time>
      </trkpt>
      <trkpt lat="46.87415" lon="5.58197">
        <ele>237.8</ele>
        <time>2020-03-04T08:54:52Z</time>
      </trkpt>
      <trkpt lat="46.87422" lon="5.58188">
        <ele>237.4</ele>
        <time>2020-03-04T08:54:53Z</time>
      </trkpt>
      <trkpt lat="46.87428" lon="5.5818">
        <ele>237</ele>
        <time>2020-03-04T08:54:54Z</time>
      </trkpt>
      <trkpt lat="46.87436" lon="5.58173">
        <ele>236.6</ele>
        <time>2020-03-04T08:54:55Z</time>
      </trkpt>
      <trkpt lat="46.87444" lon="5.58165">
        <ele>236.2</ele>
        <time>2020-03-04T08:54:56Z</time>
      </trkpt>
      <trkpt lat="46.87452" lon="5.58158">
        <ele>235.8</ele>
        <time>2020-03-04T08:54:57Z</time>
      </trkpt>
      <trkpt lat="46.87461" lon="5.58152">
        <ele>235.2</ele>
        <time>2020-03-04T08:54:58Z</time>
      </trkpt>
      <trkpt lat="46.87471" lon="5.58148">
        <ele>234.6</ele>
        <time>2020-03-04T08:54:59Z</time>
      </trkpt>
      <trkpt lat="46.87481" lon="5.58145">
        <ele>234.2</ele>
        <time>2020-03-04T08:55:00Z</time>
      </trkpt>
      <trkpt lat="46.87492" lon="5.58144">
        <ele>233.6</ele>
        <time>2020-03-04T08:55:01Z</time>
      </trkpt>
      <trkpt lat="46.87503" lon="5.58142">
        <ele>233</ele>
        <time>2020-03-04T08:55:02Z</time>
      </trkpt>
      <trkpt lat="46.87513" lon="5.58142">
        <ele>232.6</ele>
        <time>2020-03-04T08:55:03Z</time>
      </trkpt>
      <trkpt lat="46.87524" lon="5.5814">
        <ele>232</ele>
        <time>2020-03-04T08:55:04Z</time>
      </trkpt>
      <trkpt lat="46.87534" lon="5.58138">
        <ele>231.4</ele>
        <time>2020-03-04T08:55:05Z</time>
      </trkpt>
      <trkpt lat="46.87544" lon="5.58135">
        <ele>230.8</ele>
        <time>2020-03-04T08:55:06Z</time>
      </trkpt>
      <trkpt lat="46.87554" lon="5.5813">
        <ele>230.4</ele>
        <time>2020-03-04T08:55:07Z</time>
      </trkpt>
      <trkpt lat="46.87564" lon="5.58124">
        <ele>230</ele>
        <time>2020-03-04T08:55:08Z</time>
      </trkpt>
      <trkpt lat="46.87574" lon="5.58117">
        <ele>229.6</ele>
        <time>2020-03-04T08:55:09Z</time>
      </trkpt>
      <trkpt lat="46.87583" lon="5.58109">
        <ele>229.2</ele>
        <time>2020-03-04T08:55:10Z</time>
      </trkpt>
      <trkpt lat="46.87592" lon="5.581">
        <ele>228.8</ele>
        <time>2020-03-04T08:55:11Z</time>
      </trkpt>
      <trkpt lat="46.876" lon="5.58091">
        <ele>228.6</ele>
        <time>2020-03-04T08:55:12Z</time>
      </trkpt>
      <trkpt lat="46.87608" lon="5.58083">
        <ele>228.4</ele>
        <time>2020-03-04T08:55:13Z</time>
      </trkpt>
      <trkpt lat="46.87616" lon="5.58076">
        <ele>228.4</ele>
        <time>2020-03-04T08:55:14Z</time>
      </trkpt>
      <trkpt lat="46.87624" lon="5.58067">
        <ele>228</ele>
        <time>2020-03-04T08:55:15Z</time>
      </trkpt>
      <trkpt lat="46.87632" lon="5.5806">
        <ele>228</ele>
        <time>2020-03-04T08:55:16Z</time>
      </trkpt>
      <trkpt lat="46.8764" lon="5.58052">
        <ele>228</ele>
        <time>2020-03-04T08:55:17Z</time>
      </trkpt>
      <trkpt lat="46.87648" lon="5.58045">
        <ele>228</ele>
        <time>2020-03-04T08:55:18Z</time>
      </trkpt>
      <trkpt lat="46.87655" lon="5.58038">
        <ele>227.8</ele>
        <time>2020-03-04T08:55:19Z</time>
      </trkpt>
      <trkpt lat="46.87662" lon="5.58031">
        <ele>227.8</ele>
        <time>2020-03-04T08:55:20Z</time>
      </trkpt>
      <trkpt lat="46.87669" lon="5.58025">
        <ele>227.8</ele>
        <time>2020-03-04T08:55:21Z</time>
      </trkpt>
      <trkpt lat="46.87677" lon="5.58018">
        <ele>227.8</ele>
        <time>2020-03-04T08:55:22Z</time>
      </trkpt>
      <trkpt lat="46.87684" lon="5.58011">
        <ele>227.8</ele>
        <time>2020-03-04T08:55:23Z</time>
      </trkpt>
      <trkpt lat="46.87691" lon="5.58005">
        <ele>227.8</ele>
        <time>2020-03-04T08:55:24Z</time>
      </trkpt>
      <trkpt lat="46.87697" lon="5.57998">
        <ele>227.8</ele>
        <time>2020-03-04T08:55:25Z</time>
      </trkpt>
      <trkpt lat="46.87704" lon="5.57991">
        <ele>227.8</ele>
        <time>2020-03-04T08:55:26Z</time>
      </trkpt>
      <trkpt lat="46.87711" lon="5.57985">
        <ele>227.8</ele>
        <time>2020-03-04T08:55:27Z</time>
      </trkpt>
      <trkpt lat="46.87717" lon="5.57979">
        <ele>227.8</ele>
        <time>2020-03-04T08:55:28Z</time>
      </trkpt>
      <trkpt lat="46.87724" lon="5.57973">
        <ele>227.8</ele>
        <time>2020-03-04T08:55:29Z</time>
      </trkpt>
      <trkpt lat="46.8773" lon="5.57966">
        <ele>227.8</ele>
        <time>2020-03-04T08:55:30Z</time>
      </trkpt>
      <trkpt lat="46.87737" lon="5.57959">
        <ele>227.8</ele>
        <time>2020-03-04T08:55:31Z</time>
      </trkpt>
      <trkpt lat="46.87743" lon="5.57953">
        <ele>227.8</ele>
        <time>2020-03-04T08:55:32Z</time>
      </trkpt>
      <trkpt lat="46.8775" lon="5.57947">
        <ele>227.8</ele>
        <time>2020-03-04T08:55:33Z</time>
      </trkpt>
      <trkpt lat="46.87756" lon="5.57941">
        <ele>227.8</ele>
        <time>2020-03-04T08:55:34Z</time>
      </trkpt>
      <trkpt lat="46.87763" lon="5.57934">
        <ele>227.6</ele>
        <time>2020-03-04T08:55:35Z</time>
      </trkpt>
      <trkpt lat="46.87769" lon="5.57928">
        <ele>227.6</ele>
        <time>2020-03-04T08:55:36Z</time>
      </trkpt>
      <trkpt lat="46.87776" lon="5.57922">
        <ele>227.6</ele>
        <time>2020-03-04T08:55:37Z</time>
      </trkpt>
      <trkpt lat="46.87782" lon="5.57916">
        <ele>227.6</ele>
        <time>2020-03-04T08:55:38Z</time>
      </trkpt>
      <trkpt lat="46.87788" lon="5.5791">
        <ele>227.6</ele>
        <time>2020-03-04T08:55:39Z</time>
      </trkpt>
      <trkpt lat="46.87795" lon="5.57904">
        <ele>227.6</ele>
        <time>2020-03-04T08:55:40Z</time>
      </trkpt>
      <trkpt lat="46.87801" lon="5.57898">
        <ele>227.6</ele>
        <time>2020-03-04T08:55:41Z</time>
      </trkpt>
      <trkpt lat="46.87807" lon="5.57892">
        <ele>227.6</ele>
        <time>2020-03-04T08:55:42Z</time>
      </trkpt>
      <trkpt lat="46.87814" lon="5.57886">
        <ele>227.6</ele>
        <time>2020-03-04T08:55:43Z</time>
      </trkpt>
      <trkpt lat="46.8782" lon="5.5788">
        <ele>227.6</ele>
        <time>2020-03-04T08:55:44Z</time>
      </trkpt>
      <trkpt lat="46.87826" lon="5.57874">
        <ele>227.6</ele>
        <time>2020-03-04T08:55:45Z</time>
      </trkpt>
      <trkpt lat="46.87833" lon="5.57868">
        <ele>227.6</ele>
        <time>2020-03-04T08:55:46Z</time>
      </trkpt>
      <trkpt lat="46.87839" lon="5.57862">
        <ele>227.6</ele>
        <time>2020-03-04T08:55:47Z</time>
      </trkpt>
      <trkpt lat="46.87845" lon="5.57856">
        <ele>227.6</ele>
        <time>2020-03-04T08:55:48Z</time>
      </trkpt>
      <trkpt lat="46.87851" lon="5.5785">
        <ele>227.6</ele>
        <time>2020-03-04T08:55:49Z</time>
      </trkpt>
      <trkpt lat="46.87857" lon="5.57844">
        <ele>227.6</ele>
        <time>2020-03-04T08:55:50Z</time>
      </trkpt>
      <trkpt lat="46.87863" lon="5.57838">
        <ele>227.6</ele>
        <time>2020-03-04T08:55:51Z</time>
      </trkpt>
      <trkpt lat="46.87869" lon="5.57832">
        <ele>227.6</ele>
        <time>2020-03-04T08:55:52Z</time>
      </trkpt>
      <trkpt lat="46.87876" lon="5.57826">
        <ele>227.6</ele>
        <time>2020-03-04T08:55:53Z</time>
      </trkpt>
      <trkpt lat="46.87882" lon="5.5782">
        <ele>227.6</ele>
        <time>2020-03-04T08:55:54Z</time>
      </trkpt>
      <trkpt lat="46.87888" lon="5.57814">
        <ele>227.6</ele>
        <time>2020-03-04T08:55:55Z</time>
      </trkpt>
      <trkpt lat="46.87894" lon="5.57808">
        <ele>227.6</ele>
        <time>2020-03-04T08:55:56Z</time>
      </trkpt>
      <trkpt lat="46.87901" lon="5.57802">
        <ele>227.6</ele>
        <time>2020-03-04T08:55:57Z</time>
      </trkpt>
      <trkpt lat="46.87907" lon="5.57796">
        <ele>227.6</ele>
        <time>2020-03-04T08:55:58Z</time>
      </trkpt>
      <trkpt lat="46.87913" lon="5.5779">
        <ele>227.6</ele>
        <time>2020-03-04T08:55:59Z</time>
      </trkpt>
      <trkpt lat="46.87919" lon="5.57784">
        <ele>227.6</ele>
        <time>2020-03-04T08:56:00Z</time>
      </trkpt>
      <trkpt lat="46.87926" lon="5.57778">
        <ele>227.6</ele>
        <time>2020-03-04T08:56:01Z</time>
      </trkpt>
      <trkpt lat="46.87932" lon="5.57772">
        <ele>227.6</ele>
        <time>2020-03-04T08:56:02Z</time>
      </trkpt>
      <trkpt lat="46.87938" lon="5.57766">
        <ele>227.6</ele>
        <time>2020-03-04T08:56:03Z</time>
      </trkpt>
      <trkpt lat="46.87944" lon="5.5776">
        <ele>227.6</ele>
        <time>2020-03-04T08:56:04Z</time>
      </trkpt>
      <trkpt lat="46.8795" lon="5.57755">
        <ele>227.6</ele>
        <time>2020-03-04T08:56:05Z</time>
      </trkpt>
      <trkpt lat="46.87956" lon="5.57749">
        <ele>227.6</ele>
        <time>2020-03-04T08:56:06Z</time>
      </trkpt>
      <trkpt lat="46.87962" lon="5.57743">
        <ele>227.6</ele>
        <time>2020-03-04T08:56:07Z</time>
      </trkpt>
      <trkpt lat="46.87968" lon="5.57737">
        <ele>227.6</ele>
        <time>2020-03-04T08:56:08Z</time>
      </trkpt>
      <trkpt lat="46.87974" lon="5.57732">
        <ele>227.6</ele>
        <time>2020-03-04T08:56:09Z</time>
      </trkpt>
      <trkpt lat="46.8798" lon="5.57726">
        <ele>227.4</ele>
        <time>2020-03-04T08:56:10Z</time>
      </trkpt>
      <trkpt lat="46.87986" lon="5.5772">
        <ele>227.4</ele>
        <time>2020-03-04T08:56:11Z</time>
      </trkpt>
      <trkpt lat="46.87992" lon="5.57714">
        <ele>227.4</ele>
        <time>2020-03-04T08:56:12Z</time>
      </trkpt>
      <trkpt lat="46.87998" lon="5.57709">
        <ele>227.4</ele>
        <time>2020-03-04T08:56:13Z</time>
      </trkpt>
      <trkpt lat="46.88004" lon="5.57703">
        <ele>227.6</ele>
        <time>2020-03-04T08:56:14Z</time>
      </trkpt>
      <trkpt lat="46.8801" lon="5.57697">
        <ele>227.6</ele>
        <time>2020-03-04T08:56:15Z</time>
      </trkpt>
      <trkpt lat="46.88016" lon="5.57691">
        <ele>227.6</ele>
        <time>2020-03-04T08:56:16Z</time>
      </trkpt>
      <trkpt lat="46.88022" lon="5.57685">
        <ele>227.6</ele>
        <time>2020-03-04T08:56:17Z</time>
      </trkpt>
      <trkpt lat="46.88028" lon="5.57679">
        <ele>227.6</ele>
        <time>2020-03-04T08:56:18Z</time>
      </trkpt>
      <trkpt lat="46.88034" lon="5.57673">
        <ele>227.6</ele>
        <time>2020-03-04T08:56:19Z</time>
      </trkpt>
      <trkpt lat="46.8804" lon="5.57667">
        <ele>227.6</ele>
        <time>2020-03-04T08:56:20Z</time>
      </trkpt>
      <trkpt lat="46.88047" lon="5.57661">
        <ele>227.6</ele>
        <time>2020-03-04T08:56:21Z</time>
      </trkpt>
      <trkpt lat="46.88053" lon="5.57656">
        <ele>227.6</ele>
        <time>2020-03-04T08:56:22Z</time>
      </trkpt>
      <trkpt lat="46.88059" lon="5.57649">
        <ele>227.6</ele>
        <time>2020-03-04T08:56:23Z</time>
      </trkpt>
      <trkpt lat="46.88065" lon="5.57643">
        <ele>227.6</ele>
        <time>2020-03-04T08:56:24Z</time>
      </trkpt>
      <trkpt lat="46.88071" lon="5.57637">
        <ele>227.6</ele>
        <time>2020-03-04T08:56:25Z</time>
      </trkpt>
      <trkpt lat="46.88077" lon="5.57631">
        <ele>227.6</ele>
        <time>2020-03-04T08:56:26Z</time>
      </trkpt>
      <trkpt lat="46.88083" lon="5.57625">
        <ele>227.6</ele>
        <time>2020-03-04T08:56:27Z</time>
      </trkpt>
      <trkpt lat="46.88089" lon="5.5762">
        <ele>227.6</ele>
        <time>2020-03-04T08:56:28Z</time>
      </trkpt>
      <trkpt lat="46.88095" lon="5.57614">
        <ele>227.6</ele>
        <time>2020-03-04T08:56:29Z</time>
      </trkpt>
      <trkpt lat="46.88102" lon="5.57608">
        <ele>227.6</ele>
        <time>2020-03-04T08:56:30Z</time>
      </trkpt>
      <trkpt lat="46.88108" lon="5.57602">
        <ele>227.6</ele>
        <time>2020-03-04T08:56:31Z</time>
      </trkpt>
      <trkpt lat="46.88114" lon="5.57596">
        <ele>227.6</ele>
        <time>2020-03-04T08:56:32Z</time>
      </trkpt>
      <trkpt lat="46.8812" lon="5.5759">
        <ele>227.6</ele>
        <time>2020-03-04T08:56:33Z</time>
      </trkpt>
      <trkpt lat="46.88126" lon="5.57584">
        <ele>227.6</ele>
        <time>2020-03-04T08:56:34Z</time>
      </trkpt>
      <trkpt lat="46.88133" lon="5.57579">
        <ele>227.6</ele>
        <time>2020-03-04T08:56:35Z</time>
      </trkpt>
      <trkpt lat="46.88139" lon="5.57574">
        <ele>227.6</ele>
        <time>2020-03-04T08:56:36Z</time>
      </trkpt>
      <trkpt lat="46.88146" lon="5.5757">
        <ele>227.6</ele>
        <time>2020-03-04T08:56:37Z</time>
      </trkpt>
      <trkpt lat="46.88153" lon="5.57566">
        <ele>227.6</ele>
        <time>2020-03-04T08:56:38Z</time>
      </trkpt>
      <trkpt lat="46.8816" lon="5.57563">
        <ele>227.6</ele>
        <time>2020-03-04T08:56:39Z</time>
      </trkpt>
      <trkpt lat="46.88167" lon="5.5756">
        <ele>227.6</ele>
        <time>2020-03-04T08:56:40Z</time>
      </trkpt>
      <trkpt lat="46.88174" lon="5.57558">
        <ele>227.6</ele>
        <time>2020-03-04T08:56:41Z</time>
      </trkpt>
      <trkpt lat="46.88181" lon="5.57556">
        <ele>227.6</ele>
        <time>2020-03-04T08:56:42Z</time>
      </trkpt>
      <trkpt lat="46.88187" lon="5.57554">
        <ele>227.6</ele>
        <time>2020-03-04T08:56:43Z</time>
      </trkpt>
      <trkpt lat="46.88194" lon="5.57553">
        <ele>227.6</ele>
        <time>2020-03-04T08:56:44Z</time>
      </trkpt>
      <trkpt lat="46.88201" lon="5.57551">
        <ele>227.6</ele>
        <time>2020-03-04T08:56:45Z</time>
      </trkpt>
      <trkpt lat="46.88207" lon="5.57549">
        <ele>228</ele>
        <time>2020-03-04T08:56:46Z</time>
      </trkpt>
      <trkpt lat="46.88214" lon="5.57547">
        <ele>228</ele>
        <time>2020-03-04T08:56:47Z</time>
      </trkpt>
      <trkpt lat="46.8822" lon="5.57546">
        <ele>228</ele>
        <time>2020-03-04T08:56:48Z</time>
      </trkpt>
      <trkpt lat="46.88227" lon="5.57544">
        <ele>228</ele>
        <time>2020-03-04T08:56:49Z</time>
      </trkpt>
      <trkpt lat="46.88233" lon="5.57542">
        <ele>228</ele>
        <time>2020-03-04T08:56:50Z</time>
      </trkpt>
      <trkpt lat="46.8824" lon="5.57541">
        <ele>228</ele>
        <time>2020-03-04T08:56:51Z</time>
      </trkpt>
      <trkpt lat="46.88246" lon="5.57539">
        <ele>228</ele>
        <time>2020-03-04T08:56:52Z</time>
      </trkpt>
      <trkpt lat="46.88252" lon="5.57538">
        <ele>228</ele>
        <time>2020-03-04T08:56:53Z</time>
      </trkpt>
      <trkpt lat="46.88259" lon="5.57536">
        <ele>228</ele>
        <time>2020-03-04T08:56:54Z</time>
      </trkpt>
      <trkpt lat="46.88265" lon="5.57533">
        <ele>228</ele>
        <time>2020-03-04T08:56:55Z</time>
      </trkpt>
      <trkpt lat="46.88271" lon="5.57531">
        <ele>228</ele>
        <time>2020-03-04T08:56:56Z</time>
      </trkpt>
      <trkpt lat="46.88277" lon="5.57529">
        <ele>228</ele>
        <time>2020-03-04T08:56:57Z</time>
      </trkpt>
      <trkpt lat="46.88284" lon="5.57528">
        <ele>228.2</ele>
        <time>2020-03-04T08:56:58Z</time>
      </trkpt>
      <trkpt lat="46.8829" lon="5.57527">
        <ele>228.2</ele>
        <time>2020-03-04T08:56:59Z</time>
      </trkpt>
      <trkpt lat="46.88296" lon="5.57525">
        <ele>228.2</ele>
        <time>2020-03-04T08:57:00Z</time>
      </trkpt>
      <trkpt lat="46.88302" lon="5.57522">
        <ele>228.2</ele>
        <time>2020-03-04T08:57:01Z</time>
      </trkpt>
      <trkpt lat="46.88308" lon="5.57519">
        <ele>228.2</ele>
        <time>2020-03-04T08:57:02Z</time>
      </trkpt>
      <trkpt lat="46.88314" lon="5.57516">
        <ele>228.2</ele>
        <time>2020-03-04T08:57:03Z</time>
      </trkpt>
      <trkpt lat="46.88321" lon="5.57512">
        <ele>228.2</ele>
        <time>2020-03-04T08:57:04Z</time>
      </trkpt>
      <trkpt lat="46.88327" lon="5.57508">
        <ele>228.2</ele>
        <time>2020-03-04T08:57:05Z</time>
      </trkpt>
      <trkpt lat="46.88333" lon="5.57504">
        <ele>228.4</ele>
        <time>2020-03-04T08:57:06Z</time>
      </trkpt>
      <trkpt lat="46.88339" lon="5.575">
        <ele>228.4</ele>
        <time>2020-03-04T08:57:07Z</time>
      </trkpt>
      <trkpt lat="46.88345" lon="5.57496">
        <ele>228.4</ele>
        <time>2020-03-04T08:57:08Z</time>
      </trkpt>
      <trkpt lat="46.88351" lon="5.57493">
        <ele>228.4</ele>
        <time>2020-03-04T08:57:09Z</time>
      </trkpt>
      <trkpt lat="46.88357" lon="5.57489">
        <ele>228.6</ele>
        <time>2020-03-04T08:57:10Z</time>
      </trkpt>
      <trkpt lat="46.88363" lon="5.57486">
        <ele>228.6</ele>
        <time>2020-03-04T08:57:11Z</time>
      </trkpt>
      <trkpt lat="46.88368" lon="5.57483">
        <ele>228.6</ele>
        <time>2020-03-04T08:57:12Z</time>
      </trkpt>
      <trkpt lat="46.88374" lon="5.5748">
        <ele>228.8</ele>
        <time>2020-03-04T08:57:13Z</time>
      </trkpt>
      <trkpt lat="46.88379" lon="5.57477">
        <ele>228.8</ele>
        <time>2020-03-04T08:57:14Z</time>
      </trkpt>
      <trkpt lat="46.88384" lon="5.57473">
        <ele>229.2</ele>
        <time>2020-03-04T08:57:15Z</time>
      </trkpt>
      <trkpt lat="46.8839" lon="5.5747">
        <ele>229.2</ele>
        <time>2020-03-04T08:57:16Z</time>
      </trkpt>
      <trkpt lat="46.88395" lon="5.57467">
        <ele>229.2</ele>
        <time>2020-03-04T08:57:17Z</time>
      </trkpt>
      <trkpt lat="46.88401" lon="5.57464">
        <ele>229.4</ele>
        <time>2020-03-04T08:57:18Z</time>
      </trkpt>
      <trkpt lat="46.88407" lon="5.57461">
        <ele>229.4</ele>
        <time>2020-03-04T08:57:19Z</time>
      </trkpt>
      <trkpt lat="46.88412" lon="5.57457">
        <ele>229.4</ele>
        <time>2020-03-04T08:57:20Z</time>
      </trkpt>
      <trkpt lat="46.88417" lon="5.57454">
        <ele>229.4</ele>
        <time>2020-03-04T08:57:21Z</time>
      </trkpt>
      <trkpt lat="46.88422" lon="5.57451">
        <ele>229.4</ele>
        <time>2020-03-04T08:57:22Z</time>
      </trkpt>
      <trkpt lat="46.88427" lon="5.57448">
        <ele>229.6</ele>
        <time>2020-03-04T08:57:23Z</time>
      </trkpt>
      <trkpt lat="46.88432" lon="5.57445">
        <ele>229.6</ele>
        <time>2020-03-04T08:57:24Z</time>
      </trkpt>
      <trkpt lat="46.88437" lon="5.57441">
        <ele>229.6</ele>
        <time>2020-03-04T08:57:25Z</time>
      </trkpt>
      <trkpt lat="46.88442" lon="5.57437">
        <ele>229.6</ele>
        <time>2020-03-04T08:57:26Z</time>
      </trkpt>
      <trkpt lat="46.88447" lon="5.57434">
        <ele>229.6</ele>
        <time>2020-03-04T08:57:27Z</time>
      </trkpt>
      <trkpt lat="46.88453" lon="5.5743">
        <ele>229.6</ele>
        <time>2020-03-04T08:57:28Z</time>
      </trkpt>
      <trkpt lat="46.88458" lon="5.57426">
        <ele>229.6</ele>
        <time>2020-03-04T08:57:29Z</time>
      </trkpt>
      <trkpt lat="46.88464" lon="5.57422">
        <ele>229.6</ele>
        <time>2020-03-04T08:57:30Z</time>
      </trkpt>
      <trkpt lat="46.88469" lon="5.57418">
        <ele>229.6</ele>
        <time>2020-03-04T08:57:31Z</time>
      </trkpt>
      <trkpt lat="46.88475" lon="5.57413">
        <ele>229.6</ele>
        <time>2020-03-04T08:57:32Z</time>
      </trkpt>
      <trkpt lat="46.8848" lon="5.57408">
        <ele>229.6</ele>
        <time>2020-03-04T08:57:33Z</time>
      </trkpt>
      <trkpt lat="46.88485" lon="5.57403">
        <ele>229.6</ele>
        <time>2020-03-04T08:57:34Z</time>
      </trkpt>
      <trkpt lat="46.88491" lon="5.57399">
        <ele>229.6</ele>
        <time>2020-03-04T08:57:35Z</time>
      </trkpt>
      <trkpt lat="46.88496" lon="5.57394">
        <ele>229.6</ele>
        <time>2020-03-04T08:57:36Z</time>
      </trkpt>
      <trkpt lat="46.885" lon="5.57388">
        <ele>229.6</ele>
        <time>2020-03-04T08:57:37Z</time>
      </trkpt>
      <trkpt lat="46.88505" lon="5.57383">
        <ele>229.6</ele>
        <time>2020-03-04T08:57:38Z</time>
      </trkpt>
      <trkpt lat="46.8851" lon="5.57378">
        <ele>229.8</ele>
        <time>2020-03-04T08:57:39Z</time>
      </trkpt>
      <trkpt lat="46.88515" lon="5.57373">
        <ele>229.8</ele>
        <time>2020-03-04T08:57:40Z</time>
      </trkpt>
      <trkpt lat="46.8852" lon="5.57368">
        <ele>230</ele>
        <time>2020-03-04T08:57:41Z</time>
      </trkpt>
      <trkpt lat="46.88525" lon="5.57363">
        <ele>230</ele>
        <time>2020-03-04T08:57:42Z</time>
      </trkpt>
      <trkpt lat="46.88531" lon="5.57358">
        <ele>230</ele>
        <time>2020-03-04T08:57:43Z</time>
      </trkpt>
      <trkpt lat="46.88536" lon="5.57353">
        <ele>230</ele>
        <time>2020-03-04T08:57:44Z</time>
      </trkpt>
      <trkpt lat="46.88541" lon="5.57348">
        <ele>230</ele>
        <time>2020-03-04T08:57:45Z</time>
      </trkpt>
      <trkpt lat="46.88546" lon="5.57343">
        <ele>230</ele>
        <time>2020-03-04T08:57:46Z</time>
      </trkpt>
      <trkpt lat="46.88551" lon="5.57338">
        <ele>230.4</ele>
        <time>2020-03-04T08:57:47Z</time>
      </trkpt>
      <trkpt lat="46.88555" lon="5.57333">
        <ele>230.4</ele>
        <time>2020-03-04T08:57:48Z</time>
      </trkpt>
      <trkpt lat="46.8856" lon="5.57328">
        <ele>230.4</ele>
        <time>2020-03-04T08:57:49Z</time>
      </trkpt>
      <trkpt lat="46.88564" lon="5.57323">
        <ele>230.4</ele>
        <time>2020-03-04T08:57:50Z</time>
      </trkpt>
      <trkpt lat="46.88569" lon="5.57318">
        <ele>230.4</ele>
        <time>2020-03-04T08:57:51Z</time>
      </trkpt>
      <trkpt lat="46.88573" lon="5.57314">
        <ele>230.6</ele>
        <time>2020-03-04T08:57:52Z</time>
      </trkpt>
      <trkpt lat="46.88578" lon="5.57309">
        <ele>230.6</ele>
        <time>2020-03-04T08:57:53Z</time>
      </trkpt>
      <trkpt lat="46.88582" lon="5.57305">
        <ele>230.6</ele>
        <time>2020-03-04T08:57:54Z</time>
      </trkpt>
      <trkpt lat="46.88587" lon="5.573">
        <ele>230.6</ele>
        <time>2020-03-04T08:57:55Z</time>
      </trkpt>
      <trkpt lat="46.88592" lon="5.57295">
        <ele>230.8</ele>
        <time>2020-03-04T08:57:56Z</time>
      </trkpt>
      <trkpt lat="46.88596" lon="5.5729">
        <ele>230.8</ele>
        <time>2020-03-04T08:57:57Z</time>
      </trkpt>
      <trkpt lat="46.88601" lon="5.57285">
        <ele>230.8</ele>
        <time>2020-03-04T08:57:58Z</time>
      </trkpt>
      <trkpt lat="46.88606" lon="5.57281">
        <ele>230.8</ele>
        <time>2020-03-04T08:57:59Z</time>
      </trkpt>
      <trkpt lat="46.88611" lon="5.57276">
        <ele>230.8</ele>
        <time>2020-03-04T08:58:00Z</time>
      </trkpt>
      <trkpt lat="46.88616" lon="5.57272">
        <ele>230.8</ele>
        <time>2020-03-04T08:58:01Z</time>
      </trkpt>
      <trkpt lat="46.8862" lon="5.57267">
        <ele>230.8</ele>
        <time>2020-03-04T08:58:02Z</time>
      </trkpt>
      <trkpt lat="46.88625" lon="5.57262">
        <ele>231</ele>
        <time>2020-03-04T08:58:03Z</time>
      </trkpt>
      <trkpt lat="46.8863" lon="5.57258">
        <ele>231</ele>
        <time>2020-03-04T08:58:04Z</time>
      </trkpt>
      <trkpt lat="46.88635" lon="5.57253">
        <ele>231</ele>
        <time>2020-03-04T08:58:05Z</time>
      </trkpt>
      <trkpt lat="46.8864" lon="5.57249">
        <ele>231.2</ele>
        <time>2020-03-04T08:58:06Z</time>
      </trkpt>
      <trkpt lat="46.88644" lon="5.57244">
        <ele>231.2</ele>
        <time>2020-03-04T08:58:07Z</time>
      </trkpt>
      <trkpt lat="46.88649" lon="5.5724">
        <ele>231.2</ele>
        <time>2020-03-04T08:58:08Z</time>
      </trkpt>
      <trkpt lat="46.88654" lon="5.57235">
        <ele>231.6</ele>
        <time>2020-03-04T08:58:09Z</time>
      </trkpt>
      <trkpt lat="46.88659" lon="5.5723">
        <ele>231.6</ele>
        <time>2020-03-04T08:58:10Z</time>
      </trkpt>
      <trkpt lat="46.88663" lon="5.57226">
        <ele>231.6</ele>
        <time>2020-03-04T08:58:11Z</time>
      </trkpt>
      <trkpt lat="46.88668" lon="5.57222">
        <ele>231.8</ele>
        <time>2020-03-04T08:58:12Z</time>
      </trkpt>
      <trkpt lat="46.88673" lon="5.57218">
        <ele>231.8</ele>
        <time>2020-03-04T08:58:13Z</time>
      </trkpt>
      <trkpt lat="46.88678" lon="5.57214">
        <ele>231.8</ele>
        <time>2020-03-04T08:58:14Z</time>
      </trkpt>
      <trkpt lat="46.88682" lon="5.5721">
        <ele>231.8</ele>
        <time>2020-03-04T08:58:15Z</time>
      </trkpt>
      <trkpt lat="46.88687" lon="5.57205">
        <ele>232</ele>
        <time>2020-03-04T08:58:16Z</time>
      </trkpt>
      <trkpt lat="46.88692" lon="5.57201">
        <ele>232</ele>
        <time>2020-03-04T08:58:17Z</time>
      </trkpt>
      <trkpt lat="46.88697" lon="5.57197">
        <ele>232</ele>
        <time>2020-03-04T08:58:18Z</time>
      </trkpt>
      <trkpt lat="46.88702" lon="5.57193">
        <ele>232</ele>
        <time>2020-03-04T08:58:19Z</time>
      </trkpt>
      <trkpt lat="46.88708" lon="5.57188">
        <ele>232</ele>
        <time>2020-03-04T08:58:20Z</time>
      </trkpt>
      <trkpt lat="46.88713" lon="5.57183">
        <ele>232</ele>
        <time>2020-03-04T08:58:21Z</time>
      </trkpt>
      <trkpt lat="46.88718" lon="5.57179">
        <ele>231.8</ele>
        <time>2020-03-04T08:58:22Z</time>
      </trkpt>
      <trkpt lat="46.88724" lon="5.57174">
        <ele>231.8</ele>
        <time>2020-03-04T08:58:23Z</time>
      </trkpt>
      <trkpt lat="46.88729" lon="5.57169">
        <ele>231.6</ele>
        <time>2020-03-04T08:58:24Z</time>
      </trkpt>
      <trkpt lat="46.88735" lon="5.57164">
        <ele>231.6</ele>
        <time>2020-03-04T08:58:25Z</time>
      </trkpt>
      <trkpt lat="46.8874" lon="5.57159">
        <ele>231.2</ele>
        <time>2020-03-04T08:58:26Z</time>
      </trkpt>
      <trkpt lat="46.88746" lon="5.57154">
        <ele>231.2</ele>
        <time>2020-03-04T08:58:27Z</time>
      </trkpt>
      <trkpt lat="46.88752" lon="5.57149">
        <ele>231</ele>
        <time>2020-03-04T08:58:28Z</time>
      </trkpt>
      <trkpt lat="46.88758" lon="5.57144">
        <ele>231</ele>
        <time>2020-03-04T08:58:29Z</time>
      </trkpt>
      <trkpt lat="46.88764" lon="5.57139">
        <ele>230.6</ele>
        <time>2020-03-04T08:58:30Z</time>
      </trkpt>
      <trkpt lat="46.88771" lon="5.57134">
        <ele>230.6</ele>
        <time>2020-03-04T08:58:31Z</time>
      </trkpt>
      <trkpt lat="46.88777" lon="5.57128">
        <ele>230.2</ele>
        <time>2020-03-04T08:58:32Z</time>
      </trkpt>
      <trkpt lat="46.88784" lon="5.57123">
        <ele>230.2</ele>
        <time>2020-03-04T08:58:33Z</time>
      </trkpt>
      <trkpt lat="46.8879" lon="5.57117">
        <ele>230</ele>
        <time>2020-03-04T08:58:34Z</time>
      </trkpt>
      <trkpt lat="46.88797" lon="5.57112">
        <ele>230</ele>
        <time>2020-03-04T08:58:35Z</time>
      </trkpt>
      <trkpt lat="46.88803" lon="5.57106">
        <ele>229.6</ele>
        <time>2020-03-04T08:58:36Z</time>
      </trkpt>
      <trkpt lat="46.88809" lon="5.571">
        <ele>229.6</ele>
        <time>2020-03-04T08:58:37Z</time>
      </trkpt>
      <trkpt lat="46.88816" lon="5.57095">
        <ele>229.6</ele>
        <time>2020-03-04T08:58:38Z</time>
      </trkpt>
      <trkpt lat="46.88822" lon="5.57089">
        <ele>229.4</ele>
        <time>2020-03-04T08:58:39Z</time>
      </trkpt>
      <trkpt lat="46.88829" lon="5.57084">
        <ele>229.4</ele>
        <time>2020-03-04T08:58:40Z</time>
      </trkpt>
      <trkpt lat="46.88835" lon="5.57079">
        <ele>229.4</ele>
        <time>2020-03-04T08:58:41Z</time>
      </trkpt>
      <trkpt lat="46.88841" lon="5.57074">
        <ele>229.4</ele>
        <time>2020-03-04T08:58:42Z</time>
      </trkpt>
      <trkpt lat="46.88847" lon="5.57068">
        <ele>229.4</ele>
        <time>2020-03-04T08:58:43Z</time>
      </trkpt>
      <trkpt lat="46.88854" lon="5.57063">
        <ele>229.4</ele>
        <time>2020-03-04T08:58:44Z</time>
      </trkpt>
      <trkpt lat="46.8886" lon="5.57058">
        <ele>229.4</ele>
        <time>2020-03-04T08:58:45Z</time>
      </trkpt>
      <trkpt lat="46.88866" lon="5.57052">
        <ele>229.4</ele>
        <time>2020-03-04T08:58:46Z</time>
      </trkpt>
      <trkpt lat="46.88872" lon="5.57047">
        <ele>229.4</ele>
        <time>2020-03-04T08:58:47Z</time>
      </trkpt>
      <trkpt lat="46.88878" lon="5.57042">
        <ele>229.6</ele>
        <time>2020-03-04T08:58:48Z</time>
      </trkpt>
      <trkpt lat="46.88883" lon="5.57037">
        <ele>229.6</ele>
        <time>2020-03-04T08:58:49Z</time>
      </trkpt>
      <trkpt lat="46.88889" lon="5.57032">
        <ele>229.6</ele>
        <time>2020-03-04T08:58:50Z</time>
      </trkpt>
      <trkpt lat="46.88895" lon="5.57027">
        <ele>229.6</ele>
        <time>2020-03-04T08:58:51Z</time>
      </trkpt>
      <trkpt lat="46.88901" lon="5.57022">
        <ele>229.6</ele>
        <time>2020-03-04T08:58:52Z</time>
      </trkpt>
      <trkpt lat="46.88907" lon="5.57017">
        <ele>229.6</ele>
        <time>2020-03-04T08:58:53Z</time>
      </trkpt>
      <trkpt lat="46.88913" lon="5.57011">
        <ele>229.6</ele>
        <time>2020-03-04T08:58:54Z</time>
      </trkpt>
      <trkpt lat="46.88919" lon="5.57006">
        <ele>229.6</ele>
        <time>2020-03-04T08:58:55Z</time>
      </trkpt>
      <trkpt lat="46.88925" lon="5.57001">
        <ele>229.6</ele>
        <time>2020-03-04T08:58:56Z</time>
      </trkpt>
      <trkpt lat="46.88931" lon="5.56996">
        <ele>229.6</ele>
        <time>2020-03-04T08:58:57Z</time>
      </trkpt>
      <trkpt lat="46.88937" lon="5.56991">
        <ele>229.4</ele>
        <time>2020-03-04T08:58:58Z</time>
      </trkpt>
      <trkpt lat="46.88944" lon="5.56985">
        <ele>229.4</ele>
        <time>2020-03-04T08:58:59Z</time>
      </trkpt>
      <trkpt lat="46.8895" lon="5.5698">
        <ele>229.4</ele>
        <time>2020-03-04T08:59:00Z</time>
      </trkpt>
      <trkpt lat="46.88957" lon="5.56974">
        <ele>229.4</ele>
        <time>2020-03-04T08:59:01Z</time>
      </trkpt>
      <trkpt lat="46.88963" lon="5.56968">
        <ele>229.2</ele>
        <time>2020-03-04T08:59:02Z</time>
      </trkpt>
      <trkpt lat="46.8897" lon="5.56963">
        <ele>229.2</ele>
        <time>2020-03-04T08:59:03Z</time>
      </trkpt>
      <trkpt lat="46.88977" lon="5.56957">
        <ele>229.2</ele>
        <time>2020-03-04T08:59:04Z</time>
      </trkpt>
      <trkpt lat="46.88984" lon="5.56951">
        <ele>228.8</ele>
        <time>2020-03-04T08:59:05Z</time>
      </trkpt>
      <trkpt lat="46.88991" lon="5.56945">
        <ele>228.8</ele>
        <time>2020-03-04T08:59:06Z</time>
      </trkpt>
      <trkpt lat="46.88999" lon="5.56939">
        <ele>228.6</ele>
        <time>2020-03-04T08:59:07Z</time>
      </trkpt>
      <trkpt lat="46.89006" lon="5.56932">
        <ele>228.6</ele>
        <time>2020-03-04T08:59:08Z</time>
      </trkpt>
      <trkpt lat="46.89013" lon="5.56926">
        <ele>228.6</ele>
        <time>2020-03-04T08:59:09Z</time>
      </trkpt>
      <trkpt lat="46.8902" lon="5.5692">
        <ele>228.4</ele>
        <time>2020-03-04T08:59:10Z</time>
      </trkpt>
      <trkpt lat="46.89028" lon="5.56914">
        <ele>228.2</ele>
        <time>2020-03-04T08:59:11Z</time>
      </trkpt>
      <trkpt lat="46.89035" lon="5.56907">
        <ele>228.2</ele>
        <time>2020-03-04T08:59:12Z</time>
      </trkpt>
      <trkpt lat="46.89042" lon="5.56901">
        <ele>228.2</ele>
        <time>2020-03-04T08:59:13Z</time>
      </trkpt>
      <trkpt lat="46.89049" lon="5.56895">
        <ele>228.2</ele>
        <time>2020-03-04T08:59:14Z</time>
      </trkpt>
      <trkpt lat="46.89057" lon="5.56889">
        <ele>228.2</ele>
        <time>2020-03-04T08:59:15Z</time>
      </trkpt>
      <trkpt lat="46.89064" lon="5.56883">
        <ele>228.2</ele>
        <time>2020-03-04T08:59:16Z</time>
      </trkpt>
      <trkpt lat="46.89071" lon="5.56877">
        <ele>227.8</ele>
        <time>2020-03-04T08:59:17Z</time>
      </trkpt>
      <trkpt lat="46.89078" lon="5.56871">
        <ele>227.8</ele>
        <time>2020-03-04T08:59:18Z</time>
      </trkpt>
      <trkpt lat="46.89085" lon="5.56865">
        <ele>227.8</ele>
        <time>2020-03-04T08:59:19Z</time>
      </trkpt>
      <trkpt lat="46.89091" lon="5.56859">
        <ele>227.8</ele>
        <time>2020-03-04T08:59:20Z</time>
      </trkpt>
      <trkpt lat="46.89098" lon="5.56854">
        <ele>227.8</ele>
        <time>2020-03-04T08:59:21Z</time>
      </trkpt>
      <trkpt lat="46.89104" lon="5.56848">
        <ele>227.8</ele>
        <time>2020-03-04T08:59:22Z</time>
      </trkpt>
      <trkpt lat="46.89111" lon="5.56842">
        <ele>228.2</ele>
        <time>2020-03-04T08:59:23Z</time>
      </trkpt>
      <trkpt lat="46.89117" lon="5.56837">
        <ele>228.2</ele>
        <time>2020-03-04T08:59:24Z</time>
      </trkpt>
      <trkpt lat="46.89124" lon="5.56831">
        <ele>228.2</ele>
        <time>2020-03-04T08:59:25Z</time>
      </trkpt>
      <trkpt lat="46.8913" lon="5.56826">
        <ele>228.2</ele>
        <time>2020-03-04T08:59:26Z</time>
      </trkpt>
      <trkpt lat="46.89136" lon="5.5682">
        <ele>228.2</ele>
        <time>2020-03-04T08:59:27Z</time>
      </trkpt>
      <trkpt lat="46.89142" lon="5.56815">
        <ele>228.4</ele>
        <time>2020-03-04T08:59:28Z</time>
      </trkpt>
      <trkpt lat="46.89148" lon="5.5681">
        <ele>228.4</ele>
        <time>2020-03-04T08:59:29Z</time>
      </trkpt>
      <trkpt lat="46.89155" lon="5.56804">
        <ele>228.6</ele>
        <time>2020-03-04T08:59:30Z</time>
      </trkpt>
      <trkpt lat="46.89161" lon="5.56799">
        <ele>228.6</ele>
        <time>2020-03-04T08:59:31Z</time>
      </trkpt>
      <trkpt lat="46.89167" lon="5.56794">
        <ele>228.6</ele>
        <time>2020-03-04T08:59:32Z</time>
      </trkpt>
      <trkpt lat="46.89173" lon="5.56789">
        <ele>229</ele>
        <time>2020-03-04T08:59:33Z</time>
      </trkpt>
      <trkpt lat="46.89178" lon="5.56784">
        <ele>229</ele>
        <time>2020-03-04T08:59:34Z</time>
      </trkpt>
      <trkpt lat="46.89184" lon="5.56779">
        <ele>229</ele>
        <time>2020-03-04T08:59:35Z</time>
      </trkpt>
      <trkpt lat="46.8919" lon="5.56775">
        <ele>229</ele>
        <time>2020-03-04T08:59:36Z</time>
      </trkpt>
      <trkpt lat="46.89195" lon="5.5677">
        <ele>229.2</ele>
        <time>2020-03-04T08:59:37Z</time>
      </trkpt>
      <trkpt lat="46.892" lon="5.56765">
        <ele>229.2</ele>
        <time>2020-03-04T08:59:38Z</time>
      </trkpt>
      <trkpt lat="46.89206" lon="5.56761">
        <ele>229.2</ele>
        <time>2020-03-04T08:59:39Z</time>
      </trkpt>
      <trkpt lat="46.89211" lon="5.56756">
        <ele>229.2</ele>
        <time>2020-03-04T08:59:40Z</time>
      </trkpt>
      <trkpt lat="46.89217" lon="5.56752">
        <ele>229.2</ele>
        <time>2020-03-04T08:59:41Z</time>
      </trkpt>
      <trkpt lat="46.89222" lon="5.56747">
        <ele>229.2</ele>
        <time>2020-03-04T08:59:42Z</time>
      </trkpt>
      <trkpt lat="46.89228" lon="5.56743">
        <ele>229.2</ele>
        <time>2020-03-04T08:59:43Z</time>
      </trkpt>
      <trkpt lat="46.89234" lon="5.56739">
        <ele>229.2</ele>
        <time>2020-03-04T08:59:44Z</time>
      </trkpt>
      <trkpt lat="46.8924" lon="5.56735">
        <ele>229.2</ele>
        <time>2020-03-04T08:59:45Z</time>
      </trkpt>
      <trkpt lat="46.89246" lon="5.56731">
        <ele>229.2</ele>
        <time>2020-03-04T08:59:46Z</time>
      </trkpt>
      <trkpt lat="46.89252" lon="5.56727">
        <ele>228.8</ele>
        <time>2020-03-04T08:59:47Z</time>
      </trkpt>
      <trkpt lat="46.89259" lon="5.56724">
        <ele>228.8</ele>
        <time>2020-03-04T08:59:48Z</time>
      </trkpt>
      <trkpt lat="46.89265" lon="5.56721">
        <ele>228.8</ele>
        <time>2020-03-04T08:59:49Z</time>
      </trkpt>
      <trkpt lat="46.89271" lon="5.56718">
        <ele>228.4</ele>
        <time>2020-03-04T08:59:50Z</time>
      </trkpt>
      <trkpt lat="46.89278" lon="5.56714">
        <ele>228.4</ele>
        <time>2020-03-04T08:59:51Z</time>
      </trkpt>
      <trkpt lat="46.89284" lon="5.56711">
        <ele>228.2</ele>
        <time>2020-03-04T08:59:52Z</time>
      </trkpt>
      <trkpt lat="46.89291" lon="5.56707">
        <ele>228.2</ele>
        <time>2020-03-04T08:59:53Z</time>
      </trkpt>
      <trkpt lat="46.89297" lon="5.56704">
        <ele>227.8</ele>
        <time>2020-03-04T08:59:54Z</time>
      </trkpt>
      <trkpt lat="46.89304" lon="5.567">
        <ele>227.8</ele>
        <time>2020-03-04T08:59:55Z</time>
      </trkpt>
      <trkpt lat="46.8931" lon="5.56697">
        <ele>227.2</ele>
        <time>2020-03-04T08:59:56Z</time>
      </trkpt>
      <trkpt lat="46.89316" lon="5.56693">
        <ele>227</ele>
        <time>2020-03-04T08:59:57Z</time>
      </trkpt>
      <trkpt lat="46.89322" lon="5.56689">
        <ele>227</ele>
        <time>2020-03-04T08:59:58Z</time>
      </trkpt>
      <trkpt lat="46.89328" lon="5.56685">
        <ele>227</ele>
        <time>2020-03-04T08:59:59Z</time>
      </trkpt>
      <trkpt lat="46.89333" lon="5.5668">
        <ele>226.8</ele>
        <time>2020-03-04T09:00:00Z</time>
      </trkpt>
      <trkpt lat="46.89338" lon="5.56676">
        <ele>226.8</ele>
        <time>2020-03-04T09:00:01Z</time>
      </trkpt>
      <trkpt lat="46.89344" lon="5.56672">
        <ele>226.6</ele>
        <time>2020-03-04T09:00:02Z</time>
      </trkpt>
      <trkpt lat="46.89349" lon="5.56668">
        <ele>226.6</ele>
        <time>2020-03-04T09:00:03Z</time>
      </trkpt>
      <trkpt lat="46.89354" lon="5.56665">
        <ele>226.6</ele>
        <time>2020-03-04T09:00:04Z</time>
      </trkpt>
      <trkpt lat="46.89359" lon="5.56663">
        <ele>226.6</ele>
        <time>2020-03-04T09:00:05Z</time>
      </trkpt>
      <trkpt lat="46.89364" lon="5.56662">
        <ele>226.6</ele>
        <time>2020-03-04T09:00:06Z</time>
      </trkpt>
      <trkpt lat="46.89368" lon="5.56662">
        <ele>226.6</ele>
        <time>2020-03-04T09:00:07Z</time>
      </trkpt>
      <trkpt lat="46.89372" lon="5.56662">
        <ele>226.6</ele>
        <time>2020-03-04T09:00:08Z</time>
      </trkpt>
      <trkpt lat="46.89377" lon="5.56663">
        <ele>226.6</ele>
        <time>2020-03-04T09:00:09Z</time>
      </trkpt>
      <trkpt lat="46.8938" lon="5.56662">
        <ele>226.6</ele>
        <time>2020-03-04T09:00:10Z</time>
      </trkpt>
      <trkpt lat="46.89383" lon="5.5666">
        <ele>226.6</ele>
        <time>2020-03-04T09:00:11Z</time>
      </trkpt>
      <trkpt lat="46.89386" lon="5.56656">
        <ele>226.6</ele>
        <time>2020-03-04T09:00:12Z</time>
      </trkpt>
      <trkpt lat="46.89388" lon="5.56651">
        <ele>226.2</ele>
        <time>2020-03-04T09:00:13Z</time>
      </trkpt>
      <trkpt lat="46.89389" lon="5.56646">
        <ele>226.2</ele>
        <time>2020-03-04T09:00:14Z</time>
      </trkpt>
      <trkpt lat="46.89391" lon="5.5664">
        <ele>226.2</ele>
        <time>2020-03-04T09:00:15Z</time>
      </trkpt>
      <trkpt lat="46.89394" lon="5.56634">
        <ele>226.2</ele>
        <time>2020-03-04T09:00:16Z</time>
      </trkpt>
      <trkpt lat="46.89396" lon="5.56628">
        <ele>226.2</ele>
        <time>2020-03-04T09:00:17Z</time>
      </trkpt>
      <trkpt lat="46.89398" lon="5.56622">
        <ele>226.2</ele>
        <time>2020-03-04T09:00:18Z</time>
      </trkpt>
      <trkpt lat="46.89401" lon="5.56615">
        <ele>226.2</ele>
        <time>2020-03-04T09:00:19Z</time>
      </trkpt>
      <trkpt lat="46.89404" lon="5.56609">
        <ele>226.2</ele>
        <time>2020-03-04T09:00:20Z</time>
      </trkpt>
      <trkpt lat="46.89407" lon="5.56603">
        <ele>226.4</ele>
        <time>2020-03-04T09:00:21Z</time>
      </trkpt>
      <trkpt lat="46.8941" lon="5.56597">
        <ele>226.4</ele>
        <time>2020-03-04T09:00:22Z</time>
      </trkpt>
      <trkpt lat="46.89414" lon="5.56591">
        <ele>226.4</ele>
        <time>2020-03-04T09:00:23Z</time>
      </trkpt>
      <trkpt lat="46.89417" lon="5.56585">
        <ele>226.4</ele>
        <time>2020-03-04T09:00:24Z</time>
      </trkpt>
      <trkpt lat="46.89421" lon="5.56579">
        <ele>226.4</ele>
        <time>2020-03-04T09:00:25Z</time>
      </trkpt>
      <trkpt lat="46.89424" lon="5.56573">
        <ele>226.4</ele>
        <time>2020-03-04T09:00:26Z</time>
      </trkpt>
      <trkpt lat="46.89427" lon="5.56567">
        <ele>226.6</ele>
        <time>2020-03-04T09:00:27Z</time>
      </trkpt>
      <trkpt lat="46.89431" lon="5.56561">
        <ele>226.6</ele>
        <time>2020-03-04T09:00:28Z</time>
      </trkpt>
      <trkpt lat="46.89434" lon="5.56555">
        <ele>226.6</ele>
        <time>2020-03-04T09:00:29Z</time>
      </trkpt>
      <trkpt lat="46.89438" lon="5.56549">
        <ele>227</ele>
        <time>2020-03-04T09:00:30Z</time>
      </trkpt>
      <trkpt lat="46.89442" lon="5.56544">
        <ele>227</ele>
        <time>2020-03-04T09:00:31Z</time>
      </trkpt>
      <trkpt lat="46.89446" lon="5.56538">
        <ele>227</ele>
        <time>2020-03-04T09:00:32Z</time>
      </trkpt>
      <trkpt lat="46.8945" lon="5.56531">
        <ele>227</ele>
        <time>2020-03-04T09:00:33Z</time>
      </trkpt>
      <trkpt lat="46.89453" lon="5.56524">
        <ele>227.2</ele>
        <time>2020-03-04T09:00:34Z</time>
      </trkpt>
      <trkpt lat="46.89457" lon="5.56517">
        <ele>227.2</ele>
        <time>2020-03-04T09:00:35Z</time>
      </trkpt>
      <trkpt lat="46.89461" lon="5.5651">
        <ele>227.2</ele>
        <time>2020-03-04T09:00:36Z</time>
      </trkpt>
      <trkpt lat="46.89465" lon="5.56504">
        <ele>227.2</ele>
        <time>2020-03-04T09:00:37Z</time>
      </trkpt>
      <trkpt lat="46.89469" lon="5.56497">
        <ele>227.4</ele>
        <time>2020-03-04T09:00:38Z</time>
      </trkpt>
      <trkpt lat="46.89473" lon="5.5649">
        <ele>227.4</ele>
        <time>2020-03-04T09:00:39Z</time>
      </trkpt>
      <trkpt lat="46.89476" lon="5.56483">
        <ele>227.4</ele>
        <time>2020-03-04T09:00:40Z</time>
      </trkpt>
      <trkpt lat="46.8948" lon="5.56476">
        <ele>227.8</ele>
        <time>2020-03-04T09:00:41Z</time>
      </trkpt>
      <trkpt lat="46.89484" lon="5.5647">
        <ele>227.8</ele>
        <time>2020-03-04T09:00:42Z</time>
      </trkpt>
      <trkpt lat="46.89488" lon="5.56463">
        <ele>228</ele>
        <time>2020-03-04T09:00:43Z</time>
      </trkpt>
      <trkpt lat="46.89492" lon="5.56457">
        <ele>228</ele>
        <time>2020-03-04T09:00:44Z</time>
      </trkpt>
      <trkpt lat="46.89496" lon="5.5645">
        <ele>228</ele>
        <time>2020-03-04T09:00:45Z</time>
      </trkpt>
      <trkpt lat="46.89499" lon="5.56443">
        <ele>228.2</ele>
        <time>2020-03-04T09:00:46Z</time>
      </trkpt>
      <trkpt lat="46.89503" lon="5.56437">
        <ele>228.2</ele>
        <time>2020-03-04T09:00:47Z</time>
      </trkpt>
      <trkpt lat="46.89506" lon="5.5643">
        <ele>228.6</ele>
        <time>2020-03-04T09:00:48Z</time>
      </trkpt>
      <trkpt lat="46.8951" lon="5.56424">
        <ele>228.6</ele>
        <time>2020-03-04T09:00:49Z</time>
      </trkpt>
      <trkpt lat="46.89514" lon="5.56417">
        <ele>228.8</ele>
        <time>2020-03-04T09:00:50Z</time>
      </trkpt>
      <trkpt lat="46.89517" lon="5.56411">
        <ele>228.8</ele>
        <time>2020-03-04T09:00:51Z</time>
      </trkpt>
      <trkpt lat="46.89521" lon="5.56405">
        <ele>229.2</ele>
        <time>2020-03-04T09:00:52Z</time>
      </trkpt>
      <trkpt lat="46.89524" lon="5.56399">
        <ele>229.2</ele>
        <time>2020-03-04T09:00:53Z</time>
      </trkpt>
      <trkpt lat="46.89528" lon="5.56393">
        <ele>229.6</ele>
        <time>2020-03-04T09:00:54Z</time>
      </trkpt>
      <trkpt lat="46.89531" lon="5.56387">
        <ele>229.8</ele>
        <time>2020-03-04T09:00:55Z</time>
      </trkpt>
      <trkpt lat="46.89534" lon="5.56381">
        <ele>229.8</ele>
        <time>2020-03-04T09:00:56Z</time>
      </trkpt>
      <trkpt lat="46.89537" lon="5.56376">
        <ele>230.2</ele>
        <time>2020-03-04T09:00:57Z</time>
      </trkpt>
      <trkpt lat="46.8954" lon="5.56371">
        <ele>230.2</ele>
        <time>2020-03-04T09:00:58Z</time>
      </trkpt>
      <trkpt lat="46.89543" lon="5.56366">
        <ele>230.2</ele>
        <time>2020-03-04T09:00:59Z</time>
      </trkpt>
      <trkpt lat="46.89545" lon="5.56362">
        <ele>230.8</ele>
        <time>2020-03-04T09:01:00Z</time>
      </trkpt>
      <trkpt lat="46.89548" lon="5.56357">
        <ele>230.8</ele>
        <time>2020-03-04T09:01:01Z</time>
      </trkpt>
      <trkpt lat="46.8955" lon="5.56353">
        <ele>230.8</ele>
        <time>2020-03-04T09:01:02Z</time>
      </trkpt>
      <trkpt lat="46.89552" lon="5.56348">
        <ele>231</ele>
        <time>2020-03-04T09:01:03Z</time>
      </trkpt>
      <trkpt lat="46.89554" lon="5.56344">
        <ele>231.2</ele>
        <time>2020-03-04T09:01:04Z</time>
      </trkpt>
      <trkpt lat="46.89556" lon="5.5634">
        <ele>231.2</ele>
        <time>2020-03-04T09:01:05Z</time>
      </trkpt>
      <trkpt lat="46.89558" lon="5.56336">
        <ele>231.6</ele>
        <time>2020-03-04T09:01:06Z</time>
      </trkpt>
      <trkpt lat="46.89561" lon="5.56332">
        <ele>231.6</ele>
        <time>2020-03-04T09:01:07Z</time>
      </trkpt>
      <trkpt lat="46.89563" lon="5.56328">
        <ele>232</ele>
        <time>2020-03-04T09:01:08Z</time>
      </trkpt>
      <trkpt lat="46.89565" lon="5.56324">
        <ele>232</ele>
        <time>2020-03-04T09:01:09Z</time>
      </trkpt>
      <trkpt lat="46.89568" lon="5.5632">
        <ele>232.2</ele>
        <time>2020-03-04T09:01:10Z</time>
      </trkpt>
      <trkpt lat="46.8957" lon="5.56316">
        <ele>232.2</ele>
        <time>2020-03-04T09:01:11Z</time>
      </trkpt>
      <trkpt lat="46.89572" lon="5.56311">
        <ele>232.2</ele>
        <time>2020-03-04T09:01:12Z</time>
      </trkpt>
      <trkpt lat="46.89573" lon="5.56307">
        <ele>232.6</ele>
        <time>2020-03-04T09:01:13Z</time>
      </trkpt>
      <trkpt lat="46.89574" lon="5.56302">
        <ele>232.6</ele>
        <time>2020-03-04T09:01:14Z</time>
      </trkpt>
      <trkpt lat="46.89576" lon="5.56298">
        <ele>232.8</ele>
        <time>2020-03-04T09:01:15Z</time>
      </trkpt>
      <trkpt lat="46.89577" lon="5.56294">
        <ele>232.8</ele>
        <time>2020-03-04T09:01:16Z</time>
      </trkpt>
      <trkpt lat="46.89577" lon="5.56289">
        <ele>233</ele>
        <time>2020-03-04T09:01:17Z</time>
      </trkpt>
      <trkpt lat="46.89576" lon="5.56285">
        <ele>233</ele>
        <time>2020-03-04T09:01:18Z</time>
      </trkpt>
      <trkpt lat="46.89575" lon="5.56281">
        <ele>233.4</ele>
        <time>2020-03-04T09:01:19Z</time>
      </trkpt>
      <trkpt lat="46.89572" lon="5.56277">
        <ele>233.4</ele>
        <time>2020-03-04T09:01:20Z</time>
      </trkpt>
      <trkpt lat="46.8957" lon="5.56274">
        <ele>233.6</ele>
        <time>2020-03-04T09:01:21Z</time>
      </trkpt>
      <trkpt lat="46.89567" lon="5.56271">
        <ele>233.6</ele>
        <time>2020-03-04T09:01:22Z</time>
      </trkpt>
      <trkpt lat="46.89565" lon="5.56267">
        <ele>233.6</ele>
        <time>2020-03-04T09:01:23Z</time>
      </trkpt>
      <trkpt lat="46.89562" lon="5.56264">
        <ele>233.6</ele>
        <time>2020-03-04T09:01:24Z</time>
      </trkpt>
      <trkpt lat="46.89559" lon="5.56261">
        <ele>233.8</ele>
        <time>2020-03-04T09:01:25Z</time>
      </trkpt>
      <trkpt lat="46.89557" lon="5.56257">
        <ele>233.8</ele>
        <time>2020-03-04T09:01:26Z</time>
      </trkpt>
      <trkpt lat="46.89554" lon="5.56254">
        <ele>233.8</ele>
        <time>2020-03-04T09:01:27Z</time>
      </trkpt>
      <trkpt lat="46.89551" lon="5.56251">
        <ele>233.8</ele>
        <time>2020-03-04T09:01:28Z</time>
      </trkpt>
      <trkpt lat="46.89548" lon="5.56247">
        <ele>234</ele>
        <time>2020-03-04T09:01:29Z</time>
      </trkpt>
      <trkpt lat="46.89546" lon="5.56244">
        <ele>234</ele>
        <time>2020-03-04T09:01:30Z</time>
      </trkpt>
      <trkpt lat="46.89543" lon="5.56241">
        <ele>234</ele>
        <time>2020-03-04T09:01:31Z</time>
      </trkpt>
      <trkpt lat="46.8954" lon="5.56237">
        <ele>234.2</ele>
        <time>2020-03-04T09:01:32Z</time>
      </trkpt>
      <trkpt lat="46.89537" lon="5.56234">
        <ele>234.2</ele>
        <time>2020-03-04T09:01:33Z</time>
      </trkpt>
      <trkpt lat="46.89534" lon="5.56231">
        <ele>234.2</ele>
        <time>2020-03-04T09:01:34Z</time>
      </trkpt>
      <trkpt lat="46.89531" lon="5.56227">
        <ele>234.4</ele>
        <time>2020-03-04T09:01:35Z</time>
      </trkpt>
      <trkpt lat="46.89528" lon="5.56223">
        <ele>234.4</ele>
        <time>2020-03-04T09:01:36Z</time>
      </trkpt>
      <trkpt lat="46.89525" lon="5.56219">
        <ele>234.4</ele>
        <time>2020-03-04T09:01:37Z</time>
      </trkpt>
      <trkpt lat="46.89521" lon="5.56215">
        <ele>234.4</ele>
        <time>2020-03-04T09:01:38Z</time>
      </trkpt>
      <trkpt lat="46.89518" lon="5.56211">
        <ele>234.4</ele>
        <time>2020-03-04T09:01:39Z</time>
      </trkpt>
      <trkpt lat="46.89515" lon="5.56207">
        <ele>234.4</ele>
        <time>2020-03-04T09:01:40Z</time>
      </trkpt>
      <trkpt lat="46.89511" lon="5.56203">
        <ele>234.4</ele>
        <time>2020-03-04T09:01:41Z</time>
      </trkpt>
      <trkpt lat="46.89508" lon="5.56199">
        <ele>234.4</ele>
        <time>2020-03-04T09:01:42Z</time>
      </trkpt>
      <trkpt lat="46.89505" lon="5.56195">
        <ele>234.4</ele>
        <time>2020-03-04T09:01:43Z</time>
      </trkpt>
      <trkpt lat="46.89501" lon="5.5619">
        <ele>234.4</ele>
        <time>2020-03-04T09:01:44Z</time>
      </trkpt>
      <trkpt lat="46.89498" lon="5.56186">
        <ele>234.6</ele>
        <time>2020-03-04T09:01:45Z</time>
      </trkpt>
      <trkpt lat="46.89494" lon="5.56181">
        <ele>234.6</ele>
        <time>2020-03-04T09:01:46Z</time>
      </trkpt>
      <trkpt lat="46.89491" lon="5.56177">
        <ele>234.6</ele>
        <time>2020-03-04T09:01:47Z</time>
      </trkpt>
      <trkpt lat="46.89487" lon="5.56172">
        <ele>234.6</ele>
        <time>2020-03-04T09:01:48Z</time>
      </trkpt>
      <trkpt lat="46.89484" lon="5.56167">
        <ele>234.6</ele>
        <time>2020-03-04T09:01:49Z</time>
      </trkpt>
      <trkpt lat="46.89481" lon="5.56163">
        <ele>234.6</ele>
        <time>2020-03-04T09:01:50Z</time>
      </trkpt>
      <trkpt lat="46.89478" lon="5.56158">
        <ele>235</ele>
        <time>2020-03-04T09:01:51Z</time>
      </trkpt>
      <trkpt lat="46.89474" lon="5.56153">
        <ele>235</ele>
        <time>2020-03-04T09:01:52Z</time>
      </trkpt>
      <trkpt lat="46.89471" lon="5.56147">
        <ele>235</ele>
        <time>2020-03-04T09:01:53Z</time>
      </trkpt>
      <trkpt lat="46.89467" lon="5.56142">
        <ele>235</ele>
        <time>2020-03-04T09:01:54Z</time>
      </trkpt>
      <trkpt lat="46.89464" lon="5.56137">
        <ele>235.2</ele>
        <time>2020-03-04T09:01:55Z</time>
      </trkpt>
      <trkpt lat="46.89461" lon="5.56133">
        <ele>235.2</ele>
        <time>2020-03-04T09:01:56Z</time>
      </trkpt>
      <trkpt lat="46.89457" lon="5.56128">
        <ele>235.2</ele>
        <time>2020-03-04T09:01:57Z</time>
      </trkpt>
      <trkpt lat="46.89454" lon="5.56123">
        <ele>235.2</ele>
        <time>2020-03-04T09:01:58Z</time>
      </trkpt>
      <trkpt lat="46.8945" lon="5.56118">
        <ele>235.2</ele>
        <time>2020-03-04T09:01:59Z</time>
      </trkpt>
      <trkpt lat="46.89447" lon="5.56113">
        <ele>235.2</ele>
        <time>2020-03-04T09:02:00Z</time>
      </trkpt>
      <trkpt lat="46.89443" lon="5.56109">
        <ele>235.2</ele>
        <time>2020-03-04T09:02:01Z</time>
      </trkpt>
      <trkpt lat="46.8944" lon="5.56104">
        <ele>235.2</ele>
        <time>2020-03-04T09:02:02Z</time>
      </trkpt>
      <trkpt lat="46.89437" lon="5.56099">
        <ele>235.4</ele>
        <time>2020-03-04T09:02:03Z</time>
      </trkpt>
      <trkpt lat="46.89433" lon="5.56094">
        <ele>235.4</ele>
        <time>2020-03-04T09:02:04Z</time>
      </trkpt>
      <trkpt lat="46.8943" lon="5.56089">
        <ele>235.4</ele>
        <time>2020-03-04T09:02:05Z</time>
      </trkpt>
      <trkpt lat="46.89426" lon="5.56084">
        <ele>235.8</ele>
        <time>2020-03-04T09:02:06Z</time>
      </trkpt>
      <trkpt lat="46.89422" lon="5.56079">
        <ele>235.8</ele>
        <time>2020-03-04T09:02:07Z</time>
      </trkpt>
      <trkpt lat="46.89419" lon="5.56073">
        <ele>235.8</ele>
        <time>2020-03-04T09:02:08Z</time>
      </trkpt>
      <trkpt lat="46.89415" lon="5.56068">
        <ele>236</ele>
        <time>2020-03-04T09:02:09Z</time>
      </trkpt>
      <trkpt lat="46.89411" lon="5.56063">
        <ele>236</ele>
        <time>2020-03-04T09:02:10Z</time>
      </trkpt>
      <trkpt lat="46.89407" lon="5.56058">
        <ele>236</ele>
        <time>2020-03-04T09:02:11Z</time>
      </trkpt>
      <trkpt lat="46.89404" lon="5.56052">
        <ele>236.2</ele>
        <time>2020-03-04T09:02:12Z</time>
      </trkpt>
      <trkpt lat="46.894" lon="5.56047">
        <ele>236.2</ele>
        <time>2020-03-04T09:02:13Z</time>
      </trkpt>
      <trkpt lat="46.89396" lon="5.56042">
        <ele>236.2</ele>
        <time>2020-03-04T09:02:14Z</time>
      </trkpt>
      <trkpt lat="46.89392" lon="5.56037">
        <ele>236.2</ele>
        <time>2020-03-04T09:02:15Z</time>
      </trkpt>
      <trkpt lat="46.89389" lon="5.56032">
        <ele>236.2</ele>
        <time>2020-03-04T09:02:16Z</time>
      </trkpt>
      <trkpt lat="46.89385" lon="5.56026">
        <ele>236.4</ele>
        <time>2020-03-04T09:02:17Z</time>
      </trkpt>
      <trkpt lat="46.89382" lon="5.56021">
        <ele>236.4</ele>
        <time>2020-03-04T09:02:18Z</time>
      </trkpt>
      <trkpt lat="46.89378" lon="5.56016">
        <ele>236.4</ele>
        <time>2020-03-04T09:02:19Z</time>
      </trkpt>
      <trkpt lat="46.89374" lon="5.56011">
        <ele>236.6</ele>
        <time>2020-03-04T09:02:20Z</time>
      </trkpt>
      <trkpt lat="46.89371" lon="5.56007">
        <ele>236.6</ele>
        <time>2020-03-04T09:02:21Z</time>
      </trkpt>
      <trkpt lat="46.89368" lon="5.56002">
        <ele>236.6</ele>
        <time>2020-03-04T09:02:22Z</time>
      </trkpt>
      <trkpt lat="46.89364" lon="5.55997">
        <ele>236.6</ele>
        <time>2020-03-04T09:02:23Z</time>
      </trkpt>
      <trkpt lat="46.89361" lon="5.55993">
        <ele>237</ele>
        <time>2020-03-04T09:02:24Z</time>
      </trkpt>
      <trkpt lat="46.89358" lon="5.55988">
        <ele>237</ele>
        <time>2020-03-04T09:02:25Z</time>
      </trkpt>
      <trkpt lat="46.89354" lon="5.55984">
        <ele>237</ele>
        <time>2020-03-04T09:02:26Z</time>
      </trkpt>
      <trkpt lat="46.89351" lon="5.55979">
        <ele>237</ele>
        <time>2020-03-04T09:02:27Z</time>
      </trkpt>
      <trkpt lat="46.89347" lon="5.55974">
        <ele>237</ele>
        <time>2020-03-04T09:02:28Z</time>
      </trkpt>
      <trkpt lat="46.89343" lon="5.55969">
        <ele>237</ele>
        <time>2020-03-04T09:02:29Z</time>
      </trkpt>
      <trkpt lat="46.8934" lon="5.55964">
        <ele>237</ele>
        <time>2020-03-04T09:02:30Z</time>
      </trkpt>
      <trkpt lat="46.89336" lon="5.55959">
        <ele>237</ele>
        <time>2020-03-04T09:02:31Z</time>
      </trkpt>
      <trkpt lat="46.89333" lon="5.55954">
        <ele>237</ele>
        <time>2020-03-04T09:02:32Z</time>
      </trkpt>
      <trkpt lat="46.89329" lon="5.55949">
        <ele>237</ele>
        <time>2020-03-04T09:02:33Z</time>
      </trkpt>
      <trkpt lat="46.89326" lon="5.55943">
        <ele>237</ele>
        <time>2020-03-04T09:02:34Z</time>
      </trkpt>
      <trkpt lat="46.89322" lon="5.55938">
        <ele>237</ele>
        <time>2020-03-04T09:02:35Z</time>
      </trkpt>
      <trkpt lat="46.89318" lon="5.55932">
        <ele>237</ele>
        <time>2020-03-04T09:02:36Z</time>
      </trkpt>
      <trkpt lat="46.89315" lon="5.55927">
        <ele>237</ele>
        <time>2020-03-04T09:02:37Z</time>
      </trkpt>
      <trkpt lat="46.89311" lon="5.55921">
        <ele>237</ele>
        <time>2020-03-04T09:02:38Z</time>
      </trkpt>
      <trkpt lat="46.89308" lon="5.55916">
        <ele>237.2</ele>
        <time>2020-03-04T09:02:39Z</time>
      </trkpt>
      <trkpt lat="46.89305" lon="5.5591">
        <ele>237.2</ele>
        <time>2020-03-04T09:02:40Z</time>
      </trkpt>
      <trkpt lat="46.89301" lon="5.55905">
        <ele>237.2</ele>
        <time>2020-03-04T09:02:41Z</time>
      </trkpt>
      <trkpt lat="46.89297" lon="5.55899">
        <ele>237.2</ele>
        <time>2020-03-04T09:02:42Z</time>
      </trkpt>
      <trkpt lat="46.89294" lon="5.55894">
        <ele>237.2</ele>
        <time>2020-03-04T09:02:43Z</time>
      </trkpt>
      <trkpt lat="46.8929" lon="5.55888">
        <ele>237.2</ele>
        <time>2020-03-04T09:02:44Z</time>
      </trkpt>
      <trkpt lat="46.89287" lon="5.55882">
        <ele>237.2</ele>
        <time>2020-03-04T09:02:45Z</time>
      </trkpt>
      <trkpt lat="46.89284" lon="5.55876">
        <ele>237.2</ele>
        <time>2020-03-04T09:02:46Z</time>
      </trkpt>
      <trkpt lat="46.8928" lon="5.55871">
        <ele>237.2</ele>
        <time>2020-03-04T09:02:47Z</time>
      </trkpt>
      <trkpt lat="46.89277" lon="5.55865">
        <ele>237.2</ele>
        <time>2020-03-04T09:02:48Z</time>
      </trkpt>
      <trkpt lat="46.89274" lon="5.5586">
        <ele>237.2</ele>
        <time>2020-03-04T09:02:49Z</time>
      </trkpt>
      <trkpt lat="46.8927" lon="5.55854">
        <ele>237.2</ele>
        <time>2020-03-04T09:02:50Z</time>
      </trkpt>
      <trkpt lat="46.89267" lon="5.55849">
        <ele>237.4</ele>
        <time>2020-03-04T09:02:51Z</time>
      </trkpt>
      <trkpt lat="46.89264" lon="5.55843">
        <ele>237.4</ele>
        <time>2020-03-04T09:02:52Z</time>
      </trkpt>
      <trkpt lat="46.8926" lon="5.55838">
        <ele>237.4</ele>
        <time>2020-03-04T09:02:53Z</time>
      </trkpt>
      <trkpt lat="46.89257" lon="5.55832">
        <ele>237.4</ele>
        <time>2020-03-04T09:02:54Z</time>
      </trkpt>
      <trkpt lat="46.89254" lon="5.55827">
        <ele>237.4</ele>
        <time>2020-03-04T09:02:55Z</time>
      </trkpt>
      <trkpt lat="46.89251" lon="5.55822">
        <ele>237.4</ele>
        <time>2020-03-04T09:02:56Z</time>
      </trkpt>
      <trkpt lat="46.89247" lon="5.55816">
        <ele>237.6</ele>
        <time>2020-03-04T09:02:57Z</time>
      </trkpt>
      <trkpt lat="46.89244" lon="5.55811">
        <ele>237.6</ele>
        <time>2020-03-04T09:02:58Z</time>
      </trkpt>
      <trkpt lat="46.89241" lon="5.55806">
        <ele>237.6</ele>
        <time>2020-03-04T09:02:59Z</time>
      </trkpt>
      <trkpt lat="46.89238" lon="5.55801">
        <ele>237.8</ele>
        <time>2020-03-04T09:03:00Z</time>
      </trkpt>
      <trkpt lat="46.89235" lon="5.55795">
        <ele>237.8</ele>
        <time>2020-03-04T09:03:01Z</time>
      </trkpt>
      <trkpt lat="46.89231" lon="5.5579">
        <ele>237.8</ele>
        <time>2020-03-04T09:03:02Z</time>
      </trkpt>
      <trkpt lat="46.89228" lon="5.55785">
        <ele>238.2</ele>
        <time>2020-03-04T09:03:03Z</time>
      </trkpt>
      <trkpt lat="46.89225" lon="5.55779">
        <ele>238.2</ele>
        <time>2020-03-04T09:03:04Z</time>
      </trkpt>
      <trkpt lat="46.89222" lon="5.55774">
        <ele>238.2</ele>
        <time>2020-03-04T09:03:05Z</time>
      </trkpt>
      <trkpt lat="46.89219" lon="5.55768">
        <ele>238.2</ele>
        <time>2020-03-04T09:03:06Z</time>
      </trkpt>
      <trkpt lat="46.89217" lon="5.55763">
        <ele>238.4</ele>
        <time>2020-03-04T09:03:07Z</time>
      </trkpt>
      <trkpt lat="46.89214" lon="5.55758">
        <ele>238.4</ele>
        <time>2020-03-04T09:03:08Z</time>
      </trkpt>
      <trkpt lat="46.89211" lon="5.55752">
        <ele>238.4</ele>
        <time>2020-03-04T09:03:09Z</time>
      </trkpt>
      <trkpt lat="46.89209" lon="5.55747">
        <ele>238.8</ele>
        <time>2020-03-04T09:03:10Z</time>
      </trkpt>
      <trkpt lat="46.89206" lon="5.55743">
        <ele>238.8</ele>
        <time>2020-03-04T09:03:11Z</time>
      </trkpt>
      <trkpt lat="46.89203" lon="5.55739">
        <ele>239</ele>
        <time>2020-03-04T09:03:12Z</time>
      </trkpt>
      <trkpt lat="46.892" lon="5.55735">
        <ele>239.2</ele>
        <time>2020-03-04T09:03:13Z</time>
      </trkpt>
      <trkpt lat="46.89198" lon="5.55732">
        <ele>239.2</ele>
        <time>2020-03-04T09:03:14Z</time>
      </trkpt>
      <trkpt lat="46.89195" lon="5.55728">
        <ele>239.2</ele>
        <time>2020-03-04T09:03:15Z</time>
      </trkpt>
      <trkpt lat="46.89192" lon="5.55724">
        <ele>239.6</ele>
        <time>2020-03-04T09:03:16Z</time>
      </trkpt>
      <trkpt lat="46.8919" lon="5.55721">
        <ele>239.6</ele>
        <time>2020-03-04T09:03:17Z</time>
      </trkpt>
      <trkpt lat="46.89187" lon="5.55716">
        <ele>239.8</ele>
        <time>2020-03-04T09:03:18Z</time>
      </trkpt>
      <trkpt lat="46.89184" lon="5.55712">
        <ele>239.8</ele>
        <time>2020-03-04T09:03:19Z</time>
      </trkpt>
      <trkpt lat="46.89181" lon="5.55707">
        <ele>240.2</ele>
        <time>2020-03-04T09:03:20Z</time>
      </trkpt>
      <trkpt lat="46.89179" lon="5.55702">
        <ele>240.2</ele>
        <time>2020-03-04T09:03:21Z</time>
      </trkpt>
      <trkpt lat="46.89176" lon="5.55697">
        <ele>240.6</ele>
        <time>2020-03-04T09:03:22Z</time>
      </trkpt>
      <trkpt lat="46.89173" lon="5.55693">
        <ele>240.8</ele>
        <time>2020-03-04T09:03:23Z</time>
      </trkpt>
      <trkpt lat="46.8917" lon="5.55688">
        <ele>240.8</ele>
        <time>2020-03-04T09:03:24Z</time>
      </trkpt>
      <trkpt lat="46.89168" lon="5.55683">
        <ele>240.8</ele>
        <time>2020-03-04T09:03:25Z</time>
      </trkpt>
      <trkpt lat="46.89165" lon="5.55678">
        <ele>241</ele>
        <time>2020-03-04T09:03:26Z</time>
      </trkpt>
      <trkpt lat="46.89163" lon="5.55673">
        <ele>241</ele>
        <time>2020-03-04T09:03:27Z</time>
      </trkpt>
      <trkpt lat="46.89161" lon="5.55668">
        <ele>241.2</ele>
        <time>2020-03-04T09:03:28Z</time>
      </trkpt>
      <trkpt lat="46.89158" lon="5.55662">
        <ele>241.2</ele>
        <time>2020-03-04T09:03:29Z</time>
      </trkpt>
      <trkpt lat="46.89156" lon="5.55656">
        <ele>241.2</ele>
        <time>2020-03-04T09:03:30Z</time>
      </trkpt>
      <trkpt lat="46.89154" lon="5.5565">
        <ele>241.2</ele>
        <time>2020-03-04T09:03:31Z</time>
      </trkpt>
      <trkpt lat="46.89152" lon="5.55644">
        <ele>241.2</ele>
        <time>2020-03-04T09:03:32Z</time>
      </trkpt>
      <trkpt lat="46.8915" lon="5.55639">
        <ele>241.2</ele>
        <time>2020-03-04T09:03:33Z</time>
      </trkpt>
      <trkpt lat="46.89147" lon="5.55633">
        <ele>241.2</ele>
        <time>2020-03-04T09:03:34Z</time>
      </trkpt>
      <trkpt lat="46.89145" lon="5.55627">
        <ele>241.2</ele>
        <time>2020-03-04T09:03:35Z</time>
      </trkpt>
      <trkpt lat="46.89143" lon="5.55621">
        <ele>241.2</ele>
        <time>2020-03-04T09:03:36Z</time>
      </trkpt>
      <trkpt lat="46.8914" lon="5.55614">
        <ele>241.2</ele>
        <time>2020-03-04T09:03:37Z</time>
      </trkpt>
      <trkpt lat="46.89138" lon="5.55608">
        <ele>241.4</ele>
        <time>2020-03-04T09:03:38Z</time>
      </trkpt>
      <trkpt lat="46.89135" lon="5.55602">
        <ele>241.4</ele>
        <time>2020-03-04T09:03:39Z</time>
      </trkpt>
      <trkpt lat="46.89133" lon="5.55596">
        <ele>241.4</ele>
        <time>2020-03-04T09:03:40Z</time>
      </trkpt>
      <trkpt lat="46.8913" lon="5.55589">
        <ele>241.4</ele>
        <time>2020-03-04T09:03:41Z</time>
      </trkpt>
      <trkpt lat="46.89127" lon="5.55583">
        <ele>241.4</ele>
        <time>2020-03-04T09:03:42Z</time>
      </trkpt>
      <trkpt lat="46.89124" lon="5.55576">
        <ele>241.4</ele>
        <time>2020-03-04T09:03:43Z</time>
      </trkpt>
      <trkpt lat="46.89121" lon="5.5557">
        <ele>241.4</ele>
        <time>2020-03-04T09:03:44Z</time>
      </trkpt>
      <trkpt lat="46.89118" lon="5.55563">
        <ele>241.4</ele>
        <time>2020-03-04T09:03:45Z</time>
      </trkpt>
      <trkpt lat="46.89115" lon="5.55557">
        <ele>241.4</ele>
        <time>2020-03-04T09:03:46Z</time>
      </trkpt>
      <trkpt lat="46.89113" lon="5.5555">
        <ele>241.4</ele>
        <time>2020-03-04T09:03:47Z</time>
      </trkpt>
      <trkpt lat="46.8911" lon="5.55543">
        <ele>241.4</ele>
        <time>2020-03-04T09:03:48Z</time>
      </trkpt>
      <trkpt lat="46.89107" lon="5.55536">
        <ele>241.4</ele>
        <time>2020-03-04T09:03:49Z</time>
      </trkpt>
      <trkpt lat="46.89104" lon="5.55529">
        <ele>241.2</ele>
        <time>2020-03-04T09:03:50Z</time>
      </trkpt>
      <trkpt lat="46.89101" lon="5.55522">
        <ele>241.2</ele>
        <time>2020-03-04T09:03:51Z</time>
      </trkpt>
      <trkpt lat="46.89098" lon="5.55516">
        <ele>241</ele>
        <time>2020-03-04T09:03:52Z</time>
      </trkpt>
      <trkpt lat="46.89095" lon="5.55508">
        <ele>241</ele>
        <time>2020-03-04T09:03:53Z</time>
      </trkpt>
      <trkpt lat="46.89092" lon="5.55502">
        <ele>241</ele>
        <time>2020-03-04T09:03:54Z</time>
      </trkpt>
      <trkpt lat="46.89089" lon="5.55495">
        <ele>240.6</ele>
        <time>2020-03-04T09:03:55Z</time>
      </trkpt>
      <trkpt lat="46.89087" lon="5.55488">
        <ele>240.6</ele>
        <time>2020-03-04T09:03:56Z</time>
      </trkpt>
      <trkpt lat="46.89085" lon="5.55481">
        <ele>240.4</ele>
        <time>2020-03-04T09:03:57Z</time>
      </trkpt>
      <trkpt lat="46.89081" lon="5.55474">
        <ele>240.4</ele>
        <time>2020-03-04T09:03:58Z</time>
      </trkpt>
      <trkpt lat="46.89079" lon="5.55467">
        <ele>240.2</ele>
        <time>2020-03-04T09:03:59Z</time>
      </trkpt>
      <trkpt lat="46.89075" lon="5.5546">
        <ele>240.2</ele>
        <time>2020-03-04T09:04:00Z</time>
      </trkpt>
      <trkpt lat="46.89072" lon="5.55452">
        <ele>239.8</ele>
        <time>2020-03-04T09:04:01Z</time>
      </trkpt>
      <trkpt lat="46.89069" lon="5.55443">
        <ele>239.8</ele>
        <time>2020-03-04T09:04:02Z</time>
      </trkpt>
      <trkpt lat="46.89066" lon="5.55434">
        <ele>239.4</ele>
        <time>2020-03-04T09:04:03Z</time>
      </trkpt>
      <trkpt lat="46.89062" lon="5.55426">
        <ele>239.2</ele>
        <time>2020-03-04T09:04:04Z</time>
      </trkpt>
      <trkpt lat="46.89058" lon="5.55416">
        <ele>239.2</ele>
        <time>2020-03-04T09:04:05Z</time>
      </trkpt>
      <trkpt lat="46.89054" lon="5.55407">
        <ele>238.8</ele>
        <time>2020-03-04T09:04:06Z</time>
      </trkpt>
      <trkpt lat="46.8905" lon="5.55398">
        <ele>238.8</ele>
        <time>2020-03-04T09:04:07Z</time>
      </trkpt>
      <trkpt lat="46.89045" lon="5.5539">
        <ele>238.6</ele>
        <time>2020-03-04T09:04:08Z</time>
      </trkpt>
      <trkpt lat="46.89041" lon="5.55382">
        <ele>238.6</ele>
        <time>2020-03-04T09:04:09Z</time>
      </trkpt>
      <trkpt lat="46.89036" lon="5.55374">
        <ele>238.2</ele>
        <time>2020-03-04T09:04:10Z</time>
      </trkpt>
      <trkpt lat="46.89031" lon="5.55367">
        <ele>238.2</ele>
        <time>2020-03-04T09:04:11Z</time>
      </trkpt>
      <trkpt lat="46.89025" lon="5.5536">
        <ele>237.8</ele>
        <time>2020-03-04T09:04:12Z</time>
      </trkpt>
      <trkpt lat="46.89018" lon="5.55353">
        <ele>237.6</ele>
        <time>2020-03-04T09:04:13Z</time>
      </trkpt>
      <trkpt lat="46.89012" lon="5.55346">
        <ele>237.2</ele>
        <time>2020-03-04T09:04:14Z</time>
      </trkpt>
      <trkpt lat="46.89006" lon="5.55339">
        <ele>237</ele>
        <time>2020-03-04T09:04:15Z</time>
      </trkpt>
      <trkpt lat="46.88999" lon="5.55332">
        <ele>236.6</ele>
        <time>2020-03-04T09:04:16Z</time>
      </trkpt>
      <trkpt lat="46.88993" lon="5.55326">
        <ele>236</ele>
        <time>2020-03-04T09:04:17Z</time>
      </trkpt>
      <trkpt lat="46.88986" lon="5.55318">
        <ele>235.6</ele>
        <time>2020-03-04T09:04:18Z</time>
      </trkpt>
      <trkpt lat="46.88979" lon="5.55311">
        <ele>235.2</ele>
        <time>2020-03-04T09:04:19Z</time>
      </trkpt>
      <trkpt lat="46.88972" lon="5.55304">
        <ele>235</ele>
        <time>2020-03-04T09:04:20Z</time>
      </trkpt>
      <trkpt lat="46.88964" lon="5.55297">
        <ele>234.6</ele>
        <time>2020-03-04T09:04:21Z</time>
      </trkpt>
      <trkpt lat="46.88957" lon="5.55291">
        <ele>234.6</ele>
        <time>2020-03-04T09:04:22Z</time>
      </trkpt>
      <trkpt lat="46.8895" lon="5.55285">
        <ele>234.2</ele>
        <time>2020-03-04T09:04:23Z</time>
      </trkpt>
      <trkpt lat="46.88943" lon="5.55278">
        <ele>234</ele>
        <time>2020-03-04T09:04:24Z</time>
      </trkpt>
      <trkpt lat="46.88936" lon="5.55272">
        <ele>233.8</ele>
        <time>2020-03-04T09:04:25Z</time>
      </trkpt>
      <trkpt lat="46.88928" lon="5.55266">
        <ele>233.6</ele>
        <time>2020-03-04T09:04:26Z</time>
      </trkpt>
      <trkpt lat="46.88921" lon="5.55259">
        <ele>233.6</ele>
        <time>2020-03-04T09:04:27Z</time>
      </trkpt>
      <trkpt lat="46.88914" lon="5.55252">
        <ele>233</ele>
        <time>2020-03-04T09:04:28Z</time>
      </trkpt>
      <trkpt lat="46.88907" lon="5.55246">
        <ele>232.8</ele>
        <time>2020-03-04T09:04:29Z</time>
      </trkpt>
      <trkpt lat="46.889" lon="5.55238">
        <ele>232.4</ele>
        <time>2020-03-04T09:04:30Z</time>
      </trkpt>
      <trkpt lat="46.88892" lon="5.55231">
        <ele>232</ele>
        <time>2020-03-04T09:04:31Z</time>
      </trkpt>
      <trkpt lat="46.88885" lon="5.55224">
        <ele>231.4</ele>
        <time>2020-03-04T09:04:32Z</time>
      </trkpt>
      <trkpt lat="46.88878" lon="5.55217">
        <ele>231</ele>
        <time>2020-03-04T09:04:33Z</time>
      </trkpt>
      <trkpt lat="46.88871" lon="5.5521">
        <ele>230.8</ele>
        <time>2020-03-04T09:04:34Z</time>
      </trkpt>
      <trkpt lat="46.88863" lon="5.55203">
        <ele>230.4</ele>
        <time>2020-03-04T09:04:35Z</time>
      </trkpt>
      <trkpt lat="46.88856" lon="5.55196">
        <ele>230.2</ele>
        <time>2020-03-04T09:04:36Z</time>
      </trkpt>
      <trkpt lat="46.88848" lon="5.55189">
        <ele>229.8</ele>
        <time>2020-03-04T09:04:37Z</time>
      </trkpt>
      <trkpt lat="46.8884" lon="5.55182">
        <ele>229.6</ele>
        <time>2020-03-04T09:04:38Z</time>
      </trkpt>
      <trkpt lat="46.88832" lon="5.55174">
        <ele>229.2</ele>
        <time>2020-03-04T09:04:39Z</time>
      </trkpt>
      <trkpt lat="46.88823" lon="5.55166">
        <ele>228.8</ele>
        <time>2020-03-04T09:04:40Z</time>
      </trkpt>
      <trkpt lat="46.88815" lon="5.55159">
        <ele>228.8</ele>
        <time>2020-03-04T09:04:41Z</time>
      </trkpt>
      <trkpt lat="46.88807" lon="5.55151">
        <ele>228.6</ele>
        <time>2020-03-04T09:04:42Z</time>
      </trkpt>
      <trkpt lat="46.88799" lon="5.55144">
        <ele>228.6</ele>
        <time>2020-03-04T09:04:43Z</time>
      </trkpt>
      <trkpt lat="46.88792" lon="5.55137">
        <ele>228.4</ele>
        <time>2020-03-04T09:04:44Z</time>
      </trkpt>
      <trkpt lat="46.88784" lon="5.5513">
        <ele>228.4</ele>
        <time>2020-03-04T09:04:45Z</time>
      </trkpt>
      <trkpt lat="46.88777" lon="5.55123">
        <ele>228</ele>
        <time>2020-03-04T09:04:46Z</time>
      </trkpt>
      <trkpt lat="46.88768" lon="5.55115">
        <ele>228</ele>
        <time>2020-03-04T09:04:47Z</time>
      </trkpt>
      <trkpt lat="46.8876" lon="5.55108">
        <ele>228</ele>
        <time>2020-03-04T09:04:48Z</time>
      </trkpt>
      <trkpt lat="46.8875" lon="5.551">
        <ele>228</ele>
        <time>2020-03-04T09:04:49Z</time>
      </trkpt>
      <trkpt lat="46.88743" lon="5.55093">
        <ele>228</ele>
        <time>2020-03-04T09:04:50Z</time>
      </trkpt>
      <trkpt lat="46.88736" lon="5.55086">
        <ele>228</ele>
        <time>2020-03-04T09:04:51Z</time>
      </trkpt>
      <trkpt lat="46.88728" lon="5.55079">
        <ele>228</ele>
        <time>2020-03-04T09:04:52Z</time>
      </trkpt>
      <trkpt lat="46.88721" lon="5.55072">
        <ele>228</ele>
        <time>2020-03-04T09:04:53Z</time>
      </trkpt>
      <trkpt lat="46.88713" lon="5.55066">
        <ele>228</ele>
        <time>2020-03-04T09:04:54Z</time>
      </trkpt>
      <trkpt lat="46.88706" lon="5.5506">
        <ele>228</ele>
        <time>2020-03-04T09:04:55Z</time>
      </trkpt>
      <trkpt lat="46.887" lon="5.55055">
        <ele>227.8</ele>
        <time>2020-03-04T09:04:56Z</time>
      </trkpt>
      <trkpt lat="46.88693" lon="5.55049">
        <ele>227.8</ele>
        <time>2020-03-04T09:04:57Z</time>
      </trkpt>
      <trkpt lat="46.88686" lon="5.55045">
        <ele>227.8</ele>
        <time>2020-03-04T09:04:58Z</time>
      </trkpt>
      <trkpt lat="46.8868" lon="5.5504">
        <ele>227.6</ele>
        <time>2020-03-04T09:04:59Z</time>
      </trkpt>
      <trkpt lat="46.88673" lon="5.55035">
        <ele>227.6</ele>
        <time>2020-03-04T09:05:00Z</time>
      </trkpt>
      <trkpt lat="46.88667" lon="5.55031">
        <ele>227.6</ele>
        <time>2020-03-04T09:05:01Z</time>
      </trkpt>
      <trkpt lat="46.8866" lon="5.55026">
        <ele>227.6</ele>
        <time>2020-03-04T09:05:02Z</time>
      </trkpt>
      <trkpt lat="46.88654" lon="5.55021">
        <ele>227.4</ele>
        <time>2020-03-04T09:05:03Z</time>
      </trkpt>
      <trkpt lat="46.88647" lon="5.55016">
        <ele>227.4</ele>
        <time>2020-03-04T09:05:04Z</time>
      </trkpt>
      <trkpt lat="46.88641" lon="5.55011">
        <ele>227.4</ele>
        <time>2020-03-04T09:05:05Z</time>
      </trkpt>
      <trkpt lat="46.88634" lon="5.55007">
        <ele>227</ele>
        <time>2020-03-04T09:05:06Z</time>
      </trkpt>
      <trkpt lat="46.88628" lon="5.55002">
        <ele>226.8</ele>
        <time>2020-03-04T09:05:07Z</time>
      </trkpt>
      <trkpt lat="46.88622" lon="5.54997">
        <ele>226.8</ele>
        <time>2020-03-04T09:05:08Z</time>
      </trkpt>
      <trkpt lat="46.88616" lon="5.54992">
        <ele>226.6</ele>
        <time>2020-03-04T09:05:09Z</time>
      </trkpt>
      <trkpt lat="46.8861" lon="5.54987">
        <ele>226.6</ele>
        <time>2020-03-04T09:05:10Z</time>
      </trkpt>
      <trkpt lat="46.88603" lon="5.54982">
        <ele>226.6</ele>
        <time>2020-03-04T09:05:11Z</time>
      </trkpt>
      <trkpt lat="46.88596" lon="5.54977">
        <ele>226</ele>
        <time>2020-03-04T09:05:12Z</time>
      </trkpt>
      <trkpt lat="46.88589" lon="5.54973">
        <ele>225.8</ele>
        <time>2020-03-04T09:05:13Z</time>
      </trkpt>
      <trkpt lat="46.88582" lon="5.54968">
        <ele>225.4</ele>
        <time>2020-03-04T09:05:14Z</time>
      </trkpt>
      <trkpt lat="46.88575" lon="5.54963">
        <ele>225.4</ele>
        <time>2020-03-04T09:05:15Z</time>
      </trkpt>
      <trkpt lat="46.88568" lon="5.54958">
        <ele>225.2</ele>
        <time>2020-03-04T09:05:16Z</time>
      </trkpt>
      <trkpt lat="46.88561" lon="5.54954">
        <ele>225.2</ele>
        <time>2020-03-04T09:05:17Z</time>
      </trkpt>
      <trkpt lat="46.88554" lon="5.54949">
        <ele>224.8</ele>
        <time>2020-03-04T09:05:18Z</time>
      </trkpt>
      <trkpt lat="46.88548" lon="5.54945">
        <ele>224.8</ele>
        <time>2020-03-04T09:05:19Z</time>
      </trkpt>
      <trkpt lat="46.88541" lon="5.54941">
        <ele>224.8</ele>
        <time>2020-03-04T09:05:20Z</time>
      </trkpt>
      <trkpt lat="46.88534" lon="5.54937">
        <ele>224.8</ele>
        <time>2020-03-04T09:05:21Z</time>
      </trkpt>
      <trkpt lat="46.88528" lon="5.54934">
        <ele>224.8</ele>
        <time>2020-03-04T09:05:22Z</time>
      </trkpt>
      <trkpt lat="46.88522" lon="5.5493">
        <ele>225.2</ele>
        <time>2020-03-04T09:05:23Z</time>
      </trkpt>
      <trkpt lat="46.88516" lon="5.54927">
        <ele>225.2</ele>
        <time>2020-03-04T09:05:24Z</time>
      </trkpt>
      <trkpt lat="46.8851" lon="5.54924">
        <ele>225.2</ele>
        <time>2020-03-04T09:05:25Z</time>
      </trkpt>
      <trkpt lat="46.88505" lon="5.54921">
        <ele>225.2</ele>
        <time>2020-03-04T09:05:26Z</time>
      </trkpt>
      <trkpt lat="46.88499" lon="5.54919">
        <ele>225.4</ele>
        <time>2020-03-04T09:05:27Z</time>
      </trkpt>
      <trkpt lat="46.88493" lon="5.54917">
        <ele>225.4</ele>
        <time>2020-03-04T09:05:28Z</time>
      </trkpt>
      <trkpt lat="46.88488" lon="5.54915">
        <ele>225.4</ele>
        <time>2020-03-04T09:05:29Z</time>
      </trkpt>
      <trkpt lat="46.88482" lon="5.54912">
        <ele>225.4</ele>
        <time>2020-03-04T09:05:30Z</time>
      </trkpt>
      <trkpt lat="46.88476" lon="5.5491">
        <ele>225.4</ele>
        <time>2020-03-04T09:05:31Z</time>
      </trkpt>
      <trkpt lat="46.88471" lon="5.54907">
        <ele>225.4</ele>
        <time>2020-03-04T09:05:32Z</time>
      </trkpt>
      <trkpt lat="46.88465" lon="5.54905">
        <ele>225.4</ele>
        <time>2020-03-04T09:05:33Z</time>
      </trkpt>
      <trkpt lat="46.88459" lon="5.54902">
        <ele>225.4</ele>
        <time>2020-03-04T09:05:34Z</time>
      </trkpt>
      <trkpt lat="46.88453" lon="5.549">
        <ele>225.4</ele>
        <time>2020-03-04T09:05:35Z</time>
      </trkpt>
      <trkpt lat="46.88447" lon="5.54897">
        <ele>225.4</ele>
        <time>2020-03-04T09:05:36Z</time>
      </trkpt>
      <trkpt lat="46.88442" lon="5.54895">
        <ele>225.4</ele>
        <time>2020-03-04T09:05:37Z</time>
      </trkpt>
      <trkpt lat="46.88436" lon="5.54893">
        <ele>225.2</ele>
        <time>2020-03-04T09:05:38Z</time>
      </trkpt>
      <trkpt lat="46.8843" lon="5.54891">
        <ele>225.2</ele>
        <time>2020-03-04T09:05:39Z</time>
      </trkpt>
      <trkpt lat="46.88424" lon="5.54888">
        <ele>225.2</ele>
        <time>2020-03-04T09:05:40Z</time>
      </trkpt>
      <trkpt lat="46.88418" lon="5.54886">
        <ele>225.2</ele>
        <time>2020-03-04T09:05:41Z</time>
      </trkpt>
      <trkpt lat="46.88412" lon="5.54883">
        <ele>225.2</ele>
        <time>2020-03-04T09:05:42Z</time>
      </trkpt>
      <trkpt lat="46.88406" lon="5.54881">
        <ele>224.8</ele>
        <time>2020-03-04T09:05:43Z</time>
      </trkpt>
      <trkpt lat="46.884" lon="5.5488">
        <ele>224.8</ele>
        <time>2020-03-04T09:05:44Z</time>
      </trkpt>
      <trkpt lat="46.88393" lon="5.54878">
        <ele>224.6</ele>
        <time>2020-03-04T09:05:45Z</time>
      </trkpt>
      <trkpt lat="46.88387" lon="5.54875">
        <ele>224.6</ele>
        <time>2020-03-04T09:05:46Z</time>
      </trkpt>
      <trkpt lat="46.8838" lon="5.54872">
        <ele>224.2</ele>
        <time>2020-03-04T09:05:47Z</time>
      </trkpt>
      <trkpt lat="46.88372" lon="5.5487">
        <ele>224</ele>
        <time>2020-03-04T09:05:48Z</time>
      </trkpt>
      <trkpt lat="46.88365" lon="5.54867">
        <ele>223.8</ele>
        <time>2020-03-04T09:05:49Z</time>
      </trkpt>
      <trkpt lat="46.88358" lon="5.54865">
        <ele>223.6</ele>
        <time>2020-03-04T09:05:50Z</time>
      </trkpt>
      <trkpt lat="46.88351" lon="5.54862">
        <ele>223.2</ele>
        <time>2020-03-04T09:05:51Z</time>
      </trkpt>
      <trkpt lat="46.88344" lon="5.54859">
        <ele>222.8</ele>
        <time>2020-03-04T09:05:52Z</time>
      </trkpt>
      <trkpt lat="46.88337" lon="5.54857">
        <ele>222.2</ele>
        <time>2020-03-04T09:05:53Z</time>
      </trkpt>
      <trkpt lat="46.88329" lon="5.54854">
        <ele>221.8</ele>
        <time>2020-03-04T09:05:54Z</time>
      </trkpt>
      <trkpt lat="46.88321" lon="5.54852">
        <ele>221.4</ele>
        <time>2020-03-04T09:05:55Z</time>
      </trkpt>
      <trkpt lat="46.88314" lon="5.54849">
        <ele>221</ele>
        <time>2020-03-04T09:05:56Z</time>
      </trkpt>
      <trkpt lat="46.88308" lon="5.54846">
        <ele>220.6</ele>
        <time>2020-03-04T09:05:57Z</time>
      </trkpt>
      <trkpt lat="46.88302" lon="5.54844">
        <ele>220.2</ele>
        <time>2020-03-04T09:05:58Z</time>
      </trkpt>
      <trkpt lat="46.88296" lon="5.54843">
        <ele>219.8</ele>
        <time>2020-03-04T09:05:59Z</time>
      </trkpt>
      <trkpt lat="46.8829" lon="5.54841">
        <ele>219.4</ele>
        <time>2020-03-04T09:06:00Z</time>
      </trkpt>
      <trkpt lat="46.88286" lon="5.54838">
        <ele>219.2</ele>
        <time>2020-03-04T09:06:01Z</time>
      </trkpt>
      <trkpt lat="46.88281" lon="5.54835">
        <ele>218.8</ele>
        <time>2020-03-04T09:06:02Z</time>
      </trkpt>
      <trkpt lat="46.88277" lon="5.54832">
        <ele>218.8</ele>
        <time>2020-03-04T09:06:03Z</time>
      </trkpt>
      <trkpt lat="46.88274" lon="5.54828">
        <ele>218.6</ele>
        <time>2020-03-04T09:06:04Z</time>
      </trkpt>
      <trkpt lat="46.88272" lon="5.54825">
        <ele>218.6</ele>
        <time>2020-03-04T09:06:05Z</time>
      </trkpt>
      <trkpt lat="46.8827" lon="5.54823">
        <ele>218.4</ele>
        <time>2020-03-04T09:06:06Z</time>
      </trkpt>
      <trkpt lat="46.88267" lon="5.54822">
        <ele>218.4</ele>
        <time>2020-03-04T09:06:07Z</time>
      </trkpt>
      <trkpt lat="46.88266" lon="5.54821">
        <ele>218</ele>
        <time>2020-03-04T09:06:08Z</time>
      </trkpt>
      <trkpt lat="46.88261" lon="5.54814">
        <ele>218</ele>
        <time>2020-03-04T09:06:51Z</time>
      </trkpt>
      <trkpt lat="46.8826" lon="5.54812">
        <ele>218</ele>
        <time>2020-03-04T09:06:52Z</time>
      </trkpt>
      <trkpt lat="46.88259" lon="5.5481">
        <ele>218</ele>
        <time>2020-03-04T09:06:53Z</time>
      </trkpt>
      <trkpt lat="46.88258" lon="5.54807">
        <ele>218</ele>
        <time>2020-03-04T09:06:54Z</time>
      </trkpt>
      <trkpt lat="46.88258" lon="5.54805">
        <ele>218</ele>
        <time>2020-03-04T09:06:55Z</time>
      </trkpt>
      <trkpt lat="46.88257" lon="5.54802">
        <ele>218</ele>
        <time>2020-03-04T09:06:56Z</time>
      </trkpt>
      <trkpt lat="46.88256" lon="5.54799">
        <ele>218</ele>
        <time>2020-03-04T09:06:57Z</time>
      </trkpt>
      <trkpt lat="46.88255" lon="5.54796">
        <ele>218</ele>
        <time>2020-03-04T09:06:58Z</time>
      </trkpt>
      <trkpt lat="46.88255" lon="5.54793">
        <ele>218</ele>
        <time>2020-03-04T09:06:59Z</time>
      </trkpt>
      <trkpt lat="46.88254" lon="5.54789">
        <ele>218</ele>
        <time>2020-03-04T09:07:00Z</time>
      </trkpt>
      <trkpt lat="46.88254" lon="5.54785">
        <ele>218</ele>
        <time>2020-03-04T09:07:01Z</time>
      </trkpt>
      <trkpt lat="46.88253" lon="5.5478">
        <ele>218</ele>
        <time>2020-03-04T09:07:02Z</time>
      </trkpt>
      <trkpt lat="46.88253" lon="5.54776">
        <ele>218</ele>
        <time>2020-03-04T09:07:03Z</time>
      </trkpt>
      <trkpt lat="46.88252" lon="5.54771">
        <ele>218</ele>
        <time>2020-03-04T09:07:04Z</time>
      </trkpt>
      <trkpt lat="46.88251" lon="5.54766">
        <ele>218</ele>
        <time>2020-03-04T09:07:05Z</time>
      </trkpt>
      <trkpt lat="46.88251" lon="5.54761">
        <ele>218</ele>
        <time>2020-03-04T09:07:06Z</time>
      </trkpt>
      <trkpt lat="46.88251" lon="5.54755">
        <ele>218</ele>
        <time>2020-03-04T09:07:07Z</time>
      </trkpt>
      <trkpt lat="46.8825" lon="5.5475">
        <ele>218</ele>
        <time>2020-03-04T09:07:08Z</time>
      </trkpt>
      <trkpt lat="46.88249" lon="5.54743">
        <ele>218</ele>
        <time>2020-03-04T09:07:09Z</time>
      </trkpt>
      <trkpt lat="46.88248" lon="5.54735">
        <ele>218</ele>
        <time>2020-03-04T09:07:10Z</time>
      </trkpt>
      <trkpt lat="46.88247" lon="5.54729">
        <ele>218</ele>
        <time>2020-03-04T09:07:11Z</time>
      </trkpt>
      <trkpt lat="46.88247" lon="5.54722">
        <ele>218</ele>
        <time>2020-03-04T09:07:12Z</time>
      </trkpt>
      <trkpt lat="46.88246" lon="5.54715">
        <ele>218</ele>
        <time>2020-03-04T09:07:13Z</time>
      </trkpt>
      <trkpt lat="46.88245" lon="5.54707">
        <ele>218</ele>
        <time>2020-03-04T09:07:14Z</time>
      </trkpt>
      <trkpt lat="46.88243" lon="5.547">
        <ele>218</ele>
        <time>2020-03-04T09:07:15Z</time>
      </trkpt>
      <trkpt lat="46.88241" lon="5.54693">
        <ele>218</ele>
        <time>2020-03-04T09:07:16Z</time>
      </trkpt>
      <trkpt lat="46.8824" lon="5.54685">
        <ele>218</ele>
        <time>2020-03-04T09:07:17Z</time>
      </trkpt>
      <trkpt lat="46.88238" lon="5.54678">
        <ele>218</ele>
        <time>2020-03-04T09:07:18Z</time>
      </trkpt>
      <trkpt lat="46.88236" lon="5.5467">
        <ele>218</ele>
        <time>2020-03-04T09:07:19Z</time>
      </trkpt>
      <trkpt lat="46.88234" lon="5.54663">
        <ele>218</ele>
        <time>2020-03-04T09:07:20Z</time>
      </trkpt>
      <trkpt lat="46.88232" lon="5.54656">
        <ele>218.2</ele>
        <time>2020-03-04T09:07:21Z</time>
      </trkpt>
      <trkpt lat="46.8823" lon="5.54649">
        <ele>218.2</ele>
        <time>2020-03-04T09:07:22Z</time>
      </trkpt>
      <trkpt lat="46.88228" lon="5.54642">
        <ele>218.6</ele>
        <time>2020-03-04T09:07:23Z</time>
      </trkpt>
      <trkpt lat="46.88226" lon="5.54635">
        <ele>218.8</ele>
        <time>2020-03-04T09:07:24Z</time>
      </trkpt>
      <trkpt lat="46.88224" lon="5.5463">
        <ele>218.8</ele>
        <time>2020-03-04T09:07:25Z</time>
      </trkpt>
      <trkpt lat="46.88222" lon="5.54623">
        <ele>219.2</ele>
        <time>2020-03-04T09:07:26Z</time>
      </trkpt>
      <trkpt lat="46.8822" lon="5.54618">
        <ele>219.4</ele>
        <time>2020-03-04T09:07:27Z</time>
      </trkpt>
      <trkpt lat="46.88218" lon="5.54612">
        <ele>219.4</ele>
        <time>2020-03-04T09:07:28Z</time>
      </trkpt>
      <trkpt lat="46.88216" lon="5.54607">
        <ele>219.8</ele>
        <time>2020-03-04T09:07:29Z</time>
      </trkpt>
      <trkpt lat="46.88214" lon="5.54602">
        <ele>220</ele>
        <time>2020-03-04T09:07:30Z</time>
      </trkpt>
      <trkpt lat="46.88212" lon="5.54597">
        <ele>220.2</ele>
        <time>2020-03-04T09:07:31Z</time>
      </trkpt>
      <trkpt lat="46.88211" lon="5.54591">
        <ele>220.6</ele>
        <time>2020-03-04T09:07:32Z</time>
      </trkpt>
      <trkpt lat="46.88209" lon="5.54586">
        <ele>220.6</ele>
        <time>2020-03-04T09:07:33Z</time>
      </trkpt>
      <trkpt lat="46.88207" lon="5.54581">
        <ele>220.8</ele>
        <time>2020-03-04T09:07:34Z</time>
      </trkpt>
      <trkpt lat="46.88205" lon="5.54576">
        <ele>221</ele>
        <time>2020-03-04T09:07:35Z</time>
      </trkpt>
      <trkpt lat="46.88204" lon="5.54571">
        <ele>221</ele>
        <time>2020-03-04T09:07:36Z</time>
      </trkpt>
      <trkpt lat="46.88202" lon="5.54567">
        <ele>221.4</ele>
        <time>2020-03-04T09:07:37Z</time>
      </trkpt>
      <trkpt lat="46.88201" lon="5.54562">
        <ele>221.4</ele>
        <time>2020-03-04T09:07:38Z</time>
      </trkpt>
      <trkpt lat="46.882" lon="5.54558">
        <ele>221.8</ele>
        <time>2020-03-04T09:07:39Z</time>
      </trkpt>
      <trkpt lat="46.88199" lon="5.54554">
        <ele>221.8</ele>
        <time>2020-03-04T09:07:40Z</time>
      </trkpt>
      <trkpt lat="46.88198" lon="5.54549">
        <ele>222</ele>
        <time>2020-03-04T09:07:41Z</time>
      </trkpt>
      <trkpt lat="46.88197" lon="5.54545">
        <ele>222</ele>
        <time>2020-03-04T09:07:42Z</time>
      </trkpt>
      <trkpt lat="46.88196" lon="5.5454">
        <ele>222.4</ele>
        <time>2020-03-04T09:07:43Z</time>
      </trkpt>
      <trkpt lat="46.88195" lon="5.54535">
        <ele>222.4</ele>
        <time>2020-03-04T09:07:44Z</time>
      </trkpt>
      <trkpt lat="46.88194" lon="5.5453">
        <ele>222.4</ele>
        <time>2020-03-04T09:07:45Z</time>
      </trkpt>
      <trkpt lat="46.88193" lon="5.54524">
        <ele>222.8</ele>
        <time>2020-03-04T09:07:46Z</time>
      </trkpt>
      <trkpt lat="46.88192" lon="5.54519">
        <ele>222.8</ele>
        <time>2020-03-04T09:07:47Z</time>
      </trkpt>
      <trkpt lat="46.88191" lon="5.54514">
        <ele>223</ele>
        <time>2020-03-04T09:07:48Z</time>
      </trkpt>
      <trkpt lat="46.8819" lon="5.54509">
        <ele>223</ele>
        <time>2020-03-04T09:07:49Z</time>
      </trkpt>
      <trkpt lat="46.88189" lon="5.54504">
        <ele>223.2</ele>
        <time>2020-03-04T09:07:50Z</time>
      </trkpt>
      <trkpt lat="46.88188" lon="5.54499">
        <ele>223.2</ele>
        <time>2020-03-04T09:07:51Z</time>
      </trkpt>
      <trkpt lat="46.88188" lon="5.54494">
        <ele>223.2</ele>
        <time>2020-03-04T09:07:52Z</time>
      </trkpt>
      <trkpt lat="46.88187" lon="5.54488">
        <ele>223.4</ele>
        <time>2020-03-04T09:07:53Z</time>
      </trkpt>
      <trkpt lat="46.88187" lon="5.54482">
        <ele>223.4</ele>
        <time>2020-03-04T09:07:54Z</time>
      </trkpt>
      <trkpt lat="46.88187" lon="5.54477">
        <ele>223.4</ele>
        <time>2020-03-04T09:07:55Z</time>
      </trkpt>
      <trkpt lat="46.88187" lon="5.5447">
        <ele>223.6</ele>
        <time>2020-03-04T09:07:56Z</time>
      </trkpt>
      <trkpt lat="46.88187" lon="5.54464">
        <ele>223.6</ele>
        <time>2020-03-04T09:07:57Z</time>
      </trkpt>
      <trkpt lat="46.88186" lon="5.54457">
        <ele>223.6</ele>
        <time>2020-03-04T09:07:58Z</time>
      </trkpt>
      <trkpt lat="46.88186" lon="5.54451">
        <ele>223.6</ele>
        <time>2020-03-04T09:07:59Z</time>
      </trkpt>
      <trkpt lat="46.88186" lon="5.54444">
        <ele>223.6</ele>
        <time>2020-03-04T09:08:00Z</time>
      </trkpt>
      <trkpt lat="46.88186" lon="5.54438">
        <ele>224</ele>
        <time>2020-03-04T09:08:01Z</time>
      </trkpt>
      <trkpt lat="46.88187" lon="5.54432">
        <ele>224</ele>
        <time>2020-03-04T09:08:02Z</time>
      </trkpt>
      <trkpt lat="46.88187" lon="5.54426">
        <ele>224</ele>
        <time>2020-03-04T09:08:03Z</time>
      </trkpt>
      <trkpt lat="46.88187" lon="5.54419">
        <ele>224</ele>
        <time>2020-03-04T09:08:04Z</time>
      </trkpt>
      <trkpt lat="46.88187" lon="5.54413">
        <ele>224</ele>
        <time>2020-03-04T09:08:05Z</time>
      </trkpt>
      <trkpt lat="46.88186" lon="5.54408">
        <ele>224.2</ele>
        <time>2020-03-04T09:08:06Z</time>
      </trkpt>
      <trkpt lat="46.88186" lon="5.54402">
        <ele>224.2</ele>
        <time>2020-03-04T09:08:07Z</time>
      </trkpt>
      <trkpt lat="46.88185" lon="5.54396">
        <ele>224.2</ele>
        <time>2020-03-04T09:08:08Z</time>
      </trkpt>
      <trkpt lat="46.88184" lon="5.5439">
        <ele>224.4</ele>
        <time>2020-03-04T09:08:09Z</time>
      </trkpt>
      <trkpt lat="46.88184" lon="5.54384">
        <ele>224.4</ele>
        <time>2020-03-04T09:08:10Z</time>
      </trkpt>
      <trkpt lat="46.88183" lon="5.54379">
        <ele>224.4</ele>
        <time>2020-03-04T09:08:11Z</time>
      </trkpt>
      <trkpt lat="46.88182" lon="5.54373">
        <ele>224.4</ele>
        <time>2020-03-04T09:08:12Z</time>
      </trkpt>
      <trkpt lat="46.88181" lon="5.54367">
        <ele>224.6</ele>
        <time>2020-03-04T09:08:13Z</time>
      </trkpt>
      <trkpt lat="46.88179" lon="5.54362">
        <ele>224.6</ele>
        <time>2020-03-04T09:08:14Z</time>
      </trkpt>
      <trkpt lat="46.88178" lon="5.54356">
        <ele>224.6</ele>
        <time>2020-03-04T09:08:15Z</time>
      </trkpt>
      <trkpt lat="46.88176" lon="5.5435">
        <ele>224.6</ele>
        <time>2020-03-04T09:08:16Z</time>
      </trkpt>
      <trkpt lat="46.88175" lon="5.54344">
        <ele>224.6</ele>
        <time>2020-03-04T09:08:17Z</time>
      </trkpt>
      <trkpt lat="46.88173" lon="5.54338">
        <ele>224.8</ele>
        <time>2020-03-04T09:08:18Z</time>
      </trkpt>
      <trkpt lat="46.88171" lon="5.54333">
        <ele>224.8</ele>
        <time>2020-03-04T09:08:19Z</time>
      </trkpt>
      <trkpt lat="46.88169" lon="5.54328">
        <ele>224.8</ele>
        <time>2020-03-04T09:08:20Z</time>
      </trkpt>
      <trkpt lat="46.88167" lon="5.54322">
        <ele>224.8</ele>
        <time>2020-03-04T09:08:21Z</time>
      </trkpt>
      <trkpt lat="46.88165" lon="5.54316">
        <ele>224.8</ele>
        <time>2020-03-04T09:08:22Z</time>
      </trkpt>
      <trkpt lat="46.88164" lon="5.54309">
        <ele>224.8</ele>
        <time>2020-03-04T09:08:23Z</time>
      </trkpt>
      <trkpt lat="46.88162" lon="5.54303">
        <ele>224.8</ele>
        <time>2020-03-04T09:08:24Z</time>
      </trkpt>
      <trkpt lat="46.8816" lon="5.54296">
        <ele>224.8</ele>
        <time>2020-03-04T09:08:25Z</time>
      </trkpt>
      <trkpt lat="46.88159" lon="5.54289">
        <ele>224.8</ele>
        <time>2020-03-04T09:08:26Z</time>
      </trkpt>
      <trkpt lat="46.88157" lon="5.54283">
        <ele>224.8</ele>
        <time>2020-03-04T09:08:27Z</time>
      </trkpt>
      <trkpt lat="46.88155" lon="5.54276">
        <ele>224.8</ele>
        <time>2020-03-04T09:08:28Z</time>
      </trkpt>
      <trkpt lat="46.88153" lon="5.5427">
        <ele>224.8</ele>
        <time>2020-03-04T09:08:29Z</time>
      </trkpt>
      <trkpt lat="46.88152" lon="5.54263">
        <ele>224.6</ele>
        <time>2020-03-04T09:08:30Z</time>
      </trkpt>
      <trkpt lat="46.8815" lon="5.54257">
        <ele>224.6</ele>
        <time>2020-03-04T09:08:31Z</time>
      </trkpt>
      <trkpt lat="46.88147" lon="5.5425">
        <ele>224.6</ele>
        <time>2020-03-04T09:08:32Z</time>
      </trkpt>
      <trkpt lat="46.88145" lon="5.54244">
        <ele>224.4</ele>
        <time>2020-03-04T09:08:33Z</time>
      </trkpt>
      <trkpt lat="46.88142" lon="5.54238">
        <ele>224.4</ele>
        <time>2020-03-04T09:08:34Z</time>
      </trkpt>
      <trkpt lat="46.88139" lon="5.54232">
        <ele>224.2</ele>
        <time>2020-03-04T09:08:35Z</time>
      </trkpt>
      <trkpt lat="46.88135" lon="5.54226">
        <ele>224.2</ele>
        <time>2020-03-04T09:08:36Z</time>
      </trkpt>
      <trkpt lat="46.88131" lon="5.5422">
        <ele>224.2</ele>
        <time>2020-03-04T09:08:37Z</time>
      </trkpt>
      <trkpt lat="46.88126" lon="5.54214">
        <ele>224</ele>
        <time>2020-03-04T09:08:38Z</time>
      </trkpt>
      <trkpt lat="46.88121" lon="5.54208">
        <ele>224</ele>
        <time>2020-03-04T09:08:39Z</time>
      </trkpt>
      <trkpt lat="46.88116" lon="5.54203">
        <ele>223.6</ele>
        <time>2020-03-04T09:08:40Z</time>
      </trkpt>
      <trkpt lat="46.8811" lon="5.54198">
        <ele>223.6</ele>
        <time>2020-03-04T09:08:41Z</time>
      </trkpt>
      <trkpt lat="46.88103" lon="5.54193">
        <ele>223.4</ele>
        <time>2020-03-04T09:08:42Z</time>
      </trkpt>
      <trkpt lat="46.88097" lon="5.54188">
        <ele>223</ele>
        <time>2020-03-04T09:08:43Z</time>
      </trkpt>
      <trkpt lat="46.88091" lon="5.54184">
        <ele>223</ele>
        <time>2020-03-04T09:08:44Z</time>
      </trkpt>
      <trkpt lat="46.88084" lon="5.5418">
        <ele>222.6</ele>
        <time>2020-03-04T09:08:45Z</time>
      </trkpt>
      <trkpt lat="46.88077" lon="5.54176">
        <ele>222.2</ele>
        <time>2020-03-04T09:08:46Z</time>
      </trkpt>
      <trkpt lat="46.88071" lon="5.54172">
        <ele>221.8</ele>
        <time>2020-03-04T09:08:47Z</time>
      </trkpt>
      <trkpt lat="46.88064" lon="5.54169">
        <ele>221.6</ele>
        <time>2020-03-04T09:08:48Z</time>
      </trkpt>
      <trkpt lat="46.88057" lon="5.54165">
        <ele>221.4</ele>
        <time>2020-03-04T09:08:49Z</time>
      </trkpt>
      <trkpt lat="46.88049" lon="5.54162">
        <ele>221.2</ele>
        <time>2020-03-04T09:08:50Z</time>
      </trkpt>
      <trkpt lat="46.88042" lon="5.54158">
        <ele>220.8</ele>
        <time>2020-03-04T09:08:51Z</time>
      </trkpt>
      <trkpt lat="46.88035" lon="5.54153">
        <ele>220.8</ele>
        <time>2020-03-04T09:08:52Z</time>
      </trkpt>
      <trkpt lat="46.88027" lon="5.54149">
        <ele>220.6</ele>
        <time>2020-03-04T09:08:53Z</time>
      </trkpt>
      <trkpt lat="46.8802" lon="5.54145">
        <ele>220.6</ele>
        <time>2020-03-04T09:08:54Z</time>
      </trkpt>
      <trkpt lat="46.88013" lon="5.54141">
        <ele>220.2</ele>
        <time>2020-03-04T09:08:55Z</time>
      </trkpt>
      <trkpt lat="46.88006" lon="5.54136">
        <ele>220.2</ele>
        <time>2020-03-04T09:08:56Z</time>
      </trkpt>
      <trkpt lat="46.87999" lon="5.54132">
        <ele>220</ele>
        <time>2020-03-04T09:08:57Z</time>
      </trkpt>
      <trkpt lat="46.87992" lon="5.54128">
        <ele>220</ele>
        <time>2020-03-04T09:08:58Z</time>
      </trkpt>
      <trkpt lat="46.87985" lon="5.54123">
        <ele>219.6</ele>
        <time>2020-03-04T09:08:59Z</time>
      </trkpt>
      <trkpt lat="46.87977" lon="5.54119">
        <ele>219.4</ele>
        <time>2020-03-04T09:09:00Z</time>
      </trkpt>
      <trkpt lat="46.8797" lon="5.54114">
        <ele>219.4</ele>
        <time>2020-03-04T09:09:01Z</time>
      </trkpt>
      <trkpt lat="46.87963" lon="5.54109">
        <ele>219</ele>
        <time>2020-03-04T09:09:02Z</time>
      </trkpt>
      <trkpt lat="46.87956" lon="5.54105">
        <ele>219</ele>
        <time>2020-03-04T09:09:03Z</time>
      </trkpt>
      <trkpt lat="46.87948" lon="5.541">
        <ele>218.8</ele>
        <time>2020-03-04T09:09:04Z</time>
      </trkpt>
      <trkpt lat="46.87941" lon="5.54095">
        <ele>218.8</ele>
        <time>2020-03-04T09:09:05Z</time>
      </trkpt>
      <trkpt lat="46.87934" lon="5.5409">
        <ele>218.4</ele>
        <time>2020-03-04T09:09:06Z</time>
      </trkpt>
      <trkpt lat="46.87927" lon="5.54085">
        <ele>218.2</ele>
        <time>2020-03-04T09:09:07Z</time>
      </trkpt>
      <trkpt lat="46.8792" lon="5.5408">
        <ele>218.2</ele>
        <time>2020-03-04T09:09:08Z</time>
      </trkpt>
      <trkpt lat="46.87913" lon="5.54075">
        <ele>217.8</ele>
        <time>2020-03-04T09:09:09Z</time>
      </trkpt>
      <trkpt lat="46.87907" lon="5.54071">
        <ele>217.8</ele>
        <time>2020-03-04T09:09:10Z</time>
      </trkpt>
      <trkpt lat="46.879" lon="5.54066">
        <ele>217.8</ele>
        <time>2020-03-04T09:09:11Z</time>
      </trkpt>
      <trkpt lat="46.87894" lon="5.54062">
        <ele>217.8</ele>
        <time>2020-03-04T09:09:12Z</time>
      </trkpt>
      <trkpt lat="46.87888" lon="5.54057">
        <ele>217.8</ele>
        <time>2020-03-04T09:09:13Z</time>
      </trkpt>
      <trkpt lat="46.87881" lon="5.54052">
        <ele>217.8</ele>
        <time>2020-03-04T09:09:14Z</time>
      </trkpt>
      <trkpt lat="46.87874" lon="5.54048">
        <ele>217.6</ele>
        <time>2020-03-04T09:09:15Z</time>
      </trkpt>
      <trkpt lat="46.87867" lon="5.54044">
        <ele>217.6</ele>
        <time>2020-03-04T09:09:16Z</time>
      </trkpt>
      <trkpt lat="46.87861" lon="5.54039">
        <ele>217.6</ele>
        <time>2020-03-04T09:09:17Z</time>
      </trkpt>
      <trkpt lat="46.87854" lon="5.54035">
        <ele>217.6</ele>
        <time>2020-03-04T09:09:18Z</time>
      </trkpt>
      <trkpt lat="46.87847" lon="5.5403">
        <ele>217.4</ele>
        <time>2020-03-04T09:09:19Z</time>
      </trkpt>
      <trkpt lat="46.87841" lon="5.54025">
        <ele>217.4</ele>
        <time>2020-03-04T09:09:20Z</time>
      </trkpt>
      <trkpt lat="46.87833" lon="5.54019">
        <ele>217</ele>
        <time>2020-03-04T09:09:21Z</time>
      </trkpt>
      <trkpt lat="46.87827" lon="5.54013">
        <ele>217</ele>
        <time>2020-03-04T09:09:22Z</time>
      </trkpt>
      <trkpt lat="46.8782" lon="5.54006">
        <ele>216.6</ele>
        <time>2020-03-04T09:09:23Z</time>
      </trkpt>
      <trkpt lat="46.87813" lon="5.53999">
        <ele>216.4</ele>
        <time>2020-03-04T09:09:24Z</time>
      </trkpt>
      <trkpt lat="46.87806" lon="5.53991">
        <ele>216.2</ele>
        <time>2020-03-04T09:09:25Z</time>
      </trkpt>
      <trkpt lat="46.87799" lon="5.53983">
        <ele>216.2</ele>
        <time>2020-03-04T09:09:26Z</time>
      </trkpt>
      <trkpt lat="46.87792" lon="5.53976">
        <ele>215.8</ele>
        <time>2020-03-04T09:09:27Z</time>
      </trkpt>
      <trkpt lat="46.87785" lon="5.53968">
        <ele>215.8</ele>
        <time>2020-03-04T09:09:28Z</time>
      </trkpt>
      <trkpt lat="46.87779" lon="5.53961">
        <ele>215.8</ele>
        <time>2020-03-04T09:09:29Z</time>
      </trkpt>
      <trkpt lat="46.87773" lon="5.53955">
        <ele>215.8</ele>
        <time>2020-03-04T09:09:30Z</time>
      </trkpt>
      <trkpt lat="46.87767" lon="5.53948">
        <ele>215.8</ele>
        <time>2020-03-04T09:09:31Z</time>
      </trkpt>
      <trkpt lat="46.87761" lon="5.53942">
        <ele>215.8</ele>
        <time>2020-03-04T09:09:32Z</time>
      </trkpt>
      <trkpt lat="46.87756" lon="5.53936">
        <ele>215.8</ele>
        <time>2020-03-04T09:09:33Z</time>
      </trkpt>
      <trkpt lat="46.87751" lon="5.53931">
        <ele>216.2</ele>
        <time>2020-03-04T09:09:34Z</time>
      </trkpt>
      <trkpt lat="46.87745" lon="5.53925">
        <ele>216.2</ele>
        <time>2020-03-04T09:09:35Z</time>
      </trkpt>
      <trkpt lat="46.87741" lon="5.5392">
        <ele>216.2</ele>
        <time>2020-03-04T09:09:36Z</time>
      </trkpt>
      <trkpt lat="46.87737" lon="5.53915">
        <ele>216.2</ele>
        <time>2020-03-04T09:09:37Z</time>
      </trkpt>
      <trkpt lat="46.87733" lon="5.5391">
        <ele>216.4</ele>
        <time>2020-03-04T09:09:38Z</time>
      </trkpt>
      <trkpt lat="46.87729" lon="5.53905">
        <ele>216.4</ele>
        <time>2020-03-04T09:09:39Z</time>
      </trkpt>
      <trkpt lat="46.87725" lon="5.53901">
        <ele>216.4</ele>
        <time>2020-03-04T09:09:40Z</time>
      </trkpt>
      <trkpt lat="46.87721" lon="5.53896">
        <ele>216.8</ele>
        <time>2020-03-04T09:09:41Z</time>
      </trkpt>
      <trkpt lat="46.87717" lon="5.53893">
        <ele>216.8</ele>
        <time>2020-03-04T09:09:42Z</time>
      </trkpt>
      <trkpt lat="46.87713" lon="5.53889">
        <ele>216.8</ele>
        <time>2020-03-04T09:09:43Z</time>
      </trkpt>
      <trkpt lat="46.87709" lon="5.53885">
        <ele>217</ele>
        <time>2020-03-04T09:09:44Z</time>
      </trkpt>
      <trkpt lat="46.87704" lon="5.53881">
        <ele>217</ele>
        <time>2020-03-04T09:09:45Z</time>
      </trkpt>
      <trkpt lat="46.877" lon="5.53877">
        <ele>217.2</ele>
        <time>2020-03-04T09:09:46Z</time>
      </trkpt>
      <trkpt lat="46.87695" lon="5.53873">
        <ele>217.2</ele>
        <time>2020-03-04T09:09:47Z</time>
      </trkpt>
      <trkpt lat="46.87691" lon="5.53869">
        <ele>217.2</ele>
        <time>2020-03-04T09:09:48Z</time>
      </trkpt>
      <trkpt lat="46.87687" lon="5.53864">
        <ele>217.6</ele>
        <time>2020-03-04T09:09:49Z</time>
      </trkpt>
      <trkpt lat="46.87683" lon="5.5386">
        <ele>217.8</ele>
        <time>2020-03-04T09:09:50Z</time>
      </trkpt>
      <trkpt lat="46.87679" lon="5.53855">
        <ele>217.8</ele>
        <time>2020-03-04T09:09:51Z</time>
      </trkpt>
      <trkpt lat="46.87675" lon="5.5385">
        <ele>218</ele>
        <time>2020-03-04T09:09:52Z</time>
      </trkpt>
      <trkpt lat="46.87671" lon="5.53846">
        <ele>218</ele>
        <time>2020-03-04T09:09:53Z</time>
      </trkpt>
      <trkpt lat="46.87667" lon="5.53842">
        <ele>218.4</ele>
        <time>2020-03-04T09:09:54Z</time>
      </trkpt>
      <trkpt lat="46.87663" lon="5.53837">
        <ele>218.4</ele>
        <time>2020-03-04T09:09:55Z</time>
      </trkpt>
      <trkpt lat="46.8766" lon="5.53832">
        <ele>218.6</ele>
        <time>2020-03-04T09:09:56Z</time>
      </trkpt>
      <trkpt lat="46.87656" lon="5.53827">
        <ele>218.6</ele>
        <time>2020-03-04T09:09:57Z</time>
      </trkpt>
      <trkpt lat="46.87652" lon="5.53823">
        <ele>218.8</ele>
        <time>2020-03-04T09:09:58Z</time>
      </trkpt>
      <trkpt lat="46.87648" lon="5.53819">
        <ele>218.8</ele>
        <time>2020-03-04T09:09:59Z</time>
      </trkpt>
      <trkpt lat="46.87643" lon="5.53814">
        <ele>218.8</ele>
        <time>2020-03-04T09:10:00Z</time>
      </trkpt>
      <trkpt lat="46.87639" lon="5.53809">
        <ele>218.8</ele>
        <time>2020-03-04T09:10:01Z</time>
      </trkpt>
      <trkpt lat="46.87635" lon="5.53804">
        <ele>218.8</ele>
        <time>2020-03-04T09:10:02Z</time>
      </trkpt>
      <trkpt lat="46.87631" lon="5.538">
        <ele>218.8</ele>
        <time>2020-03-04T09:10:03Z</time>
      </trkpt>
      <trkpt lat="46.87627" lon="5.53794">
        <ele>218.8</ele>
        <time>2020-03-04T09:10:04Z</time>
      </trkpt>
      <trkpt lat="46.87622" lon="5.53789">
        <ele>218.8</ele>
        <time>2020-03-04T09:10:05Z</time>
      </trkpt>
      <trkpt lat="46.87618" lon="5.53784">
        <ele>218.4</ele>
        <time>2020-03-04T09:10:06Z</time>
      </trkpt>
      <trkpt lat="46.87613" lon="5.53779">
        <ele>218.4</ele>
        <time>2020-03-04T09:10:07Z</time>
      </trkpt>
      <trkpt lat="46.87609" lon="5.53774">
        <ele>218.4</ele>
        <time>2020-03-04T09:10:08Z</time>
      </trkpt>
      <trkpt lat="46.87605" lon="5.53769">
        <ele>218.4</ele>
        <time>2020-03-04T09:10:09Z</time>
      </trkpt>
      <trkpt lat="46.87601" lon="5.53764">
        <ele>218.4</ele>
        <time>2020-03-04T09:10:10Z</time>
      </trkpt>
      <trkpt lat="46.87598" lon="5.53759">
        <ele>218.4</ele>
        <time>2020-03-04T09:10:11Z</time>
      </trkpt>
      <trkpt lat="46.87594" lon="5.53753">
        <ele>218.4</ele>
        <time>2020-03-04T09:10:12Z</time>
      </trkpt>
      <trkpt lat="46.8759" lon="5.53748">
        <ele>218.4</ele>
        <time>2020-03-04T09:10:13Z</time>
      </trkpt>
      <trkpt lat="46.87587" lon="5.53743">
        <ele>218.4</ele>
        <time>2020-03-04T09:10:14Z</time>
      </trkpt>
      <trkpt lat="46.87584" lon="5.53737">
        <ele>218.4</ele>
        <time>2020-03-04T09:10:15Z</time>
      </trkpt>
      <trkpt lat="46.87581" lon="5.53732">
        <ele>218.4</ele>
        <time>2020-03-04T09:10:16Z</time>
      </trkpt>
      <trkpt lat="46.87578" lon="5.53726">
        <ele>218.4</ele>
        <time>2020-03-04T09:10:17Z</time>
      </trkpt>
      <trkpt lat="46.87575" lon="5.5372">
        <ele>218.4</ele>
        <time>2020-03-04T09:10:18Z</time>
      </trkpt>
      <trkpt lat="46.87573" lon="5.53715">
        <ele>218.4</ele>
        <time>2020-03-04T09:10:19Z</time>
      </trkpt>
      <trkpt lat="46.87571" lon="5.53709">
        <ele>218.4</ele>
        <time>2020-03-04T09:10:20Z</time>
      </trkpt>
      <trkpt lat="46.8757" lon="5.53703">
        <ele>218.6</ele>
        <time>2020-03-04T09:10:21Z</time>
      </trkpt>
      <trkpt lat="46.87569" lon="5.53697">
        <ele>218.6</ele>
        <time>2020-03-04T09:10:22Z</time>
      </trkpt>
      <trkpt lat="46.87567" lon="5.53692">
        <ele>218.6</ele>
        <time>2020-03-04T09:10:23Z</time>
      </trkpt>
      <trkpt lat="46.87566" lon="5.53687">
        <ele>218.6</ele>
        <time>2020-03-04T09:10:24Z</time>
      </trkpt>
      <trkpt lat="46.87565" lon="5.53682">
        <ele>219</ele>
        <time>2020-03-04T09:10:25Z</time>
      </trkpt>
      <trkpt lat="46.87563" lon="5.53678">
        <ele>219</ele>
        <time>2020-03-04T09:10:26Z</time>
      </trkpt>
      <trkpt lat="46.87562" lon="5.53674">
        <ele>219</ele>
        <time>2020-03-04T09:10:27Z</time>
      </trkpt>
      <trkpt lat="46.87561" lon="5.53669">
        <ele>219</ele>
        <time>2020-03-04T09:10:28Z</time>
      </trkpt>
      <trkpt lat="46.87559" lon="5.53665">
        <ele>219.2</ele>
        <time>2020-03-04T09:10:29Z</time>
      </trkpt>
      <trkpt lat="46.87558" lon="5.53661">
        <ele>219.2</ele>
        <time>2020-03-04T09:10:30Z</time>
      </trkpt>
      <trkpt lat="46.87557" lon="5.53658">
        <ele>219.2</ele>
        <time>2020-03-04T09:10:31Z</time>
      </trkpt>
      <trkpt lat="46.87555" lon="5.53654">
        <ele>219.2</ele>
        <time>2020-03-04T09:10:32Z</time>
      </trkpt>
      <trkpt lat="46.87554" lon="5.53651">
        <ele>219.2</ele>
        <time>2020-03-04T09:10:33Z</time>
      </trkpt>
      <trkpt lat="46.87554" lon="5.53647">
        <ele>219.2</ele>
        <time>2020-03-04T09:10:34Z</time>
      </trkpt>
      <trkpt lat="46.87553" lon="5.53644">
        <ele>219.2</ele>
        <time>2020-03-04T09:10:35Z</time>
      </trkpt>
      <trkpt lat="46.87552" lon="5.5364">
        <ele>219.2</ele>
        <time>2020-03-04T09:10:36Z</time>
      </trkpt>
      <trkpt lat="46.8755" lon="5.53636">
        <ele>219.2</ele>
        <time>2020-03-04T09:10:37Z</time>
      </trkpt>
      <trkpt lat="46.87548" lon="5.53633">
        <ele>219.2</ele>
        <time>2020-03-04T09:10:38Z</time>
      </trkpt>
      <trkpt lat="46.87546" lon="5.53632">
        <ele>219.2</ele>
        <time>2020-03-04T09:10:39Z</time>
      </trkpt>
      <trkpt lat="46.87543" lon="5.53631">
        <ele>219.2</ele>
        <time>2020-03-04T09:10:40Z</time>
      </trkpt>
      <trkpt lat="46.8754" lon="5.53632">
        <ele>219.2</ele>
        <time>2020-03-04T09:10:41Z</time>
      </trkpt>
      <trkpt lat="46.87537" lon="5.53634">
        <ele>219.2</ele>
        <time>2020-03-04T09:10:42Z</time>
      </trkpt>
      <trkpt lat="46.87533" lon="5.53635">
        <ele>219.2</ele>
        <time>2020-03-04T09:10:43Z</time>
      </trkpt>
      <trkpt lat="46.8753" lon="5.53637">
        <ele>219.2</ele>
        <time>2020-03-04T09:10:44Z</time>
      </trkpt>
      <trkpt lat="46.87527" lon="5.53639">
        <ele>219.2</ele>
        <time>2020-03-04T09:10:45Z</time>
      </trkpt>
      <trkpt lat="46.87523" lon="5.5364">
        <ele>219.2</ele>
        <time>2020-03-04T09:10:46Z</time>
      </trkpt>
      <trkpt lat="46.8752" lon="5.53642">
        <ele>219.2</ele>
        <time>2020-03-04T09:10:47Z</time>
      </trkpt>
      <trkpt lat="46.87517" lon="5.53645">
        <ele>219.2</ele>
        <time>2020-03-04T09:10:48Z</time>
      </trkpt>
      <trkpt lat="46.87513" lon="5.53648">
        <ele>219.2</ele>
        <time>2020-03-04T09:10:49Z</time>
      </trkpt>
      <trkpt lat="46.8751" lon="5.53651">
        <ele>219.4</ele>
        <time>2020-03-04T09:10:50Z</time>
      </trkpt>
      <trkpt lat="46.87506" lon="5.53654">
        <ele>219.4</ele>
        <time>2020-03-04T09:10:51Z</time>
      </trkpt>
      <trkpt lat="46.87502" lon="5.53657">
        <ele>219.4</ele>
        <time>2020-03-04T09:10:52Z</time>
      </trkpt>
      <trkpt lat="46.87498" lon="5.53661">
        <ele>219.4</ele>
        <time>2020-03-04T09:10:53Z</time>
      </trkpt>
      <trkpt lat="46.87494" lon="5.53665">
        <ele>219.2</ele>
        <time>2020-03-04T09:10:54Z</time>
      </trkpt>
      <trkpt lat="46.8749" lon="5.53669">
        <ele>219.2</ele>
        <time>2020-03-04T09:10:55Z</time>
      </trkpt>
      <trkpt lat="46.87485" lon="5.53673">
        <ele>219.2</ele>
        <time>2020-03-04T09:10:56Z</time>
      </trkpt>
      <trkpt lat="46.87481" lon="5.53678">
        <ele>219.2</ele>
        <time>2020-03-04T09:10:57Z</time>
      </trkpt>
      <trkpt lat="46.87476" lon="5.53682">
        <ele>219</ele>
        <time>2020-03-04T09:10:58Z</time>
      </trkpt>
      <trkpt lat="46.87472" lon="5.53688">
        <ele>219</ele>
        <time>2020-03-04T09:10:59Z</time>
      </trkpt>
      <trkpt lat="46.87467" lon="5.53693">
        <ele>218.6</ele>
        <time>2020-03-04T09:11:00Z</time>
      </trkpt>
      <trkpt lat="46.87461" lon="5.53699">
        <ele>218.4</ele>
        <time>2020-03-04T09:11:01Z</time>
      </trkpt>
      <trkpt lat="46.87456" lon="5.53704">
        <ele>218</ele>
        <time>2020-03-04T09:11:02Z</time>
      </trkpt>
      <trkpt lat="46.8745" lon="5.5371">
        <ele>217.8</ele>
        <time>2020-03-04T09:11:03Z</time>
      </trkpt>
      <trkpt lat="46.87444" lon="5.53714">
        <ele>217.4</ele>
        <time>2020-03-04T09:11:04Z</time>
      </trkpt>
      <trkpt lat="46.87437" lon="5.53718">
        <ele>217.2</ele>
        <time>2020-03-04T09:11:05Z</time>
      </trkpt>
      <trkpt lat="46.87431" lon="5.53722">
        <ele>217</ele>
        <time>2020-03-04T09:11:06Z</time>
      </trkpt>
      <trkpt lat="46.87424" lon="5.53726">
        <ele>216.6</ele>
        <time>2020-03-04T09:11:07Z</time>
      </trkpt>
      <trkpt lat="46.87417" lon="5.5373">
        <ele>216.2</ele>
        <time>2020-03-04T09:11:08Z</time>
      </trkpt>
      <trkpt lat="46.8741" lon="5.53734">
        <ele>216</ele>
        <time>2020-03-04T09:11:09Z</time>
      </trkpt>
      <trkpt lat="46.87403" lon="5.53737">
        <ele>215.6</ele>
        <time>2020-03-04T09:11:10Z</time>
      </trkpt>
      <trkpt lat="46.87396" lon="5.53741">
        <ele>215.4</ele>
        <time>2020-03-04T09:11:11Z</time>
      </trkpt>
      <trkpt lat="46.87388" lon="5.53745">
        <ele>215</ele>
        <time>2020-03-04T09:11:12Z</time>
      </trkpt>
      <trkpt lat="46.8738" lon="5.53749">
        <ele>214.8</ele>
        <time>2020-03-04T09:11:13Z</time>
      </trkpt>
      <trkpt lat="46.87372" lon="5.53754">
        <ele>214.2</ele>
        <time>2020-03-04T09:11:14Z</time>
      </trkpt>
      <trkpt lat="46.87364" lon="5.53758">
        <ele>213.8</ele>
        <time>2020-03-04T09:11:15Z</time>
      </trkpt>
      <trkpt lat="46.87356" lon="5.53762">
        <ele>213.4</ele>
        <time>2020-03-04T09:11:16Z</time>
      </trkpt>
      <trkpt lat="46.87348" lon="5.53767">
        <ele>212.8</ele>
        <time>2020-03-04T09:11:17Z</time>
      </trkpt>
      <trkpt lat="46.87339" lon="5.53771">
        <ele>212.4</ele>
        <time>2020-03-04T09:11:18Z</time>
      </trkpt>
      <trkpt lat="46.87331" lon="5.53776">
        <ele>212.4</ele>
        <time>2020-03-04T09:11:19Z</time>
      </trkpt>
      <trkpt lat="46.87323" lon="5.53781">
        <ele>211.8</ele>
        <time>2020-03-04T09:11:20Z</time>
      </trkpt>
      <trkpt lat="46.87314" lon="5.53785">
        <ele>211.6</ele>
        <time>2020-03-04T09:11:21Z</time>
      </trkpt>
      <trkpt lat="46.87305" lon="5.5379">
        <ele>211.4</ele>
        <time>2020-03-04T09:11:22Z</time>
      </trkpt>
      <trkpt lat="46.87296" lon="5.53793">
        <ele>211</ele>
        <time>2020-03-04T09:11:23Z</time>
      </trkpt>
      <trkpt lat="46.87287" lon="5.53797">
        <ele>210.8</ele>
        <time>2020-03-04T09:11:24Z</time>
      </trkpt>
      <trkpt lat="46.87278" lon="5.53801">
        <ele>210.8</ele>
        <time>2020-03-04T09:11:25Z</time>
      </trkpt>
      <trkpt lat="46.87269" lon="5.53804">
        <ele>210.6</ele>
        <time>2020-03-04T09:11:26Z</time>
      </trkpt>
      <trkpt lat="46.87261" lon="5.53808">
        <ele>210.6</ele>
        <time>2020-03-04T09:11:27Z</time>
      </trkpt>
      <trkpt lat="46.87253" lon="5.53811">
        <ele>210.6</ele>
        <time>2020-03-04T09:11:28Z</time>
      </trkpt>
      <trkpt lat="46.87245" lon="5.53814">
        <ele>210.6</ele>
        <time>2020-03-04T09:11:29Z</time>
      </trkpt>
      <trkpt lat="46.87238" lon="5.53816">
        <ele>210.4</ele>
        <time>2020-03-04T09:11:30Z</time>
      </trkpt>
      <trkpt lat="46.87231" lon="5.53819">
        <ele>210.4</ele>
        <time>2020-03-04T09:11:31Z</time>
      </trkpt>
      <trkpt lat="46.87223" lon="5.53821">
        <ele>210.4</ele>
        <time>2020-03-04T09:11:32Z</time>
      </trkpt>
      <trkpt lat="46.87216" lon="5.53823">
        <ele>210.4</ele>
        <time>2020-03-04T09:11:33Z</time>
      </trkpt>
      <trkpt lat="46.8721" lon="5.53826">
        <ele>210.4</ele>
        <time>2020-03-04T09:11:34Z</time>
      </trkpt>
      <trkpt lat="46.87203" lon="5.53828">
        <ele>210.4</ele>
        <time>2020-03-04T09:11:35Z</time>
      </trkpt>
      <trkpt lat="46.87196" lon="5.53831">
        <ele>210.4</ele>
        <time>2020-03-04T09:11:36Z</time>
      </trkpt>
      <trkpt lat="46.87189" lon="5.53834">
        <ele>210.8</ele>
        <time>2020-03-04T09:11:37Z</time>
      </trkpt>
      <trkpt lat="46.87183" lon="5.53836">
        <ele>210.8</ele>
        <time>2020-03-04T09:11:38Z</time>
      </trkpt>
      <trkpt lat="46.87177" lon="5.53838">
        <ele>210.8</ele>
        <time>2020-03-04T09:11:39Z</time>
      </trkpt>
      <trkpt lat="46.87171" lon="5.53841">
        <ele>210.8</ele>
        <time>2020-03-04T09:11:40Z</time>
      </trkpt>
      <trkpt lat="46.87165" lon="5.53844">
        <ele>210.8</ele>
        <time>2020-03-04T09:11:41Z</time>
      </trkpt>
      <trkpt lat="46.87159" lon="5.53846">
        <ele>210.8</ele>
        <time>2020-03-04T09:11:42Z</time>
      </trkpt>
      <trkpt lat="46.87154" lon="5.53849">
        <ele>210.8</ele>
        <time>2020-03-04T09:11:43Z</time>
      </trkpt>
      <trkpt lat="46.87149" lon="5.53852">
        <ele>210.8</ele>
        <time>2020-03-04T09:11:44Z</time>
      </trkpt>
      <trkpt lat="46.87144" lon="5.53855">
        <ele>210.8</ele>
        <time>2020-03-04T09:11:45Z</time>
      </trkpt>
      <trkpt lat="46.87138" lon="5.53858">
        <ele>210.8</ele>
        <time>2020-03-04T09:11:46Z</time>
      </trkpt>
      <trkpt lat="46.87134" lon="5.53859">
        <ele>210.8</ele>
        <time>2020-03-04T09:11:47Z</time>
      </trkpt>
      <trkpt lat="46.87129" lon="5.53858">
        <ele>211</ele>
        <time>2020-03-04T09:11:48Z</time>
      </trkpt>
      <trkpt lat="46.87124" lon="5.53858">
        <ele>211</ele>
        <time>2020-03-04T09:11:49Z</time>
      </trkpt>
      <trkpt lat="46.87119" lon="5.53856">
        <ele>211</ele>
        <time>2020-03-04T09:11:50Z</time>
      </trkpt>
      <trkpt lat="46.87114" lon="5.53855">
        <ele>211</ele>
        <time>2020-03-04T09:11:51Z</time>
      </trkpt>
      <trkpt lat="46.87109" lon="5.53853">
        <ele>211.2</ele>
        <time>2020-03-04T09:11:52Z</time>
      </trkpt>
      <trkpt lat="46.87104" lon="5.53852">
        <ele>211.2</ele>
        <time>2020-03-04T09:11:53Z</time>
      </trkpt>
      <trkpt lat="46.871" lon="5.5385">
        <ele>211.2</ele>
        <time>2020-03-04T09:11:54Z</time>
      </trkpt>
      <trkpt lat="46.87096" lon="5.53848">
        <ele>211.6</ele>
        <time>2020-03-04T09:11:55Z</time>
      </trkpt>
      <trkpt lat="46.87093" lon="5.53847">
        <ele>211.6</ele>
        <time>2020-03-04T09:11:56Z</time>
      </trkpt>
      <trkpt lat="46.87089" lon="5.53846">
        <ele>211.8</ele>
        <time>2020-03-04T09:11:57Z</time>
      </trkpt>
      <trkpt lat="46.87085" lon="5.53845">
        <ele>211.8</ele>
        <time>2020-03-04T09:11:58Z</time>
      </trkpt>
      <trkpt lat="46.87081" lon="5.53845">
        <ele>212</ele>
        <time>2020-03-04T09:11:59Z</time>
      </trkpt>
      <trkpt lat="46.87077" lon="5.53845">
        <ele>212</ele>
        <time>2020-03-04T09:12:00Z</time>
      </trkpt>
      <trkpt lat="46.87073" lon="5.53845">
        <ele>212.4</ele>
        <time>2020-03-04T09:12:01Z</time>
      </trkpt>
      <trkpt lat="46.87069" lon="5.53847">
        <ele>212.8</ele>
        <time>2020-03-04T09:12:02Z</time>
      </trkpt>
      <trkpt lat="46.87065" lon="5.53849">
        <ele>212.8</ele>
        <time>2020-03-04T09:12:03Z</time>
      </trkpt>
      <trkpt lat="46.87061" lon="5.53851">
        <ele>213</ele>
        <time>2020-03-04T09:12:04Z</time>
      </trkpt>
      <trkpt lat="46.87058" lon="5.53854">
        <ele>213</ele>
        <time>2020-03-04T09:12:05Z</time>
      </trkpt>
      <trkpt lat="46.87054" lon="5.53857">
        <ele>213.4</ele>
        <time>2020-03-04T09:12:06Z</time>
      </trkpt>
      <trkpt lat="46.87051" lon="5.53859">
        <ele>213.6</ele>
        <time>2020-03-04T09:12:07Z</time>
      </trkpt>
      <trkpt lat="46.87047" lon="5.53862">
        <ele>214</ele>
        <time>2020-03-04T09:12:08Z</time>
      </trkpt>
      <trkpt lat="46.87044" lon="5.53865">
        <ele>214</ele>
        <time>2020-03-04T09:12:09Z</time>
      </trkpt>
      <trkpt lat="46.87041" lon="5.53868">
        <ele>214.4</ele>
        <time>2020-03-04T09:12:10Z</time>
      </trkpt>
      <trkpt lat="46.87037" lon="5.53871">
        <ele>214.4</ele>
        <time>2020-03-04T09:12:11Z</time>
      </trkpt>
      <trkpt lat="46.87034" lon="5.53873">
        <ele>214.8</ele>
        <time>2020-03-04T09:12:12Z</time>
      </trkpt>
      <trkpt lat="46.87031" lon="5.53876">
        <ele>214.8</ele>
        <time>2020-03-04T09:12:13Z</time>
      </trkpt>
      <trkpt lat="46.87028" lon="5.53879">
        <ele>215</ele>
        <time>2020-03-04T09:12:14Z</time>
      </trkpt>
      <trkpt lat="46.87025" lon="5.53881">
        <ele>215.2</ele>
        <time>2020-03-04T09:12:15Z</time>
      </trkpt>
      <trkpt lat="46.87022" lon="5.53884">
        <ele>215.6</ele>
        <time>2020-03-04T09:12:16Z</time>
      </trkpt>
      <trkpt lat="46.87019" lon="5.53887">
        <ele>215.6</ele>
        <time>2020-03-04T09:12:17Z</time>
      </trkpt>
      <trkpt lat="46.87016" lon="5.53889">
        <ele>215.6</ele>
        <time>2020-03-04T09:12:18Z</time>
      </trkpt>
      <trkpt lat="46.87013" lon="5.53892">
        <ele>216</ele>
        <time>2020-03-04T09:12:19Z</time>
      </trkpt>
      <trkpt lat="46.8701" lon="5.53896">
        <ele>216</ele>
        <time>2020-03-04T09:12:20Z</time>
      </trkpt>
      <trkpt lat="46.87007" lon="5.53899">
        <ele>216.2</ele>
        <time>2020-03-04T09:12:21Z</time>
      </trkpt>
      <trkpt lat="46.87004" lon="5.53903">
        <ele>216.2</ele>
        <time>2020-03-04T09:12:22Z</time>
      </trkpt>
      <trkpt lat="46.87001" lon="5.53906">
        <ele>216.4</ele>
        <time>2020-03-04T09:12:23Z</time>
      </trkpt>
      <trkpt lat="46.86999" lon="5.53909">
        <ele>216.4</ele>
        <time>2020-03-04T09:12:24Z</time>
      </trkpt>
      <trkpt lat="46.86996" lon="5.53911">
        <ele>216.6</ele>
        <time>2020-03-04T09:12:25Z</time>
      </trkpt>
      <trkpt lat="46.86993" lon="5.53913">
        <ele>216.6</ele>
        <time>2020-03-04T09:12:26Z</time>
      </trkpt>
      <trkpt lat="46.8699" lon="5.53913">
        <ele>217</ele>
        <time>2020-03-04T09:12:27Z</time>
      </trkpt>
      <trkpt lat="46.86988" lon="5.53912">
        <ele>217</ele>
        <time>2020-03-04T09:12:28Z</time>
      </trkpt>
      <trkpt lat="46.86986" lon="5.5391">
        <ele>217.2</ele>
        <time>2020-03-04T09:12:29Z</time>
      </trkpt>
      <trkpt lat="46.86984" lon="5.53906">
        <ele>217.2</ele>
        <time>2020-03-04T09:12:30Z</time>
      </trkpt>
      <trkpt lat="46.86983" lon="5.53902">
        <ele>217.6</ele>
        <time>2020-03-04T09:12:31Z</time>
      </trkpt>
      <trkpt lat="46.86982" lon="5.53898">
        <ele>217.6</ele>
        <time>2020-03-04T09:12:32Z</time>
      </trkpt>
      <trkpt lat="46.86981" lon="5.53894">
        <ele>217.8</ele>
        <time>2020-03-04T09:12:33Z</time>
      </trkpt>
      <trkpt lat="46.86979" lon="5.5389">
        <ele>217.8</ele>
        <time>2020-03-04T09:12:34Z</time>
      </trkpt>
      <trkpt lat="46.86978" lon="5.53885">
        <ele>218</ele>
        <time>2020-03-04T09:12:35Z</time>
      </trkpt>
      <trkpt lat="46.86977" lon="5.5388">
        <ele>218</ele>
        <time>2020-03-04T09:12:36Z</time>
      </trkpt>
      <trkpt lat="46.86975" lon="5.53876">
        <ele>218.4</ele>
        <time>2020-03-04T09:12:37Z</time>
      </trkpt>
      <trkpt lat="46.86973" lon="5.53871">
        <ele>218.4</ele>
        <time>2020-03-04T09:12:38Z</time>
      </trkpt>
      <trkpt lat="46.86972" lon="5.53867">
        <ele>218.4</ele>
        <time>2020-03-04T09:12:39Z</time>
      </trkpt>
      <trkpt lat="46.8697" lon="5.53862">
        <ele>218.4</ele>
        <time>2020-03-04T09:12:40Z</time>
      </trkpt>
      <trkpt lat="46.86969" lon="5.53857">
        <ele>218.4</ele>
        <time>2020-03-04T09:12:41Z</time>
      </trkpt>
      <trkpt lat="46.86967" lon="5.53852">
        <ele>218.4</ele>
        <time>2020-03-04T09:12:42Z</time>
      </trkpt>
      <trkpt lat="46.86964" lon="5.53846">
        <ele>218.6</ele>
        <time>2020-03-04T09:12:43Z</time>
      </trkpt>
      <trkpt lat="46.86962" lon="5.53841">
        <ele>218.6</ele>
        <time>2020-03-04T09:12:44Z</time>
      </trkpt>
      <trkpt lat="46.86959" lon="5.53835">
        <ele>218.6</ele>
        <time>2020-03-04T09:12:45Z</time>
      </trkpt>
      <trkpt lat="46.86957" lon="5.5383">
        <ele>218.4</ele>
        <time>2020-03-04T09:12:46Z</time>
      </trkpt>
      <trkpt lat="46.86954" lon="5.53824">
        <ele>218.4</ele>
        <time>2020-03-04T09:12:47Z</time>
      </trkpt>
      <trkpt lat="46.8695" lon="5.53818">
        <ele>218.4</ele>
        <time>2020-03-04T09:12:48Z</time>
      </trkpt>
      <trkpt lat="46.86947" lon="5.53812">
        <ele>218.2</ele>
        <time>2020-03-04T09:12:49Z</time>
      </trkpt>
      <trkpt lat="46.86944" lon="5.53806">
        <ele>218.2</ele>
        <time>2020-03-04T09:12:50Z</time>
      </trkpt>
      <trkpt lat="46.8694" lon="5.538">
        <ele>217.8</ele>
        <time>2020-03-04T09:12:51Z</time>
      </trkpt>
      <trkpt lat="46.86936" lon="5.53793">
        <ele>217.8</ele>
        <time>2020-03-04T09:12:52Z</time>
      </trkpt>
      <trkpt lat="46.86932" lon="5.53786">
        <ele>217.4</ele>
        <time>2020-03-04T09:12:53Z</time>
      </trkpt>
      <trkpt lat="46.86928" lon="5.53779">
        <ele>217.2</ele>
        <time>2020-03-04T09:12:54Z</time>
      </trkpt>
      <trkpt lat="46.86924" lon="5.53771">
        <ele>216.8</ele>
        <time>2020-03-04T09:12:55Z</time>
      </trkpt>
      <trkpt lat="46.8692" lon="5.53761">
        <ele>216.2</ele>
        <time>2020-03-04T09:12:56Z</time>
      </trkpt>
      <trkpt lat="46.86916" lon="5.53752">
        <ele>215.8</ele>
        <time>2020-03-04T09:12:57Z</time>
      </trkpt>
      <trkpt lat="46.86912" lon="5.53741">
        <ele>215.4</ele>
        <time>2020-03-04T09:12:58Z</time>
      </trkpt>
      <trkpt lat="46.86908" lon="5.53729">
        <ele>215</ele>
        <time>2020-03-04T09:12:59Z</time>
      </trkpt>
      <trkpt lat="46.86905" lon="5.53717">
        <ele>214.6</ele>
        <time>2020-03-04T09:13:00Z</time>
      </trkpt>
      <trkpt lat="46.86901" lon="5.53705">
        <ele>214</ele>
        <time>2020-03-04T09:13:01Z</time>
      </trkpt>
      <trkpt lat="46.86897" lon="5.53693">
        <ele>213.4</ele>
        <time>2020-03-04T09:13:02Z</time>
      </trkpt>
      <trkpt lat="46.86893" lon="5.5368">
        <ele>212.8</ele>
        <time>2020-03-04T09:13:03Z</time>
      </trkpt>
      <trkpt lat="46.86889" lon="5.53667">
        <ele>212</ele>
        <time>2020-03-04T09:13:04Z</time>
      </trkpt>
      <trkpt lat="46.86885" lon="5.53654">
        <ele>211.4</ele>
        <time>2020-03-04T09:13:05Z</time>
      </trkpt>
      <trkpt lat="46.86881" lon="5.53641">
        <ele>210.8</ele>
        <time>2020-03-04T09:13:06Z</time>
      </trkpt>
      <trkpt lat="46.86876" lon="5.53628">
        <ele>210.2</ele>
        <time>2020-03-04T09:13:07Z</time>
      </trkpt>
      <trkpt lat="46.86872" lon="5.53615">
        <ele>209.8</ele>
        <time>2020-03-04T09:13:08Z</time>
      </trkpt>
      <trkpt lat="46.86867" lon="5.53603">
        <ele>209.6</ele>
        <time>2020-03-04T09:13:09Z</time>
      </trkpt>
      <trkpt lat="46.86862" lon="5.53592">
        <ele>209.6</ele>
        <time>2020-03-04T09:13:10Z</time>
      </trkpt>
      <trkpt lat="46.86856" lon="5.53582">
        <ele>209.2</ele>
        <time>2020-03-04T09:13:11Z</time>
      </trkpt>
      <trkpt lat="46.8685" lon="5.53571">
        <ele>209.2</ele>
        <time>2020-03-04T09:13:12Z</time>
      </trkpt>
      <trkpt lat="46.86845" lon="5.53561">
        <ele>209.2</ele>
        <time>2020-03-04T09:13:13Z</time>
      </trkpt>
      <trkpt lat="46.8684" lon="5.53552">
        <ele>209.2</ele>
        <time>2020-03-04T09:13:14Z</time>
      </trkpt>
      <trkpt lat="46.86835" lon="5.53544">
        <ele>209</ele>
        <time>2020-03-04T09:13:15Z</time>
      </trkpt>
      <trkpt lat="46.86829" lon="5.53535">
        <ele>209</ele>
        <time>2020-03-04T09:13:16Z</time>
      </trkpt>
      <trkpt lat="46.86824" lon="5.53527">
        <ele>209</ele>
        <time>2020-03-04T09:13:17Z</time>
      </trkpt>
      <trkpt lat="46.86819" lon="5.53519">
        <ele>209</ele>
        <time>2020-03-04T09:13:18Z</time>
      </trkpt>
      <trkpt lat="46.86815" lon="5.53511">
        <ele>209</ele>
        <time>2020-03-04T09:13:19Z</time>
      </trkpt>
      <trkpt lat="46.8681" lon="5.53504">
        <ele>209</ele>
        <time>2020-03-04T09:13:20Z</time>
      </trkpt>
      <trkpt lat="46.86805" lon="5.53496">
        <ele>209</ele>
        <time>2020-03-04T09:13:21Z</time>
      </trkpt>
      <trkpt lat="46.868" lon="5.53489">
        <ele>209</ele>
        <time>2020-03-04T09:13:22Z</time>
      </trkpt>
      <trkpt lat="46.86796" lon="5.53482">
        <ele>209</ele>
        <time>2020-03-04T09:13:23Z</time>
      </trkpt>
      <trkpt lat="46.86791" lon="5.53475">
        <ele>208.8</ele>
        <time>2020-03-04T09:13:24Z</time>
      </trkpt>
      <trkpt lat="46.86787" lon="5.53469">
        <ele>208.8</ele>
        <time>2020-03-04T09:13:25Z</time>
      </trkpt>
      <trkpt lat="46.86783" lon="5.53462">
        <ele>208.8</ele>
        <time>2020-03-04T09:13:26Z</time>
      </trkpt>
      <trkpt lat="46.86779" lon="5.53456">
        <ele>208.8</ele>
        <time>2020-03-04T09:13:27Z</time>
      </trkpt>
      <trkpt lat="46.86775" lon="5.53449">
        <ele>209</ele>
        <time>2020-03-04T09:13:28Z</time>
      </trkpt>
      <trkpt lat="46.86771" lon="5.53443">
        <ele>209</ele>
        <time>2020-03-04T09:13:29Z</time>
      </trkpt>
      <trkpt lat="46.86768" lon="5.53437">
        <ele>209.4</ele>
        <time>2020-03-04T09:13:30Z</time>
      </trkpt>
      <trkpt lat="46.86764" lon="5.53432">
        <ele>209.4</ele>
        <time>2020-03-04T09:13:31Z</time>
      </trkpt>
      <trkpt lat="46.86761" lon="5.53427">
        <ele>209.6</ele>
        <time>2020-03-04T09:13:32Z</time>
      </trkpt>
      <trkpt lat="46.86758" lon="5.53422">
        <ele>210</ele>
        <time>2020-03-04T09:13:33Z</time>
      </trkpt>
      <trkpt lat="46.86755" lon="5.53417">
        <ele>210.2</ele>
        <time>2020-03-04T09:13:34Z</time>
      </trkpt>
      <trkpt lat="46.86753" lon="5.53413">
        <ele>210.4</ele>
        <time>2020-03-04T09:13:35Z</time>
      </trkpt>
      <trkpt lat="46.8675" lon="5.53409">
        <ele>210.6</ele>
        <time>2020-03-04T09:13:36Z</time>
      </trkpt>
      <trkpt lat="46.86748" lon="5.53405">
        <ele>210.6</ele>
        <time>2020-03-04T09:13:37Z</time>
      </trkpt>
      <trkpt lat="46.86746" lon="5.53401">
        <ele>211</ele>
        <time>2020-03-04T09:13:38Z</time>
      </trkpt>
      <trkpt lat="46.86744" lon="5.53397">
        <ele>211.2</ele>
        <time>2020-03-04T09:13:39Z</time>
      </trkpt>
      <trkpt lat="46.86741" lon="5.53394">
        <ele>211.4</ele>
        <time>2020-03-04T09:13:40Z</time>
      </trkpt>
      <trkpt lat="46.86739" lon="5.53391">
        <ele>211.6</ele>
        <time>2020-03-04T09:13:41Z</time>
      </trkpt>
      <trkpt lat="46.86737" lon="5.53387">
        <ele>211.6</ele>
        <time>2020-03-04T09:13:42Z</time>
      </trkpt>
      <trkpt lat="46.86735" lon="5.53384">
        <ele>212</ele>
        <time>2020-03-04T09:13:43Z</time>
      </trkpt>
      <trkpt lat="46.86732" lon="5.53381">
        <ele>212</ele>
        <time>2020-03-04T09:13:44Z</time>
      </trkpt>
      <trkpt lat="46.8673" lon="5.53377">
        <ele>212.4</ele>
        <time>2020-03-04T09:13:45Z</time>
      </trkpt>
      <trkpt lat="46.86727" lon="5.53374">
        <ele>212.8</ele>
        <time>2020-03-04T09:13:46Z</time>
      </trkpt>
      <trkpt lat="46.86725" lon="5.53372">
        <ele>213</ele>
        <time>2020-03-04T09:13:47Z</time>
      </trkpt>
      <trkpt lat="46.86722" lon="5.53369">
        <ele>213.2</ele>
        <time>2020-03-04T09:13:48Z</time>
      </trkpt>
      <trkpt lat="46.8672" lon="5.53366">
        <ele>213.4</ele>
        <time>2020-03-04T09:13:49Z</time>
      </trkpt>
      <trkpt lat="46.86718" lon="5.53364">
        <ele>213.6</ele>
        <time>2020-03-04T09:13:50Z</time>
      </trkpt>
      <trkpt lat="46.86716" lon="5.53362">
        <ele>213.6</ele>
        <time>2020-03-04T09:13:51Z</time>
      </trkpt>
      <trkpt lat="46.86714" lon="5.53359">
        <ele>214</ele>
        <time>2020-03-04T09:13:52Z</time>
      </trkpt>
      <trkpt lat="46.86711" lon="5.53356">
        <ele>214.4</ele>
        <time>2020-03-04T09:13:53Z</time>
      </trkpt>
      <trkpt lat="46.86709" lon="5.53355">
        <ele>214.6</ele>
        <time>2020-03-04T09:13:54Z</time>
      </trkpt>
      <trkpt lat="46.86707" lon="5.53352">
        <ele>214.6</ele>
        <time>2020-03-04T09:13:55Z</time>
      </trkpt>
      <trkpt lat="46.86704" lon="5.5335">
        <ele>215</ele>
        <time>2020-03-04T09:13:56Z</time>
      </trkpt>
      <trkpt lat="46.86702" lon="5.53349">
        <ele>215.2</ele>
        <time>2020-03-04T09:13:57Z</time>
      </trkpt>
      <trkpt lat="46.86699" lon="5.53347">
        <ele>215.2</ele>
        <time>2020-03-04T09:13:58Z</time>
      </trkpt>
      <trkpt lat="46.86697" lon="5.53345">
        <ele>215.6</ele>
        <time>2020-03-04T09:13:59Z</time>
      </trkpt>
      <trkpt lat="46.86695" lon="5.53343">
        <ele>215.8</ele>
        <time>2020-03-04T09:14:00Z</time>
      </trkpt>
      <trkpt lat="46.86693" lon="5.53341">
        <ele>215.8</ele>
        <time>2020-03-04T09:14:01Z</time>
      </trkpt>
      <trkpt lat="46.8669" lon="5.53339">
        <ele>216</ele>
        <time>2020-03-04T09:14:02Z</time>
      </trkpt>
      <trkpt lat="46.86688" lon="5.53338">
        <ele>216</ele>
        <time>2020-03-04T09:14:03Z</time>
      </trkpt>
      <trkpt lat="46.86686" lon="5.53336">
        <ele>216</ele>
        <time>2020-03-04T09:14:04Z</time>
      </trkpt>
      <trkpt lat="46.86683" lon="5.53334">
        <ele>216</ele>
        <time>2020-03-04T09:14:05Z</time>
      </trkpt>
      <trkpt lat="46.8668" lon="5.53333">
        <ele>216.2</ele>
        <time>2020-03-04T09:14:06Z</time>
      </trkpt>
      <trkpt lat="46.86678" lon="5.53331">
        <ele>216.2</ele>
        <time>2020-03-04T09:14:07Z</time>
      </trkpt>
      <trkpt lat="46.86675" lon="5.53329">
        <ele>216.2</ele>
        <time>2020-03-04T09:14:08Z</time>
      </trkpt>
      <trkpt lat="46.86672" lon="5.53327">
        <ele>216.6</ele>
        <time>2020-03-04T09:14:09Z</time>
      </trkpt>
      <trkpt lat="46.86668" lon="5.53325">
        <ele>216.6</ele>
        <time>2020-03-04T09:14:10Z</time>
      </trkpt>
      <trkpt lat="46.86665" lon="5.53323">
        <ele>216.6</ele>
        <time>2020-03-04T09:14:11Z</time>
      </trkpt>
      <trkpt lat="46.86662" lon="5.53321">
        <ele>216.8</ele>
        <time>2020-03-04T09:14:12Z</time>
      </trkpt>
      <trkpt lat="46.86658" lon="5.53319">
        <ele>216.8</ele>
        <time>2020-03-04T09:14:13Z</time>
      </trkpt>
      <trkpt lat="46.86655" lon="5.53317">
        <ele>216.8</ele>
        <time>2020-03-04T09:14:14Z</time>
      </trkpt>
      <trkpt lat="46.86651" lon="5.53315">
        <ele>216.8</ele>
        <time>2020-03-04T09:14:15Z</time>
      </trkpt>
      <trkpt lat="46.86648" lon="5.53313">
        <ele>216.8</ele>
        <time>2020-03-04T09:14:16Z</time>
      </trkpt>
      <trkpt lat="46.86645" lon="5.53311">
        <ele>217</ele>
        <time>2020-03-04T09:14:17Z</time>
      </trkpt>
      <trkpt lat="46.86641" lon="5.53309">
        <ele>217</ele>
        <time>2020-03-04T09:14:18Z</time>
      </trkpt>
      <trkpt lat="46.86638" lon="5.53307">
        <ele>217</ele>
        <time>2020-03-04T09:14:19Z</time>
      </trkpt>
      <trkpt lat="46.86635" lon="5.53305">
        <ele>217</ele>
        <time>2020-03-04T09:14:20Z</time>
      </trkpt>
      <trkpt lat="46.86632" lon="5.53303">
        <ele>217.4</ele>
        <time>2020-03-04T09:14:21Z</time>
      </trkpt>
      <trkpt lat="46.86629" lon="5.533">
        <ele>217.4</ele>
        <time>2020-03-04T09:14:22Z</time>
      </trkpt>
      <trkpt lat="46.86626" lon="5.53298">
        <ele>217.4</ele>
        <time>2020-03-04T09:14:23Z</time>
      </trkpt>
      <trkpt lat="46.86623" lon="5.53296">
        <ele>217.6</ele>
        <time>2020-03-04T09:14:24Z</time>
      </trkpt>
      <trkpt lat="46.8662" lon="5.53293">
        <ele>217.6</ele>
        <time>2020-03-04T09:14:25Z</time>
      </trkpt>
      <trkpt lat="46.86616" lon="5.53291">
        <ele>217.6</ele>
        <time>2020-03-04T09:14:26Z</time>
      </trkpt>
      <trkpt lat="46.86613" lon="5.53288">
        <ele>217.6</ele>
        <time>2020-03-04T09:14:27Z</time>
      </trkpt>
      <trkpt lat="46.86609" lon="5.53286">
        <ele>217.6</ele>
        <time>2020-03-04T09:14:28Z</time>
      </trkpt>
      <trkpt lat="46.86606" lon="5.53283">
        <ele>217.6</ele>
        <time>2020-03-04T09:14:29Z</time>
      </trkpt>
      <trkpt lat="46.86602" lon="5.5328">
        <ele>217.6</ele>
        <time>2020-03-04T09:14:30Z</time>
      </trkpt>
      <trkpt lat="46.86598" lon="5.53277">
        <ele>217.6</ele>
        <time>2020-03-04T09:14:31Z</time>
      </trkpt>
      <trkpt lat="46.86594" lon="5.53273">
        <ele>217.4</ele>
        <time>2020-03-04T09:14:32Z</time>
      </trkpt>
      <trkpt lat="46.8659" lon="5.53269">
        <ele>217.4</ele>
        <time>2020-03-04T09:14:33Z</time>
      </trkpt>
      <trkpt lat="46.86586" lon="5.53265">
        <ele>217.4</ele>
        <time>2020-03-04T09:14:34Z</time>
      </trkpt>
      <trkpt lat="46.86581" lon="5.53261">
        <ele>217.4</ele>
        <time>2020-03-04T09:14:35Z</time>
      </trkpt>
      <trkpt lat="46.86577" lon="5.53257">
        <ele>217.4</ele>
        <time>2020-03-04T09:14:36Z</time>
      </trkpt>
      <trkpt lat="46.86573" lon="5.53253">
        <ele>217.2</ele>
        <time>2020-03-04T09:14:37Z</time>
      </trkpt>
      <trkpt lat="46.86569" lon="5.5325">
        <ele>217.2</ele>
        <time>2020-03-04T09:14:38Z</time>
      </trkpt>
      <trkpt lat="46.86564" lon="5.53245">
        <ele>217.2</ele>
        <time>2020-03-04T09:14:39Z</time>
      </trkpt>
      <trkpt lat="46.8656" lon="5.53241">
        <ele>217.2</ele>
        <time>2020-03-04T09:14:40Z</time>
      </trkpt>
      <trkpt lat="46.86556" lon="5.53236">
        <ele>217.2</ele>
        <time>2020-03-04T09:14:41Z</time>
      </trkpt>
      <trkpt lat="46.86552" lon="5.53232">
        <ele>217.2</ele>
        <time>2020-03-04T09:14:42Z</time>
      </trkpt>
      <trkpt lat="46.86547" lon="5.53227">
        <ele>217.2</ele>
        <time>2020-03-04T09:14:43Z</time>
      </trkpt>
      <trkpt lat="46.86543" lon="5.53223">
        <ele>217.2</ele>
        <time>2020-03-04T09:14:44Z</time>
      </trkpt>
      <trkpt lat="46.86538" lon="5.53218">
        <ele>217.2</ele>
        <time>2020-03-04T09:14:45Z</time>
      </trkpt>
      <trkpt lat="46.86533" lon="5.53214">
        <ele>217.2</ele>
        <time>2020-03-04T09:14:46Z</time>
      </trkpt>
      <trkpt lat="46.86529" lon="5.53209">
        <ele>217.2</ele>
        <time>2020-03-04T09:14:47Z</time>
      </trkpt>
      <trkpt lat="46.86524" lon="5.53204">
        <ele>217.2</ele>
        <time>2020-03-04T09:14:48Z</time>
      </trkpt>
      <trkpt lat="46.8652" lon="5.53199">
        <ele>217.2</ele>
        <time>2020-03-04T09:14:49Z</time>
      </trkpt>
      <trkpt lat="46.86515" lon="5.53194">
        <ele>217.2</ele>
        <time>2020-03-04T09:14:50Z</time>
      </trkpt>
      <trkpt lat="46.8651" lon="5.5319">
        <ele>217.2</ele>
        <time>2020-03-04T09:14:51Z</time>
      </trkpt>
      <trkpt lat="46.86505" lon="5.53185">
        <ele>217.2</ele>
        <time>2020-03-04T09:14:52Z</time>
      </trkpt>
      <trkpt lat="46.86501" lon="5.5318">
        <ele>217.2</ele>
        <time>2020-03-04T09:14:53Z</time>
      </trkpt>
      <trkpt lat="46.86496" lon="5.53175">
        <ele>217.2</ele>
        <time>2020-03-04T09:14:54Z</time>
      </trkpt>
      <trkpt lat="46.86492" lon="5.53171">
        <ele>217.2</ele>
        <time>2020-03-04T09:14:55Z</time>
      </trkpt>
      <trkpt lat="46.86488" lon="5.53166">
        <ele>217.2</ele>
        <time>2020-03-04T09:14:56Z</time>
      </trkpt>
      <trkpt lat="46.86484" lon="5.53162">
        <ele>217.2</ele>
        <time>2020-03-04T09:14:57Z</time>
      </trkpt>
      <trkpt lat="46.86479" lon="5.53158">
        <ele>217.2</ele>
        <time>2020-03-04T09:14:58Z</time>
      </trkpt>
      <trkpt lat="46.86475" lon="5.53154">
        <ele>217.2</ele>
        <time>2020-03-04T09:14:59Z</time>
      </trkpt>
      <trkpt lat="46.86471" lon="5.5315">
        <ele>217.2</ele>
        <time>2020-03-04T09:15:00Z</time>
      </trkpt>
      <trkpt lat="46.86467" lon="5.53146">
        <ele>217.2</ele>
        <time>2020-03-04T09:15:01Z</time>
      </trkpt>
      <trkpt lat="46.86463" lon="5.53142">
        <ele>217.4</ele>
        <time>2020-03-04T09:15:02Z</time>
      </trkpt>
      <trkpt lat="46.86459" lon="5.53138">
        <ele>217.4</ele>
        <time>2020-03-04T09:15:03Z</time>
      </trkpt>
      <trkpt lat="46.86455" lon="5.53134">
        <ele>217.4</ele>
        <time>2020-03-04T09:15:04Z</time>
      </trkpt>
      <trkpt lat="46.86451" lon="5.53131">
        <ele>217.4</ele>
        <time>2020-03-04T09:15:05Z</time>
      </trkpt>
      <trkpt lat="46.86448" lon="5.53127">
        <ele>217.6</ele>
        <time>2020-03-04T09:15:06Z</time>
      </trkpt>
      <trkpt lat="46.86444" lon="5.53123">
        <ele>217.6</ele>
        <time>2020-03-04T09:15:07Z</time>
      </trkpt>
      <trkpt lat="46.8644" lon="5.5312">
        <ele>217.6</ele>
        <time>2020-03-04T09:15:08Z</time>
      </trkpt>
      <trkpt lat="46.86436" lon="5.53116">
        <ele>217.6</ele>
        <time>2020-03-04T09:15:09Z</time>
      </trkpt>
      <trkpt lat="46.86433" lon="5.53112">
        <ele>217.6</ele>
        <time>2020-03-04T09:15:10Z</time>
      </trkpt>
      <trkpt lat="46.86429" lon="5.53108">
        <ele>217.8</ele>
        <time>2020-03-04T09:15:11Z</time>
      </trkpt>
      <trkpt lat="46.86425" lon="5.53104">
        <ele>217.8</ele>
        <time>2020-03-04T09:15:12Z</time>
      </trkpt>
      <trkpt lat="46.86421" lon="5.531">
        <ele>217.8</ele>
        <time>2020-03-04T09:15:13Z</time>
      </trkpt>
      <trkpt lat="46.86418" lon="5.53096">
        <ele>218</ele>
        <time>2020-03-04T09:15:14Z</time>
      </trkpt>
      <trkpt lat="46.86414" lon="5.53092">
        <ele>218</ele>
        <time>2020-03-04T09:15:15Z</time>
      </trkpt>
      <trkpt lat="46.86411" lon="5.53088">
        <ele>218</ele>
        <time>2020-03-04T09:15:16Z</time>
      </trkpt>
      <trkpt lat="46.86408" lon="5.53085">
        <ele>218.4</ele>
        <time>2020-03-04T09:15:17Z</time>
      </trkpt>
      <trkpt lat="46.86405" lon="5.53081">
        <ele>218.4</ele>
        <time>2020-03-04T09:15:18Z</time>
      </trkpt>
      <trkpt lat="46.86402" lon="5.53078">
        <ele>218.6</ele>
        <time>2020-03-04T09:15:19Z</time>
      </trkpt>
      <trkpt lat="46.86399" lon="5.53074">
        <ele>218.6</ele>
        <time>2020-03-04T09:15:20Z</time>
      </trkpt>
      <trkpt lat="46.86396" lon="5.53071">
        <ele>219</ele>
        <time>2020-03-04T09:15:21Z</time>
      </trkpt>
      <trkpt lat="46.86393" lon="5.53067">
        <ele>219</ele>
        <time>2020-03-04T09:15:22Z</time>
      </trkpt>
      <trkpt lat="46.8639" lon="5.53064">
        <ele>219.2</ele>
        <time>2020-03-04T09:15:23Z</time>
      </trkpt>
      <trkpt lat="46.86388" lon="5.53061">
        <ele>219.2</ele>
        <time>2020-03-04T09:15:24Z</time>
      </trkpt>
      <trkpt lat="46.86385" lon="5.53058">
        <ele>219.2</ele>
        <time>2020-03-04T09:15:25Z</time>
      </trkpt>
      <trkpt lat="46.86382" lon="5.53055">
        <ele>219.4</ele>
        <time>2020-03-04T09:15:26Z</time>
      </trkpt>
      <trkpt lat="46.86379" lon="5.53053">
        <ele>219.4</ele>
        <time>2020-03-04T09:15:27Z</time>
      </trkpt>
      <trkpt lat="46.86377" lon="5.5305">
        <ele>219.8</ele>
        <time>2020-03-04T09:15:28Z</time>
      </trkpt>
      <trkpt lat="46.86374" lon="5.53047">
        <ele>219.8</ele>
        <time>2020-03-04T09:15:29Z</time>
      </trkpt>
      <trkpt lat="46.86371" lon="5.53044">
        <ele>220</ele>
        <time>2020-03-04T09:15:30Z</time>
      </trkpt>
      <trkpt lat="46.86368" lon="5.53041">
        <ele>220</ele>
        <time>2020-03-04T09:15:31Z</time>
      </trkpt>
      <trkpt lat="46.86365" lon="5.53038">
        <ele>220</ele>
        <time>2020-03-04T09:15:32Z</time>
      </trkpt>
      <trkpt lat="46.86363" lon="5.53034">
        <ele>220.2</ele>
        <time>2020-03-04T09:15:33Z</time>
      </trkpt>
      <trkpt lat="46.8636" lon="5.53031">
        <ele>220.2</ele>
        <time>2020-03-04T09:15:34Z</time>
      </trkpt>
      <trkpt lat="46.86357" lon="5.53027">
        <ele>220.2</ele>
        <time>2020-03-04T09:15:35Z</time>
      </trkpt>
      <trkpt lat="46.86353" lon="5.53023">
        <ele>220.2</ele>
        <time>2020-03-04T09:15:36Z</time>
      </trkpt>
      <trkpt lat="46.8635" lon="5.5302">
        <ele>220.6</ele>
        <time>2020-03-04T09:15:37Z</time>
      </trkpt>
      <trkpt lat="46.86347" lon="5.53016">
        <ele>220.6</ele>
        <time>2020-03-04T09:15:38Z</time>
      </trkpt>
      <trkpt lat="46.86343" lon="5.53012">
        <ele>220.6</ele>
        <time>2020-03-04T09:15:39Z</time>
      </trkpt>
      <trkpt lat="46.86339" lon="5.53008">
        <ele>220.6</ele>
        <time>2020-03-04T09:15:40Z</time>
      </trkpt>
      <trkpt lat="46.86335" lon="5.53004">
        <ele>220.6</ele>
        <time>2020-03-04T09:15:41Z</time>
      </trkpt>
      <trkpt lat="46.86332" lon="5.52999">
        <ele>220.6</ele>
        <time>2020-03-04T09:15:42Z</time>
      </trkpt>
      <trkpt lat="46.86328" lon="5.52994">
        <ele>220.6</ele>
        <time>2020-03-04T09:15:43Z</time>
      </trkpt>
      <trkpt lat="46.86324" lon="5.5299">
        <ele>220.6</ele>
        <time>2020-03-04T09:15:44Z</time>
      </trkpt>
      <trkpt lat="46.8632" lon="5.52986">
        <ele>220.2</ele>
        <time>2020-03-04T09:15:45Z</time>
      </trkpt>
      <trkpt lat="46.86316" lon="5.52981">
        <ele>220.2</ele>
        <time>2020-03-04T09:15:46Z</time>
      </trkpt>
      <trkpt lat="46.86311" lon="5.52977">
        <ele>220.2</ele>
        <time>2020-03-04T09:15:47Z</time>
      </trkpt>
      <trkpt lat="46.86307" lon="5.52972">
        <ele>220.2</ele>
        <time>2020-03-04T09:15:48Z</time>
      </trkpt>
      <trkpt lat="46.86303" lon="5.52968">
        <ele>220</ele>
        <time>2020-03-04T09:15:49Z</time>
      </trkpt>
      <trkpt lat="46.86298" lon="5.52963">
        <ele>220</ele>
        <time>2020-03-04T09:15:50Z</time>
      </trkpt>
      <trkpt lat="46.86293" lon="5.52957">
        <ele>219.8</ele>
        <time>2020-03-04T09:15:51Z</time>
      </trkpt>
      <trkpt lat="46.86288" lon="5.52952">
        <ele>219.6</ele>
        <time>2020-03-04T09:15:52Z</time>
      </trkpt>
      <trkpt lat="46.86283" lon="5.52947">
        <ele>219.6</ele>
        <time>2020-03-04T09:15:53Z</time>
      </trkpt>
      <trkpt lat="46.86278" lon="5.52941">
        <ele>219.6</ele>
        <time>2020-03-04T09:15:54Z</time>
      </trkpt>
      <trkpt lat="46.86273" lon="5.52935">
        <ele>219.2</ele>
        <time>2020-03-04T09:15:55Z</time>
      </trkpt>
      <trkpt lat="46.86268" lon="5.52929">
        <ele>219.2</ele>
        <time>2020-03-04T09:15:56Z</time>
      </trkpt>
      <trkpt lat="46.86263" lon="5.52924">
        <ele>219</ele>
        <time>2020-03-04T09:15:57Z</time>
      </trkpt>
      <trkpt lat="46.86258" lon="5.52919">
        <ele>219</ele>
        <time>2020-03-04T09:15:58Z</time>
      </trkpt>
      <trkpt lat="46.86253" lon="5.52914">
        <ele>219</ele>
        <time>2020-03-04T09:15:59Z</time>
      </trkpt>
      <trkpt lat="46.86248" lon="5.52908">
        <ele>219</ele>
        <time>2020-03-04T09:16:00Z</time>
      </trkpt>
      <trkpt lat="46.86243" lon="5.52904">
        <ele>218.8</ele>
        <time>2020-03-04T09:16:01Z</time>
      </trkpt>
      <trkpt lat="46.86238" lon="5.52899">
        <ele>218.8</ele>
        <time>2020-03-04T09:16:02Z</time>
      </trkpt>
      <trkpt lat="46.86233" lon="5.52894">
        <ele>218.8</ele>
        <time>2020-03-04T09:16:03Z</time>
      </trkpt>
      <trkpt lat="46.86228" lon="5.52889">
        <ele>218.8</ele>
        <time>2020-03-04T09:16:04Z</time>
      </trkpt>
      <trkpt lat="46.86224" lon="5.52885">
        <ele>219</ele>
        <time>2020-03-04T09:16:05Z</time>
      </trkpt>
      <trkpt lat="46.86219" lon="5.52881">
        <ele>219.2</ele>
        <time>2020-03-04T09:16:06Z</time>
      </trkpt>
      <trkpt lat="46.86216" lon="5.52877">
        <ele>219.2</ele>
        <time>2020-03-04T09:16:07Z</time>
      </trkpt>
      <trkpt lat="46.86212" lon="5.52873">
        <ele>219.4</ele>
        <time>2020-03-04T09:16:08Z</time>
      </trkpt>
      <trkpt lat="46.86206" lon="5.5287">
        <ele>219.4</ele>
        <time>2020-03-04T09:16:09Z</time>
      </trkpt>
      <trkpt lat="46.86201" lon="5.52867">
        <ele>219.8</ele>
        <time>2020-03-04T09:16:10Z</time>
      </trkpt>
      <trkpt lat="46.86196" lon="5.52863">
        <ele>220</ele>
        <time>2020-03-04T09:16:11Z</time>
      </trkpt>
      <trkpt lat="46.86191" lon="5.52859">
        <ele>220</ele>
        <time>2020-03-04T09:16:12Z</time>
      </trkpt>
      <trkpt lat="46.86186" lon="5.52855">
        <ele>220</ele>
        <time>2020-03-04T09:16:13Z</time>
      </trkpt>
      <trkpt lat="46.86182" lon="5.5285">
        <ele>220</ele>
        <time>2020-03-04T09:16:14Z</time>
      </trkpt>
      <trkpt lat="46.86177" lon="5.52845">
        <ele>220.2</ele>
        <time>2020-03-04T09:16:15Z</time>
      </trkpt>
      <trkpt lat="46.86173" lon="5.5284">
        <ele>220.2</ele>
        <time>2020-03-04T09:16:16Z</time>
      </trkpt>
      <trkpt lat="46.8617" lon="5.52835">
        <ele>220.2</ele>
        <time>2020-03-04T09:16:17Z</time>
      </trkpt>
      <trkpt lat="46.86166" lon="5.5283">
        <ele>220.2</ele>
        <time>2020-03-04T09:16:18Z</time>
      </trkpt>
      <trkpt lat="46.86163" lon="5.52825">
        <ele>220.2</ele>
        <time>2020-03-04T09:16:19Z</time>
      </trkpt>
      <trkpt lat="46.8616" lon="5.52819">
        <ele>220.2</ele>
        <time>2020-03-04T09:16:20Z</time>
      </trkpt>
      <trkpt lat="46.86156" lon="5.52814">
        <ele>220.2</ele>
        <time>2020-03-04T09:16:21Z</time>
      </trkpt>
      <trkpt lat="46.86153" lon="5.52808">
        <ele>220.2</ele>
        <time>2020-03-04T09:16:22Z</time>
      </trkpt>
      <trkpt lat="46.8615" lon="5.52801">
        <ele>220.2</ele>
        <time>2020-03-04T09:16:23Z</time>
      </trkpt>
      <trkpt lat="46.86147" lon="5.52794">
        <ele>220.2</ele>
        <time>2020-03-04T09:16:24Z</time>
      </trkpt>
      <trkpt lat="46.86144" lon="5.52787">
        <ele>220.2</ele>
        <time>2020-03-04T09:16:25Z</time>
      </trkpt>
      <trkpt lat="46.86142" lon="5.5278">
        <ele>220</ele>
        <time>2020-03-04T09:16:26Z</time>
      </trkpt>
      <trkpt lat="46.86139" lon="5.52773">
        <ele>220</ele>
        <time>2020-03-04T09:16:27Z</time>
      </trkpt>
      <trkpt lat="46.86136" lon="5.52765">
        <ele>219.6</ele>
        <time>2020-03-04T09:16:28Z</time>
      </trkpt>
      <trkpt lat="46.86133" lon="5.52756">
        <ele>219.6</ele>
        <time>2020-03-04T09:16:29Z</time>
      </trkpt>
      <trkpt lat="46.8613" lon="5.52748">
        <ele>219.4</ele>
        <time>2020-03-04T09:16:30Z</time>
      </trkpt>
      <trkpt lat="46.86126" lon="5.5274">
        <ele>219.4</ele>
        <time>2020-03-04T09:16:31Z</time>
      </trkpt>
      <trkpt lat="46.86122" lon="5.52732">
        <ele>219</ele>
        <time>2020-03-04T09:16:32Z</time>
      </trkpt>
      <trkpt lat="46.86118" lon="5.52723">
        <ele>219</ele>
        <time>2020-03-04T09:16:33Z</time>
      </trkpt>
      <trkpt lat="46.86113" lon="5.52715">
        <ele>218.6</ele>
        <time>2020-03-04T09:16:34Z</time>
      </trkpt>
      <trkpt lat="46.86109" lon="5.52707">
        <ele>218.4</ele>
        <time>2020-03-04T09:16:35Z</time>
      </trkpt>
      <trkpt lat="46.86104" lon="5.52698">
        <ele>218</ele>
        <time>2020-03-04T09:16:36Z</time>
      </trkpt>
      <trkpt lat="46.86099" lon="5.52689">
        <ele>217.6</ele>
        <time>2020-03-04T09:16:37Z</time>
      </trkpt>
      <trkpt lat="46.86094" lon="5.52681">
        <ele>217.4</ele>
        <time>2020-03-04T09:16:38Z</time>
      </trkpt>
      <trkpt lat="46.86089" lon="5.52672">
        <ele>217.4</ele>
        <time>2020-03-04T09:16:39Z</time>
      </trkpt>
      <trkpt lat="46.86085" lon="5.52664">
        <ele>217</ele>
        <time>2020-03-04T09:16:40Z</time>
      </trkpt>
      <trkpt lat="46.8608" lon="5.52655">
        <ele>216.6</ele>
        <time>2020-03-04T09:16:41Z</time>
      </trkpt>
      <trkpt lat="46.86075" lon="5.52646">
        <ele>216.4</ele>
        <time>2020-03-04T09:16:42Z</time>
      </trkpt>
      <trkpt lat="46.86071" lon="5.52637">
        <ele>216.4</ele>
        <time>2020-03-04T09:16:43Z</time>
      </trkpt>
      <trkpt lat="46.86066" lon="5.52628">
        <ele>216.2</ele>
        <time>2020-03-04T09:16:44Z</time>
      </trkpt>
      <trkpt lat="46.86061" lon="5.52619">
        <ele>216.2</ele>
        <time>2020-03-04T09:16:45Z</time>
      </trkpt>
      <trkpt lat="46.86057" lon="5.52611">
        <ele>216.2</ele>
        <time>2020-03-04T09:16:46Z</time>
      </trkpt>
      <trkpt lat="46.86052" lon="5.52603">
        <ele>215.8</ele>
        <time>2020-03-04T09:16:47Z</time>
      </trkpt>
      <trkpt lat="46.86047" lon="5.52594">
        <ele>215.8</ele>
        <time>2020-03-04T09:16:48Z</time>
      </trkpt>
      <trkpt lat="46.86043" lon="5.52585">
        <ele>215.8</ele>
        <time>2020-03-04T09:16:49Z</time>
      </trkpt>
      <trkpt lat="46.86038" lon="5.52577">
        <ele>215.8</ele>
        <time>2020-03-04T09:16:50Z</time>
      </trkpt>
      <trkpt lat="46.86034" lon="5.52568">
        <ele>215.8</ele>
        <time>2020-03-04T09:16:51Z</time>
      </trkpt>
      <trkpt lat="46.86029" lon="5.52559">
        <ele>215.8</ele>
        <time>2020-03-04T09:16:52Z</time>
      </trkpt>
      <trkpt lat="46.86025" lon="5.5255">
        <ele>215.8</ele>
        <time>2020-03-04T09:16:53Z</time>
      </trkpt>
      <trkpt lat="46.86021" lon="5.52541">
        <ele>215.6</ele>
        <time>2020-03-04T09:16:54Z</time>
      </trkpt>
      <trkpt lat="46.86017" lon="5.52532">
        <ele>215.6</ele>
        <time>2020-03-04T09:16:55Z</time>
      </trkpt>
      <trkpt lat="46.86013" lon="5.52523">
        <ele>215.6</ele>
        <time>2020-03-04T09:16:56Z</time>
      </trkpt>
      <trkpt lat="46.8601" lon="5.52514">
        <ele>215.6</ele>
        <time>2020-03-04T09:16:57Z</time>
      </trkpt>
      <trkpt lat="46.86007" lon="5.52505">
        <ele>215.6</ele>
        <time>2020-03-04T09:16:58Z</time>
      </trkpt>
      <trkpt lat="46.86004" lon="5.52496">
        <ele>215.6</ele>
        <time>2020-03-04T09:16:59Z</time>
      </trkpt>
      <trkpt lat="46.86001" lon="5.52486">
        <ele>215.6</ele>
        <time>2020-03-04T09:17:00Z</time>
      </trkpt>
      <trkpt lat="46.85998" lon="5.52477">
        <ele>215.6</ele>
        <time>2020-03-04T09:17:01Z</time>
      </trkpt>
      <trkpt lat="46.85995" lon="5.52467">
        <ele>215.6</ele>
        <time>2020-03-04T09:17:02Z</time>
      </trkpt>
      <trkpt lat="46.85993" lon="5.52458">
        <ele>215.6</ele>
        <time>2020-03-04T09:17:03Z</time>
      </trkpt>
      <trkpt lat="46.8599" lon="5.52448">
        <ele>215.4</ele>
        <time>2020-03-04T09:17:04Z</time>
      </trkpt>
      <trkpt lat="46.85987" lon="5.52439">
        <ele>215.4</ele>
        <time>2020-03-04T09:17:05Z</time>
      </trkpt>
      <trkpt lat="46.85984" lon="5.52429">
        <ele>215.4</ele>
        <time>2020-03-04T09:17:06Z</time>
      </trkpt>
      <trkpt lat="46.8598" lon="5.5242">
        <ele>215</ele>
        <time>2020-03-04T09:17:07Z</time>
      </trkpt>
      <trkpt lat="46.85976" lon="5.52411">
        <ele>215</ele>
        <time>2020-03-04T09:17:08Z</time>
      </trkpt>
      <trkpt lat="46.85971" lon="5.52403">
        <ele>214.6</ele>
        <time>2020-03-04T09:17:09Z</time>
      </trkpt>
      <trkpt lat="46.85966" lon="5.52394">
        <ele>214.6</ele>
        <time>2020-03-04T09:17:10Z</time>
      </trkpt>
      <trkpt lat="46.85961" lon="5.52386">
        <ele>214.4</ele>
        <time>2020-03-04T09:17:11Z</time>
      </trkpt>
      <trkpt lat="46.85955" lon="5.52378">
        <ele>214</ele>
        <time>2020-03-04T09:17:12Z</time>
      </trkpt>
      <trkpt lat="46.85949" lon="5.52371">
        <ele>213.6</ele>
        <time>2020-03-04T09:17:13Z</time>
      </trkpt>
      <trkpt lat="46.85943" lon="5.52363">
        <ele>213.2</ele>
        <time>2020-03-04T09:17:14Z</time>
      </trkpt>
      <trkpt lat="46.85936" lon="5.52355">
        <ele>212.8</ele>
        <time>2020-03-04T09:17:15Z</time>
      </trkpt>
      <trkpt lat="46.85929" lon="5.52346">
        <ele>212.4</ele>
        <time>2020-03-04T09:17:16Z</time>
      </trkpt>
      <trkpt lat="46.85922" lon="5.52338">
        <ele>212</ele>
        <time>2020-03-04T09:17:17Z</time>
      </trkpt>
      <trkpt lat="46.85916" lon="5.52329">
        <ele>211.6</ele>
        <time>2020-03-04T09:17:18Z</time>
      </trkpt>
      <trkpt lat="46.85909" lon="5.52321">
        <ele>211.4</ele>
        <time>2020-03-04T09:17:19Z</time>
      </trkpt>
      <trkpt lat="46.85903" lon="5.52312">
        <ele>211</ele>
        <time>2020-03-04T09:17:20Z</time>
      </trkpt>
      <trkpt lat="46.85897" lon="5.52304">
        <ele>211</ele>
        <time>2020-03-04T09:17:21Z</time>
      </trkpt>
      <trkpt lat="46.85891" lon="5.52296">
        <ele>210.6</ele>
        <time>2020-03-04T09:17:22Z</time>
      </trkpt>
      <trkpt lat="46.85885" lon="5.52288">
        <ele>210.6</ele>
        <time>2020-03-04T09:17:23Z</time>
      </trkpt>
      <trkpt lat="46.8588" lon="5.52279">
        <ele>210.4</ele>
        <time>2020-03-04T09:17:24Z</time>
      </trkpt>
      <trkpt lat="46.85875" lon="5.52271">
        <ele>210.4</ele>
        <time>2020-03-04T09:17:25Z</time>
      </trkpt>
      <trkpt lat="46.85869" lon="5.52263">
        <ele>210</ele>
        <time>2020-03-04T09:17:26Z</time>
      </trkpt>
      <trkpt lat="46.85865" lon="5.52255">
        <ele>210</ele>
        <time>2020-03-04T09:17:27Z</time>
      </trkpt>
      <trkpt lat="46.8586" lon="5.52247">
        <ele>209.8</ele>
        <time>2020-03-04T09:17:28Z</time>
      </trkpt>
      <trkpt lat="46.85855" lon="5.52239">
        <ele>209.8</ele>
        <time>2020-03-04T09:17:29Z</time>
      </trkpt>
      <trkpt lat="46.85851" lon="5.52232">
        <ele>209.8</ele>
        <time>2020-03-04T09:17:30Z</time>
      </trkpt>
      <trkpt lat="46.85847" lon="5.52224">
        <ele>209.8</ele>
        <time>2020-03-04T09:17:31Z</time>
      </trkpt>
      <trkpt lat="46.85843" lon="5.52217">
        <ele>209.8</ele>
        <time>2020-03-04T09:17:32Z</time>
      </trkpt>
      <trkpt lat="46.85838" lon="5.52209">
        <ele>209.8</ele>
        <time>2020-03-04T09:17:33Z</time>
      </trkpt>
      <trkpt lat="46.85834" lon="5.52201">
        <ele>209.8</ele>
        <time>2020-03-04T09:17:34Z</time>
      </trkpt>
      <trkpt lat="46.8583" lon="5.52194">
        <ele>209.8</ele>
        <time>2020-03-04T09:17:35Z</time>
      </trkpt>
      <trkpt lat="46.85825" lon="5.52187">
        <ele>209.8</ele>
        <time>2020-03-04T09:17:36Z</time>
      </trkpt>
      <trkpt lat="46.85821" lon="5.52181">
        <ele>210</ele>
        <time>2020-03-04T09:17:37Z</time>
      </trkpt>
      <trkpt lat="46.85817" lon="5.52174">
        <ele>210</ele>
        <time>2020-03-04T09:17:38Z</time>
      </trkpt>
      <trkpt lat="46.85813" lon="5.52168">
        <ele>210</ele>
        <time>2020-03-04T09:17:39Z</time>
      </trkpt>
      <trkpt lat="46.85808" lon="5.52162">
        <ele>210</ele>
        <time>2020-03-04T09:17:40Z</time>
      </trkpt>
      <trkpt lat="46.85803" lon="5.52156">
        <ele>210</ele>
        <time>2020-03-04T09:17:41Z</time>
      </trkpt>
      <trkpt lat="46.85799" lon="5.5215">
        <ele>210</ele>
        <time>2020-03-04T09:17:42Z</time>
      </trkpt>
      <trkpt lat="46.85795" lon="5.52144">
        <ele>210.4</ele>
        <time>2020-03-04T09:17:43Z</time>
      </trkpt>
      <trkpt lat="46.85791" lon="5.52138">
        <ele>210.4</ele>
        <time>2020-03-04T09:17:44Z</time>
      </trkpt>
      <trkpt lat="46.85786" lon="5.52132">
        <ele>210.6</ele>
        <time>2020-03-04T09:17:45Z</time>
      </trkpt>
      <trkpt lat="46.85782" lon="5.52127">
        <ele>211</ele>
        <time>2020-03-04T09:17:46Z</time>
      </trkpt>
      <trkpt lat="46.85778" lon="5.52122">
        <ele>211</ele>
        <time>2020-03-04T09:17:47Z</time>
      </trkpt>
      <trkpt lat="46.85774" lon="5.52117">
        <ele>211.4</ele>
        <time>2020-03-04T09:17:48Z</time>
      </trkpt>
      <trkpt lat="46.8577" lon="5.52112">
        <ele>211.6</ele>
        <time>2020-03-04T09:17:49Z</time>
      </trkpt>
      <trkpt lat="46.85767" lon="5.52108">
        <ele>211.6</ele>
        <time>2020-03-04T09:17:50Z</time>
      </trkpt>
      <trkpt lat="46.85763" lon="5.52103">
        <ele>212</ele>
        <time>2020-03-04T09:17:51Z</time>
      </trkpt>
      <trkpt lat="46.85759" lon="5.52099">
        <ele>212</ele>
        <time>2020-03-04T09:17:52Z</time>
      </trkpt>
      <trkpt lat="46.85756" lon="5.52095">
        <ele>212.2</ele>
        <time>2020-03-04T09:17:53Z</time>
      </trkpt>
      <trkpt lat="46.85752" lon="5.52091">
        <ele>212.2</ele>
        <time>2020-03-04T09:17:54Z</time>
      </trkpt>
      <trkpt lat="46.85749" lon="5.52087">
        <ele>212.6</ele>
        <time>2020-03-04T09:17:55Z</time>
      </trkpt>
      <trkpt lat="46.85745" lon="5.52084">
        <ele>212.6</ele>
        <time>2020-03-04T09:17:56Z</time>
      </trkpt>
      <trkpt lat="46.85742" lon="5.52081">
        <ele>213</ele>
        <time>2020-03-04T09:17:57Z</time>
      </trkpt>
      <trkpt lat="46.85739" lon="5.52077">
        <ele>213</ele>
        <time>2020-03-04T09:17:58Z</time>
      </trkpt>
      <trkpt lat="46.85735" lon="5.52074">
        <ele>213.4</ele>
        <time>2020-03-04T09:17:59Z</time>
      </trkpt>
      <trkpt lat="46.85732" lon="5.52071">
        <ele>213.4</ele>
        <time>2020-03-04T09:18:00Z</time>
      </trkpt>
      <trkpt lat="46.85729" lon="5.52068">
        <ele>213.6</ele>
        <time>2020-03-04T09:18:01Z</time>
      </trkpt>
      <trkpt lat="46.85726" lon="5.52065">
        <ele>213.6</ele>
        <time>2020-03-04T09:18:02Z</time>
      </trkpt>
      <trkpt lat="46.85722" lon="5.52061">
        <ele>214</ele>
        <time>2020-03-04T09:18:03Z</time>
      </trkpt>
      <trkpt lat="46.85719" lon="5.52058">
        <ele>214.2</ele>
        <time>2020-03-04T09:18:04Z</time>
      </trkpt>
      <trkpt lat="46.85716" lon="5.52055">
        <ele>214.2</ele>
        <time>2020-03-04T09:18:05Z</time>
      </trkpt>
      <trkpt lat="46.85713" lon="5.52051">
        <ele>214.4</ele>
        <time>2020-03-04T09:18:06Z</time>
      </trkpt>
      <trkpt lat="46.8571" lon="5.52047">
        <ele>214.4</ele>
        <time>2020-03-04T09:18:07Z</time>
      </trkpt>
      <trkpt lat="46.85707" lon="5.52044">
        <ele>214.6</ele>
        <time>2020-03-04T09:18:08Z</time>
      </trkpt>
      <trkpt lat="46.85704" lon="5.5204">
        <ele>214.6</ele>
        <time>2020-03-04T09:18:09Z</time>
      </trkpt>
      <trkpt lat="46.85701" lon="5.52037">
        <ele>215</ele>
        <time>2020-03-04T09:18:10Z</time>
      </trkpt>
      <trkpt lat="46.85697" lon="5.52034">
        <ele>215</ele>
        <time>2020-03-04T09:18:11Z</time>
      </trkpt>
      <trkpt lat="46.85694" lon="5.5203">
        <ele>215</ele>
        <time>2020-03-04T09:18:12Z</time>
      </trkpt>
      <trkpt lat="46.85691" lon="5.52026">
        <ele>215</ele>
        <time>2020-03-04T09:18:13Z</time>
      </trkpt>
      <trkpt lat="46.85687" lon="5.52023">
        <ele>215.2</ele>
        <time>2020-03-04T09:18:14Z</time>
      </trkpt>
      <trkpt lat="46.85684" lon="5.52018">
        <ele>215.2</ele>
        <time>2020-03-04T09:18:15Z</time>
      </trkpt>
      <trkpt lat="46.85681" lon="5.52014">
        <ele>215.2</ele>
        <time>2020-03-04T09:18:16Z</time>
      </trkpt>
      <trkpt lat="46.85677" lon="5.52011">
        <ele>215.2</ele>
        <time>2020-03-04T09:18:17Z</time>
      </trkpt>
      <trkpt lat="46.85674" lon="5.52007">
        <ele>215.6</ele>
        <time>2020-03-04T09:18:18Z</time>
      </trkpt>
      <trkpt lat="46.85671" lon="5.52003">
        <ele>215.6</ele>
        <time>2020-03-04T09:18:19Z</time>
      </trkpt>
      <trkpt lat="46.85668" lon="5.51999">
        <ele>215.6</ele>
        <time>2020-03-04T09:18:20Z</time>
      </trkpt>
      <trkpt lat="46.85665" lon="5.51995">
        <ele>215.6</ele>
        <time>2020-03-04T09:18:21Z</time>
      </trkpt>
      <trkpt lat="46.85661" lon="5.51991">
        <ele>215.8</ele>
        <time>2020-03-04T09:18:22Z</time>
      </trkpt>
      <trkpt lat="46.85657" lon="5.51987">
        <ele>215.8</ele>
        <time>2020-03-04T09:18:23Z</time>
      </trkpt>
      <trkpt lat="46.85654" lon="5.51983">
        <ele>215.8</ele>
        <time>2020-03-04T09:18:24Z</time>
      </trkpt>
      <trkpt lat="46.8565" lon="5.51979">
        <ele>215.8</ele>
        <time>2020-03-04T09:18:25Z</time>
      </trkpt>
      <trkpt lat="46.85647" lon="5.51975">
        <ele>215.8</ele>
        <time>2020-03-04T09:18:26Z</time>
      </trkpt>
      <trkpt lat="46.85643" lon="5.5197">
        <ele>216</ele>
        <time>2020-03-04T09:18:27Z</time>
      </trkpt>
      <trkpt lat="46.85639" lon="5.51966">
        <ele>216</ele>
        <time>2020-03-04T09:18:28Z</time>
      </trkpt>
      <trkpt lat="46.85635" lon="5.51961">
        <ele>216</ele>
        <time>2020-03-04T09:18:29Z</time>
      </trkpt>
      <trkpt lat="46.85631" lon="5.51955">
        <ele>216.2</ele>
        <time>2020-03-04T09:18:30Z</time>
      </trkpt>
      <trkpt lat="46.85626" lon="5.5195">
        <ele>216.2</ele>
        <time>2020-03-04T09:18:31Z</time>
      </trkpt>
      <trkpt lat="46.85622" lon="5.51945">
        <ele>216.2</ele>
        <time>2020-03-04T09:18:32Z</time>
      </trkpt>
      <trkpt lat="46.85619" lon="5.5194">
        <ele>216.6</ele>
        <time>2020-03-04T09:18:33Z</time>
      </trkpt>
      <trkpt lat="46.85616" lon="5.51935">
        <ele>216.6</ele>
        <time>2020-03-04T09:18:34Z</time>
      </trkpt>
      <trkpt lat="46.85612" lon="5.5193">
        <ele>216.6</ele>
        <time>2020-03-04T09:18:35Z</time>
      </trkpt>
      <trkpt lat="46.85609" lon="5.51925">
        <ele>216.8</ele>
        <time>2020-03-04T09:18:36Z</time>
      </trkpt>
      <trkpt lat="46.85605" lon="5.5192">
        <ele>216.8</ele>
        <time>2020-03-04T09:18:37Z</time>
      </trkpt>
      <trkpt lat="46.85601" lon="5.51915">
        <ele>216.8</ele>
        <time>2020-03-04T09:18:38Z</time>
      </trkpt>
      <trkpt lat="46.85598" lon="5.5191">
        <ele>216.8</ele>
        <time>2020-03-04T09:18:39Z</time>
      </trkpt>
      <trkpt lat="46.85594" lon="5.51905">
        <ele>217</ele>
        <time>2020-03-04T09:18:40Z</time>
      </trkpt>
      <trkpt lat="46.85591" lon="5.519">
        <ele>217</ele>
        <time>2020-03-04T09:18:41Z</time>
      </trkpt>
      <trkpt lat="46.85587" lon="5.51895">
        <ele>217</ele>
        <time>2020-03-04T09:18:42Z</time>
      </trkpt>
      <trkpt lat="46.85583" lon="5.51891">
        <ele>217.2</ele>
        <time>2020-03-04T09:18:43Z</time>
      </trkpt>
      <trkpt lat="46.85579" lon="5.51887">
        <ele>217.2</ele>
        <time>2020-03-04T09:18:44Z</time>
      </trkpt>
      <trkpt lat="46.85576" lon="5.51882">
        <ele>217.2</ele>
        <time>2020-03-04T09:18:45Z</time>
      </trkpt>
      <trkpt lat="46.85573" lon="5.51878">
        <ele>217.6</ele>
        <time>2020-03-04T09:18:46Z</time>
      </trkpt>
      <trkpt lat="46.85569" lon="5.51873">
        <ele>217.6</ele>
        <time>2020-03-04T09:18:47Z</time>
      </trkpt>
      <trkpt lat="46.85565" lon="5.51868">
        <ele>217.6</ele>
        <time>2020-03-04T09:18:48Z</time>
      </trkpt>
      <trkpt lat="46.85562" lon="5.51863">
        <ele>217.8</ele>
        <time>2020-03-04T09:18:49Z</time>
      </trkpt>
      <trkpt lat="46.85559" lon="5.51859">
        <ele>217.8</ele>
        <time>2020-03-04T09:18:50Z</time>
      </trkpt>
      <trkpt lat="46.85555" lon="5.51854">
        <ele>218.2</ele>
        <time>2020-03-04T09:18:51Z</time>
      </trkpt>
      <trkpt lat="46.85551" lon="5.5185">
        <ele>218.2</ele>
        <time>2020-03-04T09:18:52Z</time>
      </trkpt>
      <trkpt lat="46.85547" lon="5.51846">
        <ele>218.2</ele>
        <time>2020-03-04T09:18:53Z</time>
      </trkpt>
      <trkpt lat="46.85544" lon="5.51841">
        <ele>218.4</ele>
        <time>2020-03-04T09:18:54Z</time>
      </trkpt>
      <trkpt lat="46.8554" lon="5.51837">
        <ele>218.4</ele>
        <time>2020-03-04T09:18:55Z</time>
      </trkpt>
      <trkpt lat="46.85537" lon="5.51833">
        <ele>218.4</ele>
        <time>2020-03-04T09:18:56Z</time>
      </trkpt>
      <trkpt lat="46.85534" lon="5.51828">
        <ele>218.4</ele>
        <time>2020-03-04T09:18:57Z</time>
      </trkpt>
      <trkpt lat="46.85531" lon="5.51824">
        <ele>218.6</ele>
        <time>2020-03-04T09:18:58Z</time>
      </trkpt>
      <trkpt lat="46.85527" lon="5.5182">
        <ele>218.6</ele>
        <time>2020-03-04T09:18:59Z</time>
      </trkpt>
      <trkpt lat="46.85523" lon="5.51815">
        <ele>218.6</ele>
        <time>2020-03-04T09:19:00Z</time>
      </trkpt>
      <trkpt lat="46.85519" lon="5.5181">
        <ele>218.6</ele>
        <time>2020-03-04T09:19:01Z</time>
      </trkpt>
      <trkpt lat="46.85515" lon="5.51806">
        <ele>218.6</ele>
        <time>2020-03-04T09:19:02Z</time>
      </trkpt>
      <trkpt lat="46.8551" lon="5.51801">
        <ele>218.6</ele>
        <time>2020-03-04T09:19:03Z</time>
      </trkpt>
      <trkpt lat="46.85505" lon="5.51796">
        <ele>218.8</ele>
        <time>2020-03-04T09:19:04Z</time>
      </trkpt>
      <trkpt lat="46.85501" lon="5.51792">
        <ele>218.8</ele>
        <time>2020-03-04T09:19:05Z</time>
      </trkpt>
      <trkpt lat="46.85496" lon="5.51787">
        <ele>218.8</ele>
        <time>2020-03-04T09:19:06Z</time>
      </trkpt>
      <trkpt lat="46.85491" lon="5.51782">
        <ele>218.8</ele>
        <time>2020-03-04T09:19:07Z</time>
      </trkpt>
      <trkpt lat="46.85487" lon="5.51777">
        <ele>218.8</ele>
        <time>2020-03-04T09:19:08Z</time>
      </trkpt>
      <trkpt lat="46.85483" lon="5.51773">
        <ele>218.8</ele>
        <time>2020-03-04T09:19:09Z</time>
      </trkpt>
      <trkpt lat="46.85478" lon="5.51769">
        <ele>218.8</ele>
        <time>2020-03-04T09:19:10Z</time>
      </trkpt>
      <trkpt lat="46.85473" lon="5.51764">
        <ele>218.8</ele>
        <time>2020-03-04T09:19:11Z</time>
      </trkpt>
      <trkpt lat="46.85468" lon="5.51758">
        <ele>218.8</ele>
        <time>2020-03-04T09:19:12Z</time>
      </trkpt>
      <trkpt lat="46.85463" lon="5.51753">
        <ele>218.8</ele>
        <time>2020-03-04T09:19:13Z</time>
      </trkpt>
      <trkpt lat="46.85458" lon="5.51749">
        <ele>218.8</ele>
        <time>2020-03-04T09:19:14Z</time>
      </trkpt>
      <trkpt lat="46.85453" lon="5.51745">
        <ele>218.8</ele>
        <time>2020-03-04T09:19:15Z</time>
      </trkpt>
      <trkpt lat="46.85448" lon="5.51742">
        <ele>218.8</ele>
        <time>2020-03-04T09:19:16Z</time>
      </trkpt>
      <trkpt lat="46.85442" lon="5.51737">
        <ele>218.8</ele>
        <time>2020-03-04T09:19:17Z</time>
      </trkpt>
      <trkpt lat="46.85437" lon="5.51733">
        <ele>218.8</ele>
        <time>2020-03-04T09:19:18Z</time>
      </trkpt>
      <trkpt lat="46.85431" lon="5.51729">
        <ele>218.8</ele>
        <time>2020-03-04T09:19:19Z</time>
      </trkpt>
      <trkpt lat="46.85425" lon="5.51724">
        <ele>218.8</ele>
        <time>2020-03-04T09:19:20Z</time>
      </trkpt>
      <trkpt lat="46.85419" lon="5.51719">
        <ele>219</ele>
        <time>2020-03-04T09:19:21Z</time>
      </trkpt>
      <trkpt lat="46.85413" lon="5.51715">
        <ele>219</ele>
        <time>2020-03-04T09:19:22Z</time>
      </trkpt>
      <trkpt lat="46.85408" lon="5.51711">
        <ele>219</ele>
        <time>2020-03-04T09:19:23Z</time>
      </trkpt>
      <trkpt lat="46.85402" lon="5.51707">
        <ele>219</ele>
        <time>2020-03-04T09:19:24Z</time>
      </trkpt>
      <trkpt lat="46.85397" lon="5.51703">
        <ele>219</ele>
        <time>2020-03-04T09:19:25Z</time>
      </trkpt>
      <trkpt lat="46.85391" lon="5.51698">
        <ele>219</ele>
        <time>2020-03-04T09:19:26Z</time>
      </trkpt>
      <trkpt lat="46.85386" lon="5.51693">
        <ele>219</ele>
        <time>2020-03-04T09:19:27Z</time>
      </trkpt>
      <trkpt lat="46.85381" lon="5.51688">
        <ele>219</ele>
        <time>2020-03-04T09:19:28Z</time>
      </trkpt>
      <trkpt lat="46.85375" lon="5.51683">
        <ele>219</ele>
        <time>2020-03-04T09:19:29Z</time>
      </trkpt>
      <trkpt lat="46.8537" lon="5.51678">
        <ele>219</ele>
        <time>2020-03-04T09:19:30Z</time>
      </trkpt>
      <trkpt lat="46.85365" lon="5.51672">
        <ele>218.8</ele>
        <time>2020-03-04T09:19:31Z</time>
      </trkpt>
      <trkpt lat="46.8536" lon="5.51667">
        <ele>218.8</ele>
        <time>2020-03-04T09:19:32Z</time>
      </trkpt>
      <trkpt lat="46.85355" lon="5.51662">
        <ele>218.8</ele>
        <time>2020-03-04T09:19:33Z</time>
      </trkpt>
      <trkpt lat="46.85351" lon="5.51657">
        <ele>218.8</ele>
        <time>2020-03-04T09:19:34Z</time>
      </trkpt>
      <trkpt lat="46.85346" lon="5.51652">
        <ele>218.8</ele>
        <time>2020-03-04T09:19:35Z</time>
      </trkpt>
      <trkpt lat="46.85341" lon="5.51647">
        <ele>218.8</ele>
        <time>2020-03-04T09:19:36Z</time>
      </trkpt>
      <trkpt lat="46.85337" lon="5.51642">
        <ele>218.8</ele>
        <time>2020-03-04T09:19:37Z</time>
      </trkpt>
      <trkpt lat="46.85333" lon="5.51637">
        <ele>218.8</ele>
        <time>2020-03-04T09:19:38Z</time>
      </trkpt>
      <trkpt lat="46.85328" lon="5.51631">
        <ele>218.8</ele>
        <time>2020-03-04T09:19:39Z</time>
      </trkpt>
      <trkpt lat="46.85324" lon="5.51625">
        <ele>218.8</ele>
        <time>2020-03-04T09:19:40Z</time>
      </trkpt>
      <trkpt lat="46.8532" lon="5.5162">
        <ele>219</ele>
        <time>2020-03-04T09:19:41Z</time>
      </trkpt>
      <trkpt lat="46.85316" lon="5.51614">
        <ele>219</ele>
        <time>2020-03-04T09:19:42Z</time>
      </trkpt>
      <trkpt lat="46.85312" lon="5.51608">
        <ele>219</ele>
        <time>2020-03-04T09:19:43Z</time>
      </trkpt>
      <trkpt lat="46.85308" lon="5.51603">
        <ele>219</ele>
        <time>2020-03-04T09:19:44Z</time>
      </trkpt>
      <trkpt lat="46.85304" lon="5.51597">
        <ele>219</ele>
        <time>2020-03-04T09:19:45Z</time>
      </trkpt>
      <trkpt lat="46.853" lon="5.51591">
        <ele>219.2</ele>
        <time>2020-03-04T09:19:46Z</time>
      </trkpt>
      <trkpt lat="46.85296" lon="5.51585">
        <ele>219.2</ele>
        <time>2020-03-04T09:19:47Z</time>
      </trkpt>
      <trkpt lat="46.85292" lon="5.51579">
        <ele>219.2</ele>
        <time>2020-03-04T09:19:48Z</time>
      </trkpt>
      <trkpt lat="46.85287" lon="5.51573">
        <ele>219.2</ele>
        <time>2020-03-04T09:19:49Z</time>
      </trkpt>
      <trkpt lat="46.85283" lon="5.51567">
        <ele>219</ele>
        <time>2020-03-04T09:19:50Z</time>
      </trkpt>
      <trkpt lat="46.85279" lon="5.51561">
        <ele>219</ele>
        <time>2020-03-04T09:19:51Z</time>
      </trkpt>
      <trkpt lat="46.85274" lon="5.51553">
        <ele>219</ele>
        <time>2020-03-04T09:19:52Z</time>
      </trkpt>
      <trkpt lat="46.85269" lon="5.51546">
        <ele>218.6</ele>
        <time>2020-03-04T09:19:53Z</time>
      </trkpt>
      <trkpt lat="46.85265" lon="5.51539">
        <ele>218.6</ele>
        <time>2020-03-04T09:19:54Z</time>
      </trkpt>
      <trkpt lat="46.8526" lon="5.51532">
        <ele>218.4</ele>
        <time>2020-03-04T09:19:55Z</time>
      </trkpt>
      <trkpt lat="46.85255" lon="5.51524">
        <ele>218.4</ele>
        <time>2020-03-04T09:19:56Z</time>
      </trkpt>
      <trkpt lat="46.85249" lon="5.51517">
        <ele>218</ele>
        <time>2020-03-04T09:19:57Z</time>
      </trkpt>
      <trkpt lat="46.85244" lon="5.51509">
        <ele>218</ele>
        <time>2020-03-04T09:19:58Z</time>
      </trkpt>
      <trkpt lat="46.85238" lon="5.51502">
        <ele>217.8</ele>
        <time>2020-03-04T09:19:59Z</time>
      </trkpt>
      <trkpt lat="46.85233" lon="5.51494">
        <ele>217.8</ele>
        <time>2020-03-04T09:20:00Z</time>
      </trkpt>
      <trkpt lat="46.85227" lon="5.51487">
        <ele>217.6</ele>
        <time>2020-03-04T09:20:01Z</time>
      </trkpt>
      <trkpt lat="46.85222" lon="5.5148">
        <ele>217.6</ele>
        <time>2020-03-04T09:20:02Z</time>
      </trkpt>
      <trkpt lat="46.85216" lon="5.51473">
        <ele>217.6</ele>
        <time>2020-03-04T09:20:03Z</time>
      </trkpt>
      <trkpt lat="46.8521" lon="5.51466">
        <ele>217.4</ele>
        <time>2020-03-04T09:20:04Z</time>
      </trkpt>
      <trkpt lat="46.85204" lon="5.5146">
        <ele>217.4</ele>
        <time>2020-03-04T09:20:05Z</time>
      </trkpt>
      <trkpt lat="46.85198" lon="5.51453">
        <ele>217.4</ele>
        <time>2020-03-04T09:20:06Z</time>
      </trkpt>
      <trkpt lat="46.85192" lon="5.51447">
        <ele>217.4</ele>
        <time>2020-03-04T09:20:07Z</time>
      </trkpt>
      <trkpt lat="46.85186" lon="5.51441">
        <ele>217.2</ele>
        <time>2020-03-04T09:20:08Z</time>
      </trkpt>
      <trkpt lat="46.85179" lon="5.51435">
        <ele>217.2</ele>
        <time>2020-03-04T09:20:09Z</time>
      </trkpt>
      <trkpt lat="46.85173" lon="5.5143">
        <ele>217.2</ele>
        <time>2020-03-04T09:20:10Z</time>
      </trkpt>
      <trkpt lat="46.85168" lon="5.51424">
        <ele>217.2</ele>
        <time>2020-03-04T09:20:11Z</time>
      </trkpt>
      <trkpt lat="46.85162" lon="5.51419">
        <ele>217.2</ele>
        <time>2020-03-04T09:20:12Z</time>
      </trkpt>
      <trkpt lat="46.85156" lon="5.51414">
        <ele>217</ele>
        <time>2020-03-04T09:20:13Z</time>
      </trkpt>
      <trkpt lat="46.85151" lon="5.51409">
        <ele>217</ele>
        <time>2020-03-04T09:20:14Z</time>
      </trkpt>
      <trkpt lat="46.85146" lon="5.51403">
        <ele>217</ele>
        <time>2020-03-04T09:20:15Z</time>
      </trkpt>
      <trkpt lat="46.85141" lon="5.51397">
        <ele>217</ele>
        <time>2020-03-04T09:20:16Z</time>
      </trkpt>
      <trkpt lat="46.85137" lon="5.51389">
        <ele>217</ele>
        <time>2020-03-04T09:20:17Z</time>
      </trkpt>
      <trkpt lat="46.85134" lon="5.51381">
        <ele>217</ele>
        <time>2020-03-04T09:20:18Z</time>
      </trkpt>
      <trkpt lat="46.85132" lon="5.51372">
        <ele>217</ele>
        <time>2020-03-04T09:20:19Z</time>
      </trkpt>
      <trkpt lat="46.8513" lon="5.51363">
        <ele>217</ele>
        <time>2020-03-04T09:20:20Z</time>
      </trkpt>
      <trkpt lat="46.85129" lon="5.51353">
        <ele>217</ele>
        <time>2020-03-04T09:20:21Z</time>
      </trkpt>
      <trkpt lat="46.85128" lon="5.51344">
        <ele>217.2</ele>
        <time>2020-03-04T09:20:22Z</time>
      </trkpt>
      <trkpt lat="46.85127" lon="5.51335">
        <ele>217.2</ele>
        <time>2020-03-04T09:20:23Z</time>
      </trkpt>
      <trkpt lat="46.85127" lon="5.51327">
        <ele>217.6</ele>
        <time>2020-03-04T09:20:24Z</time>
      </trkpt>
      <trkpt lat="46.85127" lon="5.51317">
        <ele>217.6</ele>
        <time>2020-03-04T09:20:25Z</time>
      </trkpt>
      <trkpt lat="46.85126" lon="5.51308">
        <ele>217.6</ele>
        <time>2020-03-04T09:20:26Z</time>
      </trkpt>
      <trkpt lat="46.85125" lon="5.51298">
        <ele>217.6</ele>
        <time>2020-03-04T09:20:27Z</time>
      </trkpt>
      <trkpt lat="46.85124" lon="5.51288">
        <ele>217.6</ele>
        <time>2020-03-04T09:20:28Z</time>
      </trkpt>
      <trkpt lat="46.85123" lon="5.51277">
        <ele>217.2</ele>
        <time>2020-03-04T09:20:29Z</time>
      </trkpt>
      <trkpt lat="46.85121" lon="5.51266">
        <ele>217.2</ele>
        <time>2020-03-04T09:20:30Z</time>
      </trkpt>
      <trkpt lat="46.85118" lon="5.51256">
        <ele>217.2</ele>
        <time>2020-03-04T09:20:31Z</time>
      </trkpt>
      <trkpt lat="46.85114" lon="5.51246">
        <ele>217</ele>
        <time>2020-03-04T09:20:32Z</time>
      </trkpt>
      <trkpt lat="46.8511" lon="5.51237">
        <ele>217</ele>
        <time>2020-03-04T09:20:33Z</time>
      </trkpt>
      <trkpt lat="46.85105" lon="5.51229">
        <ele>217</ele>
        <time>2020-03-04T09:20:34Z</time>
      </trkpt>
      <trkpt lat="46.851" lon="5.51221">
        <ele>217</ele>
        <time>2020-03-04T09:20:35Z</time>
      </trkpt>
      <trkpt lat="46.85095" lon="5.51214">
        <ele>216.8</ele>
        <time>2020-03-04T09:20:36Z</time>
      </trkpt>
      <trkpt lat="46.8509" lon="5.51206">
        <ele>216.8</ele>
        <time>2020-03-04T09:20:37Z</time>
      </trkpt>
      <trkpt lat="46.85085" lon="5.51199">
        <ele>216.6</ele>
        <time>2020-03-04T09:20:38Z</time>
      </trkpt>
      <trkpt lat="46.85079" lon="5.51193">
        <ele>216.6</ele>
        <time>2020-03-04T09:20:39Z</time>
      </trkpt>
      <trkpt lat="46.85074" lon="5.51186">
        <ele>216.6</ele>
        <time>2020-03-04T09:20:40Z</time>
      </trkpt>
      <trkpt lat="46.85069" lon="5.5118">
        <ele>216.6</ele>
        <time>2020-03-04T09:20:41Z</time>
      </trkpt>
      <trkpt lat="46.85063" lon="5.51174">
        <ele>216.2</ele>
        <time>2020-03-04T09:20:42Z</time>
      </trkpt>
      <trkpt lat="46.85057" lon="5.51168">
        <ele>216.2</ele>
        <time>2020-03-04T09:20:43Z</time>
      </trkpt>
      <trkpt lat="46.85051" lon="5.51164">
        <ele>216.2</ele>
        <time>2020-03-04T09:20:44Z</time>
      </trkpt>
      <trkpt lat="46.85045" lon="5.5116">
        <ele>216.2</ele>
        <time>2020-03-04T09:20:45Z</time>
      </trkpt>
      <trkpt lat="46.85039" lon="5.51156">
        <ele>216.2</ele>
        <time>2020-03-04T09:20:46Z</time>
      </trkpt>
      <trkpt lat="46.85033" lon="5.51153">
        <ele>216.2</ele>
        <time>2020-03-04T09:20:47Z</time>
      </trkpt>
      <trkpt lat="46.85027" lon="5.51149">
        <ele>216.2</ele>
        <time>2020-03-04T09:20:48Z</time>
      </trkpt>
      <trkpt lat="46.85021" lon="5.51145">
        <ele>216.2</ele>
        <time>2020-03-04T09:20:49Z</time>
      </trkpt>
      <trkpt lat="46.85015" lon="5.51141">
        <ele>216.2</ele>
        <time>2020-03-04T09:20:50Z</time>
      </trkpt>
      <trkpt lat="46.85009" lon="5.51138">
        <ele>216.2</ele>
        <time>2020-03-04T09:20:51Z</time>
      </trkpt>
      <trkpt lat="46.85003" lon="5.51134">
        <ele>216.2</ele>
        <time>2020-03-04T09:20:52Z</time>
      </trkpt>
      <trkpt lat="46.84997" lon="5.51129">
        <ele>216.6</ele>
        <time>2020-03-04T09:20:53Z</time>
      </trkpt>
      <trkpt lat="46.84991" lon="5.51125">
        <ele>216.6</ele>
        <time>2020-03-04T09:20:54Z</time>
      </trkpt>
      <trkpt lat="46.84986" lon="5.5112">
        <ele>216.6</ele>
        <time>2020-03-04T09:20:55Z</time>
      </trkpt>
      <trkpt lat="46.8498" lon="5.51115">
        <ele>216.6</ele>
        <time>2020-03-04T09:20:56Z</time>
      </trkpt>
      <trkpt lat="46.84975" lon="5.51111">
        <ele>216.6</ele>
        <time>2020-03-04T09:20:57Z</time>
      </trkpt>
      <trkpt lat="46.84969" lon="5.51106">
        <ele>216.6</ele>
        <time>2020-03-04T09:20:58Z</time>
      </trkpt>
      <trkpt lat="46.84964" lon="5.51101">
        <ele>216.6</ele>
        <time>2020-03-04T09:20:59Z</time>
      </trkpt>
      <trkpt lat="46.84958" lon="5.51097">
        <ele>216.6</ele>
        <time>2020-03-04T09:21:00Z</time>
      </trkpt>
      <trkpt lat="46.84953" lon="5.51093">
        <ele>216.6</ele>
        <time>2020-03-04T09:21:01Z</time>
      </trkpt>
      <trkpt lat="46.84947" lon="5.51089">
        <ele>216.6</ele>
        <time>2020-03-04T09:21:02Z</time>
      </trkpt>
      <trkpt lat="46.84942" lon="5.51084">
        <ele>216.6</ele>
        <time>2020-03-04T09:21:03Z</time>
      </trkpt>
      <trkpt lat="46.84937" lon="5.5108">
        <ele>216.6</ele>
        <time>2020-03-04T09:21:04Z</time>
      </trkpt>
      <trkpt lat="46.84931" lon="5.51076">
        <ele>216.6</ele>
        <time>2020-03-04T09:21:05Z</time>
      </trkpt>
      <trkpt lat="46.84925" lon="5.51073">
        <ele>216.6</ele>
        <time>2020-03-04T09:21:06Z</time>
      </trkpt>
      <trkpt lat="46.8492" lon="5.5107">
        <ele>216.6</ele>
        <time>2020-03-04T09:21:07Z</time>
      </trkpt>
      <trkpt lat="46.84914" lon="5.51066">
        <ele>216.6</ele>
        <time>2020-03-04T09:21:08Z</time>
      </trkpt>
      <trkpt lat="46.84908" lon="5.51063">
        <ele>216.6</ele>
        <time>2020-03-04T09:21:09Z</time>
      </trkpt>
      <trkpt lat="46.84902" lon="5.5106">
        <ele>216.6</ele>
        <time>2020-03-04T09:21:10Z</time>
      </trkpt>
      <trkpt lat="46.84897" lon="5.51056">
        <ele>216.6</ele>
        <time>2020-03-04T09:21:11Z</time>
      </trkpt>
      <trkpt lat="46.84891" lon="5.51053">
        <ele>216.6</ele>
        <time>2020-03-04T09:21:12Z</time>
      </trkpt>
      <trkpt lat="46.84885" lon="5.5105">
        <ele>216.2</ele>
        <time>2020-03-04T09:21:13Z</time>
      </trkpt>
      <trkpt lat="46.84879" lon="5.51047">
        <ele>216.2</ele>
        <time>2020-03-04T09:21:14Z</time>
      </trkpt>
      <trkpt lat="46.84874" lon="5.51044">
        <ele>216</ele>
        <time>2020-03-04T09:21:15Z</time>
      </trkpt>
      <trkpt lat="46.84868" lon="5.51041">
        <ele>216</ele>
        <time>2020-03-04T09:21:16Z</time>
      </trkpt>
      <trkpt lat="46.84862" lon="5.51038">
        <ele>216</ele>
        <time>2020-03-04T09:21:17Z</time>
      </trkpt>
      <trkpt lat="46.84856" lon="5.51035">
        <ele>215.8</ele>
        <time>2020-03-04T09:21:18Z</time>
      </trkpt>
      <trkpt lat="46.8485" lon="5.51032">
        <ele>215.8</ele>
        <time>2020-03-04T09:21:19Z</time>
      </trkpt>
      <trkpt lat="46.84845" lon="5.51029">
        <ele>215.8</ele>
        <time>2020-03-04T09:21:20Z</time>
      </trkpt>
      <trkpt lat="46.84839" lon="5.51026">
        <ele>215.8</ele>
        <time>2020-03-04T09:21:21Z</time>
      </trkpt>
      <trkpt lat="46.84833" lon="5.51023">
        <ele>215.8</ele>
        <time>2020-03-04T09:21:22Z</time>
      </trkpt>
      <trkpt lat="46.84828" lon="5.5102">
        <ele>215.8</ele>
        <time>2020-03-04T09:21:23Z</time>
      </trkpt>
      <trkpt lat="46.84822" lon="5.51017">
        <ele>215.8</ele>
        <time>2020-03-04T09:21:24Z</time>
      </trkpt>
      <trkpt lat="46.84817" lon="5.51014">
        <ele>215.8</ele>
        <time>2020-03-04T09:21:25Z</time>
      </trkpt>
      <trkpt lat="46.84811" lon="5.51011">
        <ele>215.8</ele>
        <time>2020-03-04T09:21:26Z</time>
      </trkpt>
      <trkpt lat="46.84806" lon="5.51008">
        <ele>216</ele>
        <time>2020-03-04T09:21:27Z</time>
      </trkpt>
      <trkpt lat="46.84801" lon="5.51005">
        <ele>216</ele>
        <time>2020-03-04T09:21:28Z</time>
      </trkpt>
      <trkpt lat="46.84796" lon="5.51002">
        <ele>216</ele>
        <time>2020-03-04T09:21:29Z</time>
      </trkpt>
      <trkpt lat="46.84791" lon="5.51">
        <ele>216.2</ele>
        <time>2020-03-04T09:21:30Z</time>
      </trkpt>
      <trkpt lat="46.84786" lon="5.50997">
        <ele>216.2</ele>
        <time>2020-03-04T09:21:31Z</time>
      </trkpt>
      <trkpt lat="46.84781" lon="5.50994">
        <ele>216.2</ele>
        <time>2020-03-04T09:21:32Z</time>
      </trkpt>
      <trkpt lat="46.84776" lon="5.50992">
        <ele>216.2</ele>
        <time>2020-03-04T09:21:33Z</time>
      </trkpt>
      <trkpt lat="46.84771" lon="5.50989">
        <ele>216.6</ele>
        <time>2020-03-04T09:21:34Z</time>
      </trkpt>
      <trkpt lat="46.84766" lon="5.50986">
        <ele>216.6</ele>
        <time>2020-03-04T09:21:35Z</time>
      </trkpt>
      <trkpt lat="46.84762" lon="5.50984">
        <ele>216.6</ele>
        <time>2020-03-04T09:21:36Z</time>
      </trkpt>
      <trkpt lat="46.84757" lon="5.50981">
        <ele>216.6</ele>
        <time>2020-03-04T09:21:37Z</time>
      </trkpt>
      <trkpt lat="46.84752" lon="5.50978">
        <ele>216.8</ele>
        <time>2020-03-04T09:21:38Z</time>
      </trkpt>
      <trkpt lat="46.84748" lon="5.50975">
        <ele>216.8</ele>
        <time>2020-03-04T09:21:39Z</time>
      </trkpt>
      <trkpt lat="46.84744" lon="5.50973">
        <ele>216.8</ele>
        <time>2020-03-04T09:21:40Z</time>
      </trkpt>
      <trkpt lat="46.8474" lon="5.5097">
        <ele>216.8</ele>
        <time>2020-03-04T09:21:41Z</time>
      </trkpt>
      <trkpt lat="46.84736" lon="5.50968">
        <ele>217</ele>
        <time>2020-03-04T09:21:42Z</time>
      </trkpt>
      <trkpt lat="46.84731" lon="5.50966">
        <ele>217</ele>
        <time>2020-03-04T09:21:43Z</time>
      </trkpt>
      <trkpt lat="46.84727" lon="5.50963">
        <ele>217</ele>
        <time>2020-03-04T09:21:44Z</time>
      </trkpt>
      <trkpt lat="46.84723" lon="5.50961">
        <ele>217</ele>
        <time>2020-03-04T09:21:45Z</time>
      </trkpt>
      <trkpt lat="46.84719" lon="5.50958">
        <ele>216.8</ele>
        <time>2020-03-04T09:21:46Z</time>
      </trkpt>
      <trkpt lat="46.84714" lon="5.50955">
        <ele>216.8</ele>
        <time>2020-03-04T09:21:47Z</time>
      </trkpt>
      <trkpt lat="46.84709" lon="5.50952">
        <ele>216.8</ele>
        <time>2020-03-04T09:21:48Z</time>
      </trkpt>
      <trkpt lat="46.84704" lon="5.50949">
        <ele>216.6</ele>
        <time>2020-03-04T09:21:49Z</time>
      </trkpt>
      <trkpt lat="46.84699" lon="5.50947">
        <ele>216.4</ele>
        <time>2020-03-04T09:21:50Z</time>
      </trkpt>
      <trkpt lat="46.84694" lon="5.50944">
        <ele>216.4</ele>
        <time>2020-03-04T09:21:51Z</time>
      </trkpt>
      <trkpt lat="46.84689" lon="5.50941">
        <ele>216</ele>
        <time>2020-03-04T09:21:52Z</time>
      </trkpt>
      <trkpt lat="46.84683" lon="5.50938">
        <ele>215.8</ele>
        <time>2020-03-04T09:21:53Z</time>
      </trkpt>
      <trkpt lat="46.84677" lon="5.50936">
        <ele>215.6</ele>
        <time>2020-03-04T09:21:54Z</time>
      </trkpt>
      <trkpt lat="46.84671" lon="5.50933">
        <ele>215.2</ele>
        <time>2020-03-04T09:21:55Z</time>
      </trkpt>
      <trkpt lat="46.84665" lon="5.5093">
        <ele>214.8</ele>
        <time>2020-03-04T09:21:56Z</time>
      </trkpt>
      <trkpt lat="46.84658" lon="5.50927">
        <ele>214.4</ele>
        <time>2020-03-04T09:21:57Z</time>
      </trkpt>
      <trkpt lat="46.84652" lon="5.50923">
        <ele>213.8</ele>
        <time>2020-03-04T09:21:58Z</time>
      </trkpt>
      <trkpt lat="46.84645" lon="5.50919">
        <ele>213.4</ele>
        <time>2020-03-04T09:21:59Z</time>
      </trkpt>
      <trkpt lat="46.84639" lon="5.50913">
        <ele>212.8</ele>
        <time>2020-03-04T09:22:00Z</time>
      </trkpt>
      <trkpt lat="46.84633" lon="5.50907">
        <ele>212.2</ele>
        <time>2020-03-04T09:22:01Z</time>
      </trkpt>
      <trkpt lat="46.84627" lon="5.509">
        <ele>211.8</ele>
        <time>2020-03-04T09:22:02Z</time>
      </trkpt>
      <trkpt lat="46.84621" lon="5.50893">
        <ele>211.4</ele>
        <time>2020-03-04T09:22:03Z</time>
      </trkpt>
      <trkpt lat="46.84615" lon="5.50887">
        <ele>211</ele>
        <time>2020-03-04T09:22:04Z</time>
      </trkpt>
      <trkpt lat="46.84608" lon="5.50881">
        <ele>210.4</ele>
        <time>2020-03-04T09:22:05Z</time>
      </trkpt>
      <trkpt lat="46.84601" lon="5.50877">
        <ele>210</ele>
        <time>2020-03-04T09:22:06Z</time>
      </trkpt>
      <trkpt lat="46.84593" lon="5.50874">
        <ele>209.6</ele>
        <time>2020-03-04T09:22:07Z</time>
      </trkpt>
      <trkpt lat="46.84585" lon="5.50872">
        <ele>209.2</ele>
        <time>2020-03-04T09:22:08Z</time>
      </trkpt>
      <trkpt lat="46.84578" lon="5.5087">
        <ele>209</ele>
        <time>2020-03-04T09:22:09Z</time>
      </trkpt>
      <trkpt lat="46.84571" lon="5.50868">
        <ele>208.8</ele>
        <time>2020-03-04T09:22:10Z</time>
      </trkpt>
      <trkpt lat="46.84564" lon="5.50867">
        <ele>208.6</ele>
        <time>2020-03-04T09:22:11Z</time>
      </trkpt>
      <trkpt lat="46.84558" lon="5.50865">
        <ele>208.6</ele>
        <time>2020-03-04T09:22:12Z</time>
      </trkpt>
      <trkpt lat="46.84552" lon="5.50863">
        <ele>208.2</ele>
        <time>2020-03-04T09:22:13Z</time>
      </trkpt>
      <trkpt lat="46.84547" lon="5.50862">
        <ele>208.2</ele>
        <time>2020-03-04T09:22:14Z</time>
      </trkpt>
      <trkpt lat="46.84542" lon="5.5086">
        <ele>208</ele>
        <time>2020-03-04T09:22:15Z</time>
      </trkpt>
      <trkpt lat="46.84538" lon="5.50859">
        <ele>208</ele>
        <time>2020-03-04T09:22:16Z</time>
      </trkpt>
      <trkpt lat="46.84535" lon="5.50858">
        <ele>208</ele>
        <time>2020-03-04T09:22:17Z</time>
      </trkpt>
      <trkpt lat="46.84532" lon="5.50859">
        <ele>208</ele>
        <time>2020-03-04T09:22:18Z</time>
      </trkpt>
      <trkpt lat="46.8453" lon="5.50861">
        <ele>208</ele>
        <time>2020-03-04T09:22:19Z</time>
      </trkpt>
      <trkpt lat="46.84528" lon="5.50864">
        <ele>208</ele>
        <time>2020-03-04T09:22:20Z</time>
      </trkpt>
      <trkpt lat="46.84527" lon="5.50868">
        <ele>208</ele>
        <time>2020-03-04T09:22:21Z</time>
      </trkpt>
      <trkpt lat="46.84525" lon="5.50872">
        <ele>208</ele>
        <time>2020-03-04T09:22:22Z</time>
      </trkpt>
      <trkpt lat="46.84524" lon="5.50877">
        <ele>208</ele>
        <time>2020-03-04T09:22:23Z</time>
      </trkpt>
      <trkpt lat="46.84524" lon="5.50883">
        <ele>208</ele>
        <time>2020-03-04T09:22:24Z</time>
      </trkpt>
      <trkpt lat="46.84523" lon="5.50889">
        <ele>208</ele>
        <time>2020-03-04T09:22:25Z</time>
      </trkpt>
      <trkpt lat="46.84522" lon="5.50894">
        <ele>208</ele>
        <time>2020-03-04T09:22:26Z</time>
      </trkpt>
      <trkpt lat="46.84521" lon="5.509">
        <ele>208</ele>
        <time>2020-03-04T09:22:27Z</time>
      </trkpt>
      <trkpt lat="46.84519" lon="5.50906">
        <ele>208</ele>
        <time>2020-03-04T09:22:28Z</time>
      </trkpt>
      <trkpt lat="46.84518" lon="5.50911">
        <ele>208</ele>
        <time>2020-03-04T09:22:29Z</time>
      </trkpt>
      <trkpt lat="46.84517" lon="5.50917">
        <ele>208.2</ele>
        <time>2020-03-04T09:22:30Z</time>
      </trkpt>
      <trkpt lat="46.84515" lon="5.50922">
        <ele>208.2</ele>
        <time>2020-03-04T09:22:31Z</time>
      </trkpt>
      <trkpt lat="46.84512" lon="5.50926">
        <ele>208.2</ele>
        <time>2020-03-04T09:22:32Z</time>
      </trkpt>
      <trkpt lat="46.84509" lon="5.50931">
        <ele>208.2</ele>
        <time>2020-03-04T09:22:33Z</time>
      </trkpt>
      <trkpt lat="46.84505" lon="5.50935">
        <ele>208.2</ele>
        <time>2020-03-04T09:22:34Z</time>
      </trkpt>
      <trkpt lat="46.845" lon="5.50938">
        <ele>208</ele>
        <time>2020-03-04T09:22:35Z</time>
      </trkpt>
      <trkpt lat="46.84494" lon="5.50942">
        <ele>208</ele>
        <time>2020-03-04T09:22:36Z</time>
      </trkpt>
      <trkpt lat="46.84489" lon="5.50947">
        <ele>207.6</ele>
        <time>2020-03-04T09:22:37Z</time>
      </trkpt>
      <trkpt lat="46.84483" lon="5.50952">
        <ele>207.4</ele>
        <time>2020-03-04T09:22:38Z</time>
      </trkpt>
      <trkpt lat="46.84477" lon="5.50957">
        <ele>207.4</ele>
        <time>2020-03-04T09:22:39Z</time>
      </trkpt>
      <trkpt lat="46.84472" lon="5.50963">
        <ele>207</ele>
        <time>2020-03-04T09:22:40Z</time>
      </trkpt>
      <trkpt lat="46.84467" lon="5.50971">
        <ele>206.8</ele>
        <time>2020-03-04T09:22:41Z</time>
      </trkpt>
      <trkpt lat="46.84464" lon="5.5098">
        <ele>206.4</ele>
        <time>2020-03-04T09:22:42Z</time>
      </trkpt>
      <trkpt lat="46.8446" lon="5.5099">
        <ele>206.4</ele>
        <time>2020-03-04T09:22:43Z</time>
      </trkpt>
      <trkpt lat="46.84457" lon="5.50999">
        <ele>206.2</ele>
        <time>2020-03-04T09:22:44Z</time>
      </trkpt>
      <trkpt lat="46.84454" lon="5.51009">
        <ele>206.2</ele>
        <time>2020-03-04T09:22:45Z</time>
      </trkpt>
      <trkpt lat="46.84451" lon="5.5102">
        <ele>206.2</ele>
        <time>2020-03-04T09:22:46Z</time>
      </trkpt>
      <trkpt lat="46.84449" lon="5.5103">
        <ele>205.8</ele>
        <time>2020-03-04T09:22:47Z</time>
      </trkpt>
      <trkpt lat="46.84447" lon="5.51041">
        <ele>205.8</ele>
        <time>2020-03-04T09:22:48Z</time>
      </trkpt>
      <trkpt lat="46.84446" lon="5.51051">
        <ele>205.8</ele>
        <time>2020-03-04T09:22:49Z</time>
      </trkpt>
      <trkpt lat="46.84444" lon="5.51062">
        <ele>205.8</ele>
        <time>2020-03-04T09:22:50Z</time>
      </trkpt>
      <trkpt lat="46.84443" lon="5.51072">
        <ele>205.8</ele>
        <time>2020-03-04T09:22:51Z</time>
      </trkpt>
      <trkpt lat="46.84441" lon="5.51083">
        <ele>206.4</ele>
        <time>2020-03-04T09:22:52Z</time>
      </trkpt>
      <trkpt lat="46.8444" lon="5.51093">
        <ele>206.4</ele>
        <time>2020-03-04T09:22:53Z</time>
      </trkpt>
      <trkpt lat="46.84439" lon="5.51102">
        <ele>206.6</ele>
        <time>2020-03-04T09:22:54Z</time>
      </trkpt>
      <trkpt lat="46.84438" lon="5.51112">
        <ele>206.6</ele>
        <time>2020-03-04T09:22:55Z</time>
      </trkpt>
      <trkpt lat="46.84436" lon="5.51121">
        <ele>206.6</ele>
        <time>2020-03-04T09:22:56Z</time>
      </trkpt>
      <trkpt lat="46.84435" lon="5.51131">
        <ele>206.8</ele>
        <time>2020-03-04T09:22:57Z</time>
      </trkpt>
      <trkpt lat="46.84433" lon="5.5114">
        <ele>206.8</ele>
        <time>2020-03-04T09:22:58Z</time>
      </trkpt>
      <trkpt lat="46.84431" lon="5.5115">
        <ele>206.8</ele>
        <time>2020-03-04T09:22:59Z</time>
      </trkpt>
      <trkpt lat="46.8443" lon="5.5116">
        <ele>206.8</ele>
        <time>2020-03-04T09:23:00Z</time>
      </trkpt>
      <trkpt lat="46.84428" lon="5.5117">
        <ele>206.8</ele>
        <time>2020-03-04T09:23:01Z</time>
      </trkpt>
      <trkpt lat="46.84427" lon="5.5118">
        <ele>206.8</ele>
        <time>2020-03-04T09:23:02Z</time>
      </trkpt>
      <trkpt lat="46.84426" lon="5.51191">
        <ele>206.8</ele>
        <time>2020-03-04T09:23:03Z</time>
      </trkpt>
      <trkpt lat="46.84424" lon="5.51201">
        <ele>206.8</ele>
        <time>2020-03-04T09:23:04Z</time>
      </trkpt>
      <trkpt lat="46.84423" lon="5.51211">
        <ele>206.6</ele>
        <time>2020-03-04T09:23:05Z</time>
      </trkpt>
      <trkpt lat="46.84422" lon="5.51222">
        <ele>206.6</ele>
        <time>2020-03-04T09:23:06Z</time>
      </trkpt>
      <trkpt lat="46.84421" lon="5.51232">
        <ele>206.6</ele>
        <time>2020-03-04T09:23:07Z</time>
      </trkpt>
      <trkpt lat="46.84419" lon="5.51242">
        <ele>206.6</ele>
        <time>2020-03-04T09:23:08Z</time>
      </trkpt>
      <trkpt lat="46.84418" lon="5.51252">
        <ele>206.6</ele>
        <time>2020-03-04T09:23:09Z</time>
      </trkpt>
      <trkpt lat="46.84417" lon="5.51262">
        <ele>206.6</ele>
        <time>2020-03-04T09:23:10Z</time>
      </trkpt>
      <trkpt lat="46.84415" lon="5.51272">
        <ele>206.6</ele>
        <time>2020-03-04T09:23:11Z</time>
      </trkpt>
      <trkpt lat="46.84414" lon="5.51282">
        <ele>206.6</ele>
        <time>2020-03-04T09:23:12Z</time>
      </trkpt>
      <trkpt lat="46.84413" lon="5.51292">
        <ele>206.6</ele>
        <time>2020-03-04T09:23:13Z</time>
      </trkpt>
      <trkpt lat="46.84411" lon="5.51302">
        <ele>206.6</ele>
        <time>2020-03-04T09:23:14Z</time>
      </trkpt>
      <trkpt lat="46.8441" lon="5.51312">
        <ele>206.6</ele>
        <time>2020-03-04T09:23:15Z</time>
      </trkpt>
      <trkpt lat="46.8441" lon="5.51321">
        <ele>206.6</ele>
        <time>2020-03-04T09:23:16Z</time>
      </trkpt>
      <trkpt lat="46.84409" lon="5.5133">
        <ele>206.6</ele>
        <time>2020-03-04T09:23:17Z</time>
      </trkpt>
      <trkpt lat="46.84408" lon="5.51339">
        <ele>206.6</ele>
        <time>2020-03-04T09:23:18Z</time>
      </trkpt>
      <trkpt lat="46.84408" lon="5.51348">
        <ele>206.8</ele>
        <time>2020-03-04T09:23:19Z</time>
      </trkpt>
      <trkpt lat="46.84408" lon="5.51357">
        <ele>207</ele>
        <time>2020-03-04T09:23:20Z</time>
      </trkpt>
      <trkpt lat="46.84408" lon="5.51365">
        <ele>207.4</ele>
        <time>2020-03-04T09:23:21Z</time>
      </trkpt>
      <trkpt lat="46.84408" lon="5.51372">
        <ele>207.4</ele>
        <time>2020-03-04T09:23:22Z</time>
      </trkpt>
      <trkpt lat="46.84409" lon="5.51379">
        <ele>207.8</ele>
        <time>2020-03-04T09:23:23Z</time>
      </trkpt>
      <trkpt lat="46.84411" lon="5.51385">
        <ele>207.8</ele>
        <time>2020-03-04T09:23:24Z</time>
      </trkpt>
      <trkpt lat="46.84412" lon="5.51392">
        <ele>208.2</ele>
        <time>2020-03-04T09:23:25Z</time>
      </trkpt>
      <trkpt lat="46.84414" lon="5.51399">
        <ele>208.4</ele>
        <time>2020-03-04T09:23:26Z</time>
      </trkpt>
      <trkpt lat="46.84416" lon="5.51405">
        <ele>208.4</ele>
        <time>2020-03-04T09:23:27Z</time>
      </trkpt>
      <trkpt lat="46.84418" lon="5.51411">
        <ele>208.8</ele>
        <time>2020-03-04T09:23:28Z</time>
      </trkpt>
      <trkpt lat="46.8442" lon="5.51417">
        <ele>208.8</ele>
        <time>2020-03-04T09:23:29Z</time>
      </trkpt>
      <trkpt lat="46.84422" lon="5.51423">
        <ele>209.2</ele>
        <time>2020-03-04T09:23:30Z</time>
      </trkpt>
      <trkpt lat="46.84425" lon="5.51429">
        <ele>209.4</ele>
        <time>2020-03-04T09:23:31Z</time>
      </trkpt>
      <trkpt lat="46.84427" lon="5.51435">
        <ele>209.6</ele>
        <time>2020-03-04T09:23:32Z</time>
      </trkpt>
      <trkpt lat="46.8443" lon="5.51441">
        <ele>210</ele>
        <time>2020-03-04T09:23:33Z</time>
      </trkpt>
      <trkpt lat="46.84432" lon="5.51446">
        <ele>210</ele>
        <time>2020-03-04T09:23:34Z</time>
      </trkpt>
      <trkpt lat="46.84435" lon="5.51452">
        <ele>210.2</ele>
        <time>2020-03-04T09:23:35Z</time>
      </trkpt>
      <trkpt lat="46.84437" lon="5.51457">
        <ele>210.6</ele>
        <time>2020-03-04T09:23:36Z</time>
      </trkpt>
      <trkpt lat="46.84439" lon="5.51462">
        <ele>210.8</ele>
        <time>2020-03-04T09:23:37Z</time>
      </trkpt>
      <trkpt lat="46.84441" lon="5.51467">
        <ele>210.8</ele>
        <time>2020-03-04T09:23:38Z</time>
      </trkpt>
      <trkpt lat="46.84443" lon="5.51473">
        <ele>211.2</ele>
        <time>2020-03-04T09:23:39Z</time>
      </trkpt>
      <trkpt lat="46.84445" lon="5.51478">
        <ele>211.2</ele>
        <time>2020-03-04T09:23:40Z</time>
      </trkpt>
      <trkpt lat="46.84447" lon="5.51483">
        <ele>211.6</ele>
        <time>2020-03-04T09:23:41Z</time>
      </trkpt>
      <trkpt lat="46.84448" lon="5.51488">
        <ele>211.6</ele>
        <time>2020-03-04T09:23:42Z</time>
      </trkpt>
      <trkpt lat="46.8445" lon="5.51493">
        <ele>212</ele>
        <time>2020-03-04T09:23:43Z</time>
      </trkpt>
      <trkpt lat="46.84452" lon="5.51498">
        <ele>212</ele>
        <time>2020-03-04T09:23:44Z</time>
      </trkpt>
      <trkpt lat="46.84453" lon="5.51504">
        <ele>212.2</ele>
        <time>2020-03-04T09:23:45Z</time>
      </trkpt>
      <trkpt lat="46.84454" lon="5.51509">
        <ele>212.2</ele>
        <time>2020-03-04T09:23:46Z</time>
      </trkpt>
      <trkpt lat="46.84455" lon="5.51514">
        <ele>212.6</ele>
        <time>2020-03-04T09:23:47Z</time>
      </trkpt>
      <trkpt lat="46.84455" lon="5.5152">
        <ele>212.6</ele>
        <time>2020-03-04T09:23:48Z</time>
      </trkpt>
      <trkpt lat="46.84456" lon="5.51525">
        <ele>213</ele>
        <time>2020-03-04T09:23:49Z</time>
      </trkpt>
      <trkpt lat="46.84457" lon="5.5153">
        <ele>213</ele>
        <time>2020-03-04T09:23:50Z</time>
      </trkpt>
      <trkpt lat="46.84456" lon="5.51535">
        <ele>213.2</ele>
        <time>2020-03-04T09:23:51Z</time>
      </trkpt>
      <trkpt lat="46.84456" lon="5.5154">
        <ele>213.2</ele>
        <time>2020-03-04T09:23:52Z</time>
      </trkpt>
      <trkpt lat="46.84455" lon="5.51545">
        <ele>213.2</ele>
        <time>2020-03-04T09:23:53Z</time>
      </trkpt>
      <trkpt lat="46.84454" lon="5.5155">
        <ele>213.6</ele>
        <time>2020-03-04T09:23:54Z</time>
      </trkpt>
      <trkpt lat="46.84454" lon="5.51556">
        <ele>213.6</ele>
        <time>2020-03-04T09:23:55Z</time>
      </trkpt>
      <trkpt lat="46.84453" lon="5.51561">
        <ele>213.6</ele>
        <time>2020-03-04T09:23:56Z</time>
      </trkpt>
      <trkpt lat="46.84452" lon="5.51566">
        <ele>213.8</ele>
        <time>2020-03-04T09:23:57Z</time>
      </trkpt>
      <trkpt lat="46.8445" lon="5.51571">
        <ele>213.8</ele>
        <time>2020-03-04T09:23:58Z</time>
      </trkpt>
      <trkpt lat="46.84449" lon="5.51576">
        <ele>214</ele>
        <time>2020-03-04T09:23:59Z</time>
      </trkpt>
      <trkpt lat="46.84447" lon="5.51581">
        <ele>214</ele>
        <time>2020-03-04T09:24:00Z</time>
      </trkpt>
      <trkpt lat="46.84445" lon="5.51586">
        <ele>214.2</ele>
        <time>2020-03-04T09:24:01Z</time>
      </trkpt>
      <trkpt lat="46.84443" lon="5.51591">
        <ele>214.2</ele>
        <time>2020-03-04T09:24:02Z</time>
      </trkpt>
      <trkpt lat="46.84441" lon="5.51596">
        <ele>214.2</ele>
        <time>2020-03-04T09:24:03Z</time>
      </trkpt>
      <trkpt lat="46.8444" lon="5.51601">
        <ele>214.2</ele>
        <time>2020-03-04T09:24:04Z</time>
      </trkpt>
      <trkpt lat="46.84438" lon="5.51606">
        <ele>214.2</ele>
        <time>2020-03-04T09:24:05Z</time>
      </trkpt>
      <trkpt lat="46.84437" lon="5.51611">
        <ele>214.4</ele>
        <time>2020-03-04T09:24:06Z</time>
      </trkpt>
      <trkpt lat="46.84437" lon="5.51617">
        <ele>214.4</ele>
        <time>2020-03-04T09:24:07Z</time>
      </trkpt>
      <trkpt lat="46.84437" lon="5.51622">
        <ele>214.8</ele>
        <time>2020-03-04T09:24:08Z</time>
      </trkpt>
      <trkpt lat="46.84437" lon="5.51627">
        <ele>214.8</ele>
        <time>2020-03-04T09:24:09Z</time>
      </trkpt>
      <trkpt lat="46.84437" lon="5.51632">
        <ele>215</ele>
        <time>2020-03-04T09:24:10Z</time>
      </trkpt>
      <trkpt lat="46.84438" lon="5.51638">
        <ele>215</ele>
        <time>2020-03-04T09:24:11Z</time>
      </trkpt>
      <trkpt lat="46.84439" lon="5.51643">
        <ele>215</ele>
        <time>2020-03-04T09:24:12Z</time>
      </trkpt>
      <trkpt lat="46.84441" lon="5.51648">
        <ele>215</ele>
        <time>2020-03-04T09:24:13Z</time>
      </trkpt>
      <trkpt lat="46.84443" lon="5.51653">
        <ele>215.2</ele>
        <time>2020-03-04T09:24:14Z</time>
      </trkpt>
      <trkpt lat="46.84445" lon="5.51657">
        <ele>215.2</ele>
        <time>2020-03-04T09:24:15Z</time>
      </trkpt>
      <trkpt lat="46.84448" lon="5.51661">
        <ele>215.2</ele>
        <time>2020-03-04T09:24:16Z</time>
      </trkpt>
      <trkpt lat="46.84452" lon="5.51665">
        <ele>215.4</ele>
        <time>2020-03-04T09:24:17Z</time>
      </trkpt>
      <trkpt lat="46.84455" lon="5.51668">
        <ele>215.4</ele>
        <time>2020-03-04T09:24:18Z</time>
      </trkpt>
      <trkpt lat="46.84458" lon="5.51672">
        <ele>215.6</ele>
        <time>2020-03-04T09:24:19Z</time>
      </trkpt>
      <trkpt lat="46.8446" lon="5.51675">
        <ele>215.6</ele>
        <time>2020-03-04T09:24:20Z</time>
      </trkpt>
      <trkpt lat="46.84463" lon="5.51679">
        <ele>216</ele>
        <time>2020-03-04T09:24:21Z</time>
      </trkpt>
      <trkpt lat="46.84466" lon="5.51681">
        <ele>216</ele>
        <time>2020-03-04T09:24:22Z</time>
      </trkpt>
      <trkpt lat="46.84469" lon="5.51684">
        <ele>216.4</ele>
        <time>2020-03-04T09:24:23Z</time>
      </trkpt>
      <trkpt lat="46.84471" lon="5.51688">
        <ele>216.4</ele>
        <time>2020-03-04T09:24:24Z</time>
      </trkpt>
      <trkpt lat="46.84474" lon="5.51691">
        <ele>216.6</ele>
        <time>2020-03-04T09:24:25Z</time>
      </trkpt>
      <trkpt lat="46.84477" lon="5.51694">
        <ele>216.6</ele>
        <time>2020-03-04T09:24:26Z</time>
      </trkpt>
      <trkpt lat="46.8448" lon="5.51698">
        <ele>217</ele>
        <time>2020-03-04T09:24:27Z</time>
      </trkpt>
      <trkpt lat="46.84483" lon="5.51701">
        <ele>217</ele>
        <time>2020-03-04T09:24:28Z</time>
      </trkpt>
      <trkpt lat="46.84485" lon="5.51705">
        <ele>217.2</ele>
        <time>2020-03-04T09:24:29Z</time>
      </trkpt>
      <trkpt lat="46.84488" lon="5.51709">
        <ele>217.2</ele>
        <time>2020-03-04T09:24:30Z</time>
      </trkpt>
      <trkpt lat="46.84491" lon="5.51713">
        <ele>217.4</ele>
        <time>2020-03-04T09:24:31Z</time>
      </trkpt>
      <trkpt lat="46.84494" lon="5.51716">
        <ele>217.4</ele>
        <time>2020-03-04T09:24:32Z</time>
      </trkpt>
      <trkpt lat="46.84497" lon="5.5172">
        <ele>217.4</ele>
        <time>2020-03-04T09:24:33Z</time>
      </trkpt>
      <trkpt lat="46.845" lon="5.51725">
        <ele>217.4</ele>
        <time>2020-03-04T09:24:34Z</time>
      </trkpt>
      <trkpt lat="46.84502" lon="5.51729">
        <ele>217.8</ele>
        <time>2020-03-04T09:24:35Z</time>
      </trkpt>
      <trkpt lat="46.84505" lon="5.51734">
        <ele>217.8</ele>
        <time>2020-03-04T09:24:36Z</time>
      </trkpt>
      <trkpt lat="46.84507" lon="5.51739">
        <ele>217.8</ele>
        <time>2020-03-04T09:24:37Z</time>
      </trkpt>
      <trkpt lat="46.84509" lon="5.51744">
        <ele>217.8</ele>
        <time>2020-03-04T09:24:38Z</time>
      </trkpt>
      <trkpt lat="46.84511" lon="5.51749">
        <ele>217.8</ele>
        <time>2020-03-04T09:24:39Z</time>
      </trkpt>
      <trkpt lat="46.84513" lon="5.51754">
        <ele>218</ele>
        <time>2020-03-04T09:24:40Z</time>
      </trkpt>
      <trkpt lat="46.84514" lon="5.51759">
        <ele>218</ele>
        <time>2020-03-04T09:24:41Z</time>
      </trkpt>
      <trkpt lat="46.84516" lon="5.51764">
        <ele>218</ele>
        <time>2020-03-04T09:24:42Z</time>
      </trkpt>
      <trkpt lat="46.84517" lon="5.51769">
        <ele>218.2</ele>
        <time>2020-03-04T09:24:43Z</time>
      </trkpt>
      <trkpt lat="46.84517" lon="5.51775">
        <ele>218.2</ele>
        <time>2020-03-04T09:24:44Z</time>
      </trkpt>
      <trkpt lat="46.84517" lon="5.5178">
        <ele>218.4</ele>
        <time>2020-03-04T09:24:45Z</time>
      </trkpt>
      <trkpt lat="46.84517" lon="5.51785">
        <ele>218.4</ele>
        <time>2020-03-04T09:24:46Z</time>
      </trkpt>
      <trkpt lat="46.84517" lon="5.51791">
        <ele>218.4</ele>
        <time>2020-03-04T09:24:47Z</time>
      </trkpt>
      <trkpt lat="46.84517" lon="5.51796">
        <ele>218.4</ele>
        <time>2020-03-04T09:24:48Z</time>
      </trkpt>
      <trkpt lat="46.84517" lon="5.51801">
        <ele>218.4</ele>
        <time>2020-03-04T09:24:49Z</time>
      </trkpt>
      <trkpt lat="46.84517" lon="5.51807">
        <ele>218.4</ele>
        <time>2020-03-04T09:24:50Z</time>
      </trkpt>
      <trkpt lat="46.84516" lon="5.51813">
        <ele>218.8</ele>
        <time>2020-03-04T09:24:51Z</time>
      </trkpt>
      <trkpt lat="46.84516" lon="5.51818">
        <ele>218.8</ele>
        <time>2020-03-04T09:24:52Z</time>
      </trkpt>
      <trkpt lat="46.84515" lon="5.51824">
        <ele>219</ele>
        <time>2020-03-04T09:24:53Z</time>
      </trkpt>
      <trkpt lat="46.84515" lon="5.5183">
        <ele>219</ele>
        <time>2020-03-04T09:24:54Z</time>
      </trkpt>
      <trkpt lat="46.84514" lon="5.51836">
        <ele>219</ele>
        <time>2020-03-04T09:24:55Z</time>
      </trkpt>
      <trkpt lat="46.84513" lon="5.51842">
        <ele>219.4</ele>
        <time>2020-03-04T09:24:56Z</time>
      </trkpt>
      <trkpt lat="46.84512" lon="5.51848">
        <ele>219.4</ele>
        <time>2020-03-04T09:24:57Z</time>
      </trkpt>
      <trkpt lat="46.84511" lon="5.51853">
        <ele>219.4</ele>
        <time>2020-03-04T09:24:58Z</time>
      </trkpt>
      <trkpt lat="46.8451" lon="5.51859">
        <ele>219.4</ele>
        <time>2020-03-04T09:24:59Z</time>
      </trkpt>
      <trkpt lat="46.84509" lon="5.51864">
        <ele>219.4</ele>
        <time>2020-03-04T09:25:00Z</time>
      </trkpt>
      <trkpt lat="46.84507" lon="5.5187">
        <ele>219.6</ele>
        <time>2020-03-04T09:25:01Z</time>
      </trkpt>
      <trkpt lat="46.84507" lon="5.51875">
        <ele>219.6</ele>
        <time>2020-03-04T09:25:02Z</time>
      </trkpt>
      <trkpt lat="46.84506" lon="5.5188">
        <ele>219.6</ele>
        <time>2020-03-04T09:25:03Z</time>
      </trkpt>
      <trkpt lat="46.84505" lon="5.51885">
        <ele>219.6</ele>
        <time>2020-03-04T09:25:04Z</time>
      </trkpt>
      <trkpt lat="46.84504" lon="5.5189">
        <ele>219.6</ele>
        <time>2020-03-04T09:25:05Z</time>
      </trkpt>
      <trkpt lat="46.84503" lon="5.51895">
        <ele>219.6</ele>
        <time>2020-03-04T09:25:06Z</time>
      </trkpt>
      <trkpt lat="46.84502" lon="5.519">
        <ele>219.6</ele>
        <time>2020-03-04T09:25:07Z</time>
      </trkpt>
      <trkpt lat="46.84501" lon="5.51905">
        <ele>219.6</ele>
        <time>2020-03-04T09:25:08Z</time>
      </trkpt>
      <trkpt lat="46.84501" lon="5.5191">
        <ele>219.6</ele>
        <time>2020-03-04T09:25:09Z</time>
      </trkpt>
      <trkpt lat="46.845" lon="5.51915">
        <ele>219.6</ele>
        <time>2020-03-04T09:25:10Z</time>
      </trkpt>
      <trkpt lat="46.845" lon="5.5192">
        <ele>219.6</ele>
        <time>2020-03-04T09:25:11Z</time>
      </trkpt>
      <trkpt lat="46.84499" lon="5.51926">
        <ele>219.6</ele>
        <time>2020-03-04T09:25:12Z</time>
      </trkpt>
      <trkpt lat="46.84499" lon="5.51932">
        <ele>219.6</ele>
        <time>2020-03-04T09:25:13Z</time>
      </trkpt>
      <trkpt lat="46.84499" lon="5.51938">
        <ele>219.6</ele>
        <time>2020-03-04T09:25:14Z</time>
      </trkpt>
      <trkpt lat="46.84499" lon="5.51944">
        <ele>219.6</ele>
        <time>2020-03-04T09:25:15Z</time>
      </trkpt>
      <trkpt lat="46.84499" lon="5.51951">
        <ele>219.6</ele>
        <time>2020-03-04T09:25:16Z</time>
      </trkpt>
      <trkpt lat="46.845" lon="5.51958">
        <ele>219.2</ele>
        <time>2020-03-04T09:25:17Z</time>
      </trkpt>
      <trkpt lat="46.845" lon="5.51965">
        <ele>219.2</ele>
        <time>2020-03-04T09:25:18Z</time>
      </trkpt>
      <trkpt lat="46.845" lon="5.51973">
        <ele>219</ele>
        <time>2020-03-04T09:25:19Z</time>
      </trkpt>
      <trkpt lat="46.84501" lon="5.51981">
        <ele>219</ele>
        <time>2020-03-04T09:25:20Z</time>
      </trkpt>
      <trkpt lat="46.84501" lon="5.51989">
        <ele>218.8</ele>
        <time>2020-03-04T09:25:21Z</time>
      </trkpt>
      <trkpt lat="46.845" lon="5.51997">
        <ele>218.8</ele>
        <time>2020-03-04T09:25:22Z</time>
      </trkpt>
      <trkpt lat="46.84499" lon="5.52006">
        <ele>218.6</ele>
        <time>2020-03-04T09:25:23Z</time>
      </trkpt>
      <trkpt lat="46.84497" lon="5.52015">
        <ele>218.2</ele>
        <time>2020-03-04T09:25:24Z</time>
      </trkpt>
      <trkpt lat="46.84495" lon="5.52024">
        <ele>218</ele>
        <time>2020-03-04T09:25:25Z</time>
      </trkpt>
      <trkpt lat="46.84492" lon="5.52033">
        <ele>218</ele>
        <time>2020-03-04T09:25:26Z</time>
      </trkpt>
      <trkpt lat="46.84489" lon="5.52042">
        <ele>217.6</ele>
        <time>2020-03-04T09:25:27Z</time>
      </trkpt>
      <trkpt lat="46.84485" lon="5.5205">
        <ele>217.6</ele>
        <time>2020-03-04T09:25:28Z</time>
      </trkpt>
      <trkpt lat="46.84482" lon="5.52059">
        <ele>217.4</ele>
        <time>2020-03-04T09:25:29Z</time>
      </trkpt>
      <trkpt lat="46.84479" lon="5.52068">
        <ele>217.4</ele>
        <time>2020-03-04T09:25:30Z</time>
      </trkpt>
      <trkpt lat="46.84475" lon="5.52076">
        <ele>217.2</ele>
        <time>2020-03-04T09:25:31Z</time>
      </trkpt>
      <trkpt lat="46.84472" lon="5.52085">
        <ele>216.8</ele>
        <time>2020-03-04T09:25:32Z</time>
      </trkpt>
      <trkpt lat="46.84468" lon="5.52094">
        <ele>216.6</ele>
        <time>2020-03-04T09:25:33Z</time>
      </trkpt>
      <trkpt lat="46.84465" lon="5.52102">
        <ele>216.6</ele>
        <time>2020-03-04T09:25:34Z</time>
      </trkpt>
      <trkpt lat="46.84461" lon="5.52111">
        <ele>216.2</ele>
        <time>2020-03-04T09:25:35Z</time>
      </trkpt>
      <trkpt lat="46.84457" lon="5.52119">
        <ele>216.2</ele>
        <time>2020-03-04T09:25:36Z</time>
      </trkpt>
      <trkpt lat="46.84452" lon="5.52128">
        <ele>215.8</ele>
        <time>2020-03-04T09:25:37Z</time>
      </trkpt>
      <trkpt lat="46.84448" lon="5.52137">
        <ele>215.6</ele>
        <time>2020-03-04T09:25:38Z</time>
      </trkpt>
      <trkpt lat="46.84443" lon="5.52145">
        <ele>215.4</ele>
        <time>2020-03-04T09:25:39Z</time>
      </trkpt>
      <trkpt lat="46.84438" lon="5.52153">
        <ele>215.2</ele>
        <time>2020-03-04T09:25:40Z</time>
      </trkpt>
      <trkpt lat="46.84433" lon="5.52161">
        <ele>215</ele>
        <time>2020-03-04T09:25:41Z</time>
      </trkpt>
      <trkpt lat="46.84428" lon="5.5217">
        <ele>214.8</ele>
        <time>2020-03-04T09:25:42Z</time>
      </trkpt>
      <trkpt lat="46.84422" lon="5.52179">
        <ele>214.4</ele>
        <time>2020-03-04T09:25:43Z</time>
      </trkpt>
      <trkpt lat="46.84417" lon="5.52188">
        <ele>214</ele>
        <time>2020-03-04T09:25:44Z</time>
      </trkpt>
      <trkpt lat="46.84411" lon="5.52197">
        <ele>213.6</ele>
        <time>2020-03-04T09:25:45Z</time>
      </trkpt>
      <trkpt lat="46.84406" lon="5.52206">
        <ele>213.2</ele>
        <time>2020-03-04T09:25:46Z</time>
      </trkpt>
      <trkpt lat="46.844" lon="5.52215">
        <ele>213</ele>
        <time>2020-03-04T09:25:47Z</time>
      </trkpt>
      <trkpt lat="46.84395" lon="5.52225">
        <ele>212.6</ele>
        <time>2020-03-04T09:25:48Z</time>
      </trkpt>
      <trkpt lat="46.8439" lon="5.52235">
        <ele>212.2</ele>
        <time>2020-03-04T09:25:49Z</time>
      </trkpt>
      <trkpt lat="46.84384" lon="5.52245">
        <ele>211.8</ele>
        <time>2020-03-04T09:25:50Z</time>
      </trkpt>
      <trkpt lat="46.8438" lon="5.52255">
        <ele>211.6</ele>
        <time>2020-03-04T09:25:51Z</time>
      </trkpt>
      <trkpt lat="46.84375" lon="5.52265">
        <ele>211.2</ele>
        <time>2020-03-04T09:25:52Z</time>
      </trkpt>
      <trkpt lat="46.84371" lon="5.52276">
        <ele>211</ele>
        <time>2020-03-04T09:25:53Z</time>
      </trkpt>
      <trkpt lat="46.84366" lon="5.52286">
        <ele>210.4</ele>
        <time>2020-03-04T09:25:54Z</time>
      </trkpt>
      <trkpt lat="46.84362" lon="5.52297">
        <ele>210.2</ele>
        <time>2020-03-04T09:25:55Z</time>
      </trkpt>
      <trkpt lat="46.84357" lon="5.52307">
        <ele>209.8</ele>
        <time>2020-03-04T09:25:56Z</time>
      </trkpt>
      <trkpt lat="46.84352" lon="5.52318">
        <ele>209.4</ele>
        <time>2020-03-04T09:25:57Z</time>
      </trkpt>
      <trkpt lat="46.84346" lon="5.52328">
        <ele>209.2</ele>
        <time>2020-03-04T09:25:58Z</time>
      </trkpt>
      <trkpt lat="46.8434" lon="5.52337">
        <ele>209</ele>
        <time>2020-03-04T09:25:59Z</time>
      </trkpt>
      <trkpt lat="46.84334" lon="5.52346">
        <ele>208.6</ele>
        <time>2020-03-04T09:26:00Z</time>
      </trkpt>
      <trkpt lat="46.84328" lon="5.52355">
        <ele>208.4</ele>
        <time>2020-03-04T09:26:01Z</time>
      </trkpt>
      <trkpt lat="46.84322" lon="5.52363">
        <ele>208.2</ele>
        <time>2020-03-04T09:26:02Z</time>
      </trkpt>
      <trkpt lat="46.84316" lon="5.52371">
        <ele>208</ele>
        <time>2020-03-04T09:26:03Z</time>
      </trkpt>
      <trkpt lat="46.84311" lon="5.5238">
        <ele>208</ele>
        <time>2020-03-04T09:26:04Z</time>
      </trkpt>
      <trkpt lat="46.84307" lon="5.52388">
        <ele>207.8</ele>
        <time>2020-03-04T09:26:05Z</time>
      </trkpt>
      <trkpt lat="46.84302" lon="5.52397">
        <ele>207.8</ele>
        <time>2020-03-04T09:26:06Z</time>
      </trkpt>
      <trkpt lat="46.84298" lon="5.52406">
        <ele>207.8</ele>
        <time>2020-03-04T09:26:07Z</time>
      </trkpt>
      <trkpt lat="46.84295" lon="5.52414">
        <ele>207.8</ele>
        <time>2020-03-04T09:26:08Z</time>
      </trkpt>
      <trkpt lat="46.84292" lon="5.52422">
        <ele>207.8</ele>
        <time>2020-03-04T09:26:09Z</time>
      </trkpt>
      <trkpt lat="46.84288" lon="5.5243">
        <ele>207.8</ele>
        <time>2020-03-04T09:26:10Z</time>
      </trkpt>
      <trkpt lat="46.84285" lon="5.52437">
        <ele>207.8</ele>
        <time>2020-03-04T09:26:11Z</time>
      </trkpt>
      <trkpt lat="46.84281" lon="5.52444">
        <ele>208</ele>
        <time>2020-03-04T09:26:12Z</time>
      </trkpt>
      <trkpt lat="46.84277" lon="5.5245">
        <ele>208</ele>
        <time>2020-03-04T09:26:13Z</time>
      </trkpt>
      <trkpt lat="46.84274" lon="5.52456">
        <ele>208</ele>
        <time>2020-03-04T09:26:14Z</time>
      </trkpt>
      <trkpt lat="46.8427" lon="5.52462">
        <ele>208.4</ele>
        <time>2020-03-04T09:26:15Z</time>
      </trkpt>
      <trkpt lat="46.84266" lon="5.52467">
        <ele>208.6</ele>
        <time>2020-03-04T09:26:16Z</time>
      </trkpt>
      <trkpt lat="46.84263" lon="5.52471">
        <ele>208.8</ele>
        <time>2020-03-04T09:26:17Z</time>
      </trkpt>
      <trkpt lat="46.84259" lon="5.52476">
        <ele>208.8</ele>
        <time>2020-03-04T09:26:18Z</time>
      </trkpt>
      <trkpt lat="46.84256" lon="5.5248">
        <ele>209.2</ele>
        <time>2020-03-04T09:26:19Z</time>
      </trkpt>
      <trkpt lat="46.84253" lon="5.52485">
        <ele>209.4</ele>
        <time>2020-03-04T09:26:20Z</time>
      </trkpt>
      <trkpt lat="46.8425" lon="5.52489">
        <ele>209.6</ele>
        <time>2020-03-04T09:26:21Z</time>
      </trkpt>
      <trkpt lat="46.84248" lon="5.52493">
        <ele>209.6</ele>
        <time>2020-03-04T09:26:22Z</time>
      </trkpt>
      <trkpt lat="46.84247" lon="5.52498">
        <ele>210</ele>
        <time>2020-03-04T09:26:23Z</time>
      </trkpt>
      <trkpt lat="46.84245" lon="5.52501">
        <ele>210.2</ele>
        <time>2020-03-04T09:26:24Z</time>
      </trkpt>
      <trkpt lat="46.84243" lon="5.52505">
        <ele>210.6</ele>
        <time>2020-03-04T09:26:25Z</time>
      </trkpt>
      <trkpt lat="46.84241" lon="5.52509">
        <ele>210.8</ele>
        <time>2020-03-04T09:26:26Z</time>
      </trkpt>
      <trkpt lat="46.84239" lon="5.52513">
        <ele>211</ele>
        <time>2020-03-04T09:26:27Z</time>
      </trkpt>
      <trkpt lat="46.84238" lon="5.52517">
        <ele>211</ele>
        <time>2020-03-04T09:26:28Z</time>
      </trkpt>
      <trkpt lat="46.84236" lon="5.52522">
        <ele>211.6</ele>
        <time>2020-03-04T09:26:29Z</time>
      </trkpt>
      <trkpt lat="46.84235" lon="5.52526">
        <ele>211.6</ele>
        <time>2020-03-04T09:26:30Z</time>
      </trkpt>
      <trkpt lat="46.84233" lon="5.5253">
        <ele>212</ele>
        <time>2020-03-04T09:26:31Z</time>
      </trkpt>
      <trkpt lat="46.84232" lon="5.52534">
        <ele>212.2</ele>
        <time>2020-03-04T09:26:32Z</time>
      </trkpt>
      <trkpt lat="46.84231" lon="5.52538">
        <ele>212.2</ele>
        <time>2020-03-04T09:26:33Z</time>
      </trkpt>
      <trkpt lat="46.8423" lon="5.52543">
        <ele>212.6</ele>
        <time>2020-03-04T09:26:34Z</time>
      </trkpt>
      <trkpt lat="46.84229" lon="5.52547">
        <ele>212.6</ele>
        <time>2020-03-04T09:26:35Z</time>
      </trkpt>
      <trkpt lat="46.84228" lon="5.52551">
        <ele>212.6</ele>
        <time>2020-03-04T09:26:36Z</time>
      </trkpt>
      <trkpt lat="46.84227" lon="5.52556">
        <ele>212.8</ele>
        <time>2020-03-04T09:26:37Z</time>
      </trkpt>
      <trkpt lat="46.84226" lon="5.5256">
        <ele>212.8</ele>
        <time>2020-03-04T09:26:38Z</time>
      </trkpt>
      <trkpt lat="46.84224" lon="5.52565">
        <ele>213.2</ele>
        <time>2020-03-04T09:26:39Z</time>
      </trkpt>
      <trkpt lat="46.84223" lon="5.52569">
        <ele>213.2</ele>
        <time>2020-03-04T09:26:40Z</time>
      </trkpt>
      <trkpt lat="46.84222" lon="5.52573">
        <ele>213.4</ele>
        <time>2020-03-04T09:26:41Z</time>
      </trkpt>
      <trkpt lat="46.84222" lon="5.52578">
        <ele>213.4</ele>
        <time>2020-03-04T09:26:42Z</time>
      </trkpt>
      <trkpt lat="46.84222" lon="5.52583">
        <ele>213.4</ele>
        <time>2020-03-04T09:26:43Z</time>
      </trkpt>
      <trkpt lat="46.84222" lon="5.52588">
        <ele>213.6</ele>
        <time>2020-03-04T09:26:44Z</time>
      </trkpt>
      <trkpt lat="46.84222" lon="5.52592">
        <ele>213.6</ele>
        <time>2020-03-04T09:26:45Z</time>
      </trkpt>
      <trkpt lat="46.84223" lon="5.52597">
        <ele>213.8</ele>
        <time>2020-03-04T09:26:46Z</time>
      </trkpt>
      <trkpt lat="46.84224" lon="5.52602">
        <ele>213.8</ele>
        <time>2020-03-04T09:26:47Z</time>
      </trkpt>
      <trkpt lat="46.84224" lon="5.52606">
        <ele>214</ele>
        <time>2020-03-04T09:26:48Z</time>
      </trkpt>
      <trkpt lat="46.84225" lon="5.52611">
        <ele>214</ele>
        <time>2020-03-04T09:26:49Z</time>
      </trkpt>
      <trkpt lat="46.84227" lon="5.52615">
        <ele>214.4</ele>
        <time>2020-03-04T09:26:50Z</time>
      </trkpt>
      <trkpt lat="46.84228" lon="5.52619">
        <ele>214.4</ele>
        <time>2020-03-04T09:26:51Z</time>
      </trkpt>
      <trkpt lat="46.8423" lon="5.52623">
        <ele>214.4</ele>
        <time>2020-03-04T09:26:52Z</time>
      </trkpt>
      <trkpt lat="46.84232" lon="5.52627">
        <ele>214.6</ele>
        <time>2020-03-04T09:26:53Z</time>
      </trkpt>
      <trkpt lat="46.84233" lon="5.52632">
        <ele>214.6</ele>
        <time>2020-03-04T09:26:54Z</time>
      </trkpt>
      <trkpt lat="46.84235" lon="5.52636">
        <ele>215</ele>
        <time>2020-03-04T09:26:55Z</time>
      </trkpt>
      <trkpt lat="46.84236" lon="5.5264">
        <ele>215</ele>
        <time>2020-03-04T09:26:56Z</time>
      </trkpt>
      <trkpt lat="46.84238" lon="5.52645">
        <ele>215.2</ele>
        <time>2020-03-04T09:26:57Z</time>
      </trkpt>
      <trkpt lat="46.84239" lon="5.52649">
        <ele>215.2</ele>
        <time>2020-03-04T09:26:58Z</time>
      </trkpt>
      <trkpt lat="46.84241" lon="5.52654">
        <ele>215.4</ele>
        <time>2020-03-04T09:26:59Z</time>
      </trkpt>
      <trkpt lat="46.84242" lon="5.52659">
        <ele>215.4</ele>
        <time>2020-03-04T09:27:00Z</time>
      </trkpt>
      <trkpt lat="46.84244" lon="5.52664">
        <ele>215.8</ele>
        <time>2020-03-04T09:27:01Z</time>
      </trkpt>
      <trkpt lat="46.84245" lon="5.52668">
        <ele>216</ele>
        <time>2020-03-04T09:27:02Z</time>
      </trkpt>
      <trkpt lat="46.84247" lon="5.52673">
        <ele>216</ele>
        <time>2020-03-04T09:27:03Z</time>
      </trkpt>
      <trkpt lat="46.84247" lon="5.52679">
        <ele>216</ele>
        <time>2020-03-04T09:27:04Z</time>
      </trkpt>
      <trkpt lat="46.84248" lon="5.52684">
        <ele>216.2</ele>
        <time>2020-03-04T09:27:05Z</time>
      </trkpt>
      <trkpt lat="46.84249" lon="5.52688">
        <ele>216.2</ele>
        <time>2020-03-04T09:27:06Z</time>
      </trkpt>
      <trkpt lat="46.8425" lon="5.52694">
        <ele>216.2</ele>
        <time>2020-03-04T09:27:07Z</time>
      </trkpt>
      <trkpt lat="46.84251" lon="5.52699">
        <ele>216.4</ele>
        <time>2020-03-04T09:27:08Z</time>
      </trkpt>
      <trkpt lat="46.84251" lon="5.52704">
        <ele>216.4</ele>
        <time>2020-03-04T09:27:09Z</time>
      </trkpt>
      <trkpt lat="46.84252" lon="5.52709">
        <ele>216.4</ele>
        <time>2020-03-04T09:27:10Z</time>
      </trkpt>
      <trkpt lat="46.84253" lon="5.52715">
        <ele>216.8</ele>
        <time>2020-03-04T09:27:11Z</time>
      </trkpt>
      <trkpt lat="46.84253" lon="5.5272">
        <ele>216.8</ele>
        <time>2020-03-04T09:27:12Z</time>
      </trkpt>
      <trkpt lat="46.84253" lon="5.52725">
        <ele>216.8</ele>
        <time>2020-03-04T09:27:13Z</time>
      </trkpt>
      <trkpt lat="46.84253" lon="5.5273">
        <ele>217</ele>
        <time>2020-03-04T09:27:14Z</time>
      </trkpt>
      <trkpt lat="46.84252" lon="5.52736">
        <ele>217</ele>
        <time>2020-03-04T09:27:15Z</time>
      </trkpt>
      <trkpt lat="46.84252" lon="5.5274">
        <ele>217.4</ele>
        <time>2020-03-04T09:27:16Z</time>
      </trkpt>
      <trkpt lat="46.84251" lon="5.52745">
        <ele>217.4</ele>
        <time>2020-03-04T09:27:17Z</time>
      </trkpt>
      <trkpt lat="46.84251" lon="5.5275">
        <ele>217.4</ele>
        <time>2020-03-04T09:27:18Z</time>
      </trkpt>
      <trkpt lat="46.84251" lon="5.52754">
        <ele>217.6</ele>
        <time>2020-03-04T09:27:19Z</time>
      </trkpt>
      <trkpt lat="46.8425" lon="5.52758">
        <ele>217.6</ele>
        <time>2020-03-04T09:27:20Z</time>
      </trkpt>
      <trkpt lat="46.8425" lon="5.52763">
        <ele>218</ele>
        <time>2020-03-04T09:27:21Z</time>
      </trkpt>
      <trkpt lat="46.8425" lon="5.52768">
        <ele>218</ele>
        <time>2020-03-04T09:27:22Z</time>
      </trkpt>
      <trkpt lat="46.84249" lon="5.52773">
        <ele>218.2</ele>
        <time>2020-03-04T09:27:23Z</time>
      </trkpt>
      <trkpt lat="46.84249" lon="5.52778">
        <ele>218.2</ele>
        <time>2020-03-04T09:27:24Z</time>
      </trkpt>
      <trkpt lat="46.84249" lon="5.52783">
        <ele>218.2</ele>
        <time>2020-03-04T09:27:25Z</time>
      </trkpt>
      <trkpt lat="46.84248" lon="5.52789">
        <ele>218.2</ele>
        <time>2020-03-04T09:27:26Z</time>
      </trkpt>
      <trkpt lat="46.84248" lon="5.52794">
        <ele>218.4</ele>
        <time>2020-03-04T09:27:27Z</time>
      </trkpt>
      <trkpt lat="46.84248" lon="5.528">
        <ele>218.4</ele>
        <time>2020-03-04T09:27:28Z</time>
      </trkpt>
      <trkpt lat="46.84248" lon="5.52806">
        <ele>218.6</ele>
        <time>2020-03-04T09:27:29Z</time>
      </trkpt>
      <trkpt lat="46.84247" lon="5.52812">
        <ele>218.6</ele>
        <time>2020-03-04T09:27:30Z</time>
      </trkpt>
      <trkpt lat="46.84247" lon="5.52819">
        <ele>218.6</ele>
        <time>2020-03-04T09:27:31Z</time>
      </trkpt>
      <trkpt lat="46.84247" lon="5.52825">
        <ele>219</ele>
        <time>2020-03-04T09:27:32Z</time>
      </trkpt>
      <trkpt lat="46.84247" lon="5.52831">
        <ele>219</ele>
        <time>2020-03-04T09:27:33Z</time>
      </trkpt>
      <trkpt lat="46.84247" lon="5.52836">
        <ele>219.2</ele>
        <time>2020-03-04T09:27:34Z</time>
      </trkpt>
      <trkpt lat="46.84247" lon="5.52842">
        <ele>219.2</ele>
        <time>2020-03-04T09:27:35Z</time>
      </trkpt>
      <trkpt lat="46.84247" lon="5.52848">
        <ele>219.4</ele>
        <time>2020-03-04T09:27:36Z</time>
      </trkpt>
      <trkpt lat="46.84247" lon="5.52854">
        <ele>219.4</ele>
        <time>2020-03-04T09:27:37Z</time>
      </trkpt>
      <trkpt lat="46.84247" lon="5.52859">
        <ele>219.4</ele>
        <time>2020-03-04T09:27:38Z</time>
      </trkpt>
      <trkpt lat="46.84247" lon="5.52865">
        <ele>219.4</ele>
        <time>2020-03-04T09:27:39Z</time>
      </trkpt>
      <trkpt lat="46.84247" lon="5.52871">
        <ele>219.4</ele>
        <time>2020-03-04T09:27:40Z</time>
      </trkpt>
      <trkpt lat="46.84247" lon="5.52876">
        <ele>219.4</ele>
        <time>2020-03-04T09:27:41Z</time>
      </trkpt>
      <trkpt lat="46.84247" lon="5.52882">
        <ele>219.8</ele>
        <time>2020-03-04T09:27:42Z</time>
      </trkpt>
      <trkpt lat="46.84247" lon="5.52888">
        <ele>219.8</ele>
        <time>2020-03-04T09:27:43Z</time>
      </trkpt>
      <trkpt lat="46.84247" lon="5.52893">
        <ele>219.8</ele>
        <time>2020-03-04T09:27:44Z</time>
      </trkpt>
      <trkpt lat="46.84247" lon="5.52899">
        <ele>219.8</ele>
        <time>2020-03-04T09:27:45Z</time>
      </trkpt>
      <trkpt lat="46.84247" lon="5.52906">
        <ele>219.8</ele>
        <time>2020-03-04T09:27:46Z</time>
      </trkpt>
      <trkpt lat="46.84247" lon="5.52912">
        <ele>219.8</ele>
        <time>2020-03-04T09:27:47Z</time>
      </trkpt>
      <trkpt lat="46.84248" lon="5.52918">
        <ele>219.8</ele>
        <time>2020-03-04T09:27:48Z</time>
      </trkpt>
      <trkpt lat="46.84248" lon="5.52925">
        <ele>219.8</ele>
        <time>2020-03-04T09:27:49Z</time>
      </trkpt>
      <trkpt lat="46.84248" lon="5.52931">
        <ele>220</ele>
        <time>2020-03-04T09:27:50Z</time>
      </trkpt>
      <trkpt lat="46.84248" lon="5.52937">
        <ele>220</ele>
        <time>2020-03-04T09:27:51Z</time>
      </trkpt>
      <trkpt lat="46.84248" lon="5.52943">
        <ele>220</ele>
        <time>2020-03-04T09:27:52Z</time>
      </trkpt>
      <trkpt lat="46.84248" lon="5.5295">
        <ele>220.2</ele>
        <time>2020-03-04T09:27:53Z</time>
      </trkpt>
      <trkpt lat="46.84248" lon="5.52957">
        <ele>220.2</ele>
        <time>2020-03-04T09:27:54Z</time>
      </trkpt>
      <trkpt lat="46.84249" lon="5.52963">
        <ele>220.2</ele>
        <time>2020-03-04T09:27:55Z</time>
      </trkpt>
      <trkpt lat="46.84249" lon="5.5297">
        <ele>220.2</ele>
        <time>2020-03-04T09:27:56Z</time>
      </trkpt>
      <trkpt lat="46.84249" lon="5.52976">
        <ele>220.2</ele>
        <time>2020-03-04T09:27:57Z</time>
      </trkpt>
      <trkpt lat="46.84248" lon="5.52983">
        <ele>220.2</ele>
        <time>2020-03-04T09:27:58Z</time>
      </trkpt>
      <trkpt lat="46.84248" lon="5.52989">
        <ele>220.2</ele>
        <time>2020-03-04T09:27:59Z</time>
      </trkpt>
      <trkpt lat="46.84247" lon="5.52995">
        <ele>220.2</ele>
        <time>2020-03-04T09:28:00Z</time>
      </trkpt>
      <trkpt lat="46.84247" lon="5.53002">
        <ele>220.4</ele>
        <time>2020-03-04T09:28:01Z</time>
      </trkpt>
      <trkpt lat="46.84246" lon="5.53008">
        <ele>220.4</ele>
        <time>2020-03-04T09:28:02Z</time>
      </trkpt>
      <trkpt lat="46.84245" lon="5.53014">
        <ele>220.8</ele>
        <time>2020-03-04T09:28:03Z</time>
      </trkpt>
      <trkpt lat="46.84244" lon="5.5302">
        <ele>220.8</ele>
        <time>2020-03-04T09:28:04Z</time>
      </trkpt>
      <trkpt lat="46.84242" lon="5.53025">
        <ele>221</ele>
        <time>2020-03-04T09:28:05Z</time>
      </trkpt>
      <trkpt lat="46.84241" lon="5.53031">
        <ele>221</ele>
        <time>2020-03-04T09:28:06Z</time>
      </trkpt>
      <trkpt lat="46.84239" lon="5.53036">
        <ele>221.2</ele>
        <time>2020-03-04T09:28:07Z</time>
      </trkpt>
      <trkpt lat="46.84238" lon="5.53041">
        <ele>221.2</ele>
        <time>2020-03-04T09:28:08Z</time>
      </trkpt>
      <trkpt lat="46.84236" lon="5.53046">
        <ele>221.2</ele>
        <time>2020-03-04T09:28:09Z</time>
      </trkpt>
      <trkpt lat="46.84235" lon="5.53051">
        <ele>221.6</ele>
        <time>2020-03-04T09:28:10Z</time>
      </trkpt>
      <trkpt lat="46.84233" lon="5.53056">
        <ele>221.6</ele>
        <time>2020-03-04T09:28:11Z</time>
      </trkpt>
      <trkpt lat="46.84231" lon="5.5306">
        <ele>221.6</ele>
        <time>2020-03-04T09:28:12Z</time>
      </trkpt>
      <trkpt lat="46.84229" lon="5.53065">
        <ele>221.8</ele>
        <time>2020-03-04T09:28:13Z</time>
      </trkpt>
      <trkpt lat="46.84227" lon="5.53069">
        <ele>221.8</ele>
        <time>2020-03-04T09:28:14Z</time>
      </trkpt>
      <trkpt lat="46.84226" lon="5.53073">
        <ele>221.8</ele>
        <time>2020-03-04T09:28:15Z</time>
      </trkpt>
      <trkpt lat="46.84224" lon="5.53078">
        <ele>221.8</ele>
        <time>2020-03-04T09:28:16Z</time>
      </trkpt>
      <trkpt lat="46.84222" lon="5.53082">
        <ele>222.2</ele>
        <time>2020-03-04T09:28:17Z</time>
      </trkpt>
      <trkpt lat="46.8422" lon="5.53087">
        <ele>222.2</ele>
        <time>2020-03-04T09:28:18Z</time>
      </trkpt>
      <trkpt lat="46.84218" lon="5.53092">
        <ele>222.2</ele>
        <time>2020-03-04T09:28:19Z</time>
      </trkpt>
      <trkpt lat="46.84216" lon="5.53097">
        <ele>222.2</ele>
        <time>2020-03-04T09:28:20Z</time>
      </trkpt>
      <trkpt lat="46.84214" lon="5.53102">
        <ele>222.2</ele>
        <time>2020-03-04T09:28:21Z</time>
      </trkpt>
      <trkpt lat="46.84211" lon="5.53106">
        <ele>222.2</ele>
        <time>2020-03-04T09:28:22Z</time>
      </trkpt>
      <trkpt lat="46.84209" lon="5.5311">
        <ele>221.8</ele>
        <time>2020-03-04T09:28:23Z</time>
      </trkpt>
      <trkpt lat="46.84207" lon="5.53114">
        <ele>221.8</ele>
        <time>2020-03-04T09:28:24Z</time>
      </trkpt>
      <trkpt lat="46.84206" lon="5.53119">
        <ele>221.8</ele>
        <time>2020-03-04T09:28:25Z</time>
      </trkpt>
      <trkpt lat="46.84204" lon="5.53123">
        <ele>221.8</ele>
        <time>2020-03-04T09:28:26Z</time>
      </trkpt>
      <trkpt lat="46.84202" lon="5.53126">
        <ele>221.8</ele>
        <time>2020-03-04T09:28:27Z</time>
      </trkpt>
      <trkpt lat="46.842" lon="5.5313">
        <ele>221.8</ele>
        <time>2020-03-04T09:28:28Z</time>
      </trkpt>
      <trkpt lat="46.84198" lon="5.53133">
        <ele>221.8</ele>
        <time>2020-03-04T09:28:29Z</time>
      </trkpt>
      <trkpt lat="46.84196" lon="5.53136">
        <ele>221.8</ele>
        <time>2020-03-04T09:28:30Z</time>
      </trkpt>
      <trkpt lat="46.84195" lon="5.53137">
        <ele>221.8</ele>
        <time>2020-03-04T09:28:31Z</time>
      </trkpt>
      <trkpt lat="46.84195" lon="5.53139">
        <ele>221.6</ele>
        <time>2020-03-04T09:28:32Z</time>
      </trkpt>
      <trkpt lat="46.84189" lon="5.5315">
        <ele>220.8</ele>
        <time>2020-03-04T09:30:44Z</time>
      </trkpt>
      <trkpt lat="46.84188" lon="5.53152">
        <ele>220.8</ele>
        <time>2020-03-04T09:30:45Z</time>
      </trkpt>
      <trkpt lat="46.84186" lon="5.53155">
        <ele>220.8</ele>
        <time>2020-03-04T09:30:46Z</time>
      </trkpt>
      <trkpt lat="46.84184" lon="5.53158">
        <ele>220.8</ele>
        <time>2020-03-04T09:30:47Z</time>
      </trkpt>
      <trkpt lat="46.84183" lon="5.53161">
        <ele>220.8</ele>
        <time>2020-03-04T09:30:48Z</time>
      </trkpt>
      <trkpt lat="46.84181" lon="5.53165">
        <ele>220.6</ele>
        <time>2020-03-04T09:30:49Z</time>
      </trkpt>
      <trkpt lat="46.84179" lon="5.53169">
        <ele>220.6</ele>
        <time>2020-03-04T09:30:50Z</time>
      </trkpt>
      <trkpt lat="46.84177" lon="5.53173">
        <ele>220.2</ele>
        <time>2020-03-04T09:30:51Z</time>
      </trkpt>
      <trkpt lat="46.84174" lon="5.53178">
        <ele>220.2</ele>
        <time>2020-03-04T09:30:52Z</time>
      </trkpt>
      <trkpt lat="46.84172" lon="5.53183">
        <ele>220</ele>
        <time>2020-03-04T09:30:53Z</time>
      </trkpt>
      <trkpt lat="46.84168" lon="5.53188">
        <ele>219.8</ele>
        <time>2020-03-04T09:30:54Z</time>
      </trkpt>
      <trkpt lat="46.84165" lon="5.53194">
        <ele>219.4</ele>
        <time>2020-03-04T09:30:55Z</time>
      </trkpt>
      <trkpt lat="46.84161" lon="5.53201">
        <ele>219.4</ele>
        <time>2020-03-04T09:30:56Z</time>
      </trkpt>
      <trkpt lat="46.84156" lon="5.53208">
        <ele>219</ele>
        <time>2020-03-04T09:30:57Z</time>
      </trkpt>
      <trkpt lat="46.84151" lon="5.53216">
        <ele>218.6</ele>
        <time>2020-03-04T09:30:58Z</time>
      </trkpt>
      <trkpt lat="46.84145" lon="5.53224">
        <ele>218.2</ele>
        <time>2020-03-04T09:30:59Z</time>
      </trkpt>
      <trkpt lat="46.8414" lon="5.53232">
        <ele>217.8</ele>
        <time>2020-03-04T09:31:00Z</time>
      </trkpt>
      <trkpt lat="46.84133" lon="5.5324">
        <ele>217.4</ele>
        <time>2020-03-04T09:31:01Z</time>
      </trkpt>
      <trkpt lat="46.84127" lon="5.53249">
        <ele>216.8</ele>
        <time>2020-03-04T09:31:02Z</time>
      </trkpt>
      <trkpt lat="46.8412" lon="5.53258">
        <ele>216.4</ele>
        <time>2020-03-04T09:31:03Z</time>
      </trkpt>
      <trkpt lat="46.84114" lon="5.53267">
        <ele>216</ele>
        <time>2020-03-04T09:31:04Z</time>
      </trkpt>
      <trkpt lat="46.84108" lon="5.53277">
        <ele>215.4</ele>
        <time>2020-03-04T09:31:05Z</time>
      </trkpt>
      <trkpt lat="46.84102" lon="5.53287">
        <ele>215</ele>
        <time>2020-03-04T09:31:06Z</time>
      </trkpt>
      <trkpt lat="46.84096" lon="5.53299">
        <ele>214.4</ele>
        <time>2020-03-04T09:31:07Z</time>
      </trkpt>
      <trkpt lat="46.8409" lon="5.53314">
        <ele>213.8</ele>
        <time>2020-03-04T09:31:08Z</time>
      </trkpt>
      <trkpt lat="46.84087" lon="5.53329">
        <ele>213.2</ele>
        <time>2020-03-04T09:31:09Z</time>
      </trkpt>
      <trkpt lat="46.84082" lon="5.53344">
        <ele>212.8</ele>
        <time>2020-03-04T09:31:10Z</time>
      </trkpt>
      <trkpt lat="46.84078" lon="5.53358">
        <ele>212.2</ele>
        <time>2020-03-04T09:31:11Z</time>
      </trkpt>
      <trkpt lat="46.84074" lon="5.53371">
        <ele>211.8</ele>
        <time>2020-03-04T09:31:12Z</time>
      </trkpt>
      <trkpt lat="46.84071" lon="5.53383">
        <ele>211.4</ele>
        <time>2020-03-04T09:31:13Z</time>
      </trkpt>
      <trkpt lat="46.84068" lon="5.53395">
        <ele>211.2</ele>
        <time>2020-03-04T09:31:14Z</time>
      </trkpt>
      <trkpt lat="46.84066" lon="5.53406">
        <ele>210.8</ele>
        <time>2020-03-04T09:31:15Z</time>
      </trkpt>
      <trkpt lat="46.84062" lon="5.53417">
        <ele>210.8</ele>
        <time>2020-03-04T09:31:16Z</time>
      </trkpt>
      <trkpt lat="46.84059" lon="5.53428">
        <ele>210.4</ele>
        <time>2020-03-04T09:31:17Z</time>
      </trkpt>
      <trkpt lat="46.84055" lon="5.5344">
        <ele>210.4</ele>
        <time>2020-03-04T09:31:18Z</time>
      </trkpt>
      <trkpt lat="46.84052" lon="5.53451">
        <ele>210.4</ele>
        <time>2020-03-04T09:31:19Z</time>
      </trkpt>
      <trkpt lat="46.84049" lon="5.53462">
        <ele>210.4</ele>
        <time>2020-03-04T09:31:20Z</time>
      </trkpt>
      <trkpt lat="46.84045" lon="5.53472">
        <ele>210.4</ele>
        <time>2020-03-04T09:31:21Z</time>
      </trkpt>
      <trkpt lat="46.84042" lon="5.53483">
        <ele>210.4</ele>
        <time>2020-03-04T09:31:22Z</time>
      </trkpt>
      <trkpt lat="46.84038" lon="5.53492">
        <ele>210.4</ele>
        <time>2020-03-04T09:31:23Z</time>
      </trkpt>
      <trkpt lat="46.84034" lon="5.53501">
        <ele>210.8</ele>
        <time>2020-03-04T09:31:24Z</time>
      </trkpt>
      <trkpt lat="46.8403" lon="5.5351">
        <ele>210.8</ele>
        <time>2020-03-04T09:31:25Z</time>
      </trkpt>
      <trkpt lat="46.84026" lon="5.53519">
        <ele>211</ele>
        <time>2020-03-04T09:31:26Z</time>
      </trkpt>
      <trkpt lat="46.84022" lon="5.53527">
        <ele>211.2</ele>
        <time>2020-03-04T09:31:27Z</time>
      </trkpt>
      <trkpt lat="46.84019" lon="5.53534">
        <ele>211.2</ele>
        <time>2020-03-04T09:31:28Z</time>
      </trkpt>
      <trkpt lat="46.84015" lon="5.53542">
        <ele>211.4</ele>
        <time>2020-03-04T09:31:29Z</time>
      </trkpt>
      <trkpt lat="46.84012" lon="5.53549">
        <ele>211.8</ele>
        <time>2020-03-04T09:31:30Z</time>
      </trkpt>
      <trkpt lat="46.84008" lon="5.53556">
        <ele>211.8</ele>
        <time>2020-03-04T09:31:31Z</time>
      </trkpt>
      <trkpt lat="46.84004" lon="5.53562">
        <ele>212</ele>
        <time>2020-03-04T09:31:32Z</time>
      </trkpt>
      <trkpt lat="46.84" lon="5.53567">
        <ele>212.2</ele>
        <time>2020-03-04T09:31:33Z</time>
      </trkpt>
      <trkpt lat="46.83996" lon="5.53572">
        <ele>212.2</ele>
        <time>2020-03-04T09:31:34Z</time>
      </trkpt>
      <trkpt lat="46.83993" lon="5.53577">
        <ele>212.8</ele>
        <time>2020-03-04T09:31:35Z</time>
      </trkpt>
      <trkpt lat="46.8399" lon="5.53582">
        <ele>213</ele>
        <time>2020-03-04T09:31:36Z</time>
      </trkpt>
      <trkpt lat="46.83987" lon="5.53587">
        <ele>213.4</ele>
        <time>2020-03-04T09:31:37Z</time>
      </trkpt>
      <trkpt lat="46.83984" lon="5.5359">
        <ele>213.6</ele>
        <time>2020-03-04T09:31:38Z</time>
      </trkpt>
      <trkpt lat="46.83981" lon="5.53594">
        <ele>213.6</ele>
        <time>2020-03-04T09:31:39Z</time>
      </trkpt>
      <trkpt lat="46.83978" lon="5.53597">
        <ele>214</ele>
        <time>2020-03-04T09:31:40Z</time>
      </trkpt>
      <trkpt lat="46.83975" lon="5.536">
        <ele>214.2</ele>
        <time>2020-03-04T09:31:41Z</time>
      </trkpt>
      <trkpt lat="46.83972" lon="5.53603">
        <ele>214.2</ele>
        <time>2020-03-04T09:31:42Z</time>
      </trkpt>
      <trkpt lat="46.83969" lon="5.53606">
        <ele>214.8</ele>
        <time>2020-03-04T09:31:43Z</time>
      </trkpt>
      <trkpt lat="46.83966" lon="5.53609">
        <ele>215</ele>
        <time>2020-03-04T09:31:44Z</time>
      </trkpt>
      <trkpt lat="46.83964" lon="5.53612">
        <ele>215.2</ele>
        <time>2020-03-04T09:31:45Z</time>
      </trkpt>
      <trkpt lat="46.83962" lon="5.53615">
        <ele>215.6</ele>
        <time>2020-03-04T09:31:46Z</time>
      </trkpt>
      <trkpt lat="46.83959" lon="5.53618">
        <ele>215.8</ele>
        <time>2020-03-04T09:31:47Z</time>
      </trkpt>
      <trkpt lat="46.83957" lon="5.53622">
        <ele>216</ele>
        <time>2020-03-04T09:31:48Z</time>
      </trkpt>
      <trkpt lat="46.83955" lon="5.53625">
        <ele>216.2</ele>
        <time>2020-03-04T09:31:49Z</time>
      </trkpt>
      <trkpt lat="46.83952" lon="5.53628">
        <ele>216.2</ele>
        <time>2020-03-04T09:31:50Z</time>
      </trkpt>
      <trkpt lat="46.8395" lon="5.53631">
        <ele>216.6</ele>
        <time>2020-03-04T09:31:51Z</time>
      </trkpt>
      <trkpt lat="46.83947" lon="5.53634">
        <ele>216.6</ele>
        <time>2020-03-04T09:31:52Z</time>
      </trkpt>
      <trkpt lat="46.83945" lon="5.53637">
        <ele>217</ele>
        <time>2020-03-04T09:31:53Z</time>
      </trkpt>
      <trkpt lat="46.83943" lon="5.5364">
        <ele>217.2</ele>
        <time>2020-03-04T09:31:54Z</time>
      </trkpt>
      <trkpt lat="46.83941" lon="5.53644">
        <ele>217.2</ele>
        <time>2020-03-04T09:31:55Z</time>
      </trkpt>
      <trkpt lat="46.8394" lon="5.53648">
        <ele>217.6</ele>
        <time>2020-03-04T09:31:56Z</time>
      </trkpt>
      <trkpt lat="46.83938" lon="5.53651">
        <ele>217.8</ele>
        <time>2020-03-04T09:31:57Z</time>
      </trkpt>
      <trkpt lat="46.83936" lon="5.53655">
        <ele>217.8</ele>
        <time>2020-03-04T09:31:58Z</time>
      </trkpt>
      <trkpt lat="46.83934" lon="5.53658">
        <ele>218.2</ele>
        <time>2020-03-04T09:31:59Z</time>
      </trkpt>
      <trkpt lat="46.83932" lon="5.53661">
        <ele>218.4</ele>
        <time>2020-03-04T09:32:00Z</time>
      </trkpt>
      <trkpt lat="46.8393" lon="5.53664">
        <ele>218.6</ele>
        <time>2020-03-04T09:32:01Z</time>
      </trkpt>
      <trkpt lat="46.83928" lon="5.53667">
        <ele>218.6</ele>
        <time>2020-03-04T09:32:02Z</time>
      </trkpt>
      <trkpt lat="46.83926" lon="5.5367">
        <ele>218.8</ele>
        <time>2020-03-04T09:32:03Z</time>
      </trkpt>
      <trkpt lat="46.83924" lon="5.53673">
        <ele>219</ele>
        <time>2020-03-04T09:32:04Z</time>
      </trkpt>
      <trkpt lat="46.83923" lon="5.53676">
        <ele>219</ele>
        <time>2020-03-04T09:32:05Z</time>
      </trkpt>
      <trkpt lat="46.83921" lon="5.53679">
        <ele>219.4</ele>
        <time>2020-03-04T09:32:06Z</time>
      </trkpt>
      <trkpt lat="46.83919" lon="5.53681">
        <ele>219.4</ele>
        <time>2020-03-04T09:32:07Z</time>
      </trkpt>
      <trkpt lat="46.83918" lon="5.53684">
        <ele>219.8</ele>
        <time>2020-03-04T09:32:08Z</time>
      </trkpt>
      <trkpt lat="46.83916" lon="5.53688">
        <ele>219.8</ele>
        <time>2020-03-04T09:32:09Z</time>
      </trkpt>
      <trkpt lat="46.83914" lon="5.53691">
        <ele>220</ele>
        <time>2020-03-04T09:32:10Z</time>
      </trkpt>
      <trkpt lat="46.83912" lon="5.53694">
        <ele>220</ele>
        <time>2020-03-04T09:32:11Z</time>
      </trkpt>
      <trkpt lat="46.8391" lon="5.53697">
        <ele>220.4</ele>
        <time>2020-03-04T09:32:12Z</time>
      </trkpt>
      <trkpt lat="46.83909" lon="5.53701">
        <ele>220.4</ele>
        <time>2020-03-04T09:32:13Z</time>
      </trkpt>
      <trkpt lat="46.83907" lon="5.53705">
        <ele>220.4</ele>
        <time>2020-03-04T09:32:14Z</time>
      </trkpt>
      <trkpt lat="46.83906" lon="5.53709">
        <ele>220.4</ele>
        <time>2020-03-04T09:32:15Z</time>
      </trkpt>
      <trkpt lat="46.83904" lon="5.53713">
        <ele>220.4</ele>
        <time>2020-03-04T09:32:16Z</time>
      </trkpt>
      <trkpt lat="46.83902" lon="5.53718">
        <ele>220.4</ele>
        <time>2020-03-04T09:32:17Z</time>
      </trkpt>
      <trkpt lat="46.83901" lon="5.53723">
        <ele>220.4</ele>
        <time>2020-03-04T09:32:18Z</time>
      </trkpt>
      <trkpt lat="46.83899" lon="5.53728">
        <ele>220.4</ele>
        <time>2020-03-04T09:32:19Z</time>
      </trkpt>
      <trkpt lat="46.83897" lon="5.53733">
        <ele>220.4</ele>
        <time>2020-03-04T09:32:20Z</time>
      </trkpt>
      <trkpt lat="46.83896" lon="5.53739">
        <ele>220.4</ele>
        <time>2020-03-04T09:32:21Z</time>
      </trkpt>
      <trkpt lat="46.83894" lon="5.53745">
        <ele>220.4</ele>
        <time>2020-03-04T09:32:22Z</time>
      </trkpt>
      <trkpt lat="46.83893" lon="5.53752">
        <ele>220.4</ele>
        <time>2020-03-04T09:32:23Z</time>
      </trkpt>
      <trkpt lat="46.83892" lon="5.53758">
        <ele>220.4</ele>
        <time>2020-03-04T09:32:24Z</time>
      </trkpt>
      <trkpt lat="46.83891" lon="5.53765">
        <ele>220.4</ele>
        <time>2020-03-04T09:32:25Z</time>
      </trkpt>
      <trkpt lat="46.8389" lon="5.53771">
        <ele>220.4</ele>
        <time>2020-03-04T09:32:26Z</time>
      </trkpt>
      <trkpt lat="46.83888" lon="5.53779">
        <ele>220.4</ele>
        <time>2020-03-04T09:32:27Z</time>
      </trkpt>
      <trkpt lat="46.83887" lon="5.53786">
        <ele>220</ele>
        <time>2020-03-04T09:32:28Z</time>
      </trkpt>
      <trkpt lat="46.83885" lon="5.53793">
        <ele>220</ele>
        <time>2020-03-04T09:32:29Z</time>
      </trkpt>
      <trkpt lat="46.83883" lon="5.538">
        <ele>220</ele>
        <time>2020-03-04T09:32:30Z</time>
      </trkpt>
      <trkpt lat="46.83882" lon="5.53807">
        <ele>220</ele>
        <time>2020-03-04T09:32:31Z</time>
      </trkpt>
      <trkpt lat="46.8388" lon="5.53814">
        <ele>220.4</ele>
        <time>2020-03-04T09:32:32Z</time>
      </trkpt>
      <trkpt lat="46.83879" lon="5.53822">
        <ele>220.4</ele>
        <time>2020-03-04T09:32:33Z</time>
      </trkpt>
      <trkpt lat="46.83878" lon="5.53829">
        <ele>220.4</ele>
        <time>2020-03-04T09:32:34Z</time>
      </trkpt>
      <trkpt lat="46.83877" lon="5.53836">
        <ele>220.4</ele>
        <time>2020-03-04T09:32:35Z</time>
      </trkpt>
      <trkpt lat="46.83876" lon="5.53843">
        <ele>220.4</ele>
        <time>2020-03-04T09:32:36Z</time>
      </trkpt>
      <trkpt lat="46.83875" lon="5.53851">
        <ele>220.6</ele>
        <time>2020-03-04T09:32:37Z</time>
      </trkpt>
      <trkpt lat="46.83874" lon="5.53858">
        <ele>220.6</ele>
        <time>2020-03-04T09:32:38Z</time>
      </trkpt>
      <trkpt lat="46.83874" lon="5.53866">
        <ele>220.6</ele>
        <time>2020-03-04T09:32:39Z</time>
      </trkpt>
      <trkpt lat="46.83873" lon="5.53874">
        <ele>220.6</ele>
        <time>2020-03-04T09:32:40Z</time>
      </trkpt>
      <trkpt lat="46.83872" lon="5.53881">
        <ele>220.6</ele>
        <time>2020-03-04T09:32:41Z</time>
      </trkpt>
      <trkpt lat="46.83872" lon="5.53889">
        <ele>220.6</ele>
        <time>2020-03-04T09:32:42Z</time>
      </trkpt>
      <trkpt lat="46.83871" lon="5.53897">
        <ele>220.6</ele>
        <time>2020-03-04T09:32:43Z</time>
      </trkpt>
      <trkpt lat="46.8387" lon="5.53904">
        <ele>220.8</ele>
        <time>2020-03-04T09:32:44Z</time>
      </trkpt>
      <trkpt lat="46.8387" lon="5.53912">
        <ele>220.8</ele>
        <time>2020-03-04T09:32:45Z</time>
      </trkpt>
      <trkpt lat="46.83869" lon="5.53919">
        <ele>221.2</ele>
        <time>2020-03-04T09:32:46Z</time>
      </trkpt>
      <trkpt lat="46.83869" lon="5.53927">
        <ele>221.2</ele>
        <time>2020-03-04T09:32:47Z</time>
      </trkpt>
      <trkpt lat="46.83868" lon="5.53934">
        <ele>221.4</ele>
        <time>2020-03-04T09:32:48Z</time>
      </trkpt>
      <trkpt lat="46.83867" lon="5.53942">
        <ele>221.4</ele>
        <time>2020-03-04T09:32:49Z</time>
      </trkpt>
      <trkpt lat="46.83867" lon="5.53949">
        <ele>221.8</ele>
        <time>2020-03-04T09:32:50Z</time>
      </trkpt>
      <trkpt lat="46.83866" lon="5.53956">
        <ele>221.8</ele>
        <time>2020-03-04T09:32:51Z</time>
      </trkpt>
      <trkpt lat="46.83865" lon="5.53963">
        <ele>222.2</ele>
        <time>2020-03-04T09:32:52Z</time>
      </trkpt>
      <trkpt lat="46.83864" lon="5.5397">
        <ele>222.2</ele>
        <time>2020-03-04T09:32:53Z</time>
      </trkpt>
      <trkpt lat="46.83863" lon="5.53976">
        <ele>222.4</ele>
        <time>2020-03-04T09:32:54Z</time>
      </trkpt>
      <trkpt lat="46.83863" lon="5.53983">
        <ele>222.6</ele>
        <time>2020-03-04T09:32:55Z</time>
      </trkpt>
      <trkpt lat="46.83862" lon="5.53989">
        <ele>222.6</ele>
        <time>2020-03-04T09:32:56Z</time>
      </trkpt>
      <trkpt lat="46.83861" lon="5.53996">
        <ele>223</ele>
        <time>2020-03-04T09:32:57Z</time>
      </trkpt>
      <trkpt lat="46.8386" lon="5.54003">
        <ele>223</ele>
        <time>2020-03-04T09:32:58Z</time>
      </trkpt>
      <trkpt lat="46.83859" lon="5.54009">
        <ele>223</ele>
        <time>2020-03-04T09:32:59Z</time>
      </trkpt>
      <trkpt lat="46.83858" lon="5.54016">
        <ele>223.2</ele>
        <time>2020-03-04T09:33:00Z</time>
      </trkpt>
      <trkpt lat="46.83857" lon="5.54023">
        <ele>223.2</ele>
        <time>2020-03-04T09:33:01Z</time>
      </trkpt>
      <trkpt lat="46.83855" lon="5.54029">
        <ele>223.2</ele>
        <time>2020-03-04T09:33:02Z</time>
      </trkpt>
      <trkpt lat="46.83854" lon="5.54036">
        <ele>223.6</ele>
        <time>2020-03-04T09:33:03Z</time>
      </trkpt>
      <trkpt lat="46.83854" lon="5.54043">
        <ele>223.6</ele>
        <time>2020-03-04T09:33:04Z</time>
      </trkpt>
      <trkpt lat="46.83853" lon="5.54049">
        <ele>223.6</ele>
        <time>2020-03-04T09:33:05Z</time>
      </trkpt>
      <trkpt lat="46.83851" lon="5.54056">
        <ele>223.6</ele>
        <time>2020-03-04T09:33:06Z</time>
      </trkpt>
      <trkpt lat="46.8385" lon="5.54063">
        <ele>223.8</ele>
        <time>2020-03-04T09:33:07Z</time>
      </trkpt>
      <trkpt lat="46.83849" lon="5.5407">
        <ele>223.8</ele>
        <time>2020-03-04T09:33:08Z</time>
      </trkpt>
      <trkpt lat="46.83847" lon="5.54077">
        <ele>223.8</ele>
        <time>2020-03-04T09:33:09Z</time>
      </trkpt>
      <trkpt lat="46.83846" lon="5.54084">
        <ele>223.8</ele>
        <time>2020-03-04T09:33:10Z</time>
      </trkpt>
      <trkpt lat="46.83845" lon="5.54092">
        <ele>223.8</ele>
        <time>2020-03-04T09:33:11Z</time>
      </trkpt>
      <trkpt lat="46.83844" lon="5.54099">
        <ele>223.8</ele>
        <time>2020-03-04T09:33:12Z</time>
      </trkpt>
      <trkpt lat="46.83842" lon="5.54107">
        <ele>223.8</ele>
        <time>2020-03-04T09:33:13Z</time>
      </trkpt>
      <trkpt lat="46.83841" lon="5.54115">
        <ele>223.8</ele>
        <time>2020-03-04T09:33:14Z</time>
      </trkpt>
      <trkpt lat="46.8384" lon="5.54122">
        <ele>223.8</ele>
        <time>2020-03-04T09:33:15Z</time>
      </trkpt>
      <trkpt lat="46.83838" lon="5.5413">
        <ele>223.8</ele>
        <time>2020-03-04T09:33:16Z</time>
      </trkpt>
      <trkpt lat="46.83837" lon="5.54138">
        <ele>223.8</ele>
        <time>2020-03-04T09:33:17Z</time>
      </trkpt>
      <trkpt lat="46.83835" lon="5.54146">
        <ele>223.8</ele>
        <time>2020-03-04T09:33:18Z</time>
      </trkpt>
      <trkpt lat="46.83834" lon="5.54154">
        <ele>223.8</ele>
        <time>2020-03-04T09:33:19Z</time>
      </trkpt>
      <trkpt lat="46.83833" lon="5.54162">
        <ele>223.8</ele>
        <time>2020-03-04T09:33:20Z</time>
      </trkpt>
      <trkpt lat="46.83831" lon="5.54171">
        <ele>223.8</ele>
        <time>2020-03-04T09:33:21Z</time>
      </trkpt>
      <trkpt lat="46.8383" lon="5.54179">
        <ele>223.8</ele>
        <time>2020-03-04T09:33:22Z</time>
      </trkpt>
      <trkpt lat="46.83828" lon="5.54187">
        <ele>223.8</ele>
        <time>2020-03-04T09:33:23Z</time>
      </trkpt>
      <trkpt lat="46.83827" lon="5.54195">
        <ele>223.8</ele>
        <time>2020-03-04T09:33:24Z</time>
      </trkpt>
      <trkpt lat="46.83825" lon="5.54204">
        <ele>223.8</ele>
        <time>2020-03-04T09:33:25Z</time>
      </trkpt>
      <trkpt lat="46.83823" lon="5.54212">
        <ele>223.8</ele>
        <time>2020-03-04T09:33:26Z</time>
      </trkpt>
      <trkpt lat="46.83821" lon="5.54221">
        <ele>223.4</ele>
        <time>2020-03-04T09:33:27Z</time>
      </trkpt>
      <trkpt lat="46.83819" lon="5.54229">
        <ele>223.4</ele>
        <time>2020-03-04T09:33:28Z</time>
      </trkpt>
      <trkpt lat="46.83817" lon="5.54238">
        <ele>223</ele>
        <time>2020-03-04T09:33:29Z</time>
      </trkpt>
      <trkpt lat="46.83815" lon="5.54247">
        <ele>223</ele>
        <time>2020-03-04T09:33:30Z</time>
      </trkpt>
      <trkpt lat="46.83813" lon="5.54256">
        <ele>222.8</ele>
        <time>2020-03-04T09:33:31Z</time>
      </trkpt>
      <trkpt lat="46.83811" lon="5.54265">
        <ele>222.8</ele>
        <time>2020-03-04T09:33:32Z</time>
      </trkpt>
      <trkpt lat="46.83809" lon="5.54274">
        <ele>222.4</ele>
        <time>2020-03-04T09:33:33Z</time>
      </trkpt>
      <trkpt lat="46.83807" lon="5.54283">
        <ele>222.4</ele>
        <time>2020-03-04T09:33:34Z</time>
      </trkpt>
      <trkpt lat="46.83805" lon="5.54293">
        <ele>222.4</ele>
        <time>2020-03-04T09:33:35Z</time>
      </trkpt>
      <trkpt lat="46.83802" lon="5.54302">
        <ele>222</ele>
        <time>2020-03-04T09:33:36Z</time>
      </trkpt>
      <trkpt lat="46.838" lon="5.54312">
        <ele>222</ele>
        <time>2020-03-04T09:33:37Z</time>
      </trkpt>
      <trkpt lat="46.83798" lon="5.54322">
        <ele>221.6</ele>
        <time>2020-03-04T09:33:38Z</time>
      </trkpt>
      <trkpt lat="46.83796" lon="5.54332">
        <ele>221.4</ele>
        <time>2020-03-04T09:33:39Z</time>
      </trkpt>
      <trkpt lat="46.83794" lon="5.54343">
        <ele>221</ele>
        <time>2020-03-04T09:33:40Z</time>
      </trkpt>
      <trkpt lat="46.83792" lon="5.54353">
        <ele>220.8</ele>
        <time>2020-03-04T09:33:41Z</time>
      </trkpt>
      <trkpt lat="46.83789" lon="5.54364">
        <ele>220.4</ele>
        <time>2020-03-04T09:33:42Z</time>
      </trkpt>
      <trkpt lat="46.83787" lon="5.54375">
        <ele>220.2</ele>
        <time>2020-03-04T09:33:43Z</time>
      </trkpt>
      <trkpt lat="46.83785" lon="5.54386">
        <ele>220</ele>
        <time>2020-03-04T09:33:44Z</time>
      </trkpt>
      <trkpt lat="46.83782" lon="5.54397">
        <ele>219.6</ele>
        <time>2020-03-04T09:33:45Z</time>
      </trkpt>
      <trkpt lat="46.8378" lon="5.54408">
        <ele>219.4</ele>
        <time>2020-03-04T09:33:46Z</time>
      </trkpt>
      <trkpt lat="46.83777" lon="5.5442">
        <ele>219</ele>
        <time>2020-03-04T09:33:47Z</time>
      </trkpt>
      <trkpt lat="46.83775" lon="5.54432">
        <ele>218.6</ele>
        <time>2020-03-04T09:33:48Z</time>
      </trkpt>
      <trkpt lat="46.83772" lon="5.54444">
        <ele>218.2</ele>
        <time>2020-03-04T09:33:49Z</time>
      </trkpt>
      <trkpt lat="46.83769" lon="5.54456">
        <ele>218</ele>
        <time>2020-03-04T09:33:50Z</time>
      </trkpt>
      <trkpt lat="46.83767" lon="5.54468">
        <ele>217.6</ele>
        <time>2020-03-04T09:33:51Z</time>
      </trkpt>
      <trkpt lat="46.83764" lon="5.5448">
        <ele>217.4</ele>
        <time>2020-03-04T09:33:52Z</time>
      </trkpt>
      <trkpt lat="46.83761" lon="5.54491">
        <ele>217.4</ele>
        <time>2020-03-04T09:33:53Z</time>
      </trkpt>
      <trkpt lat="46.83759" lon="5.54502">
        <ele>217.4</ele>
        <time>2020-03-04T09:33:54Z</time>
      </trkpt>
      <trkpt lat="46.83757" lon="5.54513">
        <ele>217.4</ele>
        <time>2020-03-04T09:33:55Z</time>
      </trkpt>
      <trkpt lat="46.83754" lon="5.54523">
        <ele>217.6</ele>
        <time>2020-03-04T09:33:56Z</time>
      </trkpt>
      <trkpt lat="46.83752" lon="5.54533">
        <ele>218</ele>
        <time>2020-03-04T09:33:57Z</time>
      </trkpt>
      <trkpt lat="46.8375" lon="5.54542">
        <ele>218.2</ele>
        <time>2020-03-04T09:33:58Z</time>
      </trkpt>
      <trkpt lat="46.83748" lon="5.54551">
        <ele>218.4</ele>
        <time>2020-03-04T09:33:59Z</time>
      </trkpt>
      <trkpt lat="46.83747" lon="5.54559">
        <ele>218.4</ele>
        <time>2020-03-04T09:34:00Z</time>
      </trkpt>
      <trkpt lat="46.83745" lon="5.54567">
        <ele>218.8</ele>
        <time>2020-03-04T09:34:01Z</time>
      </trkpt>
      <trkpt lat="46.83743" lon="5.54575">
        <ele>219</ele>
        <time>2020-03-04T09:34:02Z</time>
      </trkpt>
      <trkpt lat="46.83742" lon="5.54582">
        <ele>219.4</ele>
        <time>2020-03-04T09:34:03Z</time>
      </trkpt>
      <trkpt lat="46.8374" lon="5.54589">
        <ele>219.6</ele>
        <time>2020-03-04T09:34:04Z</time>
      </trkpt>
      <trkpt lat="46.83739" lon="5.54596">
        <ele>220</ele>
        <time>2020-03-04T09:34:05Z</time>
      </trkpt>
      <trkpt lat="46.83737" lon="5.54602">
        <ele>220.2</ele>
        <time>2020-03-04T09:34:06Z</time>
      </trkpt>
      <trkpt lat="46.83736" lon="5.54609">
        <ele>220.2</ele>
        <time>2020-03-04T09:34:07Z</time>
      </trkpt>
      <trkpt lat="46.83734" lon="5.54615">
        <ele>220.4</ele>
        <time>2020-03-04T09:34:08Z</time>
      </trkpt>
      <trkpt lat="46.83733" lon="5.54621">
        <ele>220.6</ele>
        <time>2020-03-04T09:34:09Z</time>
      </trkpt>
      <trkpt lat="46.83732" lon="5.54628">
        <ele>220.6</ele>
        <time>2020-03-04T09:34:10Z</time>
      </trkpt>
      <trkpt lat="46.8373" lon="5.54634">
        <ele>221</ele>
        <time>2020-03-04T09:34:11Z</time>
      </trkpt>
      <trkpt lat="46.83729" lon="5.5464">
        <ele>221</ele>
        <time>2020-03-04T09:34:12Z</time>
      </trkpt>
      <trkpt lat="46.83728" lon="5.54647">
        <ele>221.2</ele>
        <time>2020-03-04T09:34:13Z</time>
      </trkpt>
      <trkpt lat="46.83726" lon="5.54653">
        <ele>221.2</ele>
        <time>2020-03-04T09:34:14Z</time>
      </trkpt>
      <trkpt lat="46.83725" lon="5.54659">
        <ele>221.2</ele>
        <time>2020-03-04T09:34:15Z</time>
      </trkpt>
      <trkpt lat="46.83723" lon="5.54666">
        <ele>221.4</ele>
        <time>2020-03-04T09:34:16Z</time>
      </trkpt>
      <trkpt lat="46.83722" lon="5.54673">
        <ele>221.4</ele>
        <time>2020-03-04T09:34:17Z</time>
      </trkpt>
      <trkpt lat="46.83721" lon="5.5468">
        <ele>221.4</ele>
        <time>2020-03-04T09:34:18Z</time>
      </trkpt>
      <trkpt lat="46.83719" lon="5.54688">
        <ele>221.6</ele>
        <time>2020-03-04T09:34:19Z</time>
      </trkpt>
      <trkpt lat="46.83717" lon="5.54695">
        <ele>221.6</ele>
        <time>2020-03-04T09:34:20Z</time>
      </trkpt>
      <trkpt lat="46.83715" lon="5.54704">
        <ele>221.6</ele>
        <time>2020-03-04T09:34:21Z</time>
      </trkpt>
      <trkpt lat="46.83714" lon="5.54712">
        <ele>221.4</ele>
        <time>2020-03-04T09:34:22Z</time>
      </trkpt>
      <trkpt lat="46.83712" lon="5.5472">
        <ele>221.4</ele>
        <time>2020-03-04T09:34:23Z</time>
      </trkpt>
      <trkpt lat="46.8371" lon="5.54729">
        <ele>221.4</ele>
        <time>2020-03-04T09:34:24Z</time>
      </trkpt>
      <trkpt lat="46.83708" lon="5.54737">
        <ele>221.4</ele>
        <time>2020-03-04T09:34:25Z</time>
      </trkpt>
      <trkpt lat="46.83707" lon="5.54745">
        <ele>221.4</ele>
        <time>2020-03-04T09:34:26Z</time>
      </trkpt>
      <trkpt lat="46.83705" lon="5.54753">
        <ele>221.4</ele>
        <time>2020-03-04T09:34:27Z</time>
      </trkpt>
      <trkpt lat="46.83703" lon="5.54761">
        <ele>221.4</ele>
        <time>2020-03-04T09:34:28Z</time>
      </trkpt>
      <trkpt lat="46.83701" lon="5.54769">
        <ele>221.4</ele>
        <time>2020-03-04T09:34:29Z</time>
      </trkpt>
      <trkpt lat="46.837" lon="5.54777">
        <ele>221.4</ele>
        <time>2020-03-04T09:34:30Z</time>
      </trkpt>
      <trkpt lat="46.83698" lon="5.54784">
        <ele>221.4</ele>
        <time>2020-03-04T09:34:31Z</time>
      </trkpt>
      <trkpt lat="46.83696" lon="5.54792">
        <ele>221.6</ele>
        <time>2020-03-04T09:34:32Z</time>
      </trkpt>
      <trkpt lat="46.83695" lon="5.54799">
        <ele>221.8</ele>
        <time>2020-03-04T09:34:33Z</time>
      </trkpt>
      <trkpt lat="46.83694" lon="5.54806">
        <ele>222</ele>
        <time>2020-03-04T09:34:34Z</time>
      </trkpt>
      <trkpt lat="46.83692" lon="5.54813">
        <ele>222</ele>
        <time>2020-03-04T09:34:35Z</time>
      </trkpt>
      <trkpt lat="46.8369" lon="5.54819">
        <ele>222</ele>
        <time>2020-03-04T09:34:36Z</time>
      </trkpt>
      <trkpt lat="46.83689" lon="5.54826">
        <ele>222.4</ele>
        <time>2020-03-04T09:34:37Z</time>
      </trkpt>
      <trkpt lat="46.83687" lon="5.54832">
        <ele>222.4</ele>
        <time>2020-03-04T09:34:38Z</time>
      </trkpt>
      <trkpt lat="46.83686" lon="5.54839">
        <ele>222.6</ele>
        <time>2020-03-04T09:34:39Z</time>
      </trkpt>
      <trkpt lat="46.83685" lon="5.54845">
        <ele>222.6</ele>
        <time>2020-03-04T09:34:40Z</time>
      </trkpt>
      <trkpt lat="46.83683" lon="5.54851">
        <ele>223</ele>
        <time>2020-03-04T09:34:41Z</time>
      </trkpt>
      <trkpt lat="46.83682" lon="5.54857">
        <ele>223</ele>
        <time>2020-03-04T09:34:42Z</time>
      </trkpt>
      <trkpt lat="46.83681" lon="5.54862">
        <ele>223.2</ele>
        <time>2020-03-04T09:34:43Z</time>
      </trkpt>
      <trkpt lat="46.8368" lon="5.54868">
        <ele>223.2</ele>
        <time>2020-03-04T09:34:44Z</time>
      </trkpt>
      <trkpt lat="46.83678" lon="5.54874">
        <ele>223.6</ele>
        <time>2020-03-04T09:34:45Z</time>
      </trkpt>
      <trkpt lat="46.83677" lon="5.5488">
        <ele>223.6</ele>
        <time>2020-03-04T09:34:46Z</time>
      </trkpt>
      <trkpt lat="46.83676" lon="5.54885">
        <ele>224</ele>
        <time>2020-03-04T09:34:47Z</time>
      </trkpt>
      <trkpt lat="46.83675" lon="5.54891">
        <ele>224</ele>
        <time>2020-03-04T09:34:48Z</time>
      </trkpt>
      <trkpt lat="46.83674" lon="5.54897">
        <ele>224.2</ele>
        <time>2020-03-04T09:34:49Z</time>
      </trkpt>
      <trkpt lat="46.83672" lon="5.54903">
        <ele>224.2</ele>
        <time>2020-03-04T09:34:50Z</time>
      </trkpt>
      <trkpt lat="46.83671" lon="5.54908">
        <ele>224.6</ele>
        <time>2020-03-04T09:34:51Z</time>
      </trkpt>
      <trkpt lat="46.83669" lon="5.54914">
        <ele>224.6</ele>
        <time>2020-03-04T09:34:52Z</time>
      </trkpt>
      <trkpt lat="46.83668" lon="5.54919">
        <ele>224.6</ele>
        <time>2020-03-04T09:34:53Z</time>
      </trkpt>
      <trkpt lat="46.83667" lon="5.54925">
        <ele>224.6</ele>
        <time>2020-03-04T09:34:54Z</time>
      </trkpt>
      <trkpt lat="46.83665" lon="5.54931">
        <ele>224.8</ele>
        <time>2020-03-04T09:34:55Z</time>
      </trkpt>
      <trkpt lat="46.83664" lon="5.54937">
        <ele>224.8</ele>
        <time>2020-03-04T09:34:56Z</time>
      </trkpt>
      <trkpt lat="46.83663" lon="5.54942">
        <ele>224.8</ele>
        <time>2020-03-04T09:34:57Z</time>
      </trkpt>
      <trkpt lat="46.83662" lon="5.54948">
        <ele>225.2</ele>
        <time>2020-03-04T09:34:58Z</time>
      </trkpt>
      <trkpt lat="46.8366" lon="5.54954">
        <ele>225.2</ele>
        <time>2020-03-04T09:34:59Z</time>
      </trkpt>
      <trkpt lat="46.83659" lon="5.54959">
        <ele>225.4</ele>
        <time>2020-03-04T09:35:00Z</time>
      </trkpt>
      <trkpt lat="46.83658" lon="5.54965">
        <ele>225.4</ele>
        <time>2020-03-04T09:35:01Z</time>
      </trkpt>
      <trkpt lat="46.83656" lon="5.5497">
        <ele>225.8</ele>
        <time>2020-03-04T09:35:02Z</time>
      </trkpt>
      <trkpt lat="46.83655" lon="5.54976">
        <ele>225.8</ele>
        <time>2020-03-04T09:35:03Z</time>
      </trkpt>
      <trkpt lat="46.83654" lon="5.54982">
        <ele>226</ele>
        <time>2020-03-04T09:35:04Z</time>
      </trkpt>
      <trkpt lat="46.83653" lon="5.54987">
        <ele>226</ele>
        <time>2020-03-04T09:35:05Z</time>
      </trkpt>
      <trkpt lat="46.83652" lon="5.54993">
        <ele>226.4</ele>
        <time>2020-03-04T09:35:06Z</time>
      </trkpt>
      <trkpt lat="46.83651" lon="5.54998">
        <ele>226.4</ele>
        <time>2020-03-04T09:35:07Z</time>
      </trkpt>
      <trkpt lat="46.8365" lon="5.55003">
        <ele>226.6</ele>
        <time>2020-03-04T09:35:08Z</time>
      </trkpt>
      <trkpt lat="46.83649" lon="5.55008">
        <ele>226.6</ele>
        <time>2020-03-04T09:35:09Z</time>
      </trkpt>
      <trkpt lat="46.83648" lon="5.55013">
        <ele>227</ele>
        <time>2020-03-04T09:35:10Z</time>
      </trkpt>
      <trkpt lat="46.83647" lon="5.55018">
        <ele>227.4</ele>
        <time>2020-03-04T09:35:11Z</time>
      </trkpt>
      <trkpt lat="46.83646" lon="5.55023">
        <ele>227.6</ele>
        <time>2020-03-04T09:35:12Z</time>
      </trkpt>
      <trkpt lat="46.83645" lon="5.55028">
        <ele>227.8</ele>
        <time>2020-03-04T09:35:13Z</time>
      </trkpt>
      <trkpt lat="46.83644" lon="5.55034">
        <ele>228</ele>
        <time>2020-03-04T09:35:14Z</time>
      </trkpt>
      <trkpt lat="46.83643" lon="5.55039">
        <ele>228</ele>
        <time>2020-03-04T09:35:15Z</time>
      </trkpt>
      <trkpt lat="46.83642" lon="5.55044">
        <ele>228.4</ele>
        <time>2020-03-04T09:35:16Z</time>
      </trkpt>
      <trkpt lat="46.83641" lon="5.55049">
        <ele>228.6</ele>
        <time>2020-03-04T09:35:17Z</time>
      </trkpt>
      <trkpt lat="46.8364" lon="5.55054">
        <ele>229</ele>
        <time>2020-03-04T09:35:18Z</time>
      </trkpt>
      <trkpt lat="46.83639" lon="5.55059">
        <ele>229</ele>
        <time>2020-03-04T09:35:19Z</time>
      </trkpt>
      <trkpt lat="46.83638" lon="5.55064">
        <ele>229.2</ele>
        <time>2020-03-04T09:35:20Z</time>
      </trkpt>
      <trkpt lat="46.83637" lon="5.55069">
        <ele>229.6</ele>
        <time>2020-03-04T09:35:21Z</time>
      </trkpt>
      <trkpt lat="46.83636" lon="5.55074">
        <ele>229.6</ele>
        <time>2020-03-04T09:35:22Z</time>
      </trkpt>
      <trkpt lat="46.83635" lon="5.55078">
        <ele>230</ele>
        <time>2020-03-04T09:35:23Z</time>
      </trkpt>
      <trkpt lat="46.83634" lon="5.55082">
        <ele>230.2</ele>
        <time>2020-03-04T09:35:24Z</time>
      </trkpt>
      <trkpt lat="46.83632" lon="5.55087">
        <ele>230.4</ele>
        <time>2020-03-04T09:35:25Z</time>
      </trkpt>
      <trkpt lat="46.83631" lon="5.55091">
        <ele>230.4</ele>
        <time>2020-03-04T09:35:26Z</time>
      </trkpt>
      <trkpt lat="46.8363" lon="5.55095">
        <ele>230.8</ele>
        <time>2020-03-04T09:35:27Z</time>
      </trkpt>
      <trkpt lat="46.83629" lon="5.55099">
        <ele>230.8</ele>
        <time>2020-03-04T09:35:28Z</time>
      </trkpt>
      <trkpt lat="46.83628" lon="5.55104">
        <ele>231</ele>
        <time>2020-03-04T09:35:29Z</time>
      </trkpt>
      <trkpt lat="46.83628" lon="5.55108">
        <ele>231</ele>
        <time>2020-03-04T09:35:30Z</time>
      </trkpt>
      <trkpt lat="46.83627" lon="5.55112">
        <ele>231.4</ele>
        <time>2020-03-04T09:35:31Z</time>
      </trkpt>
      <trkpt lat="46.83626" lon="5.55116">
        <ele>231.4</ele>
        <time>2020-03-04T09:35:32Z</time>
      </trkpt>
      <trkpt lat="46.83625" lon="5.5512">
        <ele>231.6</ele>
        <time>2020-03-04T09:35:33Z</time>
      </trkpt>
      <trkpt lat="46.83624" lon="5.55124">
        <ele>231.6</ele>
        <time>2020-03-04T09:35:34Z</time>
      </trkpt>
      <trkpt lat="46.83623" lon="5.55128">
        <ele>232</ele>
        <time>2020-03-04T09:35:35Z</time>
      </trkpt>
      <trkpt lat="46.83623" lon="5.55132">
        <ele>232</ele>
        <time>2020-03-04T09:35:36Z</time>
      </trkpt>
      <trkpt lat="46.83622" lon="5.55136">
        <ele>232.4</ele>
        <time>2020-03-04T09:35:37Z</time>
      </trkpt>
      <trkpt lat="46.83621" lon="5.55139">
        <ele>232.6</ele>
        <time>2020-03-04T09:35:38Z</time>
      </trkpt>
      <trkpt lat="46.8362" lon="5.55143">
        <ele>232.6</ele>
        <time>2020-03-04T09:35:39Z</time>
      </trkpt>
      <trkpt lat="46.83619" lon="5.55147">
        <ele>232.8</ele>
        <time>2020-03-04T09:35:40Z</time>
      </trkpt>
      <trkpt lat="46.83618" lon="5.55151">
        <ele>232.8</ele>
        <time>2020-03-04T09:35:41Z</time>
      </trkpt>
      <trkpt lat="46.83617" lon="5.55155">
        <ele>233.2</ele>
        <time>2020-03-04T09:35:42Z</time>
      </trkpt>
      <trkpt lat="46.83617" lon="5.55159">
        <ele>233.2</ele>
        <time>2020-03-04T09:35:43Z</time>
      </trkpt>
      <trkpt lat="46.83616" lon="5.55163">
        <ele>233.6</ele>
        <time>2020-03-04T09:35:44Z</time>
      </trkpt>
      <trkpt lat="46.83615" lon="5.55167">
        <ele>233.8</ele>
        <time>2020-03-04T09:35:45Z</time>
      </trkpt>
      <trkpt lat="46.83614" lon="5.55171">
        <ele>234</ele>
        <time>2020-03-04T09:35:46Z</time>
      </trkpt>
      <trkpt lat="46.83613" lon="5.55174">
        <ele>234</ele>
        <time>2020-03-04T09:35:47Z</time>
      </trkpt>
      <trkpt lat="46.83612" lon="5.55178">
        <ele>234.4</ele>
        <time>2020-03-04T09:35:48Z</time>
      </trkpt>
      <trkpt lat="46.83611" lon="5.55181">
        <ele>234.6</ele>
        <time>2020-03-04T09:35:49Z</time>
      </trkpt>
      <trkpt lat="46.83611" lon="5.55185">
        <ele>234.8</ele>
        <time>2020-03-04T09:35:50Z</time>
      </trkpt>
      <trkpt lat="46.8361" lon="5.55189">
        <ele>234.8</ele>
        <time>2020-03-04T09:35:51Z</time>
      </trkpt>
      <trkpt lat="46.8361" lon="5.55192">
        <ele>235</ele>
        <time>2020-03-04T09:35:52Z</time>
      </trkpt>
      <trkpt lat="46.83609" lon="5.55196">
        <ele>235</ele>
        <time>2020-03-04T09:35:53Z</time>
      </trkpt>
      <trkpt lat="46.83609" lon="5.552">
        <ele>235.2</ele>
        <time>2020-03-04T09:35:54Z</time>
      </trkpt>
      <trkpt lat="46.83608" lon="5.55203">
        <ele>235.2</ele>
        <time>2020-03-04T09:35:55Z</time>
      </trkpt>
      <trkpt lat="46.83607" lon="5.55207">
        <ele>235.4</ele>
        <time>2020-03-04T09:35:56Z</time>
      </trkpt>
      <trkpt lat="46.83606" lon="5.55211">
        <ele>235.4</ele>
        <time>2020-03-04T09:35:57Z</time>
      </trkpt>
      <trkpt lat="46.83605" lon="5.55214">
        <ele>235.4</ele>
        <time>2020-03-04T09:35:58Z</time>
      </trkpt>
      <trkpt lat="46.83604" lon="5.55218">
        <ele>235.8</ele>
        <time>2020-03-04T09:35:59Z</time>
      </trkpt>
      <trkpt lat="46.83604" lon="5.55222">
        <ele>235.8</ele>
        <time>2020-03-04T09:36:00Z</time>
      </trkpt>
      <trkpt lat="46.83603" lon="5.55226">
        <ele>235.8</ele>
        <time>2020-03-04T09:36:01Z</time>
      </trkpt>
      <trkpt lat="46.83602" lon="5.5523">
        <ele>236</ele>
        <time>2020-03-04T09:36:02Z</time>
      </trkpt>
      <trkpt lat="46.83601" lon="5.55233">
        <ele>236</ele>
        <time>2020-03-04T09:36:03Z</time>
      </trkpt>
      <trkpt lat="46.836" lon="5.55237">
        <ele>236</ele>
        <time>2020-03-04T09:36:04Z</time>
      </trkpt>
      <trkpt lat="46.83599" lon="5.55241">
        <ele>236</ele>
        <time>2020-03-04T09:36:05Z</time>
      </trkpt>
      <trkpt lat="46.83598" lon="5.55244">
        <ele>236.4</ele>
        <time>2020-03-04T09:36:06Z</time>
      </trkpt>
      <trkpt lat="46.83598" lon="5.55248">
        <ele>236.4</ele>
        <time>2020-03-04T09:36:07Z</time>
      </trkpt>
      <trkpt lat="46.83596" lon="5.55252">
        <ele>236.6</ele>
        <time>2020-03-04T09:36:08Z</time>
      </trkpt>
      <trkpt lat="46.83595" lon="5.55256">
        <ele>236.6</ele>
        <time>2020-03-04T09:36:09Z</time>
      </trkpt>
      <trkpt lat="46.83595" lon="5.5526">
        <ele>236.6</ele>
        <time>2020-03-04T09:36:10Z</time>
      </trkpt>
      <trkpt lat="46.83594" lon="5.55265">
        <ele>236.6</ele>
        <time>2020-03-04T09:36:11Z</time>
      </trkpt>
      <trkpt lat="46.83593" lon="5.55269">
        <ele>236.6</ele>
        <time>2020-03-04T09:36:12Z</time>
      </trkpt>
      <trkpt lat="46.83592" lon="5.55274">
        <ele>236.8</ele>
        <time>2020-03-04T09:36:13Z</time>
      </trkpt>
      <trkpt lat="46.83591" lon="5.55279">
        <ele>236.8</ele>
        <time>2020-03-04T09:36:14Z</time>
      </trkpt>
      <trkpt lat="46.8359" lon="5.55284">
        <ele>236.8</ele>
        <time>2020-03-04T09:36:15Z</time>
      </trkpt>
      <trkpt lat="46.83589" lon="5.55289">
        <ele>236.8</ele>
        <time>2020-03-04T09:36:16Z</time>
      </trkpt>
      <trkpt lat="46.83588" lon="5.55294">
        <ele>236.8</ele>
        <time>2020-03-04T09:36:17Z</time>
      </trkpt>
      <trkpt lat="46.83586" lon="5.55299">
        <ele>236.8</ele>
        <time>2020-03-04T09:36:18Z</time>
      </trkpt>
      <trkpt lat="46.83585" lon="5.55305">
        <ele>236.8</ele>
        <time>2020-03-04T09:36:19Z</time>
      </trkpt>
      <trkpt lat="46.83584" lon="5.55311">
        <ele>236.8</ele>
        <time>2020-03-04T09:36:20Z</time>
      </trkpt>
      <trkpt lat="46.83583" lon="5.55316">
        <ele>236.8</ele>
        <time>2020-03-04T09:36:21Z</time>
      </trkpt>
      <trkpt lat="46.83581" lon="5.55323">
        <ele>236.8</ele>
        <time>2020-03-04T09:36:22Z</time>
      </trkpt>
      <trkpt lat="46.8358" lon="5.55329">
        <ele>236.8</ele>
        <time>2020-03-04T09:36:23Z</time>
      </trkpt>
      <trkpt lat="46.83579" lon="5.55335">
        <ele>236.8</ele>
        <time>2020-03-04T09:36:24Z</time>
      </trkpt>
      <trkpt lat="46.83577" lon="5.55341">
        <ele>236.8</ele>
        <time>2020-03-04T09:36:25Z</time>
      </trkpt>
      <trkpt lat="46.83576" lon="5.55348">
        <ele>236.6</ele>
        <time>2020-03-04T09:36:26Z</time>
      </trkpt>
      <trkpt lat="46.83575" lon="5.55354">
        <ele>236.6</ele>
        <time>2020-03-04T09:36:27Z</time>
      </trkpt>
      <trkpt lat="46.83573" lon="5.55361">
        <ele>236.6</ele>
        <time>2020-03-04T09:36:28Z</time>
      </trkpt>
      <trkpt lat="46.83571" lon="5.55368">
        <ele>236.2</ele>
        <time>2020-03-04T09:36:29Z</time>
      </trkpt>
      <trkpt lat="46.83569" lon="5.55376">
        <ele>236</ele>
        <time>2020-03-04T09:36:30Z</time>
      </trkpt>
      <trkpt lat="46.83568" lon="5.55384">
        <ele>236</ele>
        <time>2020-03-04T09:36:31Z</time>
      </trkpt>
      <trkpt lat="46.83566" lon="5.55392">
        <ele>235.6</ele>
        <time>2020-03-04T09:36:32Z</time>
      </trkpt>
      <trkpt lat="46.83564" lon="5.554">
        <ele>235.6</ele>
        <time>2020-03-04T09:36:33Z</time>
      </trkpt>
      <trkpt lat="46.83562" lon="5.55409">
        <ele>235.2</ele>
        <time>2020-03-04T09:36:34Z</time>
      </trkpt>
      <trkpt lat="46.8356" lon="5.55419">
        <ele>235.2</ele>
        <time>2020-03-04T09:36:35Z</time>
      </trkpt>
      <trkpt lat="46.83558" lon="5.55428">
        <ele>234.8</ele>
        <time>2020-03-04T09:36:36Z</time>
      </trkpt>
      <trkpt lat="46.83556" lon="5.55437">
        <ele>234.8</ele>
        <time>2020-03-04T09:36:37Z</time>
      </trkpt>
      <trkpt lat="46.83554" lon="5.55446">
        <ele>234.6</ele>
        <time>2020-03-04T09:36:38Z</time>
      </trkpt>
      <trkpt lat="46.83552" lon="5.55455">
        <ele>234.6</ele>
        <time>2020-03-04T09:36:39Z</time>
      </trkpt>
      <trkpt lat="46.8355" lon="5.55464">
        <ele>234.2</ele>
        <time>2020-03-04T09:36:40Z</time>
      </trkpt>
      <trkpt lat="46.83549" lon="5.55472">
        <ele>234.2</ele>
        <time>2020-03-04T09:36:41Z</time>
      </trkpt>
      <trkpt lat="46.83547" lon="5.55481">
        <ele>234.2</ele>
        <time>2020-03-04T09:36:42Z</time>
      </trkpt>
      <trkpt lat="46.83545" lon="5.55489">
        <ele>234</ele>
        <time>2020-03-04T09:36:43Z</time>
      </trkpt>
      <trkpt lat="46.83543" lon="5.55497">
        <ele>234</ele>
        <time>2020-03-04T09:36:44Z</time>
      </trkpt>
      <trkpt lat="46.83541" lon="5.55505">
        <ele>234</ele>
        <time>2020-03-04T09:36:45Z</time>
      </trkpt>
      <trkpt lat="46.8354" lon="5.55513">
        <ele>234</ele>
        <time>2020-03-04T09:36:46Z</time>
      </trkpt>
      <trkpt lat="46.83538" lon="5.55521">
        <ele>234.2</ele>
        <time>2020-03-04T09:36:47Z</time>
      </trkpt>
      <trkpt lat="46.83537" lon="5.55529">
        <ele>234.2</ele>
        <time>2020-03-04T09:36:48Z</time>
      </trkpt>
      <trkpt lat="46.83535" lon="5.55536">
        <ele>234.2</ele>
        <time>2020-03-04T09:36:49Z</time>
      </trkpt>
      <trkpt lat="46.83534" lon="5.55543">
        <ele>234.2</ele>
        <time>2020-03-04T09:36:50Z</time>
      </trkpt>
      <trkpt lat="46.83532" lon="5.55551">
        <ele>234.4</ele>
        <time>2020-03-04T09:36:51Z</time>
      </trkpt>
      <trkpt lat="46.83531" lon="5.55558">
        <ele>234.4</ele>
        <time>2020-03-04T09:36:52Z</time>
      </trkpt>
      <trkpt lat="46.83529" lon="5.55565">
        <ele>234.4</ele>
        <time>2020-03-04T09:36:53Z</time>
      </trkpt>
      <trkpt lat="46.83528" lon="5.55572">
        <ele>234.4</ele>
        <time>2020-03-04T09:36:54Z</time>
      </trkpt>
      <trkpt lat="46.83526" lon="5.5558">
        <ele>234.4</ele>
        <time>2020-03-04T09:36:55Z</time>
      </trkpt>
      <trkpt lat="46.83524" lon="5.55587">
        <ele>234.8</ele>
        <time>2020-03-04T09:36:56Z</time>
      </trkpt>
      <trkpt lat="46.83522" lon="5.55594">
        <ele>234.8</ele>
        <time>2020-03-04T09:36:57Z</time>
      </trkpt>
      <trkpt lat="46.83521" lon="5.55602">
        <ele>234.8</ele>
        <time>2020-03-04T09:36:58Z</time>
      </trkpt>
      <trkpt lat="46.83519" lon="5.55609">
        <ele>234.8</ele>
        <time>2020-03-04T09:36:59Z</time>
      </trkpt>
      <trkpt lat="46.83518" lon="5.55617">
        <ele>235</ele>
        <time>2020-03-04T09:37:00Z</time>
      </trkpt>
      <trkpt lat="46.83516" lon="5.55624">
        <ele>235</ele>
        <time>2020-03-04T09:37:01Z</time>
      </trkpt>
      <trkpt lat="46.83514" lon="5.55631">
        <ele>235.2</ele>
        <time>2020-03-04T09:37:02Z</time>
      </trkpt>
      <trkpt lat="46.83513" lon="5.55638">
        <ele>235.2</ele>
        <time>2020-03-04T09:37:03Z</time>
      </trkpt>
      <trkpt lat="46.83511" lon="5.55646">
        <ele>235.2</ele>
        <time>2020-03-04T09:37:04Z</time>
      </trkpt>
      <trkpt lat="46.8351" lon="5.55653">
        <ele>235.2</ele>
        <time>2020-03-04T09:37:05Z</time>
      </trkpt>
      <trkpt lat="46.83509" lon="5.5566">
        <ele>235.2</ele>
        <time>2020-03-04T09:37:06Z</time>
      </trkpt>
      <trkpt lat="46.83507" lon="5.55667">
        <ele>235.4</ele>
        <time>2020-03-04T09:37:07Z</time>
      </trkpt>
      <trkpt lat="46.83506" lon="5.55675">
        <ele>235.4</ele>
        <time>2020-03-04T09:37:08Z</time>
      </trkpt>
      <trkpt lat="46.83504" lon="5.55682">
        <ele>235.4</ele>
        <time>2020-03-04T09:37:09Z</time>
      </trkpt>
      <trkpt lat="46.83502" lon="5.55688">
        <ele>235.4</ele>
        <time>2020-03-04T09:37:10Z</time>
      </trkpt>
      <trkpt lat="46.83501" lon="5.55695">
        <ele>235.4</ele>
        <time>2020-03-04T09:37:11Z</time>
      </trkpt>
      <trkpt lat="46.83499" lon="5.55701">
        <ele>235.4</ele>
        <time>2020-03-04T09:37:12Z</time>
      </trkpt>
      <trkpt lat="46.83498" lon="5.55708">
        <ele>235.4</ele>
        <time>2020-03-04T09:37:13Z</time>
      </trkpt>
      <trkpt lat="46.83496" lon="5.55714">
        <ele>235.4</ele>
        <time>2020-03-04T09:37:14Z</time>
      </trkpt>
      <trkpt lat="46.83495" lon="5.5572">
        <ele>235.4</ele>
        <time>2020-03-04T09:37:15Z</time>
      </trkpt>
      <trkpt lat="46.83493" lon="5.55726">
        <ele>235.4</ele>
        <time>2020-03-04T09:37:16Z</time>
      </trkpt>
      <trkpt lat="46.83492" lon="5.55731">
        <ele>235.4</ele>
        <time>2020-03-04T09:37:17Z</time>
      </trkpt>
      <trkpt lat="46.8349" lon="5.55737">
        <ele>235.4</ele>
        <time>2020-03-04T09:37:18Z</time>
      </trkpt>
      <trkpt lat="46.83489" lon="5.55743">
        <ele>235.4</ele>
        <time>2020-03-04T09:37:19Z</time>
      </trkpt>
      <trkpt lat="46.83488" lon="5.55748">
        <ele>235.2</ele>
        <time>2020-03-04T09:37:20Z</time>
      </trkpt>
      <trkpt lat="46.83485" lon="5.55753">
        <ele>235.2</ele>
        <time>2020-03-04T09:37:21Z</time>
      </trkpt>
      <trkpt lat="46.83483" lon="5.55757">
        <ele>235.2</ele>
        <time>2020-03-04T09:37:22Z</time>
      </trkpt>
      <trkpt lat="46.83479" lon="5.5576">
        <ele>235.2</ele>
        <time>2020-03-04T09:37:23Z</time>
      </trkpt>
      <trkpt lat="46.83475" lon="5.55764">
        <ele>235.2</ele>
        <time>2020-03-04T09:37:24Z</time>
      </trkpt>
      <trkpt lat="46.83471" lon="5.55767">
        <ele>235.2</ele>
        <time>2020-03-04T09:37:25Z</time>
      </trkpt>
      <trkpt lat="46.83466" lon="5.5577">
        <ele>235.2</ele>
        <time>2020-03-04T09:37:26Z</time>
      </trkpt>
      <trkpt lat="46.83462" lon="5.55773">
        <ele>235.2</ele>
        <time>2020-03-04T09:37:27Z</time>
      </trkpt>
      <trkpt lat="46.83456" lon="5.55777">
        <ele>235.2</ele>
        <time>2020-03-04T09:37:28Z</time>
      </trkpt>
      <trkpt lat="46.83451" lon="5.5578">
        <ele>235.2</ele>
        <time>2020-03-04T09:37:29Z</time>
      </trkpt>
      <trkpt lat="46.83446" lon="5.55784">
        <ele>235.2</ele>
        <time>2020-03-04T09:37:30Z</time>
      </trkpt>
      <trkpt lat="46.8344" lon="5.55788">
        <ele>235</ele>
        <time>2020-03-04T09:37:31Z</time>
      </trkpt>
      <trkpt lat="46.83435" lon="5.55792">
        <ele>235</ele>
        <time>2020-03-04T09:37:32Z</time>
      </trkpt>
      <trkpt lat="46.83429" lon="5.55796">
        <ele>235</ele>
        <time>2020-03-04T09:37:33Z</time>
      </trkpt>
      <trkpt lat="46.83423" lon="5.55801">
        <ele>234.6</ele>
        <time>2020-03-04T09:37:34Z</time>
      </trkpt>
      <trkpt lat="46.83417" lon="5.55805">
        <ele>234.6</ele>
        <time>2020-03-04T09:37:35Z</time>
      </trkpt>
      <trkpt lat="46.83411" lon="5.55809">
        <ele>234.6</ele>
        <time>2020-03-04T09:37:36Z</time>
      </trkpt>
      <trkpt lat="46.83406" lon="5.55812">
        <ele>234.6</ele>
        <time>2020-03-04T09:37:37Z</time>
      </trkpt>
      <trkpt lat="46.834" lon="5.55816">
        <ele>234.6</ele>
        <time>2020-03-04T09:37:38Z</time>
      </trkpt>
      <trkpt lat="46.83394" lon="5.55821">
        <ele>234.6</ele>
        <time>2020-03-04T09:37:39Z</time>
      </trkpt>
      <trkpt lat="46.83389" lon="5.55825">
        <ele>234.4</ele>
        <time>2020-03-04T09:37:40Z</time>
      </trkpt>
      <trkpt lat="46.83383" lon="5.55829">
        <ele>234.4</ele>
        <time>2020-03-04T09:37:41Z</time>
      </trkpt>
      <trkpt lat="46.83377" lon="5.55834">
        <ele>234.4</ele>
        <time>2020-03-04T09:37:42Z</time>
      </trkpt>
      <trkpt lat="46.83372" lon="5.55839">
        <ele>234.4</ele>
        <time>2020-03-04T09:37:43Z</time>
      </trkpt>
      <trkpt lat="46.83366" lon="5.55844">
        <ele>234.4</ele>
        <time>2020-03-04T09:37:44Z</time>
      </trkpt>
      <trkpt lat="46.83361" lon="5.55848">
        <ele>234.4</ele>
        <time>2020-03-04T09:37:45Z</time>
      </trkpt>
      <trkpt lat="46.83355" lon="5.55853">
        <ele>234.6</ele>
        <time>2020-03-04T09:37:46Z</time>
      </trkpt>
      <trkpt lat="46.8335" lon="5.55858">
        <ele>234.6</ele>
        <time>2020-03-04T09:37:47Z</time>
      </trkpt>
      <trkpt lat="46.83345" lon="5.55863">
        <ele>234.6</ele>
        <time>2020-03-04T09:37:48Z</time>
      </trkpt>
      <trkpt lat="46.83339" lon="5.55868">
        <ele>234.6</ele>
        <time>2020-03-04T09:37:49Z</time>
      </trkpt>
      <trkpt lat="46.83334" lon="5.55873">
        <ele>234.6</ele>
        <time>2020-03-04T09:37:50Z</time>
      </trkpt>
      <trkpt lat="46.83329" lon="5.55879">
        <ele>234.6</ele>
        <time>2020-03-04T09:37:51Z</time>
      </trkpt>
      <trkpt lat="46.83325" lon="5.55884">
        <ele>235</ele>
        <time>2020-03-04T09:37:52Z</time>
      </trkpt>
      <trkpt lat="46.8332" lon="5.55889">
        <ele>235</ele>
        <time>2020-03-04T09:37:53Z</time>
      </trkpt>
      <trkpt lat="46.83315" lon="5.55894">
        <ele>235</ele>
        <time>2020-03-04T09:37:54Z</time>
      </trkpt>
      <trkpt lat="46.8331" lon="5.55899">
        <ele>235</ele>
        <time>2020-03-04T09:37:55Z</time>
      </trkpt>
      <trkpt lat="46.83305" lon="5.55904">
        <ele>235.2</ele>
        <time>2020-03-04T09:37:56Z</time>
      </trkpt>
      <trkpt lat="46.833" lon="5.55909">
        <ele>235.2</ele>
        <time>2020-03-04T09:37:57Z</time>
      </trkpt>
      <trkpt lat="46.83295" lon="5.55914">
        <ele>235.2</ele>
        <time>2020-03-04T09:37:58Z</time>
      </trkpt>
      <trkpt lat="46.8329" lon="5.55918">
        <ele>235.2</ele>
        <time>2020-03-04T09:37:59Z</time>
      </trkpt>
      <trkpt lat="46.83286" lon="5.55923">
        <ele>235.2</ele>
        <time>2020-03-04T09:38:00Z</time>
      </trkpt>
      <trkpt lat="46.83281" lon="5.55927">
        <ele>235.2</ele>
        <time>2020-03-04T09:38:01Z</time>
      </trkpt>
      <trkpt lat="46.83276" lon="5.55932">
        <ele>235.2</ele>
        <time>2020-03-04T09:38:02Z</time>
      </trkpt>
      <trkpt lat="46.83272" lon="5.55936">
        <ele>235.2</ele>
        <time>2020-03-04T09:38:03Z</time>
      </trkpt>
      <trkpt lat="46.83268" lon="5.55941">
        <ele>235.2</ele>
        <time>2020-03-04T09:38:04Z</time>
      </trkpt>
      <trkpt lat="46.83263" lon="5.55945">
        <ele>235.2</ele>
        <time>2020-03-04T09:38:05Z</time>
      </trkpt>
      <trkpt lat="46.83259" lon="5.5595">
        <ele>235.2</ele>
        <time>2020-03-04T09:38:06Z</time>
      </trkpt>
      <trkpt lat="46.83255" lon="5.55954">
        <ele>235.2</ele>
        <time>2020-03-04T09:38:07Z</time>
      </trkpt>
      <trkpt lat="46.8325" lon="5.55958">
        <ele>234.8</ele>
        <time>2020-03-04T09:38:08Z</time>
      </trkpt>
      <trkpt lat="46.83246" lon="5.55963">
        <ele>234.8</ele>
        <time>2020-03-04T09:38:09Z</time>
      </trkpt>
      <trkpt lat="46.83241" lon="5.55968">
        <ele>234.8</ele>
        <time>2020-03-04T09:38:10Z</time>
      </trkpt>
      <trkpt lat="46.83237" lon="5.55972">
        <ele>234.8</ele>
        <time>2020-03-04T09:38:11Z</time>
      </trkpt>
      <trkpt lat="46.83232" lon="5.55977">
        <ele>234.8</ele>
        <time>2020-03-04T09:38:12Z</time>
      </trkpt>
      <trkpt lat="46.83228" lon="5.55981">
        <ele>234.6</ele>
        <time>2020-03-04T09:38:13Z</time>
      </trkpt>
      <trkpt lat="46.83223" lon="5.55986">
        <ele>234.6</ele>
        <time>2020-03-04T09:38:14Z</time>
      </trkpt>
      <trkpt lat="46.83218" lon="5.55991">
        <ele>234.4</ele>
        <time>2020-03-04T09:38:15Z</time>
      </trkpt>
      <trkpt lat="46.83213" lon="5.55996">
        <ele>234.4</ele>
        <time>2020-03-04T09:38:16Z</time>
      </trkpt>
      <trkpt lat="46.83208" lon="5.56001">
        <ele>234</ele>
        <time>2020-03-04T09:38:17Z</time>
      </trkpt>
      <trkpt lat="46.83203" lon="5.56006">
        <ele>234</ele>
        <time>2020-03-04T09:38:18Z</time>
      </trkpt>
      <trkpt lat="46.83198" lon="5.56012">
        <ele>233.6</ele>
        <time>2020-03-04T09:38:19Z</time>
      </trkpt>
      <trkpt lat="46.83192" lon="5.56017">
        <ele>233.6</ele>
        <time>2020-03-04T09:38:20Z</time>
      </trkpt>
      <trkpt lat="46.83187" lon="5.56023">
        <ele>233.4</ele>
        <time>2020-03-04T09:38:21Z</time>
      </trkpt>
      <trkpt lat="46.83182" lon="5.56029">
        <ele>233.4</ele>
        <time>2020-03-04T09:38:22Z</time>
      </trkpt>
      <trkpt lat="46.83176" lon="5.56035">
        <ele>233</ele>
        <time>2020-03-04T09:38:23Z</time>
      </trkpt>
      <trkpt lat="46.83171" lon="5.56041">
        <ele>233</ele>
        <time>2020-03-04T09:38:24Z</time>
      </trkpt>
      <trkpt lat="46.83165" lon="5.56046">
        <ele>232.8</ele>
        <time>2020-03-04T09:38:25Z</time>
      </trkpt>
      <trkpt lat="46.8316" lon="5.56052">
        <ele>232.8</ele>
        <time>2020-03-04T09:38:26Z</time>
      </trkpt>
      <trkpt lat="46.83154" lon="5.56058">
        <ele>232.4</ele>
        <time>2020-03-04T09:38:27Z</time>
      </trkpt>
      <trkpt lat="46.83149" lon="5.56063">
        <ele>232.4</ele>
        <time>2020-03-04T09:38:28Z</time>
      </trkpt>
      <trkpt lat="46.83144" lon="5.56069">
        <ele>232.4</ele>
        <time>2020-03-04T09:38:29Z</time>
      </trkpt>
      <trkpt lat="46.83139" lon="5.56075">
        <ele>232.2</ele>
        <time>2020-03-04T09:38:30Z</time>
      </trkpt>
      <trkpt lat="46.83133" lon="5.56081">
        <ele>232.2</ele>
        <time>2020-03-04T09:38:31Z</time>
      </trkpt>
      <trkpt lat="46.83127" lon="5.56087">
        <ele>232.2</ele>
        <time>2020-03-04T09:38:32Z</time>
      </trkpt>
      <trkpt lat="46.83122" lon="5.56093">
        <ele>232</ele>
        <time>2020-03-04T09:38:33Z</time>
      </trkpt>
      <trkpt lat="46.83116" lon="5.56099">
        <ele>232</ele>
        <time>2020-03-04T09:38:34Z</time>
      </trkpt>
      <trkpt lat="46.8311" lon="5.56105">
        <ele>232</ele>
        <time>2020-03-04T09:38:35Z</time>
      </trkpt>
      <trkpt lat="46.83104" lon="5.56111">
        <ele>231.6</ele>
        <time>2020-03-04T09:38:36Z</time>
      </trkpt>
      <trkpt lat="46.83099" lon="5.56117">
        <ele>231.6</ele>
        <time>2020-03-04T09:38:37Z</time>
      </trkpt>
      <trkpt lat="46.83093" lon="5.56123">
        <ele>231.2</ele>
        <time>2020-03-04T09:38:38Z</time>
      </trkpt>
      <trkpt lat="46.83087" lon="5.56129">
        <ele>231</ele>
        <time>2020-03-04T09:38:39Z</time>
      </trkpt>
      <trkpt lat="46.8308" lon="5.56135">
        <ele>230.6</ele>
        <time>2020-03-04T09:38:40Z</time>
      </trkpt>
      <trkpt lat="46.83074" lon="5.56142">
        <ele>230.4</ele>
        <time>2020-03-04T09:38:41Z</time>
      </trkpt>
      <trkpt lat="46.83068" lon="5.56148">
        <ele>230</ele>
        <time>2020-03-04T09:38:42Z</time>
      </trkpt>
      <trkpt lat="46.83061" lon="5.56154">
        <ele>229.8</ele>
        <time>2020-03-04T09:38:43Z</time>
      </trkpt>
      <trkpt lat="46.83055" lon="5.56161">
        <ele>229.4</ele>
        <time>2020-03-04T09:38:44Z</time>
      </trkpt>
      <trkpt lat="46.83048" lon="5.56168">
        <ele>229</ele>
        <time>2020-03-04T09:38:45Z</time>
      </trkpt>
      <trkpt lat="46.83042" lon="5.56176">
        <ele>228.6</ele>
        <time>2020-03-04T09:38:46Z</time>
      </trkpt>
      <trkpt lat="46.83035" lon="5.56183">
        <ele>228.2</ele>
        <time>2020-03-04T09:38:47Z</time>
      </trkpt>
      <trkpt lat="46.83028" lon="5.5619">
        <ele>227.8</ele>
        <time>2020-03-04T09:38:48Z</time>
      </trkpt>
      <trkpt lat="46.83021" lon="5.56198">
        <ele>227.2</ele>
        <time>2020-03-04T09:38:49Z</time>
      </trkpt>
      <trkpt lat="46.83014" lon="5.56205">
        <ele>226.8</ele>
        <time>2020-03-04T09:38:50Z</time>
      </trkpt>
      <trkpt lat="46.83007" lon="5.56212">
        <ele>226.6</ele>
        <time>2020-03-04T09:38:51Z</time>
      </trkpt>
      <trkpt lat="46.83001" lon="5.56217">
        <ele>226.4</ele>
        <time>2020-03-04T09:38:52Z</time>
      </trkpt>
      <trkpt lat="46.82994" lon="5.56223">
        <ele>226</ele>
        <time>2020-03-04T09:38:53Z</time>
      </trkpt>
      <trkpt lat="46.82987" lon="5.56228">
        <ele>226</ele>
        <time>2020-03-04T09:38:54Z</time>
      </trkpt>
      <trkpt lat="46.8298" lon="5.56233">
        <ele>225.8</ele>
        <time>2020-03-04T09:38:55Z</time>
      </trkpt>
      <trkpt lat="46.82974" lon="5.56238">
        <ele>225.8</ele>
        <time>2020-03-04T09:38:56Z</time>
      </trkpt>
      <trkpt lat="46.82967" lon="5.56243">
        <ele>225.8</ele>
        <time>2020-03-04T09:38:57Z</time>
      </trkpt>
      <trkpt lat="46.82961" lon="5.56248">
        <ele>225.6</ele>
        <time>2020-03-04T09:38:58Z</time>
      </trkpt>
      <trkpt lat="46.82955" lon="5.56253">
        <ele>225.6</ele>
        <time>2020-03-04T09:38:59Z</time>
      </trkpt>
      <trkpt lat="46.82949" lon="5.56258">
        <ele>225.6</ele>
        <time>2020-03-04T09:39:00Z</time>
      </trkpt>
      <trkpt lat="46.82943" lon="5.56264">
        <ele>225.6</ele>
        <time>2020-03-04T09:39:01Z</time>
      </trkpt>
      <trkpt lat="46.82936" lon="5.56269">
        <ele>225.6</ele>
        <time>2020-03-04T09:39:02Z</time>
      </trkpt>
      <trkpt lat="46.8293" lon="5.56275">
        <ele>225.6</ele>
        <time>2020-03-04T09:39:03Z</time>
      </trkpt>
      <trkpt lat="46.82924" lon="5.56281">
        <ele>225.6</ele>
        <time>2020-03-04T09:39:04Z</time>
      </trkpt>
      <trkpt lat="46.82918" lon="5.56288">
        <ele>225.2</ele>
        <time>2020-03-04T09:39:05Z</time>
      </trkpt>
      <trkpt lat="46.82913" lon="5.56294">
        <ele>225.2</ele>
        <time>2020-03-04T09:39:06Z</time>
      </trkpt>
      <trkpt lat="46.82908" lon="5.56302">
        <ele>225.2</ele>
        <time>2020-03-04T09:39:07Z</time>
      </trkpt>
      <trkpt lat="46.82904" lon="5.5631">
        <ele>225.2</ele>
        <time>2020-03-04T09:39:08Z</time>
      </trkpt>
      <trkpt lat="46.82899" lon="5.56318">
        <ele>225.2</ele>
        <time>2020-03-04T09:39:09Z</time>
      </trkpt>
      <trkpt lat="46.82895" lon="5.56325">
        <ele>225.2</ele>
        <time>2020-03-04T09:39:10Z</time>
      </trkpt>
      <trkpt lat="46.82891" lon="5.56332">
        <ele>225.2</ele>
        <time>2020-03-04T09:39:11Z</time>
      </trkpt>
      <trkpt lat="46.82888" lon="5.56339">
        <ele>225.4</ele>
        <time>2020-03-04T09:39:12Z</time>
      </trkpt>
      <trkpt lat="46.82884" lon="5.56345">
        <ele>225.4</ele>
        <time>2020-03-04T09:39:13Z</time>
      </trkpt>
      <trkpt lat="46.8288" lon="5.56351">
        <ele>225.8</ele>
        <time>2020-03-04T09:39:14Z</time>
      </trkpt>
      <trkpt lat="46.82877" lon="5.56356">
        <ele>225.8</ele>
        <time>2020-03-04T09:39:15Z</time>
      </trkpt>
      <trkpt lat="46.82874" lon="5.5636">
        <ele>226.2</ele>
        <time>2020-03-04T09:39:16Z</time>
      </trkpt>
      <trkpt lat="46.8287" lon="5.56365">
        <ele>226.2</ele>
        <time>2020-03-04T09:39:17Z</time>
      </trkpt>
      <trkpt lat="46.82866" lon="5.56369">
        <ele>226.2</ele>
        <time>2020-03-04T09:39:18Z</time>
      </trkpt>
      <trkpt lat="46.82862" lon="5.56373">
        <ele>226.4</ele>
        <time>2020-03-04T09:39:19Z</time>
      </trkpt>
      <trkpt lat="46.82858" lon="5.56377">
        <ele>226.4</ele>
        <time>2020-03-04T09:39:20Z</time>
      </trkpt>
      <trkpt lat="46.82854" lon="5.56381">
        <ele>226.4</ele>
        <time>2020-03-04T09:39:21Z</time>
      </trkpt>
      <trkpt lat="46.8285" lon="5.56385">
        <ele>226.4</ele>
        <time>2020-03-04T09:39:22Z</time>
      </trkpt>
      <trkpt lat="46.82847" lon="5.56388">
        <ele>226.8</ele>
        <time>2020-03-04T09:39:23Z</time>
      </trkpt>
      <trkpt lat="46.82843" lon="5.56391">
        <ele>226.8</ele>
        <time>2020-03-04T09:39:24Z</time>
      </trkpt>
      <trkpt lat="46.82839" lon="5.56393">
        <ele>226.8</ele>
        <time>2020-03-04T09:39:25Z</time>
      </trkpt>
      <trkpt lat="46.82834" lon="5.56394">
        <ele>226.4</ele>
        <time>2020-03-04T09:39:26Z</time>
      </trkpt>
      <trkpt lat="46.82828" lon="5.56394">
        <ele>226.2</ele>
        <time>2020-03-04T09:39:27Z</time>
      </trkpt>
      <trkpt lat="46.82822" lon="5.56394">
        <ele>226</ele>
        <time>2020-03-04T09:39:28Z</time>
      </trkpt>
      <trkpt lat="46.82816" lon="5.56395">
        <ele>225.6</ele>
        <time>2020-03-04T09:39:29Z</time>
      </trkpt>
      <trkpt lat="46.8281" lon="5.56395">
        <ele>225.4</ele>
        <time>2020-03-04T09:39:30Z</time>
      </trkpt>
      <trkpt lat="46.82803" lon="5.56395">
        <ele>225</ele>
        <time>2020-03-04T09:39:31Z</time>
      </trkpt>
      <trkpt lat="46.82797" lon="5.56395">
        <ele>224.8</ele>
        <time>2020-03-04T09:39:32Z</time>
      </trkpt>
      <trkpt lat="46.8279" lon="5.56395">
        <ele>224.6</ele>
        <time>2020-03-04T09:39:33Z</time>
      </trkpt>
      <trkpt lat="46.82784" lon="5.56395">
        <ele>224.6</ele>
        <time>2020-03-04T09:39:34Z</time>
      </trkpt>
      <trkpt lat="46.82778" lon="5.56394">
        <ele>224.4</ele>
        <time>2020-03-04T09:39:35Z</time>
      </trkpt>
      <trkpt lat="46.82771" lon="5.56394">
        <ele>224.4</ele>
        <time>2020-03-04T09:39:36Z</time>
      </trkpt>
      <trkpt lat="46.82765" lon="5.56394">
        <ele>224</ele>
        <time>2020-03-04T09:39:37Z</time>
      </trkpt>
      <trkpt lat="46.82758" lon="5.56394">
        <ele>224</ele>
        <time>2020-03-04T09:39:38Z</time>
      </trkpt>
      <trkpt lat="46.82752" lon="5.56394">
        <ele>224</ele>
        <time>2020-03-04T09:39:39Z</time>
      </trkpt>
      <trkpt lat="46.82746" lon="5.56393">
        <ele>223.8</ele>
        <time>2020-03-04T09:39:40Z</time>
      </trkpt>
      <trkpt lat="46.82741" lon="5.56394">
        <ele>223.8</ele>
        <time>2020-03-04T09:39:41Z</time>
      </trkpt>
      <trkpt lat="46.82736" lon="5.56394">
        <ele>223.8</ele>
        <time>2020-03-04T09:39:42Z</time>
      </trkpt>
      <trkpt lat="46.82732" lon="5.56394">
        <ele>223.6</ele>
        <time>2020-03-04T09:39:43Z</time>
      </trkpt>
      <trkpt lat="46.82728" lon="5.56395">
        <ele>223.6</ele>
        <time>2020-03-04T09:39:44Z</time>
      </trkpt>
      <trkpt lat="46.82725" lon="5.56396">
        <ele>223.2</ele>
        <time>2020-03-04T09:39:45Z</time>
      </trkpt>
      <trkpt lat="46.82722" lon="5.56397">
        <ele>223</ele>
        <time>2020-03-04T09:39:46Z</time>
      </trkpt>
      <trkpt lat="46.82719" lon="5.56399">
        <ele>222.8</ele>
        <time>2020-03-04T09:39:47Z</time>
      </trkpt>
      <trkpt lat="46.82717" lon="5.564">
        <ele>222.8</ele>
        <time>2020-03-04T09:39:48Z</time>
      </trkpt>
      <trkpt lat="46.82715" lon="5.56401">
        <ele>222.6</ele>
        <time>2020-03-04T09:39:49Z</time>
      </trkpt>
      <trkpt lat="46.82714" lon="5.56403">
        <ele>222.6</ele>
        <time>2020-03-04T09:39:50Z</time>
      </trkpt>
      <trkpt lat="46.82714" lon="5.56407">
        <ele>222.6</ele>
        <time>2020-03-04T09:39:51Z</time>
      </trkpt>
      <trkpt lat="46.82715" lon="5.5641">
        <ele>222.6</ele>
        <time>2020-03-04T09:39:52Z</time>
      </trkpt>
      <trkpt lat="46.82715" lon="5.56414">
        <ele>222.6</ele>
        <time>2020-03-04T09:39:53Z</time>
      </trkpt>
      <trkpt lat="46.82717" lon="5.56419">
        <ele>222.6</ele>
        <time>2020-03-04T09:39:54Z</time>
      </trkpt>
      <trkpt lat="46.82718" lon="5.56423">
        <ele>222.6</ele>
        <time>2020-03-04T09:39:55Z</time>
      </trkpt>
      <trkpt lat="46.8272" lon="5.56428">
        <ele>222.6</ele>
        <time>2020-03-04T09:39:56Z</time>
      </trkpt>
      <trkpt lat="46.82721" lon="5.56432">
        <ele>222.6</ele>
        <time>2020-03-04T09:39:57Z</time>
      </trkpt>
      <trkpt lat="46.82723" lon="5.56437">
        <ele>222.6</ele>
        <time>2020-03-04T09:39:58Z</time>
      </trkpt>
      <trkpt lat="46.82724" lon="5.56442">
        <ele>222.6</ele>
        <time>2020-03-04T09:39:59Z</time>
      </trkpt>
      <trkpt lat="46.82726" lon="5.56447">
        <ele>222.6</ele>
        <time>2020-03-04T09:40:00Z</time>
      </trkpt>
      <trkpt lat="46.82727" lon="5.56453">
        <ele>222.6</ele>
        <time>2020-03-04T09:40:01Z</time>
      </trkpt>
      <trkpt lat="46.82729" lon="5.56458">
        <ele>222.8</ele>
        <time>2020-03-04T09:40:02Z</time>
      </trkpt>
      <trkpt lat="46.82731" lon="5.56463">
        <ele>222.8</ele>
        <time>2020-03-04T09:40:03Z</time>
      </trkpt>
      <trkpt lat="46.82732" lon="5.56468">
        <ele>222.8</ele>
        <time>2020-03-04T09:40:04Z</time>
      </trkpt>
      <trkpt lat="46.82734" lon="5.56472">
        <ele>222.8</ele>
        <time>2020-03-04T09:40:05Z</time>
      </trkpt>
      <trkpt lat="46.82736" lon="5.56477">
        <ele>223.2</ele>
        <time>2020-03-04T09:40:06Z</time>
      </trkpt>
      <trkpt lat="46.82737" lon="5.56482">
        <ele>223.2</ele>
        <time>2020-03-04T09:40:07Z</time>
      </trkpt>
      <trkpt lat="46.82739" lon="5.56487">
        <ele>223.6</ele>
        <time>2020-03-04T09:40:08Z</time>
      </trkpt>
      <trkpt lat="46.8274" lon="5.56492">
        <ele>224</ele>
        <time>2020-03-04T09:40:09Z</time>
      </trkpt>
      <trkpt lat="46.82742" lon="5.56498">
        <ele>224.2</ele>
        <time>2020-03-04T09:40:10Z</time>
      </trkpt>
      <trkpt lat="46.82743" lon="5.56503">
        <ele>224.2</ele>
        <time>2020-03-04T09:40:11Z</time>
      </trkpt>
      <trkpt lat="46.82745" lon="5.56509">
        <ele>224.2</ele>
        <time>2020-03-04T09:40:12Z</time>
      </trkpt>
      <trkpt lat="46.82746" lon="5.56514">
        <ele>224.2</ele>
        <time>2020-03-04T09:40:13Z</time>
      </trkpt>
      <trkpt lat="46.82748" lon="5.56519">
        <ele>224</ele>
        <time>2020-03-04T09:40:14Z</time>
      </trkpt>
      <trkpt lat="46.8275" lon="5.56525">
        <ele>224</ele>
        <time>2020-03-04T09:40:15Z</time>
      </trkpt>
      <trkpt lat="46.82751" lon="5.56531">
        <ele>224</ele>
        <time>2020-03-04T09:40:16Z</time>
      </trkpt>
      <trkpt lat="46.82753" lon="5.56537">
        <ele>223.8</ele>
        <time>2020-03-04T09:40:17Z</time>
      </trkpt>
      <trkpt lat="46.82755" lon="5.56542">
        <ele>223.6</ele>
        <time>2020-03-04T09:40:18Z</time>
      </trkpt>
      <trkpt lat="46.82756" lon="5.56548">
        <ele>223.6</ele>
        <time>2020-03-04T09:40:19Z</time>
      </trkpt>
      <trkpt lat="46.82758" lon="5.56554">
        <ele>223.6</ele>
        <time>2020-03-04T09:40:20Z</time>
      </trkpt>
      <trkpt lat="46.82759" lon="5.5656">
        <ele>223.6</ele>
        <time>2020-03-04T09:40:21Z</time>
      </trkpt>
      <trkpt lat="46.82761" lon="5.56566">
        <ele>223.6</ele>
        <time>2020-03-04T09:40:22Z</time>
      </trkpt>
      <trkpt lat="46.82763" lon="5.56572">
        <ele>223.6</ele>
        <time>2020-03-04T09:40:23Z</time>
      </trkpt>
      <trkpt lat="46.82765" lon="5.56579">
        <ele>223.6</ele>
        <time>2020-03-04T09:40:24Z</time>
      </trkpt>
      <trkpt lat="46.82767" lon="5.56586">
        <ele>223.6</ele>
        <time>2020-03-04T09:40:25Z</time>
      </trkpt>
      <trkpt lat="46.82769" lon="5.56593">
        <ele>223.6</ele>
        <time>2020-03-04T09:40:26Z</time>
      </trkpt>
      <trkpt lat="46.82771" lon="5.56601">
        <ele>223.6</ele>
        <time>2020-03-04T09:40:27Z</time>
      </trkpt>
      <trkpt lat="46.82774" lon="5.56609">
        <ele>223.6</ele>
        <time>2020-03-04T09:40:28Z</time>
      </trkpt>
      <trkpt lat="46.82776" lon="5.56616">
        <ele>223.6</ele>
        <time>2020-03-04T09:40:29Z</time>
      </trkpt>
      <trkpt lat="46.82778" lon="5.56624">
        <ele>223.6</ele>
        <time>2020-03-04T09:40:30Z</time>
      </trkpt>
      <trkpt lat="46.8278" lon="5.56632">
        <ele>223.6</ele>
        <time>2020-03-04T09:40:31Z</time>
      </trkpt>
      <trkpt lat="46.82782" lon="5.5664">
        <ele>223.6</ele>
        <time>2020-03-04T09:40:32Z</time>
      </trkpt>
      <trkpt lat="46.82784" lon="5.56648">
        <ele>223.6</ele>
        <time>2020-03-04T09:40:33Z</time>
      </trkpt>
      <trkpt lat="46.82787" lon="5.56656">
        <ele>223.6</ele>
        <time>2020-03-04T09:40:34Z</time>
      </trkpt>
      <trkpt lat="46.82789" lon="5.56665">
        <ele>223.6</ele>
        <time>2020-03-04T09:40:35Z</time>
      </trkpt>
      <trkpt lat="46.82792" lon="5.56673">
        <ele>223.6</ele>
        <time>2020-03-04T09:40:36Z</time>
      </trkpt>
      <trkpt lat="46.82795" lon="5.56682">
        <ele>223.6</ele>
        <time>2020-03-04T09:40:37Z</time>
      </trkpt>
      <trkpt lat="46.82798" lon="5.56691">
        <ele>223.6</ele>
        <time>2020-03-04T09:40:38Z</time>
      </trkpt>
      <trkpt lat="46.828" lon="5.56699">
        <ele>223.8</ele>
        <time>2020-03-04T09:40:39Z</time>
      </trkpt>
      <trkpt lat="46.82803" lon="5.56708">
        <ele>223.8</ele>
        <time>2020-03-04T09:40:40Z</time>
      </trkpt>
      <trkpt lat="46.82806" lon="5.56716">
        <ele>224.2</ele>
        <time>2020-03-04T09:40:41Z</time>
      </trkpt>
      <trkpt lat="46.82808" lon="5.56725">
        <ele>224.6</ele>
        <time>2020-03-04T09:40:42Z</time>
      </trkpt>
      <trkpt lat="46.82811" lon="5.56733">
        <ele>224.6</ele>
        <time>2020-03-04T09:40:43Z</time>
      </trkpt>
      <trkpt lat="46.82814" lon="5.56741">
        <ele>224.6</ele>
        <time>2020-03-04T09:40:44Z</time>
      </trkpt>
      <trkpt lat="46.82817" lon="5.5675">
        <ele>224.6</ele>
        <time>2020-03-04T09:40:45Z</time>
      </trkpt>
      <trkpt lat="46.82819" lon="5.56758">
        <ele>224.6</ele>
        <time>2020-03-04T09:40:46Z</time>
      </trkpt>
      <trkpt lat="46.82822" lon="5.56766">
        <ele>224.6</ele>
        <time>2020-03-04T09:40:47Z</time>
      </trkpt>
      <trkpt lat="46.82824" lon="5.56775">
        <ele>224.6</ele>
        <time>2020-03-04T09:40:48Z</time>
      </trkpt>
      <trkpt lat="46.82827" lon="5.56783">
        <ele>224.8</ele>
        <time>2020-03-04T09:40:49Z</time>
      </trkpt>
      <trkpt lat="46.82829" lon="5.56791">
        <ele>224.8</ele>
        <time>2020-03-04T09:40:50Z</time>
      </trkpt>
      <trkpt lat="46.82832" lon="5.56799">
        <ele>224.8</ele>
        <time>2020-03-04T09:40:51Z</time>
      </trkpt>
      <trkpt lat="46.82834" lon="5.56808">
        <ele>224.8</ele>
        <time>2020-03-04T09:40:52Z</time>
      </trkpt>
      <trkpt lat="46.82837" lon="5.56816">
        <ele>225.2</ele>
        <time>2020-03-04T09:40:53Z</time>
      </trkpt>
      <trkpt lat="46.82839" lon="5.56824">
        <ele>225.2</ele>
        <time>2020-03-04T09:40:54Z</time>
      </trkpt>
      <trkpt lat="46.82842" lon="5.56832">
        <ele>225.2</ele>
        <time>2020-03-04T09:40:55Z</time>
      </trkpt>
      <trkpt lat="46.82846" lon="5.5684">
        <ele>225.2</ele>
        <time>2020-03-04T09:40:56Z</time>
      </trkpt>
      <trkpt lat="46.82848" lon="5.56849">
        <ele>225.2</ele>
        <time>2020-03-04T09:40:57Z</time>
      </trkpt>
      <trkpt lat="46.82851" lon="5.56857">
        <ele>225.2</ele>
        <time>2020-03-04T09:40:58Z</time>
      </trkpt>
      <trkpt lat="46.82854" lon="5.56866">
        <ele>225.2</ele>
        <time>2020-03-04T09:40:59Z</time>
      </trkpt>
      <trkpt lat="46.82856" lon="5.56876">
        <ele>225.4</ele>
        <time>2020-03-04T09:41:00Z</time>
      </trkpt>
      <trkpt lat="46.82858" lon="5.56885">
        <ele>225.4</ele>
        <time>2020-03-04T09:41:01Z</time>
      </trkpt>
      <trkpt lat="46.8286" lon="5.56895">
        <ele>225.4</ele>
        <time>2020-03-04T09:41:02Z</time>
      </trkpt>
      <trkpt lat="46.82863" lon="5.56904">
        <ele>225.4</ele>
        <time>2020-03-04T09:41:03Z</time>
      </trkpt>
      <trkpt lat="46.82865" lon="5.56913">
        <ele>225.2</ele>
        <time>2020-03-04T09:41:04Z</time>
      </trkpt>
      <trkpt lat="46.82867" lon="5.56923">
        <ele>225.2</ele>
        <time>2020-03-04T09:41:05Z</time>
      </trkpt>
      <trkpt lat="46.82869" lon="5.56932">
        <ele>225.2</ele>
        <time>2020-03-04T09:41:06Z</time>
      </trkpt>
      <trkpt lat="46.82871" lon="5.56941">
        <ele>225.2</ele>
        <time>2020-03-04T09:41:07Z</time>
      </trkpt>
      <trkpt lat="46.82872" lon="5.56951">
        <ele>225.2</ele>
        <time>2020-03-04T09:41:08Z</time>
      </trkpt>
      <trkpt lat="46.82873" lon="5.5696">
        <ele>225.4</ele>
        <time>2020-03-04T09:41:09Z</time>
      </trkpt>
      <trkpt lat="46.82874" lon="5.56969">
        <ele>225.4</ele>
        <time>2020-03-04T09:41:10Z</time>
      </trkpt>
      <trkpt lat="46.82875" lon="5.56978">
        <ele>225.6</ele>
        <time>2020-03-04T09:41:11Z</time>
      </trkpt>
      <trkpt lat="46.82876" lon="5.56987">
        <ele>225.6</ele>
        <time>2020-03-04T09:41:12Z</time>
      </trkpt>
      <trkpt lat="46.82877" lon="5.56996">
        <ele>225.6</ele>
        <time>2020-03-04T09:41:13Z</time>
      </trkpt>
      <trkpt lat="46.82877" lon="5.57004">
        <ele>226</ele>
        <time>2020-03-04T09:41:14Z</time>
      </trkpt>
      <trkpt lat="46.82878" lon="5.57014">
        <ele>226</ele>
        <time>2020-03-04T09:41:15Z</time>
      </trkpt>
      <trkpt lat="46.82879" lon="5.57023">
        <ele>226</ele>
        <time>2020-03-04T09:41:16Z</time>
      </trkpt>
      <trkpt lat="46.82879" lon="5.57032">
        <ele>226</ele>
        <time>2020-03-04T09:41:17Z</time>
      </trkpt>
      <trkpt lat="46.8288" lon="5.57041">
        <ele>226</ele>
        <time>2020-03-04T09:41:18Z</time>
      </trkpt>
      <trkpt lat="46.82881" lon="5.5705">
        <ele>226</ele>
        <time>2020-03-04T09:41:19Z</time>
      </trkpt>
      <trkpt lat="46.82881" lon="5.57059">
        <ele>226.2</ele>
        <time>2020-03-04T09:41:20Z</time>
      </trkpt>
      <trkpt lat="46.82882" lon="5.57068">
        <ele>226.2</ele>
        <time>2020-03-04T09:41:21Z</time>
      </trkpt>
      <trkpt lat="46.82883" lon="5.57078">
        <ele>226.2</ele>
        <time>2020-03-04T09:41:22Z</time>
      </trkpt>
      <trkpt lat="46.82884" lon="5.57087">
        <ele>226.2</ele>
        <time>2020-03-04T09:41:23Z</time>
      </trkpt>
      <trkpt lat="46.82885" lon="5.57096">
        <ele>226.2</ele>
        <time>2020-03-04T09:41:24Z</time>
      </trkpt>
      <trkpt lat="46.82886" lon="5.57105">
        <ele>226.2</ele>
        <time>2020-03-04T09:41:25Z</time>
      </trkpt>
      <trkpt lat="46.82887" lon="5.57115">
        <ele>226.2</ele>
        <time>2020-03-04T09:41:26Z</time>
      </trkpt>
      <trkpt lat="46.82889" lon="5.57124">
        <ele>226.2</ele>
        <time>2020-03-04T09:41:27Z</time>
      </trkpt>
      <trkpt lat="46.8289" lon="5.57133">
        <ele>226.2</ele>
        <time>2020-03-04T09:41:28Z</time>
      </trkpt>
      <trkpt lat="46.82891" lon="5.57142">
        <ele>226.2</ele>
        <time>2020-03-04T09:41:29Z</time>
      </trkpt>
      <trkpt lat="46.82893" lon="5.57151">
        <ele>226.2</ele>
        <time>2020-03-04T09:41:30Z</time>
      </trkpt>
      <trkpt lat="46.82894" lon="5.5716">
        <ele>226.2</ele>
        <time>2020-03-04T09:41:31Z</time>
      </trkpt>
      <trkpt lat="46.82896" lon="5.57169">
        <ele>226.2</ele>
        <time>2020-03-04T09:41:32Z</time>
      </trkpt>
      <trkpt lat="46.82898" lon="5.57178">
        <ele>226.2</ele>
        <time>2020-03-04T09:41:33Z</time>
      </trkpt>
      <trkpt lat="46.82899" lon="5.57187">
        <ele>226.2</ele>
        <time>2020-03-04T09:41:34Z</time>
      </trkpt>
      <trkpt lat="46.82901" lon="5.57196">
        <ele>226.4</ele>
        <time>2020-03-04T09:41:35Z</time>
      </trkpt>
      <trkpt lat="46.82903" lon="5.57204">
        <ele>226.4</ele>
        <time>2020-03-04T09:41:36Z</time>
      </trkpt>
      <trkpt lat="46.82905" lon="5.57212">
        <ele>226.4</ele>
        <time>2020-03-04T09:41:37Z</time>
      </trkpt>
      <trkpt lat="46.82907" lon="5.5722">
        <ele>226.6</ele>
        <time>2020-03-04T09:41:38Z</time>
      </trkpt>
      <trkpt lat="46.82909" lon="5.57228">
        <ele>226.6</ele>
        <time>2020-03-04T09:41:39Z</time>
      </trkpt>
      <trkpt lat="46.82911" lon="5.57235">
        <ele>227</ele>
        <time>2020-03-04T09:41:40Z</time>
      </trkpt>
      <trkpt lat="46.82912" lon="5.57242">
        <ele>227.2</ele>
        <time>2020-03-04T09:41:41Z</time>
      </trkpt>
      <trkpt lat="46.82914" lon="5.57249">
        <ele>227.2</ele>
        <time>2020-03-04T09:41:42Z</time>
      </trkpt>
      <trkpt lat="46.82915" lon="5.57256">
        <ele>227.6</ele>
        <time>2020-03-04T09:41:43Z</time>
      </trkpt>
      <trkpt lat="46.82917" lon="5.57262">
        <ele>227.8</ele>
        <time>2020-03-04T09:41:44Z</time>
      </trkpt>
      <trkpt lat="46.82919" lon="5.57268">
        <ele>228.2</ele>
        <time>2020-03-04T09:41:45Z</time>
      </trkpt>
      <trkpt lat="46.82921" lon="5.57274">
        <ele>228.4</ele>
        <time>2020-03-04T09:41:46Z</time>
      </trkpt>
      <trkpt lat="46.82922" lon="5.5728">
        <ele>228.6</ele>
        <time>2020-03-04T09:41:47Z</time>
      </trkpt>
      <trkpt lat="46.82924" lon="5.57286">
        <ele>229</ele>
        <time>2020-03-04T09:41:48Z</time>
      </trkpt>
      <trkpt lat="46.82925" lon="5.57292">
        <ele>229.2</ele>
        <time>2020-03-04T09:41:49Z</time>
      </trkpt>
      <trkpt lat="46.82927" lon="5.57297">
        <ele>229.2</ele>
        <time>2020-03-04T09:41:50Z</time>
      </trkpt>
      <trkpt lat="46.82928" lon="5.57303">
        <ele>229.6</ele>
        <time>2020-03-04T09:41:51Z</time>
      </trkpt>
      <trkpt lat="46.8293" lon="5.57307">
        <ele>229.8</ele>
        <time>2020-03-04T09:41:52Z</time>
      </trkpt>
      <trkpt lat="46.82931" lon="5.57312">
        <ele>229.8</ele>
        <time>2020-03-04T09:41:53Z</time>
      </trkpt>
      <trkpt lat="46.82933" lon="5.57317">
        <ele>230</ele>
        <time>2020-03-04T09:41:54Z</time>
      </trkpt>
      <trkpt lat="46.82935" lon="5.57321">
        <ele>230</ele>
        <time>2020-03-04T09:41:55Z</time>
      </trkpt>
      <trkpt lat="46.82937" lon="5.57326">
        <ele>230.4</ele>
        <time>2020-03-04T09:41:56Z</time>
      </trkpt>
      <trkpt lat="46.82939" lon="5.57331">
        <ele>230.4</ele>
        <time>2020-03-04T09:41:57Z</time>
      </trkpt>
      <trkpt lat="46.82941" lon="5.57336">
        <ele>230.8</ele>
        <time>2020-03-04T09:41:58Z</time>
      </trkpt>
      <trkpt lat="46.82943" lon="5.5734">
        <ele>230.8</ele>
        <time>2020-03-04T09:41:59Z</time>
      </trkpt>
      <trkpt lat="46.82944" lon="5.57345">
        <ele>231.2</ele>
        <time>2020-03-04T09:42:00Z</time>
      </trkpt>
      <trkpt lat="46.82946" lon="5.5735">
        <ele>231.2</ele>
        <time>2020-03-04T09:42:01Z</time>
      </trkpt>
      <trkpt lat="46.82948" lon="5.57354">
        <ele>231.4</ele>
        <time>2020-03-04T09:42:02Z</time>
      </trkpt>
      <trkpt lat="46.82949" lon="5.57359">
        <ele>231.4</ele>
        <time>2020-03-04T09:42:03Z</time>
      </trkpt>
      <trkpt lat="46.82951" lon="5.57364">
        <ele>231.8</ele>
        <time>2020-03-04T09:42:04Z</time>
      </trkpt>
      <trkpt lat="46.82953" lon="5.57369">
        <ele>231.8</ele>
        <time>2020-03-04T09:42:05Z</time>
      </trkpt>
      <trkpt lat="46.82955" lon="5.57373">
        <ele>232</ele>
        <time>2020-03-04T09:42:06Z</time>
      </trkpt>
      <trkpt lat="46.82957" lon="5.57378">
        <ele>232</ele>
        <time>2020-03-04T09:42:07Z</time>
      </trkpt>
      <trkpt lat="46.82958" lon="5.57383">
        <ele>232.2</ele>
        <time>2020-03-04T09:42:08Z</time>
      </trkpt>
      <trkpt lat="46.8296" lon="5.57388">
        <ele>232.2</ele>
        <time>2020-03-04T09:42:09Z</time>
      </trkpt>
      <trkpt lat="46.82962" lon="5.57393">
        <ele>232.6</ele>
        <time>2020-03-04T09:42:10Z</time>
      </trkpt>
      <trkpt lat="46.82964" lon="5.57398">
        <ele>232.6</ele>
        <time>2020-03-04T09:42:11Z</time>
      </trkpt>
      <trkpt lat="46.82966" lon="5.57403">
        <ele>232.8</ele>
        <time>2020-03-04T09:42:12Z</time>
      </trkpt>
      <trkpt lat="46.82967" lon="5.57407">
        <ele>232.8</ele>
        <time>2020-03-04T09:42:13Z</time>
      </trkpt>
      <trkpt lat="46.82969" lon="5.57412">
        <ele>233</ele>
        <time>2020-03-04T09:42:14Z</time>
      </trkpt>
      <trkpt lat="46.82972" lon="5.57417">
        <ele>233</ele>
        <time>2020-03-04T09:42:15Z</time>
      </trkpt>
      <trkpt lat="46.82974" lon="5.57422">
        <ele>233.4</ele>
        <time>2020-03-04T09:42:16Z</time>
      </trkpt>
      <trkpt lat="46.82976" lon="5.57427">
        <ele>233.4</ele>
        <time>2020-03-04T09:42:17Z</time>
      </trkpt>
      <trkpt lat="46.82978" lon="5.57431">
        <ele>233.6</ele>
        <time>2020-03-04T09:42:18Z</time>
      </trkpt>
      <trkpt lat="46.8298" lon="5.57436">
        <ele>233.8</ele>
        <time>2020-03-04T09:42:19Z</time>
      </trkpt>
      <trkpt lat="46.82982" lon="5.5744">
        <ele>233.8</ele>
        <time>2020-03-04T09:42:20Z</time>
      </trkpt>
      <trkpt lat="46.82985" lon="5.57444">
        <ele>234.2</ele>
        <time>2020-03-04T09:42:21Z</time>
      </trkpt>
      <trkpt lat="46.82987" lon="5.57448">
        <ele>234.2</ele>
        <time>2020-03-04T09:42:22Z</time>
      </trkpt>
      <trkpt lat="46.8299" lon="5.57452">
        <ele>234.4</ele>
        <time>2020-03-04T09:42:23Z</time>
      </trkpt>
      <trkpt lat="46.82992" lon="5.57455">
        <ele>234.4</ele>
        <time>2020-03-04T09:42:24Z</time>
      </trkpt>
      <trkpt lat="46.82995" lon="5.57459">
        <ele>234.8</ele>
        <time>2020-03-04T09:42:25Z</time>
      </trkpt>
      <trkpt lat="46.82997" lon="5.57463">
        <ele>234.8</ele>
        <time>2020-03-04T09:42:26Z</time>
      </trkpt>
      <trkpt lat="46.83" lon="5.57467">
        <ele>235</ele>
        <time>2020-03-04T09:42:27Z</time>
      </trkpt>
      <trkpt lat="46.83002" lon="5.57471">
        <ele>235</ele>
        <time>2020-03-04T09:42:28Z</time>
      </trkpt>
      <trkpt lat="46.83005" lon="5.57474">
        <ele>235.4</ele>
        <time>2020-03-04T09:42:29Z</time>
      </trkpt>
      <trkpt lat="46.83008" lon="5.57477">
        <ele>235.6</ele>
        <time>2020-03-04T09:42:30Z</time>
      </trkpt>
      <trkpt lat="46.83011" lon="5.5748">
        <ele>235.6</ele>
        <time>2020-03-04T09:42:31Z</time>
      </trkpt>
      <trkpt lat="46.83014" lon="5.57484">
        <ele>235.8</ele>
        <time>2020-03-04T09:42:32Z</time>
      </trkpt>
      <trkpt lat="46.83017" lon="5.57487">
        <ele>235.8</ele>
        <time>2020-03-04T09:42:33Z</time>
      </trkpt>
      <trkpt lat="46.83019" lon="5.57491">
        <ele>236</ele>
        <time>2020-03-04T09:42:34Z</time>
      </trkpt>
      <trkpt lat="46.83022" lon="5.57494">
        <ele>236</ele>
        <time>2020-03-04T09:42:35Z</time>
      </trkpt>
      <trkpt lat="46.83025" lon="5.57497">
        <ele>236.4</ele>
        <time>2020-03-04T09:42:36Z</time>
      </trkpt>
      <trkpt lat="46.83028" lon="5.57501">
        <ele>236.4</ele>
        <time>2020-03-04T09:42:37Z</time>
      </trkpt>
      <trkpt lat="46.8303" lon="5.57504">
        <ele>236.6</ele>
        <time>2020-03-04T09:42:38Z</time>
      </trkpt>
      <trkpt lat="46.83033" lon="5.57508">
        <ele>236.6</ele>
        <time>2020-03-04T09:42:39Z</time>
      </trkpt>
      <trkpt lat="46.83036" lon="5.57511">
        <ele>237</ele>
        <time>2020-03-04T09:42:40Z</time>
      </trkpt>
      <trkpt lat="46.83039" lon="5.57514">
        <ele>237</ele>
        <time>2020-03-04T09:42:41Z</time>
      </trkpt>
      <trkpt lat="46.83042" lon="5.57518">
        <ele>237.2</ele>
        <time>2020-03-04T09:42:42Z</time>
      </trkpt>
      <trkpt lat="46.83045" lon="5.57521">
        <ele>237.2</ele>
        <time>2020-03-04T09:42:43Z</time>
      </trkpt>
      <trkpt lat="46.83048" lon="5.57524">
        <ele>237.2</ele>
        <time>2020-03-04T09:42:44Z</time>
      </trkpt>
      <trkpt lat="46.83051" lon="5.57528">
        <ele>237.6</ele>
        <time>2020-03-04T09:42:45Z</time>
      </trkpt>
      <trkpt lat="46.83053" lon="5.57531">
        <ele>237.6</ele>
        <time>2020-03-04T09:42:46Z</time>
      </trkpt>
      <trkpt lat="46.83056" lon="5.57535">
        <ele>237.8</ele>
        <time>2020-03-04T09:42:47Z</time>
      </trkpt>
      <trkpt lat="46.83059" lon="5.57539">
        <ele>237.8</ele>
        <time>2020-03-04T09:42:48Z</time>
      </trkpt>
      <trkpt lat="46.83062" lon="5.57542">
        <ele>238.2</ele>
        <time>2020-03-04T09:42:49Z</time>
      </trkpt>
      <trkpt lat="46.83064" lon="5.57545">
        <ele>238.2</ele>
        <time>2020-03-04T09:42:50Z</time>
      </trkpt>
      <trkpt lat="46.83067" lon="5.57549">
        <ele>238.6</ele>
        <time>2020-03-04T09:42:51Z</time>
      </trkpt>
      <trkpt lat="46.8307" lon="5.57552">
        <ele>238.8</ele>
        <time>2020-03-04T09:42:52Z</time>
      </trkpt>
      <trkpt lat="46.83073" lon="5.57556">
        <ele>238.8</ele>
        <time>2020-03-04T09:42:53Z</time>
      </trkpt>
      <trkpt lat="46.83076" lon="5.57559">
        <ele>239</ele>
        <time>2020-03-04T09:42:54Z</time>
      </trkpt>
      <trkpt lat="46.83079" lon="5.57563">
        <ele>239</ele>
        <time>2020-03-04T09:42:55Z</time>
      </trkpt>
      <trkpt lat="46.83082" lon="5.57566">
        <ele>239.4</ele>
        <time>2020-03-04T09:42:56Z</time>
      </trkpt>
      <trkpt lat="46.83085" lon="5.5757">
        <ele>239.6</ele>
        <time>2020-03-04T09:42:57Z</time>
      </trkpt>
      <trkpt lat="46.83088" lon="5.57573">
        <ele>239.6</ele>
        <time>2020-03-04T09:42:58Z</time>
      </trkpt>
      <trkpt lat="46.8309" lon="5.57577">
        <ele>239.8</ele>
        <time>2020-03-04T09:42:59Z</time>
      </trkpt>
      <trkpt lat="46.83093" lon="5.5758">
        <ele>239.8</ele>
        <time>2020-03-04T09:43:00Z</time>
      </trkpt>
      <trkpt lat="46.83096" lon="5.57583">
        <ele>240.2</ele>
        <time>2020-03-04T09:43:01Z</time>
      </trkpt>
      <trkpt lat="46.83099" lon="5.57586">
        <ele>240.2</ele>
        <time>2020-03-04T09:43:02Z</time>
      </trkpt>
      <trkpt lat="46.83102" lon="5.5759">
        <ele>240.2</ele>
        <time>2020-03-04T09:43:03Z</time>
      </trkpt>
      <trkpt lat="46.83104" lon="5.57593">
        <ele>240.4</ele>
        <time>2020-03-04T09:43:04Z</time>
      </trkpt>
      <trkpt lat="46.83107" lon="5.57597">
        <ele>240.4</ele>
        <time>2020-03-04T09:43:05Z</time>
      </trkpt>
      <trkpt lat="46.8311" lon="5.57601">
        <ele>240.6</ele>
        <time>2020-03-04T09:43:06Z</time>
      </trkpt>
      <trkpt lat="46.83113" lon="5.57604">
        <ele>240.6</ele>
        <time>2020-03-04T09:43:07Z</time>
      </trkpt>
      <trkpt lat="46.83115" lon="5.57608">
        <ele>241</ele>
        <time>2020-03-04T09:43:08Z</time>
      </trkpt>
      <trkpt lat="46.83118" lon="5.57611">
        <ele>241</ele>
        <time>2020-03-04T09:43:09Z</time>
      </trkpt>
      <trkpt lat="46.8312" lon="5.57615">
        <ele>241.2</ele>
        <time>2020-03-04T09:43:10Z</time>
      </trkpt>
      <trkpt lat="46.83123" lon="5.57619">
        <ele>241.2</ele>
        <time>2020-03-04T09:43:11Z</time>
      </trkpt>
      <trkpt lat="46.83125" lon="5.57623">
        <ele>241.4</ele>
        <time>2020-03-04T09:43:12Z</time>
      </trkpt>
      <trkpt lat="46.83127" lon="5.57627">
        <ele>241.4</ele>
        <time>2020-03-04T09:43:13Z</time>
      </trkpt>
      <trkpt lat="46.83129" lon="5.57631">
        <ele>241.8</ele>
        <time>2020-03-04T09:43:14Z</time>
      </trkpt>
      <trkpt lat="46.83131" lon="5.57635">
        <ele>241.8</ele>
        <time>2020-03-04T09:43:15Z</time>
      </trkpt>
      <trkpt lat="46.83133" lon="5.57639">
        <ele>241.8</ele>
        <time>2020-03-04T09:43:16Z</time>
      </trkpt>
      <trkpt lat="46.83134" lon="5.57644">
        <ele>242.2</ele>
        <time>2020-03-04T09:43:17Z</time>
      </trkpt>
      <trkpt lat="46.83136" lon="5.57648">
        <ele>242.2</ele>
        <time>2020-03-04T09:43:18Z</time>
      </trkpt>
      <trkpt lat="46.83138" lon="5.57653">
        <ele>242.4</ele>
        <time>2020-03-04T09:43:19Z</time>
      </trkpt>
      <trkpt lat="46.83139" lon="5.57658">
        <ele>242.4</ele>
        <time>2020-03-04T09:43:20Z</time>
      </trkpt>
      <trkpt lat="46.83141" lon="5.57662">
        <ele>242.6</ele>
        <time>2020-03-04T09:43:21Z</time>
      </trkpt>
      <trkpt lat="46.83143" lon="5.57667">
        <ele>242.6</ele>
        <time>2020-03-04T09:43:22Z</time>
      </trkpt>
      <trkpt lat="46.83145" lon="5.57672">
        <ele>242.8</ele>
        <time>2020-03-04T09:43:23Z</time>
      </trkpt>
      <trkpt lat="46.83147" lon="5.57677">
        <ele>242.8</ele>
        <time>2020-03-04T09:43:24Z</time>
      </trkpt>
      <trkpt lat="46.83149" lon="5.57682">
        <ele>243.2</ele>
        <time>2020-03-04T09:43:25Z</time>
      </trkpt>
      <trkpt lat="46.83151" lon="5.57687">
        <ele>243.2</ele>
        <time>2020-03-04T09:43:26Z</time>
      </trkpt>
      <trkpt lat="46.83154" lon="5.57691">
        <ele>243.4</ele>
        <time>2020-03-04T09:43:27Z</time>
      </trkpt>
      <trkpt lat="46.83155" lon="5.57695">
        <ele>243.4</ele>
        <time>2020-03-04T09:43:28Z</time>
      </trkpt>
      <trkpt lat="46.83157" lon="5.577">
        <ele>243.4</ele>
        <time>2020-03-04T09:43:29Z</time>
      </trkpt>
      <trkpt lat="46.83159" lon="5.57705">
        <ele>243.8</ele>
        <time>2020-03-04T09:43:30Z</time>
      </trkpt>
      <trkpt lat="46.83161" lon="5.57709">
        <ele>243.8</ele>
        <time>2020-03-04T09:43:31Z</time>
      </trkpt>
      <trkpt lat="46.83163" lon="5.57714">
        <ele>243.8</ele>
        <time>2020-03-04T09:43:32Z</time>
      </trkpt>
      <trkpt lat="46.83164" lon="5.57719">
        <ele>244</ele>
        <time>2020-03-04T09:43:33Z</time>
      </trkpt>
      <trkpt lat="46.83166" lon="5.57723">
        <ele>244</ele>
        <time>2020-03-04T09:43:34Z</time>
      </trkpt>
      <trkpt lat="46.83167" lon="5.57727">
        <ele>244</ele>
        <time>2020-03-04T09:43:35Z</time>
      </trkpt>
      <trkpt lat="46.83169" lon="5.57732">
        <ele>244</ele>
        <time>2020-03-04T09:43:36Z</time>
      </trkpt>
      <trkpt lat="46.83171" lon="5.57736">
        <ele>244.2</ele>
        <time>2020-03-04T09:43:37Z</time>
      </trkpt>
      <trkpt lat="46.83173" lon="5.57741">
        <ele>244.2</ele>
        <time>2020-03-04T09:43:38Z</time>
      </trkpt>
      <trkpt lat="46.83175" lon="5.57746">
        <ele>244.2</ele>
        <time>2020-03-04T09:43:39Z</time>
      </trkpt>
      <trkpt lat="46.83178" lon="5.57751">
        <ele>244.2</ele>
        <time>2020-03-04T09:43:40Z</time>
      </trkpt>
      <trkpt lat="46.8318" lon="5.57756">
        <ele>244.2</ele>
        <time>2020-03-04T09:43:41Z</time>
      </trkpt>
      <trkpt lat="46.83183" lon="5.57761">
        <ele>244.4</ele>
        <time>2020-03-04T09:43:42Z</time>
      </trkpt>
      <trkpt lat="46.83186" lon="5.57766">
        <ele>244.4</ele>
        <time>2020-03-04T09:43:43Z</time>
      </trkpt>
      <trkpt lat="46.83189" lon="5.57771">
        <ele>244.4</ele>
        <time>2020-03-04T09:43:44Z</time>
      </trkpt>
      <trkpt lat="46.83191" lon="5.57776">
        <ele>244.8</ele>
        <time>2020-03-04T09:43:45Z</time>
      </trkpt>
      <trkpt lat="46.83194" lon="5.57781">
        <ele>244.8</ele>
        <time>2020-03-04T09:43:46Z</time>
      </trkpt>
      <trkpt lat="46.83196" lon="5.57787">
        <ele>244.8</ele>
        <time>2020-03-04T09:43:47Z</time>
      </trkpt>
      <trkpt lat="46.83199" lon="5.57793">
        <ele>245</ele>
        <time>2020-03-04T09:43:48Z</time>
      </trkpt>
      <trkpt lat="46.83201" lon="5.57798">
        <ele>245</ele>
        <time>2020-03-04T09:43:49Z</time>
      </trkpt>
      <trkpt lat="46.83204" lon="5.57805">
        <ele>245</ele>
        <time>2020-03-04T09:43:50Z</time>
      </trkpt>
      <trkpt lat="46.83206" lon="5.57811">
        <ele>245</ele>
        <time>2020-03-04T09:43:51Z</time>
      </trkpt>
      <trkpt lat="46.83209" lon="5.57817">
        <ele>245.2</ele>
        <time>2020-03-04T09:43:52Z</time>
      </trkpt>
      <trkpt lat="46.83212" lon="5.57823">
        <ele>245.2</ele>
        <time>2020-03-04T09:43:53Z</time>
      </trkpt>
      <trkpt lat="46.83214" lon="5.57829">
        <ele>245.2</ele>
        <time>2020-03-04T09:43:54Z</time>
      </trkpt>
      <trkpt lat="46.83217" lon="5.57835">
        <ele>245.4</ele>
        <time>2020-03-04T09:43:55Z</time>
      </trkpt>
      <trkpt lat="46.8322" lon="5.57842">
        <ele>245.4</ele>
        <time>2020-03-04T09:43:56Z</time>
      </trkpt>
      <trkpt lat="46.83222" lon="5.57848">
        <ele>245.4</ele>
        <time>2020-03-04T09:43:57Z</time>
      </trkpt>
      <trkpt lat="46.83225" lon="5.57855">
        <ele>245.4</ele>
        <time>2020-03-04T09:43:58Z</time>
      </trkpt>
      <trkpt lat="46.83228" lon="5.57861">
        <ele>245.8</ele>
        <time>2020-03-04T09:43:59Z</time>
      </trkpt>
      <trkpt lat="46.83231" lon="5.57867">
        <ele>245.8</ele>
        <time>2020-03-04T09:44:00Z</time>
      </trkpt>
      <trkpt lat="46.83233" lon="5.57874">
        <ele>245.8</ele>
        <time>2020-03-04T09:44:01Z</time>
      </trkpt>
      <trkpt lat="46.83236" lon="5.5788">
        <ele>246</ele>
        <time>2020-03-04T09:44:02Z</time>
      </trkpt>
      <trkpt lat="46.83239" lon="5.57887">
        <ele>246</ele>
        <time>2020-03-04T09:44:03Z</time>
      </trkpt>
      <trkpt lat="46.83241" lon="5.57893">
        <ele>246.4</ele>
        <time>2020-03-04T09:44:04Z</time>
      </trkpt>
      <trkpt lat="46.83244" lon="5.579">
        <ele>246.4</ele>
        <time>2020-03-04T09:44:05Z</time>
      </trkpt>
      <trkpt lat="46.83247" lon="5.57906">
        <ele>246.6</ele>
        <time>2020-03-04T09:44:06Z</time>
      </trkpt>
      <trkpt lat="46.83249" lon="5.57912">
        <ele>246.6</ele>
        <time>2020-03-04T09:44:07Z</time>
      </trkpt>
      <trkpt lat="46.83252" lon="5.57919">
        <ele>246.8</ele>
        <time>2020-03-04T09:44:08Z</time>
      </trkpt>
      <trkpt lat="46.83254" lon="5.57925">
        <ele>246.8</ele>
        <time>2020-03-04T09:44:09Z</time>
      </trkpt>
      <trkpt lat="46.83257" lon="5.57931">
        <ele>247.2</ele>
        <time>2020-03-04T09:44:10Z</time>
      </trkpt>
      <trkpt lat="46.83259" lon="5.57937">
        <ele>247.2</ele>
        <time>2020-03-04T09:44:11Z</time>
      </trkpt>
      <trkpt lat="46.83261" lon="5.57943">
        <ele>247.6</ele>
        <time>2020-03-04T09:44:12Z</time>
      </trkpt>
      <trkpt lat="46.83263" lon="5.57949">
        <ele>247.8</ele>
        <time>2020-03-04T09:44:13Z</time>
      </trkpt>
      <trkpt lat="46.83265" lon="5.57955">
        <ele>247.8</ele>
        <time>2020-03-04T09:44:14Z</time>
      </trkpt>
      <trkpt lat="46.83267" lon="5.5796">
        <ele>248.2</ele>
        <time>2020-03-04T09:44:15Z</time>
      </trkpt>
      <trkpt lat="46.83269" lon="5.57966">
        <ele>248.4</ele>
        <time>2020-03-04T09:44:16Z</time>
      </trkpt>
      <trkpt lat="46.83271" lon="5.57971">
        <ele>248.6</ele>
        <time>2020-03-04T09:44:17Z</time>
      </trkpt>
      <trkpt lat="46.83272" lon="5.57976">
        <ele>248.8</ele>
        <time>2020-03-04T09:44:18Z</time>
      </trkpt>
      <trkpt lat="46.83273" lon="5.57981">
        <ele>248.8</ele>
        <time>2020-03-04T09:44:19Z</time>
      </trkpt>
      <trkpt lat="46.83274" lon="5.57986">
        <ele>249.2</ele>
        <time>2020-03-04T09:44:20Z</time>
      </trkpt>
      <trkpt lat="46.83276" lon="5.57991">
        <ele>249.6</ele>
        <time>2020-03-04T09:44:21Z</time>
      </trkpt>
      <trkpt lat="46.83277" lon="5.57996">
        <ele>249.8</ele>
        <time>2020-03-04T09:44:22Z</time>
      </trkpt>
      <trkpt lat="46.83277" lon="5.58002">
        <ele>250</ele>
        <time>2020-03-04T09:44:23Z</time>
      </trkpt>
      <trkpt lat="46.83277" lon="5.58007">
        <ele>250.2</ele>
        <time>2020-03-04T09:44:24Z</time>
      </trkpt>
      <trkpt lat="46.83278" lon="5.58012">
        <ele>250.2</ele>
        <time>2020-03-04T09:44:25Z</time>
      </trkpt>
      <trkpt lat="46.83278" lon="5.58016">
        <ele>250.6</ele>
        <time>2020-03-04T09:44:26Z</time>
      </trkpt>
      <trkpt lat="46.83277" lon="5.58021">
        <ele>251</ele>
        <time>2020-03-04T09:44:27Z</time>
      </trkpt>
      <trkpt lat="46.83277" lon="5.58026">
        <ele>251.2</ele>
        <time>2020-03-04T09:44:28Z</time>
      </trkpt>
      <trkpt lat="46.83276" lon="5.5803">
        <ele>251.4</ele>
        <time>2020-03-04T09:44:29Z</time>
      </trkpt>
      <trkpt lat="46.83276" lon="5.58035">
        <ele>251.6</ele>
        <time>2020-03-04T09:44:30Z</time>
      </trkpt>
      <trkpt lat="46.83275" lon="5.58039">
        <ele>251.6</ele>
        <time>2020-03-04T09:44:31Z</time>
      </trkpt>
      <trkpt lat="46.83274" lon="5.58044">
        <ele>252</ele>
        <time>2020-03-04T09:44:32Z</time>
      </trkpt>
      <trkpt lat="46.83273" lon="5.58048">
        <ele>252.2</ele>
        <time>2020-03-04T09:44:33Z</time>
      </trkpt>
      <trkpt lat="46.83271" lon="5.58052">
        <ele>252.2</ele>
        <time>2020-03-04T09:44:34Z</time>
      </trkpt>
      <trkpt lat="46.8327" lon="5.58056">
        <ele>252.6</ele>
        <time>2020-03-04T09:44:35Z</time>
      </trkpt>
      <trkpt lat="46.83269" lon="5.5806">
        <ele>252.8</ele>
        <time>2020-03-04T09:44:36Z</time>
      </trkpt>
      <trkpt lat="46.83268" lon="5.58064">
        <ele>252.8</ele>
        <time>2020-03-04T09:44:37Z</time>
      </trkpt>
      <trkpt lat="46.83267" lon="5.58069">
        <ele>253.2</ele>
        <time>2020-03-04T09:44:38Z</time>
      </trkpt>
      <trkpt lat="46.83266" lon="5.58073">
        <ele>253.2</ele>
        <time>2020-03-04T09:44:39Z</time>
      </trkpt>
      <trkpt lat="46.83265" lon="5.58077">
        <ele>253.6</ele>
        <time>2020-03-04T09:44:40Z</time>
      </trkpt>
      <trkpt lat="46.83265" lon="5.58081">
        <ele>253.8</ele>
        <time>2020-03-04T09:44:41Z</time>
      </trkpt>
      <trkpt lat="46.83264" lon="5.58085">
        <ele>253.8</ele>
        <time>2020-03-04T09:44:42Z</time>
      </trkpt>
      <trkpt lat="46.83263" lon="5.58089">
        <ele>254</ele>
        <time>2020-03-04T09:44:43Z</time>
      </trkpt>
      <trkpt lat="46.83263" lon="5.58093">
        <ele>254</ele>
        <time>2020-03-04T09:44:44Z</time>
      </trkpt>
      <trkpt lat="46.83262" lon="5.58097">
        <ele>254.4</ele>
        <time>2020-03-04T09:44:45Z</time>
      </trkpt>
      <trkpt lat="46.83261" lon="5.58102">
        <ele>254.4</ele>
        <time>2020-03-04T09:44:46Z</time>
      </trkpt>
      <trkpt lat="46.8326" lon="5.58106">
        <ele>254.4</ele>
        <time>2020-03-04T09:44:47Z</time>
      </trkpt>
      <trkpt lat="46.8326" lon="5.58111">
        <ele>254.8</ele>
        <time>2020-03-04T09:44:48Z</time>
      </trkpt>
      <trkpt lat="46.83259" lon="5.58115">
        <ele>254.8</ele>
        <time>2020-03-04T09:44:49Z</time>
      </trkpt>
      <trkpt lat="46.83258" lon="5.5812">
        <ele>254.8</ele>
        <time>2020-03-04T09:44:50Z</time>
      </trkpt>
      <trkpt lat="46.83258" lon="5.58124">
        <ele>254.8</ele>
        <time>2020-03-04T09:44:51Z</time>
      </trkpt>
      <trkpt lat="46.83257" lon="5.58129">
        <ele>255</ele>
        <time>2020-03-04T09:44:52Z</time>
      </trkpt>
      <trkpt lat="46.83256" lon="5.58134">
        <ele>255</ele>
        <time>2020-03-04T09:44:53Z</time>
      </trkpt>
      <trkpt lat="46.83256" lon="5.58138">
        <ele>255.2</ele>
        <time>2020-03-04T09:44:54Z</time>
      </trkpt>
      <trkpt lat="46.83255" lon="5.58143">
        <ele>255.2</ele>
        <time>2020-03-04T09:44:55Z</time>
      </trkpt>
      <trkpt lat="46.83254" lon="5.58147">
        <ele>255.6</ele>
        <time>2020-03-04T09:44:56Z</time>
      </trkpt>
      <trkpt lat="46.83254" lon="5.58151">
        <ele>255.6</ele>
        <time>2020-03-04T09:44:57Z</time>
      </trkpt>
      <trkpt lat="46.83253" lon="5.58156">
        <ele>255.6</ele>
        <time>2020-03-04T09:44:58Z</time>
      </trkpt>
      <trkpt lat="46.83252" lon="5.58161">
        <ele>255.8</ele>
        <time>2020-03-04T09:44:59Z</time>
      </trkpt>
      <trkpt lat="46.83251" lon="5.58165">
        <ele>255.8</ele>
        <time>2020-03-04T09:45:00Z</time>
      </trkpt>
      <trkpt lat="46.83251" lon="5.5817">
        <ele>255.8</ele>
        <time>2020-03-04T09:45:01Z</time>
      </trkpt>
      <trkpt lat="46.8325" lon="5.58175">
        <ele>256.2</ele>
        <time>2020-03-04T09:45:02Z</time>
      </trkpt>
      <trkpt lat="46.83249" lon="5.5818">
        <ele>256.2</ele>
        <time>2020-03-04T09:45:03Z</time>
      </trkpt>
      <trkpt lat="46.83249" lon="5.58185">
        <ele>256.2</ele>
        <time>2020-03-04T09:45:04Z</time>
      </trkpt>
      <trkpt lat="46.83248" lon="5.5819">
        <ele>256.2</ele>
        <time>2020-03-04T09:45:05Z</time>
      </trkpt>
      <trkpt lat="46.83247" lon="5.58195">
        <ele>256.2</ele>
        <time>2020-03-04T09:45:06Z</time>
      </trkpt>
      <trkpt lat="46.83245" lon="5.582">
        <ele>256.4</ele>
        <time>2020-03-04T09:45:07Z</time>
      </trkpt>
      <trkpt lat="46.83244" lon="5.58204">
        <ele>256.4</ele>
        <time>2020-03-04T09:45:08Z</time>
      </trkpt>
      <trkpt lat="46.83243" lon="5.58209">
        <ele>256.4</ele>
        <time>2020-03-04T09:45:09Z</time>
      </trkpt>
      <trkpt lat="46.83242" lon="5.58214">
        <ele>256.4</ele>
        <time>2020-03-04T09:45:10Z</time>
      </trkpt>
      <trkpt lat="46.83241" lon="5.58219">
        <ele>256.6</ele>
        <time>2020-03-04T09:45:11Z</time>
      </trkpt>
      <trkpt lat="46.8324" lon="5.58223">
        <ele>256.6</ele>
        <time>2020-03-04T09:45:12Z</time>
      </trkpt>
      <trkpt lat="46.83239" lon="5.58228">
        <ele>256.6</ele>
        <time>2020-03-04T09:45:13Z</time>
      </trkpt>
      <trkpt lat="46.83238" lon="5.58233">
        <ele>256.8</ele>
        <time>2020-03-04T09:45:14Z</time>
      </trkpt>
      <trkpt lat="46.83236" lon="5.58237">
        <ele>256.8</ele>
        <time>2020-03-04T09:45:15Z</time>
      </trkpt>
      <trkpt lat="46.83235" lon="5.58241">
        <ele>256.8</ele>
        <time>2020-03-04T09:45:16Z</time>
      </trkpt>
      <trkpt lat="46.83233" lon="5.58245">
        <ele>257.2</ele>
        <time>2020-03-04T09:45:17Z</time>
      </trkpt>
      <trkpt lat="46.83231" lon="5.58249">
        <ele>257.2</ele>
        <time>2020-03-04T09:45:18Z</time>
      </trkpt>
      <trkpt lat="46.83228" lon="5.58253">
        <ele>257.4</ele>
        <time>2020-03-04T09:45:19Z</time>
      </trkpt>
      <trkpt lat="46.83226" lon="5.58257">
        <ele>257.4</ele>
        <time>2020-03-04T09:45:20Z</time>
      </trkpt>
      <trkpt lat="46.83224" lon="5.58262">
        <ele>257.4</ele>
        <time>2020-03-04T09:45:21Z</time>
      </trkpt>
      <trkpt lat="46.83222" lon="5.58266">
        <ele>257.4</ele>
        <time>2020-03-04T09:45:22Z</time>
      </trkpt>
      <trkpt lat="46.8322" lon="5.5827">
        <ele>257.6</ele>
        <time>2020-03-04T09:45:23Z</time>
      </trkpt>
      <trkpt lat="46.83218" lon="5.58275">
        <ele>257.6</ele>
        <time>2020-03-04T09:45:24Z</time>
      </trkpt>
      <trkpt lat="46.83217" lon="5.58279">
        <ele>257.8</ele>
        <time>2020-03-04T09:45:25Z</time>
      </trkpt>
      <trkpt lat="46.83216" lon="5.58284">
        <ele>257.8</ele>
        <time>2020-03-04T09:45:26Z</time>
      </trkpt>
      <trkpt lat="46.83217" lon="5.58289">
        <ele>258.2</ele>
        <time>2020-03-04T09:45:27Z</time>
      </trkpt>
      <trkpt lat="46.83218" lon="5.58292">
        <ele>258.2</ele>
        <time>2020-03-04T09:45:28Z</time>
      </trkpt>
      <trkpt lat="46.83219" lon="5.58296">
        <ele>258.6</ele>
        <time>2020-03-04T09:45:29Z</time>
      </trkpt>
      <trkpt lat="46.8322" lon="5.58298">
        <ele>258.8</ele>
        <time>2020-03-04T09:45:30Z</time>
      </trkpt>
      <trkpt lat="46.8322" lon="5.58301">
        <ele>259</ele>
        <time>2020-03-04T09:45:31Z</time>
      </trkpt>
      <trkpt lat="46.83221" lon="5.58303">
        <ele>259.2</ele>
        <time>2020-03-04T09:45:32Z</time>
      </trkpt>
      <trkpt lat="46.83222" lon="5.58306">
        <ele>259.2</ele>
        <time>2020-03-04T09:45:33Z</time>
      </trkpt>
      <trkpt lat="46.83223" lon="5.58309">
        <ele>259.8</ele>
        <time>2020-03-04T09:45:34Z</time>
      </trkpt>
      <trkpt lat="46.83223" lon="5.58312">
        <ele>260</ele>
        <time>2020-03-04T09:45:35Z</time>
      </trkpt>
      <trkpt lat="46.83223" lon="5.58315">
        <ele>260.4</ele>
        <time>2020-03-04T09:45:36Z</time>
      </trkpt>
      <trkpt lat="46.83223" lon="5.58319">
        <ele>260.6</ele>
        <time>2020-03-04T09:45:37Z</time>
      </trkpt>
      <trkpt lat="46.83223" lon="5.58323">
        <ele>261</ele>
        <time>2020-03-04T09:45:38Z</time>
      </trkpt>
      <trkpt lat="46.83222" lon="5.58326">
        <ele>261.2</ele>
        <time>2020-03-04T09:45:39Z</time>
      </trkpt>
      <trkpt lat="46.83222" lon="5.5833">
        <ele>261.4</ele>
        <time>2020-03-04T09:45:40Z</time>
      </trkpt>
      <trkpt lat="46.83222" lon="5.58334">
        <ele>261.8</ele>
        <time>2020-03-04T09:45:41Z</time>
      </trkpt>
      <trkpt lat="46.83221" lon="5.58337">
        <ele>262.4</ele>
        <time>2020-03-04T09:45:42Z</time>
      </trkpt>
      <trkpt lat="46.83221" lon="5.58341">
        <ele>262.8</ele>
        <time>2020-03-04T09:45:43Z</time>
      </trkpt>
      <trkpt lat="46.83221" lon="5.58344">
        <ele>263.2</ele>
        <time>2020-03-04T09:45:44Z</time>
      </trkpt>
      <trkpt lat="46.83221" lon="5.58348">
        <ele>263.4</ele>
        <time>2020-03-04T09:45:45Z</time>
      </trkpt>
      <trkpt lat="46.8322" lon="5.58352">
        <ele>263.8</ele>
        <time>2020-03-04T09:45:46Z</time>
      </trkpt>
      <trkpt lat="46.8322" lon="5.58355">
        <ele>264.2</ele>
        <time>2020-03-04T09:45:47Z</time>
      </trkpt>
      <trkpt lat="46.8322" lon="5.58359">
        <ele>264.6</ele>
        <time>2020-03-04T09:45:48Z</time>
      </trkpt>
      <trkpt lat="46.83221" lon="5.58362">
        <ele>265</ele>
        <time>2020-03-04T09:45:49Z</time>
      </trkpt>
      <trkpt lat="46.83221" lon="5.58366">
        <ele>265.2</ele>
        <time>2020-03-04T09:45:50Z</time>
      </trkpt>
      <trkpt lat="46.83222" lon="5.5837">
        <ele>265.6</ele>
        <time>2020-03-04T09:45:51Z</time>
      </trkpt>
      <trkpt lat="46.83222" lon="5.58374">
        <ele>266</ele>
        <time>2020-03-04T09:45:52Z</time>
      </trkpt>
      <trkpt lat="46.83223" lon="5.58377">
        <ele>266.2</ele>
        <time>2020-03-04T09:45:53Z</time>
      </trkpt>
      <trkpt lat="46.83224" lon="5.58381">
        <ele>266.6</ele>
        <time>2020-03-04T09:45:54Z</time>
      </trkpt>
      <trkpt lat="46.83225" lon="5.58384">
        <ele>266.8</ele>
        <time>2020-03-04T09:45:55Z</time>
      </trkpt>
      <trkpt lat="46.83226" lon="5.58388">
        <ele>267</ele>
        <time>2020-03-04T09:45:56Z</time>
      </trkpt>
      <trkpt lat="46.83227" lon="5.58391">
        <ele>267</ele>
        <time>2020-03-04T09:45:57Z</time>
      </trkpt>
      <trkpt lat="46.83227" lon="5.58395">
        <ele>267.4</ele>
        <time>2020-03-04T09:45:58Z</time>
      </trkpt>
      <trkpt lat="46.83228" lon="5.58399">
        <ele>267.8</ele>
        <time>2020-03-04T09:45:59Z</time>
      </trkpt>
      <trkpt lat="46.83229" lon="5.58402">
        <ele>268.2</ele>
        <time>2020-03-04T09:46:00Z</time>
      </trkpt>
      <trkpt lat="46.8323" lon="5.58406">
        <ele>268.4</ele>
        <time>2020-03-04T09:46:01Z</time>
      </trkpt>
      <trkpt lat="46.8323" lon="5.58409">
        <ele>268.8</ele>
        <time>2020-03-04T09:46:02Z</time>
      </trkpt>
      <trkpt lat="46.83231" lon="5.58412">
        <ele>269</ele>
        <time>2020-03-04T09:46:03Z</time>
      </trkpt>
      <trkpt lat="46.83233" lon="5.58416">
        <ele>269.4</ele>
        <time>2020-03-04T09:46:04Z</time>
      </trkpt>
      <trkpt lat="46.83234" lon="5.58419">
        <ele>269.6</ele>
        <time>2020-03-04T09:46:05Z</time>
      </trkpt>
      <trkpt lat="46.83235" lon="5.58422">
        <ele>269.6</ele>
        <time>2020-03-04T09:46:06Z</time>
      </trkpt>
      <trkpt lat="46.83236" lon="5.58425">
        <ele>270</ele>
        <time>2020-03-04T09:46:07Z</time>
      </trkpt>
      <trkpt lat="46.83237" lon="5.58429">
        <ele>270.2</ele>
        <time>2020-03-04T09:46:08Z</time>
      </trkpt>
      <trkpt lat="46.83238" lon="5.58432">
        <ele>270.6</ele>
        <time>2020-03-04T09:46:09Z</time>
      </trkpt>
      <trkpt lat="46.83239" lon="5.58435">
        <ele>270.8</ele>
        <time>2020-03-04T09:46:10Z</time>
      </trkpt>
      <trkpt lat="46.8324" lon="5.58438">
        <ele>271</ele>
        <time>2020-03-04T09:46:11Z</time>
      </trkpt>
      <trkpt lat="46.83242" lon="5.58442">
        <ele>271.2</ele>
        <time>2020-03-04T09:46:12Z</time>
      </trkpt>
      <trkpt lat="46.83243" lon="5.58445">
        <ele>271.2</ele>
        <time>2020-03-04T09:46:13Z</time>
      </trkpt>
      <trkpt lat="46.83244" lon="5.58448">
        <ele>271.6</ele>
        <time>2020-03-04T09:46:14Z</time>
      </trkpt>
      <trkpt lat="46.83245" lon="5.58451">
        <ele>271.6</ele>
        <time>2020-03-04T09:46:15Z</time>
      </trkpt>
      <trkpt lat="46.83247" lon="5.58454">
        <ele>271.8</ele>
        <time>2020-03-04T09:46:16Z</time>
      </trkpt>
      <trkpt lat="46.83248" lon="5.58457">
        <ele>271.8</ele>
        <time>2020-03-04T09:46:17Z</time>
      </trkpt>
      <trkpt lat="46.83249" lon="5.5846">
        <ele>272</ele>
        <time>2020-03-04T09:46:18Z</time>
      </trkpt>
      <trkpt lat="46.8325" lon="5.58463">
        <ele>272</ele>
        <time>2020-03-04T09:46:19Z</time>
      </trkpt>
      <trkpt lat="46.83251" lon="5.58466">
        <ele>272.4</ele>
        <time>2020-03-04T09:46:20Z</time>
      </trkpt>
      <trkpt lat="46.83253" lon="5.58469">
        <ele>272.4</ele>
        <time>2020-03-04T09:46:21Z</time>
      </trkpt>
      <trkpt lat="46.83254" lon="5.58472">
        <ele>272.6</ele>
        <time>2020-03-04T09:46:22Z</time>
      </trkpt>
      <trkpt lat="46.83255" lon="5.58476">
        <ele>272.6</ele>
        <time>2020-03-04T09:46:23Z</time>
      </trkpt>
      <trkpt lat="46.83256" lon="5.58479">
        <ele>272.6</ele>
        <time>2020-03-04T09:46:24Z</time>
      </trkpt>
      <trkpt lat="46.83258" lon="5.58482">
        <ele>273</ele>
        <time>2020-03-04T09:46:25Z</time>
      </trkpt>
      <trkpt lat="46.83259" lon="5.58485">
        <ele>273</ele>
        <time>2020-03-04T09:46:26Z</time>
      </trkpt>
      <trkpt lat="46.8326" lon="5.58488">
        <ele>273.2</ele>
        <time>2020-03-04T09:46:27Z</time>
      </trkpt>
      <trkpt lat="46.83261" lon="5.58491">
        <ele>273.4</ele>
        <time>2020-03-04T09:46:28Z</time>
      </trkpt>
      <trkpt lat="46.83263" lon="5.58494">
        <ele>273.4</ele>
        <time>2020-03-04T09:46:29Z</time>
      </trkpt>
      <trkpt lat="46.83264" lon="5.58497">
        <ele>274</ele>
        <time>2020-03-04T09:46:30Z</time>
      </trkpt>
      <trkpt lat="46.83265" lon="5.585">
        <ele>274.2</ele>
        <time>2020-03-04T09:46:31Z</time>
      </trkpt>
      <trkpt lat="46.83267" lon="5.58503">
        <ele>274.2</ele>
        <time>2020-03-04T09:46:32Z</time>
      </trkpt>
      <trkpt lat="46.83268" lon="5.58507">
        <ele>274.4</ele>
        <time>2020-03-04T09:46:33Z</time>
      </trkpt>
      <trkpt lat="46.8327" lon="5.5851">
        <ele>274.4</ele>
        <time>2020-03-04T09:46:34Z</time>
      </trkpt>
      <trkpt lat="46.83271" lon="5.58514">
        <ele>274.8</ele>
        <time>2020-03-04T09:46:35Z</time>
      </trkpt>
      <trkpt lat="46.83272" lon="5.58517">
        <ele>274.8</ele>
        <time>2020-03-04T09:46:36Z</time>
      </trkpt>
      <trkpt lat="46.83274" lon="5.5852">
        <ele>275.2</ele>
        <time>2020-03-04T09:46:37Z</time>
      </trkpt>
      <trkpt lat="46.83275" lon="5.58523">
        <ele>275.2</ele>
        <time>2020-03-04T09:46:38Z</time>
      </trkpt>
      <trkpt lat="46.83276" lon="5.58527">
        <ele>275.4</ele>
        <time>2020-03-04T09:46:39Z</time>
      </trkpt>
      <trkpt lat="46.83278" lon="5.5853">
        <ele>275.8</ele>
        <time>2020-03-04T09:46:40Z</time>
      </trkpt>
      <trkpt lat="46.83279" lon="5.58533">
        <ele>275.8</ele>
        <time>2020-03-04T09:46:41Z</time>
      </trkpt>
      <trkpt lat="46.8328" lon="5.58536">
        <ele>276</ele>
        <time>2020-03-04T09:46:42Z</time>
      </trkpt>
      <trkpt lat="46.83282" lon="5.58539">
        <ele>276</ele>
        <time>2020-03-04T09:46:43Z</time>
      </trkpt>
      <trkpt lat="46.83283" lon="5.58542">
        <ele>276.2</ele>
        <time>2020-03-04T09:46:44Z</time>
      </trkpt>
      <trkpt lat="46.83284" lon="5.58546">
        <ele>276.2</ele>
        <time>2020-03-04T09:46:45Z</time>
      </trkpt>
      <trkpt lat="46.83286" lon="5.58549">
        <ele>276.2</ele>
        <time>2020-03-04T09:46:46Z</time>
      </trkpt>
      <trkpt lat="46.83287" lon="5.58552">
        <ele>276.6</ele>
        <time>2020-03-04T09:46:47Z</time>
      </trkpt>
      <trkpt lat="46.83288" lon="5.58556">
        <ele>276.6</ele>
        <time>2020-03-04T09:46:48Z</time>
      </trkpt>
      <trkpt lat="46.83289" lon="5.58559">
        <ele>276.8</ele>
        <time>2020-03-04T09:46:49Z</time>
      </trkpt>
      <trkpt lat="46.8329" lon="5.58562">
        <ele>277.2</ele>
        <time>2020-03-04T09:46:50Z</time>
      </trkpt>
      <trkpt lat="46.83291" lon="5.58566">
        <ele>277.4</ele>
        <time>2020-03-04T09:46:51Z</time>
      </trkpt>
      <trkpt lat="46.83292" lon="5.58569">
        <ele>277.4</ele>
        <time>2020-03-04T09:46:52Z</time>
      </trkpt>
      <trkpt lat="46.83293" lon="5.58572">
        <ele>277.6</ele>
        <time>2020-03-04T09:46:53Z</time>
      </trkpt>
      <trkpt lat="46.83294" lon="5.58576">
        <ele>277.6</ele>
        <time>2020-03-04T09:46:54Z</time>
      </trkpt>
      <trkpt lat="46.83295" lon="5.58579">
        <ele>277.8</ele>
        <time>2020-03-04T09:46:55Z</time>
      </trkpt>
      <trkpt lat="46.83296" lon="5.58582">
        <ele>277.8</ele>
        <time>2020-03-04T09:46:56Z</time>
      </trkpt>
      <trkpt lat="46.83297" lon="5.58585">
        <ele>278.2</ele>
        <time>2020-03-04T09:46:57Z</time>
      </trkpt>
      <trkpt lat="46.83297" lon="5.58589">
        <ele>278.4</ele>
        <time>2020-03-04T09:46:58Z</time>
      </trkpt>
      <trkpt lat="46.83298" lon="5.58592">
        <ele>278.4</ele>
        <time>2020-03-04T09:46:59Z</time>
      </trkpt>
      <trkpt lat="46.83299" lon="5.58596">
        <ele>279</ele>
        <time>2020-03-04T09:47:00Z</time>
      </trkpt>
      <trkpt lat="46.833" lon="5.586">
        <ele>279.2</ele>
        <time>2020-03-04T09:47:01Z</time>
      </trkpt>
      <trkpt lat="46.83301" lon="5.58603">
        <ele>279.4</ele>
        <time>2020-03-04T09:47:02Z</time>
      </trkpt>
      <trkpt lat="46.83302" lon="5.58606">
        <ele>279.6</ele>
        <time>2020-03-04T09:47:03Z</time>
      </trkpt>
      <trkpt lat="46.83303" lon="5.58609">
        <ele>280</ele>
        <time>2020-03-04T09:47:04Z</time>
      </trkpt>
      <trkpt lat="46.83304" lon="5.58613">
        <ele>280.2</ele>
        <time>2020-03-04T09:47:05Z</time>
      </trkpt>
      <trkpt lat="46.83304" lon="5.58616">
        <ele>280.6</ele>
        <time>2020-03-04T09:47:06Z</time>
      </trkpt>
      <trkpt lat="46.83305" lon="5.58619">
        <ele>280.8</ele>
        <time>2020-03-04T09:47:07Z</time>
      </trkpt>
      <trkpt lat="46.83306" lon="5.58622">
        <ele>281</ele>
        <time>2020-03-04T09:47:08Z</time>
      </trkpt>
      <trkpt lat="46.83307" lon="5.58625">
        <ele>281.4</ele>
        <time>2020-03-04T09:47:09Z</time>
      </trkpt>
      <trkpt lat="46.83307" lon="5.58628">
        <ele>281.4</ele>
        <time>2020-03-04T09:47:10Z</time>
      </trkpt>
      <trkpt lat="46.83308" lon="5.58631">
        <ele>281.8</ele>
        <time>2020-03-04T09:47:11Z</time>
      </trkpt>
      <trkpt lat="46.83309" lon="5.58634">
        <ele>282</ele>
        <time>2020-03-04T09:47:12Z</time>
      </trkpt>
      <trkpt lat="46.8331" lon="5.58636">
        <ele>282.4</ele>
        <time>2020-03-04T09:47:13Z</time>
      </trkpt>
      <trkpt lat="46.83312" lon="5.58639">
        <ele>282.6</ele>
        <time>2020-03-04T09:47:14Z</time>
      </trkpt>
      <trkpt lat="46.83313" lon="5.58642">
        <ele>282.8</ele>
        <time>2020-03-04T09:47:15Z</time>
      </trkpt>
      <trkpt lat="46.83314" lon="5.58645">
        <ele>283</ele>
        <time>2020-03-04T09:47:16Z</time>
      </trkpt>
      <trkpt lat="46.83314" lon="5.58648">
        <ele>283.4</ele>
        <time>2020-03-04T09:47:17Z</time>
      </trkpt>
      <trkpt lat="46.83315" lon="5.58651">
        <ele>283.6</ele>
        <time>2020-03-04T09:47:18Z</time>
      </trkpt>
      <trkpt lat="46.83316" lon="5.58654">
        <ele>284</ele>
        <time>2020-03-04T09:47:19Z</time>
      </trkpt>
      <trkpt lat="46.83317" lon="5.58656">
        <ele>284.2</ele>
        <time>2020-03-04T09:47:20Z</time>
      </trkpt>
      <trkpt lat="46.83318" lon="5.58659">
        <ele>284.6</ele>
        <time>2020-03-04T09:47:21Z</time>
      </trkpt>
      <trkpt lat="46.8332" lon="5.58661">
        <ele>284.8</ele>
        <time>2020-03-04T09:47:22Z</time>
      </trkpt>
      <trkpt lat="46.83321" lon="5.58664">
        <ele>285.2</ele>
        <time>2020-03-04T09:47:23Z</time>
      </trkpt>
      <trkpt lat="46.83322" lon="5.58666">
        <ele>285.4</ele>
        <time>2020-03-04T09:47:24Z</time>
      </trkpt>
      <trkpt lat="46.83323" lon="5.58669">
        <ele>285.8</ele>
        <time>2020-03-04T09:47:25Z</time>
      </trkpt>
      <trkpt lat="46.83325" lon="5.58671">
        <ele>286</ele>
        <time>2020-03-04T09:47:26Z</time>
      </trkpt>
      <trkpt lat="46.83326" lon="5.58674">
        <ele>286.2</ele>
        <time>2020-03-04T09:47:27Z</time>
      </trkpt>
      <trkpt lat="46.83327" lon="5.58677">
        <ele>286.2</ele>
        <time>2020-03-04T09:47:28Z</time>
      </trkpt>
      <trkpt lat="46.83328" lon="5.58679">
        <ele>286.6</ele>
        <time>2020-03-04T09:47:29Z</time>
      </trkpt>
      <trkpt lat="46.83329" lon="5.58682">
        <ele>287</ele>
        <time>2020-03-04T09:47:30Z</time>
      </trkpt>
      <trkpt lat="46.8333" lon="5.58684">
        <ele>287.2</ele>
        <time>2020-03-04T09:47:31Z</time>
      </trkpt>
      <trkpt lat="46.83332" lon="5.58687">
        <ele>287.4</ele>
        <time>2020-03-04T09:47:32Z</time>
      </trkpt>
      <trkpt lat="46.83333" lon="5.58689">
        <ele>287.6</ele>
        <time>2020-03-04T09:47:33Z</time>
      </trkpt>
      <trkpt lat="46.83334" lon="5.58692">
        <ele>287.8</ele>
        <time>2020-03-04T09:47:34Z</time>
      </trkpt>
      <trkpt lat="46.83335" lon="5.58694">
        <ele>288</ele>
        <time>2020-03-04T09:47:35Z</time>
      </trkpt>
      <trkpt lat="46.83336" lon="5.58697">
        <ele>288.4</ele>
        <time>2020-03-04T09:47:36Z</time>
      </trkpt>
      <trkpt lat="46.83337" lon="5.587">
        <ele>288.6</ele>
        <time>2020-03-04T09:47:37Z</time>
      </trkpt>
      <trkpt lat="46.83339" lon="5.58702">
        <ele>289</ele>
        <time>2020-03-04T09:47:38Z</time>
      </trkpt>
      <trkpt lat="46.8334" lon="5.58705">
        <ele>289.2</ele>
        <time>2020-03-04T09:47:39Z</time>
      </trkpt>
      <trkpt lat="46.83342" lon="5.58708">
        <ele>289.4</ele>
        <time>2020-03-04T09:47:40Z</time>
      </trkpt>
      <trkpt lat="46.83343" lon="5.5871">
        <ele>289.6</ele>
        <time>2020-03-04T09:47:41Z</time>
      </trkpt>
      <trkpt lat="46.83344" lon="5.58713">
        <ele>289.8</ele>
        <time>2020-03-04T09:47:42Z</time>
      </trkpt>
      <trkpt lat="46.83345" lon="5.58716">
        <ele>290.2</ele>
        <time>2020-03-04T09:47:43Z</time>
      </trkpt>
      <trkpt lat="46.83346" lon="5.58718">
        <ele>290.4</ele>
        <time>2020-03-04T09:47:44Z</time>
      </trkpt>
      <trkpt lat="46.83348" lon="5.58721">
        <ele>290.8</ele>
        <time>2020-03-04T09:47:45Z</time>
      </trkpt>
      <trkpt lat="46.83349" lon="5.58724">
        <ele>291.2</ele>
        <time>2020-03-04T09:47:46Z</time>
      </trkpt>
      <trkpt lat="46.8335" lon="5.58727">
        <ele>291.4</ele>
        <time>2020-03-04T09:47:47Z</time>
      </trkpt>
      <trkpt lat="46.83352" lon="5.58729">
        <ele>291.6</ele>
        <time>2020-03-04T09:47:48Z</time>
      </trkpt>
      <trkpt lat="46.83353" lon="5.58732">
        <ele>292</ele>
        <time>2020-03-04T09:47:49Z</time>
      </trkpt>
      <trkpt lat="46.83354" lon="5.58735">
        <ele>292.4</ele>
        <time>2020-03-04T09:47:50Z</time>
      </trkpt>
      <trkpt lat="46.83355" lon="5.58738">
        <ele>292.6</ele>
        <time>2020-03-04T09:47:51Z</time>
      </trkpt>
      <trkpt lat="46.83356" lon="5.58741">
        <ele>293</ele>
        <time>2020-03-04T09:47:52Z</time>
      </trkpt>
      <trkpt lat="46.83357" lon="5.58744">
        <ele>293.4</ele>
        <time>2020-03-04T09:47:53Z</time>
      </trkpt>
      <trkpt lat="46.83358" lon="5.58746">
        <ele>293.6</ele>
        <time>2020-03-04T09:47:54Z</time>
      </trkpt>
      <trkpt lat="46.83359" lon="5.58749">
        <ele>294</ele>
        <time>2020-03-04T09:47:55Z</time>
      </trkpt>
      <trkpt lat="46.8336" lon="5.58752">
        <ele>294.4</ele>
        <time>2020-03-04T09:47:56Z</time>
      </trkpt>
      <trkpt lat="46.83362" lon="5.58755">
        <ele>294.6</ele>
        <time>2020-03-04T09:47:57Z</time>
      </trkpt>
      <trkpt lat="46.83363" lon="5.58757">
        <ele>294.6</ele>
        <time>2020-03-04T09:47:58Z</time>
      </trkpt>
      <trkpt lat="46.83364" lon="5.5876">
        <ele>295.2</ele>
        <time>2020-03-04T09:47:59Z</time>
      </trkpt>
      <trkpt lat="46.83365" lon="5.58763">
        <ele>295.4</ele>
        <time>2020-03-04T09:48:00Z</time>
      </trkpt>
      <trkpt lat="46.83366" lon="5.58766">
        <ele>295.8</ele>
        <time>2020-03-04T09:48:01Z</time>
      </trkpt>
      <trkpt lat="46.83367" lon="5.58769">
        <ele>296</ele>
        <time>2020-03-04T09:48:02Z</time>
      </trkpt>
      <trkpt lat="46.83368" lon="5.58771">
        <ele>296.2</ele>
        <time>2020-03-04T09:48:03Z</time>
      </trkpt>
      <trkpt lat="46.83369" lon="5.58774">
        <ele>296.4</ele>
        <time>2020-03-04T09:48:04Z</time>
      </trkpt>
      <trkpt lat="46.8337" lon="5.58777">
        <ele>296.8</ele>
        <time>2020-03-04T09:48:05Z</time>
      </trkpt>
      <trkpt lat="46.83371" lon="5.5878">
        <ele>297</ele>
        <time>2020-03-04T09:48:06Z</time>
      </trkpt>
      <trkpt lat="46.83372" lon="5.58782">
        <ele>297.2</ele>
        <time>2020-03-04T09:48:07Z</time>
      </trkpt>
      <trkpt lat="46.83373" lon="5.58785">
        <ele>297.4</ele>
        <time>2020-03-04T09:48:08Z</time>
      </trkpt>
      <trkpt lat="46.83374" lon="5.58787">
        <ele>297.8</ele>
        <time>2020-03-04T09:48:09Z</time>
      </trkpt>
      <trkpt lat="46.83375" lon="5.5879">
        <ele>298</ele>
        <time>2020-03-04T09:48:10Z</time>
      </trkpt>
      <trkpt lat="46.83376" lon="5.58792">
        <ele>298.2</ele>
        <time>2020-03-04T09:48:11Z</time>
      </trkpt>
      <trkpt lat="46.83377" lon="5.58794">
        <ele>298.4</ele>
        <time>2020-03-04T09:48:12Z</time>
      </trkpt>
      <trkpt lat="46.83378" lon="5.58797">
        <ele>298.6</ele>
        <time>2020-03-04T09:48:13Z</time>
      </trkpt>
      <trkpt lat="46.83379" lon="5.58799">
        <ele>298.6</ele>
        <time>2020-03-04T09:48:14Z</time>
      </trkpt>
      <trkpt lat="46.8338" lon="5.58802">
        <ele>299</ele>
        <time>2020-03-04T09:48:15Z</time>
      </trkpt>
      <trkpt lat="46.83381" lon="5.58804">
        <ele>299.2</ele>
        <time>2020-03-04T09:48:16Z</time>
      </trkpt>
      <trkpt lat="46.83382" lon="5.58806">
        <ele>299.6</ele>
        <time>2020-03-04T09:48:17Z</time>
      </trkpt>
      <trkpt lat="46.83383" lon="5.58808">
        <ele>299.6</ele>
        <time>2020-03-04T09:48:18Z</time>
      </trkpt>
      <trkpt lat="46.83384" lon="5.58811">
        <ele>299.8</ele>
        <time>2020-03-04T09:48:19Z</time>
      </trkpt>
      <trkpt lat="46.83386" lon="5.58813">
        <ele>299.8</ele>
        <time>2020-03-04T09:48:20Z</time>
      </trkpt>
      <trkpt lat="46.83387" lon="5.58815">
        <ele>299.8</ele>
        <time>2020-03-04T09:48:21Z</time>
      </trkpt>
      <trkpt lat="46.83388" lon="5.58818">
        <ele>300.2</ele>
        <time>2020-03-04T09:48:22Z</time>
      </trkpt>
      <trkpt lat="46.8339" lon="5.5882">
        <ele>300.2</ele>
        <time>2020-03-04T09:48:23Z</time>
      </trkpt>
      <trkpt lat="46.83391" lon="5.58822">
        <ele>300.2</ele>
        <time>2020-03-04T09:48:24Z</time>
      </trkpt>
      <trkpt lat="46.83392" lon="5.58825">
        <ele>300.2</ele>
        <time>2020-03-04T09:48:25Z</time>
      </trkpt>
      <trkpt lat="46.83394" lon="5.58828">
        <ele>300.2</ele>
        <time>2020-03-04T09:48:26Z</time>
      </trkpt>
      <trkpt lat="46.83395" lon="5.58831">
        <ele>300.2</ele>
        <time>2020-03-04T09:48:27Z</time>
      </trkpt>
      <trkpt lat="46.83397" lon="5.58835">
        <ele>300.2</ele>
        <time>2020-03-04T09:48:28Z</time>
      </trkpt>
      <trkpt lat="46.83398" lon="5.58839">
        <ele>300.2</ele>
        <time>2020-03-04T09:48:29Z</time>
      </trkpt>
      <trkpt lat="46.834" lon="5.58843">
        <ele>300.2</ele>
        <time>2020-03-04T09:48:30Z</time>
      </trkpt>
      <trkpt lat="46.83402" lon="5.58847">
        <ele>300.2</ele>
        <time>2020-03-04T09:48:31Z</time>
      </trkpt>
      <trkpt lat="46.83404" lon="5.58851">
        <ele>300.2</ele>
        <time>2020-03-04T09:48:32Z</time>
      </trkpt>
      <trkpt lat="46.83406" lon="5.58856">
        <ele>299.8</ele>
        <time>2020-03-04T09:48:33Z</time>
      </trkpt>
      <trkpt lat="46.83409" lon="5.5886">
        <ele>299.8</ele>
        <time>2020-03-04T09:48:34Z</time>
      </trkpt>
      <trkpt lat="46.83412" lon="5.58865">
        <ele>299.6</ele>
        <time>2020-03-04T09:48:35Z</time>
      </trkpt>
      <trkpt lat="46.83415" lon="5.5887">
        <ele>299.6</ele>
        <time>2020-03-04T09:48:36Z</time>
      </trkpt>
      <trkpt lat="46.83419" lon="5.58875">
        <ele>299.4</ele>
        <time>2020-03-04T09:48:37Z</time>
      </trkpt>
      <trkpt lat="46.83423" lon="5.58881">
        <ele>299.2</ele>
        <time>2020-03-04T09:48:38Z</time>
      </trkpt>
      <trkpt lat="46.83428" lon="5.58888">
        <ele>298.8</ele>
        <time>2020-03-04T09:48:39Z</time>
      </trkpt>
      <trkpt lat="46.83432" lon="5.58895">
        <ele>298.4</ele>
        <time>2020-03-04T09:48:40Z</time>
      </trkpt>
      <trkpt lat="46.83436" lon="5.58904">
        <ele>298</ele>
        <time>2020-03-04T09:48:41Z</time>
      </trkpt>
      <trkpt lat="46.83439" lon="5.58915">
        <ele>297.4</ele>
        <time>2020-03-04T09:48:42Z</time>
      </trkpt>
      <trkpt lat="46.83441" lon="5.58925">
        <ele>297</ele>
        <time>2020-03-04T09:48:43Z</time>
      </trkpt>
      <trkpt lat="46.83444" lon="5.58937">
        <ele>296.4</ele>
        <time>2020-03-04T09:48:44Z</time>
      </trkpt>
      <trkpt lat="46.83447" lon="5.58949">
        <ele>295.8</ele>
        <time>2020-03-04T09:48:45Z</time>
      </trkpt>
      <trkpt lat="46.83449" lon="5.58961">
        <ele>295.2</ele>
        <time>2020-03-04T09:48:46Z</time>
      </trkpt>
      <trkpt lat="46.83452" lon="5.58975">
        <ele>294.6</ele>
        <time>2020-03-04T09:48:47Z</time>
      </trkpt>
      <trkpt lat="46.83455" lon="5.58988">
        <ele>294</ele>
        <time>2020-03-04T09:48:48Z</time>
      </trkpt>
      <trkpt lat="46.83458" lon="5.59001">
        <ele>293.4</ele>
        <time>2020-03-04T09:48:49Z</time>
      </trkpt>
      <trkpt lat="46.8346" lon="5.59013">
        <ele>292.8</ele>
        <time>2020-03-04T09:48:50Z</time>
      </trkpt>
      <trkpt lat="46.83463" lon="5.59026">
        <ele>292.2</ele>
        <time>2020-03-04T09:48:51Z</time>
      </trkpt>
      <trkpt lat="46.83465" lon="5.59039">
        <ele>291.6</ele>
        <time>2020-03-04T09:48:52Z</time>
      </trkpt>
      <trkpt lat="46.83468" lon="5.59051">
        <ele>290.8</ele>
        <time>2020-03-04T09:48:53Z</time>
      </trkpt>
      <trkpt lat="46.83471" lon="5.59065">
        <ele>290.2</ele>
        <time>2020-03-04T09:48:54Z</time>
      </trkpt>
      <trkpt lat="46.83474" lon="5.59079">
        <ele>289.6</ele>
        <time>2020-03-04T09:48:55Z</time>
      </trkpt>
      <trkpt lat="46.83477" lon="5.59093">
        <ele>288.8</ele>
        <time>2020-03-04T09:48:56Z</time>
      </trkpt>
      <trkpt lat="46.83481" lon="5.59105">
        <ele>288.2</ele>
        <time>2020-03-04T09:48:57Z</time>
      </trkpt>
      <trkpt lat="46.83484" lon="5.59118">
        <ele>287.4</ele>
        <time>2020-03-04T09:48:58Z</time>
      </trkpt>
      <trkpt lat="46.83488" lon="5.59131">
        <ele>286.8</ele>
        <time>2020-03-04T09:48:59Z</time>
      </trkpt>
      <trkpt lat="46.8349" lon="5.59143">
        <ele>286.2</ele>
        <time>2020-03-04T09:49:00Z</time>
      </trkpt>
      <trkpt lat="46.83493" lon="5.59155">
        <ele>285.6</ele>
        <time>2020-03-04T09:49:01Z</time>
      </trkpt>
      <trkpt lat="46.83496" lon="5.59167">
        <ele>285</ele>
        <time>2020-03-04T09:49:02Z</time>
      </trkpt>
      <trkpt lat="46.835" lon="5.59179">
        <ele>284.4</ele>
        <time>2020-03-04T09:49:03Z</time>
      </trkpt>
      <trkpt lat="46.83502" lon="5.5919">
        <ele>283.8</ele>
        <time>2020-03-04T09:49:04Z</time>
      </trkpt>
      <trkpt lat="46.83505" lon="5.59201">
        <ele>283.2</ele>
        <time>2020-03-04T09:49:05Z</time>
      </trkpt>
      <trkpt lat="46.83507" lon="5.59211">
        <ele>282.6</ele>
        <time>2020-03-04T09:49:06Z</time>
      </trkpt>
      <trkpt lat="46.83508" lon="5.5922">
        <ele>282.2</ele>
        <time>2020-03-04T09:49:07Z</time>
      </trkpt>
      <trkpt lat="46.83509" lon="5.59228">
        <ele>281.8</ele>
        <time>2020-03-04T09:49:08Z</time>
      </trkpt>
      <trkpt lat="46.83509" lon="5.59236">
        <ele>281.2</ele>
        <time>2020-03-04T09:49:09Z</time>
      </trkpt>
      <trkpt lat="46.83509" lon="5.59244">
        <ele>280.8</ele>
        <time>2020-03-04T09:49:10Z</time>
      </trkpt>
      <trkpt lat="46.83507" lon="5.59252">
        <ele>280.2</ele>
        <time>2020-03-04T09:49:11Z</time>
      </trkpt>
      <trkpt lat="46.83505" lon="5.5926">
        <ele>279.8</ele>
        <time>2020-03-04T09:49:12Z</time>
      </trkpt>
      <trkpt lat="46.83503" lon="5.59268">
        <ele>279.2</ele>
        <time>2020-03-04T09:49:13Z</time>
      </trkpt>
      <trkpt lat="46.83501" lon="5.59276">
        <ele>278.6</ele>
        <time>2020-03-04T09:49:14Z</time>
      </trkpt>
      <trkpt lat="46.83498" lon="5.59282">
        <ele>278.2</ele>
        <time>2020-03-04T09:49:15Z</time>
      </trkpt>
      <trkpt lat="46.83498" lon="5.59288">
        <ele>277.6</ele>
        <time>2020-03-04T09:49:16Z</time>
      </trkpt>
      <trkpt lat="46.83499" lon="5.59295">
        <ele>277</ele>
        <time>2020-03-04T09:49:17Z</time>
      </trkpt>
      <trkpt lat="46.83502" lon="5.59301">
        <ele>276.2</ele>
        <time>2020-03-04T09:49:18Z</time>
      </trkpt>
      <trkpt lat="46.83507" lon="5.59309">
        <ele>275.4</ele>
        <time>2020-03-04T09:49:19Z</time>
      </trkpt>
      <trkpt lat="46.83511" lon="5.59316">
        <ele>274.8</ele>
        <time>2020-03-04T09:49:20Z</time>
      </trkpt>
      <trkpt lat="46.83517" lon="5.59324">
        <ele>274</ele>
        <time>2020-03-04T09:49:21Z</time>
      </trkpt>
      <trkpt lat="46.83521" lon="5.59332">
        <ele>273.2</ele>
        <time>2020-03-04T09:49:22Z</time>
      </trkpt>
      <trkpt lat="46.83526" lon="5.5934">
        <ele>272.6</ele>
        <time>2020-03-04T09:49:23Z</time>
      </trkpt>
      <trkpt lat="46.83531" lon="5.59349">
        <ele>272</ele>
        <time>2020-03-04T09:49:24Z</time>
      </trkpt>
      <trkpt lat="46.83536" lon="5.59358">
        <ele>271.2</ele>
        <time>2020-03-04T09:49:25Z</time>
      </trkpt>
      <trkpt lat="46.8354" lon="5.59367">
        <ele>270.6</ele>
        <time>2020-03-04T09:49:26Z</time>
      </trkpt>
      <trkpt lat="46.83544" lon="5.59377">
        <ele>270.2</ele>
        <time>2020-03-04T09:49:27Z</time>
      </trkpt>
      <trkpt lat="46.83548" lon="5.59386">
        <ele>269.6</ele>
        <time>2020-03-04T09:49:28Z</time>
      </trkpt>
      <trkpt lat="46.83551" lon="5.59395">
        <ele>269</ele>
        <time>2020-03-04T09:49:29Z</time>
      </trkpt>
      <trkpt lat="46.83554" lon="5.59403">
        <ele>268.6</ele>
        <time>2020-03-04T09:49:30Z</time>
      </trkpt>
      <trkpt lat="46.83554" lon="5.59411">
        <ele>268.2</ele>
        <time>2020-03-04T09:49:31Z</time>
      </trkpt>
      <trkpt lat="46.83553" lon="5.5942">
        <ele>267.6</ele>
        <time>2020-03-04T09:49:32Z</time>
      </trkpt>
      <trkpt lat="46.83552" lon="5.59428">
        <ele>267.4</ele>
        <time>2020-03-04T09:49:33Z</time>
      </trkpt>
      <trkpt lat="46.8355" lon="5.59437">
        <ele>267</ele>
        <time>2020-03-04T09:49:34Z</time>
      </trkpt>
      <trkpt lat="46.83548" lon="5.59445">
        <ele>266.6</ele>
        <time>2020-03-04T09:49:35Z</time>
      </trkpt>
      <trkpt lat="46.83544" lon="5.59453">
        <ele>266</ele>
        <time>2020-03-04T09:49:36Z</time>
      </trkpt>
      <trkpt lat="46.8354" lon="5.59461">
        <ele>265.6</ele>
        <time>2020-03-04T09:49:37Z</time>
      </trkpt>
      <trkpt lat="46.83535" lon="5.59468">
        <ele>265.2</ele>
        <time>2020-03-04T09:49:38Z</time>
      </trkpt>
      <trkpt lat="46.83531" lon="5.59476">
        <ele>265</ele>
        <time>2020-03-04T09:49:39Z</time>
      </trkpt>
      <trkpt lat="46.83527" lon="5.59484">
        <ele>264.6</ele>
        <time>2020-03-04T09:49:40Z</time>
      </trkpt>
      <trkpt lat="46.83524" lon="5.59494">
        <ele>264.2</ele>
        <time>2020-03-04T09:49:41Z</time>
      </trkpt>
      <trkpt lat="46.83522" lon="5.59503">
        <ele>263.8</ele>
        <time>2020-03-04T09:49:42Z</time>
      </trkpt>
      <trkpt lat="46.83522" lon="5.59513">
        <ele>263.4</ele>
        <time>2020-03-04T09:49:43Z</time>
      </trkpt>
      <trkpt lat="46.83523" lon="5.59523">
        <ele>263</ele>
        <time>2020-03-04T09:49:44Z</time>
      </trkpt>
      <trkpt lat="46.83525" lon="5.59532">
        <ele>262.6</ele>
        <time>2020-03-04T09:49:45Z</time>
      </trkpt>
      <trkpt lat="46.83527" lon="5.5954">
        <ele>262.2</ele>
        <time>2020-03-04T09:49:46Z</time>
      </trkpt>
      <trkpt lat="46.83529" lon="5.59547">
        <ele>261.8</ele>
        <time>2020-03-04T09:49:47Z</time>
      </trkpt>
      <trkpt lat="46.83531" lon="5.59553">
        <ele>261.6</ele>
        <time>2020-03-04T09:49:48Z</time>
      </trkpt>
      <trkpt lat="46.83532" lon="5.59559">
        <ele>261.4</ele>
        <time>2020-03-04T09:49:49Z</time>
      </trkpt>
      <trkpt lat="46.83533" lon="5.59564">
        <ele>261</ele>
        <time>2020-03-04T09:49:50Z</time>
      </trkpt>
      <trkpt lat="46.83534" lon="5.59569">
        <ele>261</ele>
        <time>2020-03-04T09:49:51Z</time>
      </trkpt>
      <trkpt lat="46.83535" lon="5.59573">
        <ele>260.8</ele>
        <time>2020-03-04T09:49:52Z</time>
      </trkpt>
      <trkpt lat="46.83537" lon="5.59576">
        <ele>260.8</ele>
        <time>2020-03-04T09:49:53Z</time>
      </trkpt>
      <trkpt lat="46.8354" lon="5.59578">
        <ele>260.4</ele>
        <time>2020-03-04T09:49:54Z</time>
      </trkpt>
      <trkpt lat="46.83543" lon="5.59578">
        <ele>260.4</ele>
        <time>2020-03-04T09:49:55Z</time>
      </trkpt>
      <trkpt lat="46.83545" lon="5.59576">
        <ele>260.2</ele>
        <time>2020-03-04T09:49:56Z</time>
      </trkpt>
      <trkpt lat="46.83546" lon="5.59571">
        <ele>260.2</ele>
        <time>2020-03-04T09:49:57Z</time>
      </trkpt>
      <trkpt lat="46.83546" lon="5.59567">
        <ele>260</ele>
        <time>2020-03-04T09:49:58Z</time>
      </trkpt>
      <trkpt lat="46.83545" lon="5.59564">
        <ele>260</ele>
        <time>2020-03-04T09:49:59Z</time>
      </trkpt>
      <trkpt lat="46.83543" lon="5.59561">
        <ele>260</ele>
        <time>2020-03-04T09:50:00Z</time>
      </trkpt>
      <trkpt lat="46.83541" lon="5.59559">
        <ele>260</ele>
        <time>2020-03-04T09:50:01Z</time>
      </trkpt>
      <trkpt lat="46.8354" lon="5.59558">
        <ele>259.8</ele>
        <time>2020-03-04T09:50:02Z</time>
      </trkpt>
      <trkpt lat="46.83538" lon="5.59558">
        <ele>259.8</ele>
        <time>2020-03-04T09:50:03Z</time>
      </trkpt>
      <trkpt lat="46.83536" lon="5.59559">
        <ele>259.8</ele>
        <time>2020-03-04T09:50:04Z</time>
      </trkpt>
      <trkpt lat="46.83535" lon="5.59561">
        <ele>259.8</ele>
        <time>2020-03-04T09:50:05Z</time>
      </trkpt>
      <trkpt lat="46.83534" lon="5.59563">
        <ele>260</ele>
        <time>2020-03-04T09:50:06Z</time>
      </trkpt>
      <trkpt lat="46.83534" lon="5.59566">
        <ele>260</ele>
        <time>2020-03-04T09:50:07Z</time>
      </trkpt>
      <trkpt lat="46.83534" lon="5.59568">
        <ele>260</ele>
        <time>2020-03-04T09:50:08Z</time>
      </trkpt>
      <trkpt lat="46.83534" lon="5.5957">
        <ele>260.2</ele>
        <time>2020-03-04T09:50:09Z</time>
      </trkpt>
      <trkpt lat="46.83533" lon="5.59573">
        <ele>260.2</ele>
        <time>2020-03-04T09:50:10Z</time>
      </trkpt>
      <trkpt lat="46.83531" lon="5.59575">
        <ele>260.2</ele>
        <time>2020-03-04T09:50:11Z</time>
      </trkpt>
      <trkpt lat="46.8353" lon="5.59576">
        <ele>260.2</ele>
        <time>2020-03-04T09:50:12Z</time>
      </trkpt>
      <trkpt lat="46.83528" lon="5.59577">
        <ele>260.6</ele>
        <time>2020-03-04T09:50:13Z</time>
      </trkpt>
      <trkpt lat="46.83527" lon="5.59579">
        <ele>260.6</ele>
        <time>2020-03-04T09:50:14Z</time>
      </trkpt>
      <trkpt lat="46.83526" lon="5.59579">
        <ele>260.6</ele>
        <time>2020-03-04T09:50:15Z</time>
      </trkpt>
      <trkpt lat="46.83528" lon="5.59581">
        <ele>261</ele>
        <time>2020-03-04T09:50:45Z</time>
      </trkpt>
      <trkpt lat="46.8353" lon="5.5958">
        <ele>261</ele>
        <time>2020-03-04T09:50:46Z</time>
      </trkpt>
      <trkpt lat="46.83533" lon="5.59579">
        <ele>260.8</ele>
        <time>2020-03-04T09:50:47Z</time>
      </trkpt>
      <trkpt lat="46.83535" lon="5.59578">
        <ele>260.8</ele>
        <time>2020-03-04T09:50:48Z</time>
      </trkpt>
      <trkpt lat="46.83538" lon="5.59576">
        <ele>260.6</ele>
        <time>2020-03-04T09:50:49Z</time>
      </trkpt>
      <trkpt lat="46.83541" lon="5.59574">
        <ele>260.6</ele>
        <time>2020-03-04T09:50:50Z</time>
      </trkpt>
      <trkpt lat="46.83544" lon="5.5957">
        <ele>260.2</ele>
        <time>2020-03-04T09:50:51Z</time>
      </trkpt>
      <trkpt lat="46.83546" lon="5.59565">
        <ele>260.2</ele>
        <time>2020-03-04T09:50:52Z</time>
      </trkpt>
      <trkpt lat="46.83548" lon="5.5956">
        <ele>260</ele>
        <time>2020-03-04T09:50:53Z</time>
      </trkpt>
      <trkpt lat="46.83551" lon="5.59555">
        <ele>259.8</ele>
        <time>2020-03-04T09:50:54Z</time>
      </trkpt>
      <trkpt lat="46.83554" lon="5.59549">
        <ele>259.4</ele>
        <time>2020-03-04T09:50:55Z</time>
      </trkpt>
      <trkpt lat="46.83558" lon="5.59542">
        <ele>259.2</ele>
        <time>2020-03-04T09:50:56Z</time>
      </trkpt>
      <trkpt lat="46.83562" lon="5.59535">
        <ele>258.8</ele>
        <time>2020-03-04T09:50:57Z</time>
      </trkpt>
      <trkpt lat="46.83564" lon="5.59528">
        <ele>258.8</ele>
        <time>2020-03-04T09:50:58Z</time>
      </trkpt>
      <trkpt lat="46.83567" lon="5.59521">
        <ele>258.6</ele>
        <time>2020-03-04T09:50:59Z</time>
      </trkpt>
      <trkpt lat="46.83569" lon="5.59515">
        <ele>258.6</ele>
        <time>2020-03-04T09:51:00Z</time>
      </trkpt>
      <trkpt lat="46.83571" lon="5.5951">
        <ele>258.6</ele>
        <time>2020-03-04T09:51:01Z</time>
      </trkpt>
      <trkpt lat="46.83573" lon="5.59506">
        <ele>258.8</ele>
        <time>2020-03-04T09:51:02Z</time>
      </trkpt>
      <trkpt lat="46.83576" lon="5.59504">
        <ele>258.8</ele>
        <time>2020-03-04T09:51:03Z</time>
      </trkpt>
      <trkpt lat="46.83578" lon="5.59503">
        <ele>259.2</ele>
        <time>2020-03-04T09:51:04Z</time>
      </trkpt>
      <trkpt lat="46.83581" lon="5.59503">
        <ele>259.2</ele>
        <time>2020-03-04T09:51:05Z</time>
      </trkpt>
      <trkpt lat="46.83583" lon="5.59503">
        <ele>259.2</ele>
        <time>2020-03-04T09:51:06Z</time>
      </trkpt>
      <trkpt lat="46.83586" lon="5.59505">
        <ele>259.4</ele>
        <time>2020-03-04T09:51:07Z</time>
      </trkpt>
      <trkpt lat="46.83588" lon="5.59508">
        <ele>259.4</ele>
        <time>2020-03-04T09:51:08Z</time>
      </trkpt>
      <trkpt lat="46.83591" lon="5.59511">
        <ele>259.4</ele>
        <time>2020-03-04T09:51:09Z</time>
      </trkpt>
      <trkpt lat="46.83594" lon="5.59514">
        <ele>259.4</ele>
        <time>2020-03-04T09:51:10Z</time>
      </trkpt>
      <trkpt lat="46.83597" lon="5.59517">
        <ele>259.4</ele>
        <time>2020-03-04T09:51:11Z</time>
      </trkpt>
      <trkpt lat="46.83599" lon="5.59521">
        <ele>259</ele>
        <time>2020-03-04T09:51:12Z</time>
      </trkpt>
      <trkpt lat="46.83603" lon="5.59524">
        <ele>259</ele>
        <time>2020-03-04T09:51:13Z</time>
      </trkpt>
      <trkpt lat="46.83606" lon="5.59527">
        <ele>259</ele>
        <time>2020-03-04T09:51:14Z</time>
      </trkpt>
      <trkpt lat="46.8361" lon="5.59531">
        <ele>258.8</ele>
        <time>2020-03-04T09:51:15Z</time>
      </trkpt>
      <trkpt lat="46.83613" lon="5.59536">
        <ele>258.6</ele>
        <time>2020-03-04T09:51:16Z</time>
      </trkpt>
      <trkpt lat="46.83617" lon="5.59541">
        <ele>258.4</ele>
        <time>2020-03-04T09:51:17Z</time>
      </trkpt>
      <trkpt lat="46.83621" lon="5.59545">
        <ele>258</ele>
        <time>2020-03-04T09:51:18Z</time>
      </trkpt>
      <trkpt lat="46.83625" lon="5.59551">
        <ele>257.8</ele>
        <time>2020-03-04T09:51:19Z</time>
      </trkpt>
      <trkpt lat="46.8363" lon="5.59556">
        <ele>257.6</ele>
        <time>2020-03-04T09:51:20Z</time>
      </trkpt>
      <trkpt lat="46.83634" lon="5.59562">
        <ele>257.6</ele>
        <time>2020-03-04T09:51:21Z</time>
      </trkpt>
      <trkpt lat="46.83639" lon="5.59569">
        <ele>257.2</ele>
        <time>2020-03-04T09:51:22Z</time>
      </trkpt>
      <trkpt lat="46.83643" lon="5.59575">
        <ele>257</ele>
        <time>2020-03-04T09:51:23Z</time>
      </trkpt>
      <trkpt lat="46.83647" lon="5.5958">
        <ele>256.8</ele>
        <time>2020-03-04T09:51:24Z</time>
      </trkpt>
      <trkpt lat="46.8365" lon="5.59585">
        <ele>256.4</ele>
        <time>2020-03-04T09:51:25Z</time>
      </trkpt>
      <trkpt lat="46.83654" lon="5.59588">
        <ele>256.4</ele>
        <time>2020-03-04T09:51:26Z</time>
      </trkpt>
      <trkpt lat="46.83657" lon="5.59592">
        <ele>256.2</ele>
        <time>2020-03-04T09:51:27Z</time>
      </trkpt>
      <trkpt lat="46.8366" lon="5.59595">
        <ele>256.2</ele>
        <time>2020-03-04T09:51:28Z</time>
      </trkpt>
      <trkpt lat="46.83662" lon="5.59599">
        <ele>255.8</ele>
        <time>2020-03-04T09:51:29Z</time>
      </trkpt>
      <trkpt lat="46.83663" lon="5.59602">
        <ele>255.8</ele>
        <time>2020-03-04T09:51:30Z</time>
      </trkpt>
      <trkpt lat="46.83665" lon="5.59607">
        <ele>255.6</ele>
        <time>2020-03-04T09:51:31Z</time>
      </trkpt>
      <trkpt lat="46.83666" lon="5.59611">
        <ele>255.2</ele>
        <time>2020-03-04T09:51:32Z</time>
      </trkpt>
      <trkpt lat="46.83667" lon="5.59615">
        <ele>255.2</ele>
        <time>2020-03-04T09:51:33Z</time>
      </trkpt>
      <trkpt lat="46.83668" lon="5.59618">
        <ele>255</ele>
        <time>2020-03-04T09:51:34Z</time>
      </trkpt>
      <trkpt lat="46.83669" lon="5.59622">
        <ele>254.8</ele>
        <time>2020-03-04T09:51:35Z</time>
      </trkpt>
      <trkpt lat="46.83671" lon="5.59626">
        <ele>254.4</ele>
        <time>2020-03-04T09:51:36Z</time>
      </trkpt>
      <trkpt lat="46.83672" lon="5.5963">
        <ele>254.2</ele>
        <time>2020-03-04T09:51:37Z</time>
      </trkpt>
      <trkpt lat="46.83674" lon="5.59633">
        <ele>254.2</ele>
        <time>2020-03-04T09:51:38Z</time>
      </trkpt>
      <trkpt lat="46.83675" lon="5.59637">
        <ele>253.8</ele>
        <time>2020-03-04T09:51:39Z</time>
      </trkpt>
      <trkpt lat="46.83676" lon="5.5964">
        <ele>253.6</ele>
        <time>2020-03-04T09:51:40Z</time>
      </trkpt>
      <trkpt lat="46.83677" lon="5.59643">
        <ele>253.4</ele>
        <time>2020-03-04T09:51:41Z</time>
      </trkpt>
      <trkpt lat="46.83678" lon="5.59646">
        <ele>253.4</ele>
        <time>2020-03-04T09:51:42Z</time>
      </trkpt>
      <trkpt lat="46.83679" lon="5.5965">
        <ele>252.8</ele>
        <time>2020-03-04T09:51:43Z</time>
      </trkpt>
      <trkpt lat="46.8368" lon="5.59653">
        <ele>252.8</ele>
        <time>2020-03-04T09:51:44Z</time>
      </trkpt>
      <trkpt lat="46.83681" lon="5.59656">
        <ele>252.4</ele>
        <time>2020-03-04T09:51:45Z</time>
      </trkpt>
      <trkpt lat="46.83682" lon="5.59659">
        <ele>252.2</ele>
        <time>2020-03-04T09:51:46Z</time>
      </trkpt>
      <trkpt lat="46.83683" lon="5.59661">
        <ele>252.2</ele>
        <time>2020-03-04T09:51:47Z</time>
      </trkpt>
      <trkpt lat="46.83684" lon="5.59664">
        <ele>251.8</ele>
        <time>2020-03-04T09:51:48Z</time>
      </trkpt>
      <trkpt lat="46.83685" lon="5.59667">
        <ele>251.6</ele>
        <time>2020-03-04T09:51:49Z</time>
      </trkpt>
      <trkpt lat="46.83686" lon="5.59671">
        <ele>251.4</ele>
        <time>2020-03-04T09:51:50Z</time>
      </trkpt>
      <trkpt lat="46.83687" lon="5.59674">
        <ele>251.4</ele>
        <time>2020-03-04T09:51:51Z</time>
      </trkpt>
      <trkpt lat="46.83688" lon="5.59677">
        <ele>251</ele>
        <time>2020-03-04T09:51:52Z</time>
      </trkpt>
      <trkpt lat="46.83689" lon="5.5968">
        <ele>250.8</ele>
        <time>2020-03-04T09:51:53Z</time>
      </trkpt>
      <trkpt lat="46.8369" lon="5.59683">
        <ele>250.4</ele>
        <time>2020-03-04T09:51:54Z</time>
      </trkpt>
      <trkpt lat="46.83691" lon="5.59686">
        <ele>250.2</ele>
        <time>2020-03-04T09:51:55Z</time>
      </trkpt>
      <trkpt lat="46.83692" lon="5.5969">
        <ele>250</ele>
        <time>2020-03-04T09:51:56Z</time>
      </trkpt>
      <trkpt lat="46.83693" lon="5.59694">
        <ele>249.6</ele>
        <time>2020-03-04T09:51:57Z</time>
      </trkpt>
      <trkpt lat="46.83694" lon="5.59699">
        <ele>249.4</ele>
        <time>2020-03-04T09:51:58Z</time>
      </trkpt>
      <trkpt lat="46.83696" lon="5.59704">
        <ele>249.2</ele>
        <time>2020-03-04T09:51:59Z</time>
      </trkpt>
      <trkpt lat="46.83698" lon="5.5971">
        <ele>248.6</ele>
        <time>2020-03-04T09:52:00Z</time>
      </trkpt>
      <trkpt lat="46.83699" lon="5.59716">
        <ele>248.4</ele>
        <time>2020-03-04T09:52:01Z</time>
      </trkpt>
      <trkpt lat="46.83701" lon="5.59723">
        <ele>248</ele>
        <time>2020-03-04T09:52:02Z</time>
      </trkpt>
      <trkpt lat="46.83703" lon="5.59729">
        <ele>247.8</ele>
        <time>2020-03-04T09:52:03Z</time>
      </trkpt>
      <trkpt lat="46.83704" lon="5.59735">
        <ele>247.4</ele>
        <time>2020-03-04T09:52:04Z</time>
      </trkpt>
      <trkpt lat="46.83706" lon="5.5974">
        <ele>247.2</ele>
        <time>2020-03-04T09:52:05Z</time>
      </trkpt>
      <trkpt lat="46.83707" lon="5.59745">
        <ele>247</ele>
        <time>2020-03-04T09:52:06Z</time>
      </trkpt>
      <trkpt lat="46.83708" lon="5.59748">
        <ele>247</ele>
        <time>2020-03-04T09:52:07Z</time>
      </trkpt>
      <trkpt lat="46.8371" lon="5.59751">
        <ele>246.8</ele>
        <time>2020-03-04T09:52:08Z</time>
      </trkpt>
      <trkpt lat="46.83712" lon="5.59753">
        <ele>246.8</ele>
        <time>2020-03-04T09:52:09Z</time>
      </trkpt>
      <trkpt lat="46.83715" lon="5.59755">
        <ele>246.4</ele>
        <time>2020-03-04T09:52:10Z</time>
      </trkpt>
      <trkpt lat="46.83718" lon="5.59755">
        <ele>246.4</ele>
        <time>2020-03-04T09:52:11Z</time>
      </trkpt>
      <trkpt lat="46.8372" lon="5.59755">
        <ele>246.2</ele>
        <time>2020-03-04T09:52:12Z</time>
      </trkpt>
      <trkpt lat="46.83722" lon="5.59754">
        <ele>246.2</ele>
        <time>2020-03-04T09:52:13Z</time>
      </trkpt>
      <trkpt lat="46.83725" lon="5.59753">
        <ele>246.2</ele>
        <time>2020-03-04T09:52:14Z</time>
      </trkpt>
      <trkpt lat="46.83727" lon="5.59752">
        <ele>246.2</ele>
        <time>2020-03-04T09:52:15Z</time>
      </trkpt>
      <trkpt lat="46.83729" lon="5.59751">
        <ele>246.2</ele>
        <time>2020-03-04T09:52:16Z</time>
      </trkpt>
      <trkpt lat="46.83731" lon="5.5975">
        <ele>246.2</ele>
        <time>2020-03-04T09:52:17Z</time>
      </trkpt>
      <trkpt lat="46.83734" lon="5.59748">
        <ele>246.2</ele>
        <time>2020-03-04T09:52:18Z</time>
      </trkpt>
      <trkpt lat="46.83736" lon="5.59747">
        <ele>246.2</ele>
        <time>2020-03-04T09:52:19Z</time>
      </trkpt>
      <trkpt lat="46.83739" lon="5.59745">
        <ele>246.2</ele>
        <time>2020-03-04T09:52:20Z</time>
      </trkpt>
      <trkpt lat="46.83742" lon="5.59744">
        <ele>246.2</ele>
        <time>2020-03-04T09:52:21Z</time>
      </trkpt>
      <trkpt lat="46.83745" lon="5.59742">
        <ele>246.2</ele>
        <time>2020-03-04T09:52:22Z</time>
      </trkpt>
      <trkpt lat="46.83748" lon="5.5974">
        <ele>246.2</ele>
        <time>2020-03-04T09:52:23Z</time>
      </trkpt>
      <trkpt lat="46.83751" lon="5.59739">
        <ele>246</ele>
        <time>2020-03-04T09:52:24Z</time>
      </trkpt>
      <trkpt lat="46.83754" lon="5.59737">
        <ele>246</ele>
        <time>2020-03-04T09:52:25Z</time>
      </trkpt>
      <trkpt lat="46.83758" lon="5.59735">
        <ele>246</ele>
        <time>2020-03-04T09:52:26Z</time>
      </trkpt>
      <trkpt lat="46.83761" lon="5.59733">
        <ele>246</ele>
        <time>2020-03-04T09:52:27Z</time>
      </trkpt>
      <trkpt lat="46.83765" lon="5.59731">
        <ele>246</ele>
        <time>2020-03-04T09:52:28Z</time>
      </trkpt>
      <trkpt lat="46.83769" lon="5.59728">
        <ele>246</ele>
        <time>2020-03-04T09:52:29Z</time>
      </trkpt>
      <trkpt lat="46.83773" lon="5.59726">
        <ele>246</ele>
        <time>2020-03-04T09:52:30Z</time>
      </trkpt>
      <trkpt lat="46.83777" lon="5.59724">
        <ele>245.8</ele>
        <time>2020-03-04T09:52:31Z</time>
      </trkpt>
      <trkpt lat="46.83781" lon="5.59721">
        <ele>245.8</ele>
        <time>2020-03-04T09:52:32Z</time>
      </trkpt>
      <trkpt lat="46.83785" lon="5.59719">
        <ele>245.8</ele>
        <time>2020-03-04T09:52:33Z</time>
      </trkpt>
      <trkpt lat="46.83788" lon="5.59717">
        <ele>245.8</ele>
        <time>2020-03-04T09:52:34Z</time>
      </trkpt>
      <trkpt lat="46.83792" lon="5.59715">
        <ele>245.8</ele>
        <time>2020-03-04T09:52:35Z</time>
      </trkpt>
      <trkpt lat="46.83795" lon="5.59713">
        <ele>245.8</ele>
        <time>2020-03-04T09:52:36Z</time>
      </trkpt>
      <trkpt lat="46.83799" lon="5.59711">
        <ele>245.8</ele>
        <time>2020-03-04T09:52:37Z</time>
      </trkpt>
      <trkpt lat="46.83802" lon="5.59709">
        <ele>245.8</ele>
        <time>2020-03-04T09:52:38Z</time>
      </trkpt>
      <trkpt lat="46.83805" lon="5.59707">
        <ele>245.8</ele>
        <time>2020-03-04T09:52:39Z</time>
      </trkpt>
      <trkpt lat="46.83808" lon="5.59705">
        <ele>245.8</ele>
        <time>2020-03-04T09:52:40Z</time>
      </trkpt>
      <trkpt lat="46.83812" lon="5.59703">
        <ele>245.8</ele>
        <time>2020-03-04T09:52:41Z</time>
      </trkpt>
      <trkpt lat="46.83815" lon="5.59701">
        <ele>245.8</ele>
        <time>2020-03-04T09:52:42Z</time>
      </trkpt>
      <trkpt lat="46.83819" lon="5.597">
        <ele>245.8</ele>
        <time>2020-03-04T09:52:43Z</time>
      </trkpt>
      <trkpt lat="46.83823" lon="5.59699">
        <ele>245.8</ele>
        <time>2020-03-04T09:52:44Z</time>
      </trkpt>
      <trkpt lat="46.83826" lon="5.59698">
        <ele>245.8</ele>
        <time>2020-03-04T09:52:45Z</time>
      </trkpt>
      <trkpt lat="46.8383" lon="5.59697">
        <ele>245.8</ele>
        <time>2020-03-04T09:52:46Z</time>
      </trkpt>
      <trkpt lat="46.83833" lon="5.59696">
        <ele>245.8</ele>
        <time>2020-03-04T09:52:47Z</time>
      </trkpt>
      <trkpt lat="46.83836" lon="5.59695">
        <ele>245.6</ele>
        <time>2020-03-04T09:52:48Z</time>
      </trkpt>
      <trkpt lat="46.83839" lon="5.59694">
        <ele>245.6</ele>
        <time>2020-03-04T09:52:49Z</time>
      </trkpt>
      <trkpt lat="46.83842" lon="5.59693">
        <ele>245.6</ele>
        <time>2020-03-04T09:52:50Z</time>
      </trkpt>
      <trkpt lat="46.83844" lon="5.59692">
        <ele>245.6</ele>
        <time>2020-03-04T09:52:51Z</time>
      </trkpt>
      <trkpt lat="46.83846" lon="5.59691">
        <ele>245.6</ele>
        <time>2020-03-04T09:52:52Z</time>
      </trkpt>
      <trkpt lat="46.83848" lon="5.59691">
        <ele>245.8</ele>
        <time>2020-03-04T09:52:53Z</time>
      </trkpt>
      <trkpt lat="46.8385" lon="5.59691">
        <ele>245.8</ele>
        <time>2020-03-04T09:52:54Z</time>
      </trkpt>
      <trkpt lat="46.83852" lon="5.59692">
        <ele>246</ele>
        <time>2020-03-04T09:52:55Z</time>
      </trkpt>
      <trkpt lat="46.83853" lon="5.59693">
        <ele>246</ele>
        <time>2020-03-04T09:52:56Z</time>
      </trkpt>
      <trkpt lat="46.83855" lon="5.59696">
        <ele>246</ele>
        <time>2020-03-04T09:52:57Z</time>
      </trkpt>
      <trkpt lat="46.83856" lon="5.597">
        <ele>246.2</ele>
        <time>2020-03-04T09:52:58Z</time>
      </trkpt>
      <trkpt lat="46.83858" lon="5.59703">
        <ele>246.2</ele>
        <time>2020-03-04T09:52:59Z</time>
      </trkpt>
      <trkpt lat="46.83859" lon="5.59707">
        <ele>246.2</ele>
        <time>2020-03-04T09:53:00Z</time>
      </trkpt>
      <trkpt lat="46.83862" lon="5.59711">
        <ele>246.2</ele>
        <time>2020-03-04T09:53:01Z</time>
      </trkpt>
      <trkpt lat="46.83864" lon="5.59715">
        <ele>246.2</ele>
        <time>2020-03-04T09:53:02Z</time>
      </trkpt>
      <trkpt lat="46.83867" lon="5.59719">
        <ele>246.2</ele>
        <time>2020-03-04T09:53:03Z</time>
      </trkpt>
      <trkpt lat="46.83869" lon="5.59724">
        <ele>246.2</ele>
        <time>2020-03-04T09:53:04Z</time>
      </trkpt>
      <trkpt lat="46.83871" lon="5.5973">
        <ele>246.2</ele>
        <time>2020-03-04T09:53:05Z</time>
      </trkpt>
      <trkpt lat="46.83874" lon="5.59735">
        <ele>246.2</ele>
        <time>2020-03-04T09:53:06Z</time>
      </trkpt>
      <trkpt lat="46.83877" lon="5.59741">
        <ele>246.2</ele>
        <time>2020-03-04T09:53:07Z</time>
      </trkpt>
      <trkpt lat="46.8388" lon="5.59747">
        <ele>246.2</ele>
        <time>2020-03-04T09:53:08Z</time>
      </trkpt>
      <trkpt lat="46.83883" lon="5.59753">
        <ele>246.2</ele>
        <time>2020-03-04T09:53:09Z</time>
      </trkpt>
      <trkpt lat="46.83885" lon="5.59758">
        <ele>246.2</ele>
        <time>2020-03-04T09:53:10Z</time>
      </trkpt>
      <trkpt lat="46.83888" lon="5.59764">
        <ele>246.2</ele>
        <time>2020-03-04T09:53:11Z</time>
      </trkpt>
      <trkpt lat="46.83891" lon="5.5977">
        <ele>246.2</ele>
        <time>2020-03-04T09:53:12Z</time>
      </trkpt>
      <trkpt lat="46.83894" lon="5.59776">
        <ele>246.2</ele>
        <time>2020-03-04T09:53:13Z</time>
      </trkpt>
      <trkpt lat="46.83897" lon="5.59782">
        <ele>246.4</ele>
        <time>2020-03-04T09:53:14Z</time>
      </trkpt>
      <trkpt lat="46.83899" lon="5.59788">
        <ele>246.4</ele>
        <time>2020-03-04T09:53:15Z</time>
      </trkpt>
      <trkpt lat="46.83902" lon="5.59794">
        <ele>246.4</ele>
        <time>2020-03-04T09:53:16Z</time>
      </trkpt>
      <trkpt lat="46.83905" lon="5.59799">
        <ele>246.6</ele>
        <time>2020-03-04T09:53:17Z</time>
      </trkpt>
      <trkpt lat="46.83908" lon="5.59804">
        <ele>246.6</ele>
        <time>2020-03-04T09:53:18Z</time>
      </trkpt>
      <trkpt lat="46.83911" lon="5.59808">
        <ele>247</ele>
        <time>2020-03-04T09:53:19Z</time>
      </trkpt>
      <trkpt lat="46.83913" lon="5.59813">
        <ele>247</ele>
        <time>2020-03-04T09:53:20Z</time>
      </trkpt>
      <trkpt lat="46.83915" lon="5.59817">
        <ele>247.4</ele>
        <time>2020-03-04T09:53:21Z</time>
      </trkpt>
      <trkpt lat="46.83917" lon="5.59821">
        <ele>247.6</ele>
        <time>2020-03-04T09:53:22Z</time>
      </trkpt>
      <trkpt lat="46.8392" lon="5.59824">
        <ele>247.8</ele>
        <time>2020-03-04T09:53:23Z</time>
      </trkpt>
      <trkpt lat="46.83922" lon="5.59828">
        <ele>248</ele>
        <time>2020-03-04T09:53:24Z</time>
      </trkpt>
      <trkpt lat="46.83924" lon="5.59831">
        <ele>248</ele>
        <time>2020-03-04T09:53:25Z</time>
      </trkpt>
      <trkpt lat="46.83926" lon="5.59835">
        <ele>248.4</ele>
        <time>2020-03-04T09:53:26Z</time>
      </trkpt>
      <trkpt lat="46.83929" lon="5.59839">
        <ele>248.6</ele>
        <time>2020-03-04T09:53:27Z</time>
      </trkpt>
      <trkpt lat="46.83931" lon="5.59843">
        <ele>248.8</ele>
        <time>2020-03-04T09:53:28Z</time>
      </trkpt>
      <trkpt lat="46.83934" lon="5.59847">
        <ele>249</ele>
        <time>2020-03-04T09:53:29Z</time>
      </trkpt>
      <trkpt lat="46.83937" lon="5.59851">
        <ele>249.2</ele>
        <time>2020-03-04T09:53:30Z</time>
      </trkpt>
      <trkpt lat="46.83939" lon="5.59855">
        <ele>249.6</ele>
        <time>2020-03-04T09:53:31Z</time>
      </trkpt>
      <trkpt lat="46.83942" lon="5.59859">
        <ele>249.6</ele>
        <time>2020-03-04T09:53:32Z</time>
      </trkpt>
      <trkpt lat="46.83945" lon="5.59863">
        <ele>249.8</ele>
        <time>2020-03-04T09:53:33Z</time>
      </trkpt>
      <trkpt lat="46.83948" lon="5.59868">
        <ele>249.8</ele>
        <time>2020-03-04T09:53:34Z</time>
      </trkpt>
      <trkpt lat="46.83951" lon="5.59872">
        <ele>250.2</ele>
        <time>2020-03-04T09:53:35Z</time>
      </trkpt>
      <trkpt lat="46.83954" lon="5.59876">
        <ele>250.4</ele>
        <time>2020-03-04T09:53:36Z</time>
      </trkpt>
      <trkpt lat="46.83956" lon="5.5988">
        <ele>250.8</ele>
        <time>2020-03-04T09:53:37Z</time>
      </trkpt>
      <trkpt lat="46.83959" lon="5.59884">
        <ele>251.2</ele>
        <time>2020-03-04T09:53:38Z</time>
      </trkpt>
      <trkpt lat="46.83962" lon="5.59888">
        <ele>251.6</ele>
        <time>2020-03-04T09:53:39Z</time>
      </trkpt>
      <trkpt lat="46.83964" lon="5.59892">
        <ele>251.8</ele>
        <time>2020-03-04T09:53:40Z</time>
      </trkpt>
      <trkpt lat="46.83966" lon="5.59895">
        <ele>252.2</ele>
        <time>2020-03-04T09:53:41Z</time>
      </trkpt>
      <trkpt lat="46.83968" lon="5.59899">
        <ele>252.4</ele>
        <time>2020-03-04T09:53:42Z</time>
      </trkpt>
      <trkpt lat="46.8397" lon="5.59901">
        <ele>252.6</ele>
        <time>2020-03-04T09:53:43Z</time>
      </trkpt>
      <trkpt lat="46.83971" lon="5.59904">
        <ele>252.8</ele>
        <time>2020-03-04T09:53:44Z</time>
      </trkpt>
      <trkpt lat="46.83973" lon="5.59906">
        <ele>253</ele>
        <time>2020-03-04T09:53:45Z</time>
      </trkpt>
      <trkpt lat="46.83975" lon="5.59908">
        <ele>253</ele>
        <time>2020-03-04T09:53:46Z</time>
      </trkpt>
      <trkpt lat="46.83976" lon="5.59911">
        <ele>253.4</ele>
        <time>2020-03-04T09:53:47Z</time>
      </trkpt>
      <trkpt lat="46.83978" lon="5.59913">
        <ele>253.4</ele>
        <time>2020-03-04T09:53:48Z</time>
      </trkpt>
      <trkpt lat="46.83979" lon="5.59916">
        <ele>253.8</ele>
        <time>2020-03-04T09:53:49Z</time>
      </trkpt>
      <trkpt lat="46.83981" lon="5.59919">
        <ele>253.8</ele>
        <time>2020-03-04T09:53:50Z</time>
      </trkpt>
      <trkpt lat="46.83983" lon="5.59922">
        <ele>254.2</ele>
        <time>2020-03-04T09:53:51Z</time>
      </trkpt>
      <trkpt lat="46.83984" lon="5.59925">
        <ele>254.4</ele>
        <time>2020-03-04T09:53:52Z</time>
      </trkpt>
      <trkpt lat="46.83986" lon="5.59928">
        <ele>254.4</ele>
        <time>2020-03-04T09:53:53Z</time>
      </trkpt>
      <trkpt lat="46.83988" lon="5.59932">
        <ele>254.6</ele>
        <time>2020-03-04T09:53:54Z</time>
      </trkpt>
      <trkpt lat="46.8399" lon="5.59935">
        <ele>254.6</ele>
        <time>2020-03-04T09:53:55Z</time>
      </trkpt>
      <trkpt lat="46.83992" lon="5.59938">
        <ele>255</ele>
        <time>2020-03-04T09:53:56Z</time>
      </trkpt>
      <trkpt lat="46.83993" lon="5.59942">
        <ele>255</ele>
        <time>2020-03-04T09:53:57Z</time>
      </trkpt>
      <trkpt lat="46.83995" lon="5.59945">
        <ele>255.4</ele>
        <time>2020-03-04T09:53:58Z</time>
      </trkpt>
      <trkpt lat="46.83997" lon="5.59948">
        <ele>255.4</ele>
        <time>2020-03-04T09:53:59Z</time>
      </trkpt>
      <trkpt lat="46.83999" lon="5.59952">
        <ele>255.6</ele>
        <time>2020-03-04T09:54:00Z</time>
      </trkpt>
      <trkpt lat="46.84002" lon="5.59955">
        <ele>255.6</ele>
        <time>2020-03-04T09:54:01Z</time>
      </trkpt>
      <trkpt lat="46.84004" lon="5.59959">
        <ele>256</ele>
        <time>2020-03-04T09:54:02Z</time>
      </trkpt>
      <trkpt lat="46.84006" lon="5.59963">
        <ele>256</ele>
        <time>2020-03-04T09:54:03Z</time>
      </trkpt>
      <trkpt lat="46.84008" lon="5.59967">
        <ele>256</ele>
        <time>2020-03-04T09:54:04Z</time>
      </trkpt>
      <trkpt lat="46.8401" lon="5.59971">
        <ele>256.2</ele>
        <time>2020-03-04T09:54:05Z</time>
      </trkpt>
      <trkpt lat="46.84012" lon="5.59976">
        <ele>256.2</ele>
        <time>2020-03-04T09:54:06Z</time>
      </trkpt>
      <trkpt lat="46.84015" lon="5.5998">
        <ele>256.2</ele>
        <time>2020-03-04T09:54:07Z</time>
      </trkpt>
      <trkpt lat="46.84017" lon="5.59984">
        <ele>256.2</ele>
        <time>2020-03-04T09:54:08Z</time>
      </trkpt>
      <trkpt lat="46.84019" lon="5.59988">
        <ele>256.6</ele>
        <time>2020-03-04T09:54:09Z</time>
      </trkpt>
      <trkpt lat="46.84021" lon="5.59992">
        <ele>256.6</ele>
        <time>2020-03-04T09:54:10Z</time>
      </trkpt>
      <trkpt lat="46.84024" lon="5.59996">
        <ele>256.8</ele>
        <time>2020-03-04T09:54:11Z</time>
      </trkpt>
      <trkpt lat="46.84026" lon="5.6">
        <ele>256.8</ele>
        <time>2020-03-04T09:54:12Z</time>
      </trkpt>
      <trkpt lat="46.84029" lon="5.60004">
        <ele>256.8</ele>
        <time>2020-03-04T09:54:13Z</time>
      </trkpt>
      <trkpt lat="46.84031" lon="5.60009">
        <ele>257</ele>
        <time>2020-03-04T09:54:14Z</time>
      </trkpt>
      <trkpt lat="46.84033" lon="5.60013">
        <ele>257</ele>
        <time>2020-03-04T09:54:15Z</time>
      </trkpt>
      <trkpt lat="46.84036" lon="5.60017">
        <ele>257</ele>
        <time>2020-03-04T09:54:16Z</time>
      </trkpt>
      <trkpt lat="46.84038" lon="5.60021">
        <ele>257.2</ele>
        <time>2020-03-04T09:54:17Z</time>
      </trkpt>
      <trkpt lat="46.84041" lon="5.60026">
        <ele>257.2</ele>
        <time>2020-03-04T09:54:18Z</time>
      </trkpt>
      <trkpt lat="46.84044" lon="5.6003">
        <ele>257.2</ele>
        <time>2020-03-04T09:54:19Z</time>
      </trkpt>
      <trkpt lat="46.84047" lon="5.60035">
        <ele>257.4</ele>
        <time>2020-03-04T09:54:20Z</time>
      </trkpt>
      <trkpt lat="46.8405" lon="5.60039">
        <ele>257.4</ele>
        <time>2020-03-04T09:54:21Z</time>
      </trkpt>
      <trkpt lat="46.84054" lon="5.60043">
        <ele>257.4</ele>
        <time>2020-03-04T09:54:22Z</time>
      </trkpt>
      <trkpt lat="46.84057" lon="5.60048">
        <ele>257.4</ele>
        <time>2020-03-04T09:54:23Z</time>
      </trkpt>
      <trkpt lat="46.8406" lon="5.60053">
        <ele>257.4</ele>
        <time>2020-03-04T09:54:24Z</time>
      </trkpt>
      <trkpt lat="46.84063" lon="5.60057">
        <ele>257.8</ele>
        <time>2020-03-04T09:54:25Z</time>
      </trkpt>
      <trkpt lat="46.84067" lon="5.60062">
        <ele>257.8</ele>
        <time>2020-03-04T09:54:26Z</time>
      </trkpt>
      <trkpt lat="46.8407" lon="5.60066">
        <ele>257.8</ele>
        <time>2020-03-04T09:54:27Z</time>
      </trkpt>
      <trkpt lat="46.84073" lon="5.60071">
        <ele>258</ele>
        <time>2020-03-04T09:54:28Z</time>
      </trkpt>
      <trkpt lat="46.84077" lon="5.60075">
        <ele>258</ele>
        <time>2020-03-04T09:54:29Z</time>
      </trkpt>
      <trkpt lat="46.8408" lon="5.60079">
        <ele>258</ele>
        <time>2020-03-04T09:54:30Z</time>
      </trkpt>
      <trkpt lat="46.84083" lon="5.60084">
        <ele>258</ele>
        <time>2020-03-04T09:54:31Z</time>
      </trkpt>
      <trkpt lat="46.84087" lon="5.60088">
        <ele>258.2</ele>
        <time>2020-03-04T09:54:32Z</time>
      </trkpt>
      <trkpt lat="46.8409" lon="5.60093">
        <ele>258.2</ele>
        <time>2020-03-04T09:54:33Z</time>
      </trkpt>
      <trkpt lat="46.84093" lon="5.60097">
        <ele>258.4</ele>
        <time>2020-03-04T09:54:34Z</time>
      </trkpt>
      <trkpt lat="46.84097" lon="5.60102">
        <ele>258.4</ele>
        <time>2020-03-04T09:54:35Z</time>
      </trkpt>
      <trkpt lat="46.841" lon="5.60107">
        <ele>258.6</ele>
        <time>2020-03-04T09:54:36Z</time>
      </trkpt>
      <trkpt lat="46.84103" lon="5.60111">
        <ele>258.6</ele>
        <time>2020-03-04T09:54:37Z</time>
      </trkpt>
      <trkpt lat="46.84106" lon="5.60116">
        <ele>259</ele>
        <time>2020-03-04T09:54:38Z</time>
      </trkpt>
      <trkpt lat="46.84109" lon="5.60121">
        <ele>259</ele>
        <time>2020-03-04T09:54:39Z</time>
      </trkpt>
      <trkpt lat="46.8411" lon="5.60126">
        <ele>259.4</ele>
        <time>2020-03-04T09:54:40Z</time>
      </trkpt>
      <trkpt lat="46.84112" lon="5.60131">
        <ele>259.6</ele>
        <time>2020-03-04T09:54:41Z</time>
      </trkpt>
      <trkpt lat="46.84113" lon="5.60136">
        <ele>259.8</ele>
        <time>2020-03-04T09:54:42Z</time>
      </trkpt>
      <trkpt lat="46.84115" lon="5.6014">
        <ele>260</ele>
        <time>2020-03-04T09:54:43Z</time>
      </trkpt>
      <trkpt lat="46.84116" lon="5.60145">
        <ele>260.2</ele>
        <time>2020-03-04T09:54:44Z</time>
      </trkpt>
      <trkpt lat="46.84117" lon="5.6015">
        <ele>260.4</ele>
        <time>2020-03-04T09:54:45Z</time>
      </trkpt>
      <trkpt lat="46.84118" lon="5.60155">
        <ele>260.8</ele>
        <time>2020-03-04T09:54:46Z</time>
      </trkpt>
      <trkpt lat="46.84119" lon="5.60159">
        <ele>260.8</ele>
        <time>2020-03-04T09:54:47Z</time>
      </trkpt>
      <trkpt lat="46.8412" lon="5.60164">
        <ele>261.2</ele>
        <time>2020-03-04T09:54:48Z</time>
      </trkpt>
      <trkpt lat="46.84121" lon="5.60169">
        <ele>261.4</ele>
        <time>2020-03-04T09:54:49Z</time>
      </trkpt>
      <trkpt lat="46.84122" lon="5.60173">
        <ele>261.8</ele>
        <time>2020-03-04T09:54:50Z</time>
      </trkpt>
      <trkpt lat="46.84124" lon="5.60177">
        <ele>262</ele>
        <time>2020-03-04T09:54:51Z</time>
      </trkpt>
      <trkpt lat="46.84125" lon="5.60181">
        <ele>262.4</ele>
        <time>2020-03-04T09:54:52Z</time>
      </trkpt>
      <trkpt lat="46.84126" lon="5.60184">
        <ele>262.6</ele>
        <time>2020-03-04T09:54:53Z</time>
      </trkpt>
      <trkpt lat="46.84127" lon="5.60187">
        <ele>262.6</ele>
        <time>2020-03-04T09:54:54Z</time>
      </trkpt>
      <trkpt lat="46.84129" lon="5.6019">
        <ele>263</ele>
        <time>2020-03-04T09:54:55Z</time>
      </trkpt>
      <trkpt lat="46.8413" lon="5.60193">
        <ele>263.4</ele>
        <time>2020-03-04T09:54:56Z</time>
      </trkpt>
      <trkpt lat="46.84132" lon="5.60196">
        <ele>263.6</ele>
        <time>2020-03-04T09:54:57Z</time>
      </trkpt>
      <trkpt lat="46.84133" lon="5.60199">
        <ele>263.8</ele>
        <time>2020-03-04T09:54:58Z</time>
      </trkpt>
      <trkpt lat="46.84134" lon="5.602">
        <ele>264</ele>
        <time>2020-03-04T09:54:59Z</time>
      </trkpt>
      <trkpt lat="46.84136" lon="5.60202">
        <ele>264</ele>
        <time>2020-03-04T09:55:00Z</time>
      </trkpt>
      <trkpt lat="46.84137" lon="5.60204">
        <ele>264.4</ele>
        <time>2020-03-04T09:55:01Z</time>
      </trkpt>
      <trkpt lat="46.84139" lon="5.60207">
        <ele>264.6</ele>
        <time>2020-03-04T09:55:02Z</time>
      </trkpt>
      <trkpt lat="46.8414" lon="5.60209">
        <ele>264.8</ele>
        <time>2020-03-04T09:55:03Z</time>
      </trkpt>
      <trkpt lat="46.84142" lon="5.60211">
        <ele>264.8</ele>
        <time>2020-03-04T09:55:04Z</time>
      </trkpt>
      <trkpt lat="46.84144" lon="5.60213">
        <ele>265.2</ele>
        <time>2020-03-04T09:55:05Z</time>
      </trkpt>
      <trkpt lat="46.84146" lon="5.60215">
        <ele>265.2</ele>
        <time>2020-03-04T09:55:06Z</time>
      </trkpt>
      <trkpt lat="46.84148" lon="5.60217">
        <ele>265.4</ele>
        <time>2020-03-04T09:55:07Z</time>
      </trkpt>
      <trkpt lat="46.8415" lon="5.60218">
        <ele>265.4</ele>
        <time>2020-03-04T09:55:08Z</time>
      </trkpt>
      <trkpt lat="46.84152" lon="5.6022">
        <ele>265.8</ele>
        <time>2020-03-04T09:55:09Z</time>
      </trkpt>
      <trkpt lat="46.84154" lon="5.60222">
        <ele>265.8</ele>
        <time>2020-03-04T09:55:10Z</time>
      </trkpt>
      <trkpt lat="46.84156" lon="5.60224">
        <ele>266.2</ele>
        <time>2020-03-04T09:55:11Z</time>
      </trkpt>
      <trkpt lat="46.84158" lon="5.60225">
        <ele>266.2</ele>
        <time>2020-03-04T09:55:12Z</time>
      </trkpt>
      <trkpt lat="46.8416" lon="5.60227">
        <ele>266.4</ele>
        <time>2020-03-04T09:55:13Z</time>
      </trkpt>
      <trkpt lat="46.84162" lon="5.60229">
        <ele>266.4</ele>
        <time>2020-03-04T09:55:14Z</time>
      </trkpt>
      <trkpt lat="46.84163" lon="5.60231">
        <ele>266.8</ele>
        <time>2020-03-04T09:55:15Z</time>
      </trkpt>
      <trkpt lat="46.84165" lon="5.60233">
        <ele>267</ele>
        <time>2020-03-04T09:55:16Z</time>
      </trkpt>
      <trkpt lat="46.84167" lon="5.60235">
        <ele>267</ele>
        <time>2020-03-04T09:55:17Z</time>
      </trkpt>
      <trkpt lat="46.84169" lon="5.60238">
        <ele>267.2</ele>
        <time>2020-03-04T09:55:18Z</time>
      </trkpt>
      <trkpt lat="46.84171" lon="5.6024">
        <ele>267.2</ele>
        <time>2020-03-04T09:55:19Z</time>
      </trkpt>
      <trkpt lat="46.84173" lon="5.60242">
        <ele>267.6</ele>
        <time>2020-03-04T09:55:20Z</time>
      </trkpt>
      <trkpt lat="46.84175" lon="5.60245">
        <ele>267.6</ele>
        <time>2020-03-04T09:55:21Z</time>
      </trkpt>
      <trkpt lat="46.84177" lon="5.60248">
        <ele>267.6</ele>
        <time>2020-03-04T09:55:22Z</time>
      </trkpt>
      <trkpt lat="46.8418" lon="5.60251">
        <ele>267.8</ele>
        <time>2020-03-04T09:55:23Z</time>
      </trkpt>
      <trkpt lat="46.84182" lon="5.60253">
        <ele>267.8</ele>
        <time>2020-03-04T09:55:24Z</time>
      </trkpt>
      <trkpt lat="46.84184" lon="5.60256">
        <ele>267.8</ele>
        <time>2020-03-04T09:55:25Z</time>
      </trkpt>
      <trkpt lat="46.84186" lon="5.60259">
        <ele>267.8</ele>
        <time>2020-03-04T09:55:26Z</time>
      </trkpt>
      <trkpt lat="46.84188" lon="5.60262">
        <ele>268</ele>
        <time>2020-03-04T09:55:27Z</time>
      </trkpt>
      <trkpt lat="46.8419" lon="5.60265">
        <ele>268</ele>
        <time>2020-03-04T09:55:28Z</time>
      </trkpt>
      <trkpt lat="46.84192" lon="5.60268">
        <ele>268.4</ele>
        <time>2020-03-04T09:55:29Z</time>
      </trkpt>
      <trkpt lat="46.84194" lon="5.60271">
        <ele>268.4</ele>
        <time>2020-03-04T09:55:30Z</time>
      </trkpt>
      <trkpt lat="46.84196" lon="5.60274">
        <ele>268.8</ele>
        <time>2020-03-04T09:55:31Z</time>
      </trkpt>
      <trkpt lat="46.84198" lon="5.60278">
        <ele>268.8</ele>
        <time>2020-03-04T09:55:32Z</time>
      </trkpt>
      <trkpt lat="46.842" lon="5.60281">
        <ele>269</ele>
        <time>2020-03-04T09:55:33Z</time>
      </trkpt>
      <trkpt lat="46.84203" lon="5.60284">
        <ele>269.2</ele>
        <time>2020-03-04T09:55:34Z</time>
      </trkpt>
      <trkpt lat="46.84205" lon="5.60287">
        <ele>269.2</ele>
        <time>2020-03-04T09:55:35Z</time>
      </trkpt>
      <trkpt lat="46.84207" lon="5.60289">
        <ele>269.4</ele>
        <time>2020-03-04T09:55:36Z</time>
      </trkpt>
      <trkpt lat="46.8421" lon="5.60292">
        <ele>269.4</ele>
        <time>2020-03-04T09:55:37Z</time>
      </trkpt>
      <trkpt lat="46.84212" lon="5.60295">
        <ele>269.6</ele>
        <time>2020-03-04T09:55:38Z</time>
      </trkpt>
      <trkpt lat="46.84214" lon="5.60297">
        <ele>269.6</ele>
        <time>2020-03-04T09:55:39Z</time>
      </trkpt>
      <trkpt lat="46.84216" lon="5.603">
        <ele>270</ele>
        <time>2020-03-04T09:55:40Z</time>
      </trkpt>
      <trkpt lat="46.84218" lon="5.60302">
        <ele>270</ele>
        <time>2020-03-04T09:55:41Z</time>
      </trkpt>
      <trkpt lat="46.8422" lon="5.60304">
        <ele>270</ele>
        <time>2020-03-04T09:55:42Z</time>
      </trkpt>
      <trkpt lat="46.84223" lon="5.60307">
        <ele>270.2</ele>
        <time>2020-03-04T09:55:43Z</time>
      </trkpt>
      <trkpt lat="46.84225" lon="5.6031">
        <ele>270.2</ele>
        <time>2020-03-04T09:55:44Z</time>
      </trkpt>
      <trkpt lat="46.84228" lon="5.60313">
        <ele>270.2</ele>
        <time>2020-03-04T09:55:45Z</time>
      </trkpt>
      <trkpt lat="46.84231" lon="5.60316">
        <ele>270.2</ele>
        <time>2020-03-04T09:55:46Z</time>
      </trkpt>
      <trkpt lat="46.84234" lon="5.60319">
        <ele>270.2</ele>
        <time>2020-03-04T09:55:47Z</time>
      </trkpt>
      <trkpt lat="46.84238" lon="5.60324">
        <ele>270.2</ele>
        <time>2020-03-04T09:55:48Z</time>
      </trkpt>
      <trkpt lat="46.84242" lon="5.60328">
        <ele>269.8</ele>
        <time>2020-03-04T09:55:49Z</time>
      </trkpt>
      <trkpt lat="46.84246" lon="5.60333">
        <ele>269.6</ele>
        <time>2020-03-04T09:55:50Z</time>
      </trkpt>
      <trkpt lat="46.84251" lon="5.60339">
        <ele>269.4</ele>
        <time>2020-03-04T09:55:51Z</time>
      </trkpt>
      <trkpt lat="46.84256" lon="5.60345">
        <ele>269.2</ele>
        <time>2020-03-04T09:55:52Z</time>
      </trkpt>
      <trkpt lat="46.84261" lon="5.60351">
        <ele>268.8</ele>
        <time>2020-03-04T09:55:53Z</time>
      </trkpt>
      <trkpt lat="46.84268" lon="5.60358">
        <ele>268.4</ele>
        <time>2020-03-04T09:55:54Z</time>
      </trkpt>
      <trkpt lat="46.84275" lon="5.60365">
        <ele>267.8</ele>
        <time>2020-03-04T09:55:55Z</time>
      </trkpt>
      <trkpt lat="46.84283" lon="5.6037">
        <ele>267.2</ele>
        <time>2020-03-04T09:55:56Z</time>
      </trkpt>
      <trkpt lat="46.84291" lon="5.60374">
        <ele>266.8</ele>
        <time>2020-03-04T09:55:57Z</time>
      </trkpt>
      <trkpt lat="46.843" lon="5.60378">
        <ele>266.4</ele>
        <time>2020-03-04T09:55:58Z</time>
      </trkpt>
      <trkpt lat="46.84308" lon="5.6038">
        <ele>266.2</ele>
        <time>2020-03-04T09:55:59Z</time>
      </trkpt>
      <trkpt lat="46.84317" lon="5.60383">
        <ele>266</ele>
        <time>2020-03-04T09:56:00Z</time>
      </trkpt>
      <trkpt lat="46.84325" lon="5.60385">
        <ele>265.6</ele>
        <time>2020-03-04T09:56:01Z</time>
      </trkpt>
      <trkpt lat="46.84333" lon="5.60389">
        <ele>265.6</ele>
        <time>2020-03-04T09:56:02Z</time>
      </trkpt>
      <trkpt lat="46.84341" lon="5.60392">
        <ele>265.4</ele>
        <time>2020-03-04T09:56:03Z</time>
      </trkpt>
      <trkpt lat="46.84349" lon="5.60395">
        <ele>265.4</ele>
        <time>2020-03-04T09:56:04Z</time>
      </trkpt>
      <trkpt lat="46.84356" lon="5.60399">
        <ele>265.2</ele>
        <time>2020-03-04T09:56:05Z</time>
      </trkpt>
      <trkpt lat="46.84363" lon="5.60404">
        <ele>265.2</ele>
        <time>2020-03-04T09:56:06Z</time>
      </trkpt>
      <trkpt lat="46.8437" lon="5.6041">
        <ele>265.2</ele>
        <time>2020-03-04T09:56:07Z</time>
      </trkpt>
      <trkpt lat="46.84376" lon="5.60416">
        <ele>265.4</ele>
        <time>2020-03-04T09:56:08Z</time>
      </trkpt>
      <trkpt lat="46.84381" lon="5.60424">
        <ele>265.4</ele>
        <time>2020-03-04T09:56:09Z</time>
      </trkpt>
      <trkpt lat="46.84385" lon="5.60432">
        <ele>265.8</ele>
        <time>2020-03-04T09:56:10Z</time>
      </trkpt>
      <trkpt lat="46.84389" lon="5.6044">
        <ele>265.8</ele>
        <time>2020-03-04T09:56:11Z</time>
      </trkpt>
      <trkpt lat="46.84392" lon="5.60448">
        <ele>266</ele>
        <time>2020-03-04T09:56:12Z</time>
      </trkpt>
      <trkpt lat="46.84395" lon="5.60456">
        <ele>266</ele>
        <time>2020-03-04T09:56:13Z</time>
      </trkpt>
      <trkpt lat="46.84398" lon="5.60463">
        <ele>266.4</ele>
        <time>2020-03-04T09:56:14Z</time>
      </trkpt>
      <trkpt lat="46.844" lon="5.6047">
        <ele>266.6</ele>
        <time>2020-03-04T09:56:15Z</time>
      </trkpt>
      <trkpt lat="46.84403" lon="5.60476">
        <ele>267</ele>
        <time>2020-03-04T09:56:16Z</time>
      </trkpt>
      <trkpt lat="46.84405" lon="5.60482">
        <ele>267.2</ele>
        <time>2020-03-04T09:56:17Z</time>
      </trkpt>
      <trkpt lat="46.84407" lon="5.60487">
        <ele>267.6</ele>
        <time>2020-03-04T09:56:18Z</time>
      </trkpt>
      <trkpt lat="46.84409" lon="5.60492">
        <ele>267.8</ele>
        <time>2020-03-04T09:56:19Z</time>
      </trkpt>
      <trkpt lat="46.84411" lon="5.60497">
        <ele>268</ele>
        <time>2020-03-04T09:56:20Z</time>
      </trkpt>
      <trkpt lat="46.84413" lon="5.60502">
        <ele>268.2</ele>
        <time>2020-03-04T09:56:21Z</time>
      </trkpt>
      <trkpt lat="46.84414" lon="5.60507">
        <ele>268.6</ele>
        <time>2020-03-04T09:56:22Z</time>
      </trkpt>
      <trkpt lat="46.84416" lon="5.60512">
        <ele>268.8</ele>
        <time>2020-03-04T09:56:23Z</time>
      </trkpt>
      <trkpt lat="46.84418" lon="5.60517">
        <ele>269</ele>
        <time>2020-03-04T09:56:24Z</time>
      </trkpt>
      <trkpt lat="46.8442" lon="5.60521">
        <ele>269.2</ele>
        <time>2020-03-04T09:56:25Z</time>
      </trkpt>
      <trkpt lat="46.84421" lon="5.60526">
        <ele>269.4</ele>
        <time>2020-03-04T09:56:26Z</time>
      </trkpt>
      <trkpt lat="46.84423" lon="5.6053">
        <ele>269.8</ele>
        <time>2020-03-04T09:56:27Z</time>
      </trkpt>
      <trkpt lat="46.84424" lon="5.60534">
        <ele>270</ele>
        <time>2020-03-04T09:56:28Z</time>
      </trkpt>
      <trkpt lat="46.84426" lon="5.60538">
        <ele>270.2</ele>
        <time>2020-03-04T09:56:29Z</time>
      </trkpt>
      <trkpt lat="46.84427" lon="5.60541">
        <ele>270.6</ele>
        <time>2020-03-04T09:56:30Z</time>
      </trkpt>
      <trkpt lat="46.84427" lon="5.60544">
        <ele>270.8</ele>
        <time>2020-03-04T09:56:31Z</time>
      </trkpt>
      <trkpt lat="46.84428" lon="5.60547">
        <ele>270.8</ele>
        <time>2020-03-04T09:56:32Z</time>
      </trkpt>
      <trkpt lat="46.84429" lon="5.6055">
        <ele>271.2</ele>
        <time>2020-03-04T09:56:33Z</time>
      </trkpt>
      <trkpt lat="46.8443" lon="5.60554">
        <ele>271.2</ele>
        <time>2020-03-04T09:56:34Z</time>
      </trkpt>
      <trkpt lat="46.84431" lon="5.60557">
        <ele>271.6</ele>
        <time>2020-03-04T09:56:35Z</time>
      </trkpt>
      <trkpt lat="46.84432" lon="5.60561">
        <ele>271.8</ele>
        <time>2020-03-04T09:56:36Z</time>
      </trkpt>
      <trkpt lat="46.84433" lon="5.60564">
        <ele>272.2</ele>
        <time>2020-03-04T09:56:37Z</time>
      </trkpt>
      <trkpt lat="46.84433" lon="5.60568">
        <ele>272.4</ele>
        <time>2020-03-04T09:56:38Z</time>
      </trkpt>
      <trkpt lat="46.84434" lon="5.60571">
        <ele>272.6</ele>
        <time>2020-03-04T09:56:39Z</time>
      </trkpt>
      <trkpt lat="46.84435" lon="5.60575">
        <ele>272.8</ele>
        <time>2020-03-04T09:56:40Z</time>
      </trkpt>
      <trkpt lat="46.84436" lon="5.60578">
        <ele>273</ele>
        <time>2020-03-04T09:56:41Z</time>
      </trkpt>
      <trkpt lat="46.84437" lon="5.60581">
        <ele>273.4</ele>
        <time>2020-03-04T09:56:42Z</time>
      </trkpt>
      <trkpt lat="46.84438" lon="5.60584">
        <ele>273.4</ele>
        <time>2020-03-04T09:56:43Z</time>
      </trkpt>
      <trkpt lat="46.84439" lon="5.60588">
        <ele>273.8</ele>
        <time>2020-03-04T09:56:44Z</time>
      </trkpt>
      <trkpt lat="46.84439" lon="5.60591">
        <ele>274</ele>
        <time>2020-03-04T09:56:45Z</time>
      </trkpt>
      <trkpt lat="46.8444" lon="5.60595">
        <ele>274</ele>
        <time>2020-03-04T09:56:46Z</time>
      </trkpt>
      <trkpt lat="46.84441" lon="5.60598">
        <ele>274.2</ele>
        <time>2020-03-04T09:56:47Z</time>
      </trkpt>
      <trkpt lat="46.84442" lon="5.60602">
        <ele>274.2</ele>
        <time>2020-03-04T09:56:48Z</time>
      </trkpt>
      <trkpt lat="46.84442" lon="5.60605">
        <ele>274.4</ele>
        <time>2020-03-04T09:56:49Z</time>
      </trkpt>
      <trkpt lat="46.84443" lon="5.60608">
        <ele>274.4</ele>
        <time>2020-03-04T09:56:50Z</time>
      </trkpt>
      <trkpt lat="46.84444" lon="5.6061">
        <ele>274.8</ele>
        <time>2020-03-04T09:56:51Z</time>
      </trkpt>
      <trkpt lat="46.84445" lon="5.60613">
        <ele>275</ele>
        <time>2020-03-04T09:56:52Z</time>
      </trkpt>
      <trkpt lat="46.84446" lon="5.60616">
        <ele>275.2</ele>
        <time>2020-03-04T09:56:53Z</time>
      </trkpt>
      <trkpt lat="46.84446" lon="5.6062">
        <ele>275.2</ele>
        <time>2020-03-04T09:56:54Z</time>
      </trkpt>
      <trkpt lat="46.84447" lon="5.60623">
        <ele>275.6</ele>
        <time>2020-03-04T09:56:55Z</time>
      </trkpt>
      <trkpt lat="46.84448" lon="5.60626">
        <ele>275.6</ele>
        <time>2020-03-04T09:56:56Z</time>
      </trkpt>
      <trkpt lat="46.84448" lon="5.60629">
        <ele>275.8</ele>
        <time>2020-03-04T09:56:57Z</time>
      </trkpt>
      <trkpt lat="46.8445" lon="5.60632">
        <ele>275.8</ele>
        <time>2020-03-04T09:56:58Z</time>
      </trkpt>
      <trkpt lat="46.84451" lon="5.60635">
        <ele>275.8</ele>
        <time>2020-03-04T09:56:59Z</time>
      </trkpt>
      <trkpt lat="46.84452" lon="5.60639">
        <ele>276.2</ele>
        <time>2020-03-04T09:57:00Z</time>
      </trkpt>
      <trkpt lat="46.84453" lon="5.60642">
        <ele>276.2</ele>
        <time>2020-03-04T09:57:01Z</time>
      </trkpt>
      <trkpt lat="46.84453" lon="5.60646">
        <ele>276.2</ele>
        <time>2020-03-04T09:57:02Z</time>
      </trkpt>
      <trkpt lat="46.84454" lon="5.60649">
        <ele>276.4</ele>
        <time>2020-03-04T09:57:03Z</time>
      </trkpt>
      <trkpt lat="46.84455" lon="5.60652">
        <ele>276.4</ele>
        <time>2020-03-04T09:57:04Z</time>
      </trkpt>
      <trkpt lat="46.84456" lon="5.60656">
        <ele>276.6</ele>
        <time>2020-03-04T09:57:05Z</time>
      </trkpt>
      <trkpt lat="46.84458" lon="5.60659">
        <ele>276.6</ele>
        <time>2020-03-04T09:57:06Z</time>
      </trkpt>
      <trkpt lat="46.84459" lon="5.60662">
        <ele>276.8</ele>
        <time>2020-03-04T09:57:07Z</time>
      </trkpt>
      <trkpt lat="46.8446" lon="5.60666">
        <ele>276.8</ele>
        <time>2020-03-04T09:57:08Z</time>
      </trkpt>
      <trkpt lat="46.84462" lon="5.6067">
        <ele>276.8</ele>
        <time>2020-03-04T09:57:09Z</time>
      </trkpt>
      <trkpt lat="46.84463" lon="5.60674">
        <ele>277</ele>
        <time>2020-03-04T09:57:10Z</time>
      </trkpt>
      <trkpt lat="46.84464" lon="5.60678">
        <ele>277</ele>
        <time>2020-03-04T09:57:11Z</time>
      </trkpt>
      <trkpt lat="46.84465" lon="5.60682">
        <ele>277</ele>
        <time>2020-03-04T09:57:12Z</time>
      </trkpt>
      <trkpt lat="46.84467" lon="5.60687">
        <ele>277.2</ele>
        <time>2020-03-04T09:57:13Z</time>
      </trkpt>
      <trkpt lat="46.84468" lon="5.60691">
        <ele>277.2</ele>
        <time>2020-03-04T09:57:14Z</time>
      </trkpt>
      <trkpt lat="46.84469" lon="5.60695">
        <ele>277.2</ele>
        <time>2020-03-04T09:57:15Z</time>
      </trkpt>
      <trkpt lat="46.8447" lon="5.60699">
        <ele>277.4</ele>
        <time>2020-03-04T09:57:16Z</time>
      </trkpt>
      <trkpt lat="46.84471" lon="5.60704">
        <ele>277.4</ele>
        <time>2020-03-04T09:57:17Z</time>
      </trkpt>
      <trkpt lat="46.84473" lon="5.60708">
        <ele>277.4</ele>
        <time>2020-03-04T09:57:18Z</time>
      </trkpt>
      <trkpt lat="46.84475" lon="5.60712">
        <ele>277.8</ele>
        <time>2020-03-04T09:57:19Z</time>
      </trkpt>
      <trkpt lat="46.84476" lon="5.60716">
        <ele>277.8</ele>
        <time>2020-03-04T09:57:20Z</time>
      </trkpt>
      <trkpt lat="46.84478" lon="5.60721">
        <ele>278</ele>
        <time>2020-03-04T09:57:21Z</time>
      </trkpt>
      <trkpt lat="46.84479" lon="5.60725">
        <ele>278</ele>
        <time>2020-03-04T09:57:22Z</time>
      </trkpt>
      <trkpt lat="46.84481" lon="5.6073">
        <ele>278</ele>
        <time>2020-03-04T09:57:23Z</time>
      </trkpt>
      <trkpt lat="46.84482" lon="5.60734">
        <ele>278</ele>
        <time>2020-03-04T09:57:24Z</time>
      </trkpt>
      <trkpt lat="46.84483" lon="5.60738">
        <ele>278.2</ele>
        <time>2020-03-04T09:57:25Z</time>
      </trkpt>
      <trkpt lat="46.84484" lon="5.60742">
        <ele>278.2</ele>
        <time>2020-03-04T09:57:26Z</time>
      </trkpt>
      <trkpt lat="46.84486" lon="5.60747">
        <ele>278.2</ele>
        <time>2020-03-04T09:57:27Z</time>
      </trkpt>
      <trkpt lat="46.84487" lon="5.60751">
        <ele>278.2</ele>
        <time>2020-03-04T09:57:28Z</time>
      </trkpt>
      <trkpt lat="46.84489" lon="5.60756">
        <ele>278.2</ele>
        <time>2020-03-04T09:57:29Z</time>
      </trkpt>
      <trkpt lat="46.84491" lon="5.60761">
        <ele>278.2</ele>
        <time>2020-03-04T09:57:30Z</time>
      </trkpt>
      <trkpt lat="46.84492" lon="5.60765">
        <ele>278.4</ele>
        <time>2020-03-04T09:57:31Z</time>
      </trkpt>
      <trkpt lat="46.84493" lon="5.6077">
        <ele>278.4</ele>
        <time>2020-03-04T09:57:32Z</time>
      </trkpt>
      <trkpt lat="46.84495" lon="5.60773">
        <ele>278.4</ele>
        <time>2020-03-04T09:57:33Z</time>
      </trkpt>
      <trkpt lat="46.84496" lon="5.60777">
        <ele>278.6</ele>
        <time>2020-03-04T09:57:34Z</time>
      </trkpt>
      <trkpt lat="46.84497" lon="5.6078">
        <ele>278.6</ele>
        <time>2020-03-04T09:57:35Z</time>
      </trkpt>
      <trkpt lat="46.84499" lon="5.60782">
        <ele>279</ele>
        <time>2020-03-04T09:57:36Z</time>
      </trkpt>
      <trkpt lat="46.84501" lon="5.60783">
        <ele>279</ele>
        <time>2020-03-04T09:57:37Z</time>
      </trkpt>
      <trkpt lat="46.84504" lon="5.60783">
        <ele>279.2</ele>
        <time>2020-03-04T09:57:38Z</time>
      </trkpt>
      <trkpt lat="46.84507" lon="5.60782">
        <ele>279.2</ele>
        <time>2020-03-04T09:57:39Z</time>
      </trkpt>
      <trkpt lat="46.8451" lon="5.60781">
        <ele>279.2</ele>
        <time>2020-03-04T09:57:40Z</time>
      </trkpt>
      <trkpt lat="46.84513" lon="5.6078">
        <ele>279.2</ele>
        <time>2020-03-04T09:57:41Z</time>
      </trkpt>
      <trkpt lat="46.84517" lon="5.60779">
        <ele>279.2</ele>
        <time>2020-03-04T09:57:42Z</time>
      </trkpt>
      <trkpt lat="46.84521" lon="5.60777">
        <ele>279.2</ele>
        <time>2020-03-04T09:57:43Z</time>
      </trkpt>
      <trkpt lat="46.84525" lon="5.60775">
        <ele>279.2</ele>
        <time>2020-03-04T09:57:44Z</time>
      </trkpt>
      <trkpt lat="46.84529" lon="5.60774">
        <ele>279.2</ele>
        <time>2020-03-04T09:57:45Z</time>
      </trkpt>
      <trkpt lat="46.84533" lon="5.60771">
        <ele>279.2</ele>
        <time>2020-03-04T09:57:46Z</time>
      </trkpt>
      <trkpt lat="46.84537" lon="5.60769">
        <ele>279.2</ele>
        <time>2020-03-04T09:57:47Z</time>
      </trkpt>
      <trkpt lat="46.84541" lon="5.60767">
        <ele>279</ele>
        <time>2020-03-04T09:57:48Z</time>
      </trkpt>
      <trkpt lat="46.84545" lon="5.60764">
        <ele>279</ele>
        <time>2020-03-04T09:57:49Z</time>
      </trkpt>
      <trkpt lat="46.84549" lon="5.60762">
        <ele>279</ele>
        <time>2020-03-04T09:57:50Z</time>
      </trkpt>
      <trkpt lat="46.84553" lon="5.6076">
        <ele>279</ele>
        <time>2020-03-04T09:57:51Z</time>
      </trkpt>
      <trkpt lat="46.84558" lon="5.60758">
        <ele>279</ele>
        <time>2020-03-04T09:57:52Z</time>
      </trkpt>
      <trkpt lat="46.84562" lon="5.60757">
        <ele>278.8</ele>
        <time>2020-03-04T09:57:53Z</time>
      </trkpt>
      <trkpt lat="46.84567" lon="5.60754">
        <ele>278.8</ele>
        <time>2020-03-04T09:57:54Z</time>
      </trkpt>
      <trkpt lat="46.84572" lon="5.60752">
        <ele>278.8</ele>
        <time>2020-03-04T09:57:55Z</time>
      </trkpt>
      <trkpt lat="46.84576" lon="5.6075">
        <ele>278.8</ele>
        <time>2020-03-04T09:57:56Z</time>
      </trkpt>
      <trkpt lat="46.84581" lon="5.60749">
        <ele>278.8</ele>
        <time>2020-03-04T09:57:57Z</time>
      </trkpt>
      <trkpt lat="46.84586" lon="5.60746">
        <ele>278.8</ele>
        <time>2020-03-04T09:57:58Z</time>
      </trkpt>
      <trkpt lat="46.8459" lon="5.60743">
        <ele>278.8</ele>
        <time>2020-03-04T09:57:59Z</time>
      </trkpt>
      <trkpt lat="46.84595" lon="5.6074">
        <ele>278.8</ele>
        <time>2020-03-04T09:58:00Z</time>
      </trkpt>
      <trkpt lat="46.84599" lon="5.60738">
        <ele>278.8</ele>
        <time>2020-03-04T09:58:01Z</time>
      </trkpt>
      <trkpt lat="46.84604" lon="5.60734">
        <ele>278.8</ele>
        <time>2020-03-04T09:58:02Z</time>
      </trkpt>
      <trkpt lat="46.84608" lon="5.60731">
        <ele>278.8</ele>
        <time>2020-03-04T09:58:03Z</time>
      </trkpt>
      <trkpt lat="46.84613" lon="5.60728">
        <ele>278.8</ele>
        <time>2020-03-04T09:58:04Z</time>
      </trkpt>
      <trkpt lat="46.84618" lon="5.60724">
        <ele>278.8</ele>
        <time>2020-03-04T09:58:05Z</time>
      </trkpt>
      <trkpt lat="46.84624" lon="5.60721">
        <ele>278.8</ele>
        <time>2020-03-04T09:58:06Z</time>
      </trkpt>
      <trkpt lat="46.84629" lon="5.60718">
        <ele>278.8</ele>
        <time>2020-03-04T09:58:07Z</time>
      </trkpt>
      <trkpt lat="46.84634" lon="5.60716">
        <ele>278.8</ele>
        <time>2020-03-04T09:58:08Z</time>
      </trkpt>
      <trkpt lat="46.8464" lon="5.60714">
        <ele>278.8</ele>
        <time>2020-03-04T09:58:09Z</time>
      </trkpt>
      <trkpt lat="46.84645" lon="5.60711">
        <ele>278.8</ele>
        <time>2020-03-04T09:58:10Z</time>
      </trkpt>
      <trkpt lat="46.84651" lon="5.60708">
        <ele>278.8</ele>
        <time>2020-03-04T09:58:11Z</time>
      </trkpt>
      <trkpt lat="46.84656" lon="5.60706">
        <ele>278.8</ele>
        <time>2020-03-04T09:58:12Z</time>
      </trkpt>
      <trkpt lat="46.84662" lon="5.60703">
        <ele>279</ele>
        <time>2020-03-04T09:58:13Z</time>
      </trkpt>
      <trkpt lat="46.84667" lon="5.60701">
        <ele>279</ele>
        <time>2020-03-04T09:58:14Z</time>
      </trkpt>
      <trkpt lat="46.84672" lon="5.60699">
        <ele>279</ele>
        <time>2020-03-04T09:58:15Z</time>
      </trkpt>
      <trkpt lat="46.84677" lon="5.60697">
        <ele>279.2</ele>
        <time>2020-03-04T09:58:16Z</time>
      </trkpt>
      <trkpt lat="46.84682" lon="5.60695">
        <ele>279.2</ele>
        <time>2020-03-04T09:58:17Z</time>
      </trkpt>
      <trkpt lat="46.84687" lon="5.60693">
        <ele>279.2</ele>
        <time>2020-03-04T09:58:18Z</time>
      </trkpt>
      <trkpt lat="46.84692" lon="5.6069">
        <ele>279.2</ele>
        <time>2020-03-04T09:58:19Z</time>
      </trkpt>
      <trkpt lat="46.84697" lon="5.60688">
        <ele>279.6</ele>
        <time>2020-03-04T09:58:20Z</time>
      </trkpt>
      <trkpt lat="46.84701" lon="5.60686">
        <ele>279.8</ele>
        <time>2020-03-04T09:58:21Z</time>
      </trkpt>
      <trkpt lat="46.84706" lon="5.60684">
        <ele>279.8</ele>
        <time>2020-03-04T09:58:22Z</time>
      </trkpt>
      <trkpt lat="46.8471" lon="5.60683">
        <ele>280</ele>
        <time>2020-03-04T09:58:23Z</time>
      </trkpt>
      <trkpt lat="46.84715" lon="5.60681">
        <ele>280</ele>
        <time>2020-03-04T09:58:24Z</time>
      </trkpt>
      <trkpt lat="46.84719" lon="5.60679">
        <ele>280</ele>
        <time>2020-03-04T09:58:25Z</time>
      </trkpt>
      <trkpt lat="46.84723" lon="5.60677">
        <ele>280</ele>
        <time>2020-03-04T09:58:26Z</time>
      </trkpt>
      <trkpt lat="46.84728" lon="5.60675">
        <ele>280</ele>
        <time>2020-03-04T09:58:27Z</time>
      </trkpt>
      <trkpt lat="46.84732" lon="5.60674">
        <ele>280.2</ele>
        <time>2020-03-04T09:58:28Z</time>
      </trkpt>
      <trkpt lat="46.84736" lon="5.60672">
        <ele>280.2</ele>
        <time>2020-03-04T09:58:29Z</time>
      </trkpt>
      <trkpt lat="46.8474" lon="5.60671">
        <ele>280.2</ele>
        <time>2020-03-04T09:58:30Z</time>
      </trkpt>
      <trkpt lat="46.84745" lon="5.60669">
        <ele>280.2</ele>
        <time>2020-03-04T09:58:31Z</time>
      </trkpt>
      <trkpt lat="46.84749" lon="5.60667">
        <ele>280.2</ele>
        <time>2020-03-04T09:58:32Z</time>
      </trkpt>
      <trkpt lat="46.84754" lon="5.60666">
        <ele>280.2</ele>
        <time>2020-03-04T09:58:33Z</time>
      </trkpt>
      <trkpt lat="46.84759" lon="5.60664">
        <ele>280.2</ele>
        <time>2020-03-04T09:58:34Z</time>
      </trkpt>
      <trkpt lat="46.84764" lon="5.60662">
        <ele>280.2</ele>
        <time>2020-03-04T09:58:35Z</time>
      </trkpt>
      <trkpt lat="46.84769" lon="5.60661">
        <ele>280.2</ele>
        <time>2020-03-04T09:58:36Z</time>
      </trkpt>
      <trkpt lat="46.84774" lon="5.60658">
        <ele>280.2</ele>
        <time>2020-03-04T09:58:37Z</time>
      </trkpt>
      <trkpt lat="46.84778" lon="5.60656">
        <ele>280.2</ele>
        <time>2020-03-04T09:58:38Z</time>
      </trkpt>
      <trkpt lat="46.84783" lon="5.60654">
        <ele>280.2</ele>
        <time>2020-03-04T09:58:39Z</time>
      </trkpt>
      <trkpt lat="46.84788" lon="5.60651">
        <ele>280.2</ele>
        <time>2020-03-04T09:58:40Z</time>
      </trkpt>
      <trkpt lat="46.84794" lon="5.60649">
        <ele>280</ele>
        <time>2020-03-04T09:58:41Z</time>
      </trkpt>
      <trkpt lat="46.84799" lon="5.60648">
        <ele>280</ele>
        <time>2020-03-04T09:58:42Z</time>
      </trkpt>
      <trkpt lat="46.84805" lon="5.60645">
        <ele>279.8</ele>
        <time>2020-03-04T09:58:43Z</time>
      </trkpt>
      <trkpt lat="46.8481" lon="5.60643">
        <ele>279.8</ele>
        <time>2020-03-04T09:58:44Z</time>
      </trkpt>
      <trkpt lat="46.84816" lon="5.60641">
        <ele>279.8</ele>
        <time>2020-03-04T09:58:45Z</time>
      </trkpt>
      <trkpt lat="46.84822" lon="5.60638">
        <ele>279.8</ele>
        <time>2020-03-04T09:58:46Z</time>
      </trkpt>
      <trkpt lat="46.84828" lon="5.60636">
        <ele>279.4</ele>
        <time>2020-03-04T09:58:47Z</time>
      </trkpt>
      <trkpt lat="46.84834" lon="5.60634">
        <ele>279.4</ele>
        <time>2020-03-04T09:58:48Z</time>
      </trkpt>
      <trkpt lat="46.84841" lon="5.60633">
        <ele>279.2</ele>
        <time>2020-03-04T09:58:49Z</time>
      </trkpt>
      <trkpt lat="46.84848" lon="5.60631">
        <ele>278.8</ele>
        <time>2020-03-04T09:58:50Z</time>
      </trkpt>
      <trkpt lat="46.84855" lon="5.60629">
        <ele>278.6</ele>
        <time>2020-03-04T09:58:51Z</time>
      </trkpt>
      <trkpt lat="46.84862" lon="5.60628">
        <ele>278.4</ele>
        <time>2020-03-04T09:58:52Z</time>
      </trkpt>
      <trkpt lat="46.84869" lon="5.60626">
        <ele>278.2</ele>
        <time>2020-03-04T09:58:53Z</time>
      </trkpt>
      <trkpt lat="46.84876" lon="5.60625">
        <ele>278</ele>
        <time>2020-03-04T09:58:54Z</time>
      </trkpt>
      <trkpt lat="46.84883" lon="5.60624">
        <ele>278</ele>
        <time>2020-03-04T09:58:55Z</time>
      </trkpt>
      <trkpt lat="46.8489" lon="5.60623">
        <ele>277.6</ele>
        <time>2020-03-04T09:58:56Z</time>
      </trkpt>
      <trkpt lat="46.84897" lon="5.60623">
        <ele>277.6</ele>
        <time>2020-03-04T09:58:57Z</time>
      </trkpt>
      <trkpt lat="46.84905" lon="5.60622">
        <ele>277.4</ele>
        <time>2020-03-04T09:58:58Z</time>
      </trkpt>
      <trkpt lat="46.84912" lon="5.60621">
        <ele>277.4</ele>
        <time>2020-03-04T09:58:59Z</time>
      </trkpt>
      <trkpt lat="46.84919" lon="5.6062">
        <ele>277.4</ele>
        <time>2020-03-04T09:59:00Z</time>
      </trkpt>
      <trkpt lat="46.84926" lon="5.6062">
        <ele>277.2</ele>
        <time>2020-03-04T09:59:01Z</time>
      </trkpt>
      <trkpt lat="46.84933" lon="5.60619">
        <ele>277.2</ele>
        <time>2020-03-04T09:59:02Z</time>
      </trkpt>
      <trkpt lat="46.84939" lon="5.60617">
        <ele>277.2</ele>
        <time>2020-03-04T09:59:03Z</time>
      </trkpt>
      <trkpt lat="46.84946" lon="5.60616">
        <ele>277.2</ele>
        <time>2020-03-04T09:59:04Z</time>
      </trkpt>
      <trkpt lat="46.84952" lon="5.60615">
        <ele>277.2</ele>
        <time>2020-03-04T09:59:05Z</time>
      </trkpt>
      <trkpt lat="46.84959" lon="5.60614">
        <ele>277.2</ele>
        <time>2020-03-04T09:59:06Z</time>
      </trkpt>
      <trkpt lat="46.84965" lon="5.60614">
        <ele>277.4</ele>
        <time>2020-03-04T09:59:07Z</time>
      </trkpt>
      <trkpt lat="46.84971" lon="5.60613">
        <ele>277.4</ele>
        <time>2020-03-04T09:59:08Z</time>
      </trkpt>
      <trkpt lat="46.84976" lon="5.60612">
        <ele>277.4</ele>
        <time>2020-03-04T09:59:09Z</time>
      </trkpt>
      <trkpt lat="46.84982" lon="5.60611">
        <ele>277.6</ele>
        <time>2020-03-04T09:59:10Z</time>
      </trkpt>
      <trkpt lat="46.84988" lon="5.6061">
        <ele>277.6</ele>
        <time>2020-03-04T09:59:11Z</time>
      </trkpt>
      <trkpt lat="46.84994" lon="5.60609">
        <ele>277.6</ele>
        <time>2020-03-04T09:59:12Z</time>
      </trkpt>
      <trkpt lat="46.84999" lon="5.60609">
        <ele>277.8</ele>
        <time>2020-03-04T09:59:13Z</time>
      </trkpt>
      <trkpt lat="46.85005" lon="5.60608">
        <ele>277.8</ele>
        <time>2020-03-04T09:59:14Z</time>
      </trkpt>
      <trkpt lat="46.8501" lon="5.60607">
        <ele>277.8</ele>
        <time>2020-03-04T09:59:15Z</time>
      </trkpt>
      <trkpt lat="46.85016" lon="5.60606">
        <ele>277.8</ele>
        <time>2020-03-04T09:59:16Z</time>
      </trkpt>
      <trkpt lat="46.85021" lon="5.60604">
        <ele>277.8</ele>
        <time>2020-03-04T09:59:17Z</time>
      </trkpt>
      <trkpt lat="46.85027" lon="5.60603">
        <ele>277.8</ele>
        <time>2020-03-04T09:59:18Z</time>
      </trkpt>
      <trkpt lat="46.85033" lon="5.60602">
        <ele>277.8</ele>
        <time>2020-03-04T09:59:19Z</time>
      </trkpt>
      <trkpt lat="46.85039" lon="5.606">
        <ele>277.8</ele>
        <time>2020-03-04T09:59:20Z</time>
      </trkpt>
      <trkpt lat="46.85044" lon="5.60599">
        <ele>277.8</ele>
        <time>2020-03-04T09:59:21Z</time>
      </trkpt>
      <trkpt lat="46.8505" lon="5.60598">
        <ele>277.8</ele>
        <time>2020-03-04T09:59:22Z</time>
      </trkpt>
      <trkpt lat="46.85056" lon="5.60597">
        <ele>277.8</ele>
        <time>2020-03-04T09:59:23Z</time>
      </trkpt>
      <trkpt lat="46.85061" lon="5.60596">
        <ele>277.8</ele>
        <time>2020-03-04T09:59:24Z</time>
      </trkpt>
      <trkpt lat="46.85067" lon="5.60596">
        <ele>277.8</ele>
        <time>2020-03-04T09:59:25Z</time>
      </trkpt>
      <trkpt lat="46.85073" lon="5.60595">
        <ele>277.8</ele>
        <time>2020-03-04T09:59:26Z</time>
      </trkpt>
      <trkpt lat="46.85079" lon="5.60595">
        <ele>277.8</ele>
        <time>2020-03-04T09:59:27Z</time>
      </trkpt>
      <trkpt lat="46.85085" lon="5.60594">
        <ele>278</ele>
        <time>2020-03-04T09:59:28Z</time>
      </trkpt>
      <trkpt lat="46.8509" lon="5.60594">
        <ele>278</ele>
        <time>2020-03-04T09:59:29Z</time>
      </trkpt>
      <trkpt lat="46.85096" lon="5.60594">
        <ele>278</ele>
        <time>2020-03-04T09:59:30Z</time>
      </trkpt>
      <trkpt lat="46.85102" lon="5.60595">
        <ele>278</ele>
        <time>2020-03-04T09:59:31Z</time>
      </trkpt>
      <trkpt lat="46.85108" lon="5.60595">
        <ele>278</ele>
        <time>2020-03-04T09:59:32Z</time>
      </trkpt>
      <trkpt lat="46.85115" lon="5.60596">
        <ele>277.8</ele>
        <time>2020-03-04T09:59:33Z</time>
      </trkpt>
      <trkpt lat="46.85121" lon="5.60598">
        <ele>277.8</ele>
        <time>2020-03-04T09:59:34Z</time>
      </trkpt>
      <trkpt lat="46.85128" lon="5.60601">
        <ele>277.6</ele>
        <time>2020-03-04T09:59:35Z</time>
      </trkpt>
      <trkpt lat="46.85134" lon="5.60605">
        <ele>277.6</ele>
        <time>2020-03-04T09:59:36Z</time>
      </trkpt>
      <trkpt lat="46.85141" lon="5.60609">
        <ele>277.2</ele>
        <time>2020-03-04T09:59:37Z</time>
      </trkpt>
      <trkpt lat="46.85147" lon="5.60613">
        <ele>277.2</ele>
        <time>2020-03-04T09:59:38Z</time>
      </trkpt>
      <trkpt lat="46.85154" lon="5.60617">
        <ele>276.8</ele>
        <time>2020-03-04T09:59:39Z</time>
      </trkpt>
      <trkpt lat="46.85161" lon="5.60622">
        <ele>276.8</ele>
        <time>2020-03-04T09:59:40Z</time>
      </trkpt>
      <trkpt lat="46.85168" lon="5.60626">
        <ele>276.6</ele>
        <time>2020-03-04T09:59:41Z</time>
      </trkpt>
      <trkpt lat="46.85175" lon="5.6063">
        <ele>276.2</ele>
        <time>2020-03-04T09:59:42Z</time>
      </trkpt>
      <trkpt lat="46.85182" lon="5.60634">
        <ele>276</ele>
        <time>2020-03-04T09:59:43Z</time>
      </trkpt>
      <trkpt lat="46.85189" lon="5.60638">
        <ele>276</ele>
        <time>2020-03-04T09:59:44Z</time>
      </trkpt>
      <trkpt lat="46.85196" lon="5.60642">
        <ele>275.6</ele>
        <time>2020-03-04T09:59:45Z</time>
      </trkpt>
      <trkpt lat="46.85203" lon="5.60646">
        <ele>275.6</ele>
        <time>2020-03-04T09:59:46Z</time>
      </trkpt>
      <trkpt lat="46.8521" lon="5.60649">
        <ele>275.2</ele>
        <time>2020-03-04T09:59:47Z</time>
      </trkpt>
      <trkpt lat="46.85217" lon="5.60653">
        <ele>275.2</ele>
        <time>2020-03-04T09:59:48Z</time>
      </trkpt>
      <trkpt lat="46.85225" lon="5.60656">
        <ele>275.2</ele>
        <time>2020-03-04T09:59:49Z</time>
      </trkpt>
      <trkpt lat="46.85232" lon="5.6066">
        <ele>274.8</ele>
        <time>2020-03-04T09:59:50Z</time>
      </trkpt>
      <trkpt lat="46.8524" lon="5.60663">
        <ele>274.8</ele>
        <time>2020-03-04T09:59:51Z</time>
      </trkpt>
      <trkpt lat="46.85248" lon="5.60665">
        <ele>274.8</ele>
        <time>2020-03-04T09:59:52Z</time>
      </trkpt>
      <trkpt lat="46.85256" lon="5.60668">
        <ele>274.8</ele>
        <time>2020-03-04T09:59:53Z</time>
      </trkpt>
      <trkpt lat="46.85264" lon="5.60671">
        <ele>274.4</ele>
        <time>2020-03-04T09:59:54Z</time>
      </trkpt>
      <trkpt lat="46.85272" lon="5.60673">
        <ele>274.4</ele>
        <time>2020-03-04T09:59:55Z</time>
      </trkpt>
      <trkpt lat="46.8528" lon="5.60675">
        <ele>274</ele>
        <time>2020-03-04T09:59:56Z</time>
      </trkpt>
      <trkpt lat="46.85289" lon="5.60678">
        <ele>273.6</ele>
        <time>2020-03-04T09:59:57Z</time>
      </trkpt>
      <trkpt lat="46.85297" lon="5.6068">
        <ele>273.2</ele>
        <time>2020-03-04T09:59:58Z</time>
      </trkpt>
      <trkpt lat="46.85306" lon="5.60682">
        <ele>272.8</ele>
        <time>2020-03-04T09:59:59Z</time>
      </trkpt>
      <trkpt lat="46.85315" lon="5.60684">
        <ele>272.2</ele>
        <time>2020-03-04T10:00:00Z</time>
      </trkpt>
      <trkpt lat="46.85324" lon="5.60687">
        <ele>271.8</ele>
        <time>2020-03-04T10:00:01Z</time>
      </trkpt>
      <trkpt lat="46.85333" lon="5.6069">
        <ele>271.4</ele>
        <time>2020-03-04T10:00:02Z</time>
      </trkpt>
      <trkpt lat="46.85342" lon="5.60693">
        <ele>271</ele>
        <time>2020-03-04T10:00:03Z</time>
      </trkpt>
      <trkpt lat="46.85352" lon="5.60694">
        <ele>270.8</ele>
        <time>2020-03-04T10:00:04Z</time>
      </trkpt>
      <trkpt lat="46.85361" lon="5.60694">
        <ele>270.4</ele>
        <time>2020-03-04T10:00:05Z</time>
      </trkpt>
      <trkpt lat="46.8537" lon="5.60695">
        <ele>270.2</ele>
        <time>2020-03-04T10:00:06Z</time>
      </trkpt>
      <trkpt lat="46.85381" lon="5.60697">
        <ele>269.6</ele>
        <time>2020-03-04T10:00:07Z</time>
      </trkpt>
      <trkpt lat="46.8539" lon="5.60698">
        <ele>269.2</ele>
        <time>2020-03-04T10:00:08Z</time>
      </trkpt>
      <trkpt lat="46.854" lon="5.60701">
        <ele>268.8</ele>
        <time>2020-03-04T10:00:09Z</time>
      </trkpt>
      <trkpt lat="46.8541" lon="5.60703">
        <ele>268.4</ele>
        <time>2020-03-04T10:00:10Z</time>
      </trkpt>
      <trkpt lat="46.8542" lon="5.60705">
        <ele>268</ele>
        <time>2020-03-04T10:00:11Z</time>
      </trkpt>
      <trkpt lat="46.8543" lon="5.60707">
        <ele>267.4</ele>
        <time>2020-03-04T10:00:12Z</time>
      </trkpt>
      <trkpt lat="46.85439" lon="5.60708">
        <ele>267</ele>
        <time>2020-03-04T10:00:13Z</time>
      </trkpt>
      <trkpt lat="46.85449" lon="5.60711">
        <ele>266.4</ele>
        <time>2020-03-04T10:00:14Z</time>
      </trkpt>
      <trkpt lat="46.85459" lon="5.60712">
        <ele>266</ele>
        <time>2020-03-04T10:00:15Z</time>
      </trkpt>
      <trkpt lat="46.85469" lon="5.60714">
        <ele>265.6</ele>
        <time>2020-03-04T10:00:16Z</time>
      </trkpt>
      <trkpt lat="46.85479" lon="5.60715">
        <ele>265.2</ele>
        <time>2020-03-04T10:00:17Z</time>
      </trkpt>
      <trkpt lat="46.8549" lon="5.60717">
        <ele>264.8</ele>
        <time>2020-03-04T10:00:18Z</time>
      </trkpt>
      <trkpt lat="46.855" lon="5.60719">
        <ele>264.4</ele>
        <time>2020-03-04T10:00:19Z</time>
      </trkpt>
      <trkpt lat="46.8551" lon="5.6072">
        <ele>264</ele>
        <time>2020-03-04T10:00:20Z</time>
      </trkpt>
      <trkpt lat="46.8552" lon="5.60721">
        <ele>263.6</ele>
        <time>2020-03-04T10:00:21Z</time>
      </trkpt>
      <trkpt lat="46.85531" lon="5.60723">
        <ele>263.4</ele>
        <time>2020-03-04T10:00:22Z</time>
      </trkpt>
      <trkpt lat="46.85541" lon="5.60724">
        <ele>263.2</ele>
        <time>2020-03-04T10:00:23Z</time>
      </trkpt>
      <trkpt lat="46.8555" lon="5.60726">
        <ele>263.2</ele>
        <time>2020-03-04T10:00:24Z</time>
      </trkpt>
      <trkpt lat="46.8556" lon="5.60727">
        <ele>263</ele>
        <time>2020-03-04T10:00:25Z</time>
      </trkpt>
      <trkpt lat="46.85569" lon="5.60729">
        <ele>263</ele>
        <time>2020-03-04T10:00:26Z</time>
      </trkpt>
      <trkpt lat="46.85579" lon="5.6073">
        <ele>263</ele>
        <time>2020-03-04T10:00:27Z</time>
      </trkpt>
      <trkpt lat="46.85588" lon="5.60732">
        <ele>262.6</ele>
        <time>2020-03-04T10:00:28Z</time>
      </trkpt>
      <trkpt lat="46.85597" lon="5.60733">
        <ele>262.6</ele>
        <time>2020-03-04T10:00:29Z</time>
      </trkpt>
      <trkpt lat="46.85607" lon="5.60735">
        <ele>262.4</ele>
        <time>2020-03-04T10:00:30Z</time>
      </trkpt>
      <trkpt lat="46.85616" lon="5.60737">
        <ele>262.4</ele>
        <time>2020-03-04T10:00:31Z</time>
      </trkpt>
      <trkpt lat="46.85626" lon="5.60739">
        <ele>262.4</ele>
        <time>2020-03-04T10:00:32Z</time>
      </trkpt>
      <trkpt lat="46.85636" lon="5.60741">
        <ele>262.4</ele>
        <time>2020-03-04T10:00:33Z</time>
      </trkpt>
      <trkpt lat="46.85645" lon="5.60742">
        <ele>262.4</ele>
        <time>2020-03-04T10:00:34Z</time>
      </trkpt>
      <trkpt lat="46.85654" lon="5.60743">
        <ele>262.4</ele>
        <time>2020-03-04T10:00:35Z</time>
      </trkpt>
      <trkpt lat="46.85663" lon="5.60745">
        <ele>262.4</ele>
        <time>2020-03-04T10:00:36Z</time>
      </trkpt>
      <trkpt lat="46.85672" lon="5.60746">
        <ele>262.4</ele>
        <time>2020-03-04T10:00:37Z</time>
      </trkpt>
      <trkpt lat="46.85681" lon="5.60747">
        <ele>262.8</ele>
        <time>2020-03-04T10:00:38Z</time>
      </trkpt>
      <trkpt lat="46.85689" lon="5.60749">
        <ele>263</ele>
        <time>2020-03-04T10:00:39Z</time>
      </trkpt>
      <trkpt lat="46.85698" lon="5.6075">
        <ele>263.4</ele>
        <time>2020-03-04T10:00:40Z</time>
      </trkpt>
      <trkpt lat="46.85706" lon="5.60752">
        <ele>263.6</ele>
        <time>2020-03-04T10:00:41Z</time>
      </trkpt>
      <trkpt lat="46.85714" lon="5.60754">
        <ele>263.8</ele>
        <time>2020-03-04T10:00:42Z</time>
      </trkpt>
      <trkpt lat="46.85722" lon="5.60756">
        <ele>264.2</ele>
        <time>2020-03-04T10:00:43Z</time>
      </trkpt>
      <trkpt lat="46.85729" lon="5.60758">
        <ele>264.4</ele>
        <time>2020-03-04T10:00:44Z</time>
      </trkpt>
      <trkpt lat="46.85736" lon="5.60759">
        <ele>264.4</ele>
        <time>2020-03-04T10:00:45Z</time>
      </trkpt>
      <trkpt lat="46.85744" lon="5.60761">
        <ele>264.6</ele>
        <time>2020-03-04T10:00:46Z</time>
      </trkpt>
      <trkpt lat="46.85751" lon="5.60763">
        <ele>264.6</ele>
        <time>2020-03-04T10:00:47Z</time>
      </trkpt>
      <trkpt lat="46.85759" lon="5.60766">
        <ele>264.6</ele>
        <time>2020-03-04T10:00:48Z</time>
      </trkpt>
      <trkpt lat="46.85767" lon="5.60768">
        <ele>264.4</ele>
        <time>2020-03-04T10:00:49Z</time>
      </trkpt>
      <trkpt lat="46.85775" lon="5.60771">
        <ele>264.2</ele>
        <time>2020-03-04T10:00:50Z</time>
      </trkpt>
      <trkpt lat="46.85784" lon="5.60774">
        <ele>263.8</ele>
        <time>2020-03-04T10:00:51Z</time>
      </trkpt>
      <trkpt lat="46.85792" lon="5.60777">
        <ele>263.6</ele>
        <time>2020-03-04T10:00:52Z</time>
      </trkpt>
      <trkpt lat="46.85801" lon="5.6078">
        <ele>263.4</ele>
        <time>2020-03-04T10:00:53Z</time>
      </trkpt>
      <trkpt lat="46.8581" lon="5.60783">
        <ele>263</ele>
        <time>2020-03-04T10:00:54Z</time>
      </trkpt>
      <trkpt lat="46.85819" lon="5.60787">
        <ele>262.8</ele>
        <time>2020-03-04T10:00:55Z</time>
      </trkpt>
      <trkpt lat="46.85828" lon="5.60791">
        <ele>262.4</ele>
        <time>2020-03-04T10:00:56Z</time>
      </trkpt>
      <trkpt lat="46.85838" lon="5.60794">
        <ele>262.2</ele>
        <time>2020-03-04T10:00:57Z</time>
      </trkpt>
      <trkpt lat="46.85846" lon="5.60798">
        <ele>261.8</ele>
        <time>2020-03-04T10:00:58Z</time>
      </trkpt>
      <trkpt lat="46.85855" lon="5.60801">
        <ele>261.6</ele>
        <time>2020-03-04T10:00:59Z</time>
      </trkpt>
      <trkpt lat="46.85864" lon="5.60803">
        <ele>261.6</ele>
        <time>2020-03-04T10:01:00Z</time>
      </trkpt>
      <trkpt lat="46.85872" lon="5.60807">
        <ele>261.2</ele>
        <time>2020-03-04T10:01:01Z</time>
      </trkpt>
      <trkpt lat="46.8588" lon="5.6081">
        <ele>261.2</ele>
        <time>2020-03-04T10:01:02Z</time>
      </trkpt>
      <trkpt lat="46.85888" lon="5.60813">
        <ele>261.2</ele>
        <time>2020-03-04T10:01:03Z</time>
      </trkpt>
      <trkpt lat="46.85896" lon="5.60816">
        <ele>261.2</ele>
        <time>2020-03-04T10:01:04Z</time>
      </trkpt>
      <trkpt lat="46.85904" lon="5.60819">
        <ele>261.2</ele>
        <time>2020-03-04T10:01:05Z</time>
      </trkpt>
      <trkpt lat="46.85912" lon="5.60822">
        <ele>261</ele>
        <time>2020-03-04T10:01:06Z</time>
      </trkpt>
      <trkpt lat="46.8592" lon="5.60825">
        <ele>261</ele>
        <time>2020-03-04T10:01:07Z</time>
      </trkpt>
      <trkpt lat="46.85928" lon="5.60828">
        <ele>260.8</ele>
        <time>2020-03-04T10:01:08Z</time>
      </trkpt>
      <trkpt lat="46.85936" lon="5.60832">
        <ele>260.8</ele>
        <time>2020-03-04T10:01:09Z</time>
      </trkpt>
      <trkpt lat="46.85944" lon="5.60835">
        <ele>260.4</ele>
        <time>2020-03-04T10:01:10Z</time>
      </trkpt>
      <trkpt lat="46.85952" lon="5.60838">
        <ele>260.4</ele>
        <time>2020-03-04T10:01:11Z</time>
      </trkpt>
      <trkpt lat="46.8596" lon="5.60841">
        <ele>260.2</ele>
        <time>2020-03-04T10:01:12Z</time>
      </trkpt>
      <trkpt lat="46.85968" lon="5.60844">
        <ele>260.2</ele>
        <time>2020-03-04T10:01:13Z</time>
      </trkpt>
      <trkpt lat="46.85976" lon="5.60846">
        <ele>260</ele>
        <time>2020-03-04T10:01:14Z</time>
      </trkpt>
      <trkpt lat="46.85984" lon="5.60849">
        <ele>260</ele>
        <time>2020-03-04T10:01:15Z</time>
      </trkpt>
      <trkpt lat="46.85992" lon="5.60852">
        <ele>260</ele>
        <time>2020-03-04T10:01:16Z</time>
      </trkpt>
      <trkpt lat="46.86" lon="5.60855">
        <ele>259.6</ele>
        <time>2020-03-04T10:01:17Z</time>
      </trkpt>
      <trkpt lat="46.86008" lon="5.60858">
        <ele>259.6</ele>
        <time>2020-03-04T10:01:18Z</time>
      </trkpt>
      <trkpt lat="46.86016" lon="5.60862">
        <ele>259.6</ele>
        <time>2020-03-04T10:01:19Z</time>
      </trkpt>
      <trkpt lat="46.86024" lon="5.60864">
        <ele>259.4</ele>
        <time>2020-03-04T10:01:20Z</time>
      </trkpt>
      <trkpt lat="46.86033" lon="5.60867">
        <ele>259.4</ele>
        <time>2020-03-04T10:01:21Z</time>
      </trkpt>
      <trkpt lat="46.86041" lon="5.6087">
        <ele>259.2</ele>
        <time>2020-03-04T10:01:22Z</time>
      </trkpt>
      <trkpt lat="46.86049" lon="5.60874">
        <ele>259</ele>
        <time>2020-03-04T10:01:23Z</time>
      </trkpt>
      <trkpt lat="46.86057" lon="5.60877">
        <ele>258.8</ele>
        <time>2020-03-04T10:01:24Z</time>
      </trkpt>
      <trkpt lat="46.86066" lon="5.60881">
        <ele>258.4</ele>
        <time>2020-03-04T10:01:25Z</time>
      </trkpt>
      <trkpt lat="46.86074" lon="5.60885">
        <ele>258.2</ele>
        <time>2020-03-04T10:01:26Z</time>
      </trkpt>
      <trkpt lat="46.86082" lon="5.60889">
        <ele>257.8</ele>
        <time>2020-03-04T10:01:27Z</time>
      </trkpt>
      <trkpt lat="46.86091" lon="5.60895">
        <ele>257.4</ele>
        <time>2020-03-04T10:01:28Z</time>
      </trkpt>
      <trkpt lat="46.86099" lon="5.60899">
        <ele>257.2</ele>
        <time>2020-03-04T10:01:29Z</time>
      </trkpt>
      <trkpt lat="46.86109" lon="5.60903">
        <ele>257</ele>
        <time>2020-03-04T10:01:30Z</time>
      </trkpt>
      <trkpt lat="46.86117" lon="5.60909">
        <ele>256.6</ele>
        <time>2020-03-04T10:01:31Z</time>
      </trkpt>
      <trkpt lat="46.86127" lon="5.60915">
        <ele>256</ele>
        <time>2020-03-04T10:01:32Z</time>
      </trkpt>
      <trkpt lat="46.86136" lon="5.6092">
        <ele>255.6</ele>
        <time>2020-03-04T10:01:33Z</time>
      </trkpt>
      <trkpt lat="46.86146" lon="5.60927">
        <ele>255</ele>
        <time>2020-03-04T10:01:34Z</time>
      </trkpt>
      <trkpt lat="46.86156" lon="5.60932">
        <ele>254.6</ele>
        <time>2020-03-04T10:01:35Z</time>
      </trkpt>
      <trkpt lat="46.86166" lon="5.60938">
        <ele>254</ele>
        <time>2020-03-04T10:01:36Z</time>
      </trkpt>
      <trkpt lat="46.86177" lon="5.60944">
        <ele>253.4</ele>
        <time>2020-03-04T10:01:37Z</time>
      </trkpt>
      <trkpt lat="46.86188" lon="5.60951">
        <ele>252.6</ele>
        <time>2020-03-04T10:01:38Z</time>
      </trkpt>
      <trkpt lat="46.862" lon="5.60958">
        <ele>251.8</ele>
        <time>2020-03-04T10:01:39Z</time>
      </trkpt>
      <trkpt lat="46.86211" lon="5.60964">
        <ele>251</ele>
        <time>2020-03-04T10:01:40Z</time>
      </trkpt>
      <trkpt lat="46.86222" lon="5.6097">
        <ele>250</ele>
        <time>2020-03-04T10:01:41Z</time>
      </trkpt>
      <trkpt lat="46.86234" lon="5.60976">
        <ele>249</ele>
        <time>2020-03-04T10:01:42Z</time>
      </trkpt>
      <trkpt lat="46.86246" lon="5.60982">
        <ele>248</ele>
        <time>2020-03-04T10:01:43Z</time>
      </trkpt>
      <trkpt lat="46.86258" lon="5.6099">
        <ele>247.2</ele>
        <time>2020-03-04T10:01:44Z</time>
      </trkpt>
      <trkpt lat="46.8627" lon="5.60997">
        <ele>246.4</ele>
        <time>2020-03-04T10:01:45Z</time>
      </trkpt>
      <trkpt lat="46.86282" lon="5.61003">
        <ele>245.4</ele>
        <time>2020-03-04T10:01:46Z</time>
      </trkpt>
      <trkpt lat="46.86295" lon="5.6101">
        <ele>244.4</ele>
        <time>2020-03-04T10:01:47Z</time>
      </trkpt>
      <trkpt lat="46.86307" lon="5.61016">
        <ele>243.6</ele>
        <time>2020-03-04T10:01:48Z</time>
      </trkpt>
      <trkpt lat="46.86319" lon="5.61024">
        <ele>242.8</ele>
        <time>2020-03-04T10:01:49Z</time>
      </trkpt>
      <trkpt lat="46.86333" lon="5.61031">
        <ele>242</ele>
        <time>2020-03-04T10:01:50Z</time>
      </trkpt>
      <trkpt lat="46.86346" lon="5.61038">
        <ele>241</ele>
        <time>2020-03-04T10:01:51Z</time>
      </trkpt>
      <trkpt lat="46.86359" lon="5.61045">
        <ele>240</ele>
        <time>2020-03-04T10:01:52Z</time>
      </trkpt>
      <trkpt lat="46.86373" lon="5.61052">
        <ele>239</ele>
        <time>2020-03-04T10:01:53Z</time>
      </trkpt>
      <trkpt lat="46.86386" lon="5.61059">
        <ele>238.8</ele>
        <time>2020-03-04T10:01:54Z</time>
      </trkpt>
      <trkpt lat="46.86397" lon="5.61065">
        <ele>238.2</ele>
        <time>2020-03-04T10:01:55Z</time>
      </trkpt>
      <trkpt lat="46.86409" lon="5.61072">
        <ele>237.6</ele>
        <time>2020-03-04T10:01:56Z</time>
      </trkpt>
      <trkpt lat="46.8642" lon="5.61078">
        <ele>237.4</ele>
        <time>2020-03-04T10:01:57Z</time>
      </trkpt>
      <trkpt lat="46.86432" lon="5.61084">
        <ele>237.2</ele>
        <time>2020-03-04T10:01:58Z</time>
      </trkpt>
      <trkpt lat="46.86443" lon="5.61091">
        <ele>237</ele>
        <time>2020-03-04T10:01:59Z</time>
      </trkpt>
      <trkpt lat="46.86454" lon="5.61097">
        <ele>236.6</ele>
        <time>2020-03-04T10:02:00Z</time>
      </trkpt>
      <trkpt lat="46.86466" lon="5.61103">
        <ele>236.4</ele>
        <time>2020-03-04T10:02:01Z</time>
      </trkpt>
      <trkpt lat="46.86476" lon="5.6111">
        <ele>236.4</ele>
        <time>2020-03-04T10:02:02Z</time>
      </trkpt>
      <trkpt lat="46.86486" lon="5.61116">
        <ele>236.4</ele>
        <time>2020-03-04T10:02:03Z</time>
      </trkpt>
      <trkpt lat="46.86497" lon="5.61121">
        <ele>236.4</ele>
        <time>2020-03-04T10:02:04Z</time>
      </trkpt>
      <trkpt lat="46.86507" lon="5.61126">
        <ele>236.4</ele>
        <time>2020-03-04T10:02:05Z</time>
      </trkpt>
      <trkpt lat="46.86518" lon="5.61132">
        <ele>236.4</ele>
        <time>2020-03-04T10:02:06Z</time>
      </trkpt>
      <trkpt lat="46.86528" lon="5.61137">
        <ele>236.4</ele>
        <time>2020-03-04T10:02:07Z</time>
      </trkpt>
      <trkpt lat="46.86537" lon="5.61143">
        <ele>236.4</ele>
        <time>2020-03-04T10:02:08Z</time>
      </trkpt>
      <trkpt lat="46.86547" lon="5.61148">
        <ele>236.4</ele>
        <time>2020-03-04T10:02:09Z</time>
      </trkpt>
      <trkpt lat="46.86556" lon="5.61153">
        <ele>236.4</ele>
        <time>2020-03-04T10:02:10Z</time>
      </trkpt>
      <trkpt lat="46.86565" lon="5.61157">
        <ele>236.4</ele>
        <time>2020-03-04T10:02:11Z</time>
      </trkpt>
      <trkpt lat="46.86574" lon="5.61162">
        <ele>236.4</ele>
        <time>2020-03-04T10:02:12Z</time>
      </trkpt>
      <trkpt lat="46.86583" lon="5.61167">
        <ele>236.2</ele>
        <time>2020-03-04T10:02:13Z</time>
      </trkpt>
      <trkpt lat="46.86591" lon="5.61172">
        <ele>236.2</ele>
        <time>2020-03-04T10:02:14Z</time>
      </trkpt>
      <trkpt lat="46.866" lon="5.61177">
        <ele>236.2</ele>
        <time>2020-03-04T10:02:15Z</time>
      </trkpt>
      <trkpt lat="46.86608" lon="5.61181">
        <ele>236.2</ele>
        <time>2020-03-04T10:02:16Z</time>
      </trkpt>
      <trkpt lat="46.86617" lon="5.61186">
        <ele>236.2</ele>
        <time>2020-03-04T10:02:17Z</time>
      </trkpt>
      <trkpt lat="46.86625" lon="5.61191">
        <ele>236.2</ele>
        <time>2020-03-04T10:02:18Z</time>
      </trkpt>
      <trkpt lat="46.86632" lon="5.61195">
        <ele>236.4</ele>
        <time>2020-03-04T10:02:19Z</time>
      </trkpt>
      <trkpt lat="46.8664" lon="5.612">
        <ele>236.4</ele>
        <time>2020-03-04T10:02:20Z</time>
      </trkpt>
      <trkpt lat="46.86648" lon="5.61204">
        <ele>236.4</ele>
        <time>2020-03-04T10:02:21Z</time>
      </trkpt>
      <trkpt lat="46.86655" lon="5.61208">
        <ele>236.8</ele>
        <time>2020-03-04T10:02:22Z</time>
      </trkpt>
      <trkpt lat="46.86662" lon="5.61212">
        <ele>236.8</ele>
        <time>2020-03-04T10:02:23Z</time>
      </trkpt>
      <trkpt lat="46.86669" lon="5.61216">
        <ele>237</ele>
        <time>2020-03-04T10:02:24Z</time>
      </trkpt>
      <trkpt lat="46.86675" lon="5.6122">
        <ele>237.2</ele>
        <time>2020-03-04T10:02:25Z</time>
      </trkpt>
      <trkpt lat="46.86682" lon="5.61223">
        <ele>237.4</ele>
        <time>2020-03-04T10:02:26Z</time>
      </trkpt>
      <trkpt lat="46.86688" lon="5.61226">
        <ele>237.6</ele>
        <time>2020-03-04T10:02:27Z</time>
      </trkpt>
      <trkpt lat="46.86694" lon="5.6123">
        <ele>238</ele>
        <time>2020-03-04T10:02:28Z</time>
      </trkpt>
      <trkpt lat="46.867" lon="5.61233">
        <ele>238.2</ele>
        <time>2020-03-04T10:02:29Z</time>
      </trkpt>
      <trkpt lat="46.86706" lon="5.61235">
        <ele>238.6</ele>
        <time>2020-03-04T10:02:30Z</time>
      </trkpt>
      <trkpt lat="46.86712" lon="5.61238">
        <ele>238.8</ele>
        <time>2020-03-04T10:02:31Z</time>
      </trkpt>
      <trkpt lat="46.86717" lon="5.61241">
        <ele>239</ele>
        <time>2020-03-04T10:02:32Z</time>
      </trkpt>
      <trkpt lat="46.86723" lon="5.61244">
        <ele>239.4</ele>
        <time>2020-03-04T10:02:33Z</time>
      </trkpt>
      <trkpt lat="46.86729" lon="5.61246">
        <ele>239.4</ele>
        <time>2020-03-04T10:02:34Z</time>
      </trkpt>
      <trkpt lat="46.86734" lon="5.61248">
        <ele>239.8</ele>
        <time>2020-03-04T10:02:35Z</time>
      </trkpt>
      <trkpt lat="46.8674" lon="5.6125">
        <ele>240.2</ele>
        <time>2020-03-04T10:02:36Z</time>
      </trkpt>
      <trkpt lat="46.86745" lon="5.61251">
        <ele>240.4</ele>
        <time>2020-03-04T10:02:37Z</time>
      </trkpt>
      <trkpt lat="46.86751" lon="5.61252">
        <ele>240.4</ele>
        <time>2020-03-04T10:02:38Z</time>
      </trkpt>
      <trkpt lat="46.86756" lon="5.61254">
        <ele>240.8</ele>
        <time>2020-03-04T10:02:39Z</time>
      </trkpt>
      <trkpt lat="46.86761" lon="5.61255">
        <ele>240.8</ele>
        <time>2020-03-04T10:02:40Z</time>
      </trkpt>
      <trkpt lat="46.86766" lon="5.61257">
        <ele>241.2</ele>
        <time>2020-03-04T10:02:41Z</time>
      </trkpt>
      <trkpt lat="46.86771" lon="5.61258">
        <ele>241.4</ele>
        <time>2020-03-04T10:02:42Z</time>
      </trkpt>
      <trkpt lat="46.86776" lon="5.61259">
        <ele>241.6</ele>
        <time>2020-03-04T10:02:43Z</time>
      </trkpt>
      <trkpt lat="46.86781" lon="5.61259">
        <ele>242</ele>
        <time>2020-03-04T10:02:44Z</time>
      </trkpt>
      <trkpt lat="46.86786" lon="5.6126">
        <ele>242.2</ele>
        <time>2020-03-04T10:02:45Z</time>
      </trkpt>
      <trkpt lat="46.86791" lon="5.61261">
        <ele>242.4</ele>
        <time>2020-03-04T10:02:46Z</time>
      </trkpt>
      <trkpt lat="46.86796" lon="5.61262">
        <ele>242.6</ele>
        <time>2020-03-04T10:02:47Z</time>
      </trkpt>
      <trkpt lat="46.86801" lon="5.61263">
        <ele>242.8</ele>
        <time>2020-03-04T10:02:48Z</time>
      </trkpt>
      <trkpt lat="46.86806" lon="5.61263">
        <ele>242.8</ele>
        <time>2020-03-04T10:02:49Z</time>
      </trkpt>
      <trkpt lat="46.8681" lon="5.61264">
        <ele>243.2</ele>
        <time>2020-03-04T10:02:50Z</time>
      </trkpt>
      <trkpt lat="46.86815" lon="5.61265">
        <ele>243.6</ele>
        <time>2020-03-04T10:02:51Z</time>
      </trkpt>
      <trkpt lat="46.8682" lon="5.61265">
        <ele>243.8</ele>
        <time>2020-03-04T10:02:52Z</time>
      </trkpt>
      <trkpt lat="46.86825" lon="5.61266">
        <ele>243.8</ele>
        <time>2020-03-04T10:02:53Z</time>
      </trkpt>
      <trkpt lat="46.8683" lon="5.61266">
        <ele>244</ele>
        <time>2020-03-04T10:02:54Z</time>
      </trkpt>
      <trkpt lat="46.86835" lon="5.61267">
        <ele>244</ele>
        <time>2020-03-04T10:02:55Z</time>
      </trkpt>
      <trkpt lat="46.8684" lon="5.61268">
        <ele>244.4</ele>
        <time>2020-03-04T10:02:56Z</time>
      </trkpt>
      <trkpt lat="46.86844" lon="5.61268">
        <ele>244.6</ele>
        <time>2020-03-04T10:02:57Z</time>
      </trkpt>
      <trkpt lat="46.86849" lon="5.61269">
        <ele>244.6</ele>
        <time>2020-03-04T10:02:58Z</time>
      </trkpt>
      <trkpt lat="46.86853" lon="5.6127">
        <ele>245</ele>
        <time>2020-03-04T10:02:59Z</time>
      </trkpt>
      <trkpt lat="46.86858" lon="5.6127">
        <ele>245.2</ele>
        <time>2020-03-04T10:03:00Z</time>
      </trkpt>
      <trkpt lat="46.86862" lon="5.61271">
        <ele>245.2</ele>
        <time>2020-03-04T10:03:01Z</time>
      </trkpt>
      <trkpt lat="46.86867" lon="5.61272">
        <ele>245.6</ele>
        <time>2020-03-04T10:03:02Z</time>
      </trkpt>
      <trkpt lat="46.86871" lon="5.61273">
        <ele>245.8</ele>
        <time>2020-03-04T10:03:03Z</time>
      </trkpt>
      <trkpt lat="46.86875" lon="5.61273">
        <ele>245.8</ele>
        <time>2020-03-04T10:03:04Z</time>
      </trkpt>
      <trkpt lat="46.8688" lon="5.61274">
        <ele>246.2</ele>
        <time>2020-03-04T10:03:05Z</time>
      </trkpt>
      <trkpt lat="46.86884" lon="5.61274">
        <ele>246.4</ele>
        <time>2020-03-04T10:03:06Z</time>
      </trkpt>
      <trkpt lat="46.86888" lon="5.61275">
        <ele>246.6</ele>
        <time>2020-03-04T10:03:07Z</time>
      </trkpt>
      <trkpt lat="46.86892" lon="5.61276">
        <ele>246.8</ele>
        <time>2020-03-04T10:03:08Z</time>
      </trkpt>
      <trkpt lat="46.86896" lon="5.61276">
        <ele>246.8</ele>
        <time>2020-03-04T10:03:09Z</time>
      </trkpt>
      <trkpt lat="46.869" lon="5.61277">
        <ele>247</ele>
        <time>2020-03-04T10:03:10Z</time>
      </trkpt>
      <trkpt lat="46.86903" lon="5.61277">
        <ele>247</ele>
        <time>2020-03-04T10:03:11Z</time>
      </trkpt>
      <trkpt lat="46.86906" lon="5.61278">
        <ele>247.4</ele>
        <time>2020-03-04T10:03:12Z</time>
      </trkpt>
      <trkpt lat="46.8691" lon="5.61278">
        <ele>247.4</ele>
        <time>2020-03-04T10:03:13Z</time>
      </trkpt>
      <trkpt lat="46.86913" lon="5.61279">
        <ele>247.6</ele>
        <time>2020-03-04T10:03:14Z</time>
      </trkpt>
      <trkpt lat="46.86917" lon="5.61279">
        <ele>247.6</ele>
        <time>2020-03-04T10:03:15Z</time>
      </trkpt>
      <trkpt lat="46.8692" lon="5.6128">
        <ele>248</ele>
        <time>2020-03-04T10:03:16Z</time>
      </trkpt>
      <trkpt lat="46.86924" lon="5.6128">
        <ele>248</ele>
        <time>2020-03-04T10:03:17Z</time>
      </trkpt>
      <trkpt lat="46.86927" lon="5.61281">
        <ele>248.4</ele>
        <time>2020-03-04T10:03:18Z</time>
      </trkpt>
      <trkpt lat="46.86931" lon="5.61281">
        <ele>248.4</ele>
        <time>2020-03-04T10:03:19Z</time>
      </trkpt>
      <trkpt lat="46.86934" lon="5.61282">
        <ele>248.6</ele>
        <time>2020-03-04T10:03:20Z</time>
      </trkpt>
      <trkpt lat="46.86938" lon="5.61283">
        <ele>248.6</ele>
        <time>2020-03-04T10:03:21Z</time>
      </trkpt>
      <trkpt lat="46.86941" lon="5.61283">
        <ele>249</ele>
        <time>2020-03-04T10:03:22Z</time>
      </trkpt>
      <trkpt lat="46.86945" lon="5.61284">
        <ele>249</ele>
        <time>2020-03-04T10:03:23Z</time>
      </trkpt>
      <trkpt lat="46.86948" lon="5.61285">
        <ele>249.2</ele>
        <time>2020-03-04T10:03:24Z</time>
      </trkpt>
      <trkpt lat="46.86951" lon="5.61286">
        <ele>249.6</ele>
        <time>2020-03-04T10:03:25Z</time>
      </trkpt>
      <trkpt lat="46.86955" lon="5.61286">
        <ele>249.6</ele>
        <time>2020-03-04T10:03:26Z</time>
      </trkpt>
      <trkpt lat="46.86958" lon="5.61287">
        <ele>249.8</ele>
        <time>2020-03-04T10:03:27Z</time>
      </trkpt>
      <trkpt lat="46.86962" lon="5.61288">
        <ele>249.8</ele>
        <time>2020-03-04T10:03:28Z</time>
      </trkpt>
      <trkpt lat="46.86965" lon="5.61289">
        <ele>250</ele>
        <time>2020-03-04T10:03:29Z</time>
      </trkpt>
      <trkpt lat="46.86968" lon="5.6129">
        <ele>250</ele>
        <time>2020-03-04T10:03:30Z</time>
      </trkpt>
      <trkpt lat="46.86972" lon="5.61291">
        <ele>250.4</ele>
        <time>2020-03-04T10:03:31Z</time>
      </trkpt>
      <trkpt lat="46.86975" lon="5.61292">
        <ele>250.4</ele>
        <time>2020-03-04T10:03:32Z</time>
      </trkpt>
      <trkpt lat="46.86978" lon="5.61293">
        <ele>250.8</ele>
        <time>2020-03-04T10:03:33Z</time>
      </trkpt>
      <trkpt lat="46.86981" lon="5.61293">
        <ele>250.8</ele>
        <time>2020-03-04T10:03:34Z</time>
      </trkpt>
      <trkpt lat="46.86985" lon="5.61294">
        <ele>251</ele>
        <time>2020-03-04T10:03:35Z</time>
      </trkpt>
      <trkpt lat="46.86988" lon="5.61295">
        <ele>251</ele>
        <time>2020-03-04T10:03:36Z</time>
      </trkpt>
      <trkpt lat="46.86991" lon="5.61297">
        <ele>251.2</ele>
        <time>2020-03-04T10:03:37Z</time>
      </trkpt>
      <trkpt lat="46.86994" lon="5.61298">
        <ele>251.2</ele>
        <time>2020-03-04T10:03:38Z</time>
      </trkpt>
      <trkpt lat="46.86997" lon="5.613">
        <ele>251.6</ele>
        <time>2020-03-04T10:03:39Z</time>
      </trkpt>
      <trkpt lat="46.87" lon="5.61302">
        <ele>251.6</ele>
        <time>2020-03-04T10:03:40Z</time>
      </trkpt>
      <trkpt lat="46.87003" lon="5.61303">
        <ele>251.8</ele>
        <time>2020-03-04T10:03:41Z</time>
      </trkpt>
      <trkpt lat="46.87007" lon="5.61305">
        <ele>251.8</ele>
        <time>2020-03-04T10:03:42Z</time>
      </trkpt>
      <trkpt lat="46.8701" lon="5.61306">
        <ele>252</ele>
        <time>2020-03-04T10:03:43Z</time>
      </trkpt>
      <trkpt lat="46.87013" lon="5.61307">
        <ele>252</ele>
        <time>2020-03-04T10:03:44Z</time>
      </trkpt>
      <trkpt lat="46.87016" lon="5.61309">
        <ele>252.4</ele>
        <time>2020-03-04T10:03:45Z</time>
      </trkpt>
      <trkpt lat="46.87019" lon="5.6131">
        <ele>252.4</ele>
        <time>2020-03-04T10:03:46Z</time>
      </trkpt>
      <trkpt lat="46.87022" lon="5.61311">
        <ele>252.4</ele>
        <time>2020-03-04T10:03:47Z</time>
      </trkpt>
      <trkpt lat="46.87026" lon="5.61313">
        <ele>252.6</ele>
        <time>2020-03-04T10:03:48Z</time>
      </trkpt>
      <trkpt lat="46.87029" lon="5.61315">
        <ele>252.6</ele>
        <time>2020-03-04T10:03:49Z</time>
      </trkpt>
      <trkpt lat="46.87032" lon="5.61317">
        <ele>252.6</ele>
        <time>2020-03-04T10:03:50Z</time>
      </trkpt>
      <trkpt lat="46.87035" lon="5.61318">
        <ele>253</ele>
        <time>2020-03-04T10:03:51Z</time>
      </trkpt>
      <trkpt lat="46.87038" lon="5.6132">
        <ele>253.4</ele>
        <time>2020-03-04T10:03:52Z</time>
      </trkpt>
      <trkpt lat="46.87041" lon="5.61322">
        <ele>253.4</ele>
        <time>2020-03-04T10:03:53Z</time>
      </trkpt>
      <trkpt lat="46.87044" lon="5.61324">
        <ele>253.4</ele>
        <time>2020-03-04T10:03:54Z</time>
      </trkpt>
      <trkpt lat="46.87047" lon="5.61326">
        <ele>253.4</ele>
        <time>2020-03-04T10:03:55Z</time>
      </trkpt>
      <trkpt lat="46.87049" lon="5.61328">
        <ele>253.6</ele>
        <time>2020-03-04T10:03:56Z</time>
      </trkpt>
      <trkpt lat="46.87052" lon="5.6133">
        <ele>253.6</ele>
        <time>2020-03-04T10:03:57Z</time>
      </trkpt>
      <trkpt lat="46.87055" lon="5.61332">
        <ele>253.6</ele>
        <time>2020-03-04T10:03:58Z</time>
      </trkpt>
      <trkpt lat="46.87058" lon="5.61334">
        <ele>253.6</ele>
        <time>2020-03-04T10:03:59Z</time>
      </trkpt>
      <trkpt lat="46.87061" lon="5.61336">
        <ele>253.6</ele>
        <time>2020-03-04T10:04:00Z</time>
      </trkpt>
      <trkpt lat="46.87065" lon="5.61338">
        <ele>253.8</ele>
        <time>2020-03-04T10:04:01Z</time>
      </trkpt>
      <trkpt lat="46.87068" lon="5.61341">
        <ele>253.8</ele>
        <time>2020-03-04T10:04:02Z</time>
      </trkpt>
      <trkpt lat="46.87071" lon="5.61344">
        <ele>253.8</ele>
        <time>2020-03-04T10:04:03Z</time>
      </trkpt>
      <trkpt lat="46.87074" lon="5.61347">
        <ele>253.8</ele>
        <time>2020-03-04T10:04:04Z</time>
      </trkpt>
      <trkpt lat="46.87078" lon="5.6135">
        <ele>253.8</ele>
        <time>2020-03-04T10:04:05Z</time>
      </trkpt>
      <trkpt lat="46.87081" lon="5.61353">
        <ele>254.2</ele>
        <time>2020-03-04T10:04:06Z</time>
      </trkpt>
      <trkpt lat="46.87085" lon="5.61356">
        <ele>254.2</ele>
        <time>2020-03-04T10:04:07Z</time>
      </trkpt>
      <trkpt lat="46.87088" lon="5.61359">
        <ele>254.2</ele>
        <time>2020-03-04T10:04:08Z</time>
      </trkpt>
      <trkpt lat="46.87092" lon="5.61362">
        <ele>254.2</ele>
        <time>2020-03-04T10:04:09Z</time>
      </trkpt>
      <trkpt lat="46.87096" lon="5.61366">
        <ele>254.2</ele>
        <time>2020-03-04T10:04:10Z</time>
      </trkpt>
      <trkpt lat="46.87099" lon="5.6137">
        <ele>254.2</ele>
        <time>2020-03-04T10:04:11Z</time>
      </trkpt>
      <trkpt lat="46.87103" lon="5.61374">
        <ele>254.2</ele>
        <time>2020-03-04T10:04:12Z</time>
      </trkpt>
      <trkpt lat="46.87107" lon="5.61378">
        <ele>254.2</ele>
        <time>2020-03-04T10:04:13Z</time>
      </trkpt>
      <trkpt lat="46.87111" lon="5.61382">
        <ele>254.2</ele>
        <time>2020-03-04T10:04:14Z</time>
      </trkpt>
      <trkpt lat="46.87115" lon="5.61386">
        <ele>254.2</ele>
        <time>2020-03-04T10:04:15Z</time>
      </trkpt>
      <trkpt lat="46.87118" lon="5.6139">
        <ele>254.2</ele>
        <time>2020-03-04T10:04:16Z</time>
      </trkpt>
      <trkpt lat="46.87122" lon="5.61395">
        <ele>254.2</ele>
        <time>2020-03-04T10:04:17Z</time>
      </trkpt>
      <trkpt lat="46.87126" lon="5.614">
        <ele>254.2</ele>
        <time>2020-03-04T10:04:18Z</time>
      </trkpt>
      <trkpt lat="46.8713" lon="5.61405">
        <ele>254</ele>
        <time>2020-03-04T10:04:19Z</time>
      </trkpt>
      <trkpt lat="46.87134" lon="5.61409">
        <ele>254</ele>
        <time>2020-03-04T10:04:20Z</time>
      </trkpt>
      <trkpt lat="46.87138" lon="5.61415">
        <ele>253.6</ele>
        <time>2020-03-04T10:04:21Z</time>
      </trkpt>
      <trkpt lat="46.87142" lon="5.6142">
        <ele>253.6</ele>
        <time>2020-03-04T10:04:22Z</time>
      </trkpt>
      <trkpt lat="46.87146" lon="5.61425">
        <ele>253.4</ele>
        <time>2020-03-04T10:04:23Z</time>
      </trkpt>
      <trkpt lat="46.87151" lon="5.61431">
        <ele>253.4</ele>
        <time>2020-03-04T10:04:24Z</time>
      </trkpt>
      <trkpt lat="46.87156" lon="5.61436">
        <ele>253.2</ele>
        <time>2020-03-04T10:04:25Z</time>
      </trkpt>
      <trkpt lat="46.8716" lon="5.61442">
        <ele>253.2</ele>
        <time>2020-03-04T10:04:26Z</time>
      </trkpt>
      <trkpt lat="46.87165" lon="5.61448">
        <ele>253.2</ele>
        <time>2020-03-04T10:04:27Z</time>
      </trkpt>
      <trkpt lat="46.87169" lon="5.61454">
        <ele>253</ele>
        <time>2020-03-04T10:04:28Z</time>
      </trkpt>
      <trkpt lat="46.87174" lon="5.6146">
        <ele>253</ele>
        <time>2020-03-04T10:04:29Z</time>
      </trkpt>
      <trkpt lat="46.87179" lon="5.61466">
        <ele>252.8</ele>
        <time>2020-03-04T10:04:30Z</time>
      </trkpt>
      <trkpt lat="46.87184" lon="5.61472">
        <ele>252.8</ele>
        <time>2020-03-04T10:04:31Z</time>
      </trkpt>
      <trkpt lat="46.87189" lon="5.61478">
        <ele>252.4</ele>
        <time>2020-03-04T10:04:32Z</time>
      </trkpt>
      <trkpt lat="46.87195" lon="5.61485">
        <ele>252.4</ele>
        <time>2020-03-04T10:04:33Z</time>
      </trkpt>
      <trkpt lat="46.872" lon="5.61491">
        <ele>252.2</ele>
        <time>2020-03-04T10:04:34Z</time>
      </trkpt>
      <trkpt lat="46.87205" lon="5.61498">
        <ele>252</ele>
        <time>2020-03-04T10:04:35Z</time>
      </trkpt>
      <trkpt lat="46.87211" lon="5.61504">
        <ele>251.8</ele>
        <time>2020-03-04T10:04:36Z</time>
      </trkpt>
      <trkpt lat="46.87217" lon="5.6151">
        <ele>251.8</ele>
        <time>2020-03-04T10:04:37Z</time>
      </trkpt>
      <trkpt lat="46.87223" lon="5.61516">
        <ele>251.6</ele>
        <time>2020-03-04T10:04:38Z</time>
      </trkpt>
      <trkpt lat="46.87229" lon="5.61523">
        <ele>251.6</ele>
        <time>2020-03-04T10:04:39Z</time>
      </trkpt>
      <trkpt lat="46.87235" lon="5.61529">
        <ele>251.6</ele>
        <time>2020-03-04T10:04:40Z</time>
      </trkpt>
      <trkpt lat="46.87241" lon="5.61535">
        <ele>251.2</ele>
        <time>2020-03-04T10:04:41Z</time>
      </trkpt>
      <trkpt lat="46.87248" lon="5.61541">
        <ele>251.2</ele>
        <time>2020-03-04T10:04:42Z</time>
      </trkpt>
      <trkpt lat="46.87254" lon="5.61546">
        <ele>251.2</ele>
        <time>2020-03-04T10:04:43Z</time>
      </trkpt>
      <trkpt lat="46.8726" lon="5.61552">
        <ele>251.2</ele>
        <time>2020-03-04T10:04:44Z</time>
      </trkpt>
      <trkpt lat="46.87267" lon="5.61558">
        <ele>251.2</ele>
        <time>2020-03-04T10:04:45Z</time>
      </trkpt>
      <trkpt lat="46.87273" lon="5.61563">
        <ele>251.2</ele>
        <time>2020-03-04T10:04:46Z</time>
      </trkpt>
      <trkpt lat="46.87279" lon="5.61568">
        <ele>251.2</ele>
        <time>2020-03-04T10:04:47Z</time>
      </trkpt>
      <trkpt lat="46.87286" lon="5.61573">
        <ele>251.2</ele>
        <time>2020-03-04T10:04:48Z</time>
      </trkpt>
      <trkpt lat="46.87292" lon="5.61577">
        <ele>251.2</ele>
        <time>2020-03-04T10:04:49Z</time>
      </trkpt>
      <trkpt lat="46.87298" lon="5.61582">
        <ele>251.2</ele>
        <time>2020-03-04T10:04:50Z</time>
      </trkpt>
      <trkpt lat="46.87304" lon="5.61587">
        <ele>251.4</ele>
        <time>2020-03-04T10:04:51Z</time>
      </trkpt>
      <trkpt lat="46.8731" lon="5.61592">
        <ele>251.4</ele>
        <time>2020-03-04T10:04:52Z</time>
      </trkpt>
      <trkpt lat="46.87317" lon="5.61597">
        <ele>251.6</ele>
        <time>2020-03-04T10:04:53Z</time>
      </trkpt>
      <trkpt lat="46.87323" lon="5.61602">
        <ele>251.6</ele>
        <time>2020-03-04T10:04:54Z</time>
      </trkpt>
      <trkpt lat="46.87329" lon="5.61608">
        <ele>252</ele>
        <time>2020-03-04T10:04:55Z</time>
      </trkpt>
      <trkpt lat="46.87335" lon="5.61614">
        <ele>252</ele>
        <time>2020-03-04T10:04:56Z</time>
      </trkpt>
      <trkpt lat="46.87341" lon="5.6162">
        <ele>252.4</ele>
        <time>2020-03-04T10:04:57Z</time>
      </trkpt>
      <trkpt lat="46.87347" lon="5.61626">
        <ele>252.6</ele>
        <time>2020-03-04T10:04:58Z</time>
      </trkpt>
      <trkpt lat="46.87353" lon="5.61633">
        <ele>252.8</ele>
        <time>2020-03-04T10:04:59Z</time>
      </trkpt>
      <trkpt lat="46.87359" lon="5.6164">
        <ele>253.2</ele>
        <time>2020-03-04T10:05:00Z</time>
      </trkpt>
      <trkpt lat="46.87364" lon="5.61647">
        <ele>253.4</ele>
        <time>2020-03-04T10:05:01Z</time>
      </trkpt>
      <trkpt lat="46.8737" lon="5.61654">
        <ele>253.8</ele>
        <time>2020-03-04T10:05:02Z</time>
      </trkpt>
      <trkpt lat="46.87375" lon="5.61662">
        <ele>254</ele>
        <time>2020-03-04T10:05:03Z</time>
      </trkpt>
      <trkpt lat="46.8738" lon="5.6167">
        <ele>254.4</ele>
        <time>2020-03-04T10:05:04Z</time>
      </trkpt>
      <trkpt lat="46.87385" lon="5.61677">
        <ele>254.6</ele>
        <time>2020-03-04T10:05:05Z</time>
      </trkpt>
      <trkpt lat="46.8739" lon="5.61685">
        <ele>254.8</ele>
        <time>2020-03-04T10:05:06Z</time>
      </trkpt>
      <trkpt lat="46.87394" lon="5.61693">
        <ele>255</ele>
        <time>2020-03-04T10:05:07Z</time>
      </trkpt>
      <trkpt lat="46.874" lon="5.61701">
        <ele>255.2</ele>
        <time>2020-03-04T10:05:08Z</time>
      </trkpt>
      <trkpt lat="46.87405" lon="5.61708">
        <ele>255.4</ele>
        <time>2020-03-04T10:05:09Z</time>
      </trkpt>
      <trkpt lat="46.8741" lon="5.61715">
        <ele>255.8</ele>
        <time>2020-03-04T10:05:10Z</time>
      </trkpt>
      <trkpt lat="46.87416" lon="5.61722">
        <ele>256</ele>
        <time>2020-03-04T10:05:11Z</time>
      </trkpt>
      <trkpt lat="46.87421" lon="5.61728">
        <ele>256.4</ele>
        <time>2020-03-04T10:05:12Z</time>
      </trkpt>
      <trkpt lat="46.87427" lon="5.61735">
        <ele>256.6</ele>
        <time>2020-03-04T10:05:13Z</time>
      </trkpt>
      <trkpt lat="46.87432" lon="5.61742">
        <ele>256.8</ele>
        <time>2020-03-04T10:05:14Z</time>
      </trkpt>
      <trkpt lat="46.87438" lon="5.61748">
        <ele>256.8</ele>
        <time>2020-03-04T10:05:15Z</time>
      </trkpt>
      <trkpt lat="46.87443" lon="5.61753">
        <ele>257</ele>
        <time>2020-03-04T10:05:16Z</time>
      </trkpt>
      <trkpt lat="46.87448" lon="5.61758">
        <ele>257</ele>
        <time>2020-03-04T10:05:17Z</time>
      </trkpt>
      <trkpt lat="46.87454" lon="5.61763">
        <ele>257.4</ele>
        <time>2020-03-04T10:05:18Z</time>
      </trkpt>
      <trkpt lat="46.87459" lon="5.61768">
        <ele>257.8</ele>
        <time>2020-03-04T10:05:19Z</time>
      </trkpt>
      <trkpt lat="46.87464" lon="5.61773">
        <ele>258</ele>
        <time>2020-03-04T10:05:20Z</time>
      </trkpt>
      <trkpt lat="46.87469" lon="5.61777">
        <ele>258</ele>
        <time>2020-03-04T10:05:21Z</time>
      </trkpt>
      <trkpt lat="46.87474" lon="5.61781">
        <ele>258.6</ele>
        <time>2020-03-04T10:05:22Z</time>
      </trkpt>
      <trkpt lat="46.87479" lon="5.61785">
        <ele>258.6</ele>
        <time>2020-03-04T10:05:23Z</time>
      </trkpt>
      <trkpt lat="46.87484" lon="5.61788">
        <ele>258.8</ele>
        <time>2020-03-04T10:05:24Z</time>
      </trkpt>
      <trkpt lat="46.87489" lon="5.61791">
        <ele>259.2</ele>
        <time>2020-03-04T10:05:25Z</time>
      </trkpt>
      <trkpt lat="46.87494" lon="5.61793">
        <ele>259.4</ele>
        <time>2020-03-04T10:05:26Z</time>
      </trkpt>
      <trkpt lat="46.87499" lon="5.61796">
        <ele>259.4</ele>
        <time>2020-03-04T10:05:27Z</time>
      </trkpt>
      <trkpt lat="46.87504" lon="5.61798">
        <ele>259.8</ele>
        <time>2020-03-04T10:05:28Z</time>
      </trkpt>
      <trkpt lat="46.87509" lon="5.61801">
        <ele>259.8</ele>
        <time>2020-03-04T10:05:29Z</time>
      </trkpt>
      <trkpt lat="46.87514" lon="5.61804">
        <ele>260</ele>
        <time>2020-03-04T10:05:30Z</time>
      </trkpt>
      <trkpt lat="46.87518" lon="5.61807">
        <ele>260</ele>
        <time>2020-03-04T10:05:31Z</time>
      </trkpt>
      <trkpt lat="46.87523" lon="5.61809">
        <ele>260</ele>
        <time>2020-03-04T10:05:32Z</time>
      </trkpt>
      <trkpt lat="46.87528" lon="5.61812">
        <ele>260.2</ele>
        <time>2020-03-04T10:05:33Z</time>
      </trkpt>
      <trkpt lat="46.87532" lon="5.61815">
        <ele>260.2</ele>
        <time>2020-03-04T10:05:34Z</time>
      </trkpt>
      <trkpt lat="46.87537" lon="5.61818">
        <ele>260.2</ele>
        <time>2020-03-04T10:05:35Z</time>
      </trkpt>
      <trkpt lat="46.87541" lon="5.6182">
        <ele>260.6</ele>
        <time>2020-03-04T10:05:36Z</time>
      </trkpt>
      <trkpt lat="46.87546" lon="5.61822">
        <ele>260.6</ele>
        <time>2020-03-04T10:05:37Z</time>
      </trkpt>
      <trkpt lat="46.8755" lon="5.61825">
        <ele>260.6</ele>
        <time>2020-03-04T10:05:38Z</time>
      </trkpt>
      <trkpt lat="46.87555" lon="5.61827">
        <ele>260.6</ele>
        <time>2020-03-04T10:05:39Z</time>
      </trkpt>
      <trkpt lat="46.87559" lon="5.61829">
        <ele>260.8</ele>
        <time>2020-03-04T10:05:40Z</time>
      </trkpt>
      <trkpt lat="46.87564" lon="5.61832">
        <ele>260.8</ele>
        <time>2020-03-04T10:05:41Z</time>
      </trkpt>
      <trkpt lat="46.87568" lon="5.61834">
        <ele>260.8</ele>
        <time>2020-03-04T10:05:42Z</time>
      </trkpt>
      <trkpt lat="46.87573" lon="5.61837">
        <ele>260.8</ele>
        <time>2020-03-04T10:05:43Z</time>
      </trkpt>
      <trkpt lat="46.87578" lon="5.6184">
        <ele>260.8</ele>
        <time>2020-03-04T10:05:44Z</time>
      </trkpt>
      <trkpt lat="46.87583" lon="5.61842">
        <ele>260.8</ele>
        <time>2020-03-04T10:05:45Z</time>
      </trkpt>
      <trkpt lat="46.87589" lon="5.61845">
        <ele>260.8</ele>
        <time>2020-03-04T10:05:46Z</time>
      </trkpt>
      <trkpt lat="46.87594" lon="5.61848">
        <ele>260.8</ele>
        <time>2020-03-04T10:05:47Z</time>
      </trkpt>
      <trkpt lat="46.876" lon="5.6185">
        <ele>260.8</ele>
        <time>2020-03-04T10:05:48Z</time>
      </trkpt>
      <trkpt lat="46.87606" lon="5.61853">
        <ele>260.8</ele>
        <time>2020-03-04T10:05:49Z</time>
      </trkpt>
      <trkpt lat="46.87611" lon="5.61855">
        <ele>260.8</ele>
        <time>2020-03-04T10:05:50Z</time>
      </trkpt>
      <trkpt lat="46.87617" lon="5.61858">
        <ele>260.8</ele>
        <time>2020-03-04T10:05:51Z</time>
      </trkpt>
      <trkpt lat="46.87623" lon="5.6186">
        <ele>260.6</ele>
        <time>2020-03-04T10:05:52Z</time>
      </trkpt>
      <trkpt lat="46.87628" lon="5.61863">
        <ele>260.6</ele>
        <time>2020-03-04T10:05:53Z</time>
      </trkpt>
      <trkpt lat="46.87634" lon="5.61865">
        <ele>260.6</ele>
        <time>2020-03-04T10:05:54Z</time>
      </trkpt>
      <trkpt lat="46.87639" lon="5.61868">
        <ele>260.6</ele>
        <time>2020-03-04T10:05:55Z</time>
      </trkpt>
      <trkpt lat="46.87645" lon="5.61871">
        <ele>260.8</ele>
        <time>2020-03-04T10:05:56Z</time>
      </trkpt>
      <trkpt lat="46.8765" lon="5.61873">
        <ele>260.8</ele>
        <time>2020-03-04T10:05:57Z</time>
      </trkpt>
      <trkpt lat="46.87655" lon="5.61875">
        <ele>261.2</ele>
        <time>2020-03-04T10:05:58Z</time>
      </trkpt>
      <trkpt lat="46.8766" lon="5.61877">
        <ele>261.2</ele>
        <time>2020-03-04T10:05:59Z</time>
      </trkpt>
      <trkpt lat="46.87665" lon="5.61879">
        <ele>261.4</ele>
        <time>2020-03-04T10:06:00Z</time>
      </trkpt>
      <trkpt lat="46.8767" lon="5.61882">
        <ele>261.4</ele>
        <time>2020-03-04T10:06:01Z</time>
      </trkpt>
      <trkpt lat="46.87675" lon="5.61884">
        <ele>261.8</ele>
        <time>2020-03-04T10:06:02Z</time>
      </trkpt>
      <trkpt lat="46.87679" lon="5.61886">
        <ele>261.8</ele>
        <time>2020-03-04T10:06:03Z</time>
      </trkpt>
      <trkpt lat="46.87684" lon="5.61888">
        <ele>262.2</ele>
        <time>2020-03-04T10:06:04Z</time>
      </trkpt>
      <trkpt lat="46.87688" lon="5.6189">
        <ele>262.2</ele>
        <time>2020-03-04T10:06:05Z</time>
      </trkpt>
      <trkpt lat="46.87693" lon="5.61893">
        <ele>262.4</ele>
        <time>2020-03-04T10:06:06Z</time>
      </trkpt>
      <trkpt lat="46.87697" lon="5.61895">
        <ele>262.4</ele>
        <time>2020-03-04T10:06:07Z</time>
      </trkpt>
      <trkpt lat="46.87701" lon="5.61897">
        <ele>262.8</ele>
        <time>2020-03-04T10:06:08Z</time>
      </trkpt>
      <trkpt lat="46.87705" lon="5.61899">
        <ele>262.8</ele>
        <time>2020-03-04T10:06:09Z</time>
      </trkpt>
      <trkpt lat="46.87709" lon="5.61901">
        <ele>263</ele>
        <time>2020-03-04T10:06:10Z</time>
      </trkpt>
      <trkpt lat="46.87714" lon="5.61904">
        <ele>263</ele>
        <time>2020-03-04T10:06:11Z</time>
      </trkpt>
      <trkpt lat="46.87718" lon="5.61906">
        <ele>263.4</ele>
        <time>2020-03-04T10:06:12Z</time>
      </trkpt>
      <trkpt lat="46.87723" lon="5.61908">
        <ele>263.4</ele>
        <time>2020-03-04T10:06:13Z</time>
      </trkpt>
      <trkpt lat="46.87728" lon="5.6191">
        <ele>263.4</ele>
        <time>2020-03-04T10:06:14Z</time>
      </trkpt>
      <trkpt lat="46.87732" lon="5.61913">
        <ele>263.4</ele>
        <time>2020-03-04T10:06:15Z</time>
      </trkpt>
      <trkpt lat="46.87737" lon="5.61916">
        <ele>263.4</ele>
        <time>2020-03-04T10:06:16Z</time>
      </trkpt>
      <trkpt lat="46.87742" lon="5.61919">
        <ele>263.4</ele>
        <time>2020-03-04T10:06:17Z</time>
      </trkpt>
      <trkpt lat="46.87747" lon="5.61922">
        <ele>263.4</ele>
        <time>2020-03-04T10:06:18Z</time>
      </trkpt>
      <trkpt lat="46.87752" lon="5.61926">
        <ele>263.4</ele>
        <time>2020-03-04T10:06:19Z</time>
      </trkpt>
      <trkpt lat="46.87757" lon="5.6193">
        <ele>263.4</ele>
        <time>2020-03-04T10:06:20Z</time>
      </trkpt>
      <trkpt lat="46.87762" lon="5.61934">
        <ele>263.4</ele>
        <time>2020-03-04T10:06:21Z</time>
      </trkpt>
      <trkpt lat="46.87767" lon="5.61939">
        <ele>263.4</ele>
        <time>2020-03-04T10:06:22Z</time>
      </trkpt>
      <trkpt lat="46.87773" lon="5.61943">
        <ele>263.4</ele>
        <time>2020-03-04T10:06:23Z</time>
      </trkpt>
      <trkpt lat="46.87778" lon="5.61949">
        <ele>263</ele>
        <time>2020-03-04T10:06:24Z</time>
      </trkpt>
      <trkpt lat="46.87783" lon="5.61954">
        <ele>263</ele>
        <time>2020-03-04T10:06:25Z</time>
      </trkpt>
      <trkpt lat="46.87788" lon="5.6196">
        <ele>263</ele>
        <time>2020-03-04T10:06:26Z</time>
      </trkpt>
      <trkpt lat="46.87794" lon="5.61966">
        <ele>262.8</ele>
        <time>2020-03-04T10:06:27Z</time>
      </trkpt>
      <trkpt lat="46.87799" lon="5.61972">
        <ele>262.8</ele>
        <time>2020-03-04T10:06:28Z</time>
      </trkpt>
      <trkpt lat="46.87805" lon="5.61978">
        <ele>262.8</ele>
        <time>2020-03-04T10:06:29Z</time>
      </trkpt>
      <trkpt lat="46.8781" lon="5.61985">
        <ele>262.4</ele>
        <time>2020-03-04T10:06:30Z</time>
      </trkpt>
      <trkpt lat="46.87817" lon="5.61991">
        <ele>262.2</ele>
        <time>2020-03-04T10:06:31Z</time>
      </trkpt>
      <trkpt lat="46.87823" lon="5.61997">
        <ele>262.2</ele>
        <time>2020-03-04T10:06:32Z</time>
      </trkpt>
      <trkpt lat="46.87829" lon="5.62004">
        <ele>262</ele>
        <time>2020-03-04T10:06:33Z</time>
      </trkpt>
      <trkpt lat="46.87836" lon="5.6201">
        <ele>262</ele>
        <time>2020-03-04T10:06:34Z</time>
      </trkpt>
      <trkpt lat="46.87843" lon="5.62015">
        <ele>261.6</ele>
        <time>2020-03-04T10:06:35Z</time>
      </trkpt>
      <trkpt lat="46.8785" lon="5.62021">
        <ele>261.6</ele>
        <time>2020-03-04T10:06:36Z</time>
      </trkpt>
      <trkpt lat="46.87858" lon="5.62026">
        <ele>261.2</ele>
        <time>2020-03-04T10:06:37Z</time>
      </trkpt>
      <trkpt lat="46.87865" lon="5.62032">
        <ele>261.2</ele>
        <time>2020-03-04T10:06:38Z</time>
      </trkpt>
      <trkpt lat="46.87873" lon="5.62037">
        <ele>260.8</ele>
        <time>2020-03-04T10:06:39Z</time>
      </trkpt>
      <trkpt lat="46.8788" lon="5.62042">
        <ele>260.8</ele>
        <time>2020-03-04T10:06:40Z</time>
      </trkpt>
      <trkpt lat="46.87888" lon="5.62047">
        <ele>260.6</ele>
        <time>2020-03-04T10:06:41Z</time>
      </trkpt>
      <trkpt lat="46.87895" lon="5.62052">
        <ele>260.6</ele>
        <time>2020-03-04T10:06:42Z</time>
      </trkpt>
      <trkpt lat="46.87903" lon="5.62057">
        <ele>260.4</ele>
        <time>2020-03-04T10:06:43Z</time>
      </trkpt>
      <trkpt lat="46.87911" lon="5.62062">
        <ele>260.4</ele>
        <time>2020-03-04T10:06:44Z</time>
      </trkpt>
      <trkpt lat="46.87918" lon="5.62066">
        <ele>260</ele>
        <time>2020-03-04T10:06:45Z</time>
      </trkpt>
      <trkpt lat="46.87926" lon="5.6207">
        <ele>260</ele>
        <time>2020-03-04T10:06:46Z</time>
      </trkpt>
      <trkpt lat="46.87934" lon="5.62073">
        <ele>259.8</ele>
        <time>2020-03-04T10:06:47Z</time>
      </trkpt>
      <trkpt lat="46.87942" lon="5.62074">
        <ele>259.6</ele>
        <time>2020-03-04T10:06:48Z</time>
      </trkpt>
      <trkpt lat="46.8795" lon="5.62074">
        <ele>259.6</ele>
        <time>2020-03-04T10:06:49Z</time>
      </trkpt>
      <trkpt lat="46.87958" lon="5.62074">
        <ele>259.4</ele>
        <time>2020-03-04T10:06:50Z</time>
      </trkpt>
      <trkpt lat="46.87967" lon="5.62074">
        <ele>259</ele>
        <time>2020-03-04T10:06:51Z</time>
      </trkpt>
      <trkpt lat="46.87975" lon="5.62073">
        <ele>258.8</ele>
        <time>2020-03-04T10:06:52Z</time>
      </trkpt>
      <trkpt lat="46.87984" lon="5.62071">
        <ele>258.6</ele>
        <time>2020-03-04T10:06:53Z</time>
      </trkpt>
      <trkpt lat="46.87992" lon="5.62069">
        <ele>258.2</ele>
        <time>2020-03-04T10:06:54Z</time>
      </trkpt>
      <trkpt lat="46.88" lon="5.62066">
        <ele>257.8</ele>
        <time>2020-03-04T10:06:55Z</time>
      </trkpt>
      <trkpt lat="46.88009" lon="5.62062">
        <ele>257.4</ele>
        <time>2020-03-04T10:06:56Z</time>
      </trkpt>
      <trkpt lat="46.88017" lon="5.62059">
        <ele>257</ele>
        <time>2020-03-04T10:06:57Z</time>
      </trkpt>
      <trkpt lat="46.88026" lon="5.62055">
        <ele>256.8</ele>
        <time>2020-03-04T10:06:58Z</time>
      </trkpt>
      <trkpt lat="46.88035" lon="5.62052">
        <ele>256.4</ele>
        <time>2020-03-04T10:06:59Z</time>
      </trkpt>
      <trkpt lat="46.88043" lon="5.62049">
        <ele>256</ele>
        <time>2020-03-04T10:07:00Z</time>
      </trkpt>
      <trkpt lat="46.88052" lon="5.62047">
        <ele>255.8</ele>
        <time>2020-03-04T10:07:01Z</time>
      </trkpt>
      <trkpt lat="46.8806" lon="5.62044">
        <ele>255.4</ele>
        <time>2020-03-04T10:07:02Z</time>
      </trkpt>
      <trkpt lat="46.88069" lon="5.62041">
        <ele>255</ele>
        <time>2020-03-04T10:07:03Z</time>
      </trkpt>
      <trkpt lat="46.88078" lon="5.6204">
        <ele>254.8</ele>
        <time>2020-03-04T10:07:04Z</time>
      </trkpt>
      <trkpt lat="46.88087" lon="5.62039">
        <ele>254.4</ele>
        <time>2020-03-04T10:07:05Z</time>
      </trkpt>
      <trkpt lat="46.88096" lon="5.62039">
        <ele>254.2</ele>
        <time>2020-03-04T10:07:06Z</time>
      </trkpt>
      <trkpt lat="46.88106" lon="5.62038">
        <ele>254</ele>
        <time>2020-03-04T10:07:07Z</time>
      </trkpt>
      <trkpt lat="46.88115" lon="5.62037">
        <ele>253.6</ele>
        <time>2020-03-04T10:07:08Z</time>
      </trkpt>
      <trkpt lat="46.88125" lon="5.62036">
        <ele>253.6</ele>
        <time>2020-03-04T10:07:09Z</time>
      </trkpt>
      <trkpt lat="46.88134" lon="5.62034">
        <ele>253</ele>
        <time>2020-03-04T10:07:10Z</time>
      </trkpt>
      <trkpt lat="46.88143" lon="5.62031">
        <ele>252.8</ele>
        <time>2020-03-04T10:07:11Z</time>
      </trkpt>
      <trkpt lat="46.88151" lon="5.62029">
        <ele>252.6</ele>
        <time>2020-03-04T10:07:12Z</time>
      </trkpt>
      <trkpt lat="46.88159" lon="5.62026">
        <ele>252.6</ele>
        <time>2020-03-04T10:07:13Z</time>
      </trkpt>
      <trkpt lat="46.88168" lon="5.62024">
        <ele>252</ele>
        <time>2020-03-04T10:07:14Z</time>
      </trkpt>
      <trkpt lat="46.88177" lon="5.62023">
        <ele>251.8</ele>
        <time>2020-03-04T10:07:15Z</time>
      </trkpt>
      <trkpt lat="46.88186" lon="5.62023">
        <ele>251.8</ele>
        <time>2020-03-04T10:07:16Z</time>
      </trkpt>
      <trkpt lat="46.88195" lon="5.62025">
        <ele>251.4</ele>
        <time>2020-03-04T10:07:17Z</time>
      </trkpt>
      <trkpt lat="46.88204" lon="5.62027">
        <ele>251.4</ele>
        <time>2020-03-04T10:07:18Z</time>
      </trkpt>
      <trkpt lat="46.88213" lon="5.6203">
        <ele>251.2</ele>
        <time>2020-03-04T10:07:19Z</time>
      </trkpt>
      <trkpt lat="46.88221" lon="5.62033">
        <ele>251</ele>
        <time>2020-03-04T10:07:20Z</time>
      </trkpt>
      <trkpt lat="46.88231" lon="5.62037">
        <ele>251</ele>
        <time>2020-03-04T10:07:21Z</time>
      </trkpt>
      <trkpt lat="46.88239" lon="5.62042">
        <ele>250.6</ele>
        <time>2020-03-04T10:07:22Z</time>
      </trkpt>
      <trkpt lat="46.88247" lon="5.62048">
        <ele>250.6</ele>
        <time>2020-03-04T10:07:23Z</time>
      </trkpt>
      <trkpt lat="46.88255" lon="5.62056">
        <ele>250</ele>
        <time>2020-03-04T10:07:24Z</time>
      </trkpt>
      <trkpt lat="46.88263" lon="5.62064">
        <ele>249.8</ele>
        <time>2020-03-04T10:07:25Z</time>
      </trkpt>
      <trkpt lat="46.8827" lon="5.62073">
        <ele>249.6</ele>
        <time>2020-03-04T10:07:26Z</time>
      </trkpt>
      <trkpt lat="46.88276" lon="5.62082">
        <ele>249.6</ele>
        <time>2020-03-04T10:07:27Z</time>
      </trkpt>
      <trkpt lat="46.88282" lon="5.62092">
        <ele>249.4</ele>
        <time>2020-03-04T10:07:28Z</time>
      </trkpt>
      <trkpt lat="46.88288" lon="5.62102">
        <ele>249.4</ele>
        <time>2020-03-04T10:07:29Z</time>
      </trkpt>
      <trkpt lat="46.88294" lon="5.62112">
        <ele>249</ele>
        <time>2020-03-04T10:07:30Z</time>
      </trkpt>
      <trkpt lat="46.883" lon="5.62122">
        <ele>248.8</ele>
        <time>2020-03-04T10:07:31Z</time>
      </trkpt>
      <trkpt lat="46.88306" lon="5.62132">
        <ele>248.4</ele>
        <time>2020-03-04T10:07:32Z</time>
      </trkpt>
      <trkpt lat="46.88313" lon="5.62141">
        <ele>248.2</ele>
        <time>2020-03-04T10:07:33Z</time>
      </trkpt>
      <trkpt lat="46.88319" lon="5.62149">
        <ele>248</ele>
        <time>2020-03-04T10:07:34Z</time>
      </trkpt>
      <trkpt lat="46.88326" lon="5.62156">
        <ele>247.6</ele>
        <time>2020-03-04T10:07:35Z</time>
      </trkpt>
      <trkpt lat="46.88334" lon="5.62162">
        <ele>247.2</ele>
        <time>2020-03-04T10:07:36Z</time>
      </trkpt>
      <trkpt lat="46.88342" lon="5.62167">
        <ele>247</ele>
        <time>2020-03-04T10:07:37Z</time>
      </trkpt>
      <trkpt lat="46.88351" lon="5.62172">
        <ele>246.6</ele>
        <time>2020-03-04T10:07:38Z</time>
      </trkpt>
      <trkpt lat="46.88359" lon="5.62175">
        <ele>246.2</ele>
        <time>2020-03-04T10:07:39Z</time>
      </trkpt>
      <trkpt lat="46.88368" lon="5.62179">
        <ele>246</ele>
        <time>2020-03-04T10:07:40Z</time>
      </trkpt>
      <trkpt lat="46.88377" lon="5.62183">
        <ele>245.6</ele>
        <time>2020-03-04T10:07:41Z</time>
      </trkpt>
      <trkpt lat="46.88386" lon="5.62187">
        <ele>245.2</ele>
        <time>2020-03-04T10:07:42Z</time>
      </trkpt>
      <trkpt lat="46.88395" lon="5.62191">
        <ele>245</ele>
        <time>2020-03-04T10:07:43Z</time>
      </trkpt>
      <trkpt lat="46.88405" lon="5.62197">
        <ele>244.8</ele>
        <time>2020-03-04T10:07:44Z</time>
      </trkpt>
      <trkpt lat="46.88415" lon="5.62201">
        <ele>244.4</ele>
        <time>2020-03-04T10:07:45Z</time>
      </trkpt>
      <trkpt lat="46.88427" lon="5.62204">
        <ele>244.2</ele>
        <time>2020-03-04T10:07:46Z</time>
      </trkpt>
      <trkpt lat="46.88436" lon="5.62209">
        <ele>243.8</ele>
        <time>2020-03-04T10:07:47Z</time>
      </trkpt>
      <trkpt lat="46.88447" lon="5.62212">
        <ele>243.6</ele>
        <time>2020-03-04T10:07:48Z</time>
      </trkpt>
      <trkpt lat="46.88457" lon="5.62217">
        <ele>243.2</ele>
        <time>2020-03-04T10:07:49Z</time>
      </trkpt>
      <trkpt lat="46.88466" lon="5.62222">
        <ele>242.8</ele>
        <time>2020-03-04T10:07:50Z</time>
      </trkpt>
      <trkpt lat="46.88476" lon="5.62227">
        <ele>242.4</ele>
        <time>2020-03-04T10:07:51Z</time>
      </trkpt>
      <trkpt lat="46.88486" lon="5.62232">
        <ele>242</ele>
        <time>2020-03-04T10:07:52Z</time>
      </trkpt>
      <trkpt lat="46.88496" lon="5.62237">
        <ele>241.6</ele>
        <time>2020-03-04T10:07:53Z</time>
      </trkpt>
      <trkpt lat="46.88506" lon="5.62241">
        <ele>241.4</ele>
        <time>2020-03-04T10:07:54Z</time>
      </trkpt>
      <trkpt lat="46.88516" lon="5.62245">
        <ele>241</ele>
        <time>2020-03-04T10:07:55Z</time>
      </trkpt>
      <trkpt lat="46.88527" lon="5.62248">
        <ele>240.4</ele>
        <time>2020-03-04T10:07:56Z</time>
      </trkpt>
      <trkpt lat="46.88538" lon="5.6225">
        <ele>240</ele>
        <time>2020-03-04T10:07:57Z</time>
      </trkpt>
      <trkpt lat="46.8855" lon="5.62251">
        <ele>239.4</ele>
        <time>2020-03-04T10:07:58Z</time>
      </trkpt>
      <trkpt lat="46.88561" lon="5.62252">
        <ele>238.8</ele>
        <time>2020-03-04T10:07:59Z</time>
      </trkpt>
      <trkpt lat="46.88573" lon="5.62253">
        <ele>238.2</ele>
        <time>2020-03-04T10:08:00Z</time>
      </trkpt>
      <trkpt lat="46.88584" lon="5.62254">
        <ele>237.6</ele>
        <time>2020-03-04T10:08:01Z</time>
      </trkpt>
      <trkpt lat="46.88595" lon="5.62257">
        <ele>237</ele>
        <time>2020-03-04T10:08:02Z</time>
      </trkpt>
      <trkpt lat="46.88606" lon="5.6226">
        <ele>236.4</ele>
        <time>2020-03-04T10:08:03Z</time>
      </trkpt>
      <trkpt lat="46.88617" lon="5.62265">
        <ele>236</ele>
        <time>2020-03-04T10:08:04Z</time>
      </trkpt>
      <trkpt lat="46.88628" lon="5.62271">
        <ele>235.6</ele>
        <time>2020-03-04T10:08:05Z</time>
      </trkpt>
      <trkpt lat="46.88638" lon="5.62277">
        <ele>235.4</ele>
        <time>2020-03-04T10:08:06Z</time>
      </trkpt>
      <trkpt lat="46.88648" lon="5.62283">
        <ele>235.2</ele>
        <time>2020-03-04T10:08:07Z</time>
      </trkpt>
      <trkpt lat="46.88658" lon="5.62288">
        <ele>235.2</ele>
        <time>2020-03-04T10:08:08Z</time>
      </trkpt>
      <trkpt lat="46.88667" lon="5.62292">
        <ele>235.2</ele>
        <time>2020-03-04T10:08:09Z</time>
      </trkpt>
      <trkpt lat="46.88676" lon="5.62296">
        <ele>235.2</ele>
        <time>2020-03-04T10:08:10Z</time>
      </trkpt>
      <trkpt lat="46.88685" lon="5.623">
        <ele>235.2</ele>
        <time>2020-03-04T10:08:11Z</time>
      </trkpt>
      <trkpt lat="46.88694" lon="5.62304">
        <ele>235.2</ele>
        <time>2020-03-04T10:08:12Z</time>
      </trkpt>
      <trkpt lat="46.88704" lon="5.62307">
        <ele>235.2</ele>
        <time>2020-03-04T10:08:13Z</time>
      </trkpt>
      <trkpt lat="46.88712" lon="5.6231">
        <ele>235.2</ele>
        <time>2020-03-04T10:08:14Z</time>
      </trkpt>
      <trkpt lat="46.88721" lon="5.62312">
        <ele>235</ele>
        <time>2020-03-04T10:08:15Z</time>
      </trkpt>
      <trkpt lat="46.88729" lon="5.62313">
        <ele>235</ele>
        <time>2020-03-04T10:08:16Z</time>
      </trkpt>
      <trkpt lat="46.88738" lon="5.62314">
        <ele>235</ele>
        <time>2020-03-04T10:08:17Z</time>
      </trkpt>
      <trkpt lat="46.88747" lon="5.62316">
        <ele>235</ele>
        <time>2020-03-04T10:08:18Z</time>
      </trkpt>
      <trkpt lat="46.88755" lon="5.62317">
        <ele>235</ele>
        <time>2020-03-04T10:08:19Z</time>
      </trkpt>
      <trkpt lat="46.88762" lon="5.62318">
        <ele>235</ele>
        <time>2020-03-04T10:08:20Z</time>
      </trkpt>
      <trkpt lat="46.8877" lon="5.62319">
        <ele>235.2</ele>
        <time>2020-03-04T10:08:21Z</time>
      </trkpt>
      <trkpt lat="46.88777" lon="5.6232">
        <ele>235.2</ele>
        <time>2020-03-04T10:08:22Z</time>
      </trkpt>
      <trkpt lat="46.88784" lon="5.6232">
        <ele>235.6</ele>
        <time>2020-03-04T10:08:23Z</time>
      </trkpt>
      <trkpt lat="46.8879" lon="5.62321">
        <ele>235.6</ele>
        <time>2020-03-04T10:08:24Z</time>
      </trkpt>
      <trkpt lat="46.88796" lon="5.62322">
        <ele>235.8</ele>
        <time>2020-03-04T10:08:25Z</time>
      </trkpt>
      <trkpt lat="46.88802" lon="5.62323">
        <ele>235.8</ele>
        <time>2020-03-04T10:08:26Z</time>
      </trkpt>
      <trkpt lat="46.88808" lon="5.62323">
        <ele>236</ele>
        <time>2020-03-04T10:08:27Z</time>
      </trkpt>
      <trkpt lat="46.88813" lon="5.62324">
        <ele>236</ele>
        <time>2020-03-04T10:08:28Z</time>
      </trkpt>
      <trkpt lat="46.88819" lon="5.62324">
        <ele>236.4</ele>
        <time>2020-03-04T10:08:29Z</time>
      </trkpt>
      <trkpt lat="46.88824" lon="5.62325">
        <ele>236.4</ele>
        <time>2020-03-04T10:08:30Z</time>
      </trkpt>
      <trkpt lat="46.8883" lon="5.62326">
        <ele>236.6</ele>
        <time>2020-03-04T10:08:31Z</time>
      </trkpt>
      <trkpt lat="46.88835" lon="5.62327">
        <ele>236.6</ele>
        <time>2020-03-04T10:08:32Z</time>
      </trkpt>
      <trkpt lat="46.88841" lon="5.62327">
        <ele>236.6</ele>
        <time>2020-03-04T10:08:33Z</time>
      </trkpt>
      <trkpt lat="46.88846" lon="5.62328">
        <ele>236.6</ele>
        <time>2020-03-04T10:08:34Z</time>
      </trkpt>
      <trkpt lat="46.88852" lon="5.62329">
        <ele>236.8</ele>
        <time>2020-03-04T10:08:35Z</time>
      </trkpt>
      <trkpt lat="46.88858" lon="5.6233">
        <ele>236.8</ele>
        <time>2020-03-04T10:08:36Z</time>
      </trkpt>
      <trkpt lat="46.88863" lon="5.62331">
        <ele>237.2</ele>
        <time>2020-03-04T10:08:37Z</time>
      </trkpt>
      <trkpt lat="46.88869" lon="5.62332">
        <ele>237.2</ele>
        <time>2020-03-04T10:08:38Z</time>
      </trkpt>
      <trkpt lat="46.88875" lon="5.62333">
        <ele>237.2</ele>
        <time>2020-03-04T10:08:39Z</time>
      </trkpt>
      <trkpt lat="46.88881" lon="5.62334">
        <ele>237.4</ele>
        <time>2020-03-04T10:08:40Z</time>
      </trkpt>
      <trkpt lat="46.88886" lon="5.62335">
        <ele>237.4</ele>
        <time>2020-03-04T10:08:41Z</time>
      </trkpt>
      <trkpt lat="46.88892" lon="5.62336">
        <ele>237.4</ele>
        <time>2020-03-04T10:08:42Z</time>
      </trkpt>
      <trkpt lat="46.88898" lon="5.62337">
        <ele>237.6</ele>
        <time>2020-03-04T10:08:43Z</time>
      </trkpt>
      <trkpt lat="46.88903" lon="5.62338">
        <ele>237.6</ele>
        <time>2020-03-04T10:08:44Z</time>
      </trkpt>
      <trkpt lat="46.88909" lon="5.6234">
        <ele>237.6</ele>
        <time>2020-03-04T10:08:45Z</time>
      </trkpt>
      <trkpt lat="46.88915" lon="5.6234">
        <ele>237.6</ele>
        <time>2020-03-04T10:08:46Z</time>
      </trkpt>
      <trkpt lat="46.88921" lon="5.62341">
        <ele>237.6</ele>
        <time>2020-03-04T10:08:47Z</time>
      </trkpt>
      <trkpt lat="46.88927" lon="5.62341">
        <ele>237.6</ele>
        <time>2020-03-04T10:08:48Z</time>
      </trkpt>
      <trkpt lat="46.88932" lon="5.62341">
        <ele>237.8</ele>
        <time>2020-03-04T10:08:49Z</time>
      </trkpt>
      <trkpt lat="46.88938" lon="5.62343">
        <ele>237.8</ele>
        <time>2020-03-04T10:08:50Z</time>
      </trkpt>
      <trkpt lat="46.88944" lon="5.62344">
        <ele>237.8</ele>
        <time>2020-03-04T10:08:51Z</time>
      </trkpt>
      <trkpt lat="46.88951" lon="5.62344">
        <ele>237.8</ele>
        <time>2020-03-04T10:08:52Z</time>
      </trkpt>
      <trkpt lat="46.88957" lon="5.62345">
        <ele>237.8</ele>
        <time>2020-03-04T10:08:53Z</time>
      </trkpt>
      <trkpt lat="46.88963" lon="5.62346">
        <ele>237.8</ele>
        <time>2020-03-04T10:08:54Z</time>
      </trkpt>
      <trkpt lat="46.88969" lon="5.62347">
        <ele>237.8</ele>
        <time>2020-03-04T10:08:55Z</time>
      </trkpt>
      <trkpt lat="46.88975" lon="5.62348">
        <ele>237.8</ele>
        <time>2020-03-04T10:08:56Z</time>
      </trkpt>
      <trkpt lat="46.88982" lon="5.62349">
        <ele>237.8</ele>
        <time>2020-03-04T10:08:57Z</time>
      </trkpt>
      <trkpt lat="46.88988" lon="5.6235">
        <ele>237.8</ele>
        <time>2020-03-04T10:08:58Z</time>
      </trkpt>
      <trkpt lat="46.88994" lon="5.62351">
        <ele>237.8</ele>
        <time>2020-03-04T10:08:59Z</time>
      </trkpt>
      <trkpt lat="46.89" lon="5.62353">
        <ele>237.6</ele>
        <time>2020-03-04T10:09:00Z</time>
      </trkpt>
      <trkpt lat="46.89006" lon="5.62354">
        <ele>237.4</ele>
        <time>2020-03-04T10:09:01Z</time>
      </trkpt>
      <trkpt lat="46.89012" lon="5.62354">
        <ele>237.2</ele>
        <time>2020-03-04T10:09:02Z</time>
      </trkpt>
      <trkpt lat="46.89018" lon="5.62355">
        <ele>236.8</ele>
        <time>2020-03-04T10:09:03Z</time>
      </trkpt>
      <trkpt lat="46.89024" lon="5.62355">
        <ele>236.8</ele>
        <time>2020-03-04T10:09:04Z</time>
      </trkpt>
      <trkpt lat="46.8903" lon="5.62355">
        <ele>236.8</ele>
        <time>2020-03-04T10:09:05Z</time>
      </trkpt>
      <trkpt lat="46.89036" lon="5.62354">
        <ele>236.4</ele>
        <time>2020-03-04T10:09:06Z</time>
      </trkpt>
      <trkpt lat="46.89042" lon="5.62354">
        <ele>236.4</ele>
        <time>2020-03-04T10:09:07Z</time>
      </trkpt>
      <trkpt lat="46.89048" lon="5.62353">
        <ele>236.2</ele>
        <time>2020-03-04T10:09:08Z</time>
      </trkpt>
      <trkpt lat="46.89054" lon="5.62352">
        <ele>236.2</ele>
        <time>2020-03-04T10:09:09Z</time>
      </trkpt>
      <trkpt lat="46.89061" lon="5.6235">
        <ele>236</ele>
        <time>2020-03-04T10:09:10Z</time>
      </trkpt>
      <trkpt lat="46.89068" lon="5.62349">
        <ele>236</ele>
        <time>2020-03-04T10:09:11Z</time>
      </trkpt>
      <trkpt lat="46.89075" lon="5.62349">
        <ele>235.6</ele>
        <time>2020-03-04T10:09:12Z</time>
      </trkpt>
      <trkpt lat="46.89082" lon="5.62349">
        <ele>235.6</ele>
        <time>2020-03-04T10:09:13Z</time>
      </trkpt>
      <trkpt lat="46.89089" lon="5.62348">
        <ele>235.4</ele>
        <time>2020-03-04T10:09:14Z</time>
      </trkpt>
      <trkpt lat="46.89096" lon="5.62347">
        <ele>235.4</ele>
        <time>2020-03-04T10:09:15Z</time>
      </trkpt>
      <trkpt lat="46.89104" lon="5.62346">
        <ele>235</ele>
        <time>2020-03-04T10:09:16Z</time>
      </trkpt>
      <trkpt lat="46.89111" lon="5.62345">
        <ele>235</ele>
        <time>2020-03-04T10:09:17Z</time>
      </trkpt>
      <trkpt lat="46.89119" lon="5.62343">
        <ele>234.8</ele>
        <time>2020-03-04T10:09:18Z</time>
      </trkpt>
      <trkpt lat="46.89126" lon="5.62342">
        <ele>234.8</ele>
        <time>2020-03-04T10:09:19Z</time>
      </trkpt>
      <trkpt lat="46.89134" lon="5.62341">
        <ele>234.4</ele>
        <time>2020-03-04T10:09:20Z</time>
      </trkpt>
      <trkpt lat="46.89142" lon="5.6234">
        <ele>234.4</ele>
        <time>2020-03-04T10:09:21Z</time>
      </trkpt>
      <trkpt lat="46.8915" lon="5.62339">
        <ele>234.2</ele>
        <time>2020-03-04T10:09:22Z</time>
      </trkpt>
      <trkpt lat="46.89158" lon="5.62338">
        <ele>234</ele>
        <time>2020-03-04T10:09:23Z</time>
      </trkpt>
      <trkpt lat="46.89167" lon="5.62337">
        <ele>234</ele>
        <time>2020-03-04T10:09:24Z</time>
      </trkpt>
      <trkpt lat="46.89174" lon="5.62336">
        <ele>233.6</ele>
        <time>2020-03-04T10:09:25Z</time>
      </trkpt>
      <trkpt lat="46.89182" lon="5.62335">
        <ele>233.6</ele>
        <time>2020-03-04T10:09:26Z</time>
      </trkpt>
      <trkpt lat="46.8919" lon="5.62333">
        <ele>233.2</ele>
        <time>2020-03-04T10:09:27Z</time>
      </trkpt>
      <trkpt lat="46.89199" lon="5.62331">
        <ele>233</ele>
        <time>2020-03-04T10:09:28Z</time>
      </trkpt>
      <trkpt lat="46.89207" lon="5.6233">
        <ele>233</ele>
        <time>2020-03-04T10:09:29Z</time>
      </trkpt>
      <trkpt lat="46.89216" lon="5.62329">
        <ele>233</ele>
        <time>2020-03-04T10:09:30Z</time>
      </trkpt>
      <trkpt lat="46.89224" lon="5.62327">
        <ele>232.8</ele>
        <time>2020-03-04T10:09:31Z</time>
      </trkpt>
      <trkpt lat="46.89232" lon="5.62327">
        <ele>232.8</ele>
        <time>2020-03-04T10:09:32Z</time>
      </trkpt>
      <trkpt lat="46.89241" lon="5.62326">
        <ele>232.4</ele>
        <time>2020-03-04T10:09:33Z</time>
      </trkpt>
      <trkpt lat="46.8925" lon="5.62326">
        <ele>232.4</ele>
        <time>2020-03-04T10:09:34Z</time>
      </trkpt>
      <trkpt lat="46.89259" lon="5.62327">
        <ele>232.2</ele>
        <time>2020-03-04T10:09:35Z</time>
      </trkpt>
      <trkpt lat="46.89268" lon="5.62329">
        <ele>232.2</ele>
        <time>2020-03-04T10:09:36Z</time>
      </trkpt>
      <trkpt lat="46.89277" lon="5.62332">
        <ele>232</ele>
        <time>2020-03-04T10:09:37Z</time>
      </trkpt>
      <trkpt lat="46.89286" lon="5.62335">
        <ele>232</ele>
        <time>2020-03-04T10:09:38Z</time>
      </trkpt>
      <trkpt lat="46.89294" lon="5.62339">
        <ele>232</ele>
        <time>2020-03-04T10:09:39Z</time>
      </trkpt>
      <trkpt lat="46.89302" lon="5.62343">
        <ele>231.8</ele>
        <time>2020-03-04T10:09:40Z</time>
      </trkpt>
      <trkpt lat="46.8931" lon="5.62348">
        <ele>231.8</ele>
        <time>2020-03-04T10:09:41Z</time>
      </trkpt>
      <trkpt lat="46.89317" lon="5.62353">
        <ele>231.4</ele>
        <time>2020-03-04T10:09:42Z</time>
      </trkpt>
      <trkpt lat="46.89325" lon="5.62359">
        <ele>231.4</ele>
        <time>2020-03-04T10:09:43Z</time>
      </trkpt>
      <trkpt lat="46.89332" lon="5.62364">
        <ele>231.4</ele>
        <time>2020-03-04T10:09:44Z</time>
      </trkpt>
      <trkpt lat="46.89339" lon="5.6237">
        <ele>231.2</ele>
        <time>2020-03-04T10:09:45Z</time>
      </trkpt>
      <trkpt lat="46.89345" lon="5.62377">
        <ele>231.2</ele>
        <time>2020-03-04T10:09:46Z</time>
      </trkpt>
      <trkpt lat="46.89352" lon="5.62383">
        <ele>231.2</ele>
        <time>2020-03-04T10:09:47Z</time>
      </trkpt>
      <trkpt lat="46.89358" lon="5.6239">
        <ele>231.2</ele>
        <time>2020-03-04T10:09:48Z</time>
      </trkpt>
      <trkpt lat="46.89364" lon="5.62397">
        <ele>231.2</ele>
        <time>2020-03-04T10:09:49Z</time>
      </trkpt>
      <trkpt lat="46.8937" lon="5.62405">
        <ele>231.2</ele>
        <time>2020-03-04T10:09:50Z</time>
      </trkpt>
      <trkpt lat="46.89375" lon="5.62412">
        <ele>231.2</ele>
        <time>2020-03-04T10:09:51Z</time>
      </trkpt>
      <trkpt lat="46.89381" lon="5.6242">
        <ele>231.2</ele>
        <time>2020-03-04T10:09:52Z</time>
      </trkpt>
      <trkpt lat="46.89386" lon="5.62429">
        <ele>231.2</ele>
        <time>2020-03-04T10:09:53Z</time>
      </trkpt>
      <trkpt lat="46.89391" lon="5.62437">
        <ele>231.2</ele>
        <time>2020-03-04T10:09:54Z</time>
      </trkpt>
      <trkpt lat="46.89396" lon="5.62446">
        <ele>231.2</ele>
        <time>2020-03-04T10:09:55Z</time>
      </trkpt>
      <trkpt lat="46.894" lon="5.62454">
        <ele>231.4</ele>
        <time>2020-03-04T10:09:56Z</time>
      </trkpt>
      <trkpt lat="46.89404" lon="5.62463">
        <ele>231.4</ele>
        <time>2020-03-04T10:09:57Z</time>
      </trkpt>
      <trkpt lat="46.89408" lon="5.62473">
        <ele>231.4</ele>
        <time>2020-03-04T10:09:58Z</time>
      </trkpt>
      <trkpt lat="46.89411" lon="5.62482">
        <ele>231.6</ele>
        <time>2020-03-04T10:09:59Z</time>
      </trkpt>
      <trkpt lat="46.89414" lon="5.62491">
        <ele>231.6</ele>
        <time>2020-03-04T10:10:00Z</time>
      </trkpt>
      <trkpt lat="46.89418" lon="5.62501">
        <ele>231.6</ele>
        <time>2020-03-04T10:10:01Z</time>
      </trkpt>
      <trkpt lat="46.89421" lon="5.6251">
        <ele>231.6</ele>
        <time>2020-03-04T10:10:02Z</time>
      </trkpt>
      <trkpt lat="46.89425" lon="5.6252">
        <ele>231.6</ele>
        <time>2020-03-04T10:10:03Z</time>
      </trkpt>
      <trkpt lat="46.89428" lon="5.62529">
        <ele>231.6</ele>
        <time>2020-03-04T10:10:04Z</time>
      </trkpt>
      <trkpt lat="46.89432" lon="5.62538">
        <ele>231.6</ele>
        <time>2020-03-04T10:10:05Z</time>
      </trkpt>
      <trkpt lat="46.89436" lon="5.62547">
        <ele>231.6</ele>
        <time>2020-03-04T10:10:06Z</time>
      </trkpt>
      <trkpt lat="46.8944" lon="5.62556">
        <ele>231.6</ele>
        <time>2020-03-04T10:10:07Z</time>
      </trkpt>
      <trkpt lat="46.89444" lon="5.62565">
        <ele>231.8</ele>
        <time>2020-03-04T10:10:08Z</time>
      </trkpt>
      <trkpt lat="46.89448" lon="5.62574">
        <ele>231.8</ele>
        <time>2020-03-04T10:10:09Z</time>
      </trkpt>
      <trkpt lat="46.89451" lon="5.62582">
        <ele>231.8</ele>
        <time>2020-03-04T10:10:10Z</time>
      </trkpt>
      <trkpt lat="46.89455" lon="5.62591">
        <ele>231.8</ele>
        <time>2020-03-04T10:10:11Z</time>
      </trkpt>
      <trkpt lat="46.89459" lon="5.62599">
        <ele>232</ele>
        <time>2020-03-04T10:10:12Z</time>
      </trkpt>
      <trkpt lat="46.89463" lon="5.62607">
        <ele>232</ele>
        <time>2020-03-04T10:10:13Z</time>
      </trkpt>
      <trkpt lat="46.89466" lon="5.62615">
        <ele>232</ele>
        <time>2020-03-04T10:10:14Z</time>
      </trkpt>
      <trkpt lat="46.8947" lon="5.62624">
        <ele>232</ele>
        <time>2020-03-04T10:10:15Z</time>
      </trkpt>
      <trkpt lat="46.89474" lon="5.62632">
        <ele>232</ele>
        <time>2020-03-04T10:10:16Z</time>
      </trkpt>
      <trkpt lat="46.89477" lon="5.6264">
        <ele>232</ele>
        <time>2020-03-04T10:10:17Z</time>
      </trkpt>
      <trkpt lat="46.8948" lon="5.62648">
        <ele>232</ele>
        <time>2020-03-04T10:10:18Z</time>
      </trkpt>
      <trkpt lat="46.89484" lon="5.62656">
        <ele>232</ele>
        <time>2020-03-04T10:10:19Z</time>
      </trkpt>
      <trkpt lat="46.89487" lon="5.62664">
        <ele>232.4</ele>
        <time>2020-03-04T10:10:20Z</time>
      </trkpt>
      <trkpt lat="46.89491" lon="5.62671">
        <ele>232.4</ele>
        <time>2020-03-04T10:10:21Z</time>
      </trkpt>
      <trkpt lat="46.89494" lon="5.62679">
        <ele>232.4</ele>
        <time>2020-03-04T10:10:22Z</time>
      </trkpt>
      <trkpt lat="46.89497" lon="5.62687">
        <ele>232.6</ele>
        <time>2020-03-04T10:10:23Z</time>
      </trkpt>
      <trkpt lat="46.895" lon="5.62694">
        <ele>232.6</ele>
        <time>2020-03-04T10:10:24Z</time>
      </trkpt>
      <trkpt lat="46.89504" lon="5.627">
        <ele>233</ele>
        <time>2020-03-04T10:10:25Z</time>
      </trkpt>
      <trkpt lat="46.89507" lon="5.62707">
        <ele>233</ele>
        <time>2020-03-04T10:10:26Z</time>
      </trkpt>
      <trkpt lat="46.89511" lon="5.62713">
        <ele>233.4</ele>
        <time>2020-03-04T10:10:27Z</time>
      </trkpt>
      <trkpt lat="46.89516" lon="5.62719">
        <ele>233.4</ele>
        <time>2020-03-04T10:10:28Z</time>
      </trkpt>
      <trkpt lat="46.8952" lon="5.62723">
        <ele>233.8</ele>
        <time>2020-03-04T10:10:29Z</time>
      </trkpt>
      <trkpt lat="46.89524" lon="5.62727">
        <ele>233.8</ele>
        <time>2020-03-04T10:10:30Z</time>
      </trkpt>
      <trkpt lat="46.89528" lon="5.62731">
        <ele>234</ele>
        <time>2020-03-04T10:10:31Z</time>
      </trkpt>
      <trkpt lat="46.89532" lon="5.62734">
        <ele>234</ele>
        <time>2020-03-04T10:10:32Z</time>
      </trkpt>
      <trkpt lat="46.89537" lon="5.62737">
        <ele>234</ele>
        <time>2020-03-04T10:10:33Z</time>
      </trkpt>
      <trkpt lat="46.89542" lon="5.6274">
        <ele>234.2</ele>
        <time>2020-03-04T10:10:34Z</time>
      </trkpt>
      <trkpt lat="46.89547" lon="5.62743">
        <ele>234.2</ele>
        <time>2020-03-04T10:10:35Z</time>
      </trkpt>
      <trkpt lat="46.89552" lon="5.62746">
        <ele>234.2</ele>
        <time>2020-03-04T10:10:36Z</time>
      </trkpt>
      <trkpt lat="46.89556" lon="5.6275">
        <ele>234.2</ele>
        <time>2020-03-04T10:10:37Z</time>
      </trkpt>
      <trkpt lat="46.89561" lon="5.62754">
        <ele>234.2</ele>
        <time>2020-03-04T10:10:38Z</time>
      </trkpt>
      <trkpt lat="46.89566" lon="5.62757">
        <ele>234.2</ele>
        <time>2020-03-04T10:10:39Z</time>
      </trkpt>
      <trkpt lat="46.89571" lon="5.6276">
        <ele>234.2</ele>
        <time>2020-03-04T10:10:40Z</time>
      </trkpt>
      <trkpt lat="46.89577" lon="5.62763">
        <ele>234.2</ele>
        <time>2020-03-04T10:10:41Z</time>
      </trkpt>
      <trkpt lat="46.89582" lon="5.62766">
        <ele>234.2</ele>
        <time>2020-03-04T10:10:42Z</time>
      </trkpt>
      <trkpt lat="46.89587" lon="5.62769">
        <ele>234.2</ele>
        <time>2020-03-04T10:10:43Z</time>
      </trkpt>
      <trkpt lat="46.89593" lon="5.62772">
        <ele>234.2</ele>
        <time>2020-03-04T10:10:44Z</time>
      </trkpt>
      <trkpt lat="46.89598" lon="5.62775">
        <ele>234.2</ele>
        <time>2020-03-04T10:10:45Z</time>
      </trkpt>
      <trkpt lat="46.89603" lon="5.62779">
        <ele>234.2</ele>
        <time>2020-03-04T10:10:46Z</time>
      </trkpt>
      <trkpt lat="46.89607" lon="5.62782">
        <ele>234.2</ele>
        <time>2020-03-04T10:10:47Z</time>
      </trkpt>
      <trkpt lat="46.89612" lon="5.62786">
        <ele>234.2</ele>
        <time>2020-03-04T10:10:48Z</time>
      </trkpt>
      <trkpt lat="46.89618" lon="5.62789">
        <ele>234.2</ele>
        <time>2020-03-04T10:10:49Z</time>
      </trkpt>
      <trkpt lat="46.89624" lon="5.62793">
        <ele>234.2</ele>
        <time>2020-03-04T10:10:50Z</time>
      </trkpt>
      <trkpt lat="46.89629" lon="5.62797">
        <ele>234</ele>
        <time>2020-03-04T10:10:51Z</time>
      </trkpt>
      <trkpt lat="46.89635" lon="5.62801">
        <ele>234</ele>
        <time>2020-03-04T10:10:52Z</time>
      </trkpt>
      <trkpt lat="46.89641" lon="5.62804">
        <ele>234</ele>
        <time>2020-03-04T10:10:53Z</time>
      </trkpt>
      <trkpt lat="46.89647" lon="5.62808">
        <ele>234</ele>
        <time>2020-03-04T10:10:54Z</time>
      </trkpt>
      <trkpt lat="46.89654" lon="5.62812">
        <ele>234</ele>
        <time>2020-03-04T10:10:55Z</time>
      </trkpt>
      <trkpt lat="46.8966" lon="5.62815">
        <ele>234</ele>
        <time>2020-03-04T10:10:56Z</time>
      </trkpt>
      <trkpt lat="46.89666" lon="5.62819">
        <ele>234</ele>
        <time>2020-03-04T10:10:57Z</time>
      </trkpt>
      <trkpt lat="46.89673" lon="5.62823">
        <ele>234</ele>
        <time>2020-03-04T10:10:58Z</time>
      </trkpt>
      <trkpt lat="46.89679" lon="5.62827">
        <ele>233.8</ele>
        <time>2020-03-04T10:10:59Z</time>
      </trkpt>
      <trkpt lat="46.89686" lon="5.62831">
        <ele>233.8</ele>
        <time>2020-03-04T10:11:00Z</time>
      </trkpt>
      <trkpt lat="46.89693" lon="5.62835">
        <ele>233.8</ele>
        <time>2020-03-04T10:11:01Z</time>
      </trkpt>
      <trkpt lat="46.89699" lon="5.62839">
        <ele>233.8</ele>
        <time>2020-03-04T10:11:02Z</time>
      </trkpt>
      <trkpt lat="46.89706" lon="5.62843">
        <ele>233.8</ele>
        <time>2020-03-04T10:11:03Z</time>
      </trkpt>
      <trkpt lat="46.89713" lon="5.62847">
        <ele>233.4</ele>
        <time>2020-03-04T10:11:04Z</time>
      </trkpt>
      <trkpt lat="46.89719" lon="5.62851">
        <ele>233.4</ele>
        <time>2020-03-04T10:11:05Z</time>
      </trkpt>
      <trkpt lat="46.89725" lon="5.62854">
        <ele>233.2</ele>
        <time>2020-03-04T10:11:06Z</time>
      </trkpt>
      <trkpt lat="46.89731" lon="5.62858">
        <ele>233.2</ele>
        <time>2020-03-04T10:11:07Z</time>
      </trkpt>
      <trkpt lat="46.89738" lon="5.6286">
        <ele>233.2</ele>
        <time>2020-03-04T10:11:08Z</time>
      </trkpt>
      <trkpt lat="46.89744" lon="5.62863">
        <ele>233.2</ele>
        <time>2020-03-04T10:11:09Z</time>
      </trkpt>
      <trkpt lat="46.8975" lon="5.62867">
        <ele>233.2</ele>
        <time>2020-03-04T10:11:10Z</time>
      </trkpt>
      <trkpt lat="46.89756" lon="5.6287">
        <ele>233.2</ele>
        <time>2020-03-04T10:11:11Z</time>
      </trkpt>
      <trkpt lat="46.89763" lon="5.62874">
        <ele>233.2</ele>
        <time>2020-03-04T10:11:12Z</time>
      </trkpt>
      <trkpt lat="46.89769" lon="5.62878">
        <ele>233.2</ele>
        <time>2020-03-04T10:11:13Z</time>
      </trkpt>
      <trkpt lat="46.89776" lon="5.62882">
        <ele>233.2</ele>
        <time>2020-03-04T10:11:14Z</time>
      </trkpt>
      <trkpt lat="46.89782" lon="5.62886">
        <ele>233.2</ele>
        <time>2020-03-04T10:11:15Z</time>
      </trkpt>
      <trkpt lat="46.89789" lon="5.6289">
        <ele>233.2</ele>
        <time>2020-03-04T10:11:16Z</time>
      </trkpt>
      <trkpt lat="46.89795" lon="5.62894">
        <ele>233.2</ele>
        <time>2020-03-04T10:11:17Z</time>
      </trkpt>
      <trkpt lat="46.89802" lon="5.62897">
        <ele>233.2</ele>
        <time>2020-03-04T10:11:18Z</time>
      </trkpt>
      <trkpt lat="46.89809" lon="5.62901">
        <ele>233.2</ele>
        <time>2020-03-04T10:11:19Z</time>
      </trkpt>
      <trkpt lat="46.89815" lon="5.62905">
        <ele>233.2</ele>
        <time>2020-03-04T10:11:20Z</time>
      </trkpt>
      <trkpt lat="46.89822" lon="5.62909">
        <ele>233</ele>
        <time>2020-03-04T10:11:21Z</time>
      </trkpt>
      <trkpt lat="46.89829" lon="5.62913">
        <ele>233</ele>
        <time>2020-03-04T10:11:22Z</time>
      </trkpt>
      <trkpt lat="46.89835" lon="5.62917">
        <ele>233</ele>
        <time>2020-03-04T10:11:23Z</time>
      </trkpt>
      <trkpt lat="46.89842" lon="5.62921">
        <ele>233</ele>
        <time>2020-03-04T10:11:24Z</time>
      </trkpt>
      <trkpt lat="46.89848" lon="5.62925">
        <ele>232.8</ele>
        <time>2020-03-04T10:11:25Z</time>
      </trkpt>
      <trkpt lat="46.89855" lon="5.62929">
        <ele>232.8</ele>
        <time>2020-03-04T10:11:26Z</time>
      </trkpt>
      <trkpt lat="46.89861" lon="5.62933">
        <ele>232.8</ele>
        <time>2020-03-04T10:11:27Z</time>
      </trkpt>
      <trkpt lat="46.89868" lon="5.62936">
        <ele>232.8</ele>
        <time>2020-03-04T10:11:28Z</time>
      </trkpt>
      <trkpt lat="46.89875" lon="5.6294">
        <ele>232.8</ele>
        <time>2020-03-04T10:11:29Z</time>
      </trkpt>
      <trkpt lat="46.89881" lon="5.62944">
        <ele>232.8</ele>
        <time>2020-03-04T10:11:30Z</time>
      </trkpt>
      <trkpt lat="46.89888" lon="5.62948">
        <ele>232.8</ele>
        <time>2020-03-04T10:11:31Z</time>
      </trkpt>
      <trkpt lat="46.89895" lon="5.62952">
        <ele>232.8</ele>
        <time>2020-03-04T10:11:32Z</time>
      </trkpt>
      <trkpt lat="46.89902" lon="5.62956">
        <ele>232.8</ele>
        <time>2020-03-04T10:11:33Z</time>
      </trkpt>
      <trkpt lat="46.89909" lon="5.6296">
        <ele>232.8</ele>
        <time>2020-03-04T10:11:34Z</time>
      </trkpt>
      <trkpt lat="46.89915" lon="5.62964">
        <ele>232.8</ele>
        <time>2020-03-04T10:11:35Z</time>
      </trkpt>
      <trkpt lat="46.89922" lon="5.62968">
        <ele>233</ele>
        <time>2020-03-04T10:11:36Z</time>
      </trkpt>
      <trkpt lat="46.89929" lon="5.62972">
        <ele>233</ele>
        <time>2020-03-04T10:11:37Z</time>
      </trkpt>
      <trkpt lat="46.89936" lon="5.62976">
        <ele>233</ele>
        <time>2020-03-04T10:11:38Z</time>
      </trkpt>
      <trkpt lat="46.89942" lon="5.6298">
        <ele>233</ele>
        <time>2020-03-04T10:11:39Z</time>
      </trkpt>
      <trkpt lat="46.89949" lon="5.62984">
        <ele>233</ele>
        <time>2020-03-04T10:11:40Z</time>
      </trkpt>
      <trkpt lat="46.89956" lon="5.62988">
        <ele>233.2</ele>
        <time>2020-03-04T10:11:41Z</time>
      </trkpt>
      <trkpt lat="46.89962" lon="5.62992">
        <ele>233.2</ele>
        <time>2020-03-04T10:11:42Z</time>
      </trkpt>
      <trkpt lat="46.89969" lon="5.62996">
        <ele>233.2</ele>
        <time>2020-03-04T10:11:43Z</time>
      </trkpt>
      <trkpt lat="46.89976" lon="5.62999">
        <ele>233.2</ele>
        <time>2020-03-04T10:11:44Z</time>
      </trkpt>
      <trkpt lat="46.89982" lon="5.63003">
        <ele>233.4</ele>
        <time>2020-03-04T10:11:45Z</time>
      </trkpt>
      <trkpt lat="46.89989" lon="5.63008">
        <ele>233.4</ele>
        <time>2020-03-04T10:11:46Z</time>
      </trkpt>
      <trkpt lat="46.89996" lon="5.63011">
        <ele>233.4</ele>
        <time>2020-03-04T10:11:47Z</time>
      </trkpt>
      <trkpt lat="46.90003" lon="5.63015">
        <ele>233.4</ele>
        <time>2020-03-04T10:11:48Z</time>
      </trkpt>
      <trkpt lat="46.90009" lon="5.63019">
        <ele>233.4</ele>
        <time>2020-03-04T10:11:49Z</time>
      </trkpt>
      <trkpt lat="46.90016" lon="5.63023">
        <ele>233.4</ele>
        <time>2020-03-04T10:11:50Z</time>
      </trkpt>
      <trkpt lat="46.90023" lon="5.63027">
        <ele>233.4</ele>
        <time>2020-03-04T10:11:51Z</time>
      </trkpt>
      <trkpt lat="46.9003" lon="5.63031">
        <ele>233.6</ele>
        <time>2020-03-04T10:11:52Z</time>
      </trkpt>
      <trkpt lat="46.90037" lon="5.63035">
        <ele>233.6</ele>
        <time>2020-03-04T10:11:53Z</time>
      </trkpt>
      <trkpt lat="46.90044" lon="5.63039">
        <ele>233.6</ele>
        <time>2020-03-04T10:11:54Z</time>
      </trkpt>
      <trkpt lat="46.90051" lon="5.63043">
        <ele>233.6</ele>
        <time>2020-03-04T10:11:55Z</time>
      </trkpt>
      <trkpt lat="46.90057" lon="5.63047">
        <ele>234</ele>
        <time>2020-03-04T10:11:56Z</time>
      </trkpt>
      <trkpt lat="46.90064" lon="5.63051">
        <ele>234</ele>
        <time>2020-03-04T10:11:57Z</time>
      </trkpt>
      <trkpt lat="46.90071" lon="5.63056">
        <ele>234</ele>
        <time>2020-03-04T10:11:58Z</time>
      </trkpt>
      <trkpt lat="46.90078" lon="5.6306">
        <ele>234</ele>
        <time>2020-03-04T10:11:59Z</time>
      </trkpt>
      <trkpt lat="46.90084" lon="5.63064">
        <ele>234.2</ele>
        <time>2020-03-04T10:12:00Z</time>
      </trkpt>
      <trkpt lat="46.90091" lon="5.63067">
        <ele>234.2</ele>
        <time>2020-03-04T10:12:01Z</time>
      </trkpt>
      <trkpt lat="46.90097" lon="5.63071">
        <ele>234.2</ele>
        <time>2020-03-04T10:12:02Z</time>
      </trkpt>
      <trkpt lat="46.90103" lon="5.63074">
        <ele>234.4</ele>
        <time>2020-03-04T10:12:03Z</time>
      </trkpt>
      <trkpt lat="46.9011" lon="5.63078">
        <ele>234.4</ele>
        <time>2020-03-04T10:12:04Z</time>
      </trkpt>
      <trkpt lat="46.90116" lon="5.63081">
        <ele>234.6</ele>
        <time>2020-03-04T10:12:05Z</time>
      </trkpt>
      <trkpt lat="46.90123" lon="5.63085">
        <ele>234.6</ele>
        <time>2020-03-04T10:12:06Z</time>
      </trkpt>
      <trkpt lat="46.90129" lon="5.63088">
        <ele>235</ele>
        <time>2020-03-04T10:12:07Z</time>
      </trkpt>
      <trkpt lat="46.90135" lon="5.63092">
        <ele>235</ele>
        <time>2020-03-04T10:12:08Z</time>
      </trkpt>
      <trkpt lat="46.90141" lon="5.63096">
        <ele>235</ele>
        <time>2020-03-04T10:12:09Z</time>
      </trkpt>
      <trkpt lat="46.90147" lon="5.631">
        <ele>235.2</ele>
        <time>2020-03-04T10:12:10Z</time>
      </trkpt>
      <trkpt lat="46.90154" lon="5.63104">
        <ele>235.2</ele>
        <time>2020-03-04T10:12:11Z</time>
      </trkpt>
      <trkpt lat="46.9016" lon="5.63108">
        <ele>235.2</ele>
        <time>2020-03-04T10:12:12Z</time>
      </trkpt>
      <trkpt lat="46.90166" lon="5.63112">
        <ele>235.4</ele>
        <time>2020-03-04T10:12:13Z</time>
      </trkpt>
      <trkpt lat="46.90171" lon="5.63117">
        <ele>235.4</ele>
        <time>2020-03-04T10:12:14Z</time>
      </trkpt>
      <trkpt lat="46.90177" lon="5.63122">
        <ele>235.4</ele>
        <time>2020-03-04T10:12:15Z</time>
      </trkpt>
      <trkpt lat="46.90183" lon="5.63127">
        <ele>235.4</ele>
        <time>2020-03-04T10:12:16Z</time>
      </trkpt>
      <trkpt lat="46.90188" lon="5.63133">
        <ele>235.4</ele>
        <time>2020-03-04T10:12:17Z</time>
      </trkpt>
      <trkpt lat="46.90194" lon="5.63138">
        <ele>235.4</ele>
        <time>2020-03-04T10:12:18Z</time>
      </trkpt>
      <trkpt lat="46.902" lon="5.63144">
        <ele>235.4</ele>
        <time>2020-03-04T10:12:19Z</time>
      </trkpt>
      <trkpt lat="46.90205" lon="5.63149">
        <ele>235.4</ele>
        <time>2020-03-04T10:12:20Z</time>
      </trkpt>
      <trkpt lat="46.90211" lon="5.63155">
        <ele>235.4</ele>
        <time>2020-03-04T10:12:21Z</time>
      </trkpt>
      <trkpt lat="46.90217" lon="5.63161">
        <ele>235.4</ele>
        <time>2020-03-04T10:12:22Z</time>
      </trkpt>
      <trkpt lat="46.90222" lon="5.63166">
        <ele>235.4</ele>
        <time>2020-03-04T10:12:23Z</time>
      </trkpt>
      <trkpt lat="46.90228" lon="5.63172">
        <ele>235.6</ele>
        <time>2020-03-04T10:12:24Z</time>
      </trkpt>
      <trkpt lat="46.90234" lon="5.63178">
        <ele>235.6</ele>
        <time>2020-03-04T10:12:25Z</time>
      </trkpt>
      <trkpt lat="46.90239" lon="5.63183">
        <ele>235.6</ele>
        <time>2020-03-04T10:12:26Z</time>
      </trkpt>
      <trkpt lat="46.90245" lon="5.63189">
        <ele>235.6</ele>
        <time>2020-03-04T10:12:27Z</time>
      </trkpt>
      <trkpt lat="46.90251" lon="5.63195">
        <ele>235.6</ele>
        <time>2020-03-04T10:12:28Z</time>
      </trkpt>
      <trkpt lat="46.90257" lon="5.63201">
        <ele>235.6</ele>
        <time>2020-03-04T10:12:29Z</time>
      </trkpt>
      <trkpt lat="46.90262" lon="5.63207">
        <ele>235.6</ele>
        <time>2020-03-04T10:12:30Z</time>
      </trkpt>
      <trkpt lat="46.90268" lon="5.63212">
        <ele>235.6</ele>
        <time>2020-03-04T10:12:31Z</time>
      </trkpt>
      <trkpt lat="46.90273" lon="5.63218">
        <ele>235.6</ele>
        <time>2020-03-04T10:12:32Z</time>
      </trkpt>
      <trkpt lat="46.90279" lon="5.63224">
        <ele>235.6</ele>
        <time>2020-03-04T10:12:33Z</time>
      </trkpt>
      <trkpt lat="46.90285" lon="5.6323">
        <ele>235.6</ele>
        <time>2020-03-04T10:12:34Z</time>
      </trkpt>
      <trkpt lat="46.9029" lon="5.63235">
        <ele>235.6</ele>
        <time>2020-03-04T10:12:35Z</time>
      </trkpt>
      <trkpt lat="46.90296" lon="5.63241">
        <ele>235.8</ele>
        <time>2020-03-04T10:12:36Z</time>
      </trkpt>
      <trkpt lat="46.90301" lon="5.63247">
        <ele>235.8</ele>
        <time>2020-03-04T10:12:37Z</time>
      </trkpt>
      <trkpt lat="46.90307" lon="5.63253">
        <ele>235.8</ele>
        <time>2020-03-04T10:12:38Z</time>
      </trkpt>
      <trkpt lat="46.90312" lon="5.63258">
        <ele>235.8</ele>
        <time>2020-03-04T10:12:39Z</time>
      </trkpt>
      <trkpt lat="46.90318" lon="5.63264">
        <ele>235.8</ele>
        <time>2020-03-04T10:12:40Z</time>
      </trkpt>
      <trkpt lat="46.90324" lon="5.6327">
        <ele>235.8</ele>
        <time>2020-03-04T10:12:41Z</time>
      </trkpt>
      <trkpt lat="46.9033" lon="5.63276">
        <ele>235.8</ele>
        <time>2020-03-04T10:12:42Z</time>
      </trkpt>
      <trkpt lat="46.90336" lon="5.63282">
        <ele>235.8</ele>
        <time>2020-03-04T10:12:43Z</time>
      </trkpt>
      <trkpt lat="46.90341" lon="5.63288">
        <ele>235.8</ele>
        <time>2020-03-04T10:12:44Z</time>
      </trkpt>
      <trkpt lat="46.90347" lon="5.63294">
        <ele>235.8</ele>
        <time>2020-03-04T10:12:45Z</time>
      </trkpt>
      <trkpt lat="46.90353" lon="5.633">
        <ele>235.8</ele>
        <time>2020-03-04T10:12:46Z</time>
      </trkpt>
      <trkpt lat="46.90359" lon="5.63306">
        <ele>235.8</ele>
        <time>2020-03-04T10:12:47Z</time>
      </trkpt>
      <trkpt lat="46.90365" lon="5.63311">
        <ele>235.8</ele>
        <time>2020-03-04T10:12:48Z</time>
      </trkpt>
      <trkpt lat="46.90371" lon="5.63317">
        <ele>235.8</ele>
        <time>2020-03-04T10:12:49Z</time>
      </trkpt>
      <trkpt lat="46.90377" lon="5.63323">
        <ele>235.8</ele>
        <time>2020-03-04T10:12:50Z</time>
      </trkpt>
      <trkpt lat="46.90383" lon="5.63329">
        <ele>235.8</ele>
        <time>2020-03-04T10:12:51Z</time>
      </trkpt>
      <trkpt lat="46.90388" lon="5.63335">
        <ele>235.8</ele>
        <time>2020-03-04T10:12:52Z</time>
      </trkpt>
      <trkpt lat="46.90394" lon="5.63342">
        <ele>235.8</ele>
        <time>2020-03-04T10:12:53Z</time>
      </trkpt>
      <trkpt lat="46.904" lon="5.63348">
        <ele>235.8</ele>
        <time>2020-03-04T10:12:54Z</time>
      </trkpt>
      <trkpt lat="46.90406" lon="5.63354">
        <ele>235.8</ele>
        <time>2020-03-04T10:12:55Z</time>
      </trkpt>
      <trkpt lat="46.90412" lon="5.6336">
        <ele>235.8</ele>
        <time>2020-03-04T10:12:56Z</time>
      </trkpt>
      <trkpt lat="46.90418" lon="5.63366">
        <ele>235.8</ele>
        <time>2020-03-04T10:12:57Z</time>
      </trkpt>
      <trkpt lat="46.90424" lon="5.63372">
        <ele>235.8</ele>
        <time>2020-03-04T10:12:58Z</time>
      </trkpt>
      <trkpt lat="46.9043" lon="5.63378">
        <ele>235.8</ele>
        <time>2020-03-04T10:12:59Z</time>
      </trkpt>
      <trkpt lat="46.90436" lon="5.63384">
        <ele>236</ele>
        <time>2020-03-04T10:13:00Z</time>
      </trkpt>
      <trkpt lat="46.90442" lon="5.6339">
        <ele>236</ele>
        <time>2020-03-04T10:13:01Z</time>
      </trkpt>
      <trkpt lat="46.90448" lon="5.63396">
        <ele>236</ele>
        <time>2020-03-04T10:13:02Z</time>
      </trkpt>
      <trkpt lat="46.90453" lon="5.63402">
        <ele>236</ele>
        <time>2020-03-04T10:13:03Z</time>
      </trkpt>
      <trkpt lat="46.90459" lon="5.63408">
        <ele>236</ele>
        <time>2020-03-04T10:13:04Z</time>
      </trkpt>
      <trkpt lat="46.90465" lon="5.63413">
        <ele>236</ele>
        <time>2020-03-04T10:13:05Z</time>
      </trkpt>
      <trkpt lat="46.9047" lon="5.63418">
        <ele>236.4</ele>
        <time>2020-03-04T10:13:06Z</time>
      </trkpt>
      <trkpt lat="46.90476" lon="5.63424">
        <ele>236.4</ele>
        <time>2020-03-04T10:13:07Z</time>
      </trkpt>
      <trkpt lat="46.90481" lon="5.63429">
        <ele>236.4</ele>
        <time>2020-03-04T10:13:08Z</time>
      </trkpt>
      <trkpt lat="46.90486" lon="5.63433">
        <ele>236.4</ele>
        <time>2020-03-04T10:13:09Z</time>
      </trkpt>
      <trkpt lat="46.9049" lon="5.63438">
        <ele>236.4</ele>
        <time>2020-03-04T10:13:10Z</time>
      </trkpt>
      <trkpt lat="46.90495" lon="5.63443">
        <ele>236.4</ele>
        <time>2020-03-04T10:13:11Z</time>
      </trkpt>
      <trkpt lat="46.90499" lon="5.63449">
        <ele>236.6</ele>
        <time>2020-03-04T10:13:12Z</time>
      </trkpt>
      <trkpt lat="46.90504" lon="5.63454">
        <ele>236.6</ele>
        <time>2020-03-04T10:13:13Z</time>
      </trkpt>
      <trkpt lat="46.90509" lon="5.63458">
        <ele>236.6</ele>
        <time>2020-03-04T10:13:14Z</time>
      </trkpt>
      <trkpt lat="46.90514" lon="5.63463">
        <ele>236.6</ele>
        <time>2020-03-04T10:13:15Z</time>
      </trkpt>
      <trkpt lat="46.90518" lon="5.63467">
        <ele>236.6</ele>
        <time>2020-03-04T10:13:16Z</time>
      </trkpt>
      <trkpt lat="46.90523" lon="5.63471">
        <ele>236.6</ele>
        <time>2020-03-04T10:13:17Z</time>
      </trkpt>
      <trkpt lat="46.90527" lon="5.63475">
        <ele>236.8</ele>
        <time>2020-03-04T10:13:18Z</time>
      </trkpt>
      <trkpt lat="46.90531" lon="5.63479">
        <ele>236.8</ele>
        <time>2020-03-04T10:13:19Z</time>
      </trkpt>
      <trkpt lat="46.90535" lon="5.63484">
        <ele>236.8</ele>
        <time>2020-03-04T10:13:20Z</time>
      </trkpt>
      <trkpt lat="46.9054" lon="5.63488">
        <ele>236.8</ele>
        <time>2020-03-04T10:13:21Z</time>
      </trkpt>
      <trkpt lat="46.90544" lon="5.63492">
        <ele>237</ele>
        <time>2020-03-04T10:13:22Z</time>
      </trkpt>
      <trkpt lat="46.90548" lon="5.63497">
        <ele>237</ele>
        <time>2020-03-04T10:13:23Z</time>
      </trkpt>
      <trkpt lat="46.90552" lon="5.63501">
        <ele>237</ele>
        <time>2020-03-04T10:13:24Z</time>
      </trkpt>
      <trkpt lat="46.90556" lon="5.63505">
        <ele>237</ele>
        <time>2020-03-04T10:13:25Z</time>
      </trkpt>
      <trkpt lat="46.90561" lon="5.6351">
        <ele>237</ele>
        <time>2020-03-04T10:13:26Z</time>
      </trkpt>
      <trkpt lat="46.90565" lon="5.63514">
        <ele>237</ele>
        <time>2020-03-04T10:13:27Z</time>
      </trkpt>
      <trkpt lat="46.90569" lon="5.63519">
        <ele>237</ele>
        <time>2020-03-04T10:13:28Z</time>
      </trkpt>
      <trkpt lat="46.90573" lon="5.63523">
        <ele>237</ele>
        <time>2020-03-04T10:13:29Z</time>
      </trkpt>
      <trkpt lat="46.90577" lon="5.63527">
        <ele>237</ele>
        <time>2020-03-04T10:13:30Z</time>
      </trkpt>
      <trkpt lat="46.90581" lon="5.63531">
        <ele>237</ele>
        <time>2020-03-04T10:13:31Z</time>
      </trkpt>
      <trkpt lat="46.90585" lon="5.63535">
        <ele>237</ele>
        <time>2020-03-04T10:13:32Z</time>
      </trkpt>
      <trkpt lat="46.90589" lon="5.63539">
        <ele>237</ele>
        <time>2020-03-04T10:13:33Z</time>
      </trkpt>
      <trkpt lat="46.90593" lon="5.63543">
        <ele>237</ele>
        <time>2020-03-04T10:13:34Z</time>
      </trkpt>
      <trkpt lat="46.90596" lon="5.63547">
        <ele>237</ele>
        <time>2020-03-04T10:13:35Z</time>
      </trkpt>
      <trkpt lat="46.906" lon="5.6355">
        <ele>237</ele>
        <time>2020-03-04T10:13:36Z</time>
      </trkpt>
      <trkpt lat="46.90604" lon="5.63554">
        <ele>237.4</ele>
        <time>2020-03-04T10:13:37Z</time>
      </trkpt>
      <trkpt lat="46.90608" lon="5.63558">
        <ele>237.4</ele>
        <time>2020-03-04T10:13:38Z</time>
      </trkpt>
      <trkpt lat="46.90611" lon="5.63563">
        <ele>237.4</ele>
        <time>2020-03-04T10:13:39Z</time>
      </trkpt>
      <trkpt lat="46.90615" lon="5.63567">
        <ele>237.4</ele>
        <time>2020-03-04T10:13:40Z</time>
      </trkpt>
      <trkpt lat="46.90619" lon="5.63571">
        <ele>237.4</ele>
        <time>2020-03-04T10:13:41Z</time>
      </trkpt>
      <trkpt lat="46.90623" lon="5.63575">
        <ele>237.4</ele>
        <time>2020-03-04T10:13:42Z</time>
      </trkpt>
      <trkpt lat="46.90626" lon="5.63579">
        <ele>237.6</ele>
        <time>2020-03-04T10:13:43Z</time>
      </trkpt>
      <trkpt lat="46.90629" lon="5.63584">
        <ele>237.6</ele>
        <time>2020-03-04T10:13:44Z</time>
      </trkpt>
      <trkpt lat="46.90632" lon="5.63588">
        <ele>237.6</ele>
        <time>2020-03-04T10:13:45Z</time>
      </trkpt>
      <trkpt lat="46.90635" lon="5.63592">
        <ele>237.6</ele>
        <time>2020-03-04T10:13:46Z</time>
      </trkpt>
      <trkpt lat="46.90637" lon="5.63597">
        <ele>237.8</ele>
        <time>2020-03-04T10:13:47Z</time>
      </trkpt>
      <trkpt lat="46.90639" lon="5.63601">
        <ele>237.8</ele>
        <time>2020-03-04T10:13:48Z</time>
      </trkpt>
      <trkpt lat="46.90642" lon="5.63606">
        <ele>237.8</ele>
        <time>2020-03-04T10:13:49Z</time>
      </trkpt>
      <trkpt lat="46.90644" lon="5.6361">
        <ele>237.8</ele>
        <time>2020-03-04T10:13:50Z</time>
      </trkpt>
      <trkpt lat="46.90646" lon="5.63614">
        <ele>237.8</ele>
        <time>2020-03-04T10:13:51Z</time>
      </trkpt>
      <trkpt lat="46.90648" lon="5.63617">
        <ele>238</ele>
        <time>2020-03-04T10:13:52Z</time>
      </trkpt>
      <trkpt lat="46.9065" lon="5.6362">
        <ele>238</ele>
        <time>2020-03-04T10:13:53Z</time>
      </trkpt>
      <trkpt lat="46.90652" lon="5.63623">
        <ele>238.2</ele>
        <time>2020-03-04T10:13:54Z</time>
      </trkpt>
      <trkpt lat="46.90652" lon="5.63625">
        <ele>238.2</ele>
        <time>2020-03-04T10:13:55Z</time>
      </trkpt>
      <trkpt lat="46.90653" lon="5.63626">
        <ele>238.2</ele>
        <time>2020-03-04T10:13:56Z</time>
      </trkpt>
      <trkpt lat="46.90655" lon="5.63628">
        <ele>238.6</ele>
        <time>2020-03-04T10:14:08Z</time>
      </trkpt>
      <trkpt lat="46.90656" lon="5.63629">
        <ele>238.6</ele>
        <time>2020-03-04T10:14:09Z</time>
      </trkpt>
      <trkpt lat="46.90658" lon="5.63629">
        <ele>238.6</ele>
        <time>2020-03-04T10:14:10Z</time>
      </trkpt>
      <trkpt lat="46.90659" lon="5.63629">
        <ele>238.6</ele>
        <time>2020-03-04T10:14:11Z</time>
      </trkpt>
      <trkpt lat="46.90661" lon="5.63628">
        <ele>238.6</ele>
        <time>2020-03-04T10:14:12Z</time>
      </trkpt>
      <trkpt lat="46.90663" lon="5.63626">
        <ele>238.6</ele>
        <time>2020-03-04T10:14:13Z</time>
      </trkpt>
      <trkpt lat="46.90665" lon="5.63624">
        <ele>238.6</ele>
        <time>2020-03-04T10:14:14Z</time>
      </trkpt>
      <trkpt lat="46.90668" lon="5.63621">
        <ele>238.6</ele>
        <time>2020-03-04T10:14:15Z</time>
      </trkpt>
      <trkpt lat="46.9067" lon="5.63619">
        <ele>238.6</ele>
        <time>2020-03-04T10:14:16Z</time>
      </trkpt>
      <trkpt lat="46.90673" lon="5.63616">
        <ele>238.6</ele>
        <time>2020-03-04T10:14:17Z</time>
      </trkpt>
      <trkpt lat="46.90677" lon="5.63612">
        <ele>238.6</ele>
        <time>2020-03-04T10:14:18Z</time>
      </trkpt>
      <trkpt lat="46.9068" lon="5.63609">
        <ele>238.6</ele>
        <time>2020-03-04T10:14:19Z</time>
      </trkpt>
      <trkpt lat="46.90684" lon="5.63606">
        <ele>238.6</ele>
        <time>2020-03-04T10:14:20Z</time>
      </trkpt>
      <trkpt lat="46.90688" lon="5.63602">
        <ele>238.6</ele>
        <time>2020-03-04T10:14:21Z</time>
      </trkpt>
      <trkpt lat="46.90692" lon="5.63598">
        <ele>238.4</ele>
        <time>2020-03-04T10:14:22Z</time>
      </trkpt>
      <trkpt lat="46.90696" lon="5.63595">
        <ele>238.4</ele>
        <time>2020-03-04T10:14:23Z</time>
      </trkpt>
      <trkpt lat="46.907" lon="5.63591">
        <ele>238</ele>
        <time>2020-03-04T10:14:24Z</time>
      </trkpt>
      <trkpt lat="46.90705" lon="5.63587">
        <ele>238</ele>
        <time>2020-03-04T10:14:25Z</time>
      </trkpt>
      <trkpt lat="46.90709" lon="5.63583">
        <ele>238</ele>
        <time>2020-03-04T10:14:26Z</time>
      </trkpt>
      <trkpt lat="46.90714" lon="5.63579">
        <ele>238</ele>
        <time>2020-03-04T10:14:27Z</time>
      </trkpt>
      <trkpt lat="46.90718" lon="5.63574">
        <ele>238</ele>
        <time>2020-03-04T10:14:28Z</time>
      </trkpt>
      <trkpt lat="46.90723" lon="5.6357">
        <ele>238</ele>
        <time>2020-03-04T10:14:29Z</time>
      </trkpt>
      <trkpt lat="46.90728" lon="5.63565">
        <ele>238</ele>
        <time>2020-03-04T10:14:30Z</time>
      </trkpt>
      <trkpt lat="46.90732" lon="5.63561">
        <ele>238</ele>
        <time>2020-03-04T10:14:31Z</time>
      </trkpt>
      <trkpt lat="46.90737" lon="5.63557">
        <ele>238</ele>
        <time>2020-03-04T10:14:32Z</time>
      </trkpt>
      <trkpt lat="46.90742" lon="5.63553">
        <ele>238</ele>
        <time>2020-03-04T10:14:33Z</time>
      </trkpt>
      <trkpt lat="46.90747" lon="5.63548">
        <ele>238</ele>
        <time>2020-03-04T10:14:34Z</time>
      </trkpt>
      <trkpt lat="46.90751" lon="5.63543">
        <ele>238</ele>
        <time>2020-03-04T10:14:35Z</time>
      </trkpt>
      <trkpt lat="46.90756" lon="5.63539">
        <ele>238</ele>
        <time>2020-03-04T10:14:36Z</time>
      </trkpt>
      <trkpt lat="46.90761" lon="5.63535">
        <ele>238</ele>
        <time>2020-03-04T10:14:37Z</time>
      </trkpt>
      <trkpt lat="46.90766" lon="5.6353">
        <ele>238.2</ele>
        <time>2020-03-04T10:14:38Z</time>
      </trkpt>
      <trkpt lat="46.90771" lon="5.63525">
        <ele>238.2</ele>
        <time>2020-03-04T10:14:39Z</time>
      </trkpt>
      <trkpt lat="46.90776" lon="5.6352">
        <ele>238.2</ele>
        <time>2020-03-04T10:14:40Z</time>
      </trkpt>
      <trkpt lat="46.90781" lon="5.63515">
        <ele>238.2</ele>
        <time>2020-03-04T10:14:41Z</time>
      </trkpt>
      <trkpt lat="46.90786" lon="5.63509">
        <ele>238.2</ele>
        <time>2020-03-04T10:14:42Z</time>
      </trkpt>
      <trkpt lat="46.9079" lon="5.63504">
        <ele>238.2</ele>
        <time>2020-03-04T10:14:43Z</time>
      </trkpt>
      <trkpt lat="46.90795" lon="5.63499">
        <ele>238.2</ele>
        <time>2020-03-04T10:14:44Z</time>
      </trkpt>
      <trkpt lat="46.90801" lon="5.63494">
        <ele>238.2</ele>
        <time>2020-03-04T10:14:45Z</time>
      </trkpt>
      <trkpt lat="46.90806" lon="5.63489">
        <ele>238.2</ele>
        <time>2020-03-04T10:14:46Z</time>
      </trkpt>
      <trkpt lat="46.90811" lon="5.63484">
        <ele>238.2</ele>
        <time>2020-03-04T10:14:47Z</time>
      </trkpt>
      <trkpt lat="46.90815" lon="5.63479">
        <ele>238.2</ele>
        <time>2020-03-04T10:14:48Z</time>
      </trkpt>
      <trkpt lat="46.9082" lon="5.63474">
        <ele>238.2</ele>
        <time>2020-03-04T10:14:49Z</time>
      </trkpt>
      <trkpt lat="46.90824" lon="5.6347">
        <ele>238.2</ele>
        <time>2020-03-04T10:14:50Z</time>
      </trkpt>
      <trkpt lat="46.90828" lon="5.63466">
        <ele>238.2</ele>
        <time>2020-03-04T10:14:51Z</time>
      </trkpt>
      <trkpt lat="46.90832" lon="5.63462">
        <ele>238.2</ele>
        <time>2020-03-04T10:14:52Z</time>
      </trkpt>
      <trkpt lat="46.90836" lon="5.63457">
        <ele>238.2</ele>
        <time>2020-03-04T10:14:53Z</time>
      </trkpt>
      <trkpt lat="46.9084" lon="5.63453">
        <ele>238.2</ele>
        <time>2020-03-04T10:14:54Z</time>
      </trkpt>
      <trkpt lat="46.90844" lon="5.63449">
        <ele>238.2</ele>
        <time>2020-03-04T10:14:55Z</time>
      </trkpt>
      <trkpt lat="46.90849" lon="5.63445">
        <ele>238.2</ele>
        <time>2020-03-04T10:14:56Z</time>
      </trkpt>
      <trkpt lat="46.90853" lon="5.63441">
        <ele>238.2</ele>
        <time>2020-03-04T10:14:57Z</time>
      </trkpt>
      <trkpt lat="46.90857" lon="5.63436">
        <ele>238.2</ele>
        <time>2020-03-04T10:14:58Z</time>
      </trkpt>
      <trkpt lat="46.90861" lon="5.63432">
        <ele>238.2</ele>
        <time>2020-03-04T10:14:59Z</time>
      </trkpt>
      <trkpt lat="46.90866" lon="5.63427">
        <ele>238.2</ele>
        <time>2020-03-04T10:15:00Z</time>
      </trkpt>
      <trkpt lat="46.9087" lon="5.63423">
        <ele>238.6</ele>
        <time>2020-03-04T10:15:01Z</time>
      </trkpt>
      <trkpt lat="46.90875" lon="5.63418">
        <ele>238.6</ele>
        <time>2020-03-04T10:15:02Z</time>
      </trkpt>
      <trkpt lat="46.90879" lon="5.63414">
        <ele>238.6</ele>
        <time>2020-03-04T10:15:03Z</time>
      </trkpt>
      <trkpt lat="46.90884" lon="5.63409">
        <ele>238.6</ele>
        <time>2020-03-04T10:15:04Z</time>
      </trkpt>
      <trkpt lat="46.90888" lon="5.63405">
        <ele>238.6</ele>
        <time>2020-03-04T10:15:05Z</time>
      </trkpt>
      <trkpt lat="46.90892" lon="5.634">
        <ele>238.8</ele>
        <time>2020-03-04T10:15:06Z</time>
      </trkpt>
      <trkpt lat="46.90897" lon="5.63395">
        <ele>238.8</ele>
        <time>2020-03-04T10:15:07Z</time>
      </trkpt>
      <trkpt lat="46.90901" lon="5.63391">
        <ele>238.8</ele>
        <time>2020-03-04T10:15:08Z</time>
      </trkpt>
      <trkpt lat="46.90905" lon="5.63386">
        <ele>238.8</ele>
        <time>2020-03-04T10:15:09Z</time>
      </trkpt>
      <trkpt lat="46.90909" lon="5.63382">
        <ele>238.8</ele>
        <time>2020-03-04T10:15:10Z</time>
      </trkpt>
      <trkpt lat="46.90914" lon="5.63378">
        <ele>238.8</ele>
        <time>2020-03-04T10:15:11Z</time>
      </trkpt>
      <trkpt lat="46.90918" lon="5.63373">
        <ele>238.8</ele>
        <time>2020-03-04T10:15:12Z</time>
      </trkpt>
      <trkpt lat="46.90923" lon="5.63368">
        <ele>238.8</ele>
        <time>2020-03-04T10:15:13Z</time>
      </trkpt>
      <trkpt lat="46.90927" lon="5.63364">
        <ele>238.8</ele>
        <time>2020-03-04T10:15:14Z</time>
      </trkpt>
      <trkpt lat="46.90932" lon="5.63359">
        <ele>238.8</ele>
        <time>2020-03-04T10:15:15Z</time>
      </trkpt>
      <trkpt lat="46.90937" lon="5.63355">
        <ele>238.8</ele>
        <time>2020-03-04T10:15:16Z</time>
      </trkpt>
      <trkpt lat="46.90942" lon="5.63349">
        <ele>238.8</ele>
        <time>2020-03-04T10:15:17Z</time>
      </trkpt>
      <trkpt lat="46.90946" lon="5.63344">
        <ele>238.8</ele>
        <time>2020-03-04T10:15:18Z</time>
      </trkpt>
      <trkpt lat="46.90951" lon="5.63339">
        <ele>238.8</ele>
        <time>2020-03-04T10:15:19Z</time>
      </trkpt>
      <trkpt lat="46.90956" lon="5.63334">
        <ele>238.8</ele>
        <time>2020-03-04T10:15:20Z</time>
      </trkpt>
      <trkpt lat="46.90961" lon="5.63329">
        <ele>238.8</ele>
        <time>2020-03-04T10:15:21Z</time>
      </trkpt>
      <trkpt lat="46.90966" lon="5.63324">
        <ele>238.8</ele>
        <time>2020-03-04T10:15:22Z</time>
      </trkpt>
      <trkpt lat="46.90971" lon="5.63319">
        <ele>238.8</ele>
        <time>2020-03-04T10:15:23Z</time>
      </trkpt>
      <trkpt lat="46.90976" lon="5.63314">
        <ele>238.8</ele>
        <time>2020-03-04T10:15:24Z</time>
      </trkpt>
      <trkpt lat="46.90981" lon="5.63309">
        <ele>238.8</ele>
        <time>2020-03-04T10:15:25Z</time>
      </trkpt>
      <trkpt lat="46.90985" lon="5.63304">
        <ele>239</ele>
        <time>2020-03-04T10:15:26Z</time>
      </trkpt>
      <trkpt lat="46.9099" lon="5.63299">
        <ele>239</ele>
        <time>2020-03-04T10:15:27Z</time>
      </trkpt>
      <trkpt lat="46.90994" lon="5.63294">
        <ele>239</ele>
        <time>2020-03-04T10:15:28Z</time>
      </trkpt>
      <trkpt lat="46.90999" lon="5.6329">
        <ele>239</ele>
        <time>2020-03-04T10:15:29Z</time>
      </trkpt>
      <trkpt lat="46.91003" lon="5.63285">
        <ele>239.2</ele>
        <time>2020-03-04T10:15:30Z</time>
      </trkpt>
      <trkpt lat="46.91007" lon="5.6328">
        <ele>239.2</ele>
        <time>2020-03-04T10:15:31Z</time>
      </trkpt>
      <trkpt lat="46.9101" lon="5.63275">
        <ele>239.2</ele>
        <time>2020-03-04T10:15:32Z</time>
      </trkpt>
      <trkpt lat="46.91014" lon="5.63272">
        <ele>239.2</ele>
        <time>2020-03-04T10:15:33Z</time>
      </trkpt>
      <trkpt lat="46.91018" lon="5.63268">
        <ele>239.2</ele>
        <time>2020-03-04T10:15:34Z</time>
      </trkpt>
      <trkpt lat="46.91021" lon="5.63265">
        <ele>239.2</ele>
        <time>2020-03-04T10:15:35Z</time>
      </trkpt>
      <trkpt lat="46.91025" lon="5.63264">
        <ele>239.2</ele>
        <time>2020-03-04T10:15:36Z</time>
      </trkpt>
      <trkpt lat="46.91028" lon="5.63264">
        <ele>239.2</ele>
        <time>2020-03-04T10:15:37Z</time>
      </trkpt>
      <trkpt lat="46.91031" lon="5.63265">
        <ele>239.2</ele>
        <time>2020-03-04T10:15:38Z</time>
      </trkpt>
      <trkpt lat="46.91033" lon="5.63268">
        <ele>239.2</ele>
        <time>2020-03-04T10:15:39Z</time>
      </trkpt>
      <trkpt lat="46.91036" lon="5.63272">
        <ele>239.2</ele>
        <time>2020-03-04T10:15:40Z</time>
      </trkpt>
      <trkpt lat="46.91038" lon="5.63276">
        <ele>239.2</ele>
        <time>2020-03-04T10:15:41Z</time>
      </trkpt>
      <trkpt lat="46.9104" lon="5.63281">
        <ele>239.2</ele>
        <time>2020-03-04T10:15:42Z</time>
      </trkpt>
      <trkpt lat="46.91042" lon="5.63286">
        <ele>239.2</ele>
        <time>2020-03-04T10:15:43Z</time>
      </trkpt>
      <trkpt lat="46.91044" lon="5.63291">
        <ele>239.2</ele>
        <time>2020-03-04T10:15:44Z</time>
      </trkpt>
      <trkpt lat="46.91045" lon="5.63298">
        <ele>239.2</ele>
        <time>2020-03-04T10:15:45Z</time>
      </trkpt>
      <trkpt lat="46.91046" lon="5.63304">
        <ele>239.2</ele>
        <time>2020-03-04T10:15:46Z</time>
      </trkpt>
      <trkpt lat="46.91047" lon="5.63311">
        <ele>239.2</ele>
        <time>2020-03-04T10:15:47Z</time>
      </trkpt>
      <trkpt lat="46.91048" lon="5.63317">
        <ele>239.2</ele>
        <time>2020-03-04T10:15:48Z</time>
      </trkpt>
      <trkpt lat="46.91049" lon="5.63323">
        <ele>239.2</ele>
        <time>2020-03-04T10:15:49Z</time>
      </trkpt>
      <trkpt lat="46.91049" lon="5.6333">
        <ele>239.4</ele>
        <time>2020-03-04T10:15:50Z</time>
      </trkpt>
      <trkpt lat="46.9105" lon="5.63336">
        <ele>239.4</ele>
        <time>2020-03-04T10:15:51Z</time>
      </trkpt>
      <trkpt lat="46.9105" lon="5.63342">
        <ele>239.4</ele>
        <time>2020-03-04T10:15:52Z</time>
      </trkpt>
      <trkpt lat="46.9105" lon="5.63349">
        <ele>239.8</ele>
        <time>2020-03-04T10:15:53Z</time>
      </trkpt>
      <trkpt lat="46.9105" lon="5.63355">
        <ele>239.8</ele>
        <time>2020-03-04T10:15:54Z</time>
      </trkpt>
      <trkpt lat="46.91051" lon="5.63361">
        <ele>239.8</ele>
        <time>2020-03-04T10:15:55Z</time>
      </trkpt>
      <trkpt lat="46.91051" lon="5.63367">
        <ele>240</ele>
        <time>2020-03-04T10:15:56Z</time>
      </trkpt>
      <trkpt lat="46.91052" lon="5.63373">
        <ele>240</ele>
        <time>2020-03-04T10:15:57Z</time>
      </trkpt>
      <trkpt lat="46.91052" lon="5.63379">
        <ele>240.2</ele>
        <time>2020-03-04T10:15:58Z</time>
      </trkpt>
      <trkpt lat="46.91053" lon="5.63385">
        <ele>240.2</ele>
        <time>2020-03-04T10:15:59Z</time>
      </trkpt>
      <trkpt lat="46.91053" lon="5.63391">
        <ele>240.2</ele>
        <time>2020-03-04T10:16:00Z</time>
      </trkpt>
      <trkpt lat="46.91054" lon="5.63397">
        <ele>240.4</ele>
        <time>2020-03-04T10:16:01Z</time>
      </trkpt>
      <trkpt lat="46.91054" lon="5.63403">
        <ele>240.4</ele>
        <time>2020-03-04T10:16:02Z</time>
      </trkpt>
      <trkpt lat="46.91055" lon="5.63409">
        <ele>240.8</ele>
        <time>2020-03-04T10:16:03Z</time>
      </trkpt>
      <trkpt lat="46.91055" lon="5.63415">
        <ele>240.8</ele>
        <time>2020-03-04T10:16:04Z</time>
      </trkpt>
      <trkpt lat="46.91055" lon="5.63421">
        <ele>240.8</ele>
        <time>2020-03-04T10:16:05Z</time>
      </trkpt>
      <trkpt lat="46.91055" lon="5.63428">
        <ele>241</ele>
        <time>2020-03-04T10:16:06Z</time>
      </trkpt>
      <trkpt lat="46.91056" lon="5.63434">
        <ele>241</ele>
        <time>2020-03-04T10:16:07Z</time>
      </trkpt>
      <trkpt lat="46.91056" lon="5.63441">
        <ele>241</ele>
        <time>2020-03-04T10:16:08Z</time>
      </trkpt>
      <trkpt lat="46.91057" lon="5.63447">
        <ele>241.2</ele>
        <time>2020-03-04T10:16:09Z</time>
      </trkpt>
      <trkpt lat="46.91057" lon="5.63454">
        <ele>241.2</ele>
        <time>2020-03-04T10:16:10Z</time>
      </trkpt>
      <trkpt lat="46.91057" lon="5.63461">
        <ele>241.2</ele>
        <time>2020-03-04T10:16:11Z</time>
      </trkpt>
      <trkpt lat="46.91057" lon="5.63467">
        <ele>241.4</ele>
        <time>2020-03-04T10:16:12Z</time>
      </trkpt>
      <trkpt lat="46.91057" lon="5.63474">
        <ele>241.4</ele>
        <time>2020-03-04T10:16:13Z</time>
      </trkpt>
      <trkpt lat="46.91057" lon="5.63481">
        <ele>241.4</ele>
        <time>2020-03-04T10:16:14Z</time>
      </trkpt>
      <trkpt lat="46.91057" lon="5.63487">
        <ele>241.8</ele>
        <time>2020-03-04T10:16:15Z</time>
      </trkpt>
      <trkpt lat="46.91056" lon="5.63494">
        <ele>241.8</ele>
        <time>2020-03-04T10:16:16Z</time>
      </trkpt>
      <trkpt lat="46.91055" lon="5.63501">
        <ele>241.8</ele>
        <time>2020-03-04T10:16:17Z</time>
      </trkpt>
      <trkpt lat="46.91054" lon="5.63507">
        <ele>241.8</ele>
        <time>2020-03-04T10:16:18Z</time>
      </trkpt>
      <trkpt lat="46.91053" lon="5.63514">
        <ele>242.2</ele>
        <time>2020-03-04T10:16:19Z</time>
      </trkpt>
      <trkpt lat="46.91051" lon="5.63521">
        <ele>242.2</ele>
        <time>2020-03-04T10:16:20Z</time>
      </trkpt>
      <trkpt lat="46.9105" lon="5.63528">
        <ele>242.4</ele>
        <time>2020-03-04T10:16:21Z</time>
      </trkpt>
      <trkpt lat="46.91049" lon="5.63535">
        <ele>242.6</ele>
        <time>2020-03-04T10:16:22Z</time>
      </trkpt>
      <trkpt lat="46.91048" lon="5.63541">
        <ele>242.6</ele>
        <time>2020-03-04T10:16:23Z</time>
      </trkpt>
      <trkpt lat="46.91048" lon="5.63548">
        <ele>242.8</ele>
        <time>2020-03-04T10:16:24Z</time>
      </trkpt>
      <trkpt lat="46.91049" lon="5.63555">
        <ele>242.8</ele>
        <time>2020-03-04T10:16:25Z</time>
      </trkpt>
      <trkpt lat="46.9105" lon="5.63561">
        <ele>242.8</ele>
        <time>2020-03-04T10:16:26Z</time>
      </trkpt>
      <trkpt lat="46.91051" lon="5.63567">
        <ele>243.2</ele>
        <time>2020-03-04T10:16:27Z</time>
      </trkpt>
      <trkpt lat="46.91053" lon="5.63574">
        <ele>243.2</ele>
        <time>2020-03-04T10:16:28Z</time>
      </trkpt>
      <trkpt lat="46.91055" lon="5.6358">
        <ele>243.6</ele>
        <time>2020-03-04T10:16:29Z</time>
      </trkpt>
      <trkpt lat="46.91057" lon="5.63586">
        <ele>243.6</ele>
        <time>2020-03-04T10:16:30Z</time>
      </trkpt>
      <trkpt lat="46.91059" lon="5.63592">
        <ele>243.8</ele>
        <time>2020-03-04T10:16:31Z</time>
      </trkpt>
      <trkpt lat="46.91061" lon="5.63598">
        <ele>243.8</ele>
        <time>2020-03-04T10:16:32Z</time>
      </trkpt>
      <trkpt lat="46.91064" lon="5.63604">
        <ele>244</ele>
        <time>2020-03-04T10:16:33Z</time>
      </trkpt>
      <trkpt lat="46.91066" lon="5.6361">
        <ele>244</ele>
        <time>2020-03-04T10:16:34Z</time>
      </trkpt>
      <trkpt lat="46.91069" lon="5.63615">
        <ele>244</ele>
        <time>2020-03-04T10:16:35Z</time>
      </trkpt>
      <trkpt lat="46.91072" lon="5.6362">
        <ele>244</ele>
        <time>2020-03-04T10:16:36Z</time>
      </trkpt>
      <trkpt lat="46.91075" lon="5.63625">
        <ele>244.4</ele>
        <time>2020-03-04T10:16:37Z</time>
      </trkpt>
      <trkpt lat="46.91077" lon="5.6363">
        <ele>244.6</ele>
        <time>2020-03-04T10:16:38Z</time>
      </trkpt>
      <trkpt lat="46.9108" lon="5.63636">
        <ele>244.8</ele>
        <time>2020-03-04T10:16:39Z</time>
      </trkpt>
      <trkpt lat="46.91083" lon="5.63641">
        <ele>244.8</ele>
        <time>2020-03-04T10:16:40Z</time>
      </trkpt>
      <trkpt lat="46.91086" lon="5.63646">
        <ele>245.2</ele>
        <time>2020-03-04T10:16:41Z</time>
      </trkpt>
      <trkpt lat="46.91088" lon="5.63652">
        <ele>245.4</ele>
        <time>2020-03-04T10:16:42Z</time>
      </trkpt>
      <trkpt lat="46.91091" lon="5.63657">
        <ele>245.4</ele>
        <time>2020-03-04T10:16:43Z</time>
      </trkpt>
      <trkpt lat="46.91094" lon="5.63662">
        <ele>245.8</ele>
        <time>2020-03-04T10:16:44Z</time>
      </trkpt>
      <trkpt lat="46.91097" lon="5.63667">
        <ele>245.8</ele>
        <time>2020-03-04T10:16:45Z</time>
      </trkpt>
      <trkpt lat="46.911" lon="5.63671">
        <ele>246.2</ele>
        <time>2020-03-04T10:16:46Z</time>
      </trkpt>
      <trkpt lat="46.91102" lon="5.63676">
        <ele>246.2</ele>
        <time>2020-03-04T10:16:47Z</time>
      </trkpt>
      <trkpt lat="46.91105" lon="5.63681">
        <ele>246.4</ele>
        <time>2020-03-04T10:16:48Z</time>
      </trkpt>
      <trkpt lat="46.91108" lon="5.63686">
        <ele>246.4</ele>
        <time>2020-03-04T10:16:49Z</time>
      </trkpt>
      <trkpt lat="46.9111" lon="5.63691">
        <ele>246.8</ele>
        <time>2020-03-04T10:16:50Z</time>
      </trkpt>
      <trkpt lat="46.91112" lon="5.63696">
        <ele>246.8</ele>
        <time>2020-03-04T10:16:51Z</time>
      </trkpt>
      <trkpt lat="46.91115" lon="5.637">
        <ele>247.2</ele>
        <time>2020-03-04T10:16:52Z</time>
      </trkpt>
      <trkpt lat="46.91117" lon="5.63705">
        <ele>247.2</ele>
        <time>2020-03-04T10:16:53Z</time>
      </trkpt>
      <trkpt lat="46.9112" lon="5.63709">
        <ele>247.4</ele>
        <time>2020-03-04T10:16:54Z</time>
      </trkpt>
      <trkpt lat="46.91122" lon="5.63713">
        <ele>247.4</ele>
        <time>2020-03-04T10:16:55Z</time>
      </trkpt>
      <trkpt lat="46.91124" lon="5.63717">
        <ele>247.4</ele>
        <time>2020-03-04T10:16:56Z</time>
      </trkpt>
      <trkpt lat="46.91126" lon="5.63721">
        <ele>247.8</ele>
        <time>2020-03-04T10:16:57Z</time>
      </trkpt>
      <trkpt lat="46.91128" lon="5.63725">
        <ele>247.8</ele>
        <time>2020-03-04T10:16:58Z</time>
      </trkpt>
      <trkpt lat="46.91128" lon="5.63729">
        <ele>247.8</ele>
        <time>2020-03-04T10:16:59Z</time>
      </trkpt>
      <trkpt lat="46.91128" lon="5.63733">
        <ele>248</ele>
        <time>2020-03-04T10:17:00Z</time>
      </trkpt>
      <trkpt lat="46.91126" lon="5.63735">
        <ele>248</ele>
        <time>2020-03-04T10:17:01Z</time>
      </trkpt>
      <trkpt lat="46.91123" lon="5.63735">
        <ele>248</ele>
        <time>2020-03-04T10:17:02Z</time>
      </trkpt>
      <trkpt lat="46.91121" lon="5.63734">
        <ele>248</ele>
        <time>2020-03-04T10:17:03Z</time>
      </trkpt>
      <trkpt lat="46.91118" lon="5.63733">
        <ele>248</ele>
        <time>2020-03-04T10:17:04Z</time>
      </trkpt>
      <trkpt lat="46.91115" lon="5.6373">
        <ele>248</ele>
        <time>2020-03-04T10:17:05Z</time>
      </trkpt>
      <trkpt lat="46.91112" lon="5.63728">
        <ele>248</ele>
        <time>2020-03-04T10:17:06Z</time>
      </trkpt>
      <trkpt lat="46.91109" lon="5.63726">
        <ele>248</ele>
        <time>2020-03-04T10:17:07Z</time>
      </trkpt>
      <trkpt lat="46.91106" lon="5.63723">
        <ele>248</ele>
        <time>2020-03-04T10:17:08Z</time>
      </trkpt>
      <trkpt lat="46.91102" lon="5.63721">
        <ele>248</ele>
        <time>2020-03-04T10:17:09Z</time>
      </trkpt>
      <trkpt lat="46.91099" lon="5.63719">
        <ele>248</ele>
        <time>2020-03-04T10:17:10Z</time>
      </trkpt>
      <trkpt lat="46.91095" lon="5.63717">
        <ele>248</ele>
        <time>2020-03-04T10:17:11Z</time>
      </trkpt>
      <trkpt lat="46.91092" lon="5.63715">
        <ele>247.8</ele>
        <time>2020-03-04T10:17:12Z</time>
      </trkpt>
      <trkpt lat="46.91088" lon="5.63713">
        <ele>247.8</ele>
        <time>2020-03-04T10:17:13Z</time>
      </trkpt>
      <trkpt lat="46.91084" lon="5.63711">
        <ele>247.4</ele>
        <time>2020-03-04T10:17:14Z</time>
      </trkpt>
      <trkpt lat="46.9108" lon="5.63709">
        <ele>247.4</ele>
        <time>2020-03-04T10:17:15Z</time>
      </trkpt>
      <trkpt lat="46.91075" lon="5.63707">
        <ele>247.2</ele>
        <time>2020-03-04T10:17:16Z</time>
      </trkpt>
      <trkpt lat="46.9107" lon="5.63706">
        <ele>247.2</ele>
        <time>2020-03-04T10:17:17Z</time>
      </trkpt>
      <trkpt lat="46.91065" lon="5.63704">
        <ele>247</ele>
        <time>2020-03-04T10:17:18Z</time>
      </trkpt>
      <trkpt lat="46.9106" lon="5.63702">
        <ele>246.6</ele>
        <time>2020-03-04T10:17:19Z</time>
      </trkpt>
      <trkpt lat="46.91056" lon="5.637">
        <ele>246.6</ele>
        <time>2020-03-04T10:17:20Z</time>
      </trkpt>
      <trkpt lat="46.91051" lon="5.63698">
        <ele>246.4</ele>
        <time>2020-03-04T10:17:21Z</time>
      </trkpt>
      <trkpt lat="46.91046" lon="5.63695">
        <ele>246.4</ele>
        <time>2020-03-04T10:17:22Z</time>
      </trkpt>
      <trkpt lat="46.9104" lon="5.63693">
        <ele>246.2</ele>
        <time>2020-03-04T10:17:23Z</time>
      </trkpt>
      <trkpt lat="46.91036" lon="5.63692">
        <ele>246.2</ele>
        <time>2020-03-04T10:17:24Z</time>
      </trkpt>
      <trkpt lat="46.91031" lon="5.6369">
        <ele>246.2</ele>
        <time>2020-03-04T10:17:25Z</time>
      </trkpt>
      <trkpt lat="46.91026" lon="5.63688">
        <ele>246</ele>
        <time>2020-03-04T10:17:26Z</time>
      </trkpt>
      <trkpt lat="46.9102" lon="5.63686">
        <ele>246</ele>
        <time>2020-03-04T10:17:27Z</time>
      </trkpt>
      <trkpt lat="46.91015" lon="5.63684">
        <ele>246</ele>
        <time>2020-03-04T10:17:28Z</time>
      </trkpt>
      <trkpt lat="46.9101" lon="5.63682">
        <ele>246</ele>
        <time>2020-03-04T10:17:29Z</time>
      </trkpt>
      <trkpt lat="46.91004" lon="5.6368">
        <ele>246</ele>
        <time>2020-03-04T10:17:30Z</time>
      </trkpt>
      <trkpt lat="46.90999" lon="5.63677">
        <ele>246</ele>
        <time>2020-03-04T10:17:31Z</time>
      </trkpt>
      <trkpt lat="46.90994" lon="5.63674">
        <ele>246</ele>
        <time>2020-03-04T10:17:32Z</time>
      </trkpt>
      <trkpt lat="46.90989" lon="5.63672">
        <ele>245.8</ele>
        <time>2020-03-04T10:17:33Z</time>
      </trkpt>
      <trkpt lat="46.90984" lon="5.63669">
        <ele>245.8</ele>
        <time>2020-03-04T10:17:34Z</time>
      </trkpt>
      <trkpt lat="46.90979" lon="5.63666">
        <ele>245.8</ele>
        <time>2020-03-04T10:17:35Z</time>
      </trkpt>
      <trkpt lat="46.90973" lon="5.63663">
        <ele>245.4</ele>
        <time>2020-03-04T10:17:36Z</time>
      </trkpt>
      <trkpt lat="46.90968" lon="5.6366">
        <ele>245.4</ele>
        <time>2020-03-04T10:17:37Z</time>
      </trkpt>
      <trkpt lat="46.90963" lon="5.63656">
        <ele>245.2</ele>
        <time>2020-03-04T10:17:38Z</time>
      </trkpt>
      <trkpt lat="46.90957" lon="5.63652">
        <ele>245.2</ele>
        <time>2020-03-04T10:17:39Z</time>
      </trkpt>
      <trkpt lat="46.90952" lon="5.63647">
        <ele>244.8</ele>
        <time>2020-03-04T10:17:40Z</time>
      </trkpt>
      <trkpt lat="46.90946" lon="5.63642">
        <ele>244.8</ele>
        <time>2020-03-04T10:17:41Z</time>
      </trkpt>
      <trkpt lat="46.90941" lon="5.63637">
        <ele>244.4</ele>
        <time>2020-03-04T10:17:42Z</time>
      </trkpt>
      <trkpt lat="46.90935" lon="5.63631">
        <ele>244.2</ele>
        <time>2020-03-04T10:17:43Z</time>
      </trkpt>
      <trkpt lat="46.9093" lon="5.63626">
        <ele>243.8</ele>
        <time>2020-03-04T10:17:44Z</time>
      </trkpt>
      <trkpt lat="46.90925" lon="5.6362">
        <ele>243.4</ele>
        <time>2020-03-04T10:17:45Z</time>
      </trkpt>
      <trkpt lat="46.9092" lon="5.63615">
        <ele>243.2</ele>
        <time>2020-03-04T10:17:46Z</time>
      </trkpt>
      <trkpt lat="46.90915" lon="5.6361">
        <ele>242.8</ele>
        <time>2020-03-04T10:17:47Z</time>
      </trkpt>
      <trkpt lat="46.90911" lon="5.63605">
        <ele>242.6</ele>
        <time>2020-03-04T10:17:48Z</time>
      </trkpt>
      <trkpt lat="46.90906" lon="5.636">
        <ele>242.6</ele>
        <time>2020-03-04T10:17:49Z</time>
      </trkpt>
      <trkpt lat="46.90901" lon="5.63595">
        <ele>242.4</ele>
        <time>2020-03-04T10:17:50Z</time>
      </trkpt>
      <trkpt lat="46.90896" lon="5.63589">
        <ele>242</ele>
        <time>2020-03-04T10:17:51Z</time>
      </trkpt>
      <trkpt lat="46.90891" lon="5.63584">
        <ele>242</ele>
        <time>2020-03-04T10:17:52Z</time>
      </trkpt>
      <trkpt lat="46.90887" lon="5.63579">
        <ele>241.8</ele>
        <time>2020-03-04T10:17:53Z</time>
      </trkpt>
      <trkpt lat="46.90882" lon="5.63573">
        <ele>241.8</ele>
        <time>2020-03-04T10:17:54Z</time>
      </trkpt>
      <trkpt lat="46.90877" lon="5.63568">
        <ele>241.4</ele>
        <time>2020-03-04T10:17:55Z</time>
      </trkpt>
      <trkpt lat="46.90872" lon="5.63562">
        <ele>241.4</ele>
        <time>2020-03-04T10:17:56Z</time>
      </trkpt>
      <trkpt lat="46.90867" lon="5.63557">
        <ele>241</ele>
        <time>2020-03-04T10:17:57Z</time>
      </trkpt>
      <trkpt lat="46.90862" lon="5.63551">
        <ele>240.8</ele>
        <time>2020-03-04T10:17:58Z</time>
      </trkpt>
      <trkpt lat="46.90857" lon="5.63546">
        <ele>240.6</ele>
        <time>2020-03-04T10:17:59Z</time>
      </trkpt>
      <trkpt lat="46.90852" lon="5.6354">
        <ele>240.6</ele>
        <time>2020-03-04T10:18:00Z</time>
      </trkpt>
      <trkpt lat="46.90848" lon="5.63534">
        <ele>240</ele>
        <time>2020-03-04T10:18:01Z</time>
      </trkpt>
      <trkpt lat="46.90843" lon="5.63528">
        <ele>239.8</ele>
        <time>2020-03-04T10:18:02Z</time>
      </trkpt>
      <trkpt lat="46.90838" lon="5.63523">
        <ele>239.8</ele>
        <time>2020-03-04T10:18:03Z</time>
      </trkpt>
      <trkpt lat="46.90833" lon="5.63518">
        <ele>239.6</ele>
        <time>2020-03-04T10:18:04Z</time>
      </trkpt>
      <trkpt lat="46.90829" lon="5.63513">
        <ele>239.6</ele>
        <time>2020-03-04T10:18:05Z</time>
      </trkpt>
      <trkpt lat="46.90825" lon="5.63508">
        <ele>239.2</ele>
        <time>2020-03-04T10:18:06Z</time>
      </trkpt>
      <trkpt lat="46.90821" lon="5.63504">
        <ele>239.2</ele>
        <time>2020-03-04T10:18:07Z</time>
      </trkpt>
      <trkpt lat="46.90818" lon="5.63501">
        <ele>239.2</ele>
        <time>2020-03-04T10:18:08Z</time>
      </trkpt>
      <trkpt lat="46.90815" lon="5.63497">
        <ele>239</ele>
        <time>2020-03-04T10:18:09Z</time>
      </trkpt>
      <trkpt lat="46.90813" lon="5.63494">
        <ele>239</ele>
        <time>2020-03-04T10:18:10Z</time>
      </trkpt>
      <trkpt lat="46.90812" lon="5.63492">
        <ele>239</ele>
        <time>2020-03-04T10:18:11Z</time>
      </trkpt>
      <trkpt lat="46.9081" lon="5.6349">
        <ele>239</ele>
        <time>2020-03-04T10:18:12Z</time>
      </trkpt>
      <trkpt lat="46.9081" lon="5.63488">
        <ele>239</ele>
        <time>2020-03-04T10:18:13Z</time>
      </trkpt>
      <trkpt lat="46.90809" lon="5.63487">
        <ele>239</ele>
        <time>2020-03-04T10:18:14Z</time>
      </trkpt>
      <trkpt lat="46.90804" lon="5.63483">
        <ele>239</ele>
        <time>2020-03-04T10:18:21Z</time>
      </trkpt>
      <trkpt lat="46.90802" lon="5.63485">
        <ele>239</ele>
        <time>2020-03-04T10:18:22Z</time>
      </trkpt>
      <trkpt lat="46.90801" lon="5.63487">
        <ele>239</ele>
        <time>2020-03-04T10:18:23Z</time>
      </trkpt>
      <trkpt lat="46.90799" lon="5.63489">
        <ele>239</ele>
        <time>2020-03-04T10:18:24Z</time>
      </trkpt>
      <trkpt lat="46.90797" lon="5.63492">
        <ele>239</ele>
        <time>2020-03-04T10:18:25Z</time>
      </trkpt>
      <trkpt lat="46.90794" lon="5.63494">
        <ele>239</ele>
        <time>2020-03-04T10:18:26Z</time>
      </trkpt>
      <trkpt lat="46.90791" lon="5.63496">
        <ele>239</ele>
        <time>2020-03-04T10:18:27Z</time>
      </trkpt>
      <trkpt lat="46.90788" lon="5.63499">
        <ele>239</ele>
        <time>2020-03-04T10:18:28Z</time>
      </trkpt>
      <trkpt lat="46.90785" lon="5.63502">
        <ele>239.2</ele>
        <time>2020-03-04T10:18:29Z</time>
      </trkpt>
      <trkpt lat="46.90782" lon="5.63505">
        <ele>239.2</ele>
        <time>2020-03-04T10:18:30Z</time>
      </trkpt>
      <trkpt lat="46.90779" lon="5.63509">
        <ele>239.2</ele>
        <time>2020-03-04T10:18:31Z</time>
      </trkpt>
      <trkpt lat="46.90776" lon="5.63513">
        <ele>239.2</ele>
        <time>2020-03-04T10:18:32Z</time>
      </trkpt>
      <trkpt lat="46.90772" lon="5.63516">
        <ele>239.2</ele>
        <time>2020-03-04T10:18:33Z</time>
      </trkpt>
      <trkpt lat="46.90768" lon="5.6352">
        <ele>239.6</ele>
        <time>2020-03-04T10:18:34Z</time>
      </trkpt>
      <trkpt lat="46.90764" lon="5.63524">
        <ele>239.6</ele>
        <time>2020-03-04T10:18:35Z</time>
      </trkpt>
      <trkpt lat="46.9076" lon="5.63528">
        <ele>239.6</ele>
        <time>2020-03-04T10:18:36Z</time>
      </trkpt>
      <trkpt lat="46.90757" lon="5.63532">
        <ele>239.8</ele>
        <time>2020-03-04T10:18:37Z</time>
      </trkpt>
      <trkpt lat="46.90753" lon="5.63537">
        <ele>239.8</ele>
        <time>2020-03-04T10:18:38Z</time>
      </trkpt>
      <trkpt lat="46.90748" lon="5.6354">
        <ele>239.8</ele>
        <time>2020-03-04T10:18:39Z</time>
      </trkpt>
      <trkpt lat="46.90744" lon="5.63544">
        <ele>239.8</ele>
        <time>2020-03-04T10:18:40Z</time>
      </trkpt>
      <trkpt lat="46.90739" lon="5.63549">
        <ele>239.8</ele>
        <time>2020-03-04T10:18:41Z</time>
      </trkpt>
      <trkpt lat="46.90735" lon="5.63553">
        <ele>239.8</ele>
        <time>2020-03-04T10:18:42Z</time>
      </trkpt>
      <trkpt lat="46.9073" lon="5.63557">
        <ele>239.8</ele>
        <time>2020-03-04T10:18:43Z</time>
      </trkpt>
      <trkpt lat="46.90725" lon="5.63562">
        <ele>239.8</ele>
        <time>2020-03-04T10:18:44Z</time>
      </trkpt>
      <trkpt lat="46.9072" lon="5.63566">
        <ele>239.8</ele>
        <time>2020-03-04T10:18:45Z</time>
      </trkpt>
      <trkpt lat="46.90715" lon="5.63571">
        <ele>239.8</ele>
        <time>2020-03-04T10:18:46Z</time>
      </trkpt>
      <trkpt lat="46.9071" lon="5.63575">
        <ele>239.8</ele>
        <time>2020-03-04T10:18:47Z</time>
      </trkpt>
      <trkpt lat="46.90705" lon="5.6358">
        <ele>239.8</ele>
        <time>2020-03-04T10:18:48Z</time>
      </trkpt>
      <trkpt lat="46.907" lon="5.63584">
        <ele>239.8</ele>
        <time>2020-03-04T10:18:49Z</time>
      </trkpt>
      <trkpt lat="46.90695" lon="5.63589">
        <ele>239.8</ele>
        <time>2020-03-04T10:18:50Z</time>
      </trkpt>
      <trkpt lat="46.9069" lon="5.63593">
        <ele>239.8</ele>
        <time>2020-03-04T10:18:51Z</time>
      </trkpt>
      <trkpt lat="46.90685" lon="5.63598">
        <ele>239.8</ele>
        <time>2020-03-04T10:18:52Z</time>
      </trkpt>
      <trkpt lat="46.9068" lon="5.63602">
        <ele>239.8</ele>
        <time>2020-03-04T10:18:53Z</time>
      </trkpt>
      <trkpt lat="46.90675" lon="5.63607">
        <ele>239.8</ele>
        <time>2020-03-04T10:18:54Z</time>
      </trkpt>
      <trkpt lat="46.9067" lon="5.63611">
        <ele>239.8</ele>
        <time>2020-03-04T10:18:55Z</time>
      </trkpt>
      <trkpt lat="46.90665" lon="5.63616">
        <ele>240</ele>
        <time>2020-03-04T10:18:56Z</time>
      </trkpt>
      <trkpt lat="46.9066" lon="5.6362">
        <ele>240</ele>
        <time>2020-03-04T10:18:57Z</time>
      </trkpt>
      <trkpt lat="46.90655" lon="5.63625">
        <ele>240</ele>
        <time>2020-03-04T10:18:58Z</time>
      </trkpt>
      <trkpt lat="46.9065" lon="5.63629">
        <ele>240</ele>
        <time>2020-03-04T10:18:59Z</time>
      </trkpt>
      <trkpt lat="46.90645" lon="5.63634">
        <ele>240.2</ele>
        <time>2020-03-04T10:19:00Z</time>
      </trkpt>
      <trkpt lat="46.90641" lon="5.63638">
        <ele>240.2</ele>
        <time>2020-03-04T10:19:01Z</time>
      </trkpt>
      <trkpt lat="46.90636" lon="5.63643">
        <ele>240.2</ele>
        <time>2020-03-04T10:19:02Z</time>
      </trkpt>
      <trkpt lat="46.90632" lon="5.63647">
        <ele>240.4</ele>
        <time>2020-03-04T10:19:03Z</time>
      </trkpt>
      <trkpt lat="46.90628" lon="5.63651">
        <ele>240.4</ele>
        <time>2020-03-04T10:19:04Z</time>
      </trkpt>
      <trkpt lat="46.90624" lon="5.63655">
        <ele>241</ele>
        <time>2020-03-04T10:19:05Z</time>
      </trkpt>
      <trkpt lat="46.9062" lon="5.63658">
        <ele>241.2</ele>
        <time>2020-03-04T10:19:06Z</time>
      </trkpt>
      <trkpt lat="46.90616" lon="5.63662">
        <ele>241.4</ele>
        <time>2020-03-04T10:19:07Z</time>
      </trkpt>
      <trkpt lat="46.90612" lon="5.63665">
        <ele>241.4</ele>
        <time>2020-03-04T10:19:08Z</time>
      </trkpt>
      <trkpt lat="46.90608" lon="5.63669">
        <ele>241.6</ele>
        <time>2020-03-04T10:19:09Z</time>
      </trkpt>
      <trkpt lat="46.90604" lon="5.63673">
        <ele>242</ele>
        <time>2020-03-04T10:19:10Z</time>
      </trkpt>
      <trkpt lat="46.906" lon="5.63677">
        <ele>242</ele>
        <time>2020-03-04T10:19:11Z</time>
      </trkpt>
      <trkpt lat="46.90596" lon="5.6368">
        <ele>242.2</ele>
        <time>2020-03-04T10:19:12Z</time>
      </trkpt>
      <trkpt lat="46.90592" lon="5.63684">
        <ele>242.4</ele>
        <time>2020-03-04T10:19:13Z</time>
      </trkpt>
      <trkpt lat="46.90587" lon="5.63688">
        <ele>242.6</ele>
        <time>2020-03-04T10:19:14Z</time>
      </trkpt>
      <trkpt lat="46.90583" lon="5.63692">
        <ele>242.6</ele>
        <time>2020-03-04T10:19:15Z</time>
      </trkpt>
      <trkpt lat="46.90579" lon="5.63696">
        <ele>243</ele>
        <time>2020-03-04T10:19:16Z</time>
      </trkpt>
      <trkpt lat="46.90575" lon="5.63699">
        <ele>243.2</ele>
        <time>2020-03-04T10:19:17Z</time>
      </trkpt>
      <trkpt lat="46.90572" lon="5.63703">
        <ele>243.2</ele>
        <time>2020-03-04T10:19:18Z</time>
      </trkpt>
      <trkpt lat="46.90568" lon="5.63706">
        <ele>243.6</ele>
        <time>2020-03-04T10:19:19Z</time>
      </trkpt>
      <trkpt lat="46.90565" lon="5.6371">
        <ele>243.6</ele>
        <time>2020-03-04T10:19:20Z</time>
      </trkpt>
      <trkpt lat="46.90561" lon="5.63713">
        <ele>243.8</ele>
        <time>2020-03-04T10:19:21Z</time>
      </trkpt>
      <trkpt lat="46.90558" lon="5.63716">
        <ele>243.8</ele>
        <time>2020-03-04T10:19:22Z</time>
      </trkpt>
      <trkpt lat="46.90554" lon="5.63719">
        <ele>244.2</ele>
        <time>2020-03-04T10:19:23Z</time>
      </trkpt>
      <trkpt lat="46.90551" lon="5.63722">
        <ele>244.2</ele>
        <time>2020-03-04T10:19:24Z</time>
      </trkpt>
      <trkpt lat="46.90548" lon="5.63725">
        <ele>244.6</ele>
        <time>2020-03-04T10:19:25Z</time>
      </trkpt>
      <trkpt lat="46.90544" lon="5.63728">
        <ele>244.6</ele>
        <time>2020-03-04T10:19:26Z</time>
      </trkpt>
      <trkpt lat="46.90541" lon="5.63732">
        <ele>244.8</ele>
        <time>2020-03-04T10:19:27Z</time>
      </trkpt>
      <trkpt lat="46.90537" lon="5.63735">
        <ele>244.8</ele>
        <time>2020-03-04T10:19:28Z</time>
      </trkpt>
      <trkpt lat="46.90534" lon="5.63738">
        <ele>245</ele>
        <time>2020-03-04T10:19:29Z</time>
      </trkpt>
      <trkpt lat="46.9053" lon="5.63742">
        <ele>245</ele>
        <time>2020-03-04T10:19:30Z</time>
      </trkpt>
      <trkpt lat="46.90527" lon="5.63745">
        <ele>245.2</ele>
        <time>2020-03-04T10:19:31Z</time>
      </trkpt>
      <trkpt lat="46.90523" lon="5.63749">
        <ele>245.2</ele>
        <time>2020-03-04T10:19:32Z</time>
      </trkpt>
      <trkpt lat="46.9052" lon="5.63752">
        <ele>245.6</ele>
        <time>2020-03-04T10:19:33Z</time>
      </trkpt>
      <trkpt lat="46.90516" lon="5.63755">
        <ele>245.6</ele>
        <time>2020-03-04T10:19:34Z</time>
      </trkpt>
      <trkpt lat="46.90513" lon="5.63759">
        <ele>245.8</ele>
        <time>2020-03-04T10:19:35Z</time>
      </trkpt>
      <trkpt lat="46.9051" lon="5.63762">
        <ele>245.8</ele>
        <time>2020-03-04T10:19:36Z</time>
      </trkpt>
      <trkpt lat="46.90507" lon="5.63765">
        <ele>246.2</ele>
        <time>2020-03-04T10:19:37Z</time>
      </trkpt>
      <trkpt lat="46.90503" lon="5.63768">
        <ele>246.2</ele>
        <time>2020-03-04T10:19:38Z</time>
      </trkpt>
      <trkpt lat="46.905" lon="5.63771">
        <ele>246.4</ele>
        <time>2020-03-04T10:19:39Z</time>
      </trkpt>
      <trkpt lat="46.90497" lon="5.63774">
        <ele>246.4</ele>
        <time>2020-03-04T10:19:40Z</time>
      </trkpt>
      <trkpt lat="46.90494" lon="5.63777">
        <ele>246.8</ele>
        <time>2020-03-04T10:19:41Z</time>
      </trkpt>
      <trkpt lat="46.90491" lon="5.63781">
        <ele>246.8</ele>
        <time>2020-03-04T10:19:42Z</time>
      </trkpt>
      <trkpt lat="46.90488" lon="5.63784">
        <ele>247.2</ele>
        <time>2020-03-04T10:19:43Z</time>
      </trkpt>
      <trkpt lat="46.90485" lon="5.63787">
        <ele>247.2</ele>
        <time>2020-03-04T10:19:44Z</time>
      </trkpt>
      <trkpt lat="46.90481" lon="5.6379">
        <ele>247.6</ele>
        <time>2020-03-04T10:19:45Z</time>
      </trkpt>
      <trkpt lat="46.90478" lon="5.63792">
        <ele>247.6</ele>
        <time>2020-03-04T10:19:46Z</time>
      </trkpt>
      <trkpt lat="46.90475" lon="5.63795">
        <ele>248</ele>
        <time>2020-03-04T10:19:47Z</time>
      </trkpt>
      <trkpt lat="46.90472" lon="5.63798">
        <ele>248.2</ele>
        <time>2020-03-04T10:19:48Z</time>
      </trkpt>
      <trkpt lat="46.90469" lon="5.63801">
        <ele>248.4</ele>
        <time>2020-03-04T10:19:49Z</time>
      </trkpt>
      <trkpt lat="46.90466" lon="5.63804">
        <ele>248.4</ele>
        <time>2020-03-04T10:19:50Z</time>
      </trkpt>
      <trkpt lat="46.90463" lon="5.63806">
        <ele>248.8</ele>
        <time>2020-03-04T10:19:51Z</time>
      </trkpt>
      <trkpt lat="46.9046" lon="5.63809">
        <ele>248.8</ele>
        <time>2020-03-04T10:19:52Z</time>
      </trkpt>
      <trkpt lat="46.90457" lon="5.63812">
        <ele>248.8</ele>
        <time>2020-03-04T10:19:53Z</time>
      </trkpt>
      <trkpt lat="46.90454" lon="5.63815">
        <ele>248.8</ele>
        <time>2020-03-04T10:19:54Z</time>
      </trkpt>
      <trkpt lat="46.90451" lon="5.63818">
        <ele>249</ele>
        <time>2020-03-04T10:19:55Z</time>
      </trkpt>
      <trkpt lat="46.90448" lon="5.63821">
        <ele>249</ele>
        <time>2020-03-04T10:19:56Z</time>
      </trkpt>
      <trkpt lat="46.90446" lon="5.63824">
        <ele>249.4</ele>
        <time>2020-03-04T10:19:57Z</time>
      </trkpt>
      <trkpt lat="46.90443" lon="5.63826">
        <ele>249.4</ele>
        <time>2020-03-04T10:19:58Z</time>
      </trkpt>
      <trkpt lat="46.9044" lon="5.63829">
        <ele>249.8</ele>
        <time>2020-03-04T10:19:59Z</time>
      </trkpt>
      <trkpt lat="46.90438" lon="5.63832">
        <ele>249.8</ele>
        <time>2020-03-04T10:20:00Z</time>
      </trkpt>
      <trkpt lat="46.90435" lon="5.63834">
        <ele>249.8</ele>
        <time>2020-03-04T10:20:01Z</time>
      </trkpt>
      <trkpt lat="46.90433" lon="5.63836">
        <ele>250.2</ele>
        <time>2020-03-04T10:20:02Z</time>
      </trkpt>
      <trkpt lat="46.9043" lon="5.63839">
        <ele>250.2</ele>
        <time>2020-03-04T10:20:03Z</time>
      </trkpt>
      <trkpt lat="46.90428" lon="5.63841">
        <ele>250.4</ele>
        <time>2020-03-04T10:20:04Z</time>
      </trkpt>
      <trkpt lat="46.90426" lon="5.63843">
        <ele>250.4</ele>
        <time>2020-03-04T10:20:05Z</time>
      </trkpt>
      <trkpt lat="46.90423" lon="5.63845">
        <ele>250.6</ele>
        <time>2020-03-04T10:20:06Z</time>
      </trkpt>
      <trkpt lat="46.90422" lon="5.63848">
        <ele>250.6</ele>
        <time>2020-03-04T10:20:07Z</time>
      </trkpt>
      <trkpt lat="46.9042" lon="5.6385">
        <ele>251</ele>
        <time>2020-03-04T10:20:08Z</time>
      </trkpt>
      <trkpt lat="46.90418" lon="5.63852">
        <ele>251</ele>
        <time>2020-03-04T10:20:09Z</time>
      </trkpt>
      <trkpt lat="46.90416" lon="5.63853">
        <ele>251</ele>
        <time>2020-03-04T10:20:10Z</time>
      </trkpt>
      <trkpt lat="46.90414" lon="5.63855">
        <ele>251.2</ele>
        <time>2020-03-04T10:20:11Z</time>
      </trkpt>
      <trkpt lat="46.90412" lon="5.63857">
        <ele>251.2</ele>
        <time>2020-03-04T10:20:12Z</time>
      </trkpt>
      <trkpt lat="46.90411" lon="5.63859">
        <ele>251.4</ele>
        <time>2020-03-04T10:20:13Z</time>
      </trkpt>
      <trkpt lat="46.90408" lon="5.63861">
        <ele>251.4</ele>
        <time>2020-03-04T10:20:14Z</time>
      </trkpt>
      <trkpt lat="46.90406" lon="5.63863">
        <ele>251.8</ele>
        <time>2020-03-04T10:20:15Z</time>
      </trkpt>
      <trkpt lat="46.90404" lon="5.63866">
        <ele>251.8</ele>
        <time>2020-03-04T10:20:16Z</time>
      </trkpt>
      <trkpt lat="46.90402" lon="5.63869">
        <ele>252</ele>
        <time>2020-03-04T10:20:17Z</time>
      </trkpt>
      <trkpt lat="46.90399" lon="5.63871">
        <ele>252</ele>
        <time>2020-03-04T10:20:18Z</time>
      </trkpt>
      <trkpt lat="46.90397" lon="5.63873">
        <ele>252.2</ele>
        <time>2020-03-04T10:20:19Z</time>
      </trkpt>
      <trkpt lat="46.90395" lon="5.63876">
        <ele>252.2</ele>
        <time>2020-03-04T10:20:20Z</time>
      </trkpt>
      <trkpt lat="46.90392" lon="5.63878">
        <ele>252.4</ele>
        <time>2020-03-04T10:20:21Z</time>
      </trkpt>
      <trkpt lat="46.9039" lon="5.63881">
        <ele>252.4</ele>
        <time>2020-03-04T10:20:22Z</time>
      </trkpt>
      <trkpt lat="46.90387" lon="5.63883">
        <ele>252.8</ele>
        <time>2020-03-04T10:20:23Z</time>
      </trkpt>
      <trkpt lat="46.90385" lon="5.63886">
        <ele>252.8</ele>
        <time>2020-03-04T10:20:24Z</time>
      </trkpt>
      <trkpt lat="46.90382" lon="5.63889">
        <ele>253</ele>
        <time>2020-03-04T10:20:25Z</time>
      </trkpt>
      <trkpt lat="46.90379" lon="5.63892">
        <ele>253</ele>
        <time>2020-03-04T10:20:26Z</time>
      </trkpt>
      <trkpt lat="46.90376" lon="5.63895">
        <ele>253.2</ele>
        <time>2020-03-04T10:20:27Z</time>
      </trkpt>
      <trkpt lat="46.90373" lon="5.63898">
        <ele>253.2</ele>
        <time>2020-03-04T10:20:28Z</time>
      </trkpt>
      <trkpt lat="46.9037" lon="5.63901">
        <ele>253.2</ele>
        <time>2020-03-04T10:20:29Z</time>
      </trkpt>
      <trkpt lat="46.90368" lon="5.63904">
        <ele>253.2</ele>
        <time>2020-03-04T10:20:30Z</time>
      </trkpt>
      <trkpt lat="46.90365" lon="5.63907">
        <ele>253.6</ele>
        <time>2020-03-04T10:20:31Z</time>
      </trkpt>
      <trkpt lat="46.90362" lon="5.63909">
        <ele>253.6</ele>
        <time>2020-03-04T10:20:32Z</time>
      </trkpt>
      <trkpt lat="46.90359" lon="5.63912">
        <ele>254</ele>
        <time>2020-03-04T10:20:33Z</time>
      </trkpt>
      <trkpt lat="46.90356" lon="5.63914">
        <ele>254.2</ele>
        <time>2020-03-04T10:20:34Z</time>
      </trkpt>
      <trkpt lat="46.90353" lon="5.63917">
        <ele>254.2</ele>
        <time>2020-03-04T10:20:35Z</time>
      </trkpt>
      <trkpt lat="46.9035" lon="5.63919">
        <ele>254.4</ele>
        <time>2020-03-04T10:20:36Z</time>
      </trkpt>
      <trkpt lat="46.90347" lon="5.63922">
        <ele>254.4</ele>
        <time>2020-03-04T10:20:37Z</time>
      </trkpt>
      <trkpt lat="46.90344" lon="5.63924">
        <ele>254.6</ele>
        <time>2020-03-04T10:20:38Z</time>
      </trkpt>
      <trkpt lat="46.90341" lon="5.63927">
        <ele>254.6</ele>
        <time>2020-03-04T10:20:39Z</time>
      </trkpt>
      <trkpt lat="46.90338" lon="5.63929">
        <ele>254.8</ele>
        <time>2020-03-04T10:20:40Z</time>
      </trkpt>
      <trkpt lat="46.90335" lon="5.63932">
        <ele>254.8</ele>
        <time>2020-03-04T10:20:41Z</time>
      </trkpt>
      <trkpt lat="46.90331" lon="5.63935">
        <ele>255.2</ele>
        <time>2020-03-04T10:20:42Z</time>
      </trkpt>
      <trkpt lat="46.90327" lon="5.63937">
        <ele>255.2</ele>
        <time>2020-03-04T10:20:43Z</time>
      </trkpt>
      <trkpt lat="46.90324" lon="5.6394">
        <ele>255.2</ele>
        <time>2020-03-04T10:20:44Z</time>
      </trkpt>
      <trkpt lat="46.90321" lon="5.63943">
        <ele>255.2</ele>
        <time>2020-03-04T10:20:45Z</time>
      </trkpt>
      <trkpt lat="46.90318" lon="5.63945">
        <ele>255.4</ele>
        <time>2020-03-04T10:20:46Z</time>
      </trkpt>
      <trkpt lat="46.90314" lon="5.63948">
        <ele>255.4</ele>
        <time>2020-03-04T10:20:47Z</time>
      </trkpt>
      <trkpt lat="46.90311" lon="5.63951">
        <ele>255.4</ele>
        <time>2020-03-04T10:20:48Z</time>
      </trkpt>
      <trkpt lat="46.90308" lon="5.63954">
        <ele>255.4</ele>
        <time>2020-03-04T10:20:49Z</time>
      </trkpt>
      <trkpt lat="46.90305" lon="5.63957">
        <ele>255.6</ele>
        <time>2020-03-04T10:20:50Z</time>
      </trkpt>
      <trkpt lat="46.90302" lon="5.63959">
        <ele>255.6</ele>
        <time>2020-03-04T10:20:51Z</time>
      </trkpt>
      <trkpt lat="46.90299" lon="5.63962">
        <ele>255.6</ele>
        <time>2020-03-04T10:20:52Z</time>
      </trkpt>
      <trkpt lat="46.90295" lon="5.63965">
        <ele>256</ele>
        <time>2020-03-04T10:20:53Z</time>
      </trkpt>
      <trkpt lat="46.90292" lon="5.63968">
        <ele>256</ele>
        <time>2020-03-04T10:20:54Z</time>
      </trkpt>
      <trkpt lat="46.90289" lon="5.63971">
        <ele>256</ele>
        <time>2020-03-04T10:20:55Z</time>
      </trkpt>
      <trkpt lat="46.90286" lon="5.63974">
        <ele>256.2</ele>
        <time>2020-03-04T10:20:56Z</time>
      </trkpt>
      <trkpt lat="46.90283" lon="5.63977">
        <ele>256.2</ele>
        <time>2020-03-04T10:20:57Z</time>
      </trkpt>
      <trkpt lat="46.9028" lon="5.6398">
        <ele>256.2</ele>
        <time>2020-03-04T10:20:58Z</time>
      </trkpt>
      <trkpt lat="46.90276" lon="5.63983">
        <ele>256.4</ele>
        <time>2020-03-04T10:20:59Z</time>
      </trkpt>
      <trkpt lat="46.90273" lon="5.63987">
        <ele>256.4</ele>
        <time>2020-03-04T10:21:00Z</time>
      </trkpt>
      <trkpt lat="46.9027" lon="5.6399">
        <ele>256.4</ele>
        <time>2020-03-04T10:21:01Z</time>
      </trkpt>
      <trkpt lat="46.90266" lon="5.63993">
        <ele>256.6</ele>
        <time>2020-03-04T10:21:02Z</time>
      </trkpt>
      <trkpt lat="46.90263" lon="5.63996">
        <ele>256.6</ele>
        <time>2020-03-04T10:21:03Z</time>
      </trkpt>
      <trkpt lat="46.9026" lon="5.63999">
        <ele>256.6</ele>
        <time>2020-03-04T10:21:04Z</time>
      </trkpt>
      <trkpt lat="46.90256" lon="5.64002">
        <ele>256.6</ele>
        <time>2020-03-04T10:21:05Z</time>
      </trkpt>
      <trkpt lat="46.90253" lon="5.64005">
        <ele>257</ele>
        <time>2020-03-04T10:21:06Z</time>
      </trkpt>
      <trkpt lat="46.90249" lon="5.64009">
        <ele>257</ele>
        <time>2020-03-04T10:21:07Z</time>
      </trkpt>
      <trkpt lat="46.90246" lon="5.64013">
        <ele>257</ele>
        <time>2020-03-04T10:21:08Z</time>
      </trkpt>
      <trkpt lat="46.90243" lon="5.64016">
        <ele>257</ele>
        <time>2020-03-04T10:21:09Z</time>
      </trkpt>
      <trkpt lat="46.90239" lon="5.64019">
        <ele>257</ele>
        <time>2020-03-04T10:21:10Z</time>
      </trkpt>
      <trkpt lat="46.90236" lon="5.64022">
        <ele>257</ele>
        <time>2020-03-04T10:21:11Z</time>
      </trkpt>
      <trkpt lat="46.90233" lon="5.64025">
        <ele>257</ele>
        <time>2020-03-04T10:21:12Z</time>
      </trkpt>
      <trkpt lat="46.90229" lon="5.64029">
        <ele>257</ele>
        <time>2020-03-04T10:21:13Z</time>
      </trkpt>
      <trkpt lat="46.90225" lon="5.64032">
        <ele>257</ele>
        <time>2020-03-04T10:21:14Z</time>
      </trkpt>
      <trkpt lat="46.90222" lon="5.64036">
        <ele>257</ele>
        <time>2020-03-04T10:21:15Z</time>
      </trkpt>
      <trkpt lat="46.90218" lon="5.64039">
        <ele>257</ele>
        <time>2020-03-04T10:21:16Z</time>
      </trkpt>
      <trkpt lat="46.90214" lon="5.64043">
        <ele>257</ele>
        <time>2020-03-04T10:21:17Z</time>
      </trkpt>
      <trkpt lat="46.9021" lon="5.64046">
        <ele>257</ele>
        <time>2020-03-04T10:21:18Z</time>
      </trkpt>
      <trkpt lat="46.90206" lon="5.6405">
        <ele>257</ele>
        <time>2020-03-04T10:21:19Z</time>
      </trkpt>
      <trkpt lat="46.90202" lon="5.64054">
        <ele>257</ele>
        <time>2020-03-04T10:21:20Z</time>
      </trkpt>
      <trkpt lat="46.90198" lon="5.64058">
        <ele>257</ele>
        <time>2020-03-04T10:21:21Z</time>
      </trkpt>
      <trkpt lat="46.90194" lon="5.64062">
        <ele>257</ele>
        <time>2020-03-04T10:21:22Z</time>
      </trkpt>
      <trkpt lat="46.9019" lon="5.64067">
        <ele>257</ele>
        <time>2020-03-04T10:21:23Z</time>
      </trkpt>
      <trkpt lat="46.90185" lon="5.64071">
        <ele>257</ele>
        <time>2020-03-04T10:21:24Z</time>
      </trkpt>
      <trkpt lat="46.90181" lon="5.64075">
        <ele>257</ele>
        <time>2020-03-04T10:21:25Z</time>
      </trkpt>
      <trkpt lat="46.90176" lon="5.64079">
        <ele>257</ele>
        <time>2020-03-04T10:21:26Z</time>
      </trkpt>
      <trkpt lat="46.90172" lon="5.64083">
        <ele>257</ele>
        <time>2020-03-04T10:21:27Z</time>
      </trkpt>
      <trkpt lat="46.90168" lon="5.64087">
        <ele>257</ele>
        <time>2020-03-04T10:21:28Z</time>
      </trkpt>
      <trkpt lat="46.90163" lon="5.64092">
        <ele>257</ele>
        <time>2020-03-04T10:21:29Z</time>
      </trkpt>
      <trkpt lat="46.90158" lon="5.64096">
        <ele>257</ele>
        <time>2020-03-04T10:21:30Z</time>
      </trkpt>
      <trkpt lat="46.90154" lon="5.641">
        <ele>257</ele>
        <time>2020-03-04T10:21:31Z</time>
      </trkpt>
      <trkpt lat="46.9015" lon="5.64105">
        <ele>257</ele>
        <time>2020-03-04T10:21:32Z</time>
      </trkpt>
      <trkpt lat="46.90145" lon="5.64109">
        <ele>257</ele>
        <time>2020-03-04T10:21:33Z</time>
      </trkpt>
      <trkpt lat="46.9014" lon="5.64114">
        <ele>257</ele>
        <time>2020-03-04T10:21:34Z</time>
      </trkpt>
      <trkpt lat="46.90136" lon="5.64118">
        <ele>257</ele>
        <time>2020-03-04T10:21:35Z</time>
      </trkpt>
      <trkpt lat="46.90131" lon="5.64123">
        <ele>257</ele>
        <time>2020-03-04T10:21:36Z</time>
      </trkpt>
      <trkpt lat="46.90127" lon="5.64127">
        <ele>257</ele>
        <time>2020-03-04T10:21:37Z</time>
      </trkpt>
      <trkpt lat="46.90122" lon="5.64132">
        <ele>257</ele>
        <time>2020-03-04T10:21:38Z</time>
      </trkpt>
      <trkpt lat="46.90118" lon="5.64136">
        <ele>257</ele>
        <time>2020-03-04T10:21:39Z</time>
      </trkpt>
      <trkpt lat="46.90114" lon="5.6414">
        <ele>257</ele>
        <time>2020-03-04T10:21:40Z</time>
      </trkpt>
      <trkpt lat="46.90109" lon="5.64144">
        <ele>257.2</ele>
        <time>2020-03-04T10:21:41Z</time>
      </trkpt>
      <trkpt lat="46.90105" lon="5.64148">
        <ele>257.2</ele>
        <time>2020-03-04T10:21:42Z</time>
      </trkpt>
      <trkpt lat="46.90101" lon="5.64152">
        <ele>257.4</ele>
        <time>2020-03-04T10:21:43Z</time>
      </trkpt>
      <trkpt lat="46.90097" lon="5.64156">
        <ele>257.4</ele>
        <time>2020-03-04T10:21:44Z</time>
      </trkpt>
      <trkpt lat="46.90093" lon="5.6416">
        <ele>257.6</ele>
        <time>2020-03-04T10:21:45Z</time>
      </trkpt>
      <trkpt lat="46.90089" lon="5.64164">
        <ele>257.6</ele>
        <time>2020-03-04T10:21:46Z</time>
      </trkpt>
      <trkpt lat="46.90085" lon="5.64167">
        <ele>258</ele>
        <time>2020-03-04T10:21:47Z</time>
      </trkpt>
      <trkpt lat="46.90081" lon="5.64171">
        <ele>258</ele>
        <time>2020-03-04T10:21:48Z</time>
      </trkpt>
      <trkpt lat="46.90078" lon="5.64174">
        <ele>258.4</ele>
        <time>2020-03-04T10:21:49Z</time>
      </trkpt>
      <trkpt lat="46.90074" lon="5.64178">
        <ele>258.4</ele>
        <time>2020-03-04T10:21:50Z</time>
      </trkpt>
      <trkpt lat="46.90071" lon="5.64181">
        <ele>258.6</ele>
        <time>2020-03-04T10:21:51Z</time>
      </trkpt>
      <trkpt lat="46.90067" lon="5.64185">
        <ele>258.6</ele>
        <time>2020-03-04T10:21:52Z</time>
      </trkpt>
      <trkpt lat="46.90064" lon="5.64188">
        <ele>258.8</ele>
        <time>2020-03-04T10:21:53Z</time>
      </trkpt>
      <trkpt lat="46.9006" lon="5.64191">
        <ele>258.8</ele>
        <time>2020-03-04T10:21:54Z</time>
      </trkpt>
      <trkpt lat="46.90057" lon="5.64194">
        <ele>258.8</ele>
        <time>2020-03-04T10:21:55Z</time>
      </trkpt>
      <trkpt lat="46.90054" lon="5.64197">
        <ele>259</ele>
        <time>2020-03-04T10:21:56Z</time>
      </trkpt>
      <trkpt lat="46.9005" lon="5.642">
        <ele>259</ele>
        <time>2020-03-04T10:21:57Z</time>
      </trkpt>
      <trkpt lat="46.90047" lon="5.64203">
        <ele>259.2</ele>
        <time>2020-03-04T10:21:58Z</time>
      </trkpt>
      <trkpt lat="46.90044" lon="5.64207">
        <ele>259.6</ele>
        <time>2020-03-04T10:21:59Z</time>
      </trkpt>
      <trkpt lat="46.90041" lon="5.6421">
        <ele>259.6</ele>
        <time>2020-03-04T10:22:00Z</time>
      </trkpt>
      <trkpt lat="46.90037" lon="5.64213">
        <ele>259.8</ele>
        <time>2020-03-04T10:22:01Z</time>
      </trkpt>
      <trkpt lat="46.90034" lon="5.64216">
        <ele>259.8</ele>
        <time>2020-03-04T10:22:02Z</time>
      </trkpt>
      <trkpt lat="46.90031" lon="5.64219">
        <ele>259.8</ele>
        <time>2020-03-04T10:22:03Z</time>
      </trkpt>
      <trkpt lat="46.90028" lon="5.64222">
        <ele>259.8</ele>
        <time>2020-03-04T10:22:04Z</time>
      </trkpt>
      <trkpt lat="46.90025" lon="5.64225">
        <ele>260.2</ele>
        <time>2020-03-04T10:22:05Z</time>
      </trkpt>
      <trkpt lat="46.90022" lon="5.64229">
        <ele>260.2</ele>
        <time>2020-03-04T10:22:06Z</time>
      </trkpt>
      <trkpt lat="46.90019" lon="5.64232">
        <ele>260.2</ele>
        <time>2020-03-04T10:22:07Z</time>
      </trkpt>
      <trkpt lat="46.90016" lon="5.64235">
        <ele>260.4</ele>
        <time>2020-03-04T10:22:08Z</time>
      </trkpt>
      <trkpt lat="46.90013" lon="5.64237">
        <ele>260.4</ele>
        <time>2020-03-04T10:22:09Z</time>
      </trkpt>
      <trkpt lat="46.9001" lon="5.6424">
        <ele>260.6</ele>
        <time>2020-03-04T10:22:10Z</time>
      </trkpt>
      <trkpt lat="46.90007" lon="5.64243">
        <ele>260.6</ele>
        <time>2020-03-04T10:22:11Z</time>
      </trkpt>
      <trkpt lat="46.90004" lon="5.64246">
        <ele>261</ele>
        <time>2020-03-04T10:22:12Z</time>
      </trkpt>
      <trkpt lat="46.90001" lon="5.64249">
        <ele>261</ele>
        <time>2020-03-04T10:22:13Z</time>
      </trkpt>
      <trkpt lat="46.89998" lon="5.64251">
        <ele>261.2</ele>
        <time>2020-03-04T10:22:14Z</time>
      </trkpt>
      <trkpt lat="46.89995" lon="5.64254">
        <ele>261.2</ele>
        <time>2020-03-04T10:22:15Z</time>
      </trkpt>
      <trkpt lat="46.89993" lon="5.64256">
        <ele>261.4</ele>
        <time>2020-03-04T10:22:16Z</time>
      </trkpt>
      <trkpt lat="46.8999" lon="5.64259">
        <ele>261.4</ele>
        <time>2020-03-04T10:22:17Z</time>
      </trkpt>
      <trkpt lat="46.89987" lon="5.64262">
        <ele>261.8</ele>
        <time>2020-03-04T10:22:18Z</time>
      </trkpt>
      <trkpt lat="46.89984" lon="5.64264">
        <ele>261.8</ele>
        <time>2020-03-04T10:22:19Z</time>
      </trkpt>
      <trkpt lat="46.89981" lon="5.64267">
        <ele>262.2</ele>
        <time>2020-03-04T10:22:20Z</time>
      </trkpt>
      <trkpt lat="46.89979" lon="5.64269">
        <ele>262.2</ele>
        <time>2020-03-04T10:22:21Z</time>
      </trkpt>
      <trkpt lat="46.89976" lon="5.64271">
        <ele>262.4</ele>
        <time>2020-03-04T10:22:22Z</time>
      </trkpt>
      <trkpt lat="46.89974" lon="5.64274">
        <ele>262.4</ele>
        <time>2020-03-04T10:22:23Z</time>
      </trkpt>
      <trkpt lat="46.89971" lon="5.64277">
        <ele>262.6</ele>
        <time>2020-03-04T10:22:24Z</time>
      </trkpt>
      <trkpt lat="46.89968" lon="5.64279">
        <ele>262.6</ele>
        <time>2020-03-04T10:22:25Z</time>
      </trkpt>
      <trkpt lat="46.89965" lon="5.64281">
        <ele>263</ele>
        <time>2020-03-04T10:22:26Z</time>
      </trkpt>
      <trkpt lat="46.89963" lon="5.64284">
        <ele>263</ele>
        <time>2020-03-04T10:22:27Z</time>
      </trkpt>
      <trkpt lat="46.8996" lon="5.64286">
        <ele>263.2</ele>
        <time>2020-03-04T10:22:28Z</time>
      </trkpt>
      <trkpt lat="46.89958" lon="5.64289">
        <ele>263.2</ele>
        <time>2020-03-04T10:22:29Z</time>
      </trkpt>
      <trkpt lat="46.89955" lon="5.64291">
        <ele>263.4</ele>
        <time>2020-03-04T10:22:30Z</time>
      </trkpt>
      <trkpt lat="46.89953" lon="5.64294">
        <ele>263.6</ele>
        <time>2020-03-04T10:22:31Z</time>
      </trkpt>
      <trkpt lat="46.8995" lon="5.64296">
        <ele>263.6</ele>
        <time>2020-03-04T10:22:32Z</time>
      </trkpt>
      <trkpt lat="46.89947" lon="5.64298">
        <ele>264</ele>
        <time>2020-03-04T10:22:33Z</time>
      </trkpt>
      <trkpt lat="46.89945" lon="5.64301">
        <ele>264</ele>
        <time>2020-03-04T10:22:34Z</time>
      </trkpt>
      <trkpt lat="46.89942" lon="5.64304">
        <ele>264.2</ele>
        <time>2020-03-04T10:22:35Z</time>
      </trkpt>
      <trkpt lat="46.8994" lon="5.64306">
        <ele>264.2</ele>
        <time>2020-03-04T10:22:36Z</time>
      </trkpt>
      <trkpt lat="46.89937" lon="5.64309">
        <ele>264.4</ele>
        <time>2020-03-04T10:22:37Z</time>
      </trkpt>
      <trkpt lat="46.89934" lon="5.64311">
        <ele>264.4</ele>
        <time>2020-03-04T10:22:38Z</time>
      </trkpt>
      <trkpt lat="46.89932" lon="5.64313">
        <ele>264.8</ele>
        <time>2020-03-04T10:22:39Z</time>
      </trkpt>
      <trkpt lat="46.89929" lon="5.64316">
        <ele>264.8</ele>
        <time>2020-03-04T10:22:40Z</time>
      </trkpt>
      <trkpt lat="46.89926" lon="5.64319">
        <ele>265</ele>
        <time>2020-03-04T10:22:41Z</time>
      </trkpt>
      <trkpt lat="46.89923" lon="5.64321">
        <ele>265</ele>
        <time>2020-03-04T10:22:42Z</time>
      </trkpt>
      <trkpt lat="46.89921" lon="5.64324">
        <ele>265.2</ele>
        <time>2020-03-04T10:22:43Z</time>
      </trkpt>
      <trkpt lat="46.89918" lon="5.64327">
        <ele>265.2</ele>
        <time>2020-03-04T10:22:44Z</time>
      </trkpt>
      <trkpt lat="46.89916" lon="5.64329">
        <ele>265.6</ele>
        <time>2020-03-04T10:22:45Z</time>
      </trkpt>
      <trkpt lat="46.89913" lon="5.64331">
        <ele>265.6</ele>
        <time>2020-03-04T10:22:46Z</time>
      </trkpt>
      <trkpt lat="46.89911" lon="5.64334">
        <ele>265.8</ele>
        <time>2020-03-04T10:22:47Z</time>
      </trkpt>
      <trkpt lat="46.89909" lon="5.64336">
        <ele>265.8</ele>
        <time>2020-03-04T10:22:48Z</time>
      </trkpt>
      <trkpt lat="46.89906" lon="5.64339">
        <ele>266</ele>
        <time>2020-03-04T10:22:49Z</time>
      </trkpt>
      <trkpt lat="46.89904" lon="5.64341">
        <ele>266</ele>
        <time>2020-03-04T10:22:50Z</time>
      </trkpt>
      <trkpt lat="46.89901" lon="5.64343">
        <ele>266.2</ele>
        <time>2020-03-04T10:22:51Z</time>
      </trkpt>
      <trkpt lat="46.89899" lon="5.64346">
        <ele>266.2</ele>
        <time>2020-03-04T10:22:52Z</time>
      </trkpt>
      <trkpt lat="46.89896" lon="5.64348">
        <ele>266.4</ele>
        <time>2020-03-04T10:22:53Z</time>
      </trkpt>
      <trkpt lat="46.89894" lon="5.64351">
        <ele>266.4</ele>
        <time>2020-03-04T10:22:54Z</time>
      </trkpt>
      <trkpt lat="46.89891" lon="5.64354">
        <ele>267</ele>
        <time>2020-03-04T10:22:55Z</time>
      </trkpt>
      <trkpt lat="46.89889" lon="5.64356">
        <ele>267</ele>
        <time>2020-03-04T10:22:56Z</time>
      </trkpt>
      <trkpt lat="46.89886" lon="5.64359">
        <ele>267.4</ele>
        <time>2020-03-04T10:22:57Z</time>
      </trkpt>
      <trkpt lat="46.89884" lon="5.64361">
        <ele>267.6</ele>
        <time>2020-03-04T10:22:58Z</time>
      </trkpt>
      <trkpt lat="46.89881" lon="5.64363">
        <ele>267.6</ele>
        <time>2020-03-04T10:22:59Z</time>
      </trkpt>
      <trkpt lat="46.89879" lon="5.64365">
        <ele>267.8</ele>
        <time>2020-03-04T10:23:00Z</time>
      </trkpt>
      <trkpt lat="46.89876" lon="5.64368">
        <ele>267.8</ele>
        <time>2020-03-04T10:23:01Z</time>
      </trkpt>
      <trkpt lat="46.89874" lon="5.6437">
        <ele>268.2</ele>
        <time>2020-03-04T10:23:02Z</time>
      </trkpt>
      <trkpt lat="46.89872" lon="5.64373">
        <ele>268.2</ele>
        <time>2020-03-04T10:23:03Z</time>
      </trkpt>
      <trkpt lat="46.89869" lon="5.64375">
        <ele>268.6</ele>
        <time>2020-03-04T10:23:04Z</time>
      </trkpt>
      <trkpt lat="46.89867" lon="5.64377">
        <ele>268.6</ele>
        <time>2020-03-04T10:23:05Z</time>
      </trkpt>
      <trkpt lat="46.89865" lon="5.64379">
        <ele>268.8</ele>
        <time>2020-03-04T10:23:06Z</time>
      </trkpt>
      <trkpt lat="46.89862" lon="5.64381">
        <ele>268.8</ele>
        <time>2020-03-04T10:23:07Z</time>
      </trkpt>
      <trkpt lat="46.8986" lon="5.64383">
        <ele>269.2</ele>
        <time>2020-03-04T10:23:08Z</time>
      </trkpt>
      <trkpt lat="46.89857" lon="5.64386">
        <ele>269.4</ele>
        <time>2020-03-04T10:23:09Z</time>
      </trkpt>
      <trkpt lat="46.89855" lon="5.64388">
        <ele>269.6</ele>
        <time>2020-03-04T10:23:10Z</time>
      </trkpt>
      <trkpt lat="46.89852" lon="5.6439">
        <ele>269.6</ele>
        <time>2020-03-04T10:23:11Z</time>
      </trkpt>
      <trkpt lat="46.8985" lon="5.64393">
        <ele>270.2</ele>
        <time>2020-03-04T10:23:12Z</time>
      </trkpt>
      <trkpt lat="46.89847" lon="5.64395">
        <ele>270.2</ele>
        <time>2020-03-04T10:23:13Z</time>
      </trkpt>
      <trkpt lat="46.89845" lon="5.64397">
        <ele>270.2</ele>
        <time>2020-03-04T10:23:14Z</time>
      </trkpt>
      <trkpt lat="46.89842" lon="5.64399">
        <ele>270.4</ele>
        <time>2020-03-04T10:23:15Z</time>
      </trkpt>
      <trkpt lat="46.8984" lon="5.64401">
        <ele>270.4</ele>
        <time>2020-03-04T10:23:16Z</time>
      </trkpt>
      <trkpt lat="46.89837" lon="5.64403">
        <ele>270.4</ele>
        <time>2020-03-04T10:23:17Z</time>
      </trkpt>
      <trkpt lat="46.89835" lon="5.64404">
        <ele>271</ele>
        <time>2020-03-04T10:23:18Z</time>
      </trkpt>
      <trkpt lat="46.89833" lon="5.64406">
        <ele>271</ele>
        <time>2020-03-04T10:23:19Z</time>
      </trkpt>
      <trkpt lat="46.89831" lon="5.64408">
        <ele>271</ele>
        <time>2020-03-04T10:23:20Z</time>
      </trkpt>
      <trkpt lat="46.8983" lon="5.64411">
        <ele>271.2</ele>
        <time>2020-03-04T10:23:21Z</time>
      </trkpt>
      <trkpt lat="46.89827" lon="5.64414">
        <ele>271.2</ele>
        <time>2020-03-04T10:23:22Z</time>
      </trkpt>
      <trkpt lat="46.89824" lon="5.64416">
        <ele>271.8</ele>
        <time>2020-03-04T10:23:23Z</time>
      </trkpt>
      <trkpt lat="46.89822" lon="5.64419">
        <ele>271.8</ele>
        <time>2020-03-04T10:23:24Z</time>
      </trkpt>
      <trkpt lat="46.89819" lon="5.64421">
        <ele>271.8</ele>
        <time>2020-03-04T10:23:25Z</time>
      </trkpt>
      <trkpt lat="46.89817" lon="5.64424">
        <ele>271.8</ele>
        <time>2020-03-04T10:23:26Z</time>
      </trkpt>
      <trkpt lat="46.89814" lon="5.64427">
        <ele>272</ele>
        <time>2020-03-04T10:23:27Z</time>
      </trkpt>
      <trkpt lat="46.89812" lon="5.64429">
        <ele>272</ele>
        <time>2020-03-04T10:23:28Z</time>
      </trkpt>
      <trkpt lat="46.8981" lon="5.64431">
        <ele>272.2</ele>
        <time>2020-03-04T10:23:29Z</time>
      </trkpt>
      <trkpt lat="46.89808" lon="5.64434">
        <ele>272.2</ele>
        <time>2020-03-04T10:23:30Z</time>
      </trkpt>
      <trkpt lat="46.89806" lon="5.64436">
        <ele>272.6</ele>
        <time>2020-03-04T10:23:31Z</time>
      </trkpt>
      <trkpt lat="46.89804" lon="5.64438">
        <ele>272.6</ele>
        <time>2020-03-04T10:23:32Z</time>
      </trkpt>
      <trkpt lat="46.89802" lon="5.6444">
        <ele>272.8</ele>
        <time>2020-03-04T10:23:33Z</time>
      </trkpt>
      <trkpt lat="46.898" lon="5.64442">
        <ele>272.8</ele>
        <time>2020-03-04T10:23:34Z</time>
      </trkpt>
      <trkpt lat="46.89798" lon="5.64445">
        <ele>272.8</ele>
        <time>2020-03-04T10:23:35Z</time>
      </trkpt>
      <trkpt lat="46.89796" lon="5.64447">
        <ele>273.2</ele>
        <time>2020-03-04T10:23:36Z</time>
      </trkpt>
      <trkpt lat="46.89793" lon="5.6445">
        <ele>273.2</ele>
        <time>2020-03-04T10:23:37Z</time>
      </trkpt>
      <trkpt lat="46.89791" lon="5.64452">
        <ele>273.2</ele>
        <time>2020-03-04T10:23:38Z</time>
      </trkpt>
      <trkpt lat="46.89789" lon="5.64455">
        <ele>273.4</ele>
        <time>2020-03-04T10:23:39Z</time>
      </trkpt>
      <trkpt lat="46.89787" lon="5.64457">
        <ele>273.4</ele>
        <time>2020-03-04T10:23:40Z</time>
      </trkpt>
      <trkpt lat="46.89785" lon="5.64459">
        <ele>273.6</ele>
        <time>2020-03-04T10:23:41Z</time>
      </trkpt>
      <trkpt lat="46.89782" lon="5.64462">
        <ele>273.6</ele>
        <time>2020-03-04T10:23:42Z</time>
      </trkpt>
      <trkpt lat="46.8978" lon="5.64464">
        <ele>273.6</ele>
        <time>2020-03-04T10:23:43Z</time>
      </trkpt>
      <trkpt lat="46.89778" lon="5.64467">
        <ele>274</ele>
        <time>2020-03-04T10:23:44Z</time>
      </trkpt>
      <trkpt lat="46.89776" lon="5.64469">
        <ele>274</ele>
        <time>2020-03-04T10:23:45Z</time>
      </trkpt>
      <trkpt lat="46.89774" lon="5.64471">
        <ele>274</ele>
        <time>2020-03-04T10:23:46Z</time>
      </trkpt>
      <trkpt lat="46.89772" lon="5.64473">
        <ele>274.2</ele>
        <time>2020-03-04T10:23:47Z</time>
      </trkpt>
      <trkpt lat="46.8977" lon="5.64475">
        <ele>274.2</ele>
        <time>2020-03-04T10:23:48Z</time>
      </trkpt>
      <trkpt lat="46.89768" lon="5.64477">
        <ele>274.2</ele>
        <time>2020-03-04T10:23:49Z</time>
      </trkpt>
      <trkpt lat="46.89767" lon="5.64479">
        <ele>274.2</ele>
        <time>2020-03-04T10:23:50Z</time>
      </trkpt>
      <trkpt lat="46.89765" lon="5.64482">
        <ele>274.2</ele>
        <time>2020-03-04T10:23:51Z</time>
      </trkpt>
      <trkpt lat="46.89763" lon="5.64484">
        <ele>274.2</ele>
        <time>2020-03-04T10:23:52Z</time>
      </trkpt>
      <trkpt lat="46.8976" lon="5.64486">
        <ele>274.6</ele>
        <time>2020-03-04T10:23:53Z</time>
      </trkpt>
      <trkpt lat="46.89758" lon="5.64489">
        <ele>274.6</ele>
        <time>2020-03-04T10:23:54Z</time>
      </trkpt>
      <trkpt lat="46.89756" lon="5.64491">
        <ele>274.6</ele>
        <time>2020-03-04T10:23:55Z</time>
      </trkpt>
      <trkpt lat="46.89753" lon="5.64493">
        <ele>274.8</ele>
        <time>2020-03-04T10:23:56Z</time>
      </trkpt>
      <trkpt lat="46.89751" lon="5.64495">
        <ele>274.8</ele>
        <time>2020-03-04T10:23:57Z</time>
      </trkpt>
      <trkpt lat="46.89748" lon="5.64496">
        <ele>274.8</ele>
        <time>2020-03-04T10:23:58Z</time>
      </trkpt>
      <trkpt lat="46.89746" lon="5.64496">
        <ele>275</ele>
        <time>2020-03-04T10:23:59Z</time>
      </trkpt>
      <trkpt lat="46.89743" lon="5.64495">
        <ele>275</ele>
        <time>2020-03-04T10:24:00Z</time>
      </trkpt>
      <trkpt lat="46.8974" lon="5.64493">
        <ele>275</ele>
        <time>2020-03-04T10:24:01Z</time>
      </trkpt>
      <trkpt lat="46.89736" lon="5.6449">
        <ele>275</ele>
        <time>2020-03-04T10:24:02Z</time>
      </trkpt>
      <trkpt lat="46.89733" lon="5.64488">
        <ele>274.8</ele>
        <time>2020-03-04T10:24:03Z</time>
      </trkpt>
      <trkpt lat="46.89728" lon="5.64484">
        <ele>274.6</ele>
        <time>2020-03-04T10:24:04Z</time>
      </trkpt>
      <trkpt lat="46.89724" lon="5.6448">
        <ele>274.4</ele>
        <time>2020-03-04T10:24:05Z</time>
      </trkpt>
      <trkpt lat="46.89719" lon="5.64477">
        <ele>274.2</ele>
        <time>2020-03-04T10:24:06Z</time>
      </trkpt>
      <trkpt lat="46.89713" lon="5.64473">
        <ele>274</ele>
        <time>2020-03-04T10:24:07Z</time>
      </trkpt>
      <trkpt lat="46.89707" lon="5.64469">
        <ele>273.6</ele>
        <time>2020-03-04T10:24:08Z</time>
      </trkpt>
      <trkpt lat="46.89702" lon="5.64467">
        <ele>273.4</ele>
        <time>2020-03-04T10:24:09Z</time>
      </trkpt>
      <trkpt lat="46.89696" lon="5.64465">
        <ele>273.4</ele>
        <time>2020-03-04T10:24:10Z</time>
      </trkpt>
      <trkpt lat="46.8969" lon="5.64464">
        <ele>273.2</ele>
        <time>2020-03-04T10:24:11Z</time>
      </trkpt>
      <trkpt lat="46.89685" lon="5.64463">
        <ele>273.2</ele>
        <time>2020-03-04T10:24:12Z</time>
      </trkpt>
      <trkpt lat="46.89679" lon="5.64463">
        <ele>273.2</ele>
        <time>2020-03-04T10:24:13Z</time>
      </trkpt>
      <trkpt lat="46.89674" lon="5.64464">
        <ele>272.8</ele>
        <time>2020-03-04T10:24:14Z</time>
      </trkpt>
      <trkpt lat="46.89669" lon="5.64464">
        <ele>272.8</ele>
        <time>2020-03-04T10:24:15Z</time>
      </trkpt>
      <trkpt lat="46.89664" lon="5.64465">
        <ele>272.8</ele>
        <time>2020-03-04T10:24:16Z</time>
      </trkpt>
      <trkpt lat="46.8966" lon="5.64466">
        <ele>272.8</ele>
        <time>2020-03-04T10:24:17Z</time>
      </trkpt>
      <trkpt lat="46.89656" lon="5.64469">
        <ele>272.8</ele>
        <time>2020-03-04T10:24:18Z</time>
      </trkpt>
      <trkpt lat="46.89654" lon="5.64472">
        <ele>272.8</ele>
        <time>2020-03-04T10:24:19Z</time>
      </trkpt>
      <trkpt lat="46.89652" lon="5.64475">
        <ele>273</ele>
        <time>2020-03-04T10:24:20Z</time>
      </trkpt>
      <trkpt lat="46.8965" lon="5.64478">
        <ele>273</ele>
        <time>2020-03-04T10:24:21Z</time>
      </trkpt>
      <trkpt lat="46.89649" lon="5.64481">
        <ele>273.4</ele>
        <time>2020-03-04T10:24:22Z</time>
      </trkpt>
      <trkpt lat="46.89648" lon="5.64484">
        <ele>273.4</ele>
        <time>2020-03-04T10:24:23Z</time>
      </trkpt>
      <trkpt lat="46.89646" lon="5.64486">
        <ele>273.6</ele>
        <time>2020-03-04T10:24:24Z</time>
      </trkpt>
      <trkpt lat="46.89645" lon="5.64489">
        <ele>273.6</ele>
        <time>2020-03-04T10:24:25Z</time>
      </trkpt>
      <trkpt lat="46.89644" lon="5.64491">
        <ele>273.6</ele>
        <time>2020-03-04T10:24:26Z</time>
      </trkpt>
      <trkpt lat="46.89642" lon="5.64493">
        <ele>273.8</ele>
        <time>2020-03-04T10:24:27Z</time>
      </trkpt>
      <trkpt lat="46.89641" lon="5.64496">
        <ele>273.8</ele>
        <time>2020-03-04T10:24:28Z</time>
      </trkpt>
      <trkpt lat="46.8964" lon="5.64498">
        <ele>274.2</ele>
        <time>2020-03-04T10:24:29Z</time>
      </trkpt>
      <trkpt lat="46.8964" lon="5.64501">
        <ele>274.2</ele>
        <time>2020-03-04T10:24:30Z</time>
      </trkpt>
      <trkpt lat="46.89639" lon="5.64503">
        <ele>274.2</ele>
        <time>2020-03-04T10:24:31Z</time>
      </trkpt>
      <trkpt lat="46.89637" lon="5.64504">
        <ele>274.4</ele>
        <time>2020-03-04T10:24:32Z</time>
      </trkpt>
      <trkpt lat="46.89636" lon="5.64507">
        <ele>274.4</ele>
        <time>2020-03-04T10:24:33Z</time>
      </trkpt>
      <trkpt lat="46.89635" lon="5.64509">
        <ele>274.4</ele>
        <time>2020-03-04T10:24:34Z</time>
      </trkpt>
      <trkpt lat="46.89635" lon="5.64511">
        <ele>274.6</ele>
        <time>2020-03-04T10:24:35Z</time>
      </trkpt>
      <trkpt lat="46.89634" lon="5.64513">
        <ele>274.6</ele>
        <time>2020-03-04T10:24:36Z</time>
      </trkpt>
      <trkpt lat="46.89634" lon="5.64516">
        <ele>274.6</ele>
        <time>2020-03-04T10:24:37Z</time>
      </trkpt>
      <trkpt lat="46.89633" lon="5.64518">
        <ele>274.8</ele>
        <time>2020-03-04T10:24:38Z</time>
      </trkpt>
      <trkpt lat="46.89632" lon="5.6452">
        <ele>274.8</ele>
        <time>2020-03-04T10:24:39Z</time>
      </trkpt>
      <trkpt lat="46.89631" lon="5.64522">
        <ele>274.8</ele>
        <time>2020-03-04T10:24:40Z</time>
      </trkpt>
      <trkpt lat="46.8963" lon="5.64523">
        <ele>274.8</ele>
        <time>2020-03-04T10:24:41Z</time>
      </trkpt>
      <trkpt lat="46.89629" lon="5.64524">
        <ele>274.8</ele>
        <time>2020-03-04T10:24:42Z</time>
      </trkpt>
      <trkpt lat="46.89629" lon="5.64524">
        <ele>274.8</ele>
        <time>2020-03-04T10:24:43Z</time>
      </trkpt>
      <trkpt lat="46.89628" lon="5.64531">
        <ele>275.4</ele>
        <time>2020-03-04T10:25:51Z</time>
      </trkpt>
      <trkpt lat="46.89627" lon="5.64532">
        <ele>275.4</ele>
        <time>2020-03-04T10:25:52Z</time>
      </trkpt>
      <trkpt lat="46.89627" lon="5.64534">
        <ele>275.4</ele>
        <time>2020-03-04T10:25:53Z</time>
      </trkpt>
      <trkpt lat="46.89626" lon="5.64536">
        <ele>275.4</ele>
        <time>2020-03-04T10:25:54Z</time>
      </trkpt>
      <trkpt lat="46.89626" lon="5.64539">
        <ele>275.4</ele>
        <time>2020-03-04T10:25:55Z</time>
      </trkpt>
      <trkpt lat="46.89625" lon="5.64541">
        <ele>275.4</ele>
        <time>2020-03-04T10:25:56Z</time>
      </trkpt>
      <trkpt lat="46.89625" lon="5.64543">
        <ele>275.4</ele>
        <time>2020-03-04T10:25:57Z</time>
      </trkpt>
      <trkpt lat="46.89625" lon="5.64546">
        <ele>275.4</ele>
        <time>2020-03-04T10:25:58Z</time>
      </trkpt>
      <trkpt lat="46.89624" lon="5.64548">
        <ele>275.4</ele>
        <time>2020-03-04T10:25:59Z</time>
      </trkpt>
      <trkpt lat="46.89623" lon="5.64551">
        <ele>275.4</ele>
        <time>2020-03-04T10:26:00Z</time>
      </trkpt>
      <trkpt lat="46.89622" lon="5.64553">
        <ele>275.4</ele>
        <time>2020-03-04T10:26:01Z</time>
      </trkpt>
      <trkpt lat="46.89621" lon="5.64555">
        <ele>275.4</ele>
        <time>2020-03-04T10:26:02Z</time>
      </trkpt>
      <trkpt lat="46.8962" lon="5.64558">
        <ele>275.4</ele>
        <time>2020-03-04T10:26:03Z</time>
      </trkpt>
      <trkpt lat="46.89619" lon="5.6456">
        <ele>275.4</ele>
        <time>2020-03-04T10:26:04Z</time>
      </trkpt>
      <trkpt lat="46.89618" lon="5.64563">
        <ele>275.4</ele>
        <time>2020-03-04T10:26:05Z</time>
      </trkpt>
      <trkpt lat="46.89618" lon="5.64566">
        <ele>275.4</ele>
        <time>2020-03-04T10:26:06Z</time>
      </trkpt>
      <trkpt lat="46.89619" lon="5.64568">
        <ele>275.4</ele>
        <time>2020-03-04T10:26:07Z</time>
      </trkpt>
      <trkpt lat="46.89621" lon="5.64568">
        <ele>275.4</ele>
        <time>2020-03-04T10:26:08Z</time>
      </trkpt>
      <trkpt lat="46.89623" lon="5.64567">
        <ele>275.4</ele>
        <time>2020-03-04T10:26:09Z</time>
      </trkpt>
      <trkpt lat="46.89624" lon="5.64565">
        <ele>275.4</ele>
        <time>2020-03-04T10:26:10Z</time>
      </trkpt>
      <trkpt lat="46.89624" lon="5.64563">
        <ele>275.4</ele>
        <time>2020-03-04T10:26:11Z</time>
      </trkpt>
      <trkpt lat="46.89625" lon="5.64559">
        <ele>275.4</ele>
        <time>2020-03-04T10:26:12Z</time>
      </trkpt>
      <trkpt lat="46.89625" lon="5.64556">
        <ele>275.4</ele>
        <time>2020-03-04T10:26:13Z</time>
      </trkpt>
      <trkpt lat="46.89625" lon="5.64552">
        <ele>275.4</ele>
        <time>2020-03-04T10:26:14Z</time>
      </trkpt>
      <trkpt lat="46.89625" lon="5.64548">
        <ele>275.4</ele>
        <time>2020-03-04T10:26:15Z</time>
      </trkpt>
      <trkpt lat="46.89626" lon="5.64544">
        <ele>275.4</ele>
        <time>2020-03-04T10:26:16Z</time>
      </trkpt>
      <trkpt lat="46.89627" lon="5.64541">
        <ele>275.4</ele>
        <time>2020-03-04T10:26:17Z</time>
      </trkpt>
      <trkpt lat="46.89628" lon="5.64537">
        <ele>275.4</ele>
        <time>2020-03-04T10:26:18Z</time>
      </trkpt>
      <trkpt lat="46.89629" lon="5.64534">
        <ele>275.4</ele>
        <time>2020-03-04T10:26:19Z</time>
      </trkpt>
      <trkpt lat="46.89629" lon="5.6453">
        <ele>275.4</ele>
        <time>2020-03-04T10:26:20Z</time>
      </trkpt>
      <trkpt lat="46.8963" lon="5.64526">
        <ele>275.4</ele>
        <time>2020-03-04T10:26:21Z</time>
      </trkpt>
      <trkpt lat="46.89631" lon="5.64523">
        <ele>275.4</ele>
        <time>2020-03-04T10:26:22Z</time>
      </trkpt>
      <trkpt lat="46.89632" lon="5.6452">
        <ele>275.4</ele>
        <time>2020-03-04T10:26:23Z</time>
      </trkpt>
      <trkpt lat="46.89632" lon="5.64517">
        <ele>275.4</ele>
        <time>2020-03-04T10:26:24Z</time>
      </trkpt>
      <trkpt lat="46.89633" lon="5.64514">
        <ele>275.4</ele>
        <time>2020-03-04T10:26:25Z</time>
      </trkpt>
      <trkpt lat="46.89634" lon="5.6451">
        <ele>275.4</ele>
        <time>2020-03-04T10:26:26Z</time>
      </trkpt>
      <trkpt lat="46.89635" lon="5.64507">
        <ele>275.4</ele>
        <time>2020-03-04T10:26:27Z</time>
      </trkpt>
      <trkpt lat="46.89636" lon="5.64503">
        <ele>275.4</ele>
        <time>2020-03-04T10:26:28Z</time>
      </trkpt>
      <trkpt lat="46.89638" lon="5.645">
        <ele>275.4</ele>
        <time>2020-03-04T10:26:29Z</time>
      </trkpt>
      <trkpt lat="46.8964" lon="5.64496">
        <ele>275.2</ele>
        <time>2020-03-04T10:26:30Z</time>
      </trkpt>
      <trkpt lat="46.89642" lon="5.64492">
        <ele>275.2</ele>
        <time>2020-03-04T10:26:31Z</time>
      </trkpt>
      <trkpt lat="46.89644" lon="5.64488">
        <ele>275</ele>
        <time>2020-03-04T10:26:32Z</time>
      </trkpt>
      <trkpt lat="46.89646" lon="5.64484">
        <ele>275</ele>
        <time>2020-03-04T10:26:33Z</time>
      </trkpt>
      <trkpt lat="46.89647" lon="5.64481">
        <ele>274.6</ele>
        <time>2020-03-04T10:26:34Z</time>
      </trkpt>
      <trkpt lat="46.89649" lon="5.64478">
        <ele>274.4</ele>
        <time>2020-03-04T10:26:35Z</time>
      </trkpt>
      <trkpt lat="46.89651" lon="5.64475">
        <ele>274.4</ele>
        <time>2020-03-04T10:26:36Z</time>
      </trkpt>
      <trkpt lat="46.89652" lon="5.64473">
        <ele>274.2</ele>
        <time>2020-03-04T10:26:37Z</time>
      </trkpt>
      <trkpt lat="46.89653" lon="5.6447">
        <ele>274.2</ele>
        <time>2020-03-04T10:26:38Z</time>
      </trkpt>
      <trkpt lat="46.89653" lon="5.64467">
        <ele>273.8</ele>
        <time>2020-03-04T10:26:39Z</time>
      </trkpt>
      <trkpt lat="46.89653" lon="5.64463">
        <ele>273.8</ele>
        <time>2020-03-04T10:26:40Z</time>
      </trkpt>
      <trkpt lat="46.89651" lon="5.6446">
        <ele>273.6</ele>
        <time>2020-03-04T10:26:41Z</time>
      </trkpt>
      <trkpt lat="46.89649" lon="5.64457">
        <ele>273.6</ele>
        <time>2020-03-04T10:26:42Z</time>
      </trkpt>
      <trkpt lat="46.89647" lon="5.64454">
        <ele>273.6</ele>
        <time>2020-03-04T10:26:43Z</time>
      </trkpt>
      <trkpt lat="46.89644" lon="5.64452">
        <ele>273.6</ele>
        <time>2020-03-04T10:26:44Z</time>
      </trkpt>
      <trkpt lat="46.89642" lon="5.64449">
        <ele>273.6</ele>
        <time>2020-03-04T10:26:45Z</time>
      </trkpt>
      <trkpt lat="46.8964" lon="5.64446">
        <ele>273.6</ele>
        <time>2020-03-04T10:26:46Z</time>
      </trkpt>
      <trkpt lat="46.89638" lon="5.64443">
        <ele>273.6</ele>
        <time>2020-03-04T10:26:47Z</time>
      </trkpt>
      <trkpt lat="46.89636" lon="5.64439">
        <ele>273.6</ele>
        <time>2020-03-04T10:26:48Z</time>
      </trkpt>
      <trkpt lat="46.89634" lon="5.64436">
        <ele>274</ele>
        <time>2020-03-04T10:26:49Z</time>
      </trkpt>
      <trkpt lat="46.89633" lon="5.64433">
        <ele>274</ele>
        <time>2020-03-04T10:26:50Z</time>
      </trkpt>
      <trkpt lat="46.89631" lon="5.64429">
        <ele>274</ele>
        <time>2020-03-04T10:26:51Z</time>
      </trkpt>
      <trkpt lat="46.89629" lon="5.64426">
        <ele>274</ele>
        <time>2020-03-04T10:26:52Z</time>
      </trkpt>
      <trkpt lat="46.89628" lon="5.64422">
        <ele>274</ele>
        <time>2020-03-04T10:26:53Z</time>
      </trkpt>
      <trkpt lat="46.89626" lon="5.64418">
        <ele>274</ele>
        <time>2020-03-04T10:26:54Z</time>
      </trkpt>
      <trkpt lat="46.89624" lon="5.64414">
        <ele>274</ele>
        <time>2020-03-04T10:26:55Z</time>
      </trkpt>
      <trkpt lat="46.89622" lon="5.64409">
        <ele>274</ele>
        <time>2020-03-04T10:26:56Z</time>
      </trkpt>
      <trkpt lat="46.8962" lon="5.64405">
        <ele>274</ele>
        <time>2020-03-04T10:26:57Z</time>
      </trkpt>
      <trkpt lat="46.89617" lon="5.644">
        <ele>274</ele>
        <time>2020-03-04T10:26:58Z</time>
      </trkpt>
      <trkpt lat="46.89615" lon="5.64395">
        <ele>273.6</ele>
        <time>2020-03-04T10:26:59Z</time>
      </trkpt>
      <trkpt lat="46.89612" lon="5.6439">
        <ele>273.6</ele>
        <time>2020-03-04T10:27:00Z</time>
      </trkpt>
      <trkpt lat="46.89609" lon="5.64385">
        <ele>273.4</ele>
        <time>2020-03-04T10:27:01Z</time>
      </trkpt>
      <trkpt lat="46.89606" lon="5.6438">
        <ele>273.4</ele>
        <time>2020-03-04T10:27:02Z</time>
      </trkpt>
      <trkpt lat="46.89603" lon="5.64375">
        <ele>273</ele>
        <time>2020-03-04T10:27:03Z</time>
      </trkpt>
      <trkpt lat="46.896" lon="5.6437">
        <ele>272.6</ele>
        <time>2020-03-04T10:27:04Z</time>
      </trkpt>
      <trkpt lat="46.89597" lon="5.64365">
        <ele>272.4</ele>
        <time>2020-03-04T10:27:05Z</time>
      </trkpt>
      <trkpt lat="46.89593" lon="5.64359">
        <ele>272</ele>
        <time>2020-03-04T10:27:06Z</time>
      </trkpt>
      <trkpt lat="46.8959" lon="5.64353">
        <ele>271.8</ele>
        <time>2020-03-04T10:27:07Z</time>
      </trkpt>
      <trkpt lat="46.89586" lon="5.64348">
        <ele>271.4</ele>
        <time>2020-03-04T10:27:08Z</time>
      </trkpt>
      <trkpt lat="46.89583" lon="5.64343">
        <ele>271</ele>
        <time>2020-03-04T10:27:09Z</time>
      </trkpt>
      <trkpt lat="46.8958" lon="5.64338">
        <ele>270.6</ele>
        <time>2020-03-04T10:27:10Z</time>
      </trkpt>
      <trkpt lat="46.89577" lon="5.64333">
        <ele>270.2</ele>
        <time>2020-03-04T10:27:11Z</time>
      </trkpt>
      <trkpt lat="46.89574" lon="5.64328">
        <ele>269.8</ele>
        <time>2020-03-04T10:27:12Z</time>
      </trkpt>
      <trkpt lat="46.89571" lon="5.64323">
        <ele>269.4</ele>
        <time>2020-03-04T10:27:13Z</time>
      </trkpt>
      <trkpt lat="46.89568" lon="5.64318">
        <ele>269.2</ele>
        <time>2020-03-04T10:27:14Z</time>
      </trkpt>
      <trkpt lat="46.89565" lon="5.64313">
        <ele>268.8</ele>
        <time>2020-03-04T10:27:15Z</time>
      </trkpt>
      <trkpt lat="46.89562" lon="5.64307">
        <ele>268.4</ele>
        <time>2020-03-04T10:27:16Z</time>
      </trkpt>
      <trkpt lat="46.89559" lon="5.64302">
        <ele>268</ele>
        <time>2020-03-04T10:27:17Z</time>
      </trkpt>
      <trkpt lat="46.89555" lon="5.64297">
        <ele>267.6</ele>
        <time>2020-03-04T10:27:18Z</time>
      </trkpt>
      <trkpt lat="46.89552" lon="5.64292">
        <ele>267.4</ele>
        <time>2020-03-04T10:27:19Z</time>
      </trkpt>
      <trkpt lat="46.89548" lon="5.64287">
        <ele>267</ele>
        <time>2020-03-04T10:27:20Z</time>
      </trkpt>
      <trkpt lat="46.89544" lon="5.64281">
        <ele>266.6</ele>
        <time>2020-03-04T10:27:21Z</time>
      </trkpt>
      <trkpt lat="46.89539" lon="5.64277">
        <ele>266.4</ele>
        <time>2020-03-04T10:27:22Z</time>
      </trkpt>
      <trkpt lat="46.89534" lon="5.64273">
        <ele>266.4</ele>
        <time>2020-03-04T10:27:23Z</time>
      </trkpt>
      <trkpt lat="46.89529" lon="5.64269">
        <ele>266</ele>
        <time>2020-03-04T10:27:24Z</time>
      </trkpt>
      <trkpt lat="46.89524" lon="5.64266">
        <ele>265.8</ele>
        <time>2020-03-04T10:27:25Z</time>
      </trkpt>
      <trkpt lat="46.89519" lon="5.64262">
        <ele>265.4</ele>
        <time>2020-03-04T10:27:26Z</time>
      </trkpt>
      <trkpt lat="46.89513" lon="5.64259">
        <ele>265.2</ele>
        <time>2020-03-04T10:27:27Z</time>
      </trkpt>
      <trkpt lat="46.89507" lon="5.64257">
        <ele>265</ele>
        <time>2020-03-04T10:27:28Z</time>
      </trkpt>
      <trkpt lat="46.89501" lon="5.64254">
        <ele>264.6</ele>
        <time>2020-03-04T10:27:29Z</time>
      </trkpt>
      <trkpt lat="46.89495" lon="5.64251">
        <ele>264.4</ele>
        <time>2020-03-04T10:27:30Z</time>
      </trkpt>
      <trkpt lat="46.89488" lon="5.64248">
        <ele>264</ele>
        <time>2020-03-04T10:27:31Z</time>
      </trkpt>
      <trkpt lat="46.89481" lon="5.64243">
        <ele>264</ele>
        <time>2020-03-04T10:27:32Z</time>
      </trkpt>
      <trkpt lat="46.89475" lon="5.64238">
        <ele>263.8</ele>
        <time>2020-03-04T10:27:33Z</time>
      </trkpt>
      <trkpt lat="46.89468" lon="5.64233">
        <ele>263.4</ele>
        <time>2020-03-04T10:27:34Z</time>
      </trkpt>
      <trkpt lat="46.89461" lon="5.64229">
        <ele>263</ele>
        <time>2020-03-04T10:27:35Z</time>
      </trkpt>
      <trkpt lat="46.89454" lon="5.64224">
        <ele>262.4</ele>
        <time>2020-03-04T10:27:36Z</time>
      </trkpt>
      <trkpt lat="46.89447" lon="5.64218">
        <ele>262</ele>
        <time>2020-03-04T10:27:37Z</time>
      </trkpt>
      <trkpt lat="46.8944" lon="5.64213">
        <ele>261.6</ele>
        <time>2020-03-04T10:27:38Z</time>
      </trkpt>
      <trkpt lat="46.89433" lon="5.64208">
        <ele>261.2</ele>
        <time>2020-03-04T10:27:39Z</time>
      </trkpt>
      <trkpt lat="46.89426" lon="5.64202">
        <ele>260.8</ele>
        <time>2020-03-04T10:27:40Z</time>
      </trkpt>
      <trkpt lat="46.8942" lon="5.64197">
        <ele>260.6</ele>
        <time>2020-03-04T10:27:41Z</time>
      </trkpt>
      <trkpt lat="46.89414" lon="5.64193">
        <ele>260.2</ele>
        <time>2020-03-04T10:27:42Z</time>
      </trkpt>
      <trkpt lat="46.89409" lon="5.64189">
        <ele>259.8</ele>
        <time>2020-03-04T10:27:43Z</time>
      </trkpt>
      <trkpt lat="46.89404" lon="5.64185">
        <ele>259.6</ele>
        <time>2020-03-04T10:27:44Z</time>
      </trkpt>
      <trkpt lat="46.89399" lon="5.64181">
        <ele>259.6</ele>
        <time>2020-03-04T10:27:45Z</time>
      </trkpt>
      <trkpt lat="46.89394" lon="5.64177">
        <ele>259.2</ele>
        <time>2020-03-04T10:27:46Z</time>
      </trkpt>
      <trkpt lat="46.8939" lon="5.64173">
        <ele>259.2</ele>
        <time>2020-03-04T10:27:47Z</time>
      </trkpt>
      <trkpt lat="46.89385" lon="5.6417">
        <ele>259</ele>
        <time>2020-03-04T10:27:48Z</time>
      </trkpt>
      <trkpt lat="46.89381" lon="5.64167">
        <ele>259</ele>
        <time>2020-03-04T10:27:49Z</time>
      </trkpt>
      <trkpt lat="46.89377" lon="5.64163">
        <ele>258.8</ele>
        <time>2020-03-04T10:27:50Z</time>
      </trkpt>
      <trkpt lat="46.89373" lon="5.64161">
        <ele>258.8</ele>
        <time>2020-03-04T10:27:51Z</time>
      </trkpt>
      <trkpt lat="46.89369" lon="5.64159">
        <ele>258.8</ele>
        <time>2020-03-04T10:27:52Z</time>
      </trkpt>
      <trkpt lat="46.89365" lon="5.6416">
        <ele>258.4</ele>
        <time>2020-03-04T10:27:53Z</time>
      </trkpt>
      <trkpt lat="46.89362" lon="5.64162">
        <ele>258.4</ele>
        <time>2020-03-04T10:27:54Z</time>
      </trkpt>
      <trkpt lat="46.8936" lon="5.64167">
        <ele>258.4</ele>
        <time>2020-03-04T10:27:55Z</time>
      </trkpt>
      <trkpt lat="46.89358" lon="5.64171">
        <ele>258.2</ele>
        <time>2020-03-04T10:27:56Z</time>
      </trkpt>
      <trkpt lat="46.89357" lon="5.64177">
        <ele>258.2</ele>
        <time>2020-03-04T10:27:57Z</time>
      </trkpt>
      <trkpt lat="46.89356" lon="5.64182">
        <ele>258.2</ele>
        <time>2020-03-04T10:27:58Z</time>
      </trkpt>
      <trkpt lat="46.89355" lon="5.64187">
        <ele>258.2</ele>
        <time>2020-03-04T10:27:59Z</time>
      </trkpt>
      <trkpt lat="46.89354" lon="5.64192">
        <ele>258.2</ele>
        <time>2020-03-04T10:28:00Z</time>
      </trkpt>
      <trkpt lat="46.89354" lon="5.64196">
        <ele>258.2</ele>
        <time>2020-03-04T10:28:01Z</time>
      </trkpt>
      <trkpt lat="46.89353" lon="5.64201">
        <ele>258.4</ele>
        <time>2020-03-04T10:28:02Z</time>
      </trkpt>
      <trkpt lat="46.89352" lon="5.64205">
        <ele>258.4</ele>
        <time>2020-03-04T10:28:03Z</time>
      </trkpt>
      <trkpt lat="46.89351" lon="5.64208">
        <ele>258.4</ele>
        <time>2020-03-04T10:28:04Z</time>
      </trkpt>
      <trkpt lat="46.89351" lon="5.64212">
        <ele>258.8</ele>
        <time>2020-03-04T10:28:05Z</time>
      </trkpt>
      <trkpt lat="46.8935" lon="5.64215">
        <ele>258.8</ele>
        <time>2020-03-04T10:28:06Z</time>
      </trkpt>
      <trkpt lat="46.89349" lon="5.64218">
        <ele>258.8</ele>
        <time>2020-03-04T10:28:07Z</time>
      </trkpt>
      <trkpt lat="46.89349" lon="5.64221">
        <ele>258.8</ele>
        <time>2020-03-04T10:28:08Z</time>
      </trkpt>
      <trkpt lat="46.89348" lon="5.64224">
        <ele>259</ele>
        <time>2020-03-04T10:28:09Z</time>
      </trkpt>
      <trkpt lat="46.89348" lon="5.64227">
        <ele>259</ele>
        <time>2020-03-04T10:28:10Z</time>
      </trkpt>
      <trkpt lat="46.89347" lon="5.6423">
        <ele>259.2</ele>
        <time>2020-03-04T10:28:11Z</time>
      </trkpt>
      <trkpt lat="46.89346" lon="5.64233">
        <ele>259.2</ele>
        <time>2020-03-04T10:28:12Z</time>
      </trkpt>
      <trkpt lat="46.89346" lon="5.64235">
        <ele>259.2</ele>
        <time>2020-03-04T10:28:13Z</time>
      </trkpt>
      <trkpt lat="46.89346" lon="5.64238">
        <ele>259.2</ele>
        <time>2020-03-04T10:28:14Z</time>
      </trkpt>
      <trkpt lat="46.89345" lon="5.6424">
        <ele>259.4</ele>
        <time>2020-03-04T10:28:15Z</time>
      </trkpt>
      <trkpt lat="46.89346" lon="5.64243">
        <ele>259.4</ele>
        <time>2020-03-04T10:28:16Z</time>
      </trkpt>
      <trkpt lat="46.89346" lon="5.64245">
        <ele>259.6</ele>
        <time>2020-03-04T10:28:17Z</time>
      </trkpt>
      <trkpt lat="46.89346" lon="5.64248">
        <ele>259.6</ele>
        <time>2020-03-04T10:28:18Z</time>
      </trkpt>
      <trkpt lat="46.89345" lon="5.6425">
        <ele>259.6</ele>
        <time>2020-03-04T10:28:19Z</time>
      </trkpt>
      <trkpt lat="46.89345" lon="5.64252">
        <ele>259.6</ele>
        <time>2020-03-04T10:28:20Z</time>
      </trkpt>
      <trkpt lat="46.89344" lon="5.64256">
        <ele>260</ele>
        <time>2020-03-04T10:28:21Z</time>
      </trkpt>
      <trkpt lat="46.89344" lon="5.64259">
        <ele>260</ele>
        <time>2020-03-04T10:28:22Z</time>
      </trkpt>
      <trkpt lat="46.89344" lon="5.64263">
        <ele>260</ele>
        <time>2020-03-04T10:28:23Z</time>
      </trkpt>
      <trkpt lat="46.89344" lon="5.64266">
        <ele>260.2</ele>
        <time>2020-03-04T10:28:24Z</time>
      </trkpt>
      <trkpt lat="46.89343" lon="5.64269">
        <ele>260.2</ele>
        <time>2020-03-04T10:28:25Z</time>
      </trkpt>
      <trkpt lat="46.89342" lon="5.64273">
        <ele>260.4</ele>
        <time>2020-03-04T10:28:26Z</time>
      </trkpt>
      <trkpt lat="46.89342" lon="5.64276">
        <ele>260.4</ele>
        <time>2020-03-04T10:28:27Z</time>
      </trkpt>
      <trkpt lat="46.89342" lon="5.6428">
        <ele>260.8</ele>
        <time>2020-03-04T10:28:28Z</time>
      </trkpt>
      <trkpt lat="46.89341" lon="5.64284">
        <ele>260.8</ele>
        <time>2020-03-04T10:28:29Z</time>
      </trkpt>
      <trkpt lat="46.89341" lon="5.64287">
        <ele>261.2</ele>
        <time>2020-03-04T10:28:30Z</time>
      </trkpt>
      <trkpt lat="46.8934" lon="5.64291">
        <ele>261.4</ele>
        <time>2020-03-04T10:28:31Z</time>
      </trkpt>
      <trkpt lat="46.8934" lon="5.64295">
        <ele>261.6</ele>
        <time>2020-03-04T10:28:32Z</time>
      </trkpt>
      <trkpt lat="46.8934" lon="5.64298">
        <ele>261.6</ele>
        <time>2020-03-04T10:28:33Z</time>
      </trkpt>
      <trkpt lat="46.8934" lon="5.64301">
        <ele>261.8</ele>
        <time>2020-03-04T10:28:34Z</time>
      </trkpt>
      <trkpt lat="46.89339" lon="5.64304">
        <ele>261.8</ele>
        <time>2020-03-04T10:28:35Z</time>
      </trkpt>
      <trkpt lat="46.89338" lon="5.64308">
        <ele>262.2</ele>
        <time>2020-03-04T10:28:36Z</time>
      </trkpt>
      <trkpt lat="46.89337" lon="5.64311">
        <ele>262.2</ele>
        <time>2020-03-04T10:28:37Z</time>
      </trkpt>
      <trkpt lat="46.89336" lon="5.64314">
        <ele>262.6</ele>
        <time>2020-03-04T10:28:38Z</time>
      </trkpt>
      <trkpt lat="46.89335" lon="5.64318">
        <ele>262.6</ele>
        <time>2020-03-04T10:28:39Z</time>
      </trkpt>
      <trkpt lat="46.89334" lon="5.64322">
        <ele>263</ele>
        <time>2020-03-04T10:28:40Z</time>
      </trkpt>
      <trkpt lat="46.89333" lon="5.64325">
        <ele>263.2</ele>
        <time>2020-03-04T10:28:41Z</time>
      </trkpt>
      <trkpt lat="46.89332" lon="5.64329">
        <ele>263.2</ele>
        <time>2020-03-04T10:28:42Z</time>
      </trkpt>
      <trkpt lat="46.8933" lon="5.64332">
        <ele>263.4</ele>
        <time>2020-03-04T10:28:43Z</time>
      </trkpt>
      <trkpt lat="46.89329" lon="5.64336">
        <ele>263.8</ele>
        <time>2020-03-04T10:28:44Z</time>
      </trkpt>
      <trkpt lat="46.89328" lon="5.64339">
        <ele>263.8</ele>
        <time>2020-03-04T10:28:45Z</time>
      </trkpt>
      <trkpt lat="46.89326" lon="5.64342">
        <ele>264.2</ele>
        <time>2020-03-04T10:28:46Z</time>
      </trkpt>
      <trkpt lat="46.89325" lon="5.64345">
        <ele>264.2</ele>
        <time>2020-03-04T10:28:47Z</time>
      </trkpt>
      <trkpt lat="46.89324" lon="5.64348">
        <ele>264.4</ele>
        <time>2020-03-04T10:28:48Z</time>
      </trkpt>
      <trkpt lat="46.89322" lon="5.64351">
        <ele>264.4</ele>
        <time>2020-03-04T10:28:49Z</time>
      </trkpt>
      <trkpt lat="46.8932" lon="5.64354">
        <ele>264.8</ele>
        <time>2020-03-04T10:28:50Z</time>
      </trkpt>
      <trkpt lat="46.89319" lon="5.64357">
        <ele>265</ele>
        <time>2020-03-04T10:28:51Z</time>
      </trkpt>
      <trkpt lat="46.89317" lon="5.64359">
        <ele>265.4</ele>
        <time>2020-03-04T10:28:52Z</time>
      </trkpt>
      <trkpt lat="46.89315" lon="5.64362">
        <ele>265.6</ele>
        <time>2020-03-04T10:28:53Z</time>
      </trkpt>
      <trkpt lat="46.89313" lon="5.64364">
        <ele>265.6</ele>
        <time>2020-03-04T10:28:54Z</time>
      </trkpt>
      <trkpt lat="46.8931" lon="5.64366">
        <ele>265.8</ele>
        <time>2020-03-04T10:28:55Z</time>
      </trkpt>
      <trkpt lat="46.89308" lon="5.64369">
        <ele>265.8</ele>
        <time>2020-03-04T10:28:56Z</time>
      </trkpt>
      <trkpt lat="46.89306" lon="5.64371">
        <ele>266</ele>
        <time>2020-03-04T10:28:57Z</time>
      </trkpt>
      <trkpt lat="46.89304" lon="5.64374">
        <ele>266</ele>
        <time>2020-03-04T10:28:58Z</time>
      </trkpt>
      <trkpt lat="46.89302" lon="5.64377">
        <ele>266.4</ele>
        <time>2020-03-04T10:28:59Z</time>
      </trkpt>
      <trkpt lat="46.893" lon="5.64379">
        <ele>266.6</ele>
        <time>2020-03-04T10:29:00Z</time>
      </trkpt>
      <trkpt lat="46.89298" lon="5.64381">
        <ele>266.8</ele>
        <time>2020-03-04T10:29:01Z</time>
      </trkpt>
      <trkpt lat="46.89296" lon="5.64384">
        <ele>267.2</ele>
        <time>2020-03-04T10:29:02Z</time>
      </trkpt>
      <trkpt lat="46.89293" lon="5.64386">
        <ele>267.4</ele>
        <time>2020-03-04T10:29:03Z</time>
      </trkpt>
      <trkpt lat="46.89292" lon="5.64389">
        <ele>267.6</ele>
        <time>2020-03-04T10:29:04Z</time>
      </trkpt>
      <trkpt lat="46.8929" lon="5.64391">
        <ele>268</ele>
        <time>2020-03-04T10:29:05Z</time>
      </trkpt>
      <trkpt lat="46.89288" lon="5.64393">
        <ele>268.2</ele>
        <time>2020-03-04T10:29:06Z</time>
      </trkpt>
      <trkpt lat="46.89286" lon="5.64396">
        <ele>268.2</ele>
        <time>2020-03-04T10:29:07Z</time>
      </trkpt>
      <trkpt lat="46.89285" lon="5.64398">
        <ele>268.4</ele>
        <time>2020-03-04T10:29:08Z</time>
      </trkpt>
      <trkpt lat="46.89283" lon="5.64401">
        <ele>268.4</ele>
        <time>2020-03-04T10:29:09Z</time>
      </trkpt>
      <trkpt lat="46.89281" lon="5.64403">
        <ele>268.8</ele>
        <time>2020-03-04T10:29:10Z</time>
      </trkpt>
      <trkpt lat="46.89279" lon="5.64406">
        <ele>268.8</ele>
        <time>2020-03-04T10:29:11Z</time>
      </trkpt>
      <trkpt lat="46.89278" lon="5.64409">
        <ele>269.2</ele>
        <time>2020-03-04T10:29:12Z</time>
      </trkpt>
      <trkpt lat="46.89276" lon="5.64411">
        <ele>269.2</ele>
        <time>2020-03-04T10:29:13Z</time>
      </trkpt>
      <trkpt lat="46.89274" lon="5.64414">
        <ele>269.4</ele>
        <time>2020-03-04T10:29:14Z</time>
      </trkpt>
      <trkpt lat="46.89273" lon="5.64417">
        <ele>269.4</ele>
        <time>2020-03-04T10:29:15Z</time>
      </trkpt>
      <trkpt lat="46.89271" lon="5.64419">
        <ele>269.8</ele>
        <time>2020-03-04T10:29:16Z</time>
      </trkpt>
      <trkpt lat="46.8927" lon="5.64422">
        <ele>269.8</ele>
        <time>2020-03-04T10:29:17Z</time>
      </trkpt>
      <trkpt lat="46.89269" lon="5.64425">
        <ele>270</ele>
        <time>2020-03-04T10:29:18Z</time>
      </trkpt>
      <trkpt lat="46.89268" lon="5.64428">
        <ele>270</ele>
        <time>2020-03-04T10:29:19Z</time>
      </trkpt>
      <trkpt lat="46.89266" lon="5.64431">
        <ele>270</ele>
        <time>2020-03-04T10:29:20Z</time>
      </trkpt>
      <trkpt lat="46.89265" lon="5.64434">
        <ele>270.4</ele>
        <time>2020-03-04T10:29:21Z</time>
      </trkpt>
      <trkpt lat="46.89263" lon="5.64437">
        <ele>270.4</ele>
        <time>2020-03-04T10:29:22Z</time>
      </trkpt>
      <trkpt lat="46.89262" lon="5.6444">
        <ele>270.8</ele>
        <time>2020-03-04T10:29:23Z</time>
      </trkpt>
      <trkpt lat="46.89261" lon="5.64442">
        <ele>270.8</ele>
        <time>2020-03-04T10:29:24Z</time>
      </trkpt>
      <trkpt lat="46.8926" lon="5.64445">
        <ele>271</ele>
        <time>2020-03-04T10:29:25Z</time>
      </trkpt>
      <trkpt lat="46.89258" lon="5.64448">
        <ele>271</ele>
        <time>2020-03-04T10:29:26Z</time>
      </trkpt>
      <trkpt lat="46.89257" lon="5.64451">
        <ele>271.4</ele>
        <time>2020-03-04T10:29:27Z</time>
      </trkpt>
      <trkpt lat="46.89256" lon="5.64454">
        <ele>271.4</ele>
        <time>2020-03-04T10:29:28Z</time>
      </trkpt>
      <trkpt lat="46.89255" lon="5.64457">
        <ele>271.4</ele>
        <time>2020-03-04T10:29:29Z</time>
      </trkpt>
      <trkpt lat="46.89254" lon="5.6446">
        <ele>271.6</ele>
        <time>2020-03-04T10:29:30Z</time>
      </trkpt>
      <trkpt lat="46.89253" lon="5.64463">
        <ele>271.6</ele>
        <time>2020-03-04T10:29:31Z</time>
      </trkpt>
      <trkpt lat="46.89252" lon="5.64466">
        <ele>272</ele>
        <time>2020-03-04T10:29:32Z</time>
      </trkpt>
      <trkpt lat="46.89251" lon="5.64469">
        <ele>272</ele>
        <time>2020-03-04T10:29:33Z</time>
      </trkpt>
      <trkpt lat="46.89251" lon="5.64473">
        <ele>272.2</ele>
        <time>2020-03-04T10:29:34Z</time>
      </trkpt>
      <trkpt lat="46.8925" lon="5.64476">
        <ele>272.2</ele>
        <time>2020-03-04T10:29:35Z</time>
      </trkpt>
      <trkpt lat="46.89249" lon="5.64479">
        <ele>272.6</ele>
        <time>2020-03-04T10:29:36Z</time>
      </trkpt>
      <trkpt lat="46.89248" lon="5.64482">
        <ele>272.6</ele>
        <time>2020-03-04T10:29:37Z</time>
      </trkpt>
      <trkpt lat="46.89247" lon="5.64486">
        <ele>273</ele>
        <time>2020-03-04T10:29:38Z</time>
      </trkpt>
      <trkpt lat="46.89247" lon="5.6449">
        <ele>273</ele>
        <time>2020-03-04T10:29:39Z</time>
      </trkpt>
      <trkpt lat="46.89246" lon="5.64493">
        <ele>273.2</ele>
        <time>2020-03-04T10:29:40Z</time>
      </trkpt>
      <trkpt lat="46.89246" lon="5.64497">
        <ele>273.2</ele>
        <time>2020-03-04T10:29:41Z</time>
      </trkpt>
      <trkpt lat="46.89245" lon="5.64501">
        <ele>273.2</ele>
        <time>2020-03-04T10:29:42Z</time>
      </trkpt>
      <trkpt lat="46.89245" lon="5.64505">
        <ele>273.2</ele>
        <time>2020-03-04T10:29:43Z</time>
      </trkpt>
      <trkpt lat="46.89244" lon="5.64508">
        <ele>273.2</ele>
        <time>2020-03-04T10:29:44Z</time>
      </trkpt>
      <trkpt lat="46.89243" lon="5.64512">
        <ele>273.2</ele>
        <time>2020-03-04T10:29:45Z</time>
      </trkpt>
      <trkpt lat="46.89243" lon="5.64517">
        <ele>273.4</ele>
        <time>2020-03-04T10:29:46Z</time>
      </trkpt>
      <trkpt lat="46.89243" lon="5.64521">
        <ele>273.4</ele>
        <time>2020-03-04T10:29:47Z</time>
      </trkpt>
      <trkpt lat="46.89242" lon="5.64525">
        <ele>273.4</ele>
        <time>2020-03-04T10:29:48Z</time>
      </trkpt>
      <trkpt lat="46.89242" lon="5.64529">
        <ele>273.4</ele>
        <time>2020-03-04T10:29:49Z</time>
      </trkpt>
      <trkpt lat="46.89241" lon="5.64533">
        <ele>273.4</ele>
        <time>2020-03-04T10:29:50Z</time>
      </trkpt>
      <trkpt lat="46.89241" lon="5.64537">
        <ele>273.4</ele>
        <time>2020-03-04T10:29:51Z</time>
      </trkpt>
      <trkpt lat="46.89241" lon="5.64542">
        <ele>273.4</ele>
        <time>2020-03-04T10:29:52Z</time>
      </trkpt>
      <trkpt lat="46.8924" lon="5.64546">
        <ele>273.4</ele>
        <time>2020-03-04T10:29:53Z</time>
      </trkpt>
      <trkpt lat="46.8924" lon="5.64551">
        <ele>273.4</ele>
        <time>2020-03-04T10:29:54Z</time>
      </trkpt>
      <trkpt lat="46.8924" lon="5.64555">
        <ele>273.4</ele>
        <time>2020-03-04T10:29:55Z</time>
      </trkpt>
      <trkpt lat="46.89241" lon="5.6456">
        <ele>273.4</ele>
        <time>2020-03-04T10:29:56Z</time>
      </trkpt>
      <trkpt lat="46.89241" lon="5.64565">
        <ele>273.4</ele>
        <time>2020-03-04T10:29:57Z</time>
      </trkpt>
      <trkpt lat="46.89241" lon="5.64571">
        <ele>273.4</ele>
        <time>2020-03-04T10:29:58Z</time>
      </trkpt>
      <trkpt lat="46.89241" lon="5.64576">
        <ele>273.2</ele>
        <time>2020-03-04T10:29:59Z</time>
      </trkpt>
      <trkpt lat="46.89242" lon="5.64582">
        <ele>273.2</ele>
        <time>2020-03-04T10:30:00Z</time>
      </trkpt>
      <trkpt lat="46.89242" lon="5.64588">
        <ele>273.2</ele>
        <time>2020-03-04T10:30:01Z</time>
      </trkpt>
      <trkpt lat="46.89243" lon="5.64595">
        <ele>273</ele>
        <time>2020-03-04T10:30:02Z</time>
      </trkpt>
      <trkpt lat="46.89243" lon="5.64602">
        <ele>272.8</ele>
        <time>2020-03-04T10:30:03Z</time>
      </trkpt>
      <trkpt lat="46.89244" lon="5.64609">
        <ele>272.6</ele>
        <time>2020-03-04T10:30:04Z</time>
      </trkpt>
      <trkpt lat="46.89245" lon="5.64616">
        <ele>272.6</ele>
        <time>2020-03-04T10:30:05Z</time>
      </trkpt>
      <trkpt lat="46.89245" lon="5.64624">
        <ele>272.2</ele>
        <time>2020-03-04T10:30:06Z</time>
      </trkpt>
      <trkpt lat="46.89246" lon="5.64633">
        <ele>272</ele>
        <time>2020-03-04T10:30:07Z</time>
      </trkpt>
      <trkpt lat="46.89247" lon="5.64642">
        <ele>272</ele>
        <time>2020-03-04T10:30:08Z</time>
      </trkpt>
      <trkpt lat="46.89248" lon="5.64651">
        <ele>271.8</ele>
        <time>2020-03-04T10:30:09Z</time>
      </trkpt>
      <trkpt lat="46.89248" lon="5.6466">
        <ele>271.8</ele>
        <time>2020-03-04T10:30:10Z</time>
      </trkpt>
      <trkpt lat="46.89249" lon="5.64669">
        <ele>271.6</ele>
        <time>2020-03-04T10:30:11Z</time>
      </trkpt>
      <trkpt lat="46.89249" lon="5.64679">
        <ele>271.6</ele>
        <time>2020-03-04T10:30:12Z</time>
      </trkpt>
      <trkpt lat="46.8925" lon="5.64688">
        <ele>271.4</ele>
        <time>2020-03-04T10:30:13Z</time>
      </trkpt>
      <trkpt lat="46.8925" lon="5.64697">
        <ele>271.4</ele>
        <time>2020-03-04T10:30:14Z</time>
      </trkpt>
      <trkpt lat="46.89251" lon="5.64706">
        <ele>271.4</ele>
        <time>2020-03-04T10:30:15Z</time>
      </trkpt>
      <trkpt lat="46.89253" lon="5.64715">
        <ele>271.2</ele>
        <time>2020-03-04T10:30:16Z</time>
      </trkpt>
      <trkpt lat="46.89254" lon="5.64723">
        <ele>271.2</ele>
        <time>2020-03-04T10:30:17Z</time>
      </trkpt>
      <trkpt lat="46.89256" lon="5.64731">
        <ele>271.2</ele>
        <time>2020-03-04T10:30:18Z</time>
      </trkpt>
      <trkpt lat="46.89258" lon="5.64738">
        <ele>271.2</ele>
        <time>2020-03-04T10:30:19Z</time>
      </trkpt>
      <trkpt lat="46.8926" lon="5.64745">
        <ele>271.2</ele>
        <time>2020-03-04T10:30:20Z</time>
      </trkpt>
      <trkpt lat="46.89262" lon="5.64751">
        <ele>271.4</ele>
        <time>2020-03-04T10:30:21Z</time>
      </trkpt>
      <trkpt lat="46.89264" lon="5.64757">
        <ele>271.4</ele>
        <time>2020-03-04T10:30:22Z</time>
      </trkpt>
      <trkpt lat="46.89265" lon="5.64764">
        <ele>271.4</ele>
        <time>2020-03-04T10:30:23Z</time>
      </trkpt>
      <trkpt lat="46.89267" lon="5.6477">
        <ele>271.8</ele>
        <time>2020-03-04T10:30:24Z</time>
      </trkpt>
      <trkpt lat="46.89269" lon="5.64776">
        <ele>271.8</ele>
        <time>2020-03-04T10:30:25Z</time>
      </trkpt>
      <trkpt lat="46.89271" lon="5.64781">
        <ele>271.8</ele>
        <time>2020-03-04T10:30:26Z</time>
      </trkpt>
      <trkpt lat="46.89272" lon="5.64787">
        <ele>272</ele>
        <time>2020-03-04T10:30:27Z</time>
      </trkpt>
      <trkpt lat="46.89274" lon="5.64792">
        <ele>272</ele>
        <time>2020-03-04T10:30:28Z</time>
      </trkpt>
      <trkpt lat="46.89276" lon="5.64798">
        <ele>272.2</ele>
        <time>2020-03-04T10:30:29Z</time>
      </trkpt>
      <trkpt lat="46.89277" lon="5.64804">
        <ele>272.2</ele>
        <time>2020-03-04T10:30:30Z</time>
      </trkpt>
      <trkpt lat="46.89279" lon="5.6481">
        <ele>272.4</ele>
        <time>2020-03-04T10:30:31Z</time>
      </trkpt>
      <trkpt lat="46.89281" lon="5.64816">
        <ele>272.4</ele>
        <time>2020-03-04T10:30:32Z</time>
      </trkpt>
      <trkpt lat="46.89283" lon="5.64823">
        <ele>272.6</ele>
        <time>2020-03-04T10:30:33Z</time>
      </trkpt>
      <trkpt lat="46.89285" lon="5.64829">
        <ele>272.6</ele>
        <time>2020-03-04T10:30:34Z</time>
      </trkpt>
      <trkpt lat="46.89287" lon="5.64835">
        <ele>272.8</ele>
        <time>2020-03-04T10:30:35Z</time>
      </trkpt>
      <trkpt lat="46.89288" lon="5.64841">
        <ele>272.8</ele>
        <time>2020-03-04T10:30:36Z</time>
      </trkpt>
      <trkpt lat="46.8929" lon="5.64847">
        <ele>273.2</ele>
        <time>2020-03-04T10:30:37Z</time>
      </trkpt>
      <trkpt lat="46.89292" lon="5.64853">
        <ele>273.2</ele>
        <time>2020-03-04T10:30:38Z</time>
      </trkpt>
      <trkpt lat="46.89293" lon="5.64858">
        <ele>273.2</ele>
        <time>2020-03-04T10:30:39Z</time>
      </trkpt>
      <trkpt lat="46.89295" lon="5.64863">
        <ele>273.4</ele>
        <time>2020-03-04T10:30:40Z</time>
      </trkpt>
      <trkpt lat="46.89297" lon="5.64868">
        <ele>273.4</ele>
        <time>2020-03-04T10:30:41Z</time>
      </trkpt>
      <trkpt lat="46.89298" lon="5.64873">
        <ele>273.6</ele>
        <time>2020-03-04T10:30:42Z</time>
      </trkpt>
      <trkpt lat="46.89299" lon="5.64877">
        <ele>273.6</ele>
        <time>2020-03-04T10:30:43Z</time>
      </trkpt>
      <trkpt lat="46.893" lon="5.64881">
        <ele>273.6</ele>
        <time>2020-03-04T10:30:44Z</time>
      </trkpt>
      <trkpt lat="46.89301" lon="5.64885">
        <ele>274</ele>
        <time>2020-03-04T10:30:45Z</time>
      </trkpt>
      <trkpt lat="46.89303" lon="5.64889">
        <ele>274</ele>
        <time>2020-03-04T10:30:46Z</time>
      </trkpt>
      <trkpt lat="46.89303" lon="5.64894">
        <ele>274.2</ele>
        <time>2020-03-04T10:30:47Z</time>
      </trkpt>
      <trkpt lat="46.89304" lon="5.64898">
        <ele>274.2</ele>
        <time>2020-03-04T10:30:48Z</time>
      </trkpt>
      <trkpt lat="46.89305" lon="5.64903">
        <ele>274.4</ele>
        <time>2020-03-04T10:30:49Z</time>
      </trkpt>
      <trkpt lat="46.89305" lon="5.64908">
        <ele>274.4</ele>
        <time>2020-03-04T10:30:50Z</time>
      </trkpt>
      <trkpt lat="46.89304" lon="5.64912">
        <ele>274.4</ele>
        <time>2020-03-04T10:30:51Z</time>
      </trkpt>
      <trkpt lat="46.89303" lon="5.64917">
        <ele>274.4</ele>
        <time>2020-03-04T10:30:52Z</time>
      </trkpt>
      <trkpt lat="46.89301" lon="5.6492">
        <ele>274.4</ele>
        <time>2020-03-04T10:30:53Z</time>
      </trkpt>
      <trkpt lat="46.89299" lon="5.64924">
        <ele>274.4</ele>
        <time>2020-03-04T10:30:54Z</time>
      </trkpt>
      <trkpt lat="46.89296" lon="5.64927">
        <ele>274.4</ele>
        <time>2020-03-04T10:30:55Z</time>
      </trkpt>
      <trkpt lat="46.89294" lon="5.6493">
        <ele>274.4</ele>
        <time>2020-03-04T10:30:56Z</time>
      </trkpt>
      <trkpt lat="46.89291" lon="5.64933">
        <ele>274.4</ele>
        <time>2020-03-04T10:30:57Z</time>
      </trkpt>
      <trkpt lat="46.89288" lon="5.64936">
        <ele>274.4</ele>
        <time>2020-03-04T10:30:58Z</time>
      </trkpt>
      <trkpt lat="46.89285" lon="5.64939">
        <ele>274.4</ele>
        <time>2020-03-04T10:30:59Z</time>
      </trkpt>
      <trkpt lat="46.89282" lon="5.64943">
        <ele>274.4</ele>
        <time>2020-03-04T10:31:00Z</time>
      </trkpt>
      <trkpt lat="46.89279" lon="5.64945">
        <ele>274.4</ele>
        <time>2020-03-04T10:31:01Z</time>
      </trkpt>
      <trkpt lat="46.89276" lon="5.64948">
        <ele>274.2</ele>
        <time>2020-03-04T10:31:02Z</time>
      </trkpt>
      <trkpt lat="46.89273" lon="5.64951">
        <ele>274.2</ele>
        <time>2020-03-04T10:31:03Z</time>
      </trkpt>
      <trkpt lat="46.89271" lon="5.64954">
        <ele>274</ele>
        <time>2020-03-04T10:31:04Z</time>
      </trkpt>
      <trkpt lat="46.89268" lon="5.64957">
        <ele>274</ele>
        <time>2020-03-04T10:31:05Z</time>
      </trkpt>
      <trkpt lat="46.89266" lon="5.6496">
        <ele>274</ele>
        <time>2020-03-04T10:31:06Z</time>
      </trkpt>
      <trkpt lat="46.89264" lon="5.64963">
        <ele>273.6</ele>
        <time>2020-03-04T10:31:07Z</time>
      </trkpt>
      <trkpt lat="46.89263" lon="5.64966">
        <ele>273.6</ele>
        <time>2020-03-04T10:31:08Z</time>
      </trkpt>
      <trkpt lat="46.89262" lon="5.64969">
        <ele>273.6</ele>
        <time>2020-03-04T10:31:09Z</time>
      </trkpt>
      <trkpt lat="46.89261" lon="5.64972">
        <ele>273.6</ele>
        <time>2020-03-04T10:31:10Z</time>
      </trkpt>
      <trkpt lat="46.8926" lon="5.64974">
        <ele>273.4</ele>
        <time>2020-03-04T10:31:11Z</time>
      </trkpt>
      <trkpt lat="46.89259" lon="5.64976">
        <ele>273.4</ele>
        <time>2020-03-04T10:31:12Z</time>
      </trkpt>
      <trkpt lat="46.89259" lon="5.64978">
        <ele>273.4</ele>
        <time>2020-03-04T10:31:13Z</time>
      </trkpt>
      <trkpt lat="46.89259" lon="5.64979">
        <ele>273.4</ele>
        <time>2020-03-04T10:31:14Z</time>
      </trkpt>
      <trkpt lat="46.89265" lon="5.64985">
        <ele>274</ele>
        <time>2020-03-04T10:31:27Z</time>
      </trkpt>
      <trkpt lat="46.89267" lon="5.64984">
        <ele>274</ele>
        <time>2020-03-04T10:31:28Z</time>
      </trkpt>
      <trkpt lat="46.89269" lon="5.64982">
        <ele>273.8</ele>
        <time>2020-03-04T10:31:29Z</time>
      </trkpt>
      <trkpt lat="46.89271" lon="5.64979">
        <ele>273.8</ele>
        <time>2020-03-04T10:31:30Z</time>
      </trkpt>
      <trkpt lat="46.89273" lon="5.64976">
        <ele>273.8</ele>
        <time>2020-03-04T10:31:31Z</time>
      </trkpt>
      <trkpt lat="46.89275" lon="5.64973">
        <ele>273.8</ele>
        <time>2020-03-04T10:31:32Z</time>
      </trkpt>
      <trkpt lat="46.89278" lon="5.64971">
        <ele>274</ele>
        <time>2020-03-04T10:31:33Z</time>
      </trkpt>
      <trkpt lat="46.8928" lon="5.64968">
        <ele>274</ele>
        <time>2020-03-04T10:31:34Z</time>
      </trkpt>
      <trkpt lat="46.89282" lon="5.64965">
        <ele>274</ele>
        <time>2020-03-04T10:31:35Z</time>
      </trkpt>
      <trkpt lat="46.89285" lon="5.64963">
        <ele>274</ele>
        <time>2020-03-04T10:31:36Z</time>
      </trkpt>
      <trkpt lat="46.89288" lon="5.6496">
        <ele>274</ele>
        <time>2020-03-04T10:31:37Z</time>
      </trkpt>
      <trkpt lat="46.8929" lon="5.64957">
        <ele>274</ele>
        <time>2020-03-04T10:31:38Z</time>
      </trkpt>
      <trkpt lat="46.89293" lon="5.64954">
        <ele>274</ele>
        <time>2020-03-04T10:31:39Z</time>
      </trkpt>
      <trkpt lat="46.89296" lon="5.64952">
        <ele>274.2</ele>
        <time>2020-03-04T10:31:40Z</time>
      </trkpt>
      <trkpt lat="46.89299" lon="5.64949">
        <ele>274.2</ele>
        <time>2020-03-04T10:31:41Z</time>
      </trkpt>
      <trkpt lat="46.89301" lon="5.64946">
        <ele>274.2</ele>
        <time>2020-03-04T10:31:42Z</time>
      </trkpt>
      <trkpt lat="46.89304" lon="5.64943">
        <ele>274.6</ele>
        <time>2020-03-04T10:31:43Z</time>
      </trkpt>
      <trkpt lat="46.89308" lon="5.6494">
        <ele>274.6</ele>
        <time>2020-03-04T10:31:44Z</time>
      </trkpt>
      <trkpt lat="46.89311" lon="5.64937">
        <ele>274.6</ele>
        <time>2020-03-04T10:31:45Z</time>
      </trkpt>
      <trkpt lat="46.89314" lon="5.64934">
        <ele>274.6</ele>
        <time>2020-03-04T10:31:46Z</time>
      </trkpt>
      <trkpt lat="46.89317" lon="5.64931">
        <ele>274.8</ele>
        <time>2020-03-04T10:31:47Z</time>
      </trkpt>
      <trkpt lat="46.8932" lon="5.64928">
        <ele>274.8</ele>
        <time>2020-03-04T10:31:48Z</time>
      </trkpt>
      <trkpt lat="46.89323" lon="5.64925">
        <ele>274.8</ele>
        <time>2020-03-04T10:31:49Z</time>
      </trkpt>
      <trkpt lat="46.89326" lon="5.64922">
        <ele>275</ele>
        <time>2020-03-04T10:31:50Z</time>
      </trkpt>
      <trkpt lat="46.89329" lon="5.6492">
        <ele>275</ele>
        <time>2020-03-04T10:31:51Z</time>
      </trkpt>
      <trkpt lat="46.89332" lon="5.64916">
        <ele>275.4</ele>
        <time>2020-03-04T10:31:52Z</time>
      </trkpt>
      <trkpt lat="46.89336" lon="5.64913">
        <ele>275.4</ele>
        <time>2020-03-04T10:31:53Z</time>
      </trkpt>
      <trkpt lat="46.89339" lon="5.6491">
        <ele>275.4</ele>
        <time>2020-03-04T10:31:54Z</time>
      </trkpt>
      <trkpt lat="46.89342" lon="5.64907">
        <ele>275.6</ele>
        <time>2020-03-04T10:31:55Z</time>
      </trkpt>
      <trkpt lat="46.89346" lon="5.64904">
        <ele>275.6</ele>
        <time>2020-03-04T10:31:56Z</time>
      </trkpt>
      <trkpt lat="46.89349" lon="5.649">
        <ele>276</ele>
        <time>2020-03-04T10:31:57Z</time>
      </trkpt>
      <trkpt lat="46.89353" lon="5.64897">
        <ele>276</ele>
        <time>2020-03-04T10:31:58Z</time>
      </trkpt>
      <trkpt lat="46.89356" lon="5.64893">
        <ele>276.2</ele>
        <time>2020-03-04T10:31:59Z</time>
      </trkpt>
      <trkpt lat="46.8936" lon="5.6489">
        <ele>276.2</ele>
        <time>2020-03-04T10:32:00Z</time>
      </trkpt>
      <trkpt lat="46.89364" lon="5.64886">
        <ele>276.6</ele>
        <time>2020-03-04T10:32:01Z</time>
      </trkpt>
      <trkpt lat="46.89367" lon="5.64882">
        <ele>276.6</ele>
        <time>2020-03-04T10:32:02Z</time>
      </trkpt>
      <trkpt lat="46.89371" lon="5.64879">
        <ele>276.8</ele>
        <time>2020-03-04T10:32:03Z</time>
      </trkpt>
      <trkpt lat="46.89375" lon="5.64875">
        <ele>276.8</ele>
        <time>2020-03-04T10:32:04Z</time>
      </trkpt>
      <trkpt lat="46.89378" lon="5.64871">
        <ele>277</ele>
        <time>2020-03-04T10:32:05Z</time>
      </trkpt>
      <trkpt lat="46.89382" lon="5.64868">
        <ele>277</ele>
        <time>2020-03-04T10:32:06Z</time>
      </trkpt>
      <trkpt lat="46.89385" lon="5.64864">
        <ele>277</ele>
        <time>2020-03-04T10:32:07Z</time>
      </trkpt>
      <trkpt lat="46.89389" lon="5.64861">
        <ele>277.4</ele>
        <time>2020-03-04T10:32:08Z</time>
      </trkpt>
      <trkpt lat="46.89392" lon="5.64858">
        <ele>277.4</ele>
        <time>2020-03-04T10:32:09Z</time>
      </trkpt>
      <trkpt lat="46.89395" lon="5.64854">
        <ele>277.6</ele>
        <time>2020-03-04T10:32:10Z</time>
      </trkpt>
      <trkpt lat="46.89398" lon="5.64851">
        <ele>277.6</ele>
        <time>2020-03-04T10:32:11Z</time>
      </trkpt>
      <trkpt lat="46.89401" lon="5.64848">
        <ele>278</ele>
        <time>2020-03-04T10:32:12Z</time>
      </trkpt>
      <trkpt lat="46.89405" lon="5.64845">
        <ele>278</ele>
        <time>2020-03-04T10:32:13Z</time>
      </trkpt>
      <trkpt lat="46.89408" lon="5.64842">
        <ele>278.2</ele>
        <time>2020-03-04T10:32:14Z</time>
      </trkpt>
      <trkpt lat="46.89411" lon="5.64838">
        <ele>278.2</ele>
        <time>2020-03-04T10:32:15Z</time>
      </trkpt>
      <trkpt lat="46.89414" lon="5.64835">
        <ele>278.6</ele>
        <time>2020-03-04T10:32:16Z</time>
      </trkpt>
      <trkpt lat="46.89416" lon="5.64832">
        <ele>278.6</ele>
        <time>2020-03-04T10:32:17Z</time>
      </trkpt>
      <trkpt lat="46.89419" lon="5.64829">
        <ele>278.8</ele>
        <time>2020-03-04T10:32:18Z</time>
      </trkpt>
      <trkpt lat="46.89422" lon="5.64826">
        <ele>278.8</ele>
        <time>2020-03-04T10:32:19Z</time>
      </trkpt>
      <trkpt lat="46.89425" lon="5.64824">
        <ele>279.2</ele>
        <time>2020-03-04T10:32:20Z</time>
      </trkpt>
      <trkpt lat="46.89427" lon="5.64822">
        <ele>279.2</ele>
        <time>2020-03-04T10:32:21Z</time>
      </trkpt>
      <trkpt lat="46.8943" lon="5.6482">
        <ele>279.4</ele>
        <time>2020-03-04T10:32:22Z</time>
      </trkpt>
      <trkpt lat="46.89432" lon="5.64817">
        <ele>279.4</ele>
        <time>2020-03-04T10:32:23Z</time>
      </trkpt>
      <trkpt lat="46.89434" lon="5.64815">
        <ele>279.6</ele>
        <time>2020-03-04T10:32:24Z</time>
      </trkpt>
      <trkpt lat="46.89436" lon="5.64813">
        <ele>279.6</ele>
        <time>2020-03-04T10:32:25Z</time>
      </trkpt>
      <trkpt lat="46.89438" lon="5.6481">
        <ele>279.8</ele>
        <time>2020-03-04T10:32:26Z</time>
      </trkpt>
      <trkpt lat="46.89441" lon="5.64808">
        <ele>279.8</ele>
        <time>2020-03-04T10:32:27Z</time>
      </trkpt>
      <trkpt lat="46.89443" lon="5.64806">
        <ele>279.8</ele>
        <time>2020-03-04T10:32:28Z</time>
      </trkpt>
      <trkpt lat="46.89445" lon="5.64804">
        <ele>280</ele>
        <time>2020-03-04T10:32:29Z</time>
      </trkpt>
      <trkpt lat="46.89447" lon="5.64802">
        <ele>280</ele>
        <time>2020-03-04T10:32:30Z</time>
      </trkpt>
      <trkpt lat="46.89449" lon="5.64799">
        <ele>280</ele>
        <time>2020-03-04T10:32:31Z</time>
      </trkpt>
      <trkpt lat="46.89451" lon="5.64797">
        <ele>280.4</ele>
        <time>2020-03-04T10:32:32Z</time>
      </trkpt>
      <trkpt lat="46.89453" lon="5.64795">
        <ele>280.4</ele>
        <time>2020-03-04T10:32:33Z</time>
      </trkpt>
      <trkpt lat="46.89455" lon="5.64793">
        <ele>280.4</ele>
        <time>2020-03-04T10:32:34Z</time>
      </trkpt>
      <trkpt lat="46.89458" lon="5.64791">
        <ele>280.4</ele>
        <time>2020-03-04T10:32:35Z</time>
      </trkpt>
      <trkpt lat="46.8946" lon="5.64788">
        <ele>280.6</ele>
        <time>2020-03-04T10:32:36Z</time>
      </trkpt>
      <trkpt lat="46.89463" lon="5.64786">
        <ele>280.6</ele>
        <time>2020-03-04T10:32:37Z</time>
      </trkpt>
      <trkpt lat="46.89465" lon="5.64783">
        <ele>280.6</ele>
        <time>2020-03-04T10:32:38Z</time>
      </trkpt>
      <trkpt lat="46.89467" lon="5.6478">
        <ele>280.6</ele>
        <time>2020-03-04T10:32:39Z</time>
      </trkpt>
      <trkpt lat="46.8947" lon="5.64778">
        <ele>280.6</ele>
        <time>2020-03-04T10:32:40Z</time>
      </trkpt>
      <trkpt lat="46.89472" lon="5.64775">
        <ele>280.6</ele>
        <time>2020-03-04T10:32:41Z</time>
      </trkpt>
      <trkpt lat="46.89475" lon="5.64772">
        <ele>280.8</ele>
        <time>2020-03-04T10:32:42Z</time>
      </trkpt>
      <trkpt lat="46.89478" lon="5.6477">
        <ele>280.8</ele>
        <time>2020-03-04T10:32:43Z</time>
      </trkpt>
      <trkpt lat="46.8948" lon="5.64767">
        <ele>281</ele>
        <time>2020-03-04T10:32:44Z</time>
      </trkpt>
      <trkpt lat="46.89483" lon="5.64765">
        <ele>281</ele>
        <time>2020-03-04T10:32:45Z</time>
      </trkpt>
      <trkpt lat="46.89485" lon="5.64762">
        <ele>281.4</ele>
        <time>2020-03-04T10:32:46Z</time>
      </trkpt>
      <trkpt lat="46.89487" lon="5.64759">
        <ele>281.4</ele>
        <time>2020-03-04T10:32:47Z</time>
      </trkpt>
      <trkpt lat="46.8949" lon="5.64756">
        <ele>281.4</ele>
        <time>2020-03-04T10:32:48Z</time>
      </trkpt>
      <trkpt lat="46.89493" lon="5.64754">
        <ele>281.4</ele>
        <time>2020-03-04T10:32:49Z</time>
      </trkpt>
      <trkpt lat="46.89495" lon="5.64751">
        <ele>281.4</ele>
        <time>2020-03-04T10:32:50Z</time>
      </trkpt>
      <trkpt lat="46.89498" lon="5.64749">
        <ele>281.4</ele>
        <time>2020-03-04T10:32:51Z</time>
      </trkpt>
      <trkpt lat="46.895" lon="5.64746">
        <ele>281.4</ele>
        <time>2020-03-04T10:32:52Z</time>
      </trkpt>
      <trkpt lat="46.89503" lon="5.64743">
        <ele>281.4</ele>
        <time>2020-03-04T10:32:53Z</time>
      </trkpt>
      <trkpt lat="46.89506" lon="5.6474">
        <ele>281.4</ele>
        <time>2020-03-04T10:32:54Z</time>
      </trkpt>
      <trkpt lat="46.89509" lon="5.64738">
        <ele>281.6</ele>
        <time>2020-03-04T10:32:55Z</time>
      </trkpt>
      <trkpt lat="46.89511" lon="5.64735">
        <ele>281.6</ele>
        <time>2020-03-04T10:32:56Z</time>
      </trkpt>
      <trkpt lat="46.89514" lon="5.64733">
        <ele>281.6</ele>
        <time>2020-03-04T10:32:57Z</time>
      </trkpt>
      <trkpt lat="46.89516" lon="5.6473">
        <ele>281.8</ele>
        <time>2020-03-04T10:32:58Z</time>
      </trkpt>
      <trkpt lat="46.89519" lon="5.64728">
        <ele>281.8</ele>
        <time>2020-03-04T10:32:59Z</time>
      </trkpt>
      <trkpt lat="46.89522" lon="5.64725">
        <ele>281.8</ele>
        <time>2020-03-04T10:33:00Z</time>
      </trkpt>
      <trkpt lat="46.89525" lon="5.64722">
        <ele>281.8</ele>
        <time>2020-03-04T10:33:01Z</time>
      </trkpt>
      <trkpt lat="46.89529" lon="5.64719">
        <ele>281.8</ele>
        <time>2020-03-04T10:33:02Z</time>
      </trkpt>
      <trkpt lat="46.89532" lon="5.64715">
        <ele>281.8</ele>
        <time>2020-03-04T10:33:03Z</time>
      </trkpt>
      <trkpt lat="46.89535" lon="5.64712">
        <ele>281.8</ele>
        <time>2020-03-04T10:33:04Z</time>
      </trkpt>
      <trkpt lat="46.89539" lon="5.64709">
        <ele>281.8</ele>
        <time>2020-03-04T10:33:05Z</time>
      </trkpt>
      <trkpt lat="46.89542" lon="5.64706">
        <ele>281.8</ele>
        <time>2020-03-04T10:33:06Z</time>
      </trkpt>
      <trkpt lat="46.89545" lon="5.64703">
        <ele>281.8</ele>
        <time>2020-03-04T10:33:07Z</time>
      </trkpt>
      <trkpt lat="46.89548" lon="5.647">
        <ele>281.8</ele>
        <time>2020-03-04T10:33:08Z</time>
      </trkpt>
      <trkpt lat="46.89551" lon="5.64697">
        <ele>281.8</ele>
        <time>2020-03-04T10:33:09Z</time>
      </trkpt>
      <trkpt lat="46.89554" lon="5.64693">
        <ele>281.8</ele>
        <time>2020-03-04T10:33:10Z</time>
      </trkpt>
      <trkpt lat="46.89558" lon="5.64691">
        <ele>281.8</ele>
        <time>2020-03-04T10:33:11Z</time>
      </trkpt>
      <trkpt lat="46.89561" lon="5.64688">
        <ele>281.6</ele>
        <time>2020-03-04T10:33:12Z</time>
      </trkpt>
      <trkpt lat="46.89564" lon="5.64686">
        <ele>281.6</ele>
        <time>2020-03-04T10:33:13Z</time>
      </trkpt>
      <trkpt lat="46.89567" lon="5.64683">
        <ele>281.6</ele>
        <time>2020-03-04T10:33:14Z</time>
      </trkpt>
      <trkpt lat="46.8957" lon="5.64679">
        <ele>281.4</ele>
        <time>2020-03-04T10:33:15Z</time>
      </trkpt>
      <trkpt lat="46.89573" lon="5.64676">
        <ele>281.4</ele>
        <time>2020-03-04T10:33:16Z</time>
      </trkpt>
      <trkpt lat="46.89577" lon="5.64672">
        <ele>281.4</ele>
        <time>2020-03-04T10:33:17Z</time>
      </trkpt>
      <trkpt lat="46.8958" lon="5.64668">
        <ele>281.4</ele>
        <time>2020-03-04T10:33:18Z</time>
      </trkpt>
      <trkpt lat="46.89584" lon="5.64665">
        <ele>281.4</ele>
        <time>2020-03-04T10:33:19Z</time>
      </trkpt>
      <trkpt lat="46.89587" lon="5.64661">
        <ele>281</ele>
        <time>2020-03-04T10:33:20Z</time>
      </trkpt>
      <trkpt lat="46.89591" lon="5.64657">
        <ele>281</ele>
        <time>2020-03-04T10:33:21Z</time>
      </trkpt>
      <trkpt lat="46.89595" lon="5.64654">
        <ele>280.8</ele>
        <time>2020-03-04T10:33:22Z</time>
      </trkpt>
      <trkpt lat="46.89599" lon="5.6465">
        <ele>280.6</ele>
        <time>2020-03-04T10:33:23Z</time>
      </trkpt>
      <trkpt lat="46.89603" lon="5.64645">
        <ele>280.2</ele>
        <time>2020-03-04T10:33:24Z</time>
      </trkpt>
      <trkpt lat="46.89607" lon="5.64641">
        <ele>280.2</ele>
        <time>2020-03-04T10:33:25Z</time>
      </trkpt>
      <trkpt lat="46.89611" lon="5.64636">
        <ele>280</ele>
        <time>2020-03-04T10:33:26Z</time>
      </trkpt>
      <trkpt lat="46.89616" lon="5.64631">
        <ele>280</ele>
        <time>2020-03-04T10:33:27Z</time>
      </trkpt>
      <trkpt lat="46.89621" lon="5.64626">
        <ele>279.6</ele>
        <time>2020-03-04T10:33:28Z</time>
      </trkpt>
      <trkpt lat="46.89625" lon="5.64621">
        <ele>279.4</ele>
        <time>2020-03-04T10:33:29Z</time>
      </trkpt>
      <trkpt lat="46.8963" lon="5.64615">
        <ele>279.2</ele>
        <time>2020-03-04T10:33:30Z</time>
      </trkpt>
      <trkpt lat="46.89636" lon="5.6461">
        <ele>278.8</ele>
        <time>2020-03-04T10:33:31Z</time>
      </trkpt>
      <trkpt lat="46.89641" lon="5.64605">
        <ele>278.6</ele>
        <time>2020-03-04T10:33:32Z</time>
      </trkpt>
      <trkpt lat="46.89646" lon="5.646">
        <ele>278.2</ele>
        <time>2020-03-04T10:33:33Z</time>
      </trkpt>
      <trkpt lat="46.89651" lon="5.64595">
        <ele>278</ele>
        <time>2020-03-04T10:33:34Z</time>
      </trkpt>
      <trkpt lat="46.89656" lon="5.6459">
        <ele>277.6</ele>
        <time>2020-03-04T10:33:35Z</time>
      </trkpt>
      <trkpt lat="46.89661" lon="5.64584">
        <ele>277.6</ele>
        <time>2020-03-04T10:33:36Z</time>
      </trkpt>
      <trkpt lat="46.89666" lon="5.64579">
        <ele>277.4</ele>
        <time>2020-03-04T10:33:37Z</time>
      </trkpt>
      <trkpt lat="46.89671" lon="5.64574">
        <ele>277.4</ele>
        <time>2020-03-04T10:33:38Z</time>
      </trkpt>
      <trkpt lat="46.89676" lon="5.64569">
        <ele>277.2</ele>
        <time>2020-03-04T10:33:39Z</time>
      </trkpt>
      <trkpt lat="46.89681" lon="5.64564">
        <ele>277.2</ele>
        <time>2020-03-04T10:33:40Z</time>
      </trkpt>
      <trkpt lat="46.89686" lon="5.64559">
        <ele>276.8</ele>
        <time>2020-03-04T10:33:41Z</time>
      </trkpt>
      <trkpt lat="46.89691" lon="5.64554">
        <ele>276.8</ele>
        <time>2020-03-04T10:33:42Z</time>
      </trkpt>
      <trkpt lat="46.89695" lon="5.64549">
        <ele>276.8</ele>
        <time>2020-03-04T10:33:43Z</time>
      </trkpt>
      <trkpt lat="46.897" lon="5.64545">
        <ele>276.6</ele>
        <time>2020-03-04T10:33:44Z</time>
      </trkpt>
      <trkpt lat="46.89704" lon="5.64541">
        <ele>276.6</ele>
        <time>2020-03-04T10:33:45Z</time>
      </trkpt>
      <trkpt lat="46.89709" lon="5.64537">
        <ele>276.6</ele>
        <time>2020-03-04T10:33:46Z</time>
      </trkpt>
      <trkpt lat="46.89713" lon="5.64532">
        <ele>276.6</ele>
        <time>2020-03-04T10:33:47Z</time>
      </trkpt>
      <trkpt lat="46.89718" lon="5.64528">
        <ele>276.2</ele>
        <time>2020-03-04T10:33:48Z</time>
      </trkpt>
      <trkpt lat="46.89722" lon="5.64525">
        <ele>276.2</ele>
        <time>2020-03-04T10:33:49Z</time>
      </trkpt>
      <trkpt lat="46.89726" lon="5.64521">
        <ele>276.2</ele>
        <time>2020-03-04T10:33:50Z</time>
      </trkpt>
      <trkpt lat="46.8973" lon="5.64517">
        <ele>276.2</ele>
        <time>2020-03-04T10:33:51Z</time>
      </trkpt>
      <trkpt lat="46.89734" lon="5.64513">
        <ele>276.2</ele>
        <time>2020-03-04T10:33:52Z</time>
      </trkpt>
      <trkpt lat="46.89738" lon="5.64509">
        <ele>276.2</ele>
        <time>2020-03-04T10:33:53Z</time>
      </trkpt>
      <trkpt lat="46.89742" lon="5.64505">
        <ele>276.2</ele>
        <time>2020-03-04T10:33:54Z</time>
      </trkpt>
      <trkpt lat="46.89747" lon="5.64501">
        <ele>276.2</ele>
        <time>2020-03-04T10:33:55Z</time>
      </trkpt>
      <trkpt lat="46.89751" lon="5.64497">
        <ele>276.2</ele>
        <time>2020-03-04T10:33:56Z</time>
      </trkpt>
      <trkpt lat="46.89755" lon="5.64492">
        <ele>276.2</ele>
        <time>2020-03-04T10:33:57Z</time>
      </trkpt>
      <trkpt lat="46.8976" lon="5.64488">
        <ele>276.2</ele>
        <time>2020-03-04T10:33:58Z</time>
      </trkpt>
      <trkpt lat="46.89765" lon="5.64484">
        <ele>276.2</ele>
        <time>2020-03-04T10:33:59Z</time>
      </trkpt>
      <trkpt lat="46.8977" lon="5.64479">
        <ele>276.2</ele>
        <time>2020-03-04T10:34:00Z</time>
      </trkpt>
      <trkpt lat="46.89775" lon="5.64474">
        <ele>276.2</ele>
        <time>2020-03-04T10:34:01Z</time>
      </trkpt>
      <trkpt lat="46.8978" lon="5.64469">
        <ele>276.2</ele>
        <time>2020-03-04T10:34:02Z</time>
      </trkpt>
      <trkpt lat="46.89786" lon="5.64463">
        <ele>276</ele>
        <time>2020-03-04T10:34:03Z</time>
      </trkpt>
      <trkpt lat="46.89791" lon="5.64458">
        <ele>276</ele>
        <time>2020-03-04T10:34:04Z</time>
      </trkpt>
      <trkpt lat="46.89797" lon="5.64452">
        <ele>275.6</ele>
        <time>2020-03-04T10:34:05Z</time>
      </trkpt>
      <trkpt lat="46.89802" lon="5.64447">
        <ele>275.4</ele>
        <time>2020-03-04T10:34:06Z</time>
      </trkpt>
      <trkpt lat="46.89808" lon="5.64441">
        <ele>275</ele>
        <time>2020-03-04T10:34:07Z</time>
      </trkpt>
      <trkpt lat="46.89814" lon="5.64435">
        <ele>274.8</ele>
        <time>2020-03-04T10:34:08Z</time>
      </trkpt>
      <trkpt lat="46.89821" lon="5.64429">
        <ele>274.4</ele>
        <time>2020-03-04T10:34:09Z</time>
      </trkpt>
      <trkpt lat="46.89827" lon="5.64423">
        <ele>274.2</ele>
        <time>2020-03-04T10:34:10Z</time>
      </trkpt>
      <trkpt lat="46.89834" lon="5.64416">
        <ele>273.8</ele>
        <time>2020-03-04T10:34:11Z</time>
      </trkpt>
      <trkpt lat="46.89841" lon="5.64409">
        <ele>273.6</ele>
        <time>2020-03-04T10:34:12Z</time>
      </trkpt>
      <trkpt lat="46.89848" lon="5.64402">
        <ele>273.2</ele>
        <time>2020-03-04T10:34:13Z</time>
      </trkpt>
      <trkpt lat="46.89856" lon="5.64395">
        <ele>272.8</ele>
        <time>2020-03-04T10:34:14Z</time>
      </trkpt>
      <trkpt lat="46.89864" lon="5.64388">
        <ele>272.4</ele>
        <time>2020-03-04T10:34:15Z</time>
      </trkpt>
      <trkpt lat="46.89872" lon="5.6438">
        <ele>272</ele>
        <time>2020-03-04T10:34:16Z</time>
      </trkpt>
      <trkpt lat="46.8988" lon="5.64371">
        <ele>271.4</ele>
        <time>2020-03-04T10:34:17Z</time>
      </trkpt>
      <trkpt lat="46.89888" lon="5.64363">
        <ele>270.8</ele>
        <time>2020-03-04T10:34:18Z</time>
      </trkpt>
      <trkpt lat="46.89896" lon="5.64354">
        <ele>270.2</ele>
        <time>2020-03-04T10:34:19Z</time>
      </trkpt>
      <trkpt lat="46.89905" lon="5.64347">
        <ele>269.6</ele>
        <time>2020-03-04T10:34:20Z</time>
      </trkpt>
      <trkpt lat="46.89914" lon="5.64339">
        <ele>269</ele>
        <time>2020-03-04T10:34:21Z</time>
      </trkpt>
      <trkpt lat="46.89922" lon="5.6433">
        <ele>268.2</ele>
        <time>2020-03-04T10:34:22Z</time>
      </trkpt>
      <trkpt lat="46.89931" lon="5.64323">
        <ele>267.8</ele>
        <time>2020-03-04T10:34:23Z</time>
      </trkpt>
      <trkpt lat="46.8994" lon="5.64315">
        <ele>267.4</ele>
        <time>2020-03-04T10:34:24Z</time>
      </trkpt>
      <trkpt lat="46.89948" lon="5.64307">
        <ele>266.8</ele>
        <time>2020-03-04T10:34:25Z</time>
      </trkpt>
      <trkpt lat="46.89957" lon="5.64298">
        <ele>266.4</ele>
        <time>2020-03-04T10:34:26Z</time>
      </trkpt>
      <trkpt lat="46.89965" lon="5.6429">
        <ele>266</ele>
        <time>2020-03-04T10:34:27Z</time>
      </trkpt>
      <trkpt lat="46.89974" lon="5.64281">
        <ele>265.4</ele>
        <time>2020-03-04T10:34:28Z</time>
      </trkpt>
      <trkpt lat="46.89982" lon="5.64273">
        <ele>265</ele>
        <time>2020-03-04T10:34:29Z</time>
      </trkpt>
      <trkpt lat="46.89991" lon="5.64265">
        <ele>264.4</ele>
        <time>2020-03-04T10:34:30Z</time>
      </trkpt>
      <trkpt lat="46.9" lon="5.64256">
        <ele>264</ele>
        <time>2020-03-04T10:34:31Z</time>
      </trkpt>
      <trkpt lat="46.90008" lon="5.64247">
        <ele>263.6</ele>
        <time>2020-03-04T10:34:32Z</time>
      </trkpt>
      <trkpt lat="46.90017" lon="5.64238">
        <ele>263.2</ele>
        <time>2020-03-04T10:34:33Z</time>
      </trkpt>
      <trkpt lat="46.90027" lon="5.6423">
        <ele>262.6</ele>
        <time>2020-03-04T10:34:34Z</time>
      </trkpt>
      <trkpt lat="46.90036" lon="5.64221">
        <ele>262.2</ele>
        <time>2020-03-04T10:34:35Z</time>
      </trkpt>
      <trkpt lat="46.90045" lon="5.64213">
        <ele>261.8</ele>
        <time>2020-03-04T10:34:36Z</time>
      </trkpt>
      <trkpt lat="46.90053" lon="5.64204">
        <ele>261.4</ele>
        <time>2020-03-04T10:34:37Z</time>
      </trkpt>
      <trkpt lat="46.90062" lon="5.64196">
        <ele>261</ele>
        <time>2020-03-04T10:34:38Z</time>
      </trkpt>
      <trkpt lat="46.9007" lon="5.64189">
        <ele>260.6</ele>
        <time>2020-03-04T10:34:39Z</time>
      </trkpt>
      <trkpt lat="46.90078" lon="5.64182">
        <ele>260.2</ele>
        <time>2020-03-04T10:34:40Z</time>
      </trkpt>
      <trkpt lat="46.90087" lon="5.64174">
        <ele>260</ele>
        <time>2020-03-04T10:34:41Z</time>
      </trkpt>
      <trkpt lat="46.90095" lon="5.64166">
        <ele>259.8</ele>
        <time>2020-03-04T10:34:42Z</time>
      </trkpt>
      <trkpt lat="46.90104" lon="5.64157">
        <ele>259.4</ele>
        <time>2020-03-04T10:34:43Z</time>
      </trkpt>
      <trkpt lat="46.90112" lon="5.64149">
        <ele>259.2</ele>
        <time>2020-03-04T10:34:44Z</time>
      </trkpt>
      <trkpt lat="46.90121" lon="5.6414">
        <ele>258.8</ele>
        <time>2020-03-04T10:34:45Z</time>
      </trkpt>
      <trkpt lat="46.9013" lon="5.64132">
        <ele>258.6</ele>
        <time>2020-03-04T10:34:46Z</time>
      </trkpt>
      <trkpt lat="46.90138" lon="5.64124">
        <ele>258.6</ele>
        <time>2020-03-04T10:34:47Z</time>
      </trkpt>
      <trkpt lat="46.90146" lon="5.64117">
        <ele>258.2</ele>
        <time>2020-03-04T10:34:48Z</time>
      </trkpt>
      <trkpt lat="46.90155" lon="5.64109">
        <ele>258.2</ele>
        <time>2020-03-04T10:34:49Z</time>
      </trkpt>
      <trkpt lat="46.90163" lon="5.64102">
        <ele>258.2</ele>
        <time>2020-03-04T10:34:50Z</time>
      </trkpt>
      <trkpt lat="46.90171" lon="5.64094">
        <ele>258</ele>
        <time>2020-03-04T10:34:51Z</time>
      </trkpt>
      <trkpt lat="46.90179" lon="5.64086">
        <ele>258</ele>
        <time>2020-03-04T10:34:52Z</time>
      </trkpt>
      <trkpt lat="46.90186" lon="5.64079">
        <ele>258</ele>
        <time>2020-03-04T10:34:53Z</time>
      </trkpt>
      <trkpt lat="46.90193" lon="5.64072">
        <ele>258.2</ele>
        <time>2020-03-04T10:34:54Z</time>
      </trkpt>
      <trkpt lat="46.90201" lon="5.64064">
        <ele>258.2</ele>
        <time>2020-03-04T10:34:55Z</time>
      </trkpt>
      <trkpt lat="46.90208" lon="5.64057">
        <ele>258.2</ele>
        <time>2020-03-04T10:34:56Z</time>
      </trkpt>
      <trkpt lat="46.90215" lon="5.64051">
        <ele>258.4</ele>
        <time>2020-03-04T10:34:57Z</time>
      </trkpt>
      <trkpt lat="46.90222" lon="5.64044">
        <ele>258.4</ele>
        <time>2020-03-04T10:34:58Z</time>
      </trkpt>
      <trkpt lat="46.90229" lon="5.64038">
        <ele>258.4</ele>
        <time>2020-03-04T10:34:59Z</time>
      </trkpt>
      <trkpt lat="46.90236" lon="5.64031">
        <ele>258.4</ele>
        <time>2020-03-04T10:35:00Z</time>
      </trkpt>
      <trkpt lat="46.90242" lon="5.64025">
        <ele>258.4</ele>
        <time>2020-03-04T10:35:01Z</time>
      </trkpt>
      <trkpt lat="46.90249" lon="5.64018">
        <ele>258.4</ele>
        <time>2020-03-04T10:35:02Z</time>
      </trkpt>
      <trkpt lat="46.90255" lon="5.64012">
        <ele>258.6</ele>
        <time>2020-03-04T10:35:03Z</time>
      </trkpt>
      <trkpt lat="46.90262" lon="5.64006">
        <ele>258.6</ele>
        <time>2020-03-04T10:35:04Z</time>
      </trkpt>
      <trkpt lat="46.90268" lon="5.64">
        <ele>258.6</ele>
        <time>2020-03-04T10:35:05Z</time>
      </trkpt>
      <trkpt lat="46.90275" lon="5.63994">
        <ele>258.6</ele>
        <time>2020-03-04T10:35:06Z</time>
      </trkpt>
      <trkpt lat="46.90281" lon="5.63988">
        <ele>258.6</ele>
        <time>2020-03-04T10:35:07Z</time>
      </trkpt>
      <trkpt lat="46.90288" lon="5.63981">
        <ele>258.6</ele>
        <time>2020-03-04T10:35:08Z</time>
      </trkpt>
      <trkpt lat="46.90294" lon="5.63975">
        <ele>258.6</ele>
        <time>2020-03-04T10:35:09Z</time>
      </trkpt>
      <trkpt lat="46.903" lon="5.63969">
        <ele>258.4</ele>
        <time>2020-03-04T10:35:10Z</time>
      </trkpt>
      <trkpt lat="46.90307" lon="5.63963">
        <ele>258.4</ele>
        <time>2020-03-04T10:35:11Z</time>
      </trkpt>
      <trkpt lat="46.90313" lon="5.63957">
        <ele>258</ele>
        <time>2020-03-04T10:35:12Z</time>
      </trkpt>
      <trkpt lat="46.90319" lon="5.63951">
        <ele>258</ele>
        <time>2020-03-04T10:35:13Z</time>
      </trkpt>
      <trkpt lat="46.90326" lon="5.63945">
        <ele>257.6</ele>
        <time>2020-03-04T10:35:14Z</time>
      </trkpt>
      <trkpt lat="46.90332" lon="5.63939">
        <ele>257.6</ele>
        <time>2020-03-04T10:35:15Z</time>
      </trkpt>
      <trkpt lat="46.90339" lon="5.63933">
        <ele>257.2</ele>
        <time>2020-03-04T10:35:16Z</time>
      </trkpt>
      <trkpt lat="46.90346" lon="5.63926">
        <ele>257</ele>
        <time>2020-03-04T10:35:17Z</time>
      </trkpt>
      <trkpt lat="46.90352" lon="5.6392">
        <ele>256.8</ele>
        <time>2020-03-04T10:35:18Z</time>
      </trkpt>
      <trkpt lat="46.90359" lon="5.63913">
        <ele>256.6</ele>
        <time>2020-03-04T10:35:19Z</time>
      </trkpt>
      <trkpt lat="46.90366" lon="5.63907">
        <ele>256.4</ele>
        <time>2020-03-04T10:35:20Z</time>
      </trkpt>
      <trkpt lat="46.90374" lon="5.639">
        <ele>256</ele>
        <time>2020-03-04T10:35:21Z</time>
      </trkpt>
      <trkpt lat="46.90381" lon="5.63893">
        <ele>255.8</ele>
        <time>2020-03-04T10:35:22Z</time>
      </trkpt>
      <trkpt lat="46.90388" lon="5.63886">
        <ele>255.4</ele>
        <time>2020-03-04T10:35:23Z</time>
      </trkpt>
      <trkpt lat="46.90396" lon="5.63879">
        <ele>255.2</ele>
        <time>2020-03-04T10:35:24Z</time>
      </trkpt>
      <trkpt lat="46.90403" lon="5.63872">
        <ele>254.8</ele>
        <time>2020-03-04T10:35:25Z</time>
      </trkpt>
      <trkpt lat="46.90411" lon="5.63865">
        <ele>254.4</ele>
        <time>2020-03-04T10:35:26Z</time>
      </trkpt>
      <trkpt lat="46.90418" lon="5.63858">
        <ele>254</ele>
        <time>2020-03-04T10:35:27Z</time>
      </trkpt>
      <trkpt lat="46.90426" lon="5.63851">
        <ele>253.6</ele>
        <time>2020-03-04T10:35:28Z</time>
      </trkpt>
      <trkpt lat="46.90434" lon="5.63843">
        <ele>253.2</ele>
        <time>2020-03-04T10:35:29Z</time>
      </trkpt>
      <trkpt lat="46.90442" lon="5.63836">
        <ele>252.8</ele>
        <time>2020-03-04T10:35:30Z</time>
      </trkpt>
      <trkpt lat="46.9045" lon="5.63828">
        <ele>252.2</ele>
        <time>2020-03-04T10:35:31Z</time>
      </trkpt>
      <trkpt lat="46.90458" lon="5.6382">
        <ele>252</ele>
        <time>2020-03-04T10:35:32Z</time>
      </trkpt>
      <trkpt lat="46.90466" lon="5.63812">
        <ele>251.4</ele>
        <time>2020-03-04T10:35:33Z</time>
      </trkpt>
      <trkpt lat="46.90474" lon="5.63804">
        <ele>251.2</ele>
        <time>2020-03-04T10:35:34Z</time>
      </trkpt>
      <trkpt lat="46.90482" lon="5.63796">
        <ele>250.6</ele>
        <time>2020-03-04T10:35:35Z</time>
      </trkpt>
      <trkpt lat="46.9049" lon="5.63788">
        <ele>250.2</ele>
        <time>2020-03-04T10:35:36Z</time>
      </trkpt>
      <trkpt lat="46.90499" lon="5.63779">
        <ele>249.8</ele>
        <time>2020-03-04T10:35:37Z</time>
      </trkpt>
      <trkpt lat="46.90508" lon="5.6377">
        <ele>249.2</ele>
        <time>2020-03-04T10:35:38Z</time>
      </trkpt>
      <trkpt lat="46.90517" lon="5.63762">
        <ele>248.6</ele>
        <time>2020-03-04T10:35:39Z</time>
      </trkpt>
      <trkpt lat="46.90526" lon="5.63754">
        <ele>248.2</ele>
        <time>2020-03-04T10:35:40Z</time>
      </trkpt>
      <trkpt lat="46.90534" lon="5.63746">
        <ele>247.8</ele>
        <time>2020-03-04T10:35:41Z</time>
      </trkpt>
      <trkpt lat="46.90542" lon="5.63738">
        <ele>247.2</ele>
        <time>2020-03-04T10:35:42Z</time>
      </trkpt>
      <trkpt lat="46.9055" lon="5.63731">
        <ele>247</ele>
        <time>2020-03-04T10:35:43Z</time>
      </trkpt>
      <trkpt lat="46.90558" lon="5.63723">
        <ele>246.6</ele>
        <time>2020-03-04T10:35:44Z</time>
      </trkpt>
      <trkpt lat="46.90567" lon="5.63715">
        <ele>246.2</ele>
        <time>2020-03-04T10:35:45Z</time>
      </trkpt>
      <trkpt lat="46.90575" lon="5.63707">
        <ele>245.8</ele>
        <time>2020-03-04T10:35:46Z</time>
      </trkpt>
      <trkpt lat="46.90583" lon="5.637">
        <ele>245.2</ele>
        <time>2020-03-04T10:35:47Z</time>
      </trkpt>
      <trkpt lat="46.90592" lon="5.63692">
        <ele>245</ele>
        <time>2020-03-04T10:35:48Z</time>
      </trkpt>
      <trkpt lat="46.90601" lon="5.63685">
        <ele>244.6</ele>
        <time>2020-03-04T10:35:49Z</time>
      </trkpt>
      <trkpt lat="46.90609" lon="5.63677">
        <ele>244.2</ele>
        <time>2020-03-04T10:35:50Z</time>
      </trkpt>
      <trkpt lat="46.90617" lon="5.63669">
        <ele>244</ele>
        <time>2020-03-04T10:35:51Z</time>
      </trkpt>
      <trkpt lat="46.90625" lon="5.63662">
        <ele>243.6</ele>
        <time>2020-03-04T10:35:52Z</time>
      </trkpt>
      <trkpt lat="46.90632" lon="5.63654">
        <ele>243.2</ele>
        <time>2020-03-04T10:35:53Z</time>
      </trkpt>
      <trkpt lat="46.9064" lon="5.63646">
        <ele>243</ele>
        <time>2020-03-04T10:35:54Z</time>
      </trkpt>
      <trkpt lat="46.90648" lon="5.63638">
        <ele>242.6</ele>
        <time>2020-03-04T10:35:55Z</time>
      </trkpt>
      <trkpt lat="46.90656" lon="5.63631">
        <ele>242.4</ele>
        <time>2020-03-04T10:35:56Z</time>
      </trkpt>
      <trkpt lat="46.90664" lon="5.63623">
        <ele>242.2</ele>
        <time>2020-03-04T10:35:57Z</time>
      </trkpt>
      <trkpt lat="46.90671" lon="5.63615">
        <ele>241.8</ele>
        <time>2020-03-04T10:35:58Z</time>
      </trkpt>
      <trkpt lat="46.9068" lon="5.63609">
        <ele>241.8</ele>
        <time>2020-03-04T10:35:59Z</time>
      </trkpt>
      <trkpt lat="46.90687" lon="5.63602">
        <ele>241.6</ele>
        <time>2020-03-04T10:36:00Z</time>
      </trkpt>
      <trkpt lat="46.90696" lon="5.63595">
        <ele>241.6</ele>
        <time>2020-03-04T10:36:01Z</time>
      </trkpt>
      <trkpt lat="46.90703" lon="5.63587">
        <ele>241.6</ele>
        <time>2020-03-04T10:36:02Z</time>
      </trkpt>
      <trkpt lat="46.9071" lon="5.6358">
        <ele>241.6</ele>
        <time>2020-03-04T10:36:03Z</time>
      </trkpt>
      <trkpt lat="46.90717" lon="5.63573">
        <ele>241.2</ele>
        <time>2020-03-04T10:36:04Z</time>
      </trkpt>
      <trkpt lat="46.90725" lon="5.63567">
        <ele>241.2</ele>
        <time>2020-03-04T10:36:05Z</time>
      </trkpt>
      <trkpt lat="46.90732" lon="5.6356">
        <ele>241</ele>
        <time>2020-03-04T10:36:06Z</time>
      </trkpt>
      <trkpt lat="46.90739" lon="5.63553">
        <ele>240.6</ele>
        <time>2020-03-04T10:36:07Z</time>
      </trkpt>
      <trkpt lat="46.90745" lon="5.63546">
        <ele>240.6</ele>
        <time>2020-03-04T10:36:08Z</time>
      </trkpt>
      <trkpt lat="46.90751" lon="5.6354">
        <ele>240.6</ele>
        <time>2020-03-04T10:36:09Z</time>
      </trkpt>
      <trkpt lat="46.90757" lon="5.63533">
        <ele>240.6</ele>
        <time>2020-03-04T10:36:10Z</time>
      </trkpt>
      <trkpt lat="46.90764" lon="5.63528">
        <ele>240.6</ele>
        <time>2020-03-04T10:36:11Z</time>
      </trkpt>
      <trkpt lat="46.90769" lon="5.63523">
        <ele>240.6</ele>
        <time>2020-03-04T10:36:12Z</time>
      </trkpt>
      <trkpt lat="46.90775" lon="5.63517">
        <ele>240.8</ele>
        <time>2020-03-04T10:36:13Z</time>
      </trkpt>
      <trkpt lat="46.9078" lon="5.63512">
        <ele>240.8</ele>
        <time>2020-03-04T10:36:14Z</time>
      </trkpt>
      <trkpt lat="46.90785" lon="5.63507">
        <ele>240.8</ele>
        <time>2020-03-04T10:36:15Z</time>
      </trkpt>
      <trkpt lat="46.9079" lon="5.63502">
        <ele>240.8</ele>
        <time>2020-03-04T10:36:16Z</time>
      </trkpt>
      <trkpt lat="46.90794" lon="5.63497">
        <ele>240.8</ele>
        <time>2020-03-04T10:36:17Z</time>
      </trkpt>
      <trkpt lat="46.90798" lon="5.63493">
        <ele>240.8</ele>
        <time>2020-03-04T10:36:18Z</time>
      </trkpt>
      <trkpt lat="46.90802" lon="5.6349">
        <ele>240.8</ele>
        <time>2020-03-04T10:36:19Z</time>
      </trkpt>
      <trkpt lat="46.90807" lon="5.6349">
        <ele>240.8</ele>
        <time>2020-03-04T10:36:20Z</time>
      </trkpt>
      <trkpt lat="46.90811" lon="5.63491">
        <ele>240.6</ele>
        <time>2020-03-04T10:36:21Z</time>
      </trkpt>
      <trkpt lat="46.90815" lon="5.63495">
        <ele>240.6</ele>
        <time>2020-03-04T10:36:22Z</time>
      </trkpt>
      <trkpt lat="46.90818" lon="5.63499">
        <ele>240.4</ele>
        <time>2020-03-04T10:36:23Z</time>
      </trkpt>
      <trkpt lat="46.90822" lon="5.63505">
        <ele>240.4</ele>
        <time>2020-03-04T10:36:24Z</time>
      </trkpt>
      <trkpt lat="46.90826" lon="5.63511">
        <ele>240.4</ele>
        <time>2020-03-04T10:36:25Z</time>
      </trkpt>
      <trkpt lat="46.9083" lon="5.63516">
        <ele>240.4</ele>
        <time>2020-03-04T10:36:26Z</time>
      </trkpt>
      <trkpt lat="46.90835" lon="5.63521">
        <ele>240.4</ele>
        <time>2020-03-04T10:36:27Z</time>
      </trkpt>
      <trkpt lat="46.90839" lon="5.63526">
        <ele>240.4</ele>
        <time>2020-03-04T10:36:28Z</time>
      </trkpt>
      <trkpt lat="46.90843" lon="5.63531">
        <ele>240.4</ele>
        <time>2020-03-04T10:36:29Z</time>
      </trkpt>
      <trkpt lat="46.90847" lon="5.63536">
        <ele>240.4</ele>
        <time>2020-03-04T10:36:30Z</time>
      </trkpt>
      <trkpt lat="46.90851" lon="5.63541">
        <ele>240.8</ele>
        <time>2020-03-04T10:36:31Z</time>
      </trkpt>
      <trkpt lat="46.90855" lon="5.63546">
        <ele>240.8</ele>
        <time>2020-03-04T10:36:32Z</time>
      </trkpt>
      <trkpt lat="46.90859" lon="5.63551">
        <ele>240.8</ele>
        <time>2020-03-04T10:36:33Z</time>
      </trkpt>
      <trkpt lat="46.90864" lon="5.63556">
        <ele>241</ele>
        <time>2020-03-04T10:36:34Z</time>
      </trkpt>
      <trkpt lat="46.90868" lon="5.6356">
        <ele>241</ele>
        <time>2020-03-04T10:36:35Z</time>
      </trkpt>
      <trkpt lat="46.90872" lon="5.63565">
        <ele>241.2</ele>
        <time>2020-03-04T10:36:36Z</time>
      </trkpt>
      <trkpt lat="46.90876" lon="5.63569">
        <ele>241.2</ele>
        <time>2020-03-04T10:36:37Z</time>
      </trkpt>
      <trkpt lat="46.9088" lon="5.63574">
        <ele>241.6</ele>
        <time>2020-03-04T10:36:38Z</time>
      </trkpt>
      <trkpt lat="46.90883" lon="5.63578">
        <ele>241.6</ele>
        <time>2020-03-04T10:36:39Z</time>
      </trkpt>
      <trkpt lat="46.90887" lon="5.63582">
        <ele>241.8</ele>
        <time>2020-03-04T10:36:40Z</time>
      </trkpt>
      <trkpt lat="46.9089" lon="5.63586">
        <ele>241.8</ele>
        <time>2020-03-04T10:36:41Z</time>
      </trkpt>
      <trkpt lat="46.90894" lon="5.6359">
        <ele>242.2</ele>
        <time>2020-03-04T10:36:42Z</time>
      </trkpt>
      <trkpt lat="46.90897" lon="5.63594">
        <ele>242.2</ele>
        <time>2020-03-04T10:36:43Z</time>
      </trkpt>
      <trkpt lat="46.90901" lon="5.63598">
        <ele>242.6</ele>
        <time>2020-03-04T10:36:44Z</time>
      </trkpt>
      <trkpt lat="46.90904" lon="5.63601">
        <ele>242.6</ele>
        <time>2020-03-04T10:36:45Z</time>
      </trkpt>
      <trkpt lat="46.90907" lon="5.63604">
        <ele>242.6</ele>
        <time>2020-03-04T10:36:46Z</time>
      </trkpt>
      <trkpt lat="46.9091" lon="5.63608">
        <ele>242.8</ele>
        <time>2020-03-04T10:36:47Z</time>
      </trkpt>
      <trkpt lat="46.90914" lon="5.63612">
        <ele>242.8</ele>
        <time>2020-03-04T10:36:48Z</time>
      </trkpt>
      <trkpt lat="46.90917" lon="5.63616">
        <ele>243.2</ele>
        <time>2020-03-04T10:36:49Z</time>
      </trkpt>
      <trkpt lat="46.9092" lon="5.63621">
        <ele>243.2</ele>
        <time>2020-03-04T10:36:50Z</time>
      </trkpt>
      <trkpt lat="46.90924" lon="5.63625">
        <ele>243.4</ele>
        <time>2020-03-04T10:36:51Z</time>
      </trkpt>
      <trkpt lat="46.90927" lon="5.63628">
        <ele>243.4</ele>
        <time>2020-03-04T10:36:52Z</time>
      </trkpt>
      <trkpt lat="46.90931" lon="5.63632">
        <ele>243.8</ele>
        <time>2020-03-04T10:36:53Z</time>
      </trkpt>
      <trkpt lat="46.90935" lon="5.63635">
        <ele>243.8</ele>
        <time>2020-03-04T10:36:54Z</time>
      </trkpt>
      <trkpt lat="46.90938" lon="5.63639">
        <ele>244.2</ele>
        <time>2020-03-04T10:36:55Z</time>
      </trkpt>
      <trkpt lat="46.90941" lon="5.63642">
        <ele>244.2</ele>
        <time>2020-03-04T10:36:56Z</time>
      </trkpt>
      <trkpt lat="46.90944" lon="5.63646">
        <ele>244.6</ele>
        <time>2020-03-04T10:36:57Z</time>
      </trkpt>
      <trkpt lat="46.90948" lon="5.6365">
        <ele>244.8</ele>
        <time>2020-03-04T10:36:58Z</time>
      </trkpt>
      <trkpt lat="46.90951" lon="5.63653">
        <ele>245.2</ele>
        <time>2020-03-04T10:36:59Z</time>
      </trkpt>
      <trkpt lat="46.90954" lon="5.63656">
        <ele>245.4</ele>
        <time>2020-03-04T10:37:00Z</time>
      </trkpt>
      <trkpt lat="46.90958" lon="5.63659">
        <ele>245.6</ele>
        <time>2020-03-04T10:37:01Z</time>
      </trkpt>
      <trkpt lat="46.90961" lon="5.63662">
        <ele>245.8</ele>
        <time>2020-03-04T10:37:02Z</time>
      </trkpt>
      <trkpt lat="46.90965" lon="5.63664">
        <ele>246</ele>
        <time>2020-03-04T10:37:03Z</time>
      </trkpt>
      <trkpt lat="46.90968" lon="5.63667">
        <ele>246</ele>
        <time>2020-03-04T10:37:04Z</time>
      </trkpt>
      <trkpt lat="46.90972" lon="5.63669">
        <ele>246.2</ele>
        <time>2020-03-04T10:37:05Z</time>
      </trkpt>
      <trkpt lat="46.90976" lon="5.6367">
        <ele>246.2</ele>
        <time>2020-03-04T10:37:06Z</time>
      </trkpt>
      <trkpt lat="46.9098" lon="5.63672">
        <ele>246.4</ele>
        <time>2020-03-04T10:37:07Z</time>
      </trkpt>
      <trkpt lat="46.90984" lon="5.63674">
        <ele>246.4</ele>
        <time>2020-03-04T10:37:08Z</time>
      </trkpt>
      <trkpt lat="46.90987" lon="5.63675">
        <ele>246.8</ele>
        <time>2020-03-04T10:37:09Z</time>
      </trkpt>
      <trkpt lat="46.90991" lon="5.63677">
        <ele>246.8</ele>
        <time>2020-03-04T10:37:10Z</time>
      </trkpt>
      <trkpt lat="46.90995" lon="5.63679">
        <ele>247</ele>
        <time>2020-03-04T10:37:11Z</time>
      </trkpt>
      <trkpt lat="46.90999" lon="5.63681">
        <ele>247</ele>
        <time>2020-03-04T10:37:12Z</time>
      </trkpt>
      <trkpt lat="46.91003" lon="5.63683">
        <ele>247</ele>
        <time>2020-03-04T10:37:13Z</time>
      </trkpt>
      <trkpt lat="46.91007" lon="5.63685">
        <ele>247</ele>
        <time>2020-03-04T10:37:14Z</time>
      </trkpt>
      <trkpt lat="46.91011" lon="5.63686">
        <ele>247</ele>
        <time>2020-03-04T10:37:15Z</time>
      </trkpt>
      <trkpt lat="46.91016" lon="5.63688">
        <ele>247.2</ele>
        <time>2020-03-04T10:37:16Z</time>
      </trkpt>
      <trkpt lat="46.9102" lon="5.6369">
        <ele>247.2</ele>
        <time>2020-03-04T10:37:17Z</time>
      </trkpt>
      <trkpt lat="46.91025" lon="5.63692">
        <ele>247.2</ele>
        <time>2020-03-04T10:37:18Z</time>
      </trkpt>
      <trkpt lat="46.9103" lon="5.63696">
        <ele>247.2</ele>
        <time>2020-03-04T10:37:19Z</time>
      </trkpt>
      <trkpt lat="46.91034" lon="5.63698">
        <ele>247.4</ele>
        <time>2020-03-04T10:37:20Z</time>
      </trkpt>
      <trkpt lat="46.91039" lon="5.637">
        <ele>247.4</ele>
        <time>2020-03-04T10:37:21Z</time>
      </trkpt>
      <trkpt lat="46.91043" lon="5.63702">
        <ele>247.4</ele>
        <time>2020-03-04T10:37:22Z</time>
      </trkpt>
      <trkpt lat="46.91048" lon="5.63704">
        <ele>247.4</ele>
        <time>2020-03-04T10:37:23Z</time>
      </trkpt>
      <trkpt lat="46.91052" lon="5.63705">
        <ele>247.4</ele>
        <time>2020-03-04T10:37:24Z</time>
      </trkpt>
      <trkpt lat="46.91057" lon="5.63707">
        <ele>247.6</ele>
        <time>2020-03-04T10:37:25Z</time>
      </trkpt>
      <trkpt lat="46.91061" lon="5.63709">
        <ele>247.6</ele>
        <time>2020-03-04T10:37:26Z</time>
      </trkpt>
      <trkpt lat="46.91066" lon="5.63711">
        <ele>247.6</ele>
        <time>2020-03-04T10:37:27Z</time>
      </trkpt>
      <trkpt lat="46.9107" lon="5.63712">
        <ele>247.8</ele>
        <time>2020-03-04T10:37:28Z</time>
      </trkpt>
      <trkpt lat="46.91075" lon="5.63713">
        <ele>247.8</ele>
        <time>2020-03-04T10:37:29Z</time>
      </trkpt>
      <trkpt lat="46.91079" lon="5.63715">
        <ele>248</ele>
        <time>2020-03-04T10:37:30Z</time>
      </trkpt>
      <trkpt lat="46.91083" lon="5.63716">
        <ele>248</ele>
        <time>2020-03-04T10:37:31Z</time>
      </trkpt>
      <trkpt lat="46.91087" lon="5.63718">
        <ele>248.4</ele>
        <time>2020-03-04T10:37:32Z</time>
      </trkpt>
      <trkpt lat="46.9109" lon="5.6372">
        <ele>248.4</ele>
        <time>2020-03-04T10:37:33Z</time>
      </trkpt>
      <trkpt lat="46.91094" lon="5.63722">
        <ele>248.6</ele>
        <time>2020-03-04T10:37:34Z</time>
      </trkpt>
      <trkpt lat="46.91098" lon="5.63724">
        <ele>248.6</ele>
        <time>2020-03-04T10:37:35Z</time>
      </trkpt>
      <trkpt lat="46.91101" lon="5.63726">
        <ele>249</ele>
        <time>2020-03-04T10:37:36Z</time>
      </trkpt>
      <trkpt lat="46.91105" lon="5.63728">
        <ele>249</ele>
        <time>2020-03-04T10:37:37Z</time>
      </trkpt>
      <trkpt lat="46.91108" lon="5.6373">
        <ele>249.4</ele>
        <time>2020-03-04T10:37:38Z</time>
      </trkpt>
      <trkpt lat="46.91111" lon="5.63732">
        <ele>249.4</ele>
        <time>2020-03-04T10:37:39Z</time>
      </trkpt>
      <trkpt lat="46.91115" lon="5.63733">
        <ele>249.6</ele>
        <time>2020-03-04T10:37:40Z</time>
      </trkpt>
      <trkpt lat="46.91118" lon="5.63734">
        <ele>249.6</ele>
        <time>2020-03-04T10:37:41Z</time>
      </trkpt>
      <trkpt lat="46.91121" lon="5.63736">
        <ele>249.8</ele>
        <time>2020-03-04T10:37:42Z</time>
      </trkpt>
      <trkpt lat="46.91124" lon="5.63737">
        <ele>249.8</ele>
        <time>2020-03-04T10:37:43Z</time>
      </trkpt>
      <trkpt lat="46.91127" lon="5.6374">
        <ele>249.8</ele>
        <time>2020-03-04T10:37:44Z</time>
      </trkpt>
      <trkpt lat="46.91129" lon="5.63742">
        <ele>250.2</ele>
        <time>2020-03-04T10:37:45Z</time>
      </trkpt>
      <trkpt lat="46.91131" lon="5.63745">
        <ele>250.2</ele>
        <time>2020-03-04T10:37:46Z</time>
      </trkpt>
      <trkpt lat="46.91133" lon="5.63747">
        <ele>250.4</ele>
        <time>2020-03-04T10:37:47Z</time>
      </trkpt>
      <trkpt lat="46.91135" lon="5.63749">
        <ele>250.4</ele>
        <time>2020-03-04T10:37:48Z</time>
      </trkpt>
      <trkpt lat="46.91136" lon="5.63751">
        <ele>250.4</ele>
        <time>2020-03-04T10:37:49Z</time>
      </trkpt>
      <trkpt lat="46.91138" lon="5.63753">
        <ele>250.6</ele>
        <time>2020-03-04T10:37:50Z</time>
      </trkpt>
      <trkpt lat="46.9114" lon="5.63755">
        <ele>250.6</ele>
        <time>2020-03-04T10:37:51Z</time>
      </trkpt>
      <trkpt lat="46.91142" lon="5.63758">
        <ele>250.6</ele>
        <time>2020-03-04T10:37:52Z</time>
      </trkpt>
      <trkpt lat="46.91144" lon="5.63761">
        <ele>250.6</ele>
        <time>2020-03-04T10:37:53Z</time>
      </trkpt>
      <trkpt lat="46.91146" lon="5.63765">
        <ele>250.6</ele>
        <time>2020-03-04T10:37:54Z</time>
      </trkpt>
      <trkpt lat="46.91148" lon="5.63768">
        <ele>250.8</ele>
        <time>2020-03-04T10:37:55Z</time>
      </trkpt>
      <trkpt lat="46.91149" lon="5.63772">
        <ele>250.8</ele>
        <time>2020-03-04T10:37:56Z</time>
      </trkpt>
      <trkpt lat="46.91151" lon="5.63776">
        <ele>251</ele>
        <time>2020-03-04T10:37:57Z</time>
      </trkpt>
      <trkpt lat="46.91152" lon="5.6378">
        <ele>251</ele>
        <time>2020-03-04T10:37:58Z</time>
      </trkpt>
      <trkpt lat="46.91154" lon="5.63785">
        <ele>251</ele>
        <time>2020-03-04T10:37:59Z</time>
      </trkpt>
      <trkpt lat="46.91155" lon="5.6379">
        <ele>251</ele>
        <time>2020-03-04T10:38:00Z</time>
      </trkpt>
      <trkpt lat="46.91156" lon="5.63795">
        <ele>251</ele>
        <time>2020-03-04T10:38:01Z</time>
      </trkpt>
      <trkpt lat="46.91157" lon="5.63801">
        <ele>251</ele>
        <time>2020-03-04T10:38:02Z</time>
      </trkpt>
      <trkpt lat="46.91157" lon="5.63808">
        <ele>251</ele>
        <time>2020-03-04T10:38:03Z</time>
      </trkpt>
      <trkpt lat="46.91158" lon="5.63815">
        <ele>251</ele>
        <time>2020-03-04T10:38:04Z</time>
      </trkpt>
      <trkpt lat="46.91158" lon="5.63822">
        <ele>250.8</ele>
        <time>2020-03-04T10:38:05Z</time>
      </trkpt>
      <trkpt lat="46.91157" lon="5.63829">
        <ele>250.8</ele>
        <time>2020-03-04T10:38:06Z</time>
      </trkpt>
      <trkpt lat="46.91157" lon="5.63837">
        <ele>250.4</ele>
        <time>2020-03-04T10:38:07Z</time>
      </trkpt>
      <trkpt lat="46.91157" lon="5.63844">
        <ele>250.4</ele>
        <time>2020-03-04T10:38:08Z</time>
      </trkpt>
      <trkpt lat="46.91156" lon="5.63851">
        <ele>250</ele>
        <time>2020-03-04T10:38:09Z</time>
      </trkpt>
      <trkpt lat="46.91155" lon="5.63859">
        <ele>249.8</ele>
        <time>2020-03-04T10:38:10Z</time>
      </trkpt>
      <trkpt lat="46.91153" lon="5.63867">
        <ele>249.4</ele>
        <time>2020-03-04T10:38:11Z</time>
      </trkpt>
      <trkpt lat="46.91152" lon="5.63876">
        <ele>249.4</ele>
        <time>2020-03-04T10:38:12Z</time>
      </trkpt>
      <trkpt lat="46.9115" lon="5.63885">
        <ele>249</ele>
        <time>2020-03-04T10:38:13Z</time>
      </trkpt>
      <trkpt lat="46.91149" lon="5.63893">
        <ele>248.8</ele>
        <time>2020-03-04T10:38:14Z</time>
      </trkpt>
      <trkpt lat="46.91147" lon="5.63901">
        <ele>248.6</ele>
        <time>2020-03-04T10:38:15Z</time>
      </trkpt>
      <trkpt lat="46.91145" lon="5.63909">
        <ele>248.6</ele>
        <time>2020-03-04T10:38:16Z</time>
      </trkpt>
      <trkpt lat="46.91144" lon="5.63916">
        <ele>248.2</ele>
        <time>2020-03-04T10:38:17Z</time>
      </trkpt>
      <trkpt lat="46.91143" lon="5.63924">
        <ele>247.8</ele>
        <time>2020-03-04T10:38:18Z</time>
      </trkpt>
      <trkpt lat="46.91143" lon="5.63932">
        <ele>247.6</ele>
        <time>2020-03-04T10:38:19Z</time>
      </trkpt>
      <trkpt lat="46.91145" lon="5.6394">
        <ele>247.4</ele>
        <time>2020-03-04T10:38:20Z</time>
      </trkpt>
      <trkpt lat="46.91147" lon="5.63948">
        <ele>247.2</ele>
        <time>2020-03-04T10:38:21Z</time>
      </trkpt>
      <trkpt lat="46.9115" lon="5.63956">
        <ele>246.8</ele>
        <time>2020-03-04T10:38:22Z</time>
      </trkpt>
      <trkpt lat="46.91153" lon="5.63965">
        <ele>246.6</ele>
        <time>2020-03-04T10:38:23Z</time>
      </trkpt>
      <trkpt lat="46.91155" lon="5.63974">
        <ele>246.4</ele>
        <time>2020-03-04T10:38:24Z</time>
      </trkpt>
      <trkpt lat="46.91158" lon="5.63983">
        <ele>246.2</ele>
        <time>2020-03-04T10:38:25Z</time>
      </trkpt>
      <trkpt lat="46.91161" lon="5.63992">
        <ele>246.2</ele>
        <time>2020-03-04T10:38:26Z</time>
      </trkpt>
      <trkpt lat="46.91165" lon="5.64001">
        <ele>245.8</ele>
        <time>2020-03-04T10:38:27Z</time>
      </trkpt>
      <trkpt lat="46.91169" lon="5.6401">
        <ele>245.8</ele>
        <time>2020-03-04T10:38:28Z</time>
      </trkpt>
      <trkpt lat="46.91174" lon="5.64018">
        <ele>245.8</ele>
        <time>2020-03-04T10:38:29Z</time>
      </trkpt>
      <trkpt lat="46.91179" lon="5.64025">
        <ele>245.6</ele>
        <time>2020-03-04T10:38:30Z</time>
      </trkpt>
      <trkpt lat="46.91184" lon="5.64032">
        <ele>245.6</ele>
        <time>2020-03-04T10:38:31Z</time>
      </trkpt>
      <trkpt lat="46.9119" lon="5.64038">
        <ele>245.6</ele>
        <time>2020-03-04T10:38:32Z</time>
      </trkpt>
      <trkpt lat="46.91196" lon="5.64045">
        <ele>245.6</ele>
        <time>2020-03-04T10:38:33Z</time>
      </trkpt>
      <trkpt lat="46.91201" lon="5.64051">
        <ele>245.6</ele>
        <time>2020-03-04T10:38:34Z</time>
      </trkpt>
      <trkpt lat="46.91207" lon="5.64057">
        <ele>245.6</ele>
        <time>2020-03-04T10:38:35Z</time>
      </trkpt>
      <trkpt lat="46.91212" lon="5.64063">
        <ele>245.6</ele>
        <time>2020-03-04T10:38:36Z</time>
      </trkpt>
      <trkpt lat="46.91217" lon="5.6407">
        <ele>245.6</ele>
        <time>2020-03-04T10:38:37Z</time>
      </trkpt>
      <trkpt lat="46.91223" lon="5.64076">
        <ele>245.6</ele>
        <time>2020-03-04T10:38:38Z</time>
      </trkpt>
      <trkpt lat="46.91228" lon="5.64082">
        <ele>245.6</ele>
        <time>2020-03-04T10:38:39Z</time>
      </trkpt>
      <trkpt lat="46.91234" lon="5.64088">
        <ele>245.6</ele>
        <time>2020-03-04T10:38:40Z</time>
      </trkpt>
      <trkpt lat="46.91239" lon="5.64094">
        <ele>245.6</ele>
        <time>2020-03-04T10:38:41Z</time>
      </trkpt>
      <trkpt lat="46.91244" lon="5.641">
        <ele>245.6</ele>
        <time>2020-03-04T10:38:42Z</time>
      </trkpt>
      <trkpt lat="46.91249" lon="5.64105">
        <ele>245.6</ele>
        <time>2020-03-04T10:38:43Z</time>
      </trkpt>
      <trkpt lat="46.91254" lon="5.64111">
        <ele>245.6</ele>
        <time>2020-03-04T10:38:44Z</time>
      </trkpt>
      <trkpt lat="46.91259" lon="5.64116">
        <ele>245.6</ele>
        <time>2020-03-04T10:38:45Z</time>
      </trkpt>
      <trkpt lat="46.91264" lon="5.64121">
        <ele>245.6</ele>
        <time>2020-03-04T10:38:46Z</time>
      </trkpt>
      <trkpt lat="46.91269" lon="5.64126">
        <ele>245.6</ele>
        <time>2020-03-04T10:38:47Z</time>
      </trkpt>
      <trkpt lat="46.91274" lon="5.64131">
        <ele>245.6</ele>
        <time>2020-03-04T10:38:48Z</time>
      </trkpt>
      <trkpt lat="46.91278" lon="5.64137">
        <ele>245.6</ele>
        <time>2020-03-04T10:38:49Z</time>
      </trkpt>
      <trkpt lat="46.91283" lon="5.64143">
        <ele>245.6</ele>
        <time>2020-03-04T10:38:50Z</time>
      </trkpt>
      <trkpt lat="46.91288" lon="5.64149">
        <ele>245.6</ele>
        <time>2020-03-04T10:38:51Z</time>
      </trkpt>
      <trkpt lat="46.91292" lon="5.64154">
        <ele>245.4</ele>
        <time>2020-03-04T10:38:52Z</time>
      </trkpt>
      <trkpt lat="46.91296" lon="5.6416">
        <ele>245.4</ele>
        <time>2020-03-04T10:38:53Z</time>
      </trkpt>
      <trkpt lat="46.913" lon="5.64165">
        <ele>245.4</ele>
        <time>2020-03-04T10:38:54Z</time>
      </trkpt>
      <trkpt lat="46.91304" lon="5.64172">
        <ele>245.4</ele>
        <time>2020-03-04T10:38:55Z</time>
      </trkpt>
      <trkpt lat="46.91307" lon="5.64178">
        <ele>245.4</ele>
        <time>2020-03-04T10:38:56Z</time>
      </trkpt>
      <trkpt lat="46.9131" lon="5.64186">
        <ele>245.4</ele>
        <time>2020-03-04T10:38:57Z</time>
      </trkpt>
      <trkpt lat="46.91313" lon="5.64193">
        <ele>245.4</ele>
        <time>2020-03-04T10:38:58Z</time>
      </trkpt>
      <trkpt lat="46.91315" lon="5.64202">
        <ele>245.4</ele>
        <time>2020-03-04T10:38:59Z</time>
      </trkpt>
      <trkpt lat="46.91315" lon="5.64211">
        <ele>245.4</ele>
        <time>2020-03-04T10:39:00Z</time>
      </trkpt>
      <trkpt lat="46.91315" lon="5.64221">
        <ele>245.4</ele>
        <time>2020-03-04T10:39:01Z</time>
      </trkpt>
      <trkpt lat="46.91314" lon="5.6423">
        <ele>245.6</ele>
        <time>2020-03-04T10:39:02Z</time>
      </trkpt>
      <trkpt lat="46.91313" lon="5.64239">
        <ele>245.6</ele>
        <time>2020-03-04T10:39:03Z</time>
      </trkpt>
      <trkpt lat="46.91311" lon="5.64249">
        <ele>245.6</ele>
        <time>2020-03-04T10:39:04Z</time>
      </trkpt>
      <trkpt lat="46.9131" lon="5.64258">
        <ele>245.6</ele>
        <time>2020-03-04T10:39:05Z</time>
      </trkpt>
      <trkpt lat="46.91308" lon="5.64267">
        <ele>245.6</ele>
        <time>2020-03-04T10:39:06Z</time>
      </trkpt>
      <trkpt lat="46.91308" lon="5.64277">
        <ele>245.8</ele>
        <time>2020-03-04T10:39:07Z</time>
      </trkpt>
      <trkpt lat="46.91308" lon="5.64286">
        <ele>245.8</ele>
        <time>2020-03-04T10:39:08Z</time>
      </trkpt>
      <trkpt lat="46.91309" lon="5.64295">
        <ele>245.8</ele>
        <time>2020-03-04T10:39:09Z</time>
      </trkpt>
      <trkpt lat="46.9131" lon="5.64304">
        <ele>246</ele>
        <time>2020-03-04T10:39:10Z</time>
      </trkpt>
      <trkpt lat="46.91311" lon="5.64313">
        <ele>246</ele>
        <time>2020-03-04T10:39:11Z</time>
      </trkpt>
      <trkpt lat="46.91312" lon="5.64322">
        <ele>246</ele>
        <time>2020-03-04T10:39:12Z</time>
      </trkpt>
      <trkpt lat="46.91313" lon="5.64331">
        <ele>246</ele>
        <time>2020-03-04T10:39:13Z</time>
      </trkpt>
      <trkpt lat="46.91315" lon="5.6434">
        <ele>246.2</ele>
        <time>2020-03-04T10:39:14Z</time>
      </trkpt>
      <trkpt lat="46.91316" lon="5.64349">
        <ele>246.2</ele>
        <time>2020-03-04T10:39:15Z</time>
      </trkpt>
      <trkpt lat="46.91318" lon="5.64359">
        <ele>246.2</ele>
        <time>2020-03-04T10:39:16Z</time>
      </trkpt>
      <trkpt lat="46.91319" lon="5.64368">
        <ele>246.2</ele>
        <time>2020-03-04T10:39:17Z</time>
      </trkpt>
      <trkpt lat="46.9132" lon="5.64378">
        <ele>246</ele>
        <time>2020-03-04T10:39:18Z</time>
      </trkpt>
      <trkpt lat="46.91322" lon="5.64388">
        <ele>246</ele>
        <time>2020-03-04T10:39:19Z</time>
      </trkpt>
      <trkpt lat="46.91323" lon="5.64398">
        <ele>246</ele>
        <time>2020-03-04T10:39:20Z</time>
      </trkpt>
      <trkpt lat="46.91325" lon="5.64408">
        <ele>246</ele>
        <time>2020-03-04T10:39:21Z</time>
      </trkpt>
      <trkpt lat="46.91326" lon="5.64418">
        <ele>246</ele>
        <time>2020-03-04T10:39:22Z</time>
      </trkpt>
      <trkpt lat="46.91328" lon="5.64428">
        <ele>246</ele>
        <time>2020-03-04T10:39:23Z</time>
      </trkpt>
      <trkpt lat="46.91329" lon="5.64439">
        <ele>246</ele>
        <time>2020-03-04T10:39:24Z</time>
      </trkpt>
      <trkpt lat="46.9133" lon="5.64449">
        <ele>246</ele>
        <time>2020-03-04T10:39:25Z</time>
      </trkpt>
      <trkpt lat="46.91332" lon="5.6446">
        <ele>246</ele>
        <time>2020-03-04T10:39:26Z</time>
      </trkpt>
      <trkpt lat="46.91333" lon="5.64472">
        <ele>246</ele>
        <time>2020-03-04T10:39:27Z</time>
      </trkpt>
      <trkpt lat="46.91335" lon="5.64483">
        <ele>246</ele>
        <time>2020-03-04T10:39:28Z</time>
      </trkpt>
      <trkpt lat="46.91336" lon="5.64494">
        <ele>246</ele>
        <time>2020-03-04T10:39:29Z</time>
      </trkpt>
      <trkpt lat="46.91337" lon="5.64505">
        <ele>245.6</ele>
        <time>2020-03-04T10:39:30Z</time>
      </trkpt>
      <trkpt lat="46.91339" lon="5.64516">
        <ele>245.6</ele>
        <time>2020-03-04T10:39:31Z</time>
      </trkpt>
      <trkpt lat="46.9134" lon="5.64527">
        <ele>245.6</ele>
        <time>2020-03-04T10:39:32Z</time>
      </trkpt>
      <trkpt lat="46.91341" lon="5.64538">
        <ele>245.4</ele>
        <time>2020-03-04T10:39:33Z</time>
      </trkpt>
      <trkpt lat="46.91342" lon="5.64549">
        <ele>245.4</ele>
        <time>2020-03-04T10:39:34Z</time>
      </trkpt>
      <trkpt lat="46.91342" lon="5.6456">
        <ele>245.4</ele>
        <time>2020-03-04T10:39:35Z</time>
      </trkpt>
      <trkpt lat="46.91341" lon="5.64571">
        <ele>245.2</ele>
        <time>2020-03-04T10:39:36Z</time>
      </trkpt>
      <trkpt lat="46.91341" lon="5.64582">
        <ele>245.2</ele>
        <time>2020-03-04T10:39:37Z</time>
      </trkpt>
      <trkpt lat="46.91339" lon="5.64593">
        <ele>245.2</ele>
        <time>2020-03-04T10:39:38Z</time>
      </trkpt>
      <trkpt lat="46.91338" lon="5.64604">
        <ele>245.2</ele>
        <time>2020-03-04T10:39:39Z</time>
      </trkpt>
      <trkpt lat="46.91337" lon="5.64614">
        <ele>245.2</ele>
        <time>2020-03-04T10:39:40Z</time>
      </trkpt>
      <trkpt lat="46.91335" lon="5.64624">
        <ele>245.2</ele>
        <time>2020-03-04T10:39:41Z</time>
      </trkpt>
      <trkpt lat="46.91334" lon="5.64634">
        <ele>245.2</ele>
        <time>2020-03-04T10:39:42Z</time>
      </trkpt>
      <trkpt lat="46.91333" lon="5.64644">
        <ele>245.4</ele>
        <time>2020-03-04T10:39:43Z</time>
      </trkpt>
      <trkpt lat="46.91331" lon="5.64654">
        <ele>245.4</ele>
        <time>2020-03-04T10:39:44Z</time>
      </trkpt>
      <trkpt lat="46.9133" lon="5.64663">
        <ele>245.4</ele>
        <time>2020-03-04T10:39:45Z</time>
      </trkpt>
      <trkpt lat="46.91329" lon="5.64672">
        <ele>245.4</ele>
        <time>2020-03-04T10:39:46Z</time>
      </trkpt>
      <trkpt lat="46.91328" lon="5.64681">
        <ele>245.8</ele>
        <time>2020-03-04T10:39:47Z</time>
      </trkpt>
      <trkpt lat="46.91326" lon="5.64689">
        <ele>245.8</ele>
        <time>2020-03-04T10:39:48Z</time>
      </trkpt>
      <trkpt lat="46.91325" lon="5.64697">
        <ele>245.8</ele>
        <time>2020-03-04T10:39:49Z</time>
      </trkpt>
      <trkpt lat="46.91324" lon="5.64705">
        <ele>245.8</ele>
        <time>2020-03-04T10:39:50Z</time>
      </trkpt>
      <trkpt lat="46.91323" lon="5.64713">
        <ele>246</ele>
        <time>2020-03-04T10:39:51Z</time>
      </trkpt>
      <trkpt lat="46.91322" lon="5.64721">
        <ele>246</ele>
        <time>2020-03-04T10:39:52Z</time>
      </trkpt>
      <trkpt lat="46.91321" lon="5.64728">
        <ele>246.4</ele>
        <time>2020-03-04T10:39:53Z</time>
      </trkpt>
      <trkpt lat="46.9132" lon="5.64735">
        <ele>246.4</ele>
        <time>2020-03-04T10:39:54Z</time>
      </trkpt>
      <trkpt lat="46.91319" lon="5.64741">
        <ele>246.6</ele>
        <time>2020-03-04T10:39:55Z</time>
      </trkpt>
      <trkpt lat="46.91319" lon="5.64748">
        <ele>246.6</ele>
        <time>2020-03-04T10:39:56Z</time>
      </trkpt>
      <trkpt lat="46.91318" lon="5.64754">
        <ele>247</ele>
        <time>2020-03-04T10:39:57Z</time>
      </trkpt>
      <trkpt lat="46.91317" lon="5.64759">
        <ele>247.2</ele>
        <time>2020-03-04T10:39:58Z</time>
      </trkpt>
      <trkpt lat="46.91316" lon="5.64765">
        <ele>247.4</ele>
        <time>2020-03-04T10:39:59Z</time>
      </trkpt>
      <trkpt lat="46.91315" lon="5.6477">
        <ele>247.4</ele>
        <time>2020-03-04T10:40:00Z</time>
      </trkpt>
      <trkpt lat="46.91314" lon="5.64775">
        <ele>247.8</ele>
        <time>2020-03-04T10:40:01Z</time>
      </trkpt>
      <trkpt lat="46.91313" lon="5.6478">
        <ele>247.8</ele>
        <time>2020-03-04T10:40:02Z</time>
      </trkpt>
      <trkpt lat="46.91313" lon="5.64785">
        <ele>248</ele>
        <time>2020-03-04T10:40:03Z</time>
      </trkpt>
      <trkpt lat="46.91312" lon="5.6479">
        <ele>248</ele>
        <time>2020-03-04T10:40:04Z</time>
      </trkpt>
      <trkpt lat="46.91311" lon="5.64795">
        <ele>248.2</ele>
        <time>2020-03-04T10:40:05Z</time>
      </trkpt>
      <trkpt lat="46.91311" lon="5.64799">
        <ele>248.4</ele>
        <time>2020-03-04T10:40:06Z</time>
      </trkpt>
      <trkpt lat="46.9131" lon="5.64804">
        <ele>248.6</ele>
        <time>2020-03-04T10:40:07Z</time>
      </trkpt>
      <trkpt lat="46.9131" lon="5.64809">
        <ele>248.6</ele>
        <time>2020-03-04T10:40:08Z</time>
      </trkpt>
      <trkpt lat="46.91309" lon="5.64813">
        <ele>249</ele>
        <time>2020-03-04T10:40:09Z</time>
      </trkpt>
      <trkpt lat="46.91308" lon="5.64818">
        <ele>249</ele>
        <time>2020-03-04T10:40:10Z</time>
      </trkpt>
      <trkpt lat="46.91307" lon="5.64823">
        <ele>249.4</ele>
        <time>2020-03-04T10:40:11Z</time>
      </trkpt>
      <trkpt lat="46.91306" lon="5.64827">
        <ele>249.4</ele>
        <time>2020-03-04T10:40:12Z</time>
      </trkpt>
      <trkpt lat="46.91305" lon="5.64832">
        <ele>249.8</ele>
        <time>2020-03-04T10:40:13Z</time>
      </trkpt>
      <trkpt lat="46.91304" lon="5.64836">
        <ele>249.8</ele>
        <time>2020-03-04T10:40:14Z</time>
      </trkpt>
      <trkpt lat="46.91304" lon="5.64841">
        <ele>250</ele>
        <time>2020-03-04T10:40:15Z</time>
      </trkpt>
      <trkpt lat="46.91303" lon="5.64846">
        <ele>250</ele>
        <time>2020-03-04T10:40:16Z</time>
      </trkpt>
      <trkpt lat="46.91302" lon="5.6485">
        <ele>250.2</ele>
        <time>2020-03-04T10:40:17Z</time>
      </trkpt>
      <trkpt lat="46.91302" lon="5.64855">
        <ele>250.2</ele>
        <time>2020-03-04T10:40:18Z</time>
      </trkpt>
      <trkpt lat="46.91301" lon="5.6486">
        <ele>250.6</ele>
        <time>2020-03-04T10:40:19Z</time>
      </trkpt>
      <trkpt lat="46.913" lon="5.64864">
        <ele>250.6</ele>
        <time>2020-03-04T10:40:20Z</time>
      </trkpt>
      <trkpt lat="46.91299" lon="5.64869">
        <ele>251</ele>
        <time>2020-03-04T10:40:21Z</time>
      </trkpt>
      <trkpt lat="46.91299" lon="5.64873">
        <ele>251</ele>
        <time>2020-03-04T10:40:22Z</time>
      </trkpt>
      <trkpt lat="46.91298" lon="5.64878">
        <ele>251.2</ele>
        <time>2020-03-04T10:40:23Z</time>
      </trkpt>
      <trkpt lat="46.91297" lon="5.64882">
        <ele>251.2</ele>
        <time>2020-03-04T10:40:24Z</time>
      </trkpt>
      <trkpt lat="46.91297" lon="5.64887">
        <ele>251.6</ele>
        <time>2020-03-04T10:40:25Z</time>
      </trkpt>
      <trkpt lat="46.91296" lon="5.64891">
        <ele>251.8</ele>
        <time>2020-03-04T10:40:26Z</time>
      </trkpt>
      <trkpt lat="46.91295" lon="5.64896">
        <ele>251.8</ele>
        <time>2020-03-04T10:40:27Z</time>
      </trkpt>
      <trkpt lat="46.91295" lon="5.64901">
        <ele>252.2</ele>
        <time>2020-03-04T10:40:28Z</time>
      </trkpt>
      <trkpt lat="46.91294" lon="5.64905">
        <ele>252.4</ele>
        <time>2020-03-04T10:40:29Z</time>
      </trkpt>
      <trkpt lat="46.91294" lon="5.6491">
        <ele>252.4</ele>
        <time>2020-03-04T10:40:30Z</time>
      </trkpt>
      <trkpt lat="46.91293" lon="5.64915">
        <ele>252.8</ele>
        <time>2020-03-04T10:40:31Z</time>
      </trkpt>
      <trkpt lat="46.91293" lon="5.64919">
        <ele>253</ele>
        <time>2020-03-04T10:40:32Z</time>
      </trkpt>
      <trkpt lat="46.91292" lon="5.64924">
        <ele>253</ele>
        <time>2020-03-04T10:40:33Z</time>
      </trkpt>
      <trkpt lat="46.91291" lon="5.64928">
        <ele>253.4</ele>
        <time>2020-03-04T10:40:34Z</time>
      </trkpt>
      <trkpt lat="46.9129" lon="5.64933">
        <ele>253.6</ele>
        <time>2020-03-04T10:40:35Z</time>
      </trkpt>
      <trkpt lat="46.9129" lon="5.64937">
        <ele>253.6</ele>
        <time>2020-03-04T10:40:36Z</time>
      </trkpt>
      <trkpt lat="46.91289" lon="5.64942">
        <ele>254</ele>
        <time>2020-03-04T10:40:37Z</time>
      </trkpt>
      <trkpt lat="46.91288" lon="5.64946">
        <ele>254</ele>
        <time>2020-03-04T10:40:38Z</time>
      </trkpt>
      <trkpt lat="46.91288" lon="5.64951">
        <ele>254.2</ele>
        <time>2020-03-04T10:40:39Z</time>
      </trkpt>
      <trkpt lat="46.91287" lon="5.64955">
        <ele>254.2</ele>
        <time>2020-03-04T10:40:40Z</time>
      </trkpt>
      <trkpt lat="46.91287" lon="5.6496">
        <ele>254.6</ele>
        <time>2020-03-04T10:40:41Z</time>
      </trkpt>
      <trkpt lat="46.91286" lon="5.64964">
        <ele>254.6</ele>
        <time>2020-03-04T10:40:42Z</time>
      </trkpt>
      <trkpt lat="46.91285" lon="5.64968">
        <ele>255</ele>
        <time>2020-03-04T10:40:43Z</time>
      </trkpt>
      <trkpt lat="46.91285" lon="5.64973">
        <ele>255.2</ele>
        <time>2020-03-04T10:40:44Z</time>
      </trkpt>
      <trkpt lat="46.91284" lon="5.64977">
        <ele>255.4</ele>
        <time>2020-03-04T10:40:45Z</time>
      </trkpt>
      <trkpt lat="46.91284" lon="5.64981">
        <ele>255.4</ele>
        <time>2020-03-04T10:40:46Z</time>
      </trkpt>
      <trkpt lat="46.91283" lon="5.64985">
        <ele>255.8</ele>
        <time>2020-03-04T10:40:47Z</time>
      </trkpt>
      <trkpt lat="46.91283" lon="5.64989">
        <ele>255.8</ele>
        <time>2020-03-04T10:40:48Z</time>
      </trkpt>
      <trkpt lat="46.91282" lon="5.64993">
        <ele>256</ele>
        <time>2020-03-04T10:40:49Z</time>
      </trkpt>
      <trkpt lat="46.91282" lon="5.64997">
        <ele>256</ele>
        <time>2020-03-04T10:40:50Z</time>
      </trkpt>
      <trkpt lat="46.91282" lon="5.65001">
        <ele>256.2</ele>
        <time>2020-03-04T10:40:51Z</time>
      </trkpt>
      <trkpt lat="46.91281" lon="5.65005">
        <ele>256.2</ele>
        <time>2020-03-04T10:40:52Z</time>
      </trkpt>
      <trkpt lat="46.91281" lon="5.65009">
        <ele>256.6</ele>
        <time>2020-03-04T10:40:53Z</time>
      </trkpt>
      <trkpt lat="46.91281" lon="5.65013">
        <ele>256.6</ele>
        <time>2020-03-04T10:40:54Z</time>
      </trkpt>
      <trkpt lat="46.9128" lon="5.65017">
        <ele>256.8</ele>
        <time>2020-03-04T10:40:55Z</time>
      </trkpt>
      <trkpt lat="46.9128" lon="5.65021">
        <ele>256.8</ele>
        <time>2020-03-04T10:40:56Z</time>
      </trkpt>
      <trkpt lat="46.91279" lon="5.65024">
        <ele>257.2</ele>
        <time>2020-03-04T10:40:57Z</time>
      </trkpt>
      <trkpt lat="46.91279" lon="5.65028">
        <ele>257.2</ele>
        <time>2020-03-04T10:40:58Z</time>
      </trkpt>
      <trkpt lat="46.91279" lon="5.65032">
        <ele>257.4</ele>
        <time>2020-03-04T10:40:59Z</time>
      </trkpt>
      <trkpt lat="46.91279" lon="5.65036">
        <ele>257.8</ele>
        <time>2020-03-04T10:41:00Z</time>
      </trkpt>
      <trkpt lat="46.91279" lon="5.65039">
        <ele>258</ele>
        <time>2020-03-04T10:41:01Z</time>
      </trkpt>
      <trkpt lat="46.91279" lon="5.65043">
        <ele>258.2</ele>
        <time>2020-03-04T10:41:02Z</time>
      </trkpt>
      <trkpt lat="46.91279" lon="5.65047">
        <ele>258.4</ele>
        <time>2020-03-04T10:41:03Z</time>
      </trkpt>
      <trkpt lat="46.9128" lon="5.65051">
        <ele>258.4</ele>
        <time>2020-03-04T10:41:04Z</time>
      </trkpt>
      <trkpt lat="46.9128" lon="5.65055">
        <ele>258.8</ele>
        <time>2020-03-04T10:41:05Z</time>
      </trkpt>
      <trkpt lat="46.9128" lon="5.65058">
        <ele>258.8</ele>
        <time>2020-03-04T10:41:06Z</time>
      </trkpt>
      <trkpt lat="46.91281" lon="5.65062">
        <ele>258.8</ele>
        <time>2020-03-04T10:41:07Z</time>
      </trkpt>
      <trkpt lat="46.91282" lon="5.65065">
        <ele>259.2</ele>
        <time>2020-03-04T10:41:08Z</time>
      </trkpt>
      <trkpt lat="46.91283" lon="5.65069">
        <ele>259.4</ele>
        <time>2020-03-04T10:41:09Z</time>
      </trkpt>
      <trkpt lat="46.91284" lon="5.65073">
        <ele>259.4</ele>
        <time>2020-03-04T10:41:10Z</time>
      </trkpt>
      <trkpt lat="46.91285" lon="5.65076">
        <ele>259.6</ele>
        <time>2020-03-04T10:41:11Z</time>
      </trkpt>
      <trkpt lat="46.91286" lon="5.6508">
        <ele>259.6</ele>
        <time>2020-03-04T10:41:12Z</time>
      </trkpt>
      <trkpt lat="46.91287" lon="5.65083">
        <ele>259.8</ele>
        <time>2020-03-04T10:41:13Z</time>
      </trkpt>
      <trkpt lat="46.91288" lon="5.65087">
        <ele>259.8</ele>
        <time>2020-03-04T10:41:14Z</time>
      </trkpt>
      <trkpt lat="46.91289" lon="5.6509">
        <ele>260</ele>
        <time>2020-03-04T10:41:15Z</time>
      </trkpt>
      <trkpt lat="46.9129" lon="5.65093">
        <ele>260</ele>
        <time>2020-03-04T10:41:16Z</time>
      </trkpt>
      <trkpt lat="46.91291" lon="5.65097">
        <ele>260.4</ele>
        <time>2020-03-04T10:41:17Z</time>
      </trkpt>
      <trkpt lat="46.91292" lon="5.651">
        <ele>260.4</ele>
        <time>2020-03-04T10:41:18Z</time>
      </trkpt>
      <trkpt lat="46.91294" lon="5.65103">
        <ele>260.6</ele>
        <time>2020-03-04T10:41:19Z</time>
      </trkpt>
      <trkpt lat="46.91295" lon="5.65106">
        <ele>260.6</ele>
        <time>2020-03-04T10:41:20Z</time>
      </trkpt>
      <trkpt lat="46.91296" lon="5.65109">
        <ele>260.8</ele>
        <time>2020-03-04T10:41:21Z</time>
      </trkpt>
      <trkpt lat="46.91297" lon="5.65112">
        <ele>260.8</ele>
        <time>2020-03-04T10:41:22Z</time>
      </trkpt>
      <trkpt lat="46.91299" lon="5.65115">
        <ele>261</ele>
        <time>2020-03-04T10:41:23Z</time>
      </trkpt>
      <trkpt lat="46.913" lon="5.65118">
        <ele>261</ele>
        <time>2020-03-04T10:41:24Z</time>
      </trkpt>
      <trkpt lat="46.91301" lon="5.65122">
        <ele>261.4</ele>
        <time>2020-03-04T10:41:25Z</time>
      </trkpt>
      <trkpt lat="46.91303" lon="5.65125">
        <ele>261.4</ele>
        <time>2020-03-04T10:41:26Z</time>
      </trkpt>
      <trkpt lat="46.91304" lon="5.65128">
        <ele>261.8</ele>
        <time>2020-03-04T10:41:27Z</time>
      </trkpt>
      <trkpt lat="46.91306" lon="5.65132">
        <ele>261.8</ele>
        <time>2020-03-04T10:41:28Z</time>
      </trkpt>
      <trkpt lat="46.91307" lon="5.65135">
        <ele>262</ele>
        <time>2020-03-04T10:41:29Z</time>
      </trkpt>
      <trkpt lat="46.91309" lon="5.65138">
        <ele>262</ele>
        <time>2020-03-04T10:41:30Z</time>
      </trkpt>
      <trkpt lat="46.9131" lon="5.65142">
        <ele>262.4</ele>
        <time>2020-03-04T10:41:31Z</time>
      </trkpt>
      <trkpt lat="46.91312" lon="5.65145">
        <ele>262.4</ele>
        <time>2020-03-04T10:41:32Z</time>
      </trkpt>
      <trkpt lat="46.91313" lon="5.65148">
        <ele>262.6</ele>
        <time>2020-03-04T10:41:33Z</time>
      </trkpt>
      <trkpt lat="46.91314" lon="5.65152">
        <ele>262.6</ele>
        <time>2020-03-04T10:41:34Z</time>
      </trkpt>
      <trkpt lat="46.91315" lon="5.65155">
        <ele>263</ele>
        <time>2020-03-04T10:41:35Z</time>
      </trkpt>
      <trkpt lat="46.91316" lon="5.65159">
        <ele>263</ele>
        <time>2020-03-04T10:41:36Z</time>
      </trkpt>
      <trkpt lat="46.91318" lon="5.65162">
        <ele>263.2</ele>
        <time>2020-03-04T10:41:37Z</time>
      </trkpt>
      <trkpt lat="46.91319" lon="5.65165">
        <ele>263.2</ele>
        <time>2020-03-04T10:41:38Z</time>
      </trkpt>
      <trkpt lat="46.91321" lon="5.65169">
        <ele>263.6</ele>
        <time>2020-03-04T10:41:39Z</time>
      </trkpt>
      <trkpt lat="46.91322" lon="5.65172">
        <ele>263.6</ele>
        <time>2020-03-04T10:41:40Z</time>
      </trkpt>
      <trkpt lat="46.91323" lon="5.65175">
        <ele>264</ele>
        <time>2020-03-04T10:41:41Z</time>
      </trkpt>
      <trkpt lat="46.91324" lon="5.65179">
        <ele>264</ele>
        <time>2020-03-04T10:41:42Z</time>
      </trkpt>
      <trkpt lat="46.91326" lon="5.65182">
        <ele>264.2</ele>
        <time>2020-03-04T10:41:43Z</time>
      </trkpt>
      <trkpt lat="46.91327" lon="5.65185">
        <ele>264.2</ele>
        <time>2020-03-04T10:41:44Z</time>
      </trkpt>
      <trkpt lat="46.91328" lon="5.65188">
        <ele>264.4</ele>
        <time>2020-03-04T10:41:45Z</time>
      </trkpt>
      <trkpt lat="46.9133" lon="5.65191">
        <ele>264.4</ele>
        <time>2020-03-04T10:41:46Z</time>
      </trkpt>
      <trkpt lat="46.91331" lon="5.65194">
        <ele>264.6</ele>
        <time>2020-03-04T10:41:47Z</time>
      </trkpt>
      <trkpt lat="46.91332" lon="5.65198">
        <ele>264.6</ele>
        <time>2020-03-04T10:41:48Z</time>
      </trkpt>
      <trkpt lat="46.91333" lon="5.65201">
        <ele>265</ele>
        <time>2020-03-04T10:41:49Z</time>
      </trkpt>
      <trkpt lat="46.91335" lon="5.65204">
        <ele>265</ele>
        <time>2020-03-04T10:41:50Z</time>
      </trkpt>
      <trkpt lat="46.91336" lon="5.65207">
        <ele>265.2</ele>
        <time>2020-03-04T10:41:51Z</time>
      </trkpt>
      <trkpt lat="46.91337" lon="5.6521">
        <ele>265.2</ele>
        <time>2020-03-04T10:41:52Z</time>
      </trkpt>
      <trkpt lat="46.91338" lon="5.65214">
        <ele>265.4</ele>
        <time>2020-03-04T10:41:53Z</time>
      </trkpt>
      <trkpt lat="46.9134" lon="5.65217">
        <ele>265.4</ele>
        <time>2020-03-04T10:41:54Z</time>
      </trkpt>
      <trkpt lat="46.91341" lon="5.6522">
        <ele>265.8</ele>
        <time>2020-03-04T10:41:55Z</time>
      </trkpt>
      <trkpt lat="46.91342" lon="5.65223">
        <ele>265.8</ele>
        <time>2020-03-04T10:41:56Z</time>
      </trkpt>
      <trkpt lat="46.91344" lon="5.65226">
        <ele>266</ele>
        <time>2020-03-04T10:41:57Z</time>
      </trkpt>
      <trkpt lat="46.91345" lon="5.65229">
        <ele>266</ele>
        <time>2020-03-04T10:41:58Z</time>
      </trkpt>
      <trkpt lat="46.91346" lon="5.65232">
        <ele>266</ele>
        <time>2020-03-04T10:41:59Z</time>
      </trkpt>
      <trkpt lat="46.91348" lon="5.65235">
        <ele>266</ele>
        <time>2020-03-04T10:42:00Z</time>
      </trkpt>
      <trkpt lat="46.91349" lon="5.65239">
        <ele>266.2</ele>
        <time>2020-03-04T10:42:01Z</time>
      </trkpt>
      <trkpt lat="46.91351" lon="5.65242">
        <ele>266.2</ele>
        <time>2020-03-04T10:42:02Z</time>
      </trkpt>
      <trkpt lat="46.91352" lon="5.65245">
        <ele>266.2</ele>
        <time>2020-03-04T10:42:03Z</time>
      </trkpt>
      <trkpt lat="46.91353" lon="5.65248">
        <ele>266.6</ele>
        <time>2020-03-04T10:42:04Z</time>
      </trkpt>
      <trkpt lat="46.91354" lon="5.65251">
        <ele>266.6</ele>
        <time>2020-03-04T10:42:05Z</time>
      </trkpt>
      <trkpt lat="46.91355" lon="5.65254">
        <ele>266.6</ele>
        <time>2020-03-04T10:42:06Z</time>
      </trkpt>
      <trkpt lat="46.91356" lon="5.65257">
        <ele>266.6</ele>
        <time>2020-03-04T10:42:07Z</time>
      </trkpt>
      <trkpt lat="46.91358" lon="5.65261">
        <ele>266.6</ele>
        <time>2020-03-04T10:42:08Z</time>
      </trkpt>
      <trkpt lat="46.91359" lon="5.65264">
        <ele>266.6</ele>
        <time>2020-03-04T10:42:09Z</time>
      </trkpt>
      <trkpt lat="46.91361" lon="5.65268">
        <ele>266.6</ele>
        <time>2020-03-04T10:42:10Z</time>
      </trkpt>
      <trkpt lat="46.91363" lon="5.65272">
        <ele>266.6</ele>
        <time>2020-03-04T10:42:11Z</time>
      </trkpt>
      <trkpt lat="46.91364" lon="5.65277">
        <ele>266.6</ele>
        <time>2020-03-04T10:42:12Z</time>
      </trkpt>
      <trkpt lat="46.91366" lon="5.65282">
        <ele>266.6</ele>
        <time>2020-03-04T10:42:13Z</time>
      </trkpt>
      <trkpt lat="46.91368" lon="5.65287">
        <ele>266.6</ele>
        <time>2020-03-04T10:42:14Z</time>
      </trkpt>
      <trkpt lat="46.9137" lon="5.65292">
        <ele>266.4</ele>
        <time>2020-03-04T10:42:15Z</time>
      </trkpt>
      <trkpt lat="46.91372" lon="5.65297">
        <ele>266.4</ele>
        <time>2020-03-04T10:42:16Z</time>
      </trkpt>
      <trkpt lat="46.91374" lon="5.65302">
        <ele>266.4</ele>
        <time>2020-03-04T10:42:17Z</time>
      </trkpt>
      <trkpt lat="46.91376" lon="5.65308">
        <ele>266</ele>
        <time>2020-03-04T10:42:18Z</time>
      </trkpt>
      <trkpt lat="46.91378" lon="5.65313">
        <ele>266</ele>
        <time>2020-03-04T10:42:19Z</time>
      </trkpt>
      <trkpt lat="46.9138" lon="5.65318">
        <ele>266</ele>
        <time>2020-03-04T10:42:20Z</time>
      </trkpt>
      <trkpt lat="46.91383" lon="5.65323">
        <ele>266</ele>
        <time>2020-03-04T10:42:21Z</time>
      </trkpt>
      <trkpt lat="46.91385" lon="5.65329">
        <ele>265.8</ele>
        <time>2020-03-04T10:42:22Z</time>
      </trkpt>
      <trkpt lat="46.91387" lon="5.65334">
        <ele>265.8</ele>
        <time>2020-03-04T10:42:23Z</time>
      </trkpt>
      <trkpt lat="46.9139" lon="5.65341">
        <ele>265.8</ele>
        <time>2020-03-04T10:42:24Z</time>
      </trkpt>
      <trkpt lat="46.91393" lon="5.65347">
        <ele>265.8</ele>
        <time>2020-03-04T10:42:25Z</time>
      </trkpt>
      <trkpt lat="46.91395" lon="5.65354">
        <ele>265.8</ele>
        <time>2020-03-04T10:42:26Z</time>
      </trkpt>
      <trkpt lat="46.91398" lon="5.65361">
        <ele>265.8</ele>
        <time>2020-03-04T10:42:27Z</time>
      </trkpt>
      <trkpt lat="46.91401" lon="5.65369">
        <ele>265.8</ele>
        <time>2020-03-04T10:42:28Z</time>
      </trkpt>
      <trkpt lat="46.91404" lon="5.65376">
        <ele>265.6</ele>
        <time>2020-03-04T10:42:29Z</time>
      </trkpt>
      <trkpt lat="46.91407" lon="5.65383">
        <ele>265.6</ele>
        <time>2020-03-04T10:42:30Z</time>
      </trkpt>
      <trkpt lat="46.91411" lon="5.65391">
        <ele>265.6</ele>
        <time>2020-03-04T10:42:31Z</time>
      </trkpt>
      <trkpt lat="46.91414" lon="5.65399">
        <ele>265.6</ele>
        <time>2020-03-04T10:42:32Z</time>
      </trkpt>
      <trkpt lat="46.91417" lon="5.65408">
        <ele>265.6</ele>
        <time>2020-03-04T10:42:33Z</time>
      </trkpt>
      <trkpt lat="46.9142" lon="5.65416">
        <ele>265.6</ele>
        <time>2020-03-04T10:42:34Z</time>
      </trkpt>
      <trkpt lat="46.91424" lon="5.65424">
        <ele>265.2</ele>
        <time>2020-03-04T10:42:35Z</time>
      </trkpt>
      <trkpt lat="46.91427" lon="5.65433">
        <ele>265.2</ele>
        <time>2020-03-04T10:42:36Z</time>
      </trkpt>
      <trkpt lat="46.9143" lon="5.65441">
        <ele>265.2</ele>
        <time>2020-03-04T10:42:37Z</time>
      </trkpt>
      <trkpt lat="46.91434" lon="5.65449">
        <ele>265</ele>
        <time>2020-03-04T10:42:38Z</time>
      </trkpt>
      <trkpt lat="46.91437" lon="5.65458">
        <ele>265</ele>
        <time>2020-03-04T10:42:39Z</time>
      </trkpt>
      <trkpt lat="46.91441" lon="5.65466">
        <ele>265</ele>
        <time>2020-03-04T10:42:40Z</time>
      </trkpt>
      <trkpt lat="46.91444" lon="5.65475">
        <ele>265</ele>
        <time>2020-03-04T10:42:41Z</time>
      </trkpt>
      <trkpt lat="46.91447" lon="5.65484">
        <ele>264.8</ele>
        <time>2020-03-04T10:42:42Z</time>
      </trkpt>
      <trkpt lat="46.91451" lon="5.65492">
        <ele>264.8</ele>
        <time>2020-03-04T10:42:43Z</time>
      </trkpt>
      <trkpt lat="46.91454" lon="5.65501">
        <ele>264.8</ele>
        <time>2020-03-04T10:42:44Z</time>
      </trkpt>
      <trkpt lat="46.91458" lon="5.6551">
        <ele>264.8</ele>
        <time>2020-03-04T10:42:45Z</time>
      </trkpt>
      <trkpt lat="46.91461" lon="5.65518">
        <ele>264.8</ele>
        <time>2020-03-04T10:42:46Z</time>
      </trkpt>
      <trkpt lat="46.91464" lon="5.65527">
        <ele>264.8</ele>
        <time>2020-03-04T10:42:47Z</time>
      </trkpt>
      <trkpt lat="46.91467" lon="5.65536">
        <ele>264.6</ele>
        <time>2020-03-04T10:42:48Z</time>
      </trkpt>
      <trkpt lat="46.91471" lon="5.65546">
        <ele>264.6</ele>
        <time>2020-03-04T10:42:49Z</time>
      </trkpt>
      <trkpt lat="46.91474" lon="5.65555">
        <ele>264.2</ele>
        <time>2020-03-04T10:42:50Z</time>
      </trkpt>
      <trkpt lat="46.91477" lon="5.65566">
        <ele>264</ele>
        <time>2020-03-04T10:42:51Z</time>
      </trkpt>
      <trkpt lat="46.91481" lon="5.65576">
        <ele>263.8</ele>
        <time>2020-03-04T10:42:52Z</time>
      </trkpt>
      <trkpt lat="46.91484" lon="5.65587">
        <ele>263.4</ele>
        <time>2020-03-04T10:42:53Z</time>
      </trkpt>
      <trkpt lat="46.91488" lon="5.65598">
        <ele>263</ele>
        <time>2020-03-04T10:42:54Z</time>
      </trkpt>
      <trkpt lat="46.91491" lon="5.65609">
        <ele>262.6</ele>
        <time>2020-03-04T10:42:55Z</time>
      </trkpt>
      <trkpt lat="46.91495" lon="5.6562">
        <ele>262.4</ele>
        <time>2020-03-04T10:42:56Z</time>
      </trkpt>
      <trkpt lat="46.91499" lon="5.65631">
        <ele>262</ele>
        <time>2020-03-04T10:42:57Z</time>
      </trkpt>
      <trkpt lat="46.91503" lon="5.65643">
        <ele>261.6</ele>
        <time>2020-03-04T10:42:58Z</time>
      </trkpt>
      <trkpt lat="46.91506" lon="5.65655">
        <ele>261.2</ele>
        <time>2020-03-04T10:42:59Z</time>
      </trkpt>
      <trkpt lat="46.9151" lon="5.65667">
        <ele>260.8</ele>
        <time>2020-03-04T10:43:00Z</time>
      </trkpt>
      <trkpt lat="46.91514" lon="5.65679">
        <ele>260.6</ele>
        <time>2020-03-04T10:43:01Z</time>
      </trkpt>
      <trkpt lat="46.91517" lon="5.65691">
        <ele>260.2</ele>
        <time>2020-03-04T10:43:02Z</time>
      </trkpt>
      <trkpt lat="46.91519" lon="5.65704">
        <ele>260</ele>
        <time>2020-03-04T10:43:03Z</time>
      </trkpt>
      <trkpt lat="46.91521" lon="5.65716">
        <ele>260</ele>
        <time>2020-03-04T10:43:04Z</time>
      </trkpt>
      <trkpt lat="46.91523" lon="5.65728">
        <ele>259.8</ele>
        <time>2020-03-04T10:43:05Z</time>
      </trkpt>
      <trkpt lat="46.91524" lon="5.6574">
        <ele>259.8</ele>
        <time>2020-03-04T10:43:06Z</time>
      </trkpt>
      <trkpt lat="46.91524" lon="5.65752">
        <ele>259.8</ele>
        <time>2020-03-04T10:43:07Z</time>
      </trkpt>
      <trkpt lat="46.91525" lon="5.65764">
        <ele>259.8</ele>
        <time>2020-03-04T10:43:08Z</time>
      </trkpt>
      <trkpt lat="46.91525" lon="5.65776">
        <ele>259.8</ele>
        <time>2020-03-04T10:43:09Z</time>
      </trkpt>
      <trkpt lat="46.91525" lon="5.65787">
        <ele>259.8</ele>
        <time>2020-03-04T10:43:10Z</time>
      </trkpt>
      <trkpt lat="46.91526" lon="5.65799">
        <ele>259.8</ele>
        <time>2020-03-04T10:43:11Z</time>
      </trkpt>
      <trkpt lat="46.91525" lon="5.65809">
        <ele>260</ele>
        <time>2020-03-04T10:43:12Z</time>
      </trkpt>
      <trkpt lat="46.91526" lon="5.6582">
        <ele>260</ele>
        <time>2020-03-04T10:43:13Z</time>
      </trkpt>
      <trkpt lat="46.91526" lon="5.65831">
        <ele>260</ele>
        <time>2020-03-04T10:43:14Z</time>
      </trkpt>
      <trkpt lat="46.91526" lon="5.65841">
        <ele>260.2</ele>
        <time>2020-03-04T10:43:15Z</time>
      </trkpt>
      <trkpt lat="46.91526" lon="5.65852">
        <ele>260.2</ele>
        <time>2020-03-04T10:43:16Z</time>
      </trkpt>
      <trkpt lat="46.91526" lon="5.65862">
        <ele>260.2</ele>
        <time>2020-03-04T10:43:17Z</time>
      </trkpt>
      <trkpt lat="46.91526" lon="5.65873">
        <ele>260.2</ele>
        <time>2020-03-04T10:43:18Z</time>
      </trkpt>
      <trkpt lat="46.91526" lon="5.65884">
        <ele>260.2</ele>
        <time>2020-03-04T10:43:19Z</time>
      </trkpt>
      <trkpt lat="46.91526" lon="5.65895">
        <ele>260.2</ele>
        <time>2020-03-04T10:43:20Z</time>
      </trkpt>
      <trkpt lat="46.91527" lon="5.65905">
        <ele>260.2</ele>
        <time>2020-03-04T10:43:21Z</time>
      </trkpt>
      <trkpt lat="46.91527" lon="5.65916">
        <ele>260.2</ele>
        <time>2020-03-04T10:43:22Z</time>
      </trkpt>
      <trkpt lat="46.91527" lon="5.65927">
        <ele>260.2</ele>
        <time>2020-03-04T10:43:23Z</time>
      </trkpt>
      <trkpt lat="46.91527" lon="5.65938">
        <ele>260.2</ele>
        <time>2020-03-04T10:43:24Z</time>
      </trkpt>
      <trkpt lat="46.91527" lon="5.65949">
        <ele>260.2</ele>
        <time>2020-03-04T10:43:25Z</time>
      </trkpt>
      <trkpt lat="46.91527" lon="5.65959">
        <ele>260.2</ele>
        <time>2020-03-04T10:43:26Z</time>
      </trkpt>
      <trkpt lat="46.91527" lon="5.6597">
        <ele>260.2</ele>
        <time>2020-03-04T10:43:27Z</time>
      </trkpt>
      <trkpt lat="46.91528" lon="5.65981">
        <ele>260.2</ele>
        <time>2020-03-04T10:43:28Z</time>
      </trkpt>
      <trkpt lat="46.91528" lon="5.65992">
        <ele>260.2</ele>
        <time>2020-03-04T10:43:29Z</time>
      </trkpt>
      <trkpt lat="46.91528" lon="5.66003">
        <ele>260.2</ele>
        <time>2020-03-04T10:43:30Z</time>
      </trkpt>
      <trkpt lat="46.91528" lon="5.66014">
        <ele>260.2</ele>
        <time>2020-03-04T10:43:31Z</time>
      </trkpt>
      <trkpt lat="46.91528" lon="5.66025">
        <ele>260.2</ele>
        <time>2020-03-04T10:43:32Z</time>
      </trkpt>
      <trkpt lat="46.91528" lon="5.66035">
        <ele>260.2</ele>
        <time>2020-03-04T10:43:33Z</time>
      </trkpt>
      <trkpt lat="46.91528" lon="5.66045">
        <ele>260.2</ele>
        <time>2020-03-04T10:43:34Z</time>
      </trkpt>
      <trkpt lat="46.91528" lon="5.66056">
        <ele>260.2</ele>
        <time>2020-03-04T10:43:35Z</time>
      </trkpt>
      <trkpt lat="46.91528" lon="5.66066">
        <ele>260.2</ele>
        <time>2020-03-04T10:43:36Z</time>
      </trkpt>
      <trkpt lat="46.91528" lon="5.66076">
        <ele>260.4</ele>
        <time>2020-03-04T10:43:37Z</time>
      </trkpt>
      <trkpt lat="46.91528" lon="5.66086">
        <ele>260.4</ele>
        <time>2020-03-04T10:43:38Z</time>
      </trkpt>
      <trkpt lat="46.91529" lon="5.66096">
        <ele>260.6</ele>
        <time>2020-03-04T10:43:39Z</time>
      </trkpt>
      <trkpt lat="46.91529" lon="5.66106">
        <ele>260.6</ele>
        <time>2020-03-04T10:43:40Z</time>
      </trkpt>
      <trkpt lat="46.9153" lon="5.66116">
        <ele>260.8</ele>
        <time>2020-03-04T10:43:41Z</time>
      </trkpt>
      <trkpt lat="46.91532" lon="5.66126">
        <ele>260.8</ele>
        <time>2020-03-04T10:43:42Z</time>
      </trkpt>
      <trkpt lat="46.91533" lon="5.66137">
        <ele>260.8</ele>
        <time>2020-03-04T10:43:43Z</time>
      </trkpt>
      <trkpt lat="46.91535" lon="5.66147">
        <ele>260.8</ele>
        <time>2020-03-04T10:43:44Z</time>
      </trkpt>
      <trkpt lat="46.91538" lon="5.66156">
        <ele>260.8</ele>
        <time>2020-03-04T10:43:45Z</time>
      </trkpt>
      <trkpt lat="46.9154" lon="5.66166">
        <ele>261.2</ele>
        <time>2020-03-04T10:43:46Z</time>
      </trkpt>
      <trkpt lat="46.91543" lon="5.66175">
        <ele>261.2</ele>
        <time>2020-03-04T10:43:47Z</time>
      </trkpt>
      <trkpt lat="46.91547" lon="5.66184">
        <ele>261.4</ele>
        <time>2020-03-04T10:43:48Z</time>
      </trkpt>
      <trkpt lat="46.9155" lon="5.66193">
        <ele>261.4</ele>
        <time>2020-03-04T10:43:49Z</time>
      </trkpt>
      <trkpt lat="46.91554" lon="5.66202">
        <ele>261.4</ele>
        <time>2020-03-04T10:43:50Z</time>
      </trkpt>
      <trkpt lat="46.91558" lon="5.6621">
        <ele>261.4</ele>
        <time>2020-03-04T10:43:51Z</time>
      </trkpt>
      <trkpt lat="46.91562" lon="5.66219">
        <ele>260.8</ele>
        <time>2020-03-04T10:43:52Z</time>
      </trkpt>
      <trkpt lat="46.91566" lon="5.66227">
        <ele>260.8</ele>
        <time>2020-03-04T10:43:53Z</time>
      </trkpt>
      <trkpt lat="46.91571" lon="5.66236">
        <ele>261</ele>
        <time>2020-03-04T10:43:54Z</time>
      </trkpt>
      <trkpt lat="46.91575" lon="5.66244">
        <ele>261</ele>
        <time>2020-03-04T10:43:55Z</time>
      </trkpt>
      <trkpt lat="46.91579" lon="5.66252">
        <ele>261</ele>
        <time>2020-03-04T10:43:56Z</time>
      </trkpt>
      <trkpt lat="46.91584" lon="5.66261">
        <ele>261</ele>
        <time>2020-03-04T10:43:57Z</time>
      </trkpt>
      <trkpt lat="46.91588" lon="5.6627">
        <ele>261</ele>
        <time>2020-03-04T10:43:58Z</time>
      </trkpt>
      <trkpt lat="46.91593" lon="5.66278">
        <ele>261</ele>
        <time>2020-03-04T10:43:59Z</time>
      </trkpt>
      <trkpt lat="46.91597" lon="5.66286">
        <ele>261</ele>
        <time>2020-03-04T10:44:00Z</time>
      </trkpt>
      <trkpt lat="46.91601" lon="5.66295">
        <ele>261</ele>
        <time>2020-03-04T10:44:01Z</time>
      </trkpt>
      <trkpt lat="46.91605" lon="5.66303">
        <ele>261</ele>
        <time>2020-03-04T10:44:02Z</time>
      </trkpt>
      <trkpt lat="46.9161" lon="5.66312">
        <ele>261</ele>
        <time>2020-03-04T10:44:03Z</time>
      </trkpt>
      <trkpt lat="46.91614" lon="5.6632">
        <ele>261</ele>
        <time>2020-03-04T10:44:04Z</time>
      </trkpt>
      <trkpt lat="46.91618" lon="5.66328">
        <ele>261</ele>
        <time>2020-03-04T10:44:05Z</time>
      </trkpt>
      <trkpt lat="46.91622" lon="5.66336">
        <ele>261</ele>
        <time>2020-03-04T10:44:06Z</time>
      </trkpt>
      <trkpt lat="46.91627" lon="5.66344">
        <ele>261</ele>
        <time>2020-03-04T10:44:07Z</time>
      </trkpt>
      <trkpt lat="46.91631" lon="5.66352">
        <ele>261</ele>
        <time>2020-03-04T10:44:08Z</time>
      </trkpt>
      <trkpt lat="46.91635" lon="5.66361">
        <ele>261</ele>
        <time>2020-03-04T10:44:09Z</time>
      </trkpt>
      <trkpt lat="46.91639" lon="5.66369">
        <ele>261</ele>
        <time>2020-03-04T10:44:10Z</time>
      </trkpt>
      <trkpt lat="46.91643" lon="5.66377">
        <ele>261</ele>
        <time>2020-03-04T10:44:11Z</time>
      </trkpt>
      <trkpt lat="46.91647" lon="5.66385">
        <ele>261</ele>
        <time>2020-03-04T10:44:12Z</time>
      </trkpt>
      <trkpt lat="46.91651" lon="5.66393">
        <ele>261</ele>
        <time>2020-03-04T10:44:13Z</time>
      </trkpt>
      <trkpt lat="46.91655" lon="5.66401">
        <ele>261</ele>
        <time>2020-03-04T10:44:14Z</time>
      </trkpt>
      <trkpt lat="46.91659" lon="5.66409">
        <ele>261</ele>
        <time>2020-03-04T10:44:15Z</time>
      </trkpt>
      <trkpt lat="46.91663" lon="5.66416">
        <ele>261</ele>
        <time>2020-03-04T10:44:16Z</time>
      </trkpt>
      <trkpt lat="46.91667" lon="5.66424">
        <ele>261.4</ele>
        <time>2020-03-04T10:44:17Z</time>
      </trkpt>
      <trkpt lat="46.91671" lon="5.66432">
        <ele>261.4</ele>
        <time>2020-03-04T10:44:18Z</time>
      </trkpt>
      <trkpt lat="46.91675" lon="5.6644">
        <ele>261.4</ele>
        <time>2020-03-04T10:44:19Z</time>
      </trkpt>
      <trkpt lat="46.91678" lon="5.66448">
        <ele>261.4</ele>
        <time>2020-03-04T10:44:20Z</time>
      </trkpt>
      <trkpt lat="46.91682" lon="5.66455">
        <ele>261.4</ele>
        <time>2020-03-04T10:44:21Z</time>
      </trkpt>
      <trkpt lat="46.91686" lon="5.66463">
        <ele>261.6</ele>
        <time>2020-03-04T10:44:22Z</time>
      </trkpt>
      <trkpt lat="46.91689" lon="5.6647">
        <ele>261.6</ele>
        <time>2020-03-04T10:44:23Z</time>
      </trkpt>
      <trkpt lat="46.91693" lon="5.66478">
        <ele>261.6</ele>
        <time>2020-03-04T10:44:24Z</time>
      </trkpt>
      <trkpt lat="46.91696" lon="5.66485">
        <ele>261.6</ele>
        <time>2020-03-04T10:44:25Z</time>
      </trkpt>
      <trkpt lat="46.91699" lon="5.66492">
        <ele>262</ele>
        <time>2020-03-04T10:44:26Z</time>
      </trkpt>
      <trkpt lat="46.91702" lon="5.66499">
        <ele>262.2</ele>
        <time>2020-03-04T10:44:27Z</time>
      </trkpt>
      <trkpt lat="46.91705" lon="5.66506">
        <ele>262.2</ele>
        <time>2020-03-04T10:44:28Z</time>
      </trkpt>
      <trkpt lat="46.91707" lon="5.66513">
        <ele>262.6</ele>
        <time>2020-03-04T10:44:29Z</time>
      </trkpt>
      <trkpt lat="46.91709" lon="5.6652">
        <ele>262.6</ele>
        <time>2020-03-04T10:44:30Z</time>
      </trkpt>
      <trkpt lat="46.91711" lon="5.66527">
        <ele>262.8</ele>
        <time>2020-03-04T10:44:31Z</time>
      </trkpt>
      <trkpt lat="46.91712" lon="5.66534">
        <ele>262.8</ele>
        <time>2020-03-04T10:44:32Z</time>
      </trkpt>
      <trkpt lat="46.91714" lon="5.66541">
        <ele>263.2</ele>
        <time>2020-03-04T10:44:33Z</time>
      </trkpt>
      <trkpt lat="46.91715" lon="5.66548">
        <ele>263.2</ele>
        <time>2020-03-04T10:44:34Z</time>
      </trkpt>
      <trkpt lat="46.91717" lon="5.66555">
        <ele>263.4</ele>
        <time>2020-03-04T10:44:35Z</time>
      </trkpt>
      <trkpt lat="46.91718" lon="5.66561">
        <ele>263.4</ele>
        <time>2020-03-04T10:44:36Z</time>
      </trkpt>
      <trkpt lat="46.91719" lon="5.66568">
        <ele>263.8</ele>
        <time>2020-03-04T10:44:37Z</time>
      </trkpt>
      <trkpt lat="46.91719" lon="5.66575">
        <ele>264.2</ele>
        <time>2020-03-04T10:44:38Z</time>
      </trkpt>
      <trkpt lat="46.9172" lon="5.66582">
        <ele>264.4</ele>
        <time>2020-03-04T10:44:39Z</time>
      </trkpt>
      <trkpt lat="46.9172" lon="5.66588">
        <ele>264.4</ele>
        <time>2020-03-04T10:44:40Z</time>
      </trkpt>
      <trkpt lat="46.91721" lon="5.66595">
        <ele>264.8</ele>
        <time>2020-03-04T10:44:41Z</time>
      </trkpt>
      <trkpt lat="46.91721" lon="5.66602">
        <ele>265</ele>
        <time>2020-03-04T10:44:42Z</time>
      </trkpt>
      <trkpt lat="46.91721" lon="5.66608">
        <ele>265</ele>
        <time>2020-03-04T10:44:43Z</time>
      </trkpt>
      <trkpt lat="46.91722" lon="5.66615">
        <ele>265.2</ele>
        <time>2020-03-04T10:44:44Z</time>
      </trkpt>
      <trkpt lat="46.91722" lon="5.66621">
        <ele>265.4</ele>
        <time>2020-03-04T10:44:45Z</time>
      </trkpt>
      <trkpt lat="46.91723" lon="5.66627">
        <ele>265.6</ele>
        <time>2020-03-04T10:44:46Z</time>
      </trkpt>
      <trkpt lat="46.91723" lon="5.66633">
        <ele>265.6</ele>
        <time>2020-03-04T10:44:47Z</time>
      </trkpt>
      <trkpt lat="46.91723" lon="5.66639">
        <ele>266</ele>
        <time>2020-03-04T10:44:48Z</time>
      </trkpt>
      <trkpt lat="46.91723" lon="5.66645">
        <ele>266.2</ele>
        <time>2020-03-04T10:44:49Z</time>
      </trkpt>
      <trkpt lat="46.91724" lon="5.6665">
        <ele>266.2</ele>
        <time>2020-03-04T10:44:50Z</time>
      </trkpt>
      <trkpt lat="46.91724" lon="5.66656">
        <ele>266.6</ele>
        <time>2020-03-04T10:44:51Z</time>
      </trkpt>
      <trkpt lat="46.91724" lon="5.66661">
        <ele>266.6</ele>
        <time>2020-03-04T10:44:52Z</time>
      </trkpt>
      <trkpt lat="46.91724" lon="5.66667">
        <ele>267</ele>
        <time>2020-03-04T10:44:53Z</time>
      </trkpt>
      <trkpt lat="46.91724" lon="5.66672">
        <ele>267.2</ele>
        <time>2020-03-04T10:44:54Z</time>
      </trkpt>
      <trkpt lat="46.91724" lon="5.66678">
        <ele>267.2</ele>
        <time>2020-03-04T10:44:55Z</time>
      </trkpt>
      <trkpt lat="46.91723" lon="5.66683">
        <ele>267.6</ele>
        <time>2020-03-04T10:44:56Z</time>
      </trkpt>
      <trkpt lat="46.91723" lon="5.66689">
        <ele>267.6</ele>
        <time>2020-03-04T10:44:57Z</time>
      </trkpt>
      <trkpt lat="46.91723" lon="5.66694">
        <ele>268</ele>
        <time>2020-03-04T10:44:58Z</time>
      </trkpt>
      <trkpt lat="46.91722" lon="5.667">
        <ele>268</ele>
        <time>2020-03-04T10:44:59Z</time>
      </trkpt>
      <trkpt lat="46.91722" lon="5.66705">
        <ele>268.2</ele>
        <time>2020-03-04T10:45:00Z</time>
      </trkpt>
      <trkpt lat="46.91721" lon="5.6671">
        <ele>268.2</ele>
        <time>2020-03-04T10:45:01Z</time>
      </trkpt>
      <trkpt lat="46.9172" lon="5.66716">
        <ele>268.4</ele>
        <time>2020-03-04T10:45:02Z</time>
      </trkpt>
      <trkpt lat="46.91719" lon="5.66721">
        <ele>268.4</ele>
        <time>2020-03-04T10:45:03Z</time>
      </trkpt>
      <trkpt lat="46.91718" lon="5.66726">
        <ele>268.4</ele>
        <time>2020-03-04T10:45:04Z</time>
      </trkpt>
      <trkpt lat="46.91717" lon="5.66732">
        <ele>268.8</ele>
        <time>2020-03-04T10:45:05Z</time>
      </trkpt>
      <trkpt lat="46.91716" lon="5.66737">
        <ele>268.8</ele>
        <time>2020-03-04T10:45:06Z</time>
      </trkpt>
      <trkpt lat="46.91715" lon="5.66743">
        <ele>268.8</ele>
        <time>2020-03-04T10:45:07Z</time>
      </trkpt>
      <trkpt lat="46.91713" lon="5.66749">
        <ele>268.8</ele>
        <time>2020-03-04T10:45:08Z</time>
      </trkpt>
      <trkpt lat="46.91712" lon="5.66755">
        <ele>268.8</ele>
        <time>2020-03-04T10:45:09Z</time>
      </trkpt>
      <trkpt lat="46.9171" lon="5.66761">
        <ele>268.8</ele>
        <time>2020-03-04T10:45:10Z</time>
      </trkpt>
      <trkpt lat="46.91709" lon="5.66767">
        <ele>268.8</ele>
        <time>2020-03-04T10:45:11Z</time>
      </trkpt>
      <trkpt lat="46.91708" lon="5.66773">
        <ele>268.8</ele>
        <time>2020-03-04T10:45:12Z</time>
      </trkpt>
      <trkpt lat="46.91706" lon="5.66779">
        <ele>269</ele>
        <time>2020-03-04T10:45:13Z</time>
      </trkpt>
      <trkpt lat="46.91705" lon="5.66784">
        <ele>269</ele>
        <time>2020-03-04T10:45:14Z</time>
      </trkpt>
      <trkpt lat="46.91704" lon="5.6679">
        <ele>269</ele>
        <time>2020-03-04T10:45:15Z</time>
      </trkpt>
      <trkpt lat="46.91702" lon="5.66795">
        <ele>269</ele>
        <time>2020-03-04T10:45:16Z</time>
      </trkpt>
      <trkpt lat="46.91701" lon="5.668">
        <ele>269</ele>
        <time>2020-03-04T10:45:17Z</time>
      </trkpt>
      <trkpt lat="46.917" lon="5.66806">
        <ele>269</ele>
        <time>2020-03-04T10:45:18Z</time>
      </trkpt>
      <trkpt lat="46.91698" lon="5.66811">
        <ele>269.2</ele>
        <time>2020-03-04T10:45:19Z</time>
      </trkpt>
      <trkpt lat="46.91697" lon="5.66817">
        <ele>269.2</ele>
        <time>2020-03-04T10:45:20Z</time>
      </trkpt>
      <trkpt lat="46.91696" lon="5.66823">
        <ele>269.2</ele>
        <time>2020-03-04T10:45:21Z</time>
      </trkpt>
      <trkpt lat="46.91694" lon="5.6683">
        <ele>269.2</ele>
        <time>2020-03-04T10:45:22Z</time>
      </trkpt>
      <trkpt lat="46.91693" lon="5.66836">
        <ele>269.2</ele>
        <time>2020-03-04T10:45:23Z</time>
      </trkpt>
      <trkpt lat="46.91691" lon="5.66842">
        <ele>269.2</ele>
        <time>2020-03-04T10:45:24Z</time>
      </trkpt>
      <trkpt lat="46.91689" lon="5.66849">
        <ele>269.2</ele>
        <time>2020-03-04T10:45:25Z</time>
      </trkpt>
      <trkpt lat="46.91687" lon="5.66855">
        <ele>269.2</ele>
        <time>2020-03-04T10:45:26Z</time>
      </trkpt>
      <trkpt lat="46.91686" lon="5.66862">
        <ele>269.4</ele>
        <time>2020-03-04T10:45:27Z</time>
      </trkpt>
      <trkpt lat="46.91684" lon="5.66868">
        <ele>269.4</ele>
        <time>2020-03-04T10:45:28Z</time>
      </trkpt>
      <trkpt lat="46.91682" lon="5.66875">
        <ele>269.6</ele>
        <time>2020-03-04T10:45:29Z</time>
      </trkpt>
      <trkpt lat="46.9168" lon="5.66881">
        <ele>269.6</ele>
        <time>2020-03-04T10:45:30Z</time>
      </trkpt>
      <trkpt lat="46.91679" lon="5.66888">
        <ele>269.8</ele>
        <time>2020-03-04T10:45:31Z</time>
      </trkpt>
      <trkpt lat="46.91677" lon="5.66894">
        <ele>269.8</ele>
        <time>2020-03-04T10:45:32Z</time>
      </trkpt>
      <trkpt lat="46.91676" lon="5.66901">
        <ele>269.8</ele>
        <time>2020-03-04T10:45:33Z</time>
      </trkpt>
      <trkpt lat="46.91674" lon="5.66907">
        <ele>269.8</ele>
        <time>2020-03-04T10:45:34Z</time>
      </trkpt>
      <trkpt lat="46.91673" lon="5.66913">
        <ele>270</ele>
        <time>2020-03-04T10:45:35Z</time>
      </trkpt>
      <trkpt lat="46.91671" lon="5.6692">
        <ele>270</ele>
        <time>2020-03-04T10:45:36Z</time>
      </trkpt>
      <trkpt lat="46.91669" lon="5.66927">
        <ele>270</ele>
        <time>2020-03-04T10:45:37Z</time>
      </trkpt>
      <trkpt lat="46.91667" lon="5.66933">
        <ele>270.2</ele>
        <time>2020-03-04T10:45:38Z</time>
      </trkpt>
      <trkpt lat="46.91666" lon="5.6694">
        <ele>270.2</ele>
        <time>2020-03-04T10:45:39Z</time>
      </trkpt>
      <trkpt lat="46.91664" lon="5.66947">
        <ele>270.2</ele>
        <time>2020-03-04T10:45:40Z</time>
      </trkpt>
      <trkpt lat="46.91663" lon="5.66954">
        <ele>270.2</ele>
        <time>2020-03-04T10:45:41Z</time>
      </trkpt>
      <trkpt lat="46.91661" lon="5.66961">
        <ele>270.4</ele>
        <time>2020-03-04T10:45:42Z</time>
      </trkpt>
      <trkpt lat="46.91659" lon="5.66968">
        <ele>270.4</ele>
        <time>2020-03-04T10:45:43Z</time>
      </trkpt>
      <trkpt lat="46.91658" lon="5.66976">
        <ele>270.4</ele>
        <time>2020-03-04T10:45:44Z</time>
      </trkpt>
      <trkpt lat="46.91656" lon="5.66983">
        <ele>270.4</ele>
        <time>2020-03-04T10:45:45Z</time>
      </trkpt>
      <trkpt lat="46.91654" lon="5.66991">
        <ele>270.4</ele>
        <time>2020-03-04T10:45:46Z</time>
      </trkpt>
      <trkpt lat="46.91652" lon="5.66999">
        <ele>270.4</ele>
        <time>2020-03-04T10:45:47Z</time>
      </trkpt>
      <trkpt lat="46.9165" lon="5.67007">
        <ele>270.4</ele>
        <time>2020-03-04T10:45:48Z</time>
      </trkpt>
      <trkpt lat="46.91648" lon="5.67015">
        <ele>270.4</ele>
        <time>2020-03-04T10:45:49Z</time>
      </trkpt>
      <trkpt lat="46.91646" lon="5.67023">
        <ele>270.4</ele>
        <time>2020-03-04T10:45:50Z</time>
      </trkpt>
      <trkpt lat="46.91645" lon="5.6703">
        <ele>270.4</ele>
        <time>2020-03-04T10:45:51Z</time>
      </trkpt>
      <trkpt lat="46.91643" lon="5.67038">
        <ele>270.4</ele>
        <time>2020-03-04T10:45:52Z</time>
      </trkpt>
      <trkpt lat="46.91641" lon="5.67046">
        <ele>270.4</ele>
        <time>2020-03-04T10:45:53Z</time>
      </trkpt>
      <trkpt lat="46.91639" lon="5.67054">
        <ele>270.4</ele>
        <time>2020-03-04T10:45:54Z</time>
      </trkpt>
      <trkpt lat="46.91638" lon="5.67062">
        <ele>270.4</ele>
        <time>2020-03-04T10:45:55Z</time>
      </trkpt>
      <trkpt lat="46.91636" lon="5.6707">
        <ele>270.4</ele>
        <time>2020-03-04T10:45:56Z</time>
      </trkpt>
      <trkpt lat="46.91635" lon="5.67078">
        <ele>270.4</ele>
        <time>2020-03-04T10:45:57Z</time>
      </trkpt>
      <trkpt lat="46.91633" lon="5.67085">
        <ele>270.4</ele>
        <time>2020-03-04T10:45:58Z</time>
      </trkpt>
      <trkpt lat="46.91631" lon="5.67093">
        <ele>270.4</ele>
        <time>2020-03-04T10:45:59Z</time>
      </trkpt>
      <trkpt lat="46.91629" lon="5.67101">
        <ele>270.4</ele>
        <time>2020-03-04T10:46:00Z</time>
      </trkpt>
      <trkpt lat="46.91628" lon="5.67108">
        <ele>270.4</ele>
        <time>2020-03-04T10:46:01Z</time>
      </trkpt>
      <trkpt lat="46.91626" lon="5.67116">
        <ele>270.4</ele>
        <time>2020-03-04T10:46:02Z</time>
      </trkpt>
      <trkpt lat="46.91624" lon="5.67124">
        <ele>270.8</ele>
        <time>2020-03-04T10:46:03Z</time>
      </trkpt>
      <trkpt lat="46.91622" lon="5.67132">
        <ele>270.8</ele>
        <time>2020-03-04T10:46:04Z</time>
      </trkpt>
      <trkpt lat="46.9162" lon="5.67139">
        <ele>270.8</ele>
        <time>2020-03-04T10:46:05Z</time>
      </trkpt>
      <trkpt lat="46.91619" lon="5.67147">
        <ele>271</ele>
        <time>2020-03-04T10:46:06Z</time>
      </trkpt>
      <trkpt lat="46.91617" lon="5.67155">
        <ele>271</ele>
        <time>2020-03-04T10:46:07Z</time>
      </trkpt>
      <trkpt lat="46.91615" lon="5.67162">
        <ele>271</ele>
        <time>2020-03-04T10:46:08Z</time>
      </trkpt>
      <trkpt lat="46.91614" lon="5.6717">
        <ele>271.2</ele>
        <time>2020-03-04T10:46:09Z</time>
      </trkpt>
      <trkpt lat="46.91612" lon="5.67177">
        <ele>271.2</ele>
        <time>2020-03-04T10:46:10Z</time>
      </trkpt>
      <trkpt lat="46.9161" lon="5.67184">
        <ele>271.4</ele>
        <time>2020-03-04T10:46:11Z</time>
      </trkpt>
      <trkpt lat="46.91609" lon="5.67191">
        <ele>271.4</ele>
        <time>2020-03-04T10:46:12Z</time>
      </trkpt>
      <trkpt lat="46.91607" lon="5.67198">
        <ele>271.4</ele>
        <time>2020-03-04T10:46:13Z</time>
      </trkpt>
      <trkpt lat="46.91605" lon="5.67204">
        <ele>271.4</ele>
        <time>2020-03-04T10:46:14Z</time>
      </trkpt>
      <trkpt lat="46.91604" lon="5.67211">
        <ele>271.8</ele>
        <time>2020-03-04T10:46:15Z</time>
      </trkpt>
      <trkpt lat="46.91602" lon="5.67218">
        <ele>271.8</ele>
        <time>2020-03-04T10:46:16Z</time>
      </trkpt>
      <trkpt lat="46.91601" lon="5.67224">
        <ele>272.2</ele>
        <time>2020-03-04T10:46:17Z</time>
      </trkpt>
      <trkpt lat="46.91599" lon="5.6723">
        <ele>272.2</ele>
        <time>2020-03-04T10:46:18Z</time>
      </trkpt>
      <trkpt lat="46.91598" lon="5.67236">
        <ele>272.2</ele>
        <time>2020-03-04T10:46:19Z</time>
      </trkpt>
      <trkpt lat="46.91597" lon="5.67242">
        <ele>272.4</ele>
        <time>2020-03-04T10:46:20Z</time>
      </trkpt>
      <trkpt lat="46.91595" lon="5.67248">
        <ele>272.4</ele>
        <time>2020-03-04T10:46:21Z</time>
      </trkpt>
      <trkpt lat="46.91594" lon="5.67254">
        <ele>272.6</ele>
        <time>2020-03-04T10:46:22Z</time>
      </trkpt>
      <trkpt lat="46.91593" lon="5.67259">
        <ele>272.6</ele>
        <time>2020-03-04T10:46:23Z</time>
      </trkpt>
      <trkpt lat="46.91592" lon="5.67265">
        <ele>273</ele>
        <time>2020-03-04T10:46:24Z</time>
      </trkpt>
      <trkpt lat="46.91591" lon="5.6727">
        <ele>273</ele>
        <time>2020-03-04T10:46:25Z</time>
      </trkpt>
      <trkpt lat="46.91589" lon="5.67276">
        <ele>273.2</ele>
        <time>2020-03-04T10:46:26Z</time>
      </trkpt>
      <trkpt lat="46.91588" lon="5.67281">
        <ele>273.2</ele>
        <time>2020-03-04T10:46:27Z</time>
      </trkpt>
      <trkpt lat="46.91587" lon="5.67287">
        <ele>273.6</ele>
        <time>2020-03-04T10:46:28Z</time>
      </trkpt>
      <trkpt lat="46.91586" lon="5.67292">
        <ele>273.6</ele>
        <time>2020-03-04T10:46:29Z</time>
      </trkpt>
      <trkpt lat="46.91585" lon="5.67297">
        <ele>273.8</ele>
        <time>2020-03-04T10:46:30Z</time>
      </trkpt>
      <trkpt lat="46.91584" lon="5.67303">
        <ele>273.8</ele>
        <time>2020-03-04T10:46:31Z</time>
      </trkpt>
      <trkpt lat="46.91583" lon="5.67308">
        <ele>274.2</ele>
        <time>2020-03-04T10:46:32Z</time>
      </trkpt>
      <trkpt lat="46.91582" lon="5.67313">
        <ele>274.2</ele>
        <time>2020-03-04T10:46:33Z</time>
      </trkpt>
      <trkpt lat="46.91581" lon="5.67318">
        <ele>274.6</ele>
        <time>2020-03-04T10:46:34Z</time>
      </trkpt>
      <trkpt lat="46.9158" lon="5.67323">
        <ele>274.6</ele>
        <time>2020-03-04T10:46:35Z</time>
      </trkpt>
      <trkpt lat="46.91579" lon="5.67328">
        <ele>274.8</ele>
        <time>2020-03-04T10:46:36Z</time>
      </trkpt>
      <trkpt lat="46.91578" lon="5.67332">
        <ele>274.8</ele>
        <time>2020-03-04T10:46:37Z</time>
      </trkpt>
      <trkpt lat="46.91577" lon="5.67337">
        <ele>275.2</ele>
        <time>2020-03-04T10:46:38Z</time>
      </trkpt>
      <trkpt lat="46.91576" lon="5.67341">
        <ele>275.2</ele>
        <time>2020-03-04T10:46:39Z</time>
      </trkpt>
      <trkpt lat="46.91575" lon="5.67346">
        <ele>275.4</ele>
        <time>2020-03-04T10:46:40Z</time>
      </trkpt>
      <trkpt lat="46.91574" lon="5.6735">
        <ele>275.4</ele>
        <time>2020-03-04T10:46:41Z</time>
      </trkpt>
      <trkpt lat="46.91574" lon="5.67355">
        <ele>275.6</ele>
        <time>2020-03-04T10:46:42Z</time>
      </trkpt>
      <trkpt lat="46.91573" lon="5.6736">
        <ele>275.6</ele>
        <time>2020-03-04T10:46:43Z</time>
      </trkpt>
      <trkpt lat="46.91572" lon="5.67365">
        <ele>276</ele>
        <time>2020-03-04T10:46:44Z</time>
      </trkpt>
      <trkpt lat="46.91571" lon="5.67369">
        <ele>276</ele>
        <time>2020-03-04T10:46:45Z</time>
      </trkpt>
      <trkpt lat="46.9157" lon="5.67373">
        <ele>276.2</ele>
        <time>2020-03-04T10:46:46Z</time>
      </trkpt>
      <trkpt lat="46.91569" lon="5.67378">
        <ele>276.2</ele>
        <time>2020-03-04T10:46:47Z</time>
      </trkpt>
      <trkpt lat="46.91568" lon="5.67382">
        <ele>276.2</ele>
        <time>2020-03-04T10:46:48Z</time>
      </trkpt>
      <trkpt lat="46.91567" lon="5.67386">
        <ele>276.4</ele>
        <time>2020-03-04T10:46:49Z</time>
      </trkpt>
      <trkpt lat="46.91566" lon="5.6739">
        <ele>276.4</ele>
        <time>2020-03-04T10:46:50Z</time>
      </trkpt>
      <trkpt lat="46.91565" lon="5.67395">
        <ele>276.8</ele>
        <time>2020-03-04T10:46:51Z</time>
      </trkpt>
      <trkpt lat="46.91564" lon="5.67399">
        <ele>276.8</ele>
        <time>2020-03-04T10:46:52Z</time>
      </trkpt>
      <trkpt lat="46.91564" lon="5.67403">
        <ele>277.2</ele>
        <time>2020-03-04T10:46:53Z</time>
      </trkpt>
      <trkpt lat="46.91563" lon="5.67407">
        <ele>277.2</ele>
        <time>2020-03-04T10:46:54Z</time>
      </trkpt>
      <trkpt lat="46.91562" lon="5.67412">
        <ele>277.6</ele>
        <time>2020-03-04T10:46:55Z</time>
      </trkpt>
      <trkpt lat="46.91561" lon="5.67416">
        <ele>277.8</ele>
        <time>2020-03-04T10:46:56Z</time>
      </trkpt>
      <trkpt lat="46.9156" lon="5.67421">
        <ele>277.8</ele>
        <time>2020-03-04T10:46:57Z</time>
      </trkpt>
      <trkpt lat="46.91559" lon="5.67425">
        <ele>278.2</ele>
        <time>2020-03-04T10:46:58Z</time>
      </trkpt>
      <trkpt lat="46.91558" lon="5.6743">
        <ele>278.2</ele>
        <time>2020-03-04T10:46:59Z</time>
      </trkpt>
      <trkpt lat="46.91558" lon="5.67434">
        <ele>278.4</ele>
        <time>2020-03-04T10:47:00Z</time>
      </trkpt>
      <trkpt lat="46.91557" lon="5.67438">
        <ele>278.4</ele>
        <time>2020-03-04T10:47:01Z</time>
      </trkpt>
      <trkpt lat="46.91556" lon="5.67443">
        <ele>278.6</ele>
        <time>2020-03-04T10:47:02Z</time>
      </trkpt>
      <trkpt lat="46.91555" lon="5.67447">
        <ele>278.6</ele>
        <time>2020-03-04T10:47:03Z</time>
      </trkpt>
      <trkpt lat="46.91554" lon="5.67451">
        <ele>279</ele>
        <time>2020-03-04T10:47:04Z</time>
      </trkpt>
      <trkpt lat="46.91553" lon="5.67455">
        <ele>279</ele>
        <time>2020-03-04T10:47:05Z</time>
      </trkpt>
      <trkpt lat="46.91552" lon="5.67459">
        <ele>279.2</ele>
        <time>2020-03-04T10:47:06Z</time>
      </trkpt>
      <trkpt lat="46.91551" lon="5.67463">
        <ele>279.2</ele>
        <time>2020-03-04T10:47:07Z</time>
      </trkpt>
      <trkpt lat="46.9155" lon="5.67467">
        <ele>279.6</ele>
        <time>2020-03-04T10:47:08Z</time>
      </trkpt>
      <trkpt lat="46.91549" lon="5.67471">
        <ele>279.6</ele>
        <time>2020-03-04T10:47:09Z</time>
      </trkpt>
      <trkpt lat="46.91547" lon="5.67475">
        <ele>279.6</ele>
        <time>2020-03-04T10:47:10Z</time>
      </trkpt>
      <trkpt lat="46.91546" lon="5.67479">
        <ele>279.8</ele>
        <time>2020-03-04T10:47:11Z</time>
      </trkpt>
      <trkpt lat="46.91545" lon="5.67483">
        <ele>279.8</ele>
        <time>2020-03-04T10:47:12Z</time>
      </trkpt>
      <trkpt lat="46.91544" lon="5.67487">
        <ele>280.2</ele>
        <time>2020-03-04T10:47:13Z</time>
      </trkpt>
      <trkpt lat="46.91542" lon="5.67491">
        <ele>280.2</ele>
        <time>2020-03-04T10:47:14Z</time>
      </trkpt>
      <trkpt lat="46.91541" lon="5.67495">
        <ele>280.4</ele>
        <time>2020-03-04T10:47:15Z</time>
      </trkpt>
      <trkpt lat="46.9154" lon="5.67499">
        <ele>280.4</ele>
        <time>2020-03-04T10:47:16Z</time>
      </trkpt>
      <trkpt lat="46.91538" lon="5.67503">
        <ele>280.6</ele>
        <time>2020-03-04T10:47:17Z</time>
      </trkpt>
      <trkpt lat="46.91536" lon="5.67507">
        <ele>280.6</ele>
        <time>2020-03-04T10:47:18Z</time>
      </trkpt>
      <trkpt lat="46.91535" lon="5.67511">
        <ele>280.8</ele>
        <time>2020-03-04T10:47:19Z</time>
      </trkpt>
      <trkpt lat="46.91534" lon="5.67516">
        <ele>280.8</ele>
        <time>2020-03-04T10:47:20Z</time>
      </trkpt>
      <trkpt lat="46.91532" lon="5.6752">
        <ele>280.8</ele>
        <time>2020-03-04T10:47:21Z</time>
      </trkpt>
      <trkpt lat="46.91531" lon="5.67523">
        <ele>281</ele>
        <time>2020-03-04T10:47:22Z</time>
      </trkpt>
      <trkpt lat="46.91529" lon="5.67527">
        <ele>281</ele>
        <time>2020-03-04T10:47:23Z</time>
      </trkpt>
      <trkpt lat="46.91528" lon="5.6753">
        <ele>281</ele>
        <time>2020-03-04T10:47:24Z</time>
      </trkpt>
      <trkpt lat="46.91527" lon="5.67533">
        <ele>281.4</ele>
        <time>2020-03-04T10:47:25Z</time>
      </trkpt>
      <trkpt lat="46.91525" lon="5.67536">
        <ele>281.4</ele>
        <time>2020-03-04T10:47:26Z</time>
      </trkpt>
      <trkpt lat="46.91524" lon="5.6754">
        <ele>281.4</ele>
        <time>2020-03-04T10:47:27Z</time>
      </trkpt>
      <trkpt lat="46.91522" lon="5.67544">
        <ele>281.4</ele>
        <time>2020-03-04T10:47:28Z</time>
      </trkpt>
      <trkpt lat="46.91521" lon="5.67547">
        <ele>281.4</ele>
        <time>2020-03-04T10:47:29Z</time>
      </trkpt>
      <trkpt lat="46.91519" lon="5.67551">
        <ele>281.4</ele>
        <time>2020-03-04T10:47:30Z</time>
      </trkpt>
      <trkpt lat="46.91517" lon="5.67553">
        <ele>281.4</ele>
        <time>2020-03-04T10:47:31Z</time>
      </trkpt>
      <trkpt lat="46.91515" lon="5.67557">
        <ele>281.6</ele>
        <time>2020-03-04T10:47:32Z</time>
      </trkpt>
      <trkpt lat="46.91514" lon="5.6756">
        <ele>281.6</ele>
        <time>2020-03-04T10:47:33Z</time>
      </trkpt>
      <trkpt lat="46.91512" lon="5.67564">
        <ele>281.6</ele>
        <time>2020-03-04T10:47:34Z</time>
      </trkpt>
      <trkpt lat="46.9151" lon="5.67567">
        <ele>281.6</ele>
        <time>2020-03-04T10:47:35Z</time>
      </trkpt>
      <trkpt lat="46.91508" lon="5.67571">
        <ele>281.6</ele>
        <time>2020-03-04T10:47:36Z</time>
      </trkpt>
      <trkpt lat="46.91506" lon="5.67576">
        <ele>281.4</ele>
        <time>2020-03-04T10:47:37Z</time>
      </trkpt>
      <trkpt lat="46.91504" lon="5.6758">
        <ele>281.4</ele>
        <time>2020-03-04T10:47:38Z</time>
      </trkpt>
      <trkpt lat="46.91502" lon="5.67585">
        <ele>281.4</ele>
        <time>2020-03-04T10:47:39Z</time>
      </trkpt>
      <trkpt lat="46.91499" lon="5.6759">
        <ele>281.4</ele>
        <time>2020-03-04T10:47:40Z</time>
      </trkpt>
      <trkpt lat="46.91498" lon="5.67595">
        <ele>281.4</ele>
        <time>2020-03-04T10:47:41Z</time>
      </trkpt>
      <trkpt lat="46.91496" lon="5.676">
        <ele>281.4</ele>
        <time>2020-03-04T10:47:42Z</time>
      </trkpt>
      <trkpt lat="46.91495" lon="5.67606">
        <ele>281.4</ele>
        <time>2020-03-04T10:47:43Z</time>
      </trkpt>
      <trkpt lat="46.91493" lon="5.67613">
        <ele>281.4</ele>
        <time>2020-03-04T10:47:44Z</time>
      </trkpt>
      <trkpt lat="46.91491" lon="5.67619">
        <ele>281.4</ele>
        <time>2020-03-04T10:47:45Z</time>
      </trkpt>
      <trkpt lat="46.91489" lon="5.67625">
        <ele>281.4</ele>
        <time>2020-03-04T10:47:46Z</time>
      </trkpt>
      <trkpt lat="46.91486" lon="5.67632">
        <ele>281.4</ele>
        <time>2020-03-04T10:47:47Z</time>
      </trkpt>
      <trkpt lat="46.91484" lon="5.6764">
        <ele>281.4</ele>
        <time>2020-03-04T10:47:48Z</time>
      </trkpt>
      <trkpt lat="46.91481" lon="5.67647">
        <ele>281.4</ele>
        <time>2020-03-04T10:47:49Z</time>
      </trkpt>
      <trkpt lat="46.91479" lon="5.67654">
        <ele>281.4</ele>
        <time>2020-03-04T10:47:50Z</time>
      </trkpt>
      <trkpt lat="46.91477" lon="5.67662">
        <ele>281.4</ele>
        <time>2020-03-04T10:47:51Z</time>
      </trkpt>
      <trkpt lat="46.91474" lon="5.67669">
        <ele>281.4</ele>
        <time>2020-03-04T10:47:52Z</time>
      </trkpt>
      <trkpt lat="46.91471" lon="5.67677">
        <ele>281.4</ele>
        <time>2020-03-04T10:47:53Z</time>
      </trkpt>
      <trkpt lat="46.91469" lon="5.67683">
        <ele>281.4</ele>
        <time>2020-03-04T10:47:54Z</time>
      </trkpt>
      <trkpt lat="46.91466" lon="5.6769">
        <ele>281.4</ele>
        <time>2020-03-04T10:47:55Z</time>
      </trkpt>
      <trkpt lat="46.91464" lon="5.67696">
        <ele>281.4</ele>
        <time>2020-03-04T10:47:56Z</time>
      </trkpt>
      <trkpt lat="46.91461" lon="5.67703">
        <ele>281.2</ele>
        <time>2020-03-04T10:47:57Z</time>
      </trkpt>
      <trkpt lat="46.91459" lon="5.67709">
        <ele>281.2</ele>
        <time>2020-03-04T10:47:58Z</time>
      </trkpt>
      <trkpt lat="46.91456" lon="5.67716">
        <ele>281.2</ele>
        <time>2020-03-04T10:47:59Z</time>
      </trkpt>
      <trkpt lat="46.91454" lon="5.67723">
        <ele>281.2</ele>
        <time>2020-03-04T10:48:00Z</time>
      </trkpt>
      <trkpt lat="46.91451" lon="5.6773">
        <ele>281.2</ele>
        <time>2020-03-04T10:48:01Z</time>
      </trkpt>
      <trkpt lat="46.91449" lon="5.67737">
        <ele>281.2</ele>
        <time>2020-03-04T10:48:02Z</time>
      </trkpt>
      <trkpt lat="46.91446" lon="5.67744">
        <ele>281.2</ele>
        <time>2020-03-04T10:48:03Z</time>
      </trkpt>
      <trkpt lat="46.91443" lon="5.6775">
        <ele>281.2</ele>
        <time>2020-03-04T10:48:04Z</time>
      </trkpt>
      <trkpt lat="46.9144" lon="5.67757">
        <ele>281</ele>
        <time>2020-03-04T10:48:05Z</time>
      </trkpt>
      <trkpt lat="46.91438" lon="5.67764">
        <ele>281</ele>
        <time>2020-03-04T10:48:06Z</time>
      </trkpt>
      <trkpt lat="46.91435" lon="5.67772">
        <ele>281</ele>
        <time>2020-03-04T10:48:07Z</time>
      </trkpt>
      <trkpt lat="46.91432" lon="5.67779">
        <ele>281</ele>
        <time>2020-03-04T10:48:08Z</time>
      </trkpt>
      <trkpt lat="46.9143" lon="5.67786">
        <ele>281</ele>
        <time>2020-03-04T10:48:09Z</time>
      </trkpt>
      <trkpt lat="46.91427" lon="5.67793">
        <ele>281</ele>
        <time>2020-03-04T10:48:10Z</time>
      </trkpt>
      <trkpt lat="46.91424" lon="5.678">
        <ele>281</ele>
        <time>2020-03-04T10:48:11Z</time>
      </trkpt>
      <trkpt lat="46.91422" lon="5.67808">
        <ele>281</ele>
        <time>2020-03-04T10:48:12Z</time>
      </trkpt>
      <trkpt lat="46.91419" lon="5.67815">
        <ele>281</ele>
        <time>2020-03-04T10:48:13Z</time>
      </trkpt>
      <trkpt lat="46.91416" lon="5.67822">
        <ele>281</ele>
        <time>2020-03-04T10:48:14Z</time>
      </trkpt>
      <trkpt lat="46.91414" lon="5.6783">
        <ele>281</ele>
        <time>2020-03-04T10:48:15Z</time>
      </trkpt>
      <trkpt lat="46.91411" lon="5.67838">
        <ele>281</ele>
        <time>2020-03-04T10:48:16Z</time>
      </trkpt>
      <trkpt lat="46.91409" lon="5.67846">
        <ele>280.6</ele>
        <time>2020-03-04T10:48:17Z</time>
      </trkpt>
      <trkpt lat="46.91406" lon="5.67854">
        <ele>280.6</ele>
        <time>2020-03-04T10:48:18Z</time>
      </trkpt>
      <trkpt lat="46.91404" lon="5.67862">
        <ele>280.6</ele>
        <time>2020-03-04T10:48:19Z</time>
      </trkpt>
      <trkpt lat="46.91402" lon="5.67871">
        <ele>280.6</ele>
        <time>2020-03-04T10:48:20Z</time>
      </trkpt>
      <trkpt lat="46.914" lon="5.6788">
        <ele>280.4</ele>
        <time>2020-03-04T10:48:21Z</time>
      </trkpt>
      <trkpt lat="46.91398" lon="5.67889">
        <ele>280.4</ele>
        <time>2020-03-04T10:48:22Z</time>
      </trkpt>
      <trkpt lat="46.91397" lon="5.67898">
        <ele>280.2</ele>
        <time>2020-03-04T10:48:23Z</time>
      </trkpt>
      <trkpt lat="46.91396" lon="5.67907">
        <ele>280.2</ele>
        <time>2020-03-04T10:48:24Z</time>
      </trkpt>
      <trkpt lat="46.91395" lon="5.67916">
        <ele>280.2</ele>
        <time>2020-03-04T10:48:25Z</time>
      </trkpt>
      <trkpt lat="46.91395" lon="5.67925">
        <ele>280.2</ele>
        <time>2020-03-04T10:48:26Z</time>
      </trkpt>
      <trkpt lat="46.91394" lon="5.67934">
        <ele>280.2</ele>
        <time>2020-03-04T10:48:27Z</time>
      </trkpt>
      <trkpt lat="46.91394" lon="5.67943">
        <ele>280.2</ele>
        <time>2020-03-04T10:48:28Z</time>
      </trkpt>
      <trkpt lat="46.91394" lon="5.67952">
        <ele>280.2</ele>
        <time>2020-03-04T10:48:29Z</time>
      </trkpt>
      <trkpt lat="46.91393" lon="5.67961">
        <ele>280.2</ele>
        <time>2020-03-04T10:48:30Z</time>
      </trkpt>
      <trkpt lat="46.91393" lon="5.6797">
        <ele>280.2</ele>
        <time>2020-03-04T10:48:31Z</time>
      </trkpt>
      <trkpt lat="46.91393" lon="5.67979">
        <ele>280.2</ele>
        <time>2020-03-04T10:48:32Z</time>
      </trkpt>
      <trkpt lat="46.91393" lon="5.67987">
        <ele>280.2</ele>
        <time>2020-03-04T10:48:33Z</time>
      </trkpt>
      <trkpt lat="46.91392" lon="5.67996">
        <ele>280.2</ele>
        <time>2020-03-04T10:48:34Z</time>
      </trkpt>
      <trkpt lat="46.91392" lon="5.68004">
        <ele>280.2</ele>
        <time>2020-03-04T10:48:35Z</time>
      </trkpt>
      <trkpt lat="46.91391" lon="5.68012">
        <ele>280.2</ele>
        <time>2020-03-04T10:48:36Z</time>
      </trkpt>
      <trkpt lat="46.91391" lon="5.6802">
        <ele>280.2</ele>
        <time>2020-03-04T10:48:37Z</time>
      </trkpt>
      <trkpt lat="46.91391" lon="5.68028">
        <ele>280.4</ele>
        <time>2020-03-04T10:48:38Z</time>
      </trkpt>
      <trkpt lat="46.91391" lon="5.68035">
        <ele>280.6</ele>
        <time>2020-03-04T10:48:39Z</time>
      </trkpt>
      <trkpt lat="46.9139" lon="5.68043">
        <ele>280.6</ele>
        <time>2020-03-04T10:48:40Z</time>
      </trkpt>
      <trkpt lat="46.9139" lon="5.6805">
        <ele>280.8</ele>
        <time>2020-03-04T10:48:41Z</time>
      </trkpt>
      <trkpt lat="46.9139" lon="5.68057">
        <ele>280.8</ele>
        <time>2020-03-04T10:48:42Z</time>
      </trkpt>
      <trkpt lat="46.9139" lon="5.68064">
        <ele>280.8</ele>
        <time>2020-03-04T10:48:43Z</time>
      </trkpt>
      <trkpt lat="46.91389" lon="5.68071">
        <ele>281.2</ele>
        <time>2020-03-04T10:48:44Z</time>
      </trkpt>
      <trkpt lat="46.91389" lon="5.68078">
        <ele>281.2</ele>
        <time>2020-03-04T10:48:45Z</time>
      </trkpt>
      <trkpt lat="46.91389" lon="5.68084">
        <ele>281.4</ele>
        <time>2020-03-04T10:48:46Z</time>
      </trkpt>
      <trkpt lat="46.91388" lon="5.68091">
        <ele>281.4</ele>
        <time>2020-03-04T10:48:47Z</time>
      </trkpt>
      <trkpt lat="46.91388" lon="5.68098">
        <ele>281.6</ele>
        <time>2020-03-04T10:48:48Z</time>
      </trkpt>
      <trkpt lat="46.91388" lon="5.68105">
        <ele>281.6</ele>
        <time>2020-03-04T10:48:49Z</time>
      </trkpt>
      <trkpt lat="46.91388" lon="5.68112">
        <ele>281.6</ele>
        <time>2020-03-04T10:48:50Z</time>
      </trkpt>
      <trkpt lat="46.91387" lon="5.68119">
        <ele>282</ele>
        <time>2020-03-04T10:48:51Z</time>
      </trkpt>
      <trkpt lat="46.91387" lon="5.68126">
        <ele>282</ele>
        <time>2020-03-04T10:48:52Z</time>
      </trkpt>
      <trkpt lat="46.91387" lon="5.68133">
        <ele>282.2</ele>
        <time>2020-03-04T10:48:53Z</time>
      </trkpt>
      <trkpt lat="46.91387" lon="5.6814">
        <ele>282.2</ele>
        <time>2020-03-04T10:48:54Z</time>
      </trkpt>
      <trkpt lat="46.91388" lon="5.68147">
        <ele>282.2</ele>
        <time>2020-03-04T10:48:55Z</time>
      </trkpt>
      <trkpt lat="46.91388" lon="5.68153">
        <ele>282.2</ele>
        <time>2020-03-04T10:48:56Z</time>
      </trkpt>
      <trkpt lat="46.91389" lon="5.6816">
        <ele>282.4</ele>
        <time>2020-03-04T10:48:57Z</time>
      </trkpt>
      <trkpt lat="46.91391" lon="5.68166">
        <ele>282.4</ele>
        <time>2020-03-04T10:48:58Z</time>
      </trkpt>
      <trkpt lat="46.91392" lon="5.68173">
        <ele>282.6</ele>
        <time>2020-03-04T10:48:59Z</time>
      </trkpt>
      <trkpt lat="46.91394" lon="5.68178">
        <ele>282.6</ele>
        <time>2020-03-04T10:49:00Z</time>
      </trkpt>
      <trkpt lat="46.91397" lon="5.68184">
        <ele>283</ele>
        <time>2020-03-04T10:49:01Z</time>
      </trkpt>
      <trkpt lat="46.914" lon="5.68189">
        <ele>283</ele>
        <time>2020-03-04T10:49:02Z</time>
      </trkpt>
      <trkpt lat="46.91403" lon="5.68194">
        <ele>283.2</ele>
        <time>2020-03-04T10:49:03Z</time>
      </trkpt>
      <trkpt lat="46.91407" lon="5.68197">
        <ele>283.2</ele>
        <time>2020-03-04T10:49:04Z</time>
      </trkpt>
      <trkpt lat="46.91411" lon="5.68201">
        <ele>283.4</ele>
        <time>2020-03-04T10:49:05Z</time>
      </trkpt>
      <trkpt lat="46.91414" lon="5.68205">
        <ele>283.4</ele>
        <time>2020-03-04T10:49:06Z</time>
      </trkpt>
      <trkpt lat="46.91417" lon="5.68209">
        <ele>283.6</ele>
        <time>2020-03-04T10:49:07Z</time>
      </trkpt>
      <trkpt lat="46.91421" lon="5.68213">
        <ele>283.8</ele>
        <time>2020-03-04T10:49:08Z</time>
      </trkpt>
      <trkpt lat="46.91424" lon="5.68216">
        <ele>283.8</ele>
        <time>2020-03-04T10:49:09Z</time>
      </trkpt>
      <trkpt lat="46.91428" lon="5.6822">
        <ele>283.8</ele>
        <time>2020-03-04T10:49:10Z</time>
      </trkpt>
      <trkpt lat="46.91431" lon="5.68224">
        <ele>284</ele>
        <time>2020-03-04T10:49:11Z</time>
      </trkpt>
      <trkpt lat="46.91434" lon="5.68228">
        <ele>284</ele>
        <time>2020-03-04T10:49:12Z</time>
      </trkpt>
      <trkpt lat="46.91437" lon="5.68232">
        <ele>284.4</ele>
        <time>2020-03-04T10:49:13Z</time>
      </trkpt>
      <trkpt lat="46.9144" lon="5.68237">
        <ele>284.4</ele>
        <time>2020-03-04T10:49:14Z</time>
      </trkpt>
      <trkpt lat="46.91443" lon="5.68242">
        <ele>284.4</ele>
        <time>2020-03-04T10:49:15Z</time>
      </trkpt>
      <trkpt lat="46.91445" lon="5.68247">
        <ele>284.8</ele>
        <time>2020-03-04T10:49:16Z</time>
      </trkpt>
      <trkpt lat="46.91447" lon="5.68253">
        <ele>284.8</ele>
        <time>2020-03-04T10:49:17Z</time>
      </trkpt>
      <trkpt lat="46.91449" lon="5.68258">
        <ele>285</ele>
        <time>2020-03-04T10:49:18Z</time>
      </trkpt>
      <trkpt lat="46.91451" lon="5.68264">
        <ele>285</ele>
        <time>2020-03-04T10:49:19Z</time>
      </trkpt>
      <trkpt lat="46.91454" lon="5.68269">
        <ele>285.2</ele>
        <time>2020-03-04T10:49:20Z</time>
      </trkpt>
      <trkpt lat="46.91456" lon="5.68274">
        <ele>285.2</ele>
        <time>2020-03-04T10:49:21Z</time>
      </trkpt>
      <trkpt lat="46.91458" lon="5.6828">
        <ele>285.2</ele>
        <time>2020-03-04T10:49:22Z</time>
      </trkpt>
      <trkpt lat="46.91461" lon="5.68285">
        <ele>285.4</ele>
        <time>2020-03-04T10:49:23Z</time>
      </trkpt>
      <trkpt lat="46.91463" lon="5.6829">
        <ele>285.4</ele>
        <time>2020-03-04T10:49:24Z</time>
      </trkpt>
      <trkpt lat="46.91466" lon="5.68295">
        <ele>285.4</ele>
        <time>2020-03-04T10:49:25Z</time>
      </trkpt>
      <trkpt lat="46.91469" lon="5.683">
        <ele>285.4</ele>
        <time>2020-03-04T10:49:26Z</time>
      </trkpt>
      <trkpt lat="46.91471" lon="5.68305">
        <ele>285.4</ele>
        <time>2020-03-04T10:49:27Z</time>
      </trkpt>
      <trkpt lat="46.91474" lon="5.6831">
        <ele>285.4</ele>
        <time>2020-03-04T10:49:28Z</time>
      </trkpt>
      <trkpt lat="46.91477" lon="5.68315">
        <ele>285.4</ele>
        <time>2020-03-04T10:49:29Z</time>
      </trkpt>
      <trkpt lat="46.9148" lon="5.6832">
        <ele>285.4</ele>
        <time>2020-03-04T10:49:30Z</time>
      </trkpt>
      <trkpt lat="46.91483" lon="5.68325">
        <ele>285.4</ele>
        <time>2020-03-04T10:49:31Z</time>
      </trkpt>
      <trkpt lat="46.91485" lon="5.68331">
        <ele>285.4</ele>
        <time>2020-03-04T10:49:32Z</time>
      </trkpt>
      <trkpt lat="46.91489" lon="5.68337">
        <ele>285.2</ele>
        <time>2020-03-04T10:49:33Z</time>
      </trkpt>
      <trkpt lat="46.91492" lon="5.68342">
        <ele>285.2</ele>
        <time>2020-03-04T10:49:34Z</time>
      </trkpt>
      <trkpt lat="46.91495" lon="5.68348">
        <ele>285.2</ele>
        <time>2020-03-04T10:49:35Z</time>
      </trkpt>
      <trkpt lat="46.91498" lon="5.68354">
        <ele>285.2</ele>
        <time>2020-03-04T10:49:36Z</time>
      </trkpt>
      <trkpt lat="46.91501" lon="5.6836">
        <ele>285</ele>
        <time>2020-03-04T10:49:37Z</time>
      </trkpt>
      <trkpt lat="46.91505" lon="5.68366">
        <ele>285</ele>
        <time>2020-03-04T10:49:38Z</time>
      </trkpt>
      <trkpt lat="46.91508" lon="5.68372">
        <ele>284.8</ele>
        <time>2020-03-04T10:49:39Z</time>
      </trkpt>
      <trkpt lat="46.91511" lon="5.68378">
        <ele>284.8</ele>
        <time>2020-03-04T10:49:40Z</time>
      </trkpt>
      <trkpt lat="46.91514" lon="5.68384">
        <ele>284.8</ele>
        <time>2020-03-04T10:49:41Z</time>
      </trkpt>
      <trkpt lat="46.91517" lon="5.68391">
        <ele>284.8</ele>
        <time>2020-03-04T10:49:42Z</time>
      </trkpt>
      <trkpt lat="46.9152" lon="5.68397">
        <ele>284.6</ele>
        <time>2020-03-04T10:49:43Z</time>
      </trkpt>
      <trkpt lat="46.91524" lon="5.68404">
        <ele>284.6</ele>
        <time>2020-03-04T10:49:44Z</time>
      </trkpt>
      <trkpt lat="46.91527" lon="5.68411">
        <ele>284.2</ele>
        <time>2020-03-04T10:49:45Z</time>
      </trkpt>
      <trkpt lat="46.9153" lon="5.68419">
        <ele>284.2</ele>
        <time>2020-03-04T10:49:46Z</time>
      </trkpt>
      <trkpt lat="46.91534" lon="5.68426">
        <ele>284</ele>
        <time>2020-03-04T10:49:47Z</time>
      </trkpt>
      <trkpt lat="46.91537" lon="5.68435">
        <ele>284</ele>
        <time>2020-03-04T10:49:48Z</time>
      </trkpt>
      <trkpt lat="46.9154" lon="5.68443">
        <ele>283.8</ele>
        <time>2020-03-04T10:49:49Z</time>
      </trkpt>
      <trkpt lat="46.91543" lon="5.68451">
        <ele>283.6</ele>
        <time>2020-03-04T10:49:50Z</time>
      </trkpt>
      <trkpt lat="46.91547" lon="5.6846">
        <ele>283.4</ele>
        <time>2020-03-04T10:49:51Z</time>
      </trkpt>
      <trkpt lat="46.9155" lon="5.68469">
        <ele>283.4</ele>
        <time>2020-03-04T10:49:52Z</time>
      </trkpt>
      <trkpt lat="46.91554" lon="5.68477">
        <ele>283</ele>
        <time>2020-03-04T10:49:53Z</time>
      </trkpt>
      <trkpt lat="46.91557" lon="5.68486">
        <ele>282.8</ele>
        <time>2020-03-04T10:49:54Z</time>
      </trkpt>
      <trkpt lat="46.91561" lon="5.68495">
        <ele>282.6</ele>
        <time>2020-03-04T10:49:55Z</time>
      </trkpt>
      <trkpt lat="46.91564" lon="5.68505">
        <ele>282.4</ele>
        <time>2020-03-04T10:49:56Z</time>
      </trkpt>
      <trkpt lat="46.91568" lon="5.68514">
        <ele>282</ele>
        <time>2020-03-04T10:49:57Z</time>
      </trkpt>
      <trkpt lat="46.91572" lon="5.68524">
        <ele>281.8</ele>
        <time>2020-03-04T10:49:58Z</time>
      </trkpt>
      <trkpt lat="46.91576" lon="5.68534">
        <ele>281.6</ele>
        <time>2020-03-04T10:49:59Z</time>
      </trkpt>
      <trkpt lat="46.9158" lon="5.68543">
        <ele>281.4</ele>
        <time>2020-03-04T10:50:00Z</time>
      </trkpt>
      <trkpt lat="46.91584" lon="5.68553">
        <ele>281</ele>
        <time>2020-03-04T10:50:01Z</time>
      </trkpt>
      <trkpt lat="46.91588" lon="5.68563">
        <ele>280.8</ele>
        <time>2020-03-04T10:50:02Z</time>
      </trkpt>
      <trkpt lat="46.91592" lon="5.68574">
        <ele>280.4</ele>
        <time>2020-03-04T10:50:03Z</time>
      </trkpt>
      <trkpt lat="46.91596" lon="5.68585">
        <ele>280.2</ele>
        <time>2020-03-04T10:50:04Z</time>
      </trkpt>
      <trkpt lat="46.916" lon="5.68596">
        <ele>279.8</ele>
        <time>2020-03-04T10:50:05Z</time>
      </trkpt>
      <trkpt lat="46.91605" lon="5.68607">
        <ele>279.6</ele>
        <time>2020-03-04T10:50:06Z</time>
      </trkpt>
      <trkpt lat="46.91609" lon="5.68619">
        <ele>279.2</ele>
        <time>2020-03-04T10:50:07Z</time>
      </trkpt>
      <trkpt lat="46.91614" lon="5.6863">
        <ele>278.8</ele>
        <time>2020-03-04T10:50:08Z</time>
      </trkpt>
      <trkpt lat="46.91619" lon="5.68642">
        <ele>278.4</ele>
        <time>2020-03-04T10:50:09Z</time>
      </trkpt>
      <trkpt lat="46.91624" lon="5.68655">
        <ele>278.2</ele>
        <time>2020-03-04T10:50:10Z</time>
      </trkpt>
      <trkpt lat="46.91629" lon="5.68667">
        <ele>277.8</ele>
        <time>2020-03-04T10:50:11Z</time>
      </trkpt>
      <trkpt lat="46.91634" lon="5.6868">
        <ele>277.4</ele>
        <time>2020-03-04T10:50:12Z</time>
      </trkpt>
      <trkpt lat="46.91638" lon="5.68693">
        <ele>277.2</ele>
        <time>2020-03-04T10:50:13Z</time>
      </trkpt>
      <trkpt lat="46.91643" lon="5.68706">
        <ele>277</ele>
        <time>2020-03-04T10:50:14Z</time>
      </trkpt>
      <trkpt lat="46.91648" lon="5.68718">
        <ele>276.8</ele>
        <time>2020-03-04T10:50:15Z</time>
      </trkpt>
      <trkpt lat="46.91653" lon="5.68731">
        <ele>276.4</ele>
        <time>2020-03-04T10:50:16Z</time>
      </trkpt>
      <trkpt lat="46.91658" lon="5.68743">
        <ele>276.4</ele>
        <time>2020-03-04T10:50:17Z</time>
      </trkpt>
      <trkpt lat="46.91663" lon="5.68755">
        <ele>276</ele>
        <time>2020-03-04T10:50:18Z</time>
      </trkpt>
      <trkpt lat="46.91668" lon="5.68768">
        <ele>275.6</ele>
        <time>2020-03-04T10:50:19Z</time>
      </trkpt>
      <trkpt lat="46.91673" lon="5.68781">
        <ele>275.2</ele>
        <time>2020-03-04T10:50:20Z</time>
      </trkpt>
      <trkpt lat="46.91678" lon="5.68793">
        <ele>275</ele>
        <time>2020-03-04T10:50:21Z</time>
      </trkpt>
      <trkpt lat="46.91683" lon="5.68806">
        <ele>275</ele>
        <time>2020-03-04T10:50:22Z</time>
      </trkpt>
      <trkpt lat="46.91688" lon="5.68818">
        <ele>274.8</ele>
        <time>2020-03-04T10:50:23Z</time>
      </trkpt>
      <trkpt lat="46.91692" lon="5.68831">
        <ele>274.4</ele>
        <time>2020-03-04T10:50:24Z</time>
      </trkpt>
      <trkpt lat="46.91697" lon="5.68844">
        <ele>274.4</ele>
        <time>2020-03-04T10:50:25Z</time>
      </trkpt>
      <trkpt lat="46.91702" lon="5.68856">
        <ele>274.4</ele>
        <time>2020-03-04T10:50:26Z</time>
      </trkpt>
      <trkpt lat="46.91706" lon="5.68868">
        <ele>274.2</ele>
        <time>2020-03-04T10:50:27Z</time>
      </trkpt>
      <trkpt lat="46.91711" lon="5.68879">
        <ele>274.2</ele>
        <time>2020-03-04T10:50:28Z</time>
      </trkpt>
      <trkpt lat="46.91715" lon="5.68891">
        <ele>274.2</ele>
        <time>2020-03-04T10:50:29Z</time>
      </trkpt>
      <trkpt lat="46.91719" lon="5.68903">
        <ele>274.2</ele>
        <time>2020-03-04T10:50:30Z</time>
      </trkpt>
      <trkpt lat="46.91724" lon="5.68914">
        <ele>274.2</ele>
        <time>2020-03-04T10:50:31Z</time>
      </trkpt>
      <trkpt lat="46.91728" lon="5.68924">
        <ele>274.6</ele>
        <time>2020-03-04T10:50:32Z</time>
      </trkpt>
      <trkpt lat="46.91732" lon="5.68935">
        <ele>274.8</ele>
        <time>2020-03-04T10:50:33Z</time>
      </trkpt>
      <trkpt lat="46.91736" lon="5.68945">
        <ele>274.8</ele>
        <time>2020-03-04T10:50:34Z</time>
      </trkpt>
      <trkpt lat="46.9174" lon="5.68954">
        <ele>275</ele>
        <time>2020-03-04T10:50:35Z</time>
      </trkpt>
      <trkpt lat="46.91744" lon="5.68964">
        <ele>275.4</ele>
        <time>2020-03-04T10:50:36Z</time>
      </trkpt>
      <trkpt lat="46.91748" lon="5.68973">
        <ele>275.6</ele>
        <time>2020-03-04T10:50:37Z</time>
      </trkpt>
      <trkpt lat="46.91751" lon="5.68983">
        <ele>276</ele>
        <time>2020-03-04T10:50:38Z</time>
      </trkpt>
      <trkpt lat="46.91754" lon="5.68992">
        <ele>276.2</ele>
        <time>2020-03-04T10:50:39Z</time>
      </trkpt>
      <trkpt lat="46.91758" lon="5.69">
        <ele>276.4</ele>
        <time>2020-03-04T10:50:40Z</time>
      </trkpt>
      <trkpt lat="46.91761" lon="5.69008">
        <ele>276.8</ele>
        <time>2020-03-04T10:50:41Z</time>
      </trkpt>
      <trkpt lat="46.91764" lon="5.69016">
        <ele>277</ele>
        <time>2020-03-04T10:50:42Z</time>
      </trkpt>
      <trkpt lat="46.91768" lon="5.69024">
        <ele>277</ele>
        <time>2020-03-04T10:50:43Z</time>
      </trkpt>
      <trkpt lat="46.91771" lon="5.69031">
        <ele>277.4</ele>
        <time>2020-03-04T10:50:44Z</time>
      </trkpt>
      <trkpt lat="46.91774" lon="5.69039">
        <ele>277.4</ele>
        <time>2020-03-04T10:50:45Z</time>
      </trkpt>
      <trkpt lat="46.91777" lon="5.69047">
        <ele>277.6</ele>
        <time>2020-03-04T10:50:46Z</time>
      </trkpt>
      <trkpt lat="46.91781" lon="5.69055">
        <ele>277.6</ele>
        <time>2020-03-04T10:50:47Z</time>
      </trkpt>
      <trkpt lat="46.91784" lon="5.69062">
        <ele>278</ele>
        <time>2020-03-04T10:50:48Z</time>
      </trkpt>
      <trkpt lat="46.91787" lon="5.6907">
        <ele>278</ele>
        <time>2020-03-04T10:50:49Z</time>
      </trkpt>
      <trkpt lat="46.9179" lon="5.69078">
        <ele>278.2</ele>
        <time>2020-03-04T10:50:50Z</time>
      </trkpt>
      <trkpt lat="46.91793" lon="5.69085">
        <ele>278.2</ele>
        <time>2020-03-04T10:50:51Z</time>
      </trkpt>
      <trkpt lat="46.91795" lon="5.69092">
        <ele>278.6</ele>
        <time>2020-03-04T10:50:52Z</time>
      </trkpt>
      <trkpt lat="46.91798" lon="5.691">
        <ele>278.6</ele>
        <time>2020-03-04T10:50:53Z</time>
      </trkpt>
      <trkpt lat="46.918" lon="5.69107">
        <ele>278.8</ele>
        <time>2020-03-04T10:50:54Z</time>
      </trkpt>
      <trkpt lat="46.91803" lon="5.69114">
        <ele>278.8</ele>
        <time>2020-03-04T10:50:55Z</time>
      </trkpt>
      <trkpt lat="46.91805" lon="5.69121">
        <ele>279</ele>
        <time>2020-03-04T10:50:56Z</time>
      </trkpt>
      <trkpt lat="46.91808" lon="5.69127">
        <ele>279</ele>
        <time>2020-03-04T10:50:57Z</time>
      </trkpt>
      <trkpt lat="46.9181" lon="5.69134">
        <ele>279</ele>
        <time>2020-03-04T10:50:58Z</time>
      </trkpt>
      <trkpt lat="46.91813" lon="5.69141">
        <ele>279.4</ele>
        <time>2020-03-04T10:50:59Z</time>
      </trkpt>
      <trkpt lat="46.91815" lon="5.69147">
        <ele>279.4</ele>
        <time>2020-03-04T10:51:00Z</time>
      </trkpt>
      <trkpt lat="46.91818" lon="5.69154">
        <ele>279.4</ele>
        <time>2020-03-04T10:51:01Z</time>
      </trkpt>
      <trkpt lat="46.91821" lon="5.69162">
        <ele>279.4</ele>
        <time>2020-03-04T10:51:02Z</time>
      </trkpt>
      <trkpt lat="46.91824" lon="5.69169">
        <ele>279</ele>
        <time>2020-03-04T10:51:03Z</time>
      </trkpt>
      <trkpt lat="46.91827" lon="5.69177">
        <ele>278.8</ele>
        <time>2020-03-04T10:51:04Z</time>
      </trkpt>
      <trkpt lat="46.9183" lon="5.69186">
        <ele>278.8</ele>
        <time>2020-03-04T10:51:05Z</time>
      </trkpt>
      <trkpt lat="46.91834" lon="5.69194">
        <ele>278.4</ele>
        <time>2020-03-04T10:51:06Z</time>
      </trkpt>
      <trkpt lat="46.91838" lon="5.69203">
        <ele>278.2</ele>
        <time>2020-03-04T10:51:07Z</time>
      </trkpt>
      <trkpt lat="46.91841" lon="5.69213">
        <ele>278</ele>
        <time>2020-03-04T10:51:08Z</time>
      </trkpt>
      <trkpt lat="46.91845" lon="5.69223">
        <ele>277.6</ele>
        <time>2020-03-04T10:51:09Z</time>
      </trkpt>
      <trkpt lat="46.91849" lon="5.69233">
        <ele>277.2</ele>
        <time>2020-03-04T10:51:10Z</time>
      </trkpt>
      <trkpt lat="46.91853" lon="5.69243">
        <ele>276.8</ele>
        <time>2020-03-04T10:51:11Z</time>
      </trkpt>
      <trkpt lat="46.91858" lon="5.69254">
        <ele>276.4</ele>
        <time>2020-03-04T10:51:12Z</time>
      </trkpt>
      <trkpt lat="46.91863" lon="5.69266">
        <ele>276</ele>
        <time>2020-03-04T10:51:13Z</time>
      </trkpt>
      <trkpt lat="46.91868" lon="5.69278">
        <ele>275.4</ele>
        <time>2020-03-04T10:51:14Z</time>
      </trkpt>
      <trkpt lat="46.91873" lon="5.69291">
        <ele>275</ele>
        <time>2020-03-04T10:51:15Z</time>
      </trkpt>
      <trkpt lat="46.91878" lon="5.69304">
        <ele>274.6</ele>
        <time>2020-03-04T10:51:16Z</time>
      </trkpt>
      <trkpt lat="46.91883" lon="5.69316">
        <ele>274</ele>
        <time>2020-03-04T10:51:17Z</time>
      </trkpt>
      <trkpt lat="46.91889" lon="5.69329">
        <ele>273.6</ele>
        <time>2020-03-04T10:51:18Z</time>
      </trkpt>
      <trkpt lat="46.91894" lon="5.69342">
        <ele>272.8</ele>
        <time>2020-03-04T10:51:19Z</time>
      </trkpt>
      <trkpt lat="46.919" lon="5.69355">
        <ele>272.4</ele>
        <time>2020-03-04T10:51:20Z</time>
      </trkpt>
      <trkpt lat="46.91905" lon="5.69369">
        <ele>271.8</ele>
        <time>2020-03-04T10:51:21Z</time>
      </trkpt>
      <trkpt lat="46.91911" lon="5.69384">
        <ele>271.2</ele>
        <time>2020-03-04T10:51:22Z</time>
      </trkpt>
      <trkpt lat="46.91917" lon="5.69398">
        <ele>270.6</ele>
        <time>2020-03-04T10:51:23Z</time>
      </trkpt>
      <trkpt lat="46.91923" lon="5.69412">
        <ele>270</ele>
        <time>2020-03-04T10:51:24Z</time>
      </trkpt>
      <trkpt lat="46.91929" lon="5.69427">
        <ele>269.4</ele>
        <time>2020-03-04T10:51:25Z</time>
      </trkpt>
      <trkpt lat="46.91935" lon="5.69442">
        <ele>268.8</ele>
        <time>2020-03-04T10:51:26Z</time>
      </trkpt>
      <trkpt lat="46.91942" lon="5.69456">
        <ele>268.2</ele>
        <time>2020-03-04T10:51:27Z</time>
      </trkpt>
      <trkpt lat="46.91947" lon="5.69471">
        <ele>267.6</ele>
        <time>2020-03-04T10:51:28Z</time>
      </trkpt>
      <trkpt lat="46.91953" lon="5.69487">
        <ele>267</ele>
        <time>2020-03-04T10:51:29Z</time>
      </trkpt>
      <trkpt lat="46.9196" lon="5.69503">
        <ele>266.4</ele>
        <time>2020-03-04T10:51:30Z</time>
      </trkpt>
      <trkpt lat="46.91966" lon="5.69517">
        <ele>265.8</ele>
        <time>2020-03-04T10:51:31Z</time>
      </trkpt>
      <trkpt lat="46.91972" lon="5.69532">
        <ele>265</ele>
        <time>2020-03-04T10:51:32Z</time>
      </trkpt>
      <trkpt lat="46.91978" lon="5.69549">
        <ele>264.4</ele>
        <time>2020-03-04T10:51:33Z</time>
      </trkpt>
      <trkpt lat="46.91984" lon="5.69565">
        <ele>264</ele>
        <time>2020-03-04T10:51:34Z</time>
      </trkpt>
      <trkpt lat="46.9199" lon="5.69579">
        <ele>263.4</ele>
        <time>2020-03-04T10:51:35Z</time>
      </trkpt>
      <trkpt lat="46.91996" lon="5.69593">
        <ele>263</ele>
        <time>2020-03-04T10:51:36Z</time>
      </trkpt>
      <trkpt lat="46.92002" lon="5.69609">
        <ele>262.8</ele>
        <time>2020-03-04T10:51:37Z</time>
      </trkpt>
      <trkpt lat="46.92007" lon="5.69623">
        <ele>262.4</ele>
        <time>2020-03-04T10:51:38Z</time>
      </trkpt>
      <trkpt lat="46.92013" lon="5.69637">
        <ele>262</ele>
        <time>2020-03-04T10:51:39Z</time>
      </trkpt>
      <trkpt lat="46.92019" lon="5.6965">
        <ele>261.8</ele>
        <time>2020-03-04T10:51:40Z</time>
      </trkpt>
      <trkpt lat="46.92025" lon="5.69664">
        <ele>261.6</ele>
        <time>2020-03-04T10:51:41Z</time>
      </trkpt>
      <trkpt lat="46.92031" lon="5.69679">
        <ele>261.4</ele>
        <time>2020-03-04T10:51:42Z</time>
      </trkpt>
      <trkpt lat="46.92036" lon="5.69691">
        <ele>261.4</ele>
        <time>2020-03-04T10:51:43Z</time>
      </trkpt>
      <trkpt lat="46.92042" lon="5.69704">
        <ele>261.2</ele>
        <time>2020-03-04T10:51:44Z</time>
      </trkpt>
      <trkpt lat="46.92047" lon="5.69717">
        <ele>261.2</ele>
        <time>2020-03-04T10:51:45Z</time>
      </trkpt>
      <trkpt lat="46.92052" lon="5.6973">
        <ele>261.2</ele>
        <time>2020-03-04T10:51:46Z</time>
      </trkpt>
      <trkpt lat="46.92057" lon="5.69742">
        <ele>260.8</ele>
        <time>2020-03-04T10:51:47Z</time>
      </trkpt>
      <trkpt lat="46.92062" lon="5.69755">
        <ele>260.8</ele>
        <time>2020-03-04T10:51:48Z</time>
      </trkpt>
      <trkpt lat="46.92067" lon="5.69768">
        <ele>260.6</ele>
        <time>2020-03-04T10:51:49Z</time>
      </trkpt>
      <trkpt lat="46.92072" lon="5.6978">
        <ele>260.6</ele>
        <time>2020-03-04T10:51:50Z</time>
      </trkpt>
      <trkpt lat="46.92077" lon="5.69792">
        <ele>260.2</ele>
        <time>2020-03-04T10:51:51Z</time>
      </trkpt>
      <trkpt lat="46.92082" lon="5.69804">
        <ele>260</ele>
        <time>2020-03-04T10:51:52Z</time>
      </trkpt>
      <trkpt lat="46.92087" lon="5.69818">
        <ele>259.6</ele>
        <time>2020-03-04T10:51:53Z</time>
      </trkpt>
      <trkpt lat="46.92092" lon="5.69832">
        <ele>259.2</ele>
        <time>2020-03-04T10:51:54Z</time>
      </trkpt>
      <trkpt lat="46.92098" lon="5.69845">
        <ele>258.8</ele>
        <time>2020-03-04T10:51:55Z</time>
      </trkpt>
      <trkpt lat="46.92103" lon="5.69858">
        <ele>258.4</ele>
        <time>2020-03-04T10:51:56Z</time>
      </trkpt>
      <trkpt lat="46.92109" lon="5.69872">
        <ele>258</ele>
        <time>2020-03-04T10:51:57Z</time>
      </trkpt>
      <trkpt lat="46.92114" lon="5.69886">
        <ele>257.4</ele>
        <time>2020-03-04T10:51:58Z</time>
      </trkpt>
      <trkpt lat="46.9212" lon="5.699">
        <ele>257</ele>
        <time>2020-03-04T10:51:59Z</time>
      </trkpt>
      <trkpt lat="46.92126" lon="5.69913">
        <ele>256.4</ele>
        <time>2020-03-04T10:52:00Z</time>
      </trkpt>
      <trkpt lat="46.9213" lon="5.69927">
        <ele>256</ele>
        <time>2020-03-04T10:52:01Z</time>
      </trkpt>
      <trkpt lat="46.92135" lon="5.69943">
        <ele>255.4</ele>
        <time>2020-03-04T10:52:02Z</time>
      </trkpt>
      <trkpt lat="46.92138" lon="5.69959">
        <ele>255</ele>
        <time>2020-03-04T10:52:03Z</time>
      </trkpt>
      <trkpt lat="46.92141" lon="5.69975">
        <ele>254.4</ele>
        <time>2020-03-04T10:52:04Z</time>
      </trkpt>
      <trkpt lat="46.92144" lon="5.69991">
        <ele>253.8</ele>
        <time>2020-03-04T10:52:05Z</time>
      </trkpt>
      <trkpt lat="46.92146" lon="5.70007">
        <ele>253.4</ele>
        <time>2020-03-04T10:52:06Z</time>
      </trkpt>
      <trkpt lat="46.92149" lon="5.70024">
        <ele>253</ele>
        <time>2020-03-04T10:52:07Z</time>
      </trkpt>
      <trkpt lat="46.92151" lon="5.7004">
        <ele>252.4</ele>
        <time>2020-03-04T10:52:08Z</time>
      </trkpt>
      <trkpt lat="46.92153" lon="5.70056">
        <ele>252</ele>
        <time>2020-03-04T10:52:09Z</time>
      </trkpt>
      <trkpt lat="46.92155" lon="5.70072">
        <ele>251.6</ele>
        <time>2020-03-04T10:52:10Z</time>
      </trkpt>
      <trkpt lat="46.92157" lon="5.70087">
        <ele>251.2</ele>
        <time>2020-03-04T10:52:11Z</time>
      </trkpt>
      <trkpt lat="46.92159" lon="5.70102">
        <ele>251</ele>
        <time>2020-03-04T10:52:12Z</time>
      </trkpt>
      <trkpt lat="46.92161" lon="5.70117">
        <ele>250.8</ele>
        <time>2020-03-04T10:52:13Z</time>
      </trkpt>
      <trkpt lat="46.92163" lon="5.70131">
        <ele>250.4</ele>
        <time>2020-03-04T10:52:14Z</time>
      </trkpt>
      <trkpt lat="46.92166" lon="5.70144">
        <ele>250.4</ele>
        <time>2020-03-04T10:52:15Z</time>
      </trkpt>
      <trkpt lat="46.92169" lon="5.70156">
        <ele>250</ele>
        <time>2020-03-04T10:52:16Z</time>
      </trkpt>
      <trkpt lat="46.92174" lon="5.70167">
        <ele>250</ele>
        <time>2020-03-04T10:52:17Z</time>
      </trkpt>
      <trkpt lat="46.92179" lon="5.70178">
        <ele>249.8</ele>
        <time>2020-03-04T10:52:18Z</time>
      </trkpt>
      <trkpt lat="46.92185" lon="5.70188">
        <ele>249.8</ele>
        <time>2020-03-04T10:52:19Z</time>
      </trkpt>
      <trkpt lat="46.92192" lon="5.70196">
        <ele>249.4</ele>
        <time>2020-03-04T10:52:20Z</time>
      </trkpt>
      <trkpt lat="46.92198" lon="5.70202">
        <ele>249.4</ele>
        <time>2020-03-04T10:52:21Z</time>
      </trkpt>
      <trkpt lat="46.92205" lon="5.70208">
        <ele>249.2</ele>
        <time>2020-03-04T10:52:22Z</time>
      </trkpt>
      <trkpt lat="46.92212" lon="5.70213">
        <ele>249.2</ele>
        <time>2020-03-04T10:52:23Z</time>
      </trkpt>
      <trkpt lat="46.92219" lon="5.70216">
        <ele>249</ele>
        <time>2020-03-04T10:52:24Z</time>
      </trkpt>
      <trkpt lat="46.92225" lon="5.70219">
        <ele>249</ele>
        <time>2020-03-04T10:52:25Z</time>
      </trkpt>
      <trkpt lat="46.92231" lon="5.70222">
        <ele>248.8</ele>
        <time>2020-03-04T10:52:26Z</time>
      </trkpt>
      <trkpt lat="46.92236" lon="5.70227">
        <ele>248.8</ele>
        <time>2020-03-04T10:52:27Z</time>
      </trkpt>
      <trkpt lat="46.9224" lon="5.70232">
        <ele>248.8</ele>
        <time>2020-03-04T10:52:28Z</time>
      </trkpt>
      <trkpt lat="46.92242" lon="5.70239">
        <ele>248.8</ele>
        <time>2020-03-04T10:52:29Z</time>
      </trkpt>
      <trkpt lat="46.92243" lon="5.70247">
        <ele>248.6</ele>
        <time>2020-03-04T10:52:30Z</time>
      </trkpt>
      <trkpt lat="46.92242" lon="5.70254">
        <ele>248.6</ele>
        <time>2020-03-04T10:52:31Z</time>
      </trkpt>
      <trkpt lat="46.92241" lon="5.70262">
        <ele>248.6</ele>
        <time>2020-03-04T10:52:32Z</time>
      </trkpt>
      <trkpt lat="46.92239" lon="5.7027">
        <ele>248.6</ele>
        <time>2020-03-04T10:52:33Z</time>
      </trkpt>
      <trkpt lat="46.92238" lon="5.70278">
        <ele>248.8</ele>
        <time>2020-03-04T10:52:34Z</time>
      </trkpt>
      <trkpt lat="46.92236" lon="5.70286">
        <ele>248.8</ele>
        <time>2020-03-04T10:52:35Z</time>
      </trkpt>
      <trkpt lat="46.92235" lon="5.70294">
        <ele>248.8</ele>
        <time>2020-03-04T10:52:36Z</time>
      </trkpt>
      <trkpt lat="46.92234" lon="5.70303">
        <ele>248.8</ele>
        <time>2020-03-04T10:52:37Z</time>
      </trkpt>
      <trkpt lat="46.92232" lon="5.70311">
        <ele>249</ele>
        <time>2020-03-04T10:52:38Z</time>
      </trkpt>
      <trkpt lat="46.92231" lon="5.7032">
        <ele>249</ele>
        <time>2020-03-04T10:52:39Z</time>
      </trkpt>
      <trkpt lat="46.92229" lon="5.70329">
        <ele>249</ele>
        <time>2020-03-04T10:52:40Z</time>
      </trkpt>
      <trkpt lat="46.92228" lon="5.70338">
        <ele>249.2</ele>
        <time>2020-03-04T10:52:41Z</time>
      </trkpt>
      <trkpt lat="46.92227" lon="5.70347">
        <ele>249.2</ele>
        <time>2020-03-04T10:52:42Z</time>
      </trkpt>
      <trkpt lat="46.92225" lon="5.70356">
        <ele>249.2</ele>
        <time>2020-03-04T10:52:43Z</time>
      </trkpt>
      <trkpt lat="46.92224" lon="5.70366">
        <ele>249.2</ele>
        <time>2020-03-04T10:52:44Z</time>
      </trkpt>
      <trkpt lat="46.92223" lon="5.70375">
        <ele>249.2</ele>
        <time>2020-03-04T10:52:45Z</time>
      </trkpt>
      <trkpt lat="46.92221" lon="5.70384">
        <ele>249.2</ele>
        <time>2020-03-04T10:52:46Z</time>
      </trkpt>
      <trkpt lat="46.9222" lon="5.70394">
        <ele>249.2</ele>
        <time>2020-03-04T10:52:47Z</time>
      </trkpt>
      <trkpt lat="46.92219" lon="5.70403">
        <ele>249.2</ele>
        <time>2020-03-04T10:52:48Z</time>
      </trkpt>
      <trkpt lat="46.92217" lon="5.70413">
        <ele>249.2</ele>
        <time>2020-03-04T10:52:49Z</time>
      </trkpt>
      <trkpt lat="46.92216" lon="5.70423">
        <ele>249.2</ele>
        <time>2020-03-04T10:52:50Z</time>
      </trkpt>
      <trkpt lat="46.92215" lon="5.70433">
        <ele>249.2</ele>
        <time>2020-03-04T10:52:51Z</time>
      </trkpt>
      <trkpt lat="46.92213" lon="5.70443">
        <ele>249.2</ele>
        <time>2020-03-04T10:52:52Z</time>
      </trkpt>
      <trkpt lat="46.92212" lon="5.70453">
        <ele>249.2</ele>
        <time>2020-03-04T10:52:53Z</time>
      </trkpt>
      <trkpt lat="46.9221" lon="5.70463">
        <ele>249.2</ele>
        <time>2020-03-04T10:52:54Z</time>
      </trkpt>
      <trkpt lat="46.92209" lon="5.70474">
        <ele>249</ele>
        <time>2020-03-04T10:52:55Z</time>
      </trkpt>
      <trkpt lat="46.92207" lon="5.70485">
        <ele>249</ele>
        <time>2020-03-04T10:52:56Z</time>
      </trkpt>
      <trkpt lat="46.92206" lon="5.70495">
        <ele>249</ele>
        <time>2020-03-04T10:52:57Z</time>
      </trkpt>
      <trkpt lat="46.92204" lon="5.70506">
        <ele>249</ele>
        <time>2020-03-04T10:52:58Z</time>
      </trkpt>
      <trkpt lat="46.92203" lon="5.70517">
        <ele>249</ele>
        <time>2020-03-04T10:52:59Z</time>
      </trkpt>
      <trkpt lat="46.92201" lon="5.70528">
        <ele>249</ele>
        <time>2020-03-04T10:53:00Z</time>
      </trkpt>
      <trkpt lat="46.922" lon="5.70539">
        <ele>249</ele>
        <time>2020-03-04T10:53:01Z</time>
      </trkpt>
      <trkpt lat="46.92198" lon="5.7055">
        <ele>249</ele>
        <time>2020-03-04T10:53:02Z</time>
      </trkpt>
      <trkpt lat="46.92197" lon="5.7056">
        <ele>249</ele>
        <time>2020-03-04T10:53:03Z</time>
      </trkpt>
      <trkpt lat="46.92195" lon="5.70571">
        <ele>249</ele>
        <time>2020-03-04T10:53:04Z</time>
      </trkpt>
      <trkpt lat="46.92194" lon="5.70581">
        <ele>249.2</ele>
        <time>2020-03-04T10:53:05Z</time>
      </trkpt>
      <trkpt lat="46.92192" lon="5.70592">
        <ele>249.2</ele>
        <time>2020-03-04T10:53:06Z</time>
      </trkpt>
      <trkpt lat="46.92191" lon="5.70602">
        <ele>249.2</ele>
        <time>2020-03-04T10:53:07Z</time>
      </trkpt>
      <trkpt lat="46.9219" lon="5.70612">
        <ele>249.2</ele>
        <time>2020-03-04T10:53:08Z</time>
      </trkpt>
      <trkpt lat="46.92188" lon="5.70622">
        <ele>249.2</ele>
        <time>2020-03-04T10:53:09Z</time>
      </trkpt>
      <trkpt lat="46.92187" lon="5.70632">
        <ele>249.4</ele>
        <time>2020-03-04T10:53:10Z</time>
      </trkpt>
      <trkpt lat="46.92185" lon="5.70642">
        <ele>249.4</ele>
        <time>2020-03-04T10:53:11Z</time>
      </trkpt>
      <trkpt lat="46.92184" lon="5.70652">
        <ele>249.4</ele>
        <time>2020-03-04T10:53:12Z</time>
      </trkpt>
      <trkpt lat="46.92183" lon="5.70662">
        <ele>249.4</ele>
        <time>2020-03-04T10:53:13Z</time>
      </trkpt>
      <trkpt lat="46.92181" lon="5.70673">
        <ele>249.4</ele>
        <time>2020-03-04T10:53:14Z</time>
      </trkpt>
      <trkpt lat="46.92179" lon="5.70683">
        <ele>249.6</ele>
        <time>2020-03-04T10:53:15Z</time>
      </trkpt>
      <trkpt lat="46.92178" lon="5.70694">
        <ele>249.6</ele>
        <time>2020-03-04T10:53:16Z</time>
      </trkpt>
      <trkpt lat="46.92176" lon="5.70705">
        <ele>249.8</ele>
        <time>2020-03-04T10:53:17Z</time>
      </trkpt>
      <trkpt lat="46.92175" lon="5.70715">
        <ele>249.8</ele>
        <time>2020-03-04T10:53:18Z</time>
      </trkpt>
      <trkpt lat="46.92173" lon="5.70726">
        <ele>249.8</ele>
        <time>2020-03-04T10:53:19Z</time>
      </trkpt>
      <trkpt lat="46.92172" lon="5.70737">
        <ele>249.8</ele>
        <time>2020-03-04T10:53:20Z</time>
      </trkpt>
      <trkpt lat="46.9217" lon="5.70748">
        <ele>250.2</ele>
        <time>2020-03-04T10:53:21Z</time>
      </trkpt>
      <trkpt lat="46.92169" lon="5.70759">
        <ele>250.2</ele>
        <time>2020-03-04T10:53:22Z</time>
      </trkpt>
      <trkpt lat="46.92167" lon="5.70769">
        <ele>250.2</ele>
        <time>2020-03-04T10:53:23Z</time>
      </trkpt>
      <trkpt lat="46.92166" lon="5.7078">
        <ele>250.2</ele>
        <time>2020-03-04T10:53:24Z</time>
      </trkpt>
      <trkpt lat="46.92165" lon="5.70791">
        <ele>250.2</ele>
        <time>2020-03-04T10:53:25Z</time>
      </trkpt>
      <trkpt lat="46.92163" lon="5.70802">
        <ele>250.4</ele>
        <time>2020-03-04T10:53:26Z</time>
      </trkpt>
      <trkpt lat="46.92161" lon="5.70813">
        <ele>250.4</ele>
        <time>2020-03-04T10:53:27Z</time>
      </trkpt>
      <trkpt lat="46.9216" lon="5.70824">
        <ele>250.4</ele>
        <time>2020-03-04T10:53:28Z</time>
      </trkpt>
      <trkpt lat="46.92158" lon="5.70835">
        <ele>250.4</ele>
        <time>2020-03-04T10:53:29Z</time>
      </trkpt>
      <trkpt lat="46.92157" lon="5.70846">
        <ele>250.4</ele>
        <time>2020-03-04T10:53:30Z</time>
      </trkpt>
      <trkpt lat="46.92155" lon="5.70856">
        <ele>250.4</ele>
        <time>2020-03-04T10:53:31Z</time>
      </trkpt>
      <trkpt lat="46.92154" lon="5.70867">
        <ele>250.4</ele>
        <time>2020-03-04T10:53:32Z</time>
      </trkpt>
      <trkpt lat="46.92152" lon="5.70878">
        <ele>250.4</ele>
        <time>2020-03-04T10:53:33Z</time>
      </trkpt>
      <trkpt lat="46.92151" lon="5.70888">
        <ele>250.6</ele>
        <time>2020-03-04T10:53:34Z</time>
      </trkpt>
      <trkpt lat="46.92149" lon="5.70899">
        <ele>250.6</ele>
        <time>2020-03-04T10:53:35Z</time>
      </trkpt>
      <trkpt lat="46.92148" lon="5.70909">
        <ele>250.6</ele>
        <time>2020-03-04T10:53:36Z</time>
      </trkpt>
      <trkpt lat="46.92146" lon="5.70919">
        <ele>250.8</ele>
        <time>2020-03-04T10:53:37Z</time>
      </trkpt>
      <trkpt lat="46.92145" lon="5.7093">
        <ele>250.8</ele>
        <time>2020-03-04T10:53:38Z</time>
      </trkpt>
      <trkpt lat="46.92143" lon="5.7094">
        <ele>250.8</ele>
        <time>2020-03-04T10:53:39Z</time>
      </trkpt>
      <trkpt lat="46.92141" lon="5.70951">
        <ele>250.8</ele>
        <time>2020-03-04T10:53:40Z</time>
      </trkpt>
      <trkpt lat="46.9214" lon="5.70961">
        <ele>250.8</ele>
        <time>2020-03-04T10:53:41Z</time>
      </trkpt>
      <trkpt lat="46.92138" lon="5.70971">
        <ele>250.8</ele>
        <time>2020-03-04T10:53:42Z</time>
      </trkpt>
      <trkpt lat="46.92136" lon="5.70982">
        <ele>250.8</ele>
        <time>2020-03-04T10:53:43Z</time>
      </trkpt>
      <trkpt lat="46.92135" lon="5.70992">
        <ele>250.8</ele>
        <time>2020-03-04T10:53:44Z</time>
      </trkpt>
      <trkpt lat="46.92134" lon="5.71003">
        <ele>250.8</ele>
        <time>2020-03-04T10:53:45Z</time>
      </trkpt>
      <trkpt lat="46.92132" lon="5.71013">
        <ele>251.2</ele>
        <time>2020-03-04T10:53:46Z</time>
      </trkpt>
      <trkpt lat="46.92131" lon="5.71023">
        <ele>251.2</ele>
        <time>2020-03-04T10:53:47Z</time>
      </trkpt>
      <trkpt lat="46.92129" lon="5.71034">
        <ele>251.2</ele>
        <time>2020-03-04T10:53:48Z</time>
      </trkpt>
      <trkpt lat="46.92128" lon="5.71044">
        <ele>251.2</ele>
        <time>2020-03-04T10:53:49Z</time>
      </trkpt>
      <trkpt lat="46.92126" lon="5.71054">
        <ele>251.2</ele>
        <time>2020-03-04T10:53:50Z</time>
      </trkpt>
      <trkpt lat="46.92125" lon="5.71064">
        <ele>251.4</ele>
        <time>2020-03-04T10:53:51Z</time>
      </trkpt>
      <trkpt lat="46.92123" lon="5.71073">
        <ele>251.4</ele>
        <time>2020-03-04T10:53:52Z</time>
      </trkpt>
      <trkpt lat="46.92122" lon="5.71084">
        <ele>251.4</ele>
        <time>2020-03-04T10:53:53Z</time>
      </trkpt>
      <trkpt lat="46.9212" lon="5.71094">
        <ele>251.4</ele>
        <time>2020-03-04T10:53:54Z</time>
      </trkpt>
      <trkpt lat="46.92119" lon="5.71103">
        <ele>251.4</ele>
        <time>2020-03-04T10:53:55Z</time>
      </trkpt>
      <trkpt lat="46.92118" lon="5.71113">
        <ele>251.4</ele>
        <time>2020-03-04T10:53:56Z</time>
      </trkpt>
      <trkpt lat="46.92116" lon="5.71123">
        <ele>251.4</ele>
        <time>2020-03-04T10:53:57Z</time>
      </trkpt>
      <trkpt lat="46.92115" lon="5.71133">
        <ele>251.4</ele>
        <time>2020-03-04T10:53:58Z</time>
      </trkpt>
      <trkpt lat="46.92113" lon="5.71143">
        <ele>251.4</ele>
        <time>2020-03-04T10:53:59Z</time>
      </trkpt>
      <trkpt lat="46.92111" lon="5.71153">
        <ele>251.4</ele>
        <time>2020-03-04T10:54:00Z</time>
      </trkpt>
      <trkpt lat="46.9211" lon="5.71163">
        <ele>251.4</ele>
        <time>2020-03-04T10:54:01Z</time>
      </trkpt>
      <trkpt lat="46.92109" lon="5.71173">
        <ele>251.4</ele>
        <time>2020-03-04T10:54:02Z</time>
      </trkpt>
      <trkpt lat="46.92107" lon="5.71183">
        <ele>251.6</ele>
        <time>2020-03-04T10:54:03Z</time>
      </trkpt>
      <trkpt lat="46.92106" lon="5.71193">
        <ele>251.6</ele>
        <time>2020-03-04T10:54:04Z</time>
      </trkpt>
      <trkpt lat="46.92105" lon="5.71202">
        <ele>251.6</ele>
        <time>2020-03-04T10:54:05Z</time>
      </trkpt>
      <trkpt lat="46.92103" lon="5.71212">
        <ele>251.6</ele>
        <time>2020-03-04T10:54:06Z</time>
      </trkpt>
      <trkpt lat="46.92102" lon="5.71222">
        <ele>251.6</ele>
        <time>2020-03-04T10:54:07Z</time>
      </trkpt>
      <trkpt lat="46.921" lon="5.71232">
        <ele>251.6</ele>
        <time>2020-03-04T10:54:08Z</time>
      </trkpt>
      <trkpt lat="46.92099" lon="5.71242">
        <ele>251.6</ele>
        <time>2020-03-04T10:54:09Z</time>
      </trkpt>
      <trkpt lat="46.92097" lon="5.71251">
        <ele>251.6</ele>
        <time>2020-03-04T10:54:10Z</time>
      </trkpt>
      <trkpt lat="46.92096" lon="5.71261">
        <ele>251.6</ele>
        <time>2020-03-04T10:54:11Z</time>
      </trkpt>
      <trkpt lat="46.92095" lon="5.71271">
        <ele>251.6</ele>
        <time>2020-03-04T10:54:12Z</time>
      </trkpt>
      <trkpt lat="46.92093" lon="5.7128">
        <ele>251.6</ele>
        <time>2020-03-04T10:54:13Z</time>
      </trkpt>
      <trkpt lat="46.92092" lon="5.7129">
        <ele>251.6</ele>
        <time>2020-03-04T10:54:14Z</time>
      </trkpt>
      <trkpt lat="46.92091" lon="5.713">
        <ele>251.6</ele>
        <time>2020-03-04T10:54:15Z</time>
      </trkpt>
      <trkpt lat="46.92089" lon="5.71309">
        <ele>251.6</ele>
        <time>2020-03-04T10:54:16Z</time>
      </trkpt>
      <trkpt lat="46.92088" lon="5.71319">
        <ele>251.6</ele>
        <time>2020-03-04T10:54:17Z</time>
      </trkpt>
      <trkpt lat="46.92087" lon="5.71329">
        <ele>251.6</ele>
        <time>2020-03-04T10:54:18Z</time>
      </trkpt>
      <trkpt lat="46.92085" lon="5.71338">
        <ele>251.6</ele>
        <time>2020-03-04T10:54:19Z</time>
      </trkpt>
      <trkpt lat="46.92084" lon="5.71348">
        <ele>251.6</ele>
        <time>2020-03-04T10:54:20Z</time>
      </trkpt>
      <trkpt lat="46.92083" lon="5.71358">
        <ele>251.4</ele>
        <time>2020-03-04T10:54:21Z</time>
      </trkpt>
      <trkpt lat="46.92081" lon="5.71367">
        <ele>251.4</ele>
        <time>2020-03-04T10:54:22Z</time>
      </trkpt>
      <trkpt lat="46.9208" lon="5.71377">
        <ele>251.4</ele>
        <time>2020-03-04T10:54:23Z</time>
      </trkpt>
      <trkpt lat="46.92079" lon="5.71386">
        <ele>251.4</ele>
        <time>2020-03-04T10:54:24Z</time>
      </trkpt>
      <trkpt lat="46.92077" lon="5.71396">
        <ele>251.4</ele>
        <time>2020-03-04T10:54:25Z</time>
      </trkpt>
      <trkpt lat="46.92076" lon="5.71405">
        <ele>251.4</ele>
        <time>2020-03-04T10:54:26Z</time>
      </trkpt>
      <trkpt lat="46.92075" lon="5.71415">
        <ele>251.4</ele>
        <time>2020-03-04T10:54:27Z</time>
      </trkpt>
      <trkpt lat="46.92074" lon="5.71424">
        <ele>251.4</ele>
        <time>2020-03-04T10:54:28Z</time>
      </trkpt>
      <trkpt lat="46.92072" lon="5.71433">
        <ele>251.6</ele>
        <time>2020-03-04T10:54:29Z</time>
      </trkpt>
      <trkpt lat="46.92071" lon="5.71442">
        <ele>252</ele>
        <time>2020-03-04T10:54:30Z</time>
      </trkpt>
      <trkpt lat="46.9207" lon="5.71452">
        <ele>252</ele>
        <time>2020-03-04T10:54:31Z</time>
      </trkpt>
      <trkpt lat="46.92068" lon="5.71461">
        <ele>252</ele>
        <time>2020-03-04T10:54:32Z</time>
      </trkpt>
      <trkpt lat="46.92067" lon="5.71471">
        <ele>252</ele>
        <time>2020-03-04T10:54:33Z</time>
      </trkpt>
      <trkpt lat="46.92065" lon="5.71481">
        <ele>252</ele>
        <time>2020-03-04T10:54:34Z</time>
      </trkpt>
      <trkpt lat="46.92064" lon="5.7149">
        <ele>252.2</ele>
        <time>2020-03-04T10:54:35Z</time>
      </trkpt>
      <trkpt lat="46.92063" lon="5.715">
        <ele>252.2</ele>
        <time>2020-03-04T10:54:36Z</time>
      </trkpt>
      <trkpt lat="46.92061" lon="5.7151">
        <ele>252.4</ele>
        <time>2020-03-04T10:54:37Z</time>
      </trkpt>
      <trkpt lat="46.9206" lon="5.71519">
        <ele>252.4</ele>
        <time>2020-03-04T10:54:38Z</time>
      </trkpt>
      <trkpt lat="46.92059" lon="5.71529">
        <ele>252.4</ele>
        <time>2020-03-04T10:54:39Z</time>
      </trkpt>
      <trkpt lat="46.92057" lon="5.71539">
        <ele>252.4</ele>
        <time>2020-03-04T10:54:40Z</time>
      </trkpt>
      <trkpt lat="46.92056" lon="5.71548">
        <ele>252.4</ele>
        <time>2020-03-04T10:54:41Z</time>
      </trkpt>
      <trkpt lat="46.92054" lon="5.71558">
        <ele>252.4</ele>
        <time>2020-03-04T10:54:42Z</time>
      </trkpt>
      <trkpt lat="46.92053" lon="5.71567">
        <ele>252.4</ele>
        <time>2020-03-04T10:54:43Z</time>
      </trkpt>
      <trkpt lat="46.92051" lon="5.71577">
        <ele>252.4</ele>
        <time>2020-03-04T10:54:44Z</time>
      </trkpt>
      <trkpt lat="46.9205" lon="5.71587">
        <ele>252.4</ele>
        <time>2020-03-04T10:54:45Z</time>
      </trkpt>
      <trkpt lat="46.92049" lon="5.71596">
        <ele>252.4</ele>
        <time>2020-03-04T10:54:46Z</time>
      </trkpt>
      <trkpt lat="46.92047" lon="5.71606">
        <ele>252.4</ele>
        <time>2020-03-04T10:54:47Z</time>
      </trkpt>
      <trkpt lat="46.92046" lon="5.71616">
        <ele>252.4</ele>
        <time>2020-03-04T10:54:48Z</time>
      </trkpt>
      <trkpt lat="46.92044" lon="5.71625">
        <ele>252.4</ele>
        <time>2020-03-04T10:54:49Z</time>
      </trkpt>
      <trkpt lat="46.92043" lon="5.71635">
        <ele>252.4</ele>
        <time>2020-03-04T10:54:50Z</time>
      </trkpt>
      <trkpt lat="46.92042" lon="5.71645">
        <ele>252.4</ele>
        <time>2020-03-04T10:54:51Z</time>
      </trkpt>
      <trkpt lat="46.9204" lon="5.71654">
        <ele>252.4</ele>
        <time>2020-03-04T10:54:52Z</time>
      </trkpt>
      <trkpt lat="46.92039" lon="5.71664">
        <ele>252.6</ele>
        <time>2020-03-04T10:54:53Z</time>
      </trkpt>
      <trkpt lat="46.92037" lon="5.71674">
        <ele>252.6</ele>
        <time>2020-03-04T10:54:54Z</time>
      </trkpt>
      <trkpt lat="46.92036" lon="5.71684">
        <ele>252.6</ele>
        <time>2020-03-04T10:54:55Z</time>
      </trkpt>
      <trkpt lat="46.92034" lon="5.71694">
        <ele>252.6</ele>
        <time>2020-03-04T10:54:56Z</time>
      </trkpt>
      <trkpt lat="46.92033" lon="5.71704">
        <ele>252.6</ele>
        <time>2020-03-04T10:54:57Z</time>
      </trkpt>
      <trkpt lat="46.92032" lon="5.71714">
        <ele>252.6</ele>
        <time>2020-03-04T10:54:58Z</time>
      </trkpt>
      <trkpt lat="46.9203" lon="5.71724">
        <ele>252.8</ele>
        <time>2020-03-04T10:54:59Z</time>
      </trkpt>
      <trkpt lat="46.92029" lon="5.71734">
        <ele>252.8</ele>
        <time>2020-03-04T10:55:00Z</time>
      </trkpt>
      <trkpt lat="46.92027" lon="5.71745">
        <ele>252.8</ele>
        <time>2020-03-04T10:55:01Z</time>
      </trkpt>
      <trkpt lat="46.92026" lon="5.71755">
        <ele>252.8</ele>
        <time>2020-03-04T10:55:02Z</time>
      </trkpt>
      <trkpt lat="46.92024" lon="5.71764">
        <ele>252.8</ele>
        <time>2020-03-04T10:55:03Z</time>
      </trkpt>
      <trkpt lat="46.92023" lon="5.71774">
        <ele>252.8</ele>
        <time>2020-03-04T10:55:04Z</time>
      </trkpt>
      <trkpt lat="46.92022" lon="5.71784">
        <ele>253</ele>
        <time>2020-03-04T10:55:05Z</time>
      </trkpt>
      <trkpt lat="46.9202" lon="5.71794">
        <ele>253</ele>
        <time>2020-03-04T10:55:06Z</time>
      </trkpt>
      <trkpt lat="46.92019" lon="5.71804">
        <ele>253.4</ele>
        <time>2020-03-04T10:55:07Z</time>
      </trkpt>
      <trkpt lat="46.92018" lon="5.71814">
        <ele>253.4</ele>
        <time>2020-03-04T10:55:08Z</time>
      </trkpt>
      <trkpt lat="46.92017" lon="5.71824">
        <ele>253.4</ele>
        <time>2020-03-04T10:55:09Z</time>
      </trkpt>
      <trkpt lat="46.92015" lon="5.71834">
        <ele>253.4</ele>
        <time>2020-03-04T10:55:10Z</time>
      </trkpt>
      <trkpt lat="46.92014" lon="5.71843">
        <ele>253.4</ele>
        <time>2020-03-04T10:55:11Z</time>
      </trkpt>
      <trkpt lat="46.92013" lon="5.71853">
        <ele>253.4</ele>
        <time>2020-03-04T10:55:12Z</time>
      </trkpt>
      <trkpt lat="46.92011" lon="5.71863">
        <ele>253.6</ele>
        <time>2020-03-04T10:55:13Z</time>
      </trkpt>
      <trkpt lat="46.9201" lon="5.71872">
        <ele>253.6</ele>
        <time>2020-03-04T10:55:14Z</time>
      </trkpt>
      <trkpt lat="46.92009" lon="5.71882">
        <ele>253.6</ele>
        <time>2020-03-04T10:55:15Z</time>
      </trkpt>
      <trkpt lat="46.92007" lon="5.71892">
        <ele>253.8</ele>
        <time>2020-03-04T10:55:16Z</time>
      </trkpt>
      <trkpt lat="46.92006" lon="5.71901">
        <ele>253.8</ele>
        <time>2020-03-04T10:55:17Z</time>
      </trkpt>
      <trkpt lat="46.92005" lon="5.71911">
        <ele>253.8</ele>
        <time>2020-03-04T10:55:18Z</time>
      </trkpt>
      <trkpt lat="46.92003" lon="5.71921">
        <ele>253.8</ele>
        <time>2020-03-04T10:55:19Z</time>
      </trkpt>
      <trkpt lat="46.92002" lon="5.7193">
        <ele>254</ele>
        <time>2020-03-04T10:55:20Z</time>
      </trkpt>
      <trkpt lat="46.92001" lon="5.7194">
        <ele>254</ele>
        <time>2020-03-04T10:55:21Z</time>
      </trkpt>
      <trkpt lat="46.91999" lon="5.7195">
        <ele>254</ele>
        <time>2020-03-04T10:55:22Z</time>
      </trkpt>
      <trkpt lat="46.91998" lon="5.7196">
        <ele>254</ele>
        <time>2020-03-04T10:55:23Z</time>
      </trkpt>
      <trkpt lat="46.91996" lon="5.7197">
        <ele>254</ele>
        <time>2020-03-04T10:55:24Z</time>
      </trkpt>
      <trkpt lat="46.91995" lon="5.71981">
        <ele>254</ele>
        <time>2020-03-04T10:55:25Z</time>
      </trkpt>
      <trkpt lat="46.91994" lon="5.71991">
        <ele>254</ele>
        <time>2020-03-04T10:55:26Z</time>
      </trkpt>
      <trkpt lat="46.91992" lon="5.72002">
        <ele>254</ele>
        <time>2020-03-04T10:55:27Z</time>
      </trkpt>
      <trkpt lat="46.91991" lon="5.72012">
        <ele>254.4</ele>
        <time>2020-03-04T10:55:28Z</time>
      </trkpt>
      <trkpt lat="46.91989" lon="5.72023">
        <ele>254.4</ele>
        <time>2020-03-04T10:55:29Z</time>
      </trkpt>
      <trkpt lat="46.91987" lon="5.72033">
        <ele>254.4</ele>
        <time>2020-03-04T10:55:30Z</time>
      </trkpt>
      <trkpt lat="46.91986" lon="5.72044">
        <ele>254.4</ele>
        <time>2020-03-04T10:55:31Z</time>
      </trkpt>
      <trkpt lat="46.91984" lon="5.72055">
        <ele>254.4</ele>
        <time>2020-03-04T10:55:32Z</time>
      </trkpt>
      <trkpt lat="46.91983" lon="5.72065">
        <ele>254.4</ele>
        <time>2020-03-04T10:55:33Z</time>
      </trkpt>
      <trkpt lat="46.91981" lon="5.72076">
        <ele>254.2</ele>
        <time>2020-03-04T10:55:34Z</time>
      </trkpt>
      <trkpt lat="46.9198" lon="5.72087">
        <ele>254.2</ele>
        <time>2020-03-04T10:55:35Z</time>
      </trkpt>
      <trkpt lat="46.91978" lon="5.72097">
        <ele>254.2</ele>
        <time>2020-03-04T10:55:36Z</time>
      </trkpt>
      <trkpt lat="46.91977" lon="5.72107">
        <ele>254.2</ele>
        <time>2020-03-04T10:55:37Z</time>
      </trkpt>
      <trkpt lat="46.91975" lon="5.72118">
        <ele>254.2</ele>
        <time>2020-03-04T10:55:38Z</time>
      </trkpt>
      <trkpt lat="46.91974" lon="5.72128">
        <ele>254.2</ele>
        <time>2020-03-04T10:55:39Z</time>
      </trkpt>
      <trkpt lat="46.91972" lon="5.72138">
        <ele>254.2</ele>
        <time>2020-03-04T10:55:40Z</time>
      </trkpt>
      <trkpt lat="46.91971" lon="5.72148">
        <ele>254.2</ele>
        <time>2020-03-04T10:55:41Z</time>
      </trkpt>
      <trkpt lat="46.91969" lon="5.72158">
        <ele>254.4</ele>
        <time>2020-03-04T10:55:42Z</time>
      </trkpt>
      <trkpt lat="46.91968" lon="5.72169">
        <ele>254.4</ele>
        <time>2020-03-04T10:55:43Z</time>
      </trkpt>
      <trkpt lat="46.91967" lon="5.72179">
        <ele>254.4</ele>
        <time>2020-03-04T10:55:44Z</time>
      </trkpt>
      <trkpt lat="46.91965" lon="5.72189">
        <ele>254.4</ele>
        <time>2020-03-04T10:55:45Z</time>
      </trkpt>
      <trkpt lat="46.91964" lon="5.72199">
        <ele>254.4</ele>
        <time>2020-03-04T10:55:46Z</time>
      </trkpt>
      <trkpt lat="46.91963" lon="5.72209">
        <ele>254.6</ele>
        <time>2020-03-04T10:55:47Z</time>
      </trkpt>
      <trkpt lat="46.91961" lon="5.7222">
        <ele>254.6</ele>
        <time>2020-03-04T10:55:48Z</time>
      </trkpt>
      <trkpt lat="46.9196" lon="5.7223">
        <ele>254.8</ele>
        <time>2020-03-04T10:55:49Z</time>
      </trkpt>
      <trkpt lat="46.91958" lon="5.7224">
        <ele>254.8</ele>
        <time>2020-03-04T10:55:50Z</time>
      </trkpt>
      <trkpt lat="46.91957" lon="5.7225">
        <ele>255</ele>
        <time>2020-03-04T10:55:51Z</time>
      </trkpt>
      <trkpt lat="46.91956" lon="5.7226">
        <ele>255</ele>
        <time>2020-03-04T10:55:52Z</time>
      </trkpt>
      <trkpt lat="46.91954" lon="5.7227">
        <ele>255</ele>
        <time>2020-03-04T10:55:53Z</time>
      </trkpt>
      <trkpt lat="46.91953" lon="5.7228">
        <ele>255</ele>
        <time>2020-03-04T10:55:54Z</time>
      </trkpt>
      <trkpt lat="46.91951" lon="5.7229">
        <ele>255</ele>
        <time>2020-03-04T10:55:55Z</time>
      </trkpt>
      <trkpt lat="46.9195" lon="5.72301">
        <ele>255</ele>
        <time>2020-03-04T10:55:56Z</time>
      </trkpt>
      <trkpt lat="46.91948" lon="5.72311">
        <ele>255.4</ele>
        <time>2020-03-04T10:55:57Z</time>
      </trkpt>
      <trkpt lat="46.91947" lon="5.72321">
        <ele>255.4</ele>
        <time>2020-03-04T10:55:58Z</time>
      </trkpt>
      <trkpt lat="46.91945" lon="5.72331">
        <ele>255.4</ele>
        <time>2020-03-04T10:55:59Z</time>
      </trkpt>
      <trkpt lat="46.91944" lon="5.72341">
        <ele>255.4</ele>
        <time>2020-03-04T10:56:00Z</time>
      </trkpt>
      <trkpt lat="46.91943" lon="5.72352">
        <ele>255.4</ele>
        <time>2020-03-04T10:56:01Z</time>
      </trkpt>
      <trkpt lat="46.91941" lon="5.72362">
        <ele>255.4</ele>
        <time>2020-03-04T10:56:02Z</time>
      </trkpt>
      <trkpt lat="46.9194" lon="5.72372">
        <ele>255.4</ele>
        <time>2020-03-04T10:56:03Z</time>
      </trkpt>
      <trkpt lat="46.91938" lon="5.72383">
        <ele>255.4</ele>
        <time>2020-03-04T10:56:04Z</time>
      </trkpt>
      <trkpt lat="46.91937" lon="5.72393">
        <ele>255.4</ele>
        <time>2020-03-04T10:56:05Z</time>
      </trkpt>
      <trkpt lat="46.91935" lon="5.72404">
        <ele>255.4</ele>
        <time>2020-03-04T10:56:06Z</time>
      </trkpt>
      <trkpt lat="46.91934" lon="5.72414">
        <ele>255.6</ele>
        <time>2020-03-04T10:56:07Z</time>
      </trkpt>
      <trkpt lat="46.91932" lon="5.72425">
        <ele>255.6</ele>
        <time>2020-03-04T10:56:08Z</time>
      </trkpt>
      <trkpt lat="46.91931" lon="5.72435">
        <ele>255.6</ele>
        <time>2020-03-04T10:56:09Z</time>
      </trkpt>
      <trkpt lat="46.91929" lon="5.72445">
        <ele>255.6</ele>
        <time>2020-03-04T10:56:10Z</time>
      </trkpt>
      <trkpt lat="46.91928" lon="5.72456">
        <ele>255.6</ele>
        <time>2020-03-04T10:56:11Z</time>
      </trkpt>
      <trkpt lat="46.91926" lon="5.72466">
        <ele>255.6</ele>
        <time>2020-03-04T10:56:12Z</time>
      </trkpt>
      <trkpt lat="46.91925" lon="5.72476">
        <ele>255.6</ele>
        <time>2020-03-04T10:56:13Z</time>
      </trkpt>
      <trkpt lat="46.91924" lon="5.72486">
        <ele>255.6</ele>
        <time>2020-03-04T10:56:14Z</time>
      </trkpt>
      <trkpt lat="46.91922" lon="5.72497">
        <ele>255.6</ele>
        <time>2020-03-04T10:56:15Z</time>
      </trkpt>
      <trkpt lat="46.91921" lon="5.72507">
        <ele>255.6</ele>
        <time>2020-03-04T10:56:16Z</time>
      </trkpt>
      <trkpt lat="46.91919" lon="5.72517">
        <ele>255.6</ele>
        <time>2020-03-04T10:56:17Z</time>
      </trkpt>
      <trkpt lat="46.91918" lon="5.72528">
        <ele>255.6</ele>
        <time>2020-03-04T10:56:18Z</time>
      </trkpt>
      <trkpt lat="46.91917" lon="5.72538">
        <ele>255.6</ele>
        <time>2020-03-04T10:56:19Z</time>
      </trkpt>
      <trkpt lat="46.91915" lon="5.72548">
        <ele>255.6</ele>
        <time>2020-03-04T10:56:20Z</time>
      </trkpt>
      <trkpt lat="46.91914" lon="5.72559">
        <ele>255.4</ele>
        <time>2020-03-04T10:56:21Z</time>
      </trkpt>
      <trkpt lat="46.91912" lon="5.72569">
        <ele>255.4</ele>
        <time>2020-03-04T10:56:22Z</time>
      </trkpt>
      <trkpt lat="46.91911" lon="5.7258">
        <ele>255.4</ele>
        <time>2020-03-04T10:56:23Z</time>
      </trkpt>
      <trkpt lat="46.91909" lon="5.7259">
        <ele>255.4</ele>
        <time>2020-03-04T10:56:24Z</time>
      </trkpt>
      <trkpt lat="46.91907" lon="5.72601">
        <ele>255.4</ele>
        <time>2020-03-04T10:56:25Z</time>
      </trkpt>
      <trkpt lat="46.91906" lon="5.72611">
        <ele>255.6</ele>
        <time>2020-03-04T10:56:26Z</time>
      </trkpt>
      <trkpt lat="46.91905" lon="5.72622">
        <ele>255.6</ele>
        <time>2020-03-04T10:56:27Z</time>
      </trkpt>
      <trkpt lat="46.91903" lon="5.72632">
        <ele>255.6</ele>
        <time>2020-03-04T10:56:28Z</time>
      </trkpt>
      <trkpt lat="46.91902" lon="5.72642">
        <ele>255.8</ele>
        <time>2020-03-04T10:56:29Z</time>
      </trkpt>
      <trkpt lat="46.919" lon="5.72652">
        <ele>255.8</ele>
        <time>2020-03-04T10:56:30Z</time>
      </trkpt>
      <trkpt lat="46.91899" lon="5.72663">
        <ele>255.8</ele>
        <time>2020-03-04T10:56:31Z</time>
      </trkpt>
      <trkpt lat="46.91898" lon="5.72673">
        <ele>255.8</ele>
        <time>2020-03-04T10:56:32Z</time>
      </trkpt>
      <trkpt lat="46.91896" lon="5.72683">
        <ele>255.8</ele>
        <time>2020-03-04T10:56:33Z</time>
      </trkpt>
      <trkpt lat="46.91894" lon="5.72693">
        <ele>255.8</ele>
        <time>2020-03-04T10:56:34Z</time>
      </trkpt>
      <trkpt lat="46.91893" lon="5.72703">
        <ele>255.8</ele>
        <time>2020-03-04T10:56:35Z</time>
      </trkpt>
      <trkpt lat="46.91892" lon="5.72713">
        <ele>255.8</ele>
        <time>2020-03-04T10:56:36Z</time>
      </trkpt>
      <trkpt lat="46.9189" lon="5.72723">
        <ele>255.8</ele>
        <time>2020-03-04T10:56:37Z</time>
      </trkpt>
      <trkpt lat="46.91889" lon="5.72733">
        <ele>255.8</ele>
        <time>2020-03-04T10:56:38Z</time>
      </trkpt>
      <trkpt lat="46.91887" lon="5.72743">
        <ele>255.8</ele>
        <time>2020-03-04T10:56:39Z</time>
      </trkpt>
      <trkpt lat="46.91886" lon="5.72753">
        <ele>255.8</ele>
        <time>2020-03-04T10:56:40Z</time>
      </trkpt>
      <trkpt lat="46.91884" lon="5.72764">
        <ele>255.8</ele>
        <time>2020-03-04T10:56:41Z</time>
      </trkpt>
      <trkpt lat="46.91883" lon="5.72774">
        <ele>255.8</ele>
        <time>2020-03-04T10:56:42Z</time>
      </trkpt>
      <trkpt lat="46.91882" lon="5.72784">
        <ele>255.8</ele>
        <time>2020-03-04T10:56:43Z</time>
      </trkpt>
      <trkpt lat="46.9188" lon="5.72794">
        <ele>255.8</ele>
        <time>2020-03-04T10:56:44Z</time>
      </trkpt>
      <trkpt lat="46.91879" lon="5.72804">
        <ele>256</ele>
        <time>2020-03-04T10:56:45Z</time>
      </trkpt>
      <trkpt lat="46.91877" lon="5.72815">
        <ele>256</ele>
        <time>2020-03-04T10:56:46Z</time>
      </trkpt>
      <trkpt lat="46.91876" lon="5.72825">
        <ele>256</ele>
        <time>2020-03-04T10:56:47Z</time>
      </trkpt>
      <trkpt lat="46.91875" lon="5.72835">
        <ele>256</ele>
        <time>2020-03-04T10:56:48Z</time>
      </trkpt>
      <trkpt lat="46.91873" lon="5.72845">
        <ele>256</ele>
        <time>2020-03-04T10:56:49Z</time>
      </trkpt>
      <trkpt lat="46.91872" lon="5.72855">
        <ele>256</ele>
        <time>2020-03-04T10:56:50Z</time>
      </trkpt>
      <trkpt lat="46.9187" lon="5.72865">
        <ele>256</ele>
        <time>2020-03-04T10:56:51Z</time>
      </trkpt>
      <trkpt lat="46.91869" lon="5.72875">
        <ele>256</ele>
        <time>2020-03-04T10:56:52Z</time>
      </trkpt>
      <trkpt lat="46.91868" lon="5.72885">
        <ele>256.2</ele>
        <time>2020-03-04T10:56:53Z</time>
      </trkpt>
      <trkpt lat="46.91866" lon="5.72895">
        <ele>256.2</ele>
        <time>2020-03-04T10:56:54Z</time>
      </trkpt>
      <trkpt lat="46.91865" lon="5.72905">
        <ele>256.2</ele>
        <time>2020-03-04T10:56:55Z</time>
      </trkpt>
      <trkpt lat="46.91863" lon="5.72915">
        <ele>256.2</ele>
        <time>2020-03-04T10:56:56Z</time>
      </trkpt>
      <trkpt lat="46.91862" lon="5.72924">
        <ele>256.2</ele>
        <time>2020-03-04T10:56:57Z</time>
      </trkpt>
      <trkpt lat="46.91861" lon="5.72934">
        <ele>256.2</ele>
        <time>2020-03-04T10:56:58Z</time>
      </trkpt>
      <trkpt lat="46.9186" lon="5.72944">
        <ele>256.2</ele>
        <time>2020-03-04T10:56:59Z</time>
      </trkpt>
      <trkpt lat="46.91858" lon="5.72954">
        <ele>256.2</ele>
        <time>2020-03-04T10:57:00Z</time>
      </trkpt>
      <trkpt lat="46.91857" lon="5.72964">
        <ele>256.2</ele>
        <time>2020-03-04T10:57:01Z</time>
      </trkpt>
      <trkpt lat="46.91855" lon="5.72974">
        <ele>256.2</ele>
        <time>2020-03-04T10:57:02Z</time>
      </trkpt>
      <trkpt lat="46.91854" lon="5.72984">
        <ele>256.2</ele>
        <time>2020-03-04T10:57:03Z</time>
      </trkpt>
      <trkpt lat="46.91853" lon="5.72994">
        <ele>256.2</ele>
        <time>2020-03-04T10:57:04Z</time>
      </trkpt>
      <trkpt lat="46.91851" lon="5.73004">
        <ele>256.4</ele>
        <time>2020-03-04T10:57:05Z</time>
      </trkpt>
      <trkpt lat="46.9185" lon="5.73015">
        <ele>256.4</ele>
        <time>2020-03-04T10:57:06Z</time>
      </trkpt>
      <trkpt lat="46.91848" lon="5.73025">
        <ele>256.4</ele>
        <time>2020-03-04T10:57:07Z</time>
      </trkpt>
      <trkpt lat="46.91847" lon="5.73035">
        <ele>256.8</ele>
        <time>2020-03-04T10:57:08Z</time>
      </trkpt>
      <trkpt lat="46.91846" lon="5.73045">
        <ele>256.8</ele>
        <time>2020-03-04T10:57:09Z</time>
      </trkpt>
      <trkpt lat="46.91845" lon="5.73055">
        <ele>256.8</ele>
        <time>2020-03-04T10:57:10Z</time>
      </trkpt>
      <trkpt lat="46.91843" lon="5.73065">
        <ele>256.8</ele>
        <time>2020-03-04T10:57:11Z</time>
      </trkpt>
      <trkpt lat="46.91842" lon="5.73075">
        <ele>256.8</ele>
        <time>2020-03-04T10:57:12Z</time>
      </trkpt>
      <trkpt lat="46.9184" lon="5.73085">
        <ele>256.8</ele>
        <time>2020-03-04T10:57:13Z</time>
      </trkpt>
      <trkpt lat="46.91839" lon="5.73095">
        <ele>257</ele>
        <time>2020-03-04T10:57:14Z</time>
      </trkpt>
      <trkpt lat="46.91838" lon="5.73105">
        <ele>257</ele>
        <time>2020-03-04T10:57:15Z</time>
      </trkpt>
      <trkpt lat="46.91836" lon="5.73114">
        <ele>257</ele>
        <time>2020-03-04T10:57:16Z</time>
      </trkpt>
      <trkpt lat="46.91835" lon="5.73124">
        <ele>257</ele>
        <time>2020-03-04T10:57:17Z</time>
      </trkpt>
      <trkpt lat="46.91834" lon="5.73134">
        <ele>257</ele>
        <time>2020-03-04T10:57:18Z</time>
      </trkpt>
      <trkpt lat="46.91832" lon="5.73144">
        <ele>257</ele>
        <time>2020-03-04T10:57:19Z</time>
      </trkpt>
      <trkpt lat="46.91831" lon="5.73154">
        <ele>257</ele>
        <time>2020-03-04T10:57:20Z</time>
      </trkpt>
      <trkpt lat="46.91829" lon="5.73164">
        <ele>257</ele>
        <time>2020-03-04T10:57:21Z</time>
      </trkpt>
      <trkpt lat="46.91828" lon="5.73173">
        <ele>257.2</ele>
        <time>2020-03-04T10:57:22Z</time>
      </trkpt>
      <trkpt lat="46.91827" lon="5.73183">
        <ele>257.2</ele>
        <time>2020-03-04T10:57:23Z</time>
      </trkpt>
      <trkpt lat="46.91825" lon="5.73192">
        <ele>257.2</ele>
        <time>2020-03-04T10:57:24Z</time>
      </trkpt>
      <trkpt lat="46.91824" lon="5.73202">
        <ele>257.2</ele>
        <time>2020-03-04T10:57:25Z</time>
      </trkpt>
      <trkpt lat="46.91823" lon="5.73211">
        <ele>257.2</ele>
        <time>2020-03-04T10:57:26Z</time>
      </trkpt>
      <trkpt lat="46.91822" lon="5.7322">
        <ele>257.2</ele>
        <time>2020-03-04T10:57:27Z</time>
      </trkpt>
      <trkpt lat="46.9182" lon="5.73229">
        <ele>257.4</ele>
        <time>2020-03-04T10:57:28Z</time>
      </trkpt>
      <trkpt lat="46.91819" lon="5.73238">
        <ele>257.4</ele>
        <time>2020-03-04T10:57:29Z</time>
      </trkpt>
      <trkpt lat="46.91818" lon="5.73247">
        <ele>257.4</ele>
        <time>2020-03-04T10:57:30Z</time>
      </trkpt>
      <trkpt lat="46.91817" lon="5.73256">
        <ele>257.4</ele>
        <time>2020-03-04T10:57:31Z</time>
      </trkpt>
      <trkpt lat="46.91816" lon="5.73265">
        <ele>257.4</ele>
        <time>2020-03-04T10:57:32Z</time>
      </trkpt>
      <trkpt lat="46.91814" lon="5.73273">
        <ele>257.4</ele>
        <time>2020-03-04T10:57:33Z</time>
      </trkpt>
      <trkpt lat="46.91813" lon="5.73282">
        <ele>257.6</ele>
        <time>2020-03-04T10:57:34Z</time>
      </trkpt>
      <trkpt lat="46.91812" lon="5.73291">
        <ele>257.6</ele>
        <time>2020-03-04T10:57:35Z</time>
      </trkpt>
      <trkpt lat="46.91811" lon="5.73299">
        <ele>257.6</ele>
        <time>2020-03-04T10:57:36Z</time>
      </trkpt>
      <trkpt lat="46.9181" lon="5.73308">
        <ele>257.6</ele>
        <time>2020-03-04T10:57:37Z</time>
      </trkpt>
      <trkpt lat="46.91809" lon="5.73317">
        <ele>257.8</ele>
        <time>2020-03-04T10:57:38Z</time>
      </trkpt>
      <trkpt lat="46.91807" lon="5.73326">
        <ele>257.8</ele>
        <time>2020-03-04T10:57:39Z</time>
      </trkpt>
      <trkpt lat="46.91806" lon="5.73334">
        <ele>257.8</ele>
        <time>2020-03-04T10:57:40Z</time>
      </trkpt>
      <trkpt lat="46.91805" lon="5.73343">
        <ele>257.8</ele>
        <time>2020-03-04T10:57:41Z</time>
      </trkpt>
      <trkpt lat="46.91804" lon="5.73352">
        <ele>257.8</ele>
        <time>2020-03-04T10:57:42Z</time>
      </trkpt>
      <trkpt lat="46.91802" lon="5.73361">
        <ele>257.8</ele>
        <time>2020-03-04T10:57:43Z</time>
      </trkpt>
      <trkpt lat="46.91801" lon="5.7337">
        <ele>257.8</ele>
        <time>2020-03-04T10:57:44Z</time>
      </trkpt>
      <trkpt lat="46.918" lon="5.73378">
        <ele>257.8</ele>
        <time>2020-03-04T10:57:45Z</time>
      </trkpt>
      <trkpt lat="46.91799" lon="5.73387">
        <ele>257.8</ele>
        <time>2020-03-04T10:57:46Z</time>
      </trkpt>
      <trkpt lat="46.91797" lon="5.73396">
        <ele>257.8</ele>
        <time>2020-03-04T10:57:47Z</time>
      </trkpt>
      <trkpt lat="46.91796" lon="5.73405">
        <ele>257.8</ele>
        <time>2020-03-04T10:57:48Z</time>
      </trkpt>
      <trkpt lat="46.91795" lon="5.73414">
        <ele>257.8</ele>
        <time>2020-03-04T10:57:49Z</time>
      </trkpt>
      <trkpt lat="46.91794" lon="5.73423">
        <ele>257.8</ele>
        <time>2020-03-04T10:57:50Z</time>
      </trkpt>
      <trkpt lat="46.91792" lon="5.73432">
        <ele>258</ele>
        <time>2020-03-04T10:57:51Z</time>
      </trkpt>
      <trkpt lat="46.91791" lon="5.7344">
        <ele>258</ele>
        <time>2020-03-04T10:57:52Z</time>
      </trkpt>
      <trkpt lat="46.9179" lon="5.73449">
        <ele>258</ele>
        <time>2020-03-04T10:57:53Z</time>
      </trkpt>
      <trkpt lat="46.91789" lon="5.73458">
        <ele>258</ele>
        <time>2020-03-04T10:57:54Z</time>
      </trkpt>
      <trkpt lat="46.91788" lon="5.73467">
        <ele>258</ele>
        <time>2020-03-04T10:57:55Z</time>
      </trkpt>
      <trkpt lat="46.91786" lon="5.73475">
        <ele>258.2</ele>
        <time>2020-03-04T10:57:56Z</time>
      </trkpt>
      <trkpt lat="46.91785" lon="5.73484">
        <ele>258.2</ele>
        <time>2020-03-04T10:57:57Z</time>
      </trkpt>
      <trkpt lat="46.91784" lon="5.73492">
        <ele>258.2</ele>
        <time>2020-03-04T10:57:58Z</time>
      </trkpt>
      <trkpt lat="46.91783" lon="5.73501">
        <ele>258.2</ele>
        <time>2020-03-04T10:57:59Z</time>
      </trkpt>
      <trkpt lat="46.91781" lon="5.7351">
        <ele>258.2</ele>
        <time>2020-03-04T10:58:00Z</time>
      </trkpt>
      <trkpt lat="46.9178" lon="5.73518">
        <ele>258.6</ele>
        <time>2020-03-04T10:58:01Z</time>
      </trkpt>
      <trkpt lat="46.91779" lon="5.73527">
        <ele>258.6</ele>
        <time>2020-03-04T10:58:02Z</time>
      </trkpt>
      <trkpt lat="46.91778" lon="5.73536">
        <ele>258.6</ele>
        <time>2020-03-04T10:58:03Z</time>
      </trkpt>
      <trkpt lat="46.91776" lon="5.73544">
        <ele>258.6</ele>
        <time>2020-03-04T10:58:04Z</time>
      </trkpt>
      <trkpt lat="46.91775" lon="5.73553">
        <ele>258.6</ele>
        <time>2020-03-04T10:58:05Z</time>
      </trkpt>
      <trkpt lat="46.91774" lon="5.73561">
        <ele>258.6</ele>
        <time>2020-03-04T10:58:06Z</time>
      </trkpt>
      <trkpt lat="46.91773" lon="5.73569">
        <ele>258.8</ele>
        <time>2020-03-04T10:58:07Z</time>
      </trkpt>
      <trkpt lat="46.91772" lon="5.73578">
        <ele>258.8</ele>
        <time>2020-03-04T10:58:08Z</time>
      </trkpt>
      <trkpt lat="46.91771" lon="5.73586">
        <ele>258.8</ele>
        <time>2020-03-04T10:58:09Z</time>
      </trkpt>
      <trkpt lat="46.91769" lon="5.73595">
        <ele>258.8</ele>
        <time>2020-03-04T10:58:10Z</time>
      </trkpt>
      <trkpt lat="46.91768" lon="5.73603">
        <ele>258.8</ele>
        <time>2020-03-04T10:58:11Z</time>
      </trkpt>
      <trkpt lat="46.91767" lon="5.73611">
        <ele>258.8</ele>
        <time>2020-03-04T10:58:12Z</time>
      </trkpt>
      <trkpt lat="46.91766" lon="5.7362">
        <ele>258.8</ele>
        <time>2020-03-04T10:58:13Z</time>
      </trkpt>
      <trkpt lat="46.91765" lon="5.73629">
        <ele>259</ele>
        <time>2020-03-04T10:58:14Z</time>
      </trkpt>
      <trkpt lat="46.91764" lon="5.73637">
        <ele>259</ele>
        <time>2020-03-04T10:58:15Z</time>
      </trkpt>
      <trkpt lat="46.91762" lon="5.73646">
        <ele>259</ele>
        <time>2020-03-04T10:58:16Z</time>
      </trkpt>
      <trkpt lat="46.91761" lon="5.73654">
        <ele>259</ele>
        <time>2020-03-04T10:58:17Z</time>
      </trkpt>
      <trkpt lat="46.9176" lon="5.73663">
        <ele>259</ele>
        <time>2020-03-04T10:58:18Z</time>
      </trkpt>
      <trkpt lat="46.91759" lon="5.73672">
        <ele>259</ele>
        <time>2020-03-04T10:58:19Z</time>
      </trkpt>
      <trkpt lat="46.91758" lon="5.73681">
        <ele>259</ele>
        <time>2020-03-04T10:58:20Z</time>
      </trkpt>
      <trkpt lat="46.91757" lon="5.73689">
        <ele>259</ele>
        <time>2020-03-04T10:58:21Z</time>
      </trkpt>
      <trkpt lat="46.91756" lon="5.73698">
        <ele>259</ele>
        <time>2020-03-04T10:58:22Z</time>
      </trkpt>
      <trkpt lat="46.91755" lon="5.73706">
        <ele>259</ele>
        <time>2020-03-04T10:58:23Z</time>
      </trkpt>
      <trkpt lat="46.91754" lon="5.73715">
        <ele>259.2</ele>
        <time>2020-03-04T10:58:24Z</time>
      </trkpt>
      <trkpt lat="46.91752" lon="5.73723">
        <ele>259.2</ele>
        <time>2020-03-04T10:58:25Z</time>
      </trkpt>
      <trkpt lat="46.91751" lon="5.73731">
        <ele>259.2</ele>
        <time>2020-03-04T10:58:26Z</time>
      </trkpt>
      <trkpt lat="46.9175" lon="5.73739">
        <ele>259.2</ele>
        <time>2020-03-04T10:58:27Z</time>
      </trkpt>
      <trkpt lat="46.91749" lon="5.73747">
        <ele>259.2</ele>
        <time>2020-03-04T10:58:28Z</time>
      </trkpt>
      <trkpt lat="46.91748" lon="5.73755">
        <ele>259.2</ele>
        <time>2020-03-04T10:58:29Z</time>
      </trkpt>
      <trkpt lat="46.91747" lon="5.73763">
        <ele>259.2</ele>
        <time>2020-03-04T10:58:30Z</time>
      </trkpt>
      <trkpt lat="46.91745" lon="5.73771">
        <ele>259.2</ele>
        <time>2020-03-04T10:58:31Z</time>
      </trkpt>
      <trkpt lat="46.91744" lon="5.7378">
        <ele>259.6</ele>
        <time>2020-03-04T10:58:32Z</time>
      </trkpt>
      <trkpt lat="46.91743" lon="5.73788">
        <ele>259.6</ele>
        <time>2020-03-04T10:58:33Z</time>
      </trkpt>
      <trkpt lat="46.91742" lon="5.73797">
        <ele>259.6</ele>
        <time>2020-03-04T10:58:34Z</time>
      </trkpt>
      <trkpt lat="46.91741" lon="5.73805">
        <ele>259.6</ele>
        <time>2020-03-04T10:58:35Z</time>
      </trkpt>
      <trkpt lat="46.9174" lon="5.73814">
        <ele>259.6</ele>
        <time>2020-03-04T10:58:36Z</time>
      </trkpt>
      <trkpt lat="46.91738" lon="5.73822">
        <ele>259.6</ele>
        <time>2020-03-04T10:58:37Z</time>
      </trkpt>
      <trkpt lat="46.91737" lon="5.73831">
        <ele>259.6</ele>
        <time>2020-03-04T10:58:38Z</time>
      </trkpt>
      <trkpt lat="46.91736" lon="5.7384">
        <ele>259.6</ele>
        <time>2020-03-04T10:58:39Z</time>
      </trkpt>
      <trkpt lat="46.91735" lon="5.73849">
        <ele>259.8</ele>
        <time>2020-03-04T10:58:40Z</time>
      </trkpt>
      <trkpt lat="46.91734" lon="5.73857">
        <ele>259.8</ele>
        <time>2020-03-04T10:58:41Z</time>
      </trkpt>
      <trkpt lat="46.91732" lon="5.73866">
        <ele>259.8</ele>
        <time>2020-03-04T10:58:42Z</time>
      </trkpt>
      <trkpt lat="46.91731" lon="5.73875">
        <ele>259.8</ele>
        <time>2020-03-04T10:58:43Z</time>
      </trkpt>
      <trkpt lat="46.9173" lon="5.73883">
        <ele>259.8</ele>
        <time>2020-03-04T10:58:44Z</time>
      </trkpt>
      <trkpt lat="46.91729" lon="5.73892">
        <ele>259.8</ele>
        <time>2020-03-04T10:58:45Z</time>
      </trkpt>
      <trkpt lat="46.91728" lon="5.73901">
        <ele>259.8</ele>
        <time>2020-03-04T10:58:46Z</time>
      </trkpt>
      <trkpt lat="46.91727" lon="5.73909">
        <ele>259.8</ele>
        <time>2020-03-04T10:58:47Z</time>
      </trkpt>
      <trkpt lat="46.91725" lon="5.73918">
        <ele>259.8</ele>
        <time>2020-03-04T10:58:48Z</time>
      </trkpt>
      <trkpt lat="46.91724" lon="5.73926">
        <ele>259.8</ele>
        <time>2020-03-04T10:58:49Z</time>
      </trkpt>
      <trkpt lat="46.91723" lon="5.73934">
        <ele>260</ele>
        <time>2020-03-04T10:58:50Z</time>
      </trkpt>
      <trkpt lat="46.91721" lon="5.73943">
        <ele>260</ele>
        <time>2020-03-04T10:58:51Z</time>
      </trkpt>
      <trkpt lat="46.9172" lon="5.73951">
        <ele>260</ele>
        <time>2020-03-04T10:58:52Z</time>
      </trkpt>
      <trkpt lat="46.91719" lon="5.73959">
        <ele>260.2</ele>
        <time>2020-03-04T10:58:53Z</time>
      </trkpt>
      <trkpt lat="46.91718" lon="5.73968">
        <ele>260.2</ele>
        <time>2020-03-04T10:58:54Z</time>
      </trkpt>
      <trkpt lat="46.91717" lon="5.73976">
        <ele>260.2</ele>
        <time>2020-03-04T10:58:55Z</time>
      </trkpt>
      <trkpt lat="46.91716" lon="5.73984">
        <ele>260.2</ele>
        <time>2020-03-04T10:58:56Z</time>
      </trkpt>
      <trkpt lat="46.91715" lon="5.73993">
        <ele>260.6</ele>
        <time>2020-03-04T10:58:57Z</time>
      </trkpt>
      <trkpt lat="46.91714" lon="5.74001">
        <ele>260.6</ele>
        <time>2020-03-04T10:58:58Z</time>
      </trkpt>
      <trkpt lat="46.91712" lon="5.74009">
        <ele>260.6</ele>
        <time>2020-03-04T10:58:59Z</time>
      </trkpt>
      <trkpt lat="46.91711" lon="5.74018">
        <ele>260.6</ele>
        <time>2020-03-04T10:59:00Z</time>
      </trkpt>
      <trkpt lat="46.9171" lon="5.74026">
        <ele>260.6</ele>
        <time>2020-03-04T10:59:01Z</time>
      </trkpt>
      <trkpt lat="46.91708" lon="5.74035">
        <ele>260.6</ele>
        <time>2020-03-04T10:59:02Z</time>
      </trkpt>
      <trkpt lat="46.91707" lon="5.74044">
        <ele>260.6</ele>
        <time>2020-03-04T10:59:03Z</time>
      </trkpt>
      <trkpt lat="46.91706" lon="5.74052">
        <ele>260.6</ele>
        <time>2020-03-04T10:59:04Z</time>
      </trkpt>
      <trkpt lat="46.91705" lon="5.74061">
        <ele>260.6</ele>
        <time>2020-03-04T10:59:05Z</time>
      </trkpt>
      <trkpt lat="46.91704" lon="5.74069">
        <ele>260.6</ele>
        <time>2020-03-04T10:59:06Z</time>
      </trkpt>
      <trkpt lat="46.91703" lon="5.74077">
        <ele>260.6</ele>
        <time>2020-03-04T10:59:07Z</time>
      </trkpt>
      <trkpt lat="46.91702" lon="5.74085">
        <ele>260.8</ele>
        <time>2020-03-04T10:59:08Z</time>
      </trkpt>
      <trkpt lat="46.91701" lon="5.74093">
        <ele>260.8</ele>
        <time>2020-03-04T10:59:09Z</time>
      </trkpt>
      <trkpt lat="46.91699" lon="5.74101">
        <ele>260.8</ele>
        <time>2020-03-04T10:59:10Z</time>
      </trkpt>
      <trkpt lat="46.91698" lon="5.74109">
        <ele>260.8</ele>
        <time>2020-03-04T10:59:11Z</time>
      </trkpt>
      <trkpt lat="46.91697" lon="5.74116">
        <ele>260.8</ele>
        <time>2020-03-04T10:59:12Z</time>
      </trkpt>
      <trkpt lat="46.91696" lon="5.74125">
        <ele>260.8</ele>
        <time>2020-03-04T10:59:13Z</time>
      </trkpt>
      <trkpt lat="46.91695" lon="5.74133">
        <ele>260.8</ele>
        <time>2020-03-04T10:59:14Z</time>
      </trkpt>
      <trkpt lat="46.91693" lon="5.74142">
        <ele>260.8</ele>
        <time>2020-03-04T10:59:15Z</time>
      </trkpt>
      <trkpt lat="46.91692" lon="5.7415">
        <ele>261</ele>
        <time>2020-03-04T10:59:16Z</time>
      </trkpt>
      <trkpt lat="46.91691" lon="5.74159">
        <ele>261</ele>
        <time>2020-03-04T10:59:17Z</time>
      </trkpt>
      <trkpt lat="46.9169" lon="5.74167">
        <ele>261</ele>
        <time>2020-03-04T10:59:18Z</time>
      </trkpt>
      <trkpt lat="46.91689" lon="5.74176">
        <ele>261</ele>
        <time>2020-03-04T10:59:19Z</time>
      </trkpt>
      <trkpt lat="46.91688" lon="5.74184">
        <ele>261</ele>
        <time>2020-03-04T10:59:20Z</time>
      </trkpt>
      <trkpt lat="46.91686" lon="5.74192">
        <ele>261</ele>
        <time>2020-03-04T10:59:21Z</time>
      </trkpt>
      <trkpt lat="46.91685" lon="5.742">
        <ele>261</ele>
        <time>2020-03-04T10:59:22Z</time>
      </trkpt>
      <trkpt lat="46.91684" lon="5.74208">
        <ele>261.2</ele>
        <time>2020-03-04T10:59:23Z</time>
      </trkpt>
      <trkpt lat="46.91683" lon="5.74216">
        <ele>261.2</ele>
        <time>2020-03-04T10:59:24Z</time>
      </trkpt>
      <trkpt lat="46.91682" lon="5.74224">
        <ele>261.4</ele>
        <time>2020-03-04T10:59:25Z</time>
      </trkpt>
      <trkpt lat="46.9168" lon="5.74231">
        <ele>261.4</ele>
        <time>2020-03-04T10:59:26Z</time>
      </trkpt>
      <trkpt lat="46.91679" lon="5.74238">
        <ele>261.4</ele>
        <time>2020-03-04T10:59:27Z</time>
      </trkpt>
      <trkpt lat="46.91677" lon="5.74245">
        <ele>261.6</ele>
        <time>2020-03-04T10:59:28Z</time>
      </trkpt>
      <trkpt lat="46.91675" lon="5.74251">
        <ele>261.6</ele>
        <time>2020-03-04T10:59:29Z</time>
      </trkpt>
      <trkpt lat="46.91672" lon="5.74257">
        <ele>261.6</ele>
        <time>2020-03-04T10:59:30Z</time>
      </trkpt>
      <trkpt lat="46.91669" lon="5.74263">
        <ele>261.6</ele>
        <time>2020-03-04T10:59:31Z</time>
      </trkpt>
      <trkpt lat="46.91666" lon="5.74268">
        <ele>262</ele>
        <time>2020-03-04T10:59:32Z</time>
      </trkpt>
      <trkpt lat="46.91663" lon="5.74273">
        <ele>262</ele>
        <time>2020-03-04T10:59:33Z</time>
      </trkpt>
      <trkpt lat="46.91659" lon="5.74278">
        <ele>262.2</ele>
        <time>2020-03-04T10:59:34Z</time>
      </trkpt>
      <trkpt lat="46.91656" lon="5.74282">
        <ele>262.2</ele>
        <time>2020-03-04T10:59:35Z</time>
      </trkpt>
      <trkpt lat="46.91653" lon="5.74286">
        <ele>262.2</ele>
        <time>2020-03-04T10:59:36Z</time>
      </trkpt>
      <trkpt lat="46.9165" lon="5.74291">
        <ele>262.4</ele>
        <time>2020-03-04T10:59:37Z</time>
      </trkpt>
      <trkpt lat="46.91647" lon="5.74295">
        <ele>262.4</ele>
        <time>2020-03-04T10:59:38Z</time>
      </trkpt>
      <trkpt lat="46.91645" lon="5.74301">
        <ele>262.4</ele>
        <time>2020-03-04T10:59:39Z</time>
      </trkpt>
      <trkpt lat="46.91642" lon="5.74307">
        <ele>262.6</ele>
        <time>2020-03-04T10:59:40Z</time>
      </trkpt>
      <trkpt lat="46.9164" lon="5.74313">
        <ele>262.6</ele>
        <time>2020-03-04T10:59:41Z</time>
      </trkpt>
      <trkpt lat="46.91639" lon="5.7432">
        <ele>262.6</ele>
        <time>2020-03-04T10:59:42Z</time>
      </trkpt>
      <trkpt lat="46.91638" lon="5.74327">
        <ele>262.6</ele>
        <time>2020-03-04T10:59:43Z</time>
      </trkpt>
      <trkpt lat="46.91637" lon="5.74335">
        <ele>262.6</ele>
        <time>2020-03-04T10:59:44Z</time>
      </trkpt>
      <trkpt lat="46.91637" lon="5.74342">
        <ele>262.6</ele>
        <time>2020-03-04T10:59:45Z</time>
      </trkpt>
      <trkpt lat="46.91637" lon="5.74351">
        <ele>262.6</ele>
        <time>2020-03-04T10:59:46Z</time>
      </trkpt>
      <trkpt lat="46.91638" lon="5.74359">
        <ele>262.6</ele>
        <time>2020-03-04T10:59:47Z</time>
      </trkpt>
      <trkpt lat="46.91638" lon="5.74367">
        <ele>262.6</ele>
        <time>2020-03-04T10:59:48Z</time>
      </trkpt>
      <trkpt lat="46.91639" lon="5.74376">
        <ele>262.6</ele>
        <time>2020-03-04T10:59:49Z</time>
      </trkpt>
      <trkpt lat="46.91641" lon="5.74384">
        <ele>262.6</ele>
        <time>2020-03-04T10:59:50Z</time>
      </trkpt>
      <trkpt lat="46.91642" lon="5.74393">
        <ele>262.6</ele>
        <time>2020-03-04T10:59:51Z</time>
      </trkpt>
      <trkpt lat="46.91643" lon="5.74401">
        <ele>262.6</ele>
        <time>2020-03-04T10:59:52Z</time>
      </trkpt>
      <trkpt lat="46.91644" lon="5.7441">
        <ele>262.6</ele>
        <time>2020-03-04T10:59:53Z</time>
      </trkpt>
      <trkpt lat="46.91645" lon="5.74419">
        <ele>262.6</ele>
        <time>2020-03-04T10:59:54Z</time>
      </trkpt>
      <trkpt lat="46.91646" lon="5.74428">
        <ele>262.6</ele>
        <time>2020-03-04T10:59:55Z</time>
      </trkpt>
      <trkpt lat="46.91646" lon="5.74437">
        <ele>262.6</ele>
        <time>2020-03-04T10:59:56Z</time>
      </trkpt>
      <trkpt lat="46.91647" lon="5.74446">
        <ele>262.6</ele>
        <time>2020-03-04T10:59:57Z</time>
      </trkpt>
      <trkpt lat="46.91647" lon="5.74455">
        <ele>262.6</ele>
        <time>2020-03-04T10:59:58Z</time>
      </trkpt>
      <trkpt lat="46.91646" lon="5.74465">
        <ele>262.6</ele>
        <time>2020-03-04T10:59:59Z</time>
      </trkpt>
      <trkpt lat="46.91646" lon="5.74474">
        <ele>262.6</ele>
        <time>2020-03-04T11:00:00Z</time>
      </trkpt>
      <trkpt lat="46.91645" lon="5.74483">
        <ele>262.6</ele>
        <time>2020-03-04T11:00:01Z</time>
      </trkpt>
      <trkpt lat="46.91643" lon="5.74492">
        <ele>262.6</ele>
        <time>2020-03-04T11:00:02Z</time>
      </trkpt>
      <trkpt lat="46.91642" lon="5.74501">
        <ele>262.6</ele>
        <time>2020-03-04T11:00:03Z</time>
      </trkpt>
      <trkpt lat="46.91641" lon="5.7451">
        <ele>262.6</ele>
        <time>2020-03-04T11:00:04Z</time>
      </trkpt>
      <trkpt lat="46.9164" lon="5.7452">
        <ele>262.6</ele>
        <time>2020-03-04T11:00:05Z</time>
      </trkpt>
      <trkpt lat="46.91638" lon="5.74529">
        <ele>262.6</ele>
        <time>2020-03-04T11:00:06Z</time>
      </trkpt>
      <trkpt lat="46.91637" lon="5.74538">
        <ele>262.6</ele>
        <time>2020-03-04T11:00:07Z</time>
      </trkpt>
      <trkpt lat="46.91636" lon="5.74548">
        <ele>262.6</ele>
        <time>2020-03-04T11:00:08Z</time>
      </trkpt>
      <trkpt lat="46.91634" lon="5.74557">
        <ele>262.6</ele>
        <time>2020-03-04T11:00:09Z</time>
      </trkpt>
      <trkpt lat="46.91633" lon="5.74567">
        <ele>262.6</ele>
        <time>2020-03-04T11:00:10Z</time>
      </trkpt>
      <trkpt lat="46.91632" lon="5.74576">
        <ele>262.6</ele>
        <time>2020-03-04T11:00:11Z</time>
      </trkpt>
      <trkpt lat="46.91631" lon="5.74585">
        <ele>262.6</ele>
        <time>2020-03-04T11:00:12Z</time>
      </trkpt>
      <trkpt lat="46.91629" lon="5.74595">
        <ele>262.6</ele>
        <time>2020-03-04T11:00:13Z</time>
      </trkpt>
      <trkpt lat="46.91628" lon="5.74605">
        <ele>262.6</ele>
        <time>2020-03-04T11:00:14Z</time>
      </trkpt>
      <trkpt lat="46.91627" lon="5.74615">
        <ele>262.6</ele>
        <time>2020-03-04T11:00:15Z</time>
      </trkpt>
      <trkpt lat="46.91625" lon="5.74625">
        <ele>262.6</ele>
        <time>2020-03-04T11:00:16Z</time>
      </trkpt>
      <trkpt lat="46.91624" lon="5.74634">
        <ele>262.6</ele>
        <time>2020-03-04T11:00:17Z</time>
      </trkpt>
      <trkpt lat="46.91623" lon="5.74644">
        <ele>262.6</ele>
        <time>2020-03-04T11:00:18Z</time>
      </trkpt>
      <trkpt lat="46.91621" lon="5.74654">
        <ele>262.6</ele>
        <time>2020-03-04T11:00:19Z</time>
      </trkpt>
      <trkpt lat="46.9162" lon="5.74664">
        <ele>263</ele>
        <time>2020-03-04T11:00:20Z</time>
      </trkpt>
      <trkpt lat="46.91618" lon="5.74674">
        <ele>263</ele>
        <time>2020-03-04T11:00:21Z</time>
      </trkpt>
      <trkpt lat="46.91617" lon="5.74683">
        <ele>263</ele>
        <time>2020-03-04T11:00:22Z</time>
      </trkpt>
      <trkpt lat="46.91615" lon="5.74693">
        <ele>263</ele>
        <time>2020-03-04T11:00:23Z</time>
      </trkpt>
      <trkpt lat="46.91614" lon="5.74703">
        <ele>263.2</ele>
        <time>2020-03-04T11:00:24Z</time>
      </trkpt>
      <trkpt lat="46.91613" lon="5.74713">
        <ele>263.2</ele>
        <time>2020-03-04T11:00:25Z</time>
      </trkpt>
      <trkpt lat="46.91612" lon="5.74722">
        <ele>263.2</ele>
        <time>2020-03-04T11:00:26Z</time>
      </trkpt>
      <trkpt lat="46.9161" lon="5.74732">
        <ele>263.2</ele>
        <time>2020-03-04T11:00:27Z</time>
      </trkpt>
      <trkpt lat="46.91609" lon="5.74742">
        <ele>263.2</ele>
        <time>2020-03-04T11:00:28Z</time>
      </trkpt>
      <trkpt lat="46.91608" lon="5.74752">
        <ele>263.2</ele>
        <time>2020-03-04T11:00:29Z</time>
      </trkpt>
      <trkpt lat="46.91606" lon="5.74762">
        <ele>263.4</ele>
        <time>2020-03-04T11:00:30Z</time>
      </trkpt>
      <trkpt lat="46.91605" lon="5.74771">
        <ele>263.4</ele>
        <time>2020-03-04T11:00:31Z</time>
      </trkpt>
      <trkpt lat="46.91603" lon="5.74781">
        <ele>263.4</ele>
        <time>2020-03-04T11:00:32Z</time>
      </trkpt>
      <trkpt lat="46.91602" lon="5.7479">
        <ele>263.6</ele>
        <time>2020-03-04T11:00:33Z</time>
      </trkpt>
      <trkpt lat="46.91601" lon="5.74799">
        <ele>263.6</ele>
        <time>2020-03-04T11:00:34Z</time>
      </trkpt>
      <trkpt lat="46.91599" lon="5.74808">
        <ele>263.8</ele>
        <time>2020-03-04T11:00:35Z</time>
      </trkpt>
      <trkpt lat="46.91598" lon="5.74817">
        <ele>263.8</ele>
        <time>2020-03-04T11:00:36Z</time>
      </trkpt>
      <trkpt lat="46.91597" lon="5.74826">
        <ele>263.8</ele>
        <time>2020-03-04T11:00:37Z</time>
      </trkpt>
      <trkpt lat="46.91596" lon="5.74835">
        <ele>263.8</ele>
        <time>2020-03-04T11:00:38Z</time>
      </trkpt>
      <trkpt lat="46.91595" lon="5.74844">
        <ele>264</ele>
        <time>2020-03-04T11:00:39Z</time>
      </trkpt>
      <trkpt lat="46.91593" lon="5.74853">
        <ele>264</ele>
        <time>2020-03-04T11:00:40Z</time>
      </trkpt>
      <trkpt lat="46.91592" lon="5.74862">
        <ele>264</ele>
        <time>2020-03-04T11:00:41Z</time>
      </trkpt>
      <trkpt lat="46.91591" lon="5.74871">
        <ele>264</ele>
        <time>2020-03-04T11:00:42Z</time>
      </trkpt>
      <trkpt lat="46.9159" lon="5.7488">
        <ele>264.2</ele>
        <time>2020-03-04T11:00:43Z</time>
      </trkpt>
      <trkpt lat="46.91589" lon="5.74888">
        <ele>264.2</ele>
        <time>2020-03-04T11:00:44Z</time>
      </trkpt>
      <trkpt lat="46.91588" lon="5.74897">
        <ele>264.2</ele>
        <time>2020-03-04T11:00:45Z</time>
      </trkpt>
      <trkpt lat="46.91587" lon="5.74906">
        <ele>264.6</ele>
        <time>2020-03-04T11:00:46Z</time>
      </trkpt>
      <trkpt lat="46.91586" lon="5.74914">
        <ele>264.6</ele>
        <time>2020-03-04T11:00:47Z</time>
      </trkpt>
      <trkpt lat="46.91585" lon="5.74923">
        <ele>265</ele>
        <time>2020-03-04T11:00:48Z</time>
      </trkpt>
      <trkpt lat="46.91584" lon="5.74931">
        <ele>265</ele>
        <time>2020-03-04T11:00:49Z</time>
      </trkpt>
      <trkpt lat="46.91583" lon="5.7494">
        <ele>265</ele>
        <time>2020-03-04T11:00:50Z</time>
      </trkpt>
      <trkpt lat="46.91583" lon="5.74948">
        <ele>265.2</ele>
        <time>2020-03-04T11:00:51Z</time>
      </trkpt>
      <trkpt lat="46.91582" lon="5.74956">
        <ele>265.2</ele>
        <time>2020-03-04T11:00:52Z</time>
      </trkpt>
      <trkpt lat="46.91582" lon="5.74964">
        <ele>265.4</ele>
        <time>2020-03-04T11:00:53Z</time>
      </trkpt>
      <trkpt lat="46.91581" lon="5.74972">
        <ele>265.6</ele>
        <time>2020-03-04T11:00:54Z</time>
      </trkpt>
      <trkpt lat="46.9158" lon="5.7498">
        <ele>265.6</ele>
        <time>2020-03-04T11:00:55Z</time>
      </trkpt>
      <trkpt lat="46.91579" lon="5.74988">
        <ele>265.8</ele>
        <time>2020-03-04T11:00:56Z</time>
      </trkpt>
      <trkpt lat="46.91579" lon="5.74996">
        <ele>265.8</ele>
        <time>2020-03-04T11:00:57Z</time>
      </trkpt>
      <trkpt lat="46.91578" lon="5.75004">
        <ele>266.2</ele>
        <time>2020-03-04T11:00:58Z</time>
      </trkpt>
      <trkpt lat="46.91578" lon="5.75012">
        <ele>266.2</ele>
        <time>2020-03-04T11:00:59Z</time>
      </trkpt>
      <trkpt lat="46.91578" lon="5.7502">
        <ele>266.4</ele>
        <time>2020-03-04T11:01:00Z</time>
      </trkpt>
      <trkpt lat="46.91578" lon="5.75028">
        <ele>266.4</ele>
        <time>2020-03-04T11:01:01Z</time>
      </trkpt>
      <trkpt lat="46.91577" lon="5.75036">
        <ele>266.6</ele>
        <time>2020-03-04T11:01:02Z</time>
      </trkpt>
      <trkpt lat="46.91577" lon="5.75044">
        <ele>266.6</ele>
        <time>2020-03-04T11:01:03Z</time>
      </trkpt>
      <trkpt lat="46.91576" lon="5.75052">
        <ele>266.6</ele>
        <time>2020-03-04T11:01:04Z</time>
      </trkpt>
      <trkpt lat="46.91576" lon="5.7506">
        <ele>266.6</ele>
        <time>2020-03-04T11:01:05Z</time>
      </trkpt>
      <trkpt lat="46.91575" lon="5.75068">
        <ele>266.6</ele>
        <time>2020-03-04T11:01:06Z</time>
      </trkpt>
      <trkpt lat="46.91575" lon="5.75076">
        <ele>267</ele>
        <time>2020-03-04T11:01:07Z</time>
      </trkpt>
      <trkpt lat="46.91576" lon="5.75084">
        <ele>267</ele>
        <time>2020-03-04T11:01:08Z</time>
      </trkpt>
      <trkpt lat="46.91575" lon="5.75092">
        <ele>267</ele>
        <time>2020-03-04T11:01:09Z</time>
      </trkpt>
      <trkpt lat="46.91575" lon="5.751">
        <ele>267.2</ele>
        <time>2020-03-04T11:01:10Z</time>
      </trkpt>
      <trkpt lat="46.91575" lon="5.75108">
        <ele>267.2</ele>
        <time>2020-03-04T11:01:11Z</time>
      </trkpt>
      <trkpt lat="46.91575" lon="5.75116">
        <ele>267.2</ele>
        <time>2020-03-04T11:01:12Z</time>
      </trkpt>
      <trkpt lat="46.91575" lon="5.75123">
        <ele>267.2</ele>
        <time>2020-03-04T11:01:13Z</time>
      </trkpt>
      <trkpt lat="46.91575" lon="5.75131">
        <ele>267.2</ele>
        <time>2020-03-04T11:01:14Z</time>
      </trkpt>
      <trkpt lat="46.91575" lon="5.75139">
        <ele>267.2</ele>
        <time>2020-03-04T11:01:15Z</time>
      </trkpt>
      <trkpt lat="46.91575" lon="5.75147">
        <ele>267.2</ele>
        <time>2020-03-04T11:01:16Z</time>
      </trkpt>
      <trkpt lat="46.91575" lon="5.75156">
        <ele>267.2</ele>
        <time>2020-03-04T11:01:17Z</time>
      </trkpt>
      <trkpt lat="46.91575" lon="5.75164">
        <ele>267.2</ele>
        <time>2020-03-04T11:01:18Z</time>
      </trkpt>
      <trkpt lat="46.91574" lon="5.75172">
        <ele>267.2</ele>
        <time>2020-03-04T11:01:19Z</time>
      </trkpt>
      <trkpt lat="46.91574" lon="5.7518">
        <ele>267.2</ele>
        <time>2020-03-04T11:01:20Z</time>
      </trkpt>
      <trkpt lat="46.91574" lon="5.75188">
        <ele>267.2</ele>
        <time>2020-03-04T11:01:21Z</time>
      </trkpt>
      <trkpt lat="46.91574" lon="5.75196">
        <ele>267.2</ele>
        <time>2020-03-04T11:01:22Z</time>
      </trkpt>
      <trkpt lat="46.91574" lon="5.75205">
        <ele>267.2</ele>
        <time>2020-03-04T11:01:23Z</time>
      </trkpt>
      <trkpt lat="46.91574" lon="5.75213">
        <ele>267.2</ele>
        <time>2020-03-04T11:01:24Z</time>
      </trkpt>
      <trkpt lat="46.91574" lon="5.75221">
        <ele>267.2</ele>
        <time>2020-03-04T11:01:25Z</time>
      </trkpt>
      <trkpt lat="46.91574" lon="5.75229">
        <ele>267.2</ele>
        <time>2020-03-04T11:01:26Z</time>
      </trkpt>
      <trkpt lat="46.91574" lon="5.75237">
        <ele>267.2</ele>
        <time>2020-03-04T11:01:27Z</time>
      </trkpt>
      <trkpt lat="46.91574" lon="5.75244">
        <ele>267.2</ele>
        <time>2020-03-04T11:01:28Z</time>
      </trkpt>
      <trkpt lat="46.91574" lon="5.75252">
        <ele>267.2</ele>
        <time>2020-03-04T11:01:29Z</time>
      </trkpt>
      <trkpt lat="46.91574" lon="5.75259">
        <ele>267.2</ele>
        <time>2020-03-04T11:01:30Z</time>
      </trkpt>
      <trkpt lat="46.91574" lon="5.75267">
        <ele>267.4</ele>
        <time>2020-03-04T11:01:31Z</time>
      </trkpt>
      <trkpt lat="46.91574" lon="5.75274">
        <ele>267.4</ele>
        <time>2020-03-04T11:01:32Z</time>
      </trkpt>
      <trkpt lat="46.91574" lon="5.75282">
        <ele>267.4</ele>
        <time>2020-03-04T11:01:33Z</time>
      </trkpt>
      <trkpt lat="46.91574" lon="5.7529">
        <ele>267.4</ele>
        <time>2020-03-04T11:01:34Z</time>
      </trkpt>
      <trkpt lat="46.91574" lon="5.75297">
        <ele>267.4</ele>
        <time>2020-03-04T11:01:35Z</time>
      </trkpt>
      <trkpt lat="46.91574" lon="5.75305">
        <ele>267.4</ele>
        <time>2020-03-04T11:01:36Z</time>
      </trkpt>
      <trkpt lat="46.91574" lon="5.75313">
        <ele>267.4</ele>
        <time>2020-03-04T11:01:37Z</time>
      </trkpt>
      <trkpt lat="46.91574" lon="5.7532">
        <ele>267.4</ele>
        <time>2020-03-04T11:01:38Z</time>
      </trkpt>
      <trkpt lat="46.91574" lon="5.75328">
        <ele>267.6</ele>
        <time>2020-03-04T11:01:39Z</time>
      </trkpt>
      <trkpt lat="46.91574" lon="5.75336">
        <ele>267.6</ele>
        <time>2020-03-04T11:01:40Z</time>
      </trkpt>
      <trkpt lat="46.91574" lon="5.75343">
        <ele>267.6</ele>
        <time>2020-03-04T11:01:41Z</time>
      </trkpt>
      <trkpt lat="46.91574" lon="5.75351">
        <ele>267.6</ele>
        <time>2020-03-04T11:01:42Z</time>
      </trkpt>
      <trkpt lat="46.91574" lon="5.75359">
        <ele>268</ele>
        <time>2020-03-04T11:01:43Z</time>
      </trkpt>
      <trkpt lat="46.91574" lon="5.75367">
        <ele>268</ele>
        <time>2020-03-04T11:01:44Z</time>
      </trkpt>
      <trkpt lat="46.91573" lon="5.75376">
        <ele>268</ele>
        <time>2020-03-04T11:01:45Z</time>
      </trkpt>
      <trkpt lat="46.91573" lon="5.75384">
        <ele>268</ele>
        <time>2020-03-04T11:01:46Z</time>
      </trkpt>
      <trkpt lat="46.91574" lon="5.75392">
        <ele>268</ele>
        <time>2020-03-04T11:01:47Z</time>
      </trkpt>
      <trkpt lat="46.91573" lon="5.754">
        <ele>268</ele>
        <time>2020-03-04T11:01:48Z</time>
      </trkpt>
      <trkpt lat="46.91574" lon="5.75408">
        <ele>268</ele>
        <time>2020-03-04T11:01:49Z</time>
      </trkpt>
      <trkpt lat="46.91574" lon="5.75417">
        <ele>268</ele>
        <time>2020-03-04T11:01:50Z</time>
      </trkpt>
      <trkpt lat="46.91574" lon="5.75425">
        <ele>268</ele>
        <time>2020-03-04T11:01:51Z</time>
      </trkpt>
      <trkpt lat="46.91574" lon="5.75433">
        <ele>268.2</ele>
        <time>2020-03-04T11:01:52Z</time>
      </trkpt>
      <trkpt lat="46.91574" lon="5.7544">
        <ele>268.2</ele>
        <time>2020-03-04T11:01:53Z</time>
      </trkpt>
      <trkpt lat="46.91574" lon="5.75448">
        <ele>268.4</ele>
        <time>2020-03-04T11:01:54Z</time>
      </trkpt>
      <trkpt lat="46.91573" lon="5.75456">
        <ele>268.4</ele>
        <time>2020-03-04T11:01:55Z</time>
      </trkpt>
      <trkpt lat="46.91573" lon="5.75464">
        <ele>268.6</ele>
        <time>2020-03-04T11:01:56Z</time>
      </trkpt>
      <trkpt lat="46.91573" lon="5.75472">
        <ele>269</ele>
        <time>2020-03-04T11:01:57Z</time>
      </trkpt>
      <trkpt lat="46.91573" lon="5.7548">
        <ele>269</ele>
        <time>2020-03-04T11:01:58Z</time>
      </trkpt>
      <trkpt lat="46.91574" lon="5.75488">
        <ele>269</ele>
        <time>2020-03-04T11:01:59Z</time>
      </trkpt>
      <trkpt lat="46.91574" lon="5.75496">
        <ele>269</ele>
        <time>2020-03-04T11:02:00Z</time>
      </trkpt>
      <trkpt lat="46.91574" lon="5.75504">
        <ele>269</ele>
        <time>2020-03-04T11:02:01Z</time>
      </trkpt>
      <trkpt lat="46.91573" lon="5.75511">
        <ele>269</ele>
        <time>2020-03-04T11:02:02Z</time>
      </trkpt>
      <trkpt lat="46.91573" lon="5.75519">
        <ele>269</ele>
        <time>2020-03-04T11:02:03Z</time>
      </trkpt>
      <trkpt lat="46.91573" lon="5.75526">
        <ele>269.2</ele>
        <time>2020-03-04T11:02:04Z</time>
      </trkpt>
      <trkpt lat="46.91573" lon="5.75533">
        <ele>269.2</ele>
        <time>2020-03-04T11:02:05Z</time>
      </trkpt>
      <trkpt lat="46.91572" lon="5.7554">
        <ele>269.2</ele>
        <time>2020-03-04T11:02:06Z</time>
      </trkpt>
      <trkpt lat="46.91572" lon="5.75547">
        <ele>269.2</ele>
        <time>2020-03-04T11:02:07Z</time>
      </trkpt>
      <trkpt lat="46.91571" lon="5.75554">
        <ele>269.2</ele>
        <time>2020-03-04T11:02:08Z</time>
      </trkpt>
      <trkpt lat="46.91569" lon="5.75561">
        <ele>269.2</ele>
        <time>2020-03-04T11:02:09Z</time>
      </trkpt>
      <trkpt lat="46.91568" lon="5.75568">
        <ele>269.4</ele>
        <time>2020-03-04T11:02:10Z</time>
      </trkpt>
      <trkpt lat="46.91567" lon="5.75575">
        <ele>269.4</ele>
        <time>2020-03-04T11:02:11Z</time>
      </trkpt>
      <trkpt lat="46.91564" lon="5.75582">
        <ele>269.4</ele>
        <time>2020-03-04T11:02:12Z</time>
      </trkpt>
      <trkpt lat="46.91562" lon="5.75589">
        <ele>269.4</ele>
        <time>2020-03-04T11:02:13Z</time>
      </trkpt>
      <trkpt lat="46.91559" lon="5.75595">
        <ele>269.4</ele>
        <time>2020-03-04T11:02:14Z</time>
      </trkpt>
      <trkpt lat="46.91556" lon="5.75602">
        <ele>269.6</ele>
        <time>2020-03-04T11:02:15Z</time>
      </trkpt>
      <trkpt lat="46.91553" lon="5.75608">
        <ele>269.6</ele>
        <time>2020-03-04T11:02:16Z</time>
      </trkpt>
      <trkpt lat="46.91549" lon="5.75614">
        <ele>269.6</ele>
        <time>2020-03-04T11:02:17Z</time>
      </trkpt>
      <trkpt lat="46.91545" lon="5.7562">
        <ele>269.6</ele>
        <time>2020-03-04T11:02:18Z</time>
      </trkpt>
      <trkpt lat="46.91541" lon="5.75625">
        <ele>269.6</ele>
        <time>2020-03-04T11:02:19Z</time>
      </trkpt>
      <trkpt lat="46.91536" lon="5.7563">
        <ele>269.6</ele>
        <time>2020-03-04T11:02:20Z</time>
      </trkpt>
      <trkpt lat="46.91532" lon="5.75634">
        <ele>269.6</ele>
        <time>2020-03-04T11:02:21Z</time>
      </trkpt>
      <trkpt lat="46.91527" lon="5.75639">
        <ele>269.6</ele>
        <time>2020-03-04T11:02:22Z</time>
      </trkpt>
      <trkpt lat="46.91522" lon="5.75642">
        <ele>269.6</ele>
        <time>2020-03-04T11:02:23Z</time>
      </trkpt>
      <trkpt lat="46.91517" lon="5.75646">
        <ele>269.6</ele>
        <time>2020-03-04T11:02:24Z</time>
      </trkpt>
      <trkpt lat="46.91512" lon="5.7565">
        <ele>269.6</ele>
        <time>2020-03-04T11:02:25Z</time>
      </trkpt>
      <trkpt lat="46.91507" lon="5.75654">
        <ele>269.6</ele>
        <time>2020-03-04T11:02:26Z</time>
      </trkpt>
      <trkpt lat="46.91502" lon="5.75658">
        <ele>269.6</ele>
        <time>2020-03-04T11:02:27Z</time>
      </trkpt>
      <trkpt lat="46.91497" lon="5.75662">
        <ele>269.6</ele>
        <time>2020-03-04T11:02:28Z</time>
      </trkpt>
      <trkpt lat="46.91492" lon="5.75666">
        <ele>269.6</ele>
        <time>2020-03-04T11:02:29Z</time>
      </trkpt>
      <trkpt lat="46.91487" lon="5.7567">
        <ele>269.6</ele>
        <time>2020-03-04T11:02:30Z</time>
      </trkpt>
      <trkpt lat="46.91482" lon="5.75673">
        <ele>269.6</ele>
        <time>2020-03-04T11:02:31Z</time>
      </trkpt>
      <trkpt lat="46.91477" lon="5.75677">
        <ele>269.6</ele>
        <time>2020-03-04T11:02:32Z</time>
      </trkpt>
      <trkpt lat="46.91472" lon="5.75681">
        <ele>269.8</ele>
        <time>2020-03-04T11:02:33Z</time>
      </trkpt>
      <trkpt lat="46.91467" lon="5.75685">
        <ele>269.8</ele>
        <time>2020-03-04T11:02:34Z</time>
      </trkpt>
      <trkpt lat="46.91462" lon="5.75689">
        <ele>269.8</ele>
        <time>2020-03-04T11:02:35Z</time>
      </trkpt>
      <trkpt lat="46.91457" lon="5.75693">
        <ele>269.8</ele>
        <time>2020-03-04T11:02:36Z</time>
      </trkpt>
      <trkpt lat="46.91452" lon="5.75697">
        <ele>269.8</ele>
        <time>2020-03-04T11:02:37Z</time>
      </trkpt>
      <trkpt lat="46.91448" lon="5.75701">
        <ele>269.8</ele>
        <time>2020-03-04T11:02:38Z</time>
      </trkpt>
      <trkpt lat="46.91443" lon="5.75705">
        <ele>269.8</ele>
        <time>2020-03-04T11:02:39Z</time>
      </trkpt>
      <trkpt lat="46.91438" lon="5.7571">
        <ele>269.8</ele>
        <time>2020-03-04T11:02:40Z</time>
      </trkpt>
      <trkpt lat="46.91434" lon="5.75715">
        <ele>269.8</ele>
        <time>2020-03-04T11:02:41Z</time>
      </trkpt>
      <trkpt lat="46.9143" lon="5.7572">
        <ele>269.8</ele>
        <time>2020-03-04T11:02:42Z</time>
      </trkpt>
      <trkpt lat="46.91425" lon="5.75725">
        <ele>269.8</ele>
        <time>2020-03-04T11:02:43Z</time>
      </trkpt>
      <trkpt lat="46.91421" lon="5.7573">
        <ele>269.8</ele>
        <time>2020-03-04T11:02:44Z</time>
      </trkpt>
      <trkpt lat="46.91417" lon="5.75736">
        <ele>269.8</ele>
        <time>2020-03-04T11:02:45Z</time>
      </trkpt>
      <trkpt lat="46.91413" lon="5.75742">
        <ele>269.8</ele>
        <time>2020-03-04T11:02:46Z</time>
      </trkpt>
      <trkpt lat="46.91409" lon="5.75748">
        <ele>269.8</ele>
        <time>2020-03-04T11:02:47Z</time>
      </trkpt>
      <trkpt lat="46.91405" lon="5.75754">
        <ele>269.8</ele>
        <time>2020-03-04T11:02:48Z</time>
      </trkpt>
      <trkpt lat="46.91402" lon="5.75761">
        <ele>269.8</ele>
        <time>2020-03-04T11:02:49Z</time>
      </trkpt>
      <trkpt lat="46.91399" lon="5.75767">
        <ele>269.8</ele>
        <time>2020-03-04T11:02:50Z</time>
      </trkpt>
      <trkpt lat="46.91395" lon="5.75774">
        <ele>270</ele>
        <time>2020-03-04T11:02:51Z</time>
      </trkpt>
      <trkpt lat="46.91392" lon="5.75781">
        <ele>270</ele>
        <time>2020-03-04T11:02:52Z</time>
      </trkpt>
      <trkpt lat="46.91389" lon="5.75789">
        <ele>270</ele>
        <time>2020-03-04T11:02:53Z</time>
      </trkpt>
      <trkpt lat="46.91386" lon="5.75796">
        <ele>270.4</ele>
        <time>2020-03-04T11:02:54Z</time>
      </trkpt>
      <trkpt lat="46.91383" lon="5.75803">
        <ele>270.4</ele>
        <time>2020-03-04T11:02:55Z</time>
      </trkpt>
      <trkpt lat="46.91381" lon="5.7581">
        <ele>270.4</ele>
        <time>2020-03-04T11:02:56Z</time>
      </trkpt>
      <trkpt lat="46.91378" lon="5.75817">
        <ele>270.4</ele>
        <time>2020-03-04T11:02:57Z</time>
      </trkpt>
      <trkpt lat="46.91375" lon="5.75824">
        <ele>270.4</ele>
        <time>2020-03-04T11:02:58Z</time>
      </trkpt>
      <trkpt lat="46.91372" lon="5.75831">
        <ele>270.4</ele>
        <time>2020-03-04T11:02:59Z</time>
      </trkpt>
      <trkpt lat="46.9137" lon="5.75838">
        <ele>270.4</ele>
        <time>2020-03-04T11:03:00Z</time>
      </trkpt>
      <trkpt lat="46.91367" lon="5.75845">
        <ele>270.4</ele>
        <time>2020-03-04T11:03:01Z</time>
      </trkpt>
      <trkpt lat="46.91365" lon="5.75852">
        <ele>270.4</ele>
        <time>2020-03-04T11:03:02Z</time>
      </trkpt>
      <trkpt lat="46.91362" lon="5.75858">
        <ele>270.6</ele>
        <time>2020-03-04T11:03:03Z</time>
      </trkpt>
      <trkpt lat="46.9136" lon="5.75865">
        <ele>270.6</ele>
        <time>2020-03-04T11:03:04Z</time>
      </trkpt>
      <trkpt lat="46.91357" lon="5.75872">
        <ele>270.6</ele>
        <time>2020-03-04T11:03:05Z</time>
      </trkpt>
      <trkpt lat="46.91355" lon="5.75879">
        <ele>270.6</ele>
        <time>2020-03-04T11:03:06Z</time>
      </trkpt>
      <trkpt lat="46.91352" lon="5.75887">
        <ele>270.6</ele>
        <time>2020-03-04T11:03:07Z</time>
      </trkpt>
      <trkpt lat="46.9135" lon="5.75894">
        <ele>270.6</ele>
        <time>2020-03-04T11:03:08Z</time>
      </trkpt>
      <trkpt lat="46.91347" lon="5.75901">
        <ele>270.6</ele>
        <time>2020-03-04T11:03:09Z</time>
      </trkpt>
      <trkpt lat="46.91344" lon="5.75908">
        <ele>270.6</ele>
        <time>2020-03-04T11:03:10Z</time>
      </trkpt>
      <trkpt lat="46.91342" lon="5.75916">
        <ele>270.6</ele>
        <time>2020-03-04T11:03:11Z</time>
      </trkpt>
      <trkpt lat="46.9134" lon="5.75923">
        <ele>270.6</ele>
        <time>2020-03-04T11:03:12Z</time>
      </trkpt>
      <trkpt lat="46.91337" lon="5.75931">
        <ele>270.6</ele>
        <time>2020-03-04T11:03:13Z</time>
      </trkpt>
      <trkpt lat="46.91334" lon="5.75938">
        <ele>270.6</ele>
        <time>2020-03-04T11:03:14Z</time>
      </trkpt>
      <trkpt lat="46.91331" lon="5.75945">
        <ele>270.6</ele>
        <time>2020-03-04T11:03:15Z</time>
      </trkpt>
      <trkpt lat="46.91329" lon="5.75953">
        <ele>270.6</ele>
        <time>2020-03-04T11:03:16Z</time>
      </trkpt>
      <trkpt lat="46.91326" lon="5.7596">
        <ele>270.6</ele>
        <time>2020-03-04T11:03:17Z</time>
      </trkpt>
      <trkpt lat="46.91323" lon="5.75968">
        <ele>270.6</ele>
        <time>2020-03-04T11:03:18Z</time>
      </trkpt>
      <trkpt lat="46.91321" lon="5.75976">
        <ele>270.6</ele>
        <time>2020-03-04T11:03:19Z</time>
      </trkpt>
      <trkpt lat="46.91319" lon="5.75984">
        <ele>270.8</ele>
        <time>2020-03-04T11:03:20Z</time>
      </trkpt>
      <trkpt lat="46.91316" lon="5.75991">
        <ele>270.8</ele>
        <time>2020-03-04T11:03:21Z</time>
      </trkpt>
      <trkpt lat="46.91314" lon="5.75998">
        <ele>270.8</ele>
        <time>2020-03-04T11:03:22Z</time>
      </trkpt>
      <trkpt lat="46.91311" lon="5.76006">
        <ele>270.8</ele>
        <time>2020-03-04T11:03:23Z</time>
      </trkpt>
      <trkpt lat="46.91309" lon="5.76013">
        <ele>270.8</ele>
        <time>2020-03-04T11:03:24Z</time>
      </trkpt>
      <trkpt lat="46.91306" lon="5.76021">
        <ele>271</ele>
        <time>2020-03-04T11:03:25Z</time>
      </trkpt>
      <trkpt lat="46.91304" lon="5.76028">
        <ele>271</ele>
        <time>2020-03-04T11:03:26Z</time>
      </trkpt>
      <trkpt lat="46.91301" lon="5.76036">
        <ele>271</ele>
        <time>2020-03-04T11:03:27Z</time>
      </trkpt>
      <trkpt lat="46.91299" lon="5.76043">
        <ele>271</ele>
        <time>2020-03-04T11:03:28Z</time>
      </trkpt>
      <trkpt lat="46.91296" lon="5.7605">
        <ele>271</ele>
        <time>2020-03-04T11:03:29Z</time>
      </trkpt>
      <trkpt lat="46.91294" lon="5.76058">
        <ele>271</ele>
        <time>2020-03-04T11:03:30Z</time>
      </trkpt>
      <trkpt lat="46.91292" lon="5.76065">
        <ele>271</ele>
        <time>2020-03-04T11:03:31Z</time>
      </trkpt>
      <trkpt lat="46.91289" lon="5.76072">
        <ele>271</ele>
        <time>2020-03-04T11:03:32Z</time>
      </trkpt>
      <trkpt lat="46.91286" lon="5.76079">
        <ele>271</ele>
        <time>2020-03-04T11:03:33Z</time>
      </trkpt>
      <trkpt lat="46.91283" lon="5.76087">
        <ele>271.2</ele>
        <time>2020-03-04T11:03:34Z</time>
      </trkpt>
      <trkpt lat="46.91281" lon="5.76094">
        <ele>271.2</ele>
        <time>2020-03-04T11:03:35Z</time>
      </trkpt>
      <trkpt lat="46.91278" lon="5.76101">
        <ele>271.2</ele>
        <time>2020-03-04T11:03:36Z</time>
      </trkpt>
      <trkpt lat="46.91275" lon="5.76108">
        <ele>271.6</ele>
        <time>2020-03-04T11:03:37Z</time>
      </trkpt>
      <trkpt lat="46.91273" lon="5.76116">
        <ele>271.6</ele>
        <time>2020-03-04T11:03:38Z</time>
      </trkpt>
      <trkpt lat="46.9127" lon="5.76123">
        <ele>271.8</ele>
        <time>2020-03-04T11:03:39Z</time>
      </trkpt>
      <trkpt lat="46.91267" lon="5.7613">
        <ele>271.8</ele>
        <time>2020-03-04T11:03:40Z</time>
      </trkpt>
      <trkpt lat="46.91264" lon="5.76138">
        <ele>272</ele>
        <time>2020-03-04T11:03:41Z</time>
      </trkpt>
      <trkpt lat="46.91261" lon="5.76145">
        <ele>272</ele>
        <time>2020-03-04T11:03:42Z</time>
      </trkpt>
      <trkpt lat="46.91259" lon="5.76152">
        <ele>272.4</ele>
        <time>2020-03-04T11:03:43Z</time>
      </trkpt>
      <trkpt lat="46.91256" lon="5.76159">
        <ele>272.6</ele>
        <time>2020-03-04T11:03:44Z</time>
      </trkpt>
      <trkpt lat="46.91254" lon="5.76165">
        <ele>272.6</ele>
        <time>2020-03-04T11:03:45Z</time>
      </trkpt>
      <trkpt lat="46.91252" lon="5.76171">
        <ele>273</ele>
        <time>2020-03-04T11:03:46Z</time>
      </trkpt>
      <trkpt lat="46.91249" lon="5.76178">
        <ele>273</ele>
        <time>2020-03-04T11:03:47Z</time>
      </trkpt>
      <trkpt lat="46.91247" lon="5.76184">
        <ele>273.2</ele>
        <time>2020-03-04T11:03:48Z</time>
      </trkpt>
      <trkpt lat="46.91245" lon="5.76189">
        <ele>273.4</ele>
        <time>2020-03-04T11:03:49Z</time>
      </trkpt>
      <trkpt lat="46.91242" lon="5.76195">
        <ele>273.4</ele>
        <time>2020-03-04T11:03:50Z</time>
      </trkpt>
      <trkpt lat="46.9124" lon="5.76201">
        <ele>273.8</ele>
        <time>2020-03-04T11:03:51Z</time>
      </trkpt>
      <trkpt lat="46.91238" lon="5.76207">
        <ele>274</ele>
        <time>2020-03-04T11:03:52Z</time>
      </trkpt>
      <trkpt lat="46.91236" lon="5.76213">
        <ele>274</ele>
        <time>2020-03-04T11:03:53Z</time>
      </trkpt>
      <trkpt lat="46.91234" lon="5.76219">
        <ele>274.2</ele>
        <time>2020-03-04T11:03:54Z</time>
      </trkpt>
      <trkpt lat="46.91232" lon="5.76225">
        <ele>274.2</ele>
        <time>2020-03-04T11:03:55Z</time>
      </trkpt>
      <trkpt lat="46.9123" lon="5.7623">
        <ele>274.6</ele>
        <time>2020-03-04T11:03:56Z</time>
      </trkpt>
      <trkpt lat="46.91227" lon="5.76236">
        <ele>274.6</ele>
        <time>2020-03-04T11:03:57Z</time>
      </trkpt>
      <trkpt lat="46.91225" lon="5.76242">
        <ele>274.6</ele>
        <time>2020-03-04T11:03:58Z</time>
      </trkpt>
      <trkpt lat="46.91223" lon="5.76248">
        <ele>275</ele>
        <time>2020-03-04T11:03:59Z</time>
      </trkpt>
      <trkpt lat="46.9122" lon="5.76253">
        <ele>275</ele>
        <time>2020-03-04T11:04:00Z</time>
      </trkpt>
      <trkpt lat="46.91218" lon="5.76259">
        <ele>275.2</ele>
        <time>2020-03-04T11:04:01Z</time>
      </trkpt>
      <trkpt lat="46.91215" lon="5.76264">
        <ele>275.2</ele>
        <time>2020-03-04T11:04:02Z</time>
      </trkpt>
      <trkpt lat="46.91213" lon="5.7627">
        <ele>275.2</ele>
        <time>2020-03-04T11:04:03Z</time>
      </trkpt>
      <trkpt lat="46.91211" lon="5.76275">
        <ele>275.2</ele>
        <time>2020-03-04T11:04:04Z</time>
      </trkpt>
      <trkpt lat="46.91209" lon="5.7628">
        <ele>275.4</ele>
        <time>2020-03-04T11:04:05Z</time>
      </trkpt>
      <trkpt lat="46.91206" lon="5.76285">
        <ele>275.4</ele>
        <time>2020-03-04T11:04:06Z</time>
      </trkpt>
      <trkpt lat="46.91204" lon="5.7629">
        <ele>275.4</ele>
        <time>2020-03-04T11:04:07Z</time>
      </trkpt>
      <trkpt lat="46.91202" lon="5.76294">
        <ele>275.4</ele>
        <time>2020-03-04T11:04:08Z</time>
      </trkpt>
      <trkpt lat="46.91199" lon="5.76299">
        <ele>275.6</ele>
        <time>2020-03-04T11:04:09Z</time>
      </trkpt>
      <trkpt lat="46.91197" lon="5.76304">
        <ele>275.6</ele>
        <time>2020-03-04T11:04:10Z</time>
      </trkpt>
      <trkpt lat="46.91195" lon="5.76309">
        <ele>275.6</ele>
        <time>2020-03-04T11:04:11Z</time>
      </trkpt>
      <trkpt lat="46.91192" lon="5.76314">
        <ele>275.6</ele>
        <time>2020-03-04T11:04:12Z</time>
      </trkpt>
      <trkpt lat="46.91189" lon="5.76319">
        <ele>275.6</ele>
        <time>2020-03-04T11:04:13Z</time>
      </trkpt>
      <trkpt lat="46.91187" lon="5.76324">
        <ele>275.6</ele>
        <time>2020-03-04T11:04:14Z</time>
      </trkpt>
      <trkpt lat="46.91184" lon="5.76329">
        <ele>275.6</ele>
        <time>2020-03-04T11:04:15Z</time>
      </trkpt>
      <trkpt lat="46.91182" lon="5.76335">
        <ele>275.6</ele>
        <time>2020-03-04T11:04:16Z</time>
      </trkpt>
      <trkpt lat="46.91179" lon="5.7634">
        <ele>275.6</ele>
        <time>2020-03-04T11:04:17Z</time>
      </trkpt>
      <trkpt lat="46.91176" lon="5.76346">
        <ele>275.6</ele>
        <time>2020-03-04T11:04:18Z</time>
      </trkpt>
      <trkpt lat="46.91173" lon="5.76352">
        <ele>275.6</ele>
        <time>2020-03-04T11:04:19Z</time>
      </trkpt>
      <trkpt lat="46.91171" lon="5.76357">
        <ele>275.6</ele>
        <time>2020-03-04T11:04:20Z</time>
      </trkpt>
      <trkpt lat="46.91168" lon="5.76363">
        <ele>275.6</ele>
        <time>2020-03-04T11:04:21Z</time>
      </trkpt>
      <trkpt lat="46.91165" lon="5.76369">
        <ele>275.6</ele>
        <time>2020-03-04T11:04:22Z</time>
      </trkpt>
      <trkpt lat="46.91162" lon="5.76375">
        <ele>275.6</ele>
        <time>2020-03-04T11:04:23Z</time>
      </trkpt>
      <trkpt lat="46.91159" lon="5.76381">
        <ele>275.6</ele>
        <time>2020-03-04T11:04:24Z</time>
      </trkpt>
      <trkpt lat="46.91156" lon="5.76387">
        <ele>275.6</ele>
        <time>2020-03-04T11:04:25Z</time>
      </trkpt>
      <trkpt lat="46.91152" lon="5.76394">
        <ele>275.6</ele>
        <time>2020-03-04T11:04:26Z</time>
      </trkpt>
      <trkpt lat="46.91149" lon="5.764">
        <ele>275.6</ele>
        <time>2020-03-04T11:04:27Z</time>
      </trkpt>
      <trkpt lat="46.91146" lon="5.76407">
        <ele>275.6</ele>
        <time>2020-03-04T11:04:28Z</time>
      </trkpt>
      <trkpt lat="46.91143" lon="5.76413">
        <ele>275.6</ele>
        <time>2020-03-04T11:04:29Z</time>
      </trkpt>
      <trkpt lat="46.9114" lon="5.7642">
        <ele>275.6</ele>
        <time>2020-03-04T11:04:30Z</time>
      </trkpt>
      <trkpt lat="46.91136" lon="5.76426">
        <ele>276</ele>
        <time>2020-03-04T11:04:31Z</time>
      </trkpt>
      <trkpt lat="46.91133" lon="5.76433">
        <ele>276</ele>
        <time>2020-03-04T11:04:32Z</time>
      </trkpt>
      <trkpt lat="46.9113" lon="5.7644">
        <ele>276</ele>
        <time>2020-03-04T11:04:33Z</time>
      </trkpt>
      <trkpt lat="46.91127" lon="5.76446">
        <ele>276</ele>
        <time>2020-03-04T11:04:34Z</time>
      </trkpt>
      <trkpt lat="46.91123" lon="5.76453">
        <ele>276</ele>
        <time>2020-03-04T11:04:35Z</time>
      </trkpt>
      <trkpt lat="46.9112" lon="5.76459">
        <ele>276.4</ele>
        <time>2020-03-04T11:04:36Z</time>
      </trkpt>
      <trkpt lat="46.91117" lon="5.76466">
        <ele>276.4</ele>
        <time>2020-03-04T11:04:37Z</time>
      </trkpt>
      <trkpt lat="46.91114" lon="5.76472">
        <ele>276.4</ele>
        <time>2020-03-04T11:04:38Z</time>
      </trkpt>
      <trkpt lat="46.91111" lon="5.76478">
        <ele>276.6</ele>
        <time>2020-03-04T11:04:39Z</time>
      </trkpt>
      <trkpt lat="46.91108" lon="5.76484">
        <ele>276.6</ele>
        <time>2020-03-04T11:04:40Z</time>
      </trkpt>
      <trkpt lat="46.91105" lon="5.7649">
        <ele>276.6</ele>
        <time>2020-03-04T11:04:41Z</time>
      </trkpt>
      <trkpt lat="46.91102" lon="5.76496">
        <ele>276.6</ele>
        <time>2020-03-04T11:04:42Z</time>
      </trkpt>
      <trkpt lat="46.911" lon="5.76501">
        <ele>276.6</ele>
        <time>2020-03-04T11:04:43Z</time>
      </trkpt>
      <trkpt lat="46.91097" lon="5.76506">
        <ele>276.6</ele>
        <time>2020-03-04T11:04:44Z</time>
      </trkpt>
      <trkpt lat="46.91095" lon="5.76512">
        <ele>276.6</ele>
        <time>2020-03-04T11:04:45Z</time>
      </trkpt>
      <trkpt lat="46.91093" lon="5.76517">
        <ele>276.6</ele>
        <time>2020-03-04T11:04:46Z</time>
      </trkpt>
      <trkpt lat="46.91091" lon="5.76521">
        <ele>276.6</ele>
        <time>2020-03-04T11:04:47Z</time>
      </trkpt>
      <trkpt lat="46.91089" lon="5.76524">
        <ele>276.6</ele>
        <time>2020-03-04T11:04:48Z</time>
      </trkpt>
      <trkpt lat="46.91087" lon="5.76528">
        <ele>276.6</ele>
        <time>2020-03-04T11:04:49Z</time>
      </trkpt>
      <trkpt lat="46.91086" lon="5.76531">
        <ele>276.6</ele>
        <time>2020-03-04T11:04:50Z</time>
      </trkpt>
      <trkpt lat="46.91084" lon="5.76535">
        <ele>276.6</ele>
        <time>2020-03-04T11:04:51Z</time>
      </trkpt>
      <trkpt lat="46.91082" lon="5.76538">
        <ele>276.6</ele>
        <time>2020-03-04T11:04:52Z</time>
      </trkpt>
      <trkpt lat="46.9108" lon="5.76543">
        <ele>276.6</ele>
        <time>2020-03-04T11:04:53Z</time>
      </trkpt>
      <trkpt lat="46.91078" lon="5.76548">
        <ele>276.6</ele>
        <time>2020-03-04T11:04:54Z</time>
      </trkpt>
      <trkpt lat="46.91075" lon="5.76553">
        <ele>276.6</ele>
        <time>2020-03-04T11:04:55Z</time>
      </trkpt>
      <trkpt lat="46.91073" lon="5.76559">
        <ele>276.6</ele>
        <time>2020-03-04T11:04:56Z</time>
      </trkpt>
      <trkpt lat="46.9107" lon="5.76565">
        <ele>276.6</ele>
        <time>2020-03-04T11:04:57Z</time>
      </trkpt>
      <trkpt lat="46.91067" lon="5.76572">
        <ele>276.6</ele>
        <time>2020-03-04T11:04:58Z</time>
      </trkpt>
      <trkpt lat="46.91064" lon="5.76579">
        <ele>276.6</ele>
        <time>2020-03-04T11:04:59Z</time>
      </trkpt>
      <trkpt lat="46.9106" lon="5.76588">
        <ele>276.6</ele>
        <time>2020-03-04T11:05:00Z</time>
      </trkpt>
      <trkpt lat="46.91056" lon="5.76597">
        <ele>276.4</ele>
        <time>2020-03-04T11:05:01Z</time>
      </trkpt>
      <trkpt lat="46.91051" lon="5.76605">
        <ele>276.4</ele>
        <time>2020-03-04T11:05:02Z</time>
      </trkpt>
      <trkpt lat="46.91046" lon="5.76614">
        <ele>276.4</ele>
        <time>2020-03-04T11:05:03Z</time>
      </trkpt>
      <trkpt lat="46.9104" lon="5.76624">
        <ele>276.4</ele>
        <time>2020-03-04T11:05:04Z</time>
      </trkpt>
      <trkpt lat="46.91034" lon="5.76633">
        <ele>276.2</ele>
        <time>2020-03-04T11:05:05Z</time>
      </trkpt>
      <trkpt lat="46.91029" lon="5.76642">
        <ele>276.2</ele>
        <time>2020-03-04T11:05:06Z</time>
      </trkpt>
      <trkpt lat="46.91025" lon="5.76651">
        <ele>276.2</ele>
        <time>2020-03-04T11:05:07Z</time>
      </trkpt>
      <trkpt lat="46.91021" lon="5.7666">
        <ele>275.8</ele>
        <time>2020-03-04T11:05:08Z</time>
      </trkpt>
      <trkpt lat="46.91016" lon="5.7667">
        <ele>275.8</ele>
        <time>2020-03-04T11:05:09Z</time>
      </trkpt>
      <trkpt lat="46.91012" lon="5.7668">
        <ele>275.8</ele>
        <time>2020-03-04T11:05:10Z</time>
      </trkpt>
      <trkpt lat="46.91008" lon="5.7669">
        <ele>275.8</ele>
        <time>2020-03-04T11:05:11Z</time>
      </trkpt>
      <trkpt lat="46.91004" lon="5.767">
        <ele>275.6</ele>
        <time>2020-03-04T11:05:12Z</time>
      </trkpt>
      <trkpt lat="46.91001" lon="5.76709">
        <ele>275.6</ele>
        <time>2020-03-04T11:05:13Z</time>
      </trkpt>
      <trkpt lat="46.90997" lon="5.76719">
        <ele>275.2</ele>
        <time>2020-03-04T11:05:14Z</time>
      </trkpt>
      <trkpt lat="46.90993" lon="5.76728">
        <ele>275.2</ele>
        <time>2020-03-04T11:05:15Z</time>
      </trkpt>
      <trkpt lat="46.90989" lon="5.76738">
        <ele>275.2</ele>
        <time>2020-03-04T11:05:16Z</time>
      </trkpt>
      <trkpt lat="46.90985" lon="5.76747">
        <ele>275.2</ele>
        <time>2020-03-04T11:05:17Z</time>
      </trkpt>
      <trkpt lat="46.90981" lon="5.76755">
        <ele>275.2</ele>
        <time>2020-03-04T11:05:18Z</time>
      </trkpt>
      <trkpt lat="46.90977" lon="5.76764">
        <ele>275.2</ele>
        <time>2020-03-04T11:05:19Z</time>
      </trkpt>
      <trkpt lat="46.90973" lon="5.76773">
        <ele>275.2</ele>
        <time>2020-03-04T11:05:20Z</time>
      </trkpt>
      <trkpt lat="46.90969" lon="5.76781">
        <ele>275.2</ele>
        <time>2020-03-04T11:05:21Z</time>
      </trkpt>
      <trkpt lat="46.90966" lon="5.76789">
        <ele>275.6</ele>
        <time>2020-03-04T11:05:22Z</time>
      </trkpt>
      <trkpt lat="46.90962" lon="5.76796">
        <ele>275.8</ele>
        <time>2020-03-04T11:05:23Z</time>
      </trkpt>
      <trkpt lat="46.90959" lon="5.76804">
        <ele>275.8</ele>
        <time>2020-03-04T11:05:24Z</time>
      </trkpt>
      <trkpt lat="46.90956" lon="5.76811">
        <ele>276</ele>
        <time>2020-03-04T11:05:25Z</time>
      </trkpt>
      <trkpt lat="46.90953" lon="5.76818">
        <ele>276</ele>
        <time>2020-03-04T11:05:26Z</time>
      </trkpt>
      <trkpt lat="46.9095" lon="5.76825">
        <ele>276.4</ele>
        <time>2020-03-04T11:05:27Z</time>
      </trkpt>
      <trkpt lat="46.90947" lon="5.76832">
        <ele>276.4</ele>
        <time>2020-03-04T11:05:28Z</time>
      </trkpt>
      <trkpt lat="46.90944" lon="5.76839">
        <ele>276.6</ele>
        <time>2020-03-04T11:05:29Z</time>
      </trkpt>
      <trkpt lat="46.90942" lon="5.76845">
        <ele>276.6</ele>
        <time>2020-03-04T11:05:30Z</time>
      </trkpt>
      <trkpt lat="46.90939" lon="5.76851">
        <ele>277</ele>
        <time>2020-03-04T11:05:31Z</time>
      </trkpt>
      <trkpt lat="46.90936" lon="5.76857">
        <ele>277</ele>
        <time>2020-03-04T11:05:32Z</time>
      </trkpt>
      <trkpt lat="46.90933" lon="5.76863">
        <ele>277.4</ele>
        <time>2020-03-04T11:05:33Z</time>
      </trkpt>
      <trkpt lat="46.9093" lon="5.76869">
        <ele>277.4</ele>
        <time>2020-03-04T11:05:34Z</time>
      </trkpt>
      <trkpt lat="46.90927" lon="5.76874">
        <ele>277.8</ele>
        <time>2020-03-04T11:05:35Z</time>
      </trkpt>
      <trkpt lat="46.90924" lon="5.76878">
        <ele>277.8</ele>
        <time>2020-03-04T11:05:36Z</time>
      </trkpt>
      <trkpt lat="46.9092" lon="5.76882">
        <ele>278</ele>
        <time>2020-03-04T11:05:37Z</time>
      </trkpt>
      <trkpt lat="46.90917" lon="5.76887">
        <ele>278</ele>
        <time>2020-03-04T11:05:38Z</time>
      </trkpt>
      <trkpt lat="46.90913" lon="5.7689">
        <ele>278</ele>
        <time>2020-03-04T11:05:39Z</time>
      </trkpt>
      <trkpt lat="46.9091" lon="5.76893">
        <ele>278.4</ele>
        <time>2020-03-04T11:05:40Z</time>
      </trkpt>
      <trkpt lat="46.90906" lon="5.76896">
        <ele>278.4</ele>
        <time>2020-03-04T11:05:41Z</time>
      </trkpt>
      <trkpt lat="46.90902" lon="5.76899">
        <ele>278.4</ele>
        <time>2020-03-04T11:05:42Z</time>
      </trkpt>
      <trkpt lat="46.90899" lon="5.76902">
        <ele>278.4</ele>
        <time>2020-03-04T11:05:43Z</time>
      </trkpt>
      <trkpt lat="46.90895" lon="5.76905">
        <ele>278.4</ele>
        <time>2020-03-04T11:05:44Z</time>
      </trkpt>
      <trkpt lat="46.90892" lon="5.76908">
        <ele>278.4</ele>
        <time>2020-03-04T11:05:45Z</time>
      </trkpt>
      <trkpt lat="46.90888" lon="5.76911">
        <ele>278.4</ele>
        <time>2020-03-04T11:05:46Z</time>
      </trkpt>
      <trkpt lat="46.90885" lon="5.76912">
        <ele>278.4</ele>
        <time>2020-03-04T11:05:47Z</time>
      </trkpt>
      <trkpt lat="46.90882" lon="5.76913">
        <ele>278.4</ele>
        <time>2020-03-04T11:05:48Z</time>
      </trkpt>
      <trkpt lat="46.90879" lon="5.76914">
        <ele>278.4</ele>
        <time>2020-03-04T11:05:49Z</time>
      </trkpt>
      <trkpt lat="46.90877" lon="5.76915">
        <ele>278</ele>
        <time>2020-03-04T11:05:50Z</time>
      </trkpt>
      <trkpt lat="46.90876" lon="5.76916">
        <ele>278</ele>
        <time>2020-03-04T11:05:51Z</time>
      </trkpt>
      <trkpt lat="46.90874" lon="5.76917">
        <ele>278</ele>
        <time>2020-03-04T11:05:52Z</time>
      </trkpt>
      <trkpt lat="46.90872" lon="5.76918">
        <ele>278</ele>
        <time>2020-03-04T11:05:53Z</time>
      </trkpt>
      <trkpt lat="46.90869" lon="5.76918">
        <ele>277.8</ele>
        <time>2020-03-04T11:05:54Z</time>
      </trkpt>
      <trkpt lat="46.90867" lon="5.76919">
        <ele>277.8</ele>
        <time>2020-03-04T11:05:55Z</time>
      </trkpt>
      <trkpt lat="46.90865" lon="5.7692">
        <ele>277.8</ele>
        <time>2020-03-04T11:05:56Z</time>
      </trkpt>
      <trkpt lat="46.90862" lon="5.7692">
        <ele>277.8</ele>
        <time>2020-03-04T11:05:57Z</time>
      </trkpt>
      <trkpt lat="46.90859" lon="5.76921">
        <ele>277.6</ele>
        <time>2020-03-04T11:05:58Z</time>
      </trkpt>
      <trkpt lat="46.90855" lon="5.76921">
        <ele>277.6</ele>
        <time>2020-03-04T11:05:59Z</time>
      </trkpt>
      <trkpt lat="46.9085" lon="5.76922">
        <ele>277.6</ele>
        <time>2020-03-04T11:06:00Z</time>
      </trkpt>
      <trkpt lat="46.90846" lon="5.76923">
        <ele>277.6</ele>
        <time>2020-03-04T11:06:01Z</time>
      </trkpt>
      <trkpt lat="46.90841" lon="5.76924">
        <ele>277.6</ele>
        <time>2020-03-04T11:06:02Z</time>
      </trkpt>
      <trkpt lat="46.90836" lon="5.76926">
        <ele>277.8</ele>
        <time>2020-03-04T11:06:03Z</time>
      </trkpt>
      <trkpt lat="46.90831" lon="5.76927">
        <ele>277.8</ele>
        <time>2020-03-04T11:06:04Z</time>
      </trkpt>
      <trkpt lat="46.90826" lon="5.76929">
        <ele>277.8</ele>
        <time>2020-03-04T11:06:05Z</time>
      </trkpt>
      <trkpt lat="46.90821" lon="5.76931">
        <ele>278</ele>
        <time>2020-03-04T11:06:06Z</time>
      </trkpt>
      <trkpt lat="46.90817" lon="5.76933">
        <ele>278</ele>
        <time>2020-03-04T11:06:07Z</time>
      </trkpt>
      <trkpt lat="46.90811" lon="5.76934">
        <ele>278</ele>
        <time>2020-03-04T11:06:08Z</time>
      </trkpt>
      <trkpt lat="46.90806" lon="5.76936">
        <ele>278</ele>
        <time>2020-03-04T11:06:09Z</time>
      </trkpt>
      <trkpt lat="46.908" lon="5.76937">
        <ele>278.2</ele>
        <time>2020-03-04T11:06:10Z</time>
      </trkpt>
      <trkpt lat="46.90795" lon="5.76938">
        <ele>278.2</ele>
        <time>2020-03-04T11:06:11Z</time>
      </trkpt>
      <trkpt lat="46.90791" lon="5.76939">
        <ele>278.2</ele>
        <time>2020-03-04T11:06:12Z</time>
      </trkpt>
      <trkpt lat="46.90786" lon="5.7694">
        <ele>278.2</ele>
        <time>2020-03-04T11:06:13Z</time>
      </trkpt>
      <trkpt lat="46.90781" lon="5.76941">
        <ele>278.6</ele>
        <time>2020-03-04T11:06:14Z</time>
      </trkpt>
      <trkpt lat="46.90776" lon="5.76942">
        <ele>278.6</ele>
        <time>2020-03-04T11:06:15Z</time>
      </trkpt>
      <trkpt lat="46.90771" lon="5.76943">
        <ele>278.8</ele>
        <time>2020-03-04T11:06:16Z</time>
      </trkpt>
      <trkpt lat="46.90766" lon="5.76944">
        <ele>279</ele>
        <time>2020-03-04T11:06:17Z</time>
      </trkpt>
      <trkpt lat="46.90762" lon="5.76945">
        <ele>279</ele>
        <time>2020-03-04T11:06:18Z</time>
      </trkpt>
      <trkpt lat="46.90757" lon="5.76946">
        <ele>279</ele>
        <time>2020-03-04T11:06:19Z</time>
      </trkpt>
      <trkpt lat="46.90752" lon="5.76946">
        <ele>279.4</ele>
        <time>2020-03-04T11:06:20Z</time>
      </trkpt>
      <trkpt lat="46.90747" lon="5.76946">
        <ele>279.4</ele>
        <time>2020-03-04T11:06:21Z</time>
      </trkpt>
      <trkpt lat="46.90742" lon="5.76946">
        <ele>279.4</ele>
        <time>2020-03-04T11:06:22Z</time>
      </trkpt>
      <trkpt lat="46.90738" lon="5.76945">
        <ele>279.6</ele>
        <time>2020-03-04T11:06:23Z</time>
      </trkpt>
      <trkpt lat="46.90733" lon="5.76946">
        <ele>279.6</ele>
        <time>2020-03-04T11:06:24Z</time>
      </trkpt>
      <trkpt lat="46.90728" lon="5.76946">
        <ele>279.6</ele>
        <time>2020-03-04T11:06:25Z</time>
      </trkpt>
      <trkpt lat="46.90723" lon="5.76946">
        <ele>279.8</ele>
        <time>2020-03-04T11:06:26Z</time>
      </trkpt>
      <trkpt lat="46.90719" lon="5.76947">
        <ele>279.8</ele>
        <time>2020-03-04T11:06:27Z</time>
      </trkpt>
      <trkpt lat="46.90715" lon="5.76947">
        <ele>280.2</ele>
        <time>2020-03-04T11:06:28Z</time>
      </trkpt>
      <trkpt lat="46.9071" lon="5.76948">
        <ele>280.2</ele>
        <time>2020-03-04T11:06:29Z</time>
      </trkpt>
      <trkpt lat="46.90706" lon="5.76949">
        <ele>280.2</ele>
        <time>2020-03-04T11:06:30Z</time>
      </trkpt>
      <trkpt lat="46.90701" lon="5.7695">
        <ele>280.2</ele>
        <time>2020-03-04T11:06:31Z</time>
      </trkpt>
      <trkpt lat="46.90697" lon="5.76952">
        <ele>280.2</ele>
        <time>2020-03-04T11:06:32Z</time>
      </trkpt>
      <trkpt lat="46.90692" lon="5.76953">
        <ele>280.2</ele>
        <time>2020-03-04T11:06:33Z</time>
      </trkpt>
      <trkpt lat="46.90688" lon="5.76954">
        <ele>280.2</ele>
        <time>2020-03-04T11:06:34Z</time>
      </trkpt>
      <trkpt lat="46.90683" lon="5.76956">
        <ele>280.2</ele>
        <time>2020-03-04T11:06:35Z</time>
      </trkpt>
      <trkpt lat="46.90678" lon="5.76958">
        <ele>280.2</ele>
        <time>2020-03-04T11:06:36Z</time>
      </trkpt>
      <trkpt lat="46.90672" lon="5.76959">
        <ele>280.2</ele>
        <time>2020-03-04T11:06:37Z</time>
      </trkpt>
      <trkpt lat="46.90667" lon="5.7696">
        <ele>280.2</ele>
        <time>2020-03-04T11:06:38Z</time>
      </trkpt>
      <trkpt lat="46.90662" lon="5.76961">
        <ele>280.2</ele>
        <time>2020-03-04T11:06:39Z</time>
      </trkpt>
      <trkpt lat="46.90656" lon="5.76962">
        <ele>280.2</ele>
        <time>2020-03-04T11:06:40Z</time>
      </trkpt>
      <trkpt lat="46.90651" lon="5.76963">
        <ele>280.2</ele>
        <time>2020-03-04T11:06:41Z</time>
      </trkpt>
      <trkpt lat="46.90645" lon="5.76964">
        <ele>280.2</ele>
        <time>2020-03-04T11:06:42Z</time>
      </trkpt>
      <trkpt lat="46.90639" lon="5.76965">
        <ele>280.2</ele>
        <time>2020-03-04T11:06:43Z</time>
      </trkpt>
      <trkpt lat="46.90634" lon="5.76968">
        <ele>280.2</ele>
        <time>2020-03-04T11:06:44Z</time>
      </trkpt>
      <trkpt lat="46.90629" lon="5.76971">
        <ele>280.2</ele>
        <time>2020-03-04T11:06:45Z</time>
      </trkpt>
      <trkpt lat="46.90624" lon="5.76974">
        <ele>280.2</ele>
        <time>2020-03-04T11:06:46Z</time>
      </trkpt>
      <trkpt lat="46.9062" lon="5.76977">
        <ele>280.2</ele>
        <time>2020-03-04T11:06:47Z</time>
      </trkpt>
      <trkpt lat="46.90616" lon="5.76981">
        <ele>280.4</ele>
        <time>2020-03-04T11:06:48Z</time>
      </trkpt>
      <trkpt lat="46.90612" lon="5.76985">
        <ele>280.4</ele>
        <time>2020-03-04T11:06:49Z</time>
      </trkpt>
      <trkpt lat="46.90608" lon="5.76988">
        <ele>280.8</ele>
        <time>2020-03-04T11:06:50Z</time>
      </trkpt>
      <trkpt lat="46.90604" lon="5.76991">
        <ele>280.8</ele>
        <time>2020-03-04T11:06:51Z</time>
      </trkpt>
      <trkpt lat="46.906" lon="5.76994">
        <ele>281</ele>
        <time>2020-03-04T11:06:52Z</time>
      </trkpt>
      <trkpt lat="46.90596" lon="5.76997">
        <ele>281</ele>
        <time>2020-03-04T11:06:53Z</time>
      </trkpt>
      <trkpt lat="46.90592" lon="5.77">
        <ele>281.4</ele>
        <time>2020-03-04T11:06:54Z</time>
      </trkpt>
      <trkpt lat="46.90588" lon="5.77003">
        <ele>281.4</ele>
        <time>2020-03-04T11:06:55Z</time>
      </trkpt>
      <trkpt lat="46.90584" lon="5.77004">
        <ele>281.6</ele>
        <time>2020-03-04T11:06:56Z</time>
      </trkpt>
      <trkpt lat="46.90581" lon="5.77007">
        <ele>281.6</ele>
        <time>2020-03-04T11:06:57Z</time>
      </trkpt>
      <trkpt lat="46.90577" lon="5.77009">
        <ele>282</ele>
        <time>2020-03-04T11:06:58Z</time>
      </trkpt>
      <trkpt lat="46.90574" lon="5.77012">
        <ele>282</ele>
        <time>2020-03-04T11:06:59Z</time>
      </trkpt>
      <trkpt lat="46.9057" lon="5.77015">
        <ele>282.2</ele>
        <time>2020-03-04T11:07:00Z</time>
      </trkpt>
      <trkpt lat="46.90567" lon="5.77018">
        <ele>282.2</ele>
        <time>2020-03-04T11:07:01Z</time>
      </trkpt>
      <trkpt lat="46.90564" lon="5.7702">
        <ele>282.6</ele>
        <time>2020-03-04T11:07:02Z</time>
      </trkpt>
      <trkpt lat="46.90562" lon="5.77022">
        <ele>282.6</ele>
        <time>2020-03-04T11:07:03Z</time>
      </trkpt>
      <trkpt lat="46.9056" lon="5.77023">
        <ele>282.8</ele>
        <time>2020-03-04T11:07:04Z</time>
      </trkpt>
      <trkpt lat="46.90559" lon="5.77024">
        <ele>282.8</ele>
        <time>2020-03-04T11:07:05Z</time>
      </trkpt>
      <trkpt lat="46.90559" lon="5.77026">
        <ele>283</ele>
        <time>2020-03-04T11:07:06Z</time>
      </trkpt>
      <trkpt lat="46.90559" lon="5.77028">
        <ele>283</ele>
        <time>2020-03-04T11:07:07Z</time>
      </trkpt>
      <trkpt lat="46.9056" lon="5.7703">
        <ele>283</ele>
        <time>2020-03-04T11:07:08Z</time>
      </trkpt>
      <trkpt lat="46.9056" lon="5.77032">
        <ele>283.4</ele>
        <time>2020-03-04T11:07:09Z</time>
      </trkpt>
      <trkpt lat="46.90562" lon="5.77034">
        <ele>283.4</ele>
        <time>2020-03-04T11:07:10Z</time>
      </trkpt>
      <trkpt lat="46.90563" lon="5.77037">
        <ele>283.4</ele>
        <time>2020-03-04T11:07:11Z</time>
      </trkpt>
      <trkpt lat="46.90564" lon="5.77039">
        <ele>283.4</ele>
        <time>2020-03-04T11:07:12Z</time>
      </trkpt>
      <trkpt lat="46.90565" lon="5.77041">
        <ele>283.6</ele>
        <time>2020-03-04T11:07:13Z</time>
      </trkpt>
      <trkpt lat="46.90566" lon="5.77043">
        <ele>283.6</ele>
        <time>2020-03-04T11:07:14Z</time>
      </trkpt>
      <trkpt lat="46.90567" lon="5.77045">
        <ele>283.6</ele>
        <time>2020-03-04T11:07:15Z</time>
      </trkpt>
      <trkpt lat="46.90569" lon="5.77047">
        <ele>283.8</ele>
        <time>2020-03-04T11:07:16Z</time>
      </trkpt>
      <trkpt lat="46.9057" lon="5.7705">
        <ele>283.8</ele>
        <time>2020-03-04T11:07:17Z</time>
      </trkpt>
      <trkpt lat="46.90571" lon="5.77053">
        <ele>284.2</ele>
        <time>2020-03-04T11:07:18Z</time>
      </trkpt>
      <trkpt lat="46.90573" lon="5.77055">
        <ele>284.2</ele>
        <time>2020-03-04T11:07:19Z</time>
      </trkpt>
      <trkpt lat="46.90574" lon="5.77057">
        <ele>284.4</ele>
        <time>2020-03-04T11:07:20Z</time>
      </trkpt>
      <trkpt lat="46.90575" lon="5.7706">
        <ele>284.4</ele>
        <time>2020-03-04T11:07:21Z</time>
      </trkpt>
      <trkpt lat="46.90576" lon="5.77062">
        <ele>284.6</ele>
        <time>2020-03-04T11:07:22Z</time>
      </trkpt>
      <trkpt lat="46.90577" lon="5.77065">
        <ele>284.6</ele>
        <time>2020-03-04T11:07:23Z</time>
      </trkpt>
      <trkpt lat="46.90578" lon="5.77067">
        <ele>285</ele>
        <time>2020-03-04T11:07:24Z</time>
      </trkpt>
      <trkpt lat="46.9058" lon="5.7707">
        <ele>285</ele>
        <time>2020-03-04T11:07:25Z</time>
      </trkpt>
      <trkpt lat="46.90582" lon="5.77071">
        <ele>285</ele>
        <time>2020-03-04T11:07:26Z</time>
      </trkpt>
      <trkpt lat="46.90585" lon="5.77074">
        <ele>285.2</ele>
        <time>2020-03-04T11:07:27Z</time>
      </trkpt>
      <trkpt lat="46.90586" lon="5.77076">
        <ele>285.2</ele>
        <time>2020-03-04T11:07:28Z</time>
      </trkpt>
      <trkpt lat="46.90588" lon="5.77079">
        <ele>285.4</ele>
        <time>2020-03-04T11:07:29Z</time>
      </trkpt>
      <trkpt lat="46.9059" lon="5.77082">
        <ele>285.4</ele>
        <time>2020-03-04T11:07:30Z</time>
      </trkpt>
      <trkpt lat="46.90591" lon="5.77084">
        <ele>285.6</ele>
        <time>2020-03-04T11:07:31Z</time>
      </trkpt>
      <trkpt lat="46.90593" lon="5.77088">
        <ele>285.6</ele>
        <time>2020-03-04T11:07:32Z</time>
      </trkpt>
      <trkpt lat="46.90594" lon="5.77091">
        <ele>286</ele>
        <time>2020-03-04T11:07:33Z</time>
      </trkpt>
      <trkpt lat="46.90596" lon="5.77094">
        <ele>286</ele>
        <time>2020-03-04T11:07:34Z</time>
      </trkpt>
      <trkpt lat="46.90597" lon="5.77096">
        <ele>286.2</ele>
        <time>2020-03-04T11:07:35Z</time>
      </trkpt>
      <trkpt lat="46.90598" lon="5.771">
        <ele>286.2</ele>
        <time>2020-03-04T11:07:36Z</time>
      </trkpt>
      <trkpt lat="46.90599" lon="5.77103">
        <ele>286.4</ele>
        <time>2020-03-04T11:07:37Z</time>
      </trkpt>
      <trkpt lat="46.906" lon="5.77106">
        <ele>286.4</ele>
        <time>2020-03-04T11:07:38Z</time>
      </trkpt>
      <trkpt lat="46.90601" lon="5.77109">
        <ele>286.6</ele>
        <time>2020-03-04T11:07:39Z</time>
      </trkpt>
      <trkpt lat="46.90602" lon="5.7711">
        <ele>286.6</ele>
        <time>2020-03-04T11:07:40Z</time>
      </trkpt>
      <trkpt lat="46.90603" lon="5.7711">
        <ele>286.6</ele>
        <time>2020-03-04T11:07:41Z</time>
      </trkpt>
      <trkpt lat="46.90605" lon="5.7711">
        <ele>286.8</ele>
        <time>2020-03-04T11:07:42Z</time>
      </trkpt>
      <trkpt lat="46.90607" lon="5.77109">
        <ele>286.8</ele>
        <time>2020-03-04T11:07:43Z</time>
      </trkpt>
      <trkpt lat="46.9061" lon="5.77108">
        <ele>286.8</ele>
        <time>2020-03-04T11:07:44Z</time>
      </trkpt>
      <trkpt lat="46.90612" lon="5.77107">
        <ele>286.8</ele>
        <time>2020-03-04T11:07:45Z</time>
      </trkpt>
      <trkpt lat="46.90614" lon="5.77104">
        <ele>286.8</ele>
        <time>2020-03-04T11:07:46Z</time>
      </trkpt>
      <trkpt lat="46.90616" lon="5.77103">
        <ele>286.8</ele>
        <time>2020-03-04T11:07:47Z</time>
      </trkpt>
      <trkpt lat="46.90618" lon="5.77101">
        <ele>286.4</ele>
        <time>2020-03-04T11:07:48Z</time>
      </trkpt>
      <trkpt lat="46.90621" lon="5.771">
        <ele>286.4</ele>
        <time>2020-03-04T11:07:49Z</time>
      </trkpt>
      <trkpt lat="46.90624" lon="5.77099">
        <ele>286</ele>
        <time>2020-03-04T11:07:50Z</time>
      </trkpt>
      <trkpt lat="46.90626" lon="5.77099">
        <ele>285.8</ele>
        <time>2020-03-04T11:07:51Z</time>
      </trkpt>
      <trkpt lat="46.90629" lon="5.771">
        <ele>285.4</ele>
        <time>2020-03-04T11:07:52Z</time>
      </trkpt>
      <trkpt lat="46.90632" lon="5.77102">
        <ele>285.2</ele>
        <time>2020-03-04T11:07:53Z</time>
      </trkpt>
      <trkpt lat="46.90634" lon="5.77106">
        <ele>285.2</ele>
        <time>2020-03-04T11:07:54Z</time>
      </trkpt>
      <trkpt lat="46.90636" lon="5.77111">
        <ele>285.2</ele>
        <time>2020-03-04T11:07:55Z</time>
      </trkpt>
      <trkpt lat="46.90637" lon="5.77115">
        <ele>285.2</ele>
        <time>2020-03-04T11:07:56Z</time>
      </trkpt>
      <trkpt lat="46.90638" lon="5.7712">
        <ele>285.2</ele>
        <time>2020-03-04T11:07:57Z</time>
      </trkpt>
      <trkpt lat="46.9064" lon="5.77125">
        <ele>285.2</ele>
        <time>2020-03-04T11:07:58Z</time>
      </trkpt>
      <trkpt lat="46.90641" lon="5.77128">
        <ele>285.2</ele>
        <time>2020-03-04T11:07:59Z</time>
      </trkpt>
      <trkpt lat="46.90643" lon="5.77132">
        <ele>285.2</ele>
        <time>2020-03-04T11:08:00Z</time>
      </trkpt>
      <trkpt lat="46.90644" lon="5.77135">
        <ele>285.2</ele>
        <time>2020-03-04T11:08:01Z</time>
      </trkpt>
      <trkpt lat="46.90645" lon="5.77139">
        <ele>285.2</ele>
        <time>2020-03-04T11:08:02Z</time>
      </trkpt>
      <trkpt lat="46.90644" lon="5.77141">
        <ele>285.2</ele>
        <time>2020-03-04T11:08:03Z</time>
      </trkpt>
      <trkpt lat="46.90644" lon="5.77143">
        <ele>285.2</ele>
        <time>2020-03-04T11:08:04Z</time>
      </trkpt>
      <trkpt lat="46.90643" lon="5.77145">
        <ele>285.4</ele>
        <time>2020-03-04T11:08:05Z</time>
      </trkpt>
      <trkpt lat="46.90642" lon="5.77148">
        <ele>285.4</ele>
        <time>2020-03-04T11:08:06Z</time>
      </trkpt>
      <trkpt lat="46.90641" lon="5.7715">
        <ele>285.6</ele>
        <time>2020-03-04T11:08:07Z</time>
      </trkpt>
      <trkpt lat="46.9064" lon="5.77152">
        <ele>285.6</ele>
        <time>2020-03-04T11:08:08Z</time>
      </trkpt>
      <trkpt lat="46.90638" lon="5.77154">
        <ele>286</ele>
        <time>2020-03-04T11:08:09Z</time>
      </trkpt>
      <trkpt lat="46.90636" lon="5.77156">
        <ele>286</ele>
        <time>2020-03-04T11:08:10Z</time>
      </trkpt>
      <trkpt lat="46.90634" lon="5.77157">
        <ele>286.2</ele>
        <time>2020-03-04T11:08:11Z</time>
      </trkpt>
      <trkpt lat="46.90633" lon="5.77159">
        <ele>286.2</ele>
        <time>2020-03-04T11:08:12Z</time>
      </trkpt>
      <trkpt lat="46.90631" lon="5.77161">
        <ele>286.6</ele>
        <time>2020-03-04T11:08:13Z</time>
      </trkpt>
      <trkpt lat="46.9063" lon="5.77162">
        <ele>286.6</ele>
        <time>2020-03-04T11:08:14Z</time>
      </trkpt>
      <trkpt lat="46.90628" lon="5.77163">
        <ele>286.8</ele>
        <time>2020-03-04T11:08:15Z</time>
      </trkpt>
      <trkpt lat="46.90626" lon="5.77163">
        <ele>286.8</ele>
        <time>2020-03-04T11:08:16Z</time>
      </trkpt>
      <trkpt lat="46.90625" lon="5.77164">
        <ele>287</ele>
        <time>2020-03-04T11:08:17Z</time>
      </trkpt>
      <trkpt lat="46.90625" lon="5.77164">
        <ele>287</ele>
        <time>2020-03-04T11:08:18Z</time>
      </trkpt>
    </trkseg>
  </trk>
</gpx>